<?xml version='1.0' encoding='UTF-8'?><gpx version="1.1" creator="JPX - https://github.com/jenetics/jpx" xmlns="http://www.topografix.com/GPX/1/1"><trk><trkseg><trkpt lat="44.03774266683219" lon="7.938768689186152"><ele>221.00000000000003</ele><time>2026-05-03T08:37:46Z</time></trkpt><trkpt lat="44.037716300665146" lon="7.938662447016451"><ele>221.0</ele><time>2026-05-03T08:43:06Z</time></trkpt><trkpt lat="44.037631662149046" lon="7.938712242992827"><ele>221.0</ele><time>2026-05-03T08:43:08Z</time></trkpt><trkpt lat="44.03762530600423" lon="7.938823959656002"><ele>221.0</ele><time>2026-05-03T08:43:10Z</time></trkpt><trkpt lat="44.03761643071588" lon="7.938922397944612"><ele>221.00000000000003</ele><time>2026-05-03T08:43:12Z</time></trkpt><trkpt lat="44.0375671454253" lon="7.939017983403377"><ele>221.0</ele><time>2026-05-03T08:43:14Z</time></trkpt><trkpt lat="44.037456292842656" lon="7.93904724154289"><ele>226.16666666666669</ele><time>2026-05-03T08:43:16Z</time></trkpt><trkpt lat="44.03737102883532" lon="7.939027884514923"><ele>231.33333333333334</ele><time>2026-05-03T08:43:18Z</time></trkpt><trkpt lat="44.0373064130144" lon="7.938986172828061"><ele>236.5</ele><time>2026-05-03T08:43:21Z</time></trkpt><trkpt lat="44.037310011182804" lon="7.938809312143487"><ele>241.66666666666669</ele><time>2026-05-03T08:43:23Z</time></trkpt><trkpt lat="44.037314848986135" lon="7.938693078658714"><ele>246.83333333333334</ele><time>2026-05-03T08:43:24Z</time></trkpt><trkpt lat="44.037326206950965" lon="7.938601640180031"><ele>252.0</ele><time>2026-05-03T08:43:25Z</time></trkpt><trkpt lat="44.037337340445156" lon="7.938493169346889"><ele>254.2</ele><time>2026-05-03T08:43:26Z</time></trkpt><trkpt lat="44.0373494131583" lon="7.938357804620927"><ele>256.4</ele><time>2026-05-03T08:43:27Z</time></trkpt><trkpt lat="44.037366460914036" lon="7.9381915280542925"><ele>258.6</ele><time>2026-05-03T08:43:28Z</time></trkpt><trkpt lat="44.03738598396261" lon="7.938038959968587"><ele>260.8</ele><time>2026-05-03T08:43:29Z</time></trkpt><trkpt lat="44.03739681604284" lon="7.937894130410481"><ele>263.0</ele><time>2026-05-03T08:43:30Z</time></trkpt><trkpt lat="44.0374182947361" lon="7.937732354446175"><ele>263.0</ele><time>2026-05-03T08:43:31Z</time></trkpt><trkpt lat="44.037445119650265" lon="7.937552989578091"><ele>263.0</ele><time>2026-05-03T08:43:32Z</time></trkpt><trkpt lat="44.037462394224335" lon="7.937353821684252"><ele>263.0</ele><time>2026-05-03T08:43:33Z</time></trkpt><trkpt lat="44.03745605492221" lon="7.937152560224558"><ele>263.0</ele><time>2026-05-03T08:43:34Z</time></trkpt><trkpt lat="44.03744856728529" lon="7.936971555464102"><ele>265.5</ele><time>2026-05-03T08:43:35Z</time></trkpt><trkpt lat="44.03745003809847" lon="7.9367716688963545"><ele>268.0</ele><time>2026-05-03T08:43:36Z</time></trkpt><trkpt lat="44.03747069452474" lon="7.936569647800073"><ele>270.5</ele><time>2026-05-03T08:43:37Z</time></trkpt><trkpt lat="44.03749289859216" lon="7.936403213780057"><ele>273.0</ele><time>2026-05-03T08:43:38Z</time></trkpt><trkpt lat="44.03750671673062" lon="7.936252832556945"><ele>262.75</ele><time>2026-05-03T08:43:39Z</time></trkpt><trkpt lat="44.037531122462354" lon="7.936087911649862"><ele>252.5</ele><time>2026-05-03T08:43:40Z</time></trkpt><trkpt lat="44.03757435485238" lon="7.935906195832415"><ele>242.25</ele><time>2026-05-03T08:43:41Z</time></trkpt><trkpt lat="44.03764798035569" lon="7.935710591572896"><ele>232.0</ele><time>2026-05-03T08:43:42Z</time></trkpt><trkpt lat="44.03771819221616" lon="7.935519251749823"><ele>232.0</ele><time>2026-05-03T08:43:43Z</time></trkpt><trkpt lat="44.03778461260441" lon="7.93533784263884"><ele>232.0</ele><time>2026-05-03T08:43:44Z</time></trkpt><trkpt lat="44.037848856331784" lon="7.9351605199075035"><ele>232.0</ele><time>2026-05-03T08:43:45Z</time></trkpt><trkpt lat="44.03791347322923" lon="7.934984414953879"><ele>232.0</ele><time>2026-05-03T08:43:46Z</time></trkpt><trkpt lat="44.0379761121038" lon="7.934804876774238"><ele>236.33333333333331</ele><time>2026-05-03T08:43:47Z</time></trkpt><trkpt lat="44.03803584328354" lon="7.934617702431161"><ele>240.66666666666669</ele><time>2026-05-03T08:43:48Z</time></trkpt><trkpt lat="44.038095991336895" lon="7.934414698628095"><ele>245.0</ele><time>2026-05-03T08:43:49Z</time></trkpt><trkpt lat="44.0381439358874" lon="7.934200351553033"><ele>252.0</ele><time>2026-05-03T08:43:50Z</time></trkpt><trkpt lat="44.03818397085517" lon="7.933966178078401"><ele>259.0</ele><time>2026-05-03T08:43:51Z</time></trkpt><trkpt lat="44.038222628348485" lon="7.9337211147308"><ele>266.0</ele><time>2026-05-03T08:43:52Z</time></trkpt><trkpt lat="44.03826446174223" lon="7.933491222003974"><ele>254.5</ele><time>2026-05-03T08:43:53Z</time></trkpt><trkpt lat="44.03830305028325" lon="7.93328727249617"><ele>243.0</ele><time>2026-05-03T08:43:54Z</time></trkpt><trkpt lat="44.038340521016245" lon="7.933093591966878"><ele>231.5</ele><time>2026-05-03T08:43:55Z</time></trkpt><trkpt lat="44.038378260333054" lon="7.93289872244106"><ele>220.0</ele><time>2026-05-03T08:43:56Z</time></trkpt><trkpt lat="44.03841109152796" lon="7.932705150030038"><ele>222.0</ele><time>2026-05-03T08:43:57Z</time></trkpt><trkpt lat="44.0384385282688" lon="7.932520113588262"><ele>224.0</ele><time>2026-05-03T08:43:58Z</time></trkpt><trkpt lat="44.03847030999106" lon="7.932336265150327"><ele>226.0</ele><time>2026-05-03T08:43:59Z</time></trkpt><trkpt lat="44.03850581625533" lon="7.93214894170846"><ele>228.0</ele><time>2026-05-03T08:44:00Z</time></trkpt><trkpt lat="44.038532670351245" lon="7.9319728717695455"><ele>228.0</ele><time>2026-05-03T08:44:01Z</time></trkpt><trkpt lat="44.038549112742146" lon="7.931812687470138"><ele>228.0</ele><time>2026-05-03T08:44:02Z</time></trkpt><trkpt lat="44.03853329694912" lon="7.931659929392961"><ele>228.0</ele><time>2026-05-03T08:44:03Z</time></trkpt><trkpt lat="44.03848854288524" lon="7.931514852041556"><ele>228.0</ele><time>2026-05-03T08:44:04Z</time></trkpt><trkpt lat="44.038457553036366" lon="7.931376943965954"><ele>228.0</ele><time>2026-05-03T08:44:05Z</time></trkpt><trkpt lat="44.03845563386807" lon="7.931227959930318"><ele>227.75</ele><time>2026-05-03T08:44:06Z</time></trkpt><trkpt lat="44.038477846125886" lon="7.931057974649399"><ele>227.5</ele><time>2026-05-03T08:44:07Z</time></trkpt><trkpt lat="44.038521454044364" lon="7.9308829575629165"><ele>227.25</ele><time>2026-05-03T08:44:08Z</time></trkpt><trkpt lat="44.03858084273889" lon="7.93070298572357"><ele>227.0</ele><time>2026-05-03T08:44:09Z</time></trkpt><trkpt lat="44.03862197245974" lon="7.930514951322123"><ele>224.25</ele><time>2026-05-03T08:44:10Z</time></trkpt><trkpt lat="44.03866455225528" lon="7.930320830098338"><ele>221.5</ele><time>2026-05-03T08:44:11Z</time></trkpt><trkpt lat="44.03870971550604" lon="7.930129102019398"><ele>218.75</ele><time>2026-05-03T08:44:12Z</time></trkpt><trkpt lat="44.038758470036406" lon="7.929928854855295"><ele>216.0</ele><time>2026-05-03T08:44:13Z</time></trkpt><trkpt lat="44.0387990922637" lon="7.929728650115683"><ele>216.0</ele><time>2026-05-03T08:44:14Z</time></trkpt><trkpt lat="44.03882649385765" lon="7.929509353103908"><ele>216.0</ele><time>2026-05-03T08:44:15Z</time></trkpt><trkpt lat="44.03884319483245" lon="7.9292780903473385"><ele>216.0</ele><time>2026-05-03T08:44:16Z</time></trkpt><trkpt lat="44.038846170183845" lon="7.929033366181273"><ele>216.0</ele><time>2026-05-03T08:44:17Z</time></trkpt><trkpt lat="44.03884604811514" lon="7.928797223334408"><ele>216.0</ele><time>2026-05-03T08:44:18Z</time></trkpt><trkpt lat="44.03884578845502" lon="7.928582262362578"><ele>216.0</ele><time>2026-05-03T08:44:19Z</time></trkpt><trkpt lat="44.03884736260931" lon="7.928386555335954"><ele>216.75</ele><time>2026-05-03T08:44:20Z</time></trkpt><trkpt lat="44.0388537494227" lon="7.928198539460152"><ele>217.5</ele><time>2026-05-03T08:44:21Z</time></trkpt><trkpt lat="44.03885960553991" lon="7.9280193643029255"><ele>218.25</ele><time>2026-05-03T08:44:22Z</time></trkpt><trkpt lat="44.038864168185434" lon="7.927843979678034"><ele>219.0</ele><time>2026-05-03T08:44:23Z</time></trkpt><trkpt lat="44.03886747849635" lon="7.927676345108809"><ele>218.75</ele><time>2026-05-03T08:44:24Z</time></trkpt><trkpt lat="44.03887035980937" lon="7.927507494582573"><ele>218.5</ele><time>2026-05-03T08:44:25Z</time></trkpt><trkpt lat="44.03887078995452" lon="7.927340602914102"><ele>218.25</ele><time>2026-05-03T08:44:26Z</time></trkpt><trkpt lat="44.03886973635372" lon="7.92717165801559"><ele>218.0</ele><time>2026-05-03T08:44:27Z</time></trkpt><trkpt lat="44.038874841991685" lon="7.926999536064498"><ele>218.0</ele><time>2026-05-03T08:44:28Z</time></trkpt><trkpt lat="44.03887939384616" lon="7.92682681607759"><ele>218.0</ele><time>2026-05-03T08:44:29Z</time></trkpt><trkpt lat="44.03888554380286" lon="7.926651218286274"><ele>218.0</ele><time>2026-05-03T08:44:30Z</time></trkpt><trkpt lat="44.038891297362674" lon="7.9264690184065545"><ele>218.0</ele><time>2026-05-03T08:44:31Z</time></trkpt><trkpt lat="44.0389004745666" lon="7.926286705864437"><ele>218.25</ele><time>2026-05-03T08:44:32Z</time></trkpt><trkpt lat="44.03891965162858" lon="7.926099320735082"><ele>218.5</ele><time>2026-05-03T08:44:33Z</time></trkpt><trkpt lat="44.03896323354401" lon="7.925907446594779"><ele>218.75</ele><time>2026-05-03T08:44:34Z</time></trkpt><trkpt lat="44.03903311403378" lon="7.925715931302615"><ele>219.0</ele><time>2026-05-03T08:44:35Z</time></trkpt><trkpt lat="44.03911634240799" lon="7.925521926166938"><ele>219.33333333333331</ele><time>2026-05-03T08:44:36Z</time></trkpt><trkpt lat="44.0392133862236" lon="7.925327337336473"><ele>219.66666666666666</ele><time>2026-05-03T08:44:37Z</time></trkpt><trkpt lat="44.03930597363622" lon="7.925126562086397"><ele>220.0</ele><time>2026-05-03T08:44:38Z</time></trkpt><trkpt lat="44.03938898098586" lon="7.92493915478704"><ele>220.0</ele><time>2026-05-03T08:44:39Z</time></trkpt><trkpt lat="44.03947206242187" lon="7.924760722426209"><ele>220.0</ele><time>2026-05-03T08:44:40Z</time></trkpt><trkpt lat="44.039550628954295" lon="7.924585915633376"><ele>220.0</ele><time>2026-05-03T08:44:41Z</time></trkpt><trkpt lat="44.03963345510779" lon="7.9244159684033555"><ele>220.0</ele><time>2026-05-03T08:44:42Z</time></trkpt><trkpt lat="44.039726089034424" lon="7.924251222713407"><ele>220.0</ele><time>2026-05-03T08:44:43Z</time></trkpt><trkpt lat="44.039830035608645" lon="7.924095067337439"><ele>220.0</ele><time>2026-05-03T08:44:44Z</time></trkpt><trkpt lat="44.03993529685006" lon="7.923973163025743"><ele>220.0</ele><time>2026-05-03T08:44:45Z</time></trkpt><trkpt lat="44.04004587287341" lon="7.9238890986058745"><ele>220.0</ele><time>2026-05-03T08:44:46Z</time></trkpt><trkpt lat="44.040148522778885" lon="7.923829617643377"><ele>222.25</ele><time>2026-05-03T08:44:47Z</time></trkpt><trkpt lat="44.040253171093376" lon="7.923788987152498"><ele>224.5</ele><time>2026-05-03T08:44:48Z</time></trkpt><trkpt lat="44.04037336776745" lon="7.923754678287579"><ele>226.75</ele><time>2026-05-03T08:44:49Z</time></trkpt><trkpt lat="44.04050878322827" lon="7.923727143800782"><ele>229.0</ele><time>2026-05-03T08:44:50Z</time></trkpt><trkpt lat="44.04065868432238" lon="7.923713018584824"><ele>234.66666666666666</ele><time>2026-05-03T08:44:51Z</time></trkpt><trkpt lat="44.04081599718144" lon="7.923702709768129"><ele>240.33333333333331</ele><time>2026-05-03T08:44:52Z</time></trkpt><trkpt lat="44.040987241544954" lon="7.923689553692016"><ele>246.0</ele><time>2026-05-03T08:44:53Z</time></trkpt><trkpt lat="44.041158069259026" lon="7.923667367946662"><ele>246.0</ele><time>2026-05-03T08:44:54Z</time></trkpt><trkpt lat="44.04132429954742" lon="7.923633451486765"><ele>246.0</ele><time>2026-05-03T08:44:55Z</time></trkpt><trkpt lat="44.04147854068185" lon="7.923567152622754"><ele>246.0</ele><time>2026-05-03T08:44:56Z</time></trkpt><trkpt lat="44.04160409842853" lon="7.923457712274201"><ele>244.66666666666669</ele><time>2026-05-03T08:44:57Z</time></trkpt><trkpt lat="44.0416896898248" lon="7.923286815788422"><ele>243.33333333333334</ele><time>2026-05-03T08:44:58Z</time></trkpt><trkpt lat="44.0417959991097" lon="7.923110720361982"><ele>242.0</ele><time>2026-05-03T08:44:59Z</time></trkpt><trkpt lat="44.0418822658159" lon="7.9229049788813635"><ele>242.0</ele><time>2026-05-03T08:45:00Z</time></trkpt><trkpt lat="44.04195914746862" lon="7.922688783850423"><ele>242.0</ele><time>2026-05-03T08:45:01Z</time></trkpt><trkpt lat="44.04199908688098" lon="7.922494651029755"><ele>242.0</ele><time>2026-05-03T08:45:02Z</time></trkpt><trkpt lat="44.042032326072714" lon="7.922308923478354"><ele>238.25</ele><time>2026-05-03T08:45:03Z</time></trkpt><trkpt lat="44.04204205830667" lon="7.922102178868876"><ele>234.5</ele><time>2026-05-03T08:45:04Z</time></trkpt><trkpt lat="44.04205267901974" lon="7.921916401485966"><ele>230.75</ele><time>2026-05-03T08:45:05Z</time></trkpt><trkpt lat="44.042065733935004" lon="7.921709080982491"><ele>227.0</ele><time>2026-05-03T08:45:06Z</time></trkpt><trkpt lat="44.04207922246715" lon="7.921515756555877"><ele>226.5</ele><time>2026-05-03T08:45:07Z</time></trkpt><trkpt lat="44.04209119604077" lon="7.921330059433528"><ele>226.0</ele><time>2026-05-03T08:45:08Z</time></trkpt><trkpt lat="44.04210354900957" lon="7.9211575449723135"><ele>225.5</ele><time>2026-05-03T08:45:09Z</time></trkpt><trkpt lat="44.04211887185161" lon="7.920988231840024"><ele>225.0</ele><time>2026-05-03T08:45:10Z</time></trkpt><trkpt lat="44.042144681962384" lon="7.9208454557906975"><ele>226.0</ele><time>2026-05-03T08:45:11Z</time></trkpt><trkpt lat="44.042171265737935" lon="7.9207468260290845"><ele>227.0</ele><time>2026-05-03T08:45:12Z</time></trkpt><trkpt lat="44.042180935242186" lon="7.920619588059582"><ele>228.0</ele><time>2026-05-03T08:45:14Z</time></trkpt><trkpt lat="44.04224798275121" lon="7.92053096321579"><ele>229.0</ele><time>2026-05-03T08:45:17Z</time></trkpt><trkpt lat="44.04230264202999" lon="7.9204247329845785"><ele>230.0</ele><time>2026-05-03T08:45:19Z</time></trkpt><trkpt lat="44.04232364794181" lon="7.92033513531388"><ele>231.0</ele><time>2026-05-03T08:45:23Z</time></trkpt><trkpt lat="44.04238773641598" lon="7.920300027992774"><ele>231.0</ele><time>2026-05-03T08:48:52Z</time></trkpt><trkpt lat="44.04246174163535" lon="7.92036896306668"><ele>231.0</ele><time>2026-05-03T08:48:58Z</time></trkpt><trkpt lat="44.042525564483505" lon="7.920377169988276"><ele>231.0</ele><time>2026-05-03T08:48:59Z</time></trkpt><trkpt lat="44.042598469746515" lon="7.920331804672801"><ele>231.0</ele><time>2026-05-03T08:49:00Z</time></trkpt><trkpt lat="44.04266612491508" lon="7.920269163793692"><ele>231.0</ele><time>2026-05-03T08:49:01Z</time></trkpt><trkpt lat="44.04275225433175" lon="7.9201924078623875"><ele>231.0</ele><time>2026-05-03T08:49:02Z</time></trkpt><trkpt lat="44.04284409435351" lon="7.920125701766537"><ele>231.75</ele><time>2026-05-03T08:49:03Z</time></trkpt><trkpt lat="44.04293883386936" lon="7.920064286025854"><ele>232.5</ele><time>2026-05-03T08:49:04Z</time></trkpt><trkpt lat="44.04304865442089" lon="7.919989852765763"><ele>233.25</ele><time>2026-05-03T08:49:05Z</time></trkpt><trkpt lat="44.043166813601516" lon="7.919903491141882"><ele>234.0</ele><time>2026-05-03T08:49:06Z</time></trkpt><trkpt lat="44.0432867093017" lon="7.919826445224851"><ele>236.75</ele><time>2026-05-03T08:49:07Z</time></trkpt><trkpt lat="44.04340197273903" lon="7.919754962068043"><ele>239.5</ele><time>2026-05-03T08:49:08Z</time></trkpt><trkpt lat="44.04352149123823" lon="7.919677456106827"><ele>242.25</ele><time>2026-05-03T08:49:09Z</time></trkpt><trkpt lat="44.043610329910514" lon="7.919547819115582"><ele>245.0</ele><time>2026-05-03T08:49:10Z</time></trkpt><trkpt lat="44.04368960228274" lon="7.919400082085308"><ele>245.0</ele><time>2026-05-03T08:49:11Z</time></trkpt><trkpt lat="44.043763905915576" lon="7.919276929149444"><ele>245.0</ele><time>2026-05-03T08:49:12Z</time></trkpt><trkpt lat="44.04383536305988" lon="7.919146043562588"><ele>245.0</ele><time>2026-05-03T08:49:13Z</time></trkpt><trkpt lat="44.043895102599336" lon="7.9189890333509485"><ele>245.0</ele><time>2026-05-03T08:49:14Z</time></trkpt><trkpt lat="44.04395171819717" lon="7.918823726256258"><ele>244.75</ele><time>2026-05-03T08:49:15Z</time></trkpt><trkpt lat="44.04400640155228" lon="7.918676187083244"><ele>244.5</ele><time>2026-05-03T08:49:16Z</time></trkpt><trkpt lat="44.04409320717726" lon="7.918563900851538"><ele>244.25</ele><time>2026-05-03T08:49:17Z</time></trkpt><trkpt lat="44.044198982257086" lon="7.918446815637349"><ele>244.0</ele><time>2026-05-03T08:49:18Z</time></trkpt><trkpt lat="44.044287603698734" lon="7.918321515596366"><ele>244.0</ele><time>2026-05-03T08:49:19Z</time></trkpt><trkpt lat="44.044363226031756" lon="7.918181066569713"><ele>244.0</ele><time>2026-05-03T08:49:20Z</time></trkpt><trkpt lat="44.04443905971102" lon="7.918043644618253"><ele>244.0</ele><time>2026-05-03T08:49:21Z</time></trkpt><trkpt lat="44.04450129316759" lon="7.917909639598593"><ele>244.0</ele><time>2026-05-03T08:49:22Z</time></trkpt><trkpt lat="44.044578416607656" lon="7.917809927233397"><ele>244.0</ele><time>2026-05-03T08:49:23Z</time></trkpt><trkpt lat="44.04466316497706" lon="7.9177463607819565"><ele>243.99999999999997</ele><time>2026-05-03T08:49:24Z</time></trkpt><trkpt lat="44.04472896287001" lon="7.917685967035595"><ele>243.99999999999997</ele><time>2026-05-03T08:49:25Z</time></trkpt><trkpt lat="44.044825541749454" lon="7.917588606048466"><ele>244.0</ele><time>2026-05-03T08:49:27Z</time></trkpt><trkpt lat="44.04491537265657" lon="7.917529095489099"><ele>244.0</ele><time>2026-05-03T08:49:29Z</time></trkpt><trkpt lat="44.045043181191545" lon="7.917513409249129"><ele>244.66666666666666</ele><time>2026-05-03T08:49:31Z</time></trkpt><trkpt lat="44.04514050426758" lon="7.917503554551226"><ele>245.33333333333331</ele><time>2026-05-03T08:49:33Z</time></trkpt><trkpt lat="44.04524249522559" lon="7.917500564011557"><ele>246.0</ele><time>2026-05-03T08:49:36Z</time></trkpt><trkpt lat="44.04529590173216" lon="7.917551184983034"><ele>246.66666666666669</ele><time>2026-05-03T08:49:38Z</time></trkpt><trkpt lat="44.04533954113208" lon="7.917616192592423"><ele>247.33333333333334</ele><time>2026-05-03T08:49:40Z</time></trkpt><trkpt lat="44.045429202355095" lon="7.917693877042685"><ele>248.0</ele><time>2026-05-03T08:49:43Z</time></trkpt><trkpt lat="44.0455324726687" lon="7.917732397001732"><ele>249.2</ele><time>2026-05-03T08:49:45Z</time></trkpt><trkpt lat="44.04562988401676" lon="7.917675603318397"><ele>250.4</ele><time>2026-05-03T08:49:47Z</time></trkpt><trkpt lat="44.04570414282473" lon="7.917630020374757"><ele>251.59999999999997</ele><time>2026-05-03T08:49:49Z</time></trkpt><trkpt lat="44.0458195849657" lon="7.9176024105701766"><ele>252.79999999999998</ele><time>2026-05-03T08:49:51Z</time></trkpt><trkpt lat="44.045889572816066" lon="7.917577400632551"><ele>254.0</ele><time>2026-05-03T08:49:52Z</time></trkpt><trkpt lat="44.04596597792927" lon="7.917568337352422"><ele>254.66666666666669</ele><time>2026-05-03T08:49:53Z</time></trkpt><trkpt lat="44.04604637903677" lon="7.917563249503242"><ele>255.33333333333334</ele><time>2026-05-03T08:49:54Z</time></trkpt><trkpt lat="44.046128700841564" lon="7.91756818382691"><ele>256.0</ele><time>2026-05-03T08:49:55Z</time></trkpt><trkpt lat="44.04620287678582" lon="7.917649478025715"><ele>256.6666666666667</ele><time>2026-05-03T08:49:56Z</time></trkpt><trkpt lat="44.04628773232054" lon="7.91769024936817"><ele>257.3333333333333</ele><time>2026-05-03T08:49:57Z</time></trkpt><trkpt lat="44.046363018717635" lon="7.9177326835524156"><ele>258.0</ele><time>2026-05-03T08:49:58Z</time></trkpt><trkpt lat="44.04643557008974" lon="7.9177548744390585"><ele>258.3333333333333</ele><time>2026-05-03T08:49:59Z</time></trkpt><trkpt lat="44.04650226205477" lon="7.917764928920705"><ele>258.6666666666667</ele><time>2026-05-03T08:50:00Z</time></trkpt><trkpt lat="44.04657768862021" lon="7.9177094708339215"><ele>259.0</ele><time>2026-05-03T08:50:01Z</time></trkpt><trkpt lat="44.046654864971245" lon="7.917636824657076"><ele>259.33333333333337</ele><time>2026-05-03T08:50:02Z</time></trkpt><trkpt lat="44.04672844851721" lon="7.917556450634464"><ele>259.6666666666667</ele><time>2026-05-03T08:50:03Z</time></trkpt><trkpt lat="44.04679662533553" lon="7.9174723004011245"><ele>260.0</ele><time>2026-05-03T08:50:04Z</time></trkpt><trkpt lat="44.04685916092494" lon="7.9174037474853"><ele>260.4</ele><time>2026-05-03T08:50:05Z</time></trkpt><trkpt lat="44.046920486234" lon="7.917323879946433"><ele>260.8</ele><time>2026-05-03T08:50:06Z</time></trkpt><trkpt lat="44.046983747901024" lon="7.917256059195834"><ele>261.2</ele><time>2026-05-03T08:50:07Z</time></trkpt><trkpt lat="44.04704316467782" lon="7.917185461159757"><ele>261.6</ele><time>2026-05-03T08:50:08Z</time></trkpt><trkpt lat="44.04713992220254" lon="7.91708974719228"><ele>262.0</ele><time>2026-05-03T08:50:10Z</time></trkpt><trkpt lat="44.04719682179395" lon="7.9169886006358885"><ele>262.0</ele><time>2026-05-03T08:50:12Z</time></trkpt><trkpt lat="44.04725921900044" lon="7.916920589665421"><ele>262.0</ele><time>2026-05-03T08:50:14Z</time></trkpt><trkpt lat="44.047293166278294" lon="7.916835538809358"><ele>262.0</ele><time>2026-05-03T08:50:16Z</time></trkpt><trkpt lat="44.047286675409104" lon="7.916744303649562"><ele>262.0</ele><time>2026-05-03T08:50:18Z</time></trkpt><trkpt lat="44.047274258917014" lon="7.916637615719957"><ele>262.0</ele><time>2026-05-03T08:50:20Z</time></trkpt><trkpt lat="44.0472664549652" lon="7.916484879580841"><ele>262.0</ele><time>2026-05-03T08:50:22Z</time></trkpt><trkpt lat="44.04732154077665" lon="7.916397559768241"><ele>262.2</ele><time>2026-05-03T08:50:23Z</time></trkpt><trkpt lat="44.047393300256374" lon="7.916308836788985"><ele>262.4</ele><time>2026-05-03T08:50:24Z</time></trkpt><trkpt lat="44.04748937249372" lon="7.916219912894273"><ele>262.6</ele><time>2026-05-03T08:50:25Z</time></trkpt><trkpt lat="44.04757985128552" lon="7.916135312613098"><ele>262.8</ele><time>2026-05-03T08:50:26Z</time></trkpt><trkpt lat="44.04768058975751" lon="7.9160304540397055"><ele>263.0</ele><time>2026-05-03T08:50:27Z</time></trkpt><trkpt lat="44.047782275477054" lon="7.915915134522382"><ele>263.2</ele><time>2026-05-03T08:50:28Z</time></trkpt><trkpt lat="44.04787468456705" lon="7.915820408327502"><ele>263.4</ele><time>2026-05-03T08:50:29Z</time></trkpt><trkpt lat="44.04796243503906" lon="7.915753802418925"><ele>263.59999999999997</ele><time>2026-05-03T08:50:30Z</time></trkpt><trkpt lat="44.04804730342208" lon="7.915724790901875"><ele>263.8</ele><time>2026-05-03T08:50:31Z</time></trkpt><trkpt lat="44.04811999742817" lon="7.9157228180394155"><ele>264.0</ele><time>2026-05-03T08:50:32Z</time></trkpt><trkpt lat="44.048174020818294" lon="7.915810815010166"><ele>263.8333333333333</ele><time>2026-05-03T08:50:33Z</time></trkpt><trkpt lat="44.048212696626095" lon="7.915925982823751"><ele>263.6666666666667</ele><time>2026-05-03T08:50:34Z</time></trkpt><trkpt lat="44.04822932428369" lon="7.916052404314891"><ele>263.5</ele><time>2026-05-03T08:50:35Z</time></trkpt><trkpt lat="44.0482575006219" lon="7.916164522239925"><ele>263.33333333333337</ele><time>2026-05-03T08:50:36Z</time></trkpt><trkpt lat="44.04830856470202" lon="7.916221007084774"><ele>263.1666666666667</ele><time>2026-05-03T08:50:37Z</time></trkpt><trkpt lat="44.04838901971744" lon="7.91622161288236"><ele>263.0</ele><time>2026-05-03T08:50:38Z</time></trkpt><trkpt lat="44.04847908841108" lon="7.916150094328337"><ele>263.25</ele><time>2026-05-03T08:50:39Z</time></trkpt><trkpt lat="44.04856976866363" lon="7.91606173070895"><ele>263.5</ele><time>2026-05-03T08:50:40Z</time></trkpt><trkpt lat="44.048675982166266" lon="7.916002817346969"><ele>263.75</ele><time>2026-05-03T08:50:41Z</time></trkpt><trkpt lat="44.0488008759584" lon="7.9159365130500925"><ele>264.0</ele><time>2026-05-03T08:50:42Z</time></trkpt><trkpt lat="44.04891996200728" lon="7.9158830805027955"><ele>264.0</ele><time>2026-05-03T08:50:43Z</time></trkpt><trkpt lat="44.04901648901391" lon="7.915819750276089"><ele>264.0</ele><time>2026-05-03T08:50:44Z</time></trkpt><trkpt lat="44.04914157576078" lon="7.9157422387641585"><ele>264.0</ele><time>2026-05-03T08:50:45Z</time></trkpt><trkpt lat="44.04926540135772" lon="7.915689133441866"><ele>264.0</ele><time>2026-05-03T08:50:46Z</time></trkpt><trkpt lat="44.049361177865855" lon="7.915633397413796"><ele>266.75</ele><time>2026-05-03T08:50:47Z</time></trkpt><trkpt lat="44.04945464478248" lon="7.915599505003806"><ele>269.5</ele><time>2026-05-03T08:50:48Z</time></trkpt><trkpt lat="44.04955726172277" lon="7.91565416476206"><ele>272.25</ele><time>2026-05-03T08:50:49Z</time></trkpt><trkpt lat="44.0496696557927" lon="7.915691609129678"><ele>275.0</ele><time>2026-05-03T08:50:50Z</time></trkpt><trkpt lat="44.04980756227428" lon="7.9157154248768675"><ele>275.0</ele><time>2026-05-03T08:50:51Z</time></trkpt><trkpt lat="44.04993858494757" lon="7.915735053213636"><ele>275.0</ele><time>2026-05-03T08:50:52Z</time></trkpt><trkpt lat="44.05007726144321" lon="7.915736375057515"><ele>275.0</ele><time>2026-05-03T08:50:53Z</time></trkpt><trkpt lat="44.05020804422529" lon="7.915729500468962"><ele>275.0</ele><time>2026-05-03T08:50:54Z</time></trkpt><trkpt lat="44.05033752621495" lon="7.915712750006769"><ele>276.0</ele><time>2026-05-03T08:50:55Z</time></trkpt><trkpt lat="44.05046876604298" lon="7.915692268872485"><ele>277.0</ele><time>2026-05-03T08:50:56Z</time></trkpt><trkpt lat="44.05061063504483" lon="7.915655955456326"><ele>278.0</ele><time>2026-05-03T08:50:57Z</time></trkpt><trkpt lat="44.05074854541798" lon="7.915613980311374"><ele>279.0</ele><time>2026-05-03T08:50:58Z</time></trkpt><trkpt lat="44.05088418126309" lon="7.91556371597718"><ele>281.25</ele><time>2026-05-03T08:50:59Z</time></trkpt><trkpt lat="44.05101574850818" lon="7.915505938070947"><ele>283.5</ele><time>2026-05-03T08:51:00Z</time></trkpt><trkpt lat="44.05114366178273" lon="7.915452544809959"><ele>285.75</ele><time>2026-05-03T08:51:01Z</time></trkpt><trkpt lat="44.05126584170375" lon="7.915408048857086"><ele>288.0</ele><time>2026-05-03T08:51:02Z</time></trkpt><trkpt lat="44.05138339484238" lon="7.915365706073637"><ele>288.0</ele><time>2026-05-03T08:51:03Z</time></trkpt><trkpt lat="44.05150813243783" lon="7.9153175860573075"><ele>288.0</ele><time>2026-05-03T08:51:04Z</time></trkpt><trkpt lat="44.05163310251848" lon="7.915261837647891"><ele>288.0</ele><time>2026-05-03T08:51:05Z</time></trkpt><trkpt lat="44.0517542502527" lon="7.915217628537315"><ele>288.0</ele><time>2026-05-03T08:51:06Z</time></trkpt><trkpt lat="44.05188074790725" lon="7.915167274803339"><ele>291.0</ele><time>2026-05-03T08:51:07Z</time></trkpt><trkpt lat="44.05201622729726" lon="7.915112468687744"><ele>294.0</ele><time>2026-05-03T08:51:08Z</time></trkpt><trkpt lat="44.05215613264049" lon="7.915052936519428"><ele>297.0</ele><time>2026-05-03T08:51:09Z</time></trkpt><trkpt lat="44.05229451228266" lon="7.914994449620098"><ele>300.0</ele><time>2026-05-03T08:51:10Z</time></trkpt><trkpt lat="44.052430613385376" lon="7.914944622940833"><ele>295.25</ele><time>2026-05-03T08:51:11Z</time></trkpt><trkpt lat="44.05256303064935" lon="7.914895621401767"><ele>290.5</ele><time>2026-05-03T08:51:12Z</time></trkpt><trkpt lat="44.052693609539524" lon="7.914833737539996"><ele>285.75</ele><time>2026-05-03T08:51:13Z</time></trkpt><trkpt lat="44.05282427794713" lon="7.9147556186013235"><ele>281.0</ele><time>2026-05-03T08:51:14Z</time></trkpt><trkpt lat="44.052942398708865" lon="7.914670711468303"><ele>281.0</ele><time>2026-05-03T08:51:15Z</time></trkpt><trkpt lat="44.05306445926182" lon="7.914612758479687"><ele>281.0</ele><time>2026-05-03T08:51:16Z</time></trkpt><trkpt lat="44.053203176699625" lon="7.914580562499945"><ele>281.0</ele><time>2026-05-03T08:51:17Z</time></trkpt><trkpt lat="44.05333946802767" lon="7.914550246070167"><ele>281.0</ele><time>2026-05-03T08:51:18Z</time></trkpt><trkpt lat="44.05346302797401" lon="7.914535372813014"><ele>284.5</ele><time>2026-05-03T08:51:19Z</time></trkpt><trkpt lat="44.05357390746459" lon="7.914538664250295"><ele>288.0</ele><time>2026-05-03T08:51:20Z</time></trkpt><trkpt lat="44.05367211243732" lon="7.914571883491666"><ele>291.5</ele><time>2026-05-03T08:51:21Z</time></trkpt><trkpt lat="44.0537668763986" lon="7.914630430654334"><ele>295.0</ele><time>2026-05-03T08:51:22Z</time></trkpt><trkpt lat="44.05387892030084" lon="7.91476355937943"><ele>295.0</ele><time>2026-05-03T08:51:23Z</time></trkpt><trkpt lat="44.053980984633625" lon="7.914885696505673"><ele>295.0</ele><time>2026-05-03T08:51:24Z</time></trkpt><trkpt lat="44.054091877744206" lon="7.9150007847442465"><ele>295.0</ele><time>2026-05-03T08:51:25Z</time></trkpt><trkpt lat="44.05421940217253" lon="7.915098750643613"><ele>295.0</ele><time>2026-05-03T08:51:26Z</time></trkpt><trkpt lat="44.05435206183411" lon="7.9151813018640444"><ele>303.25</ele><time>2026-05-03T08:51:27Z</time></trkpt><trkpt lat="44.05447763726025" lon="7.915258338756539"><ele>311.5</ele><time>2026-05-03T08:51:28Z</time></trkpt><trkpt lat="44.054597241885354" lon="7.915316076769818"><ele>319.75</ele><time>2026-05-03T08:51:29Z</time></trkpt><trkpt lat="44.054710031269316" lon="7.9153512232255165"><ele>328.0</ele><time>2026-05-03T08:51:30Z</time></trkpt><trkpt lat="44.054830874140094" lon="7.915370436881427"><ele>325.5</ele><time>2026-05-03T08:51:31Z</time></trkpt><trkpt lat="44.054965981736785" lon="7.915362068071069"><ele>323.0</ele><time>2026-05-03T08:51:32Z</time></trkpt><trkpt lat="44.055109196804494" lon="7.915349224797221"><ele>320.5</ele><time>2026-05-03T08:51:33Z</time></trkpt><trkpt lat="44.05523784552138" lon="7.915324453994474"><ele>318.0</ele><time>2026-05-03T08:51:34Z</time></trkpt><trkpt lat="44.055366884956854" lon="7.915271547731232"><ele>318.0</ele><time>2026-05-03T08:51:35Z</time></trkpt><trkpt lat="44.0554890072774" lon="7.915164771386521"><ele>318.0</ele><time>2026-05-03T08:51:36Z</time></trkpt><trkpt lat="44.05560143364658" lon="7.915057409585065"><ele>318.0</ele><time>2026-05-03T08:51:37Z</time></trkpt><trkpt lat="44.055699155568256" lon="7.91494565228041"><ele>318.0</ele><time>2026-05-03T08:51:38Z</time></trkpt><trkpt lat="44.05580298723923" lon="7.914819712855875"><ele>311.25</ele><time>2026-05-03T08:51:39Z</time></trkpt><trkpt lat="44.05590757761017" lon="7.914705223997162"><ele>304.5</ele><time>2026-05-03T08:51:40Z</time></trkpt><trkpt lat="44.05600922609963" lon="7.914586274572092"><ele>297.75</ele><time>2026-05-03T08:51:41Z</time></trkpt><trkpt lat="44.056108961238955" lon="7.9144670405647775"><ele>291.0</ele><time>2026-05-03T08:51:42Z</time></trkpt><trkpt lat="44.0562125151265" lon="7.914342348807234"><ele>290.0</ele><time>2026-05-03T08:51:43Z</time></trkpt><trkpt lat="44.056312852503744" lon="7.9142254857975365"><ele>289.0</ele><time>2026-05-03T08:51:44Z</time></trkpt><trkpt lat="44.05640154852375" lon="7.914125792247293"><ele>288.0</ele><time>2026-05-03T08:51:45Z</time></trkpt><trkpt lat="44.056483545526966" lon="7.9140484678370635"><ele>287.0</ele><time>2026-05-03T08:51:46Z</time></trkpt><trkpt lat="44.05657317552744" lon="7.914005168904273"><ele>286.0</ele><time>2026-05-03T08:51:47Z</time></trkpt><trkpt lat="44.056660857495274" lon="7.914000494138074"><ele>286.0</ele><time>2026-05-03T08:51:48Z</time></trkpt><trkpt lat="44.05675606272955" lon="7.914031726229213"><ele>286.0</ele><time>2026-05-03T08:51:49Z</time></trkpt><trkpt lat="44.05684356186999" lon="7.914105432802475"><ele>286.0</ele><time>2026-05-03T08:51:50Z</time></trkpt><trkpt lat="44.05693278044908" lon="7.914204391612565"><ele>286.0</ele><time>2026-05-03T08:51:51Z</time></trkpt><trkpt lat="44.05702597454712" lon="7.914300005419515"><ele>286.0</ele><time>2026-05-03T08:51:52Z</time></trkpt><trkpt lat="44.057111743104" lon="7.914350777252044"><ele>286.0</ele><time>2026-05-03T08:51:53Z</time></trkpt><trkpt lat="44.05719023715889" lon="7.914338109135412"><ele>286.0</ele><time>2026-05-03T08:51:54Z</time></trkpt><trkpt lat="44.05726900963652" lon="7.914274922507852"><ele>286.0</ele><time>2026-05-03T08:51:55Z</time></trkpt><trkpt lat="44.057361150992094" lon="7.914184399073311"><ele>286.0</ele><time>2026-05-03T08:51:56Z</time></trkpt><trkpt lat="44.057471453889434" lon="7.914089972806389"><ele>286.0</ele><time>2026-05-03T08:51:57Z</time></trkpt><trkpt lat="44.05759283328423" lon="7.913989777116569"><ele>286.75</ele><time>2026-05-03T08:51:58Z</time></trkpt><trkpt lat="44.057713334438176" lon="7.913895135435912"><ele>287.5</ele><time>2026-05-03T08:51:59Z</time></trkpt><trkpt lat="44.05783337169087" lon="7.913805455317307"><ele>288.25</ele><time>2026-05-03T08:52:00Z</time></trkpt><trkpt lat="44.057976842255215" lon="7.91370886500796"><ele>289.0</ele><time>2026-05-03T08:52:01Z</time></trkpt><trkpt lat="44.058114326252834" lon="7.9136073333484624"><ele>289.0</ele><time>2026-05-03T08:52:02Z</time></trkpt><trkpt lat="44.05824179928551" lon="7.913511588200214"><ele>289.0</ele><time>2026-05-03T08:52:03Z</time></trkpt><trkpt lat="44.05836114628376" lon="7.913424964339138"><ele>289.0</ele><time>2026-05-03T08:52:04Z</time></trkpt><trkpt lat="44.05847356087894" lon="7.913342495216346"><ele>289.0</ele><time>2026-05-03T08:52:05Z</time></trkpt><trkpt lat="44.058591658902785" lon="7.913264673753612"><ele>290.75</ele><time>2026-05-03T08:52:06Z</time></trkpt><trkpt lat="44.058711798656915" lon="7.913178174267594"><ele>292.5</ele><time>2026-05-03T08:52:07Z</time></trkpt><trkpt lat="44.05883212124287" lon="7.913090117317917"><ele>294.25</ele><time>2026-05-03T08:52:08Z</time></trkpt><trkpt lat="44.05894440535298" lon="7.91300705142938"><ele>296.0</ele><time>2026-05-03T08:52:09Z</time></trkpt><trkpt lat="44.05905087214929" lon="7.912934841126275"><ele>296.75</ele><time>2026-05-03T08:52:10Z</time></trkpt><trkpt lat="44.05915739398722" lon="7.912866448638439"><ele>297.5</ele><time>2026-05-03T08:52:11Z</time></trkpt><trkpt lat="44.05927488037414" lon="7.912811000805351"><ele>298.25</ele><time>2026-05-03T08:52:12Z</time></trkpt><trkpt lat="44.059404771869" lon="7.912761768806088"><ele>299.0</ele><time>2026-05-03T08:52:13Z</time></trkpt><trkpt lat="44.05954535545624" lon="7.912716990937856"><ele>299.0</ele><time>2026-05-03T08:52:14Z</time></trkpt><trkpt lat="44.05969114108229" lon="7.912669624459532"><ele>299.0</ele><time>2026-05-03T08:52:15Z</time></trkpt><trkpt lat="44.0598488899385" lon="7.912622855094566"><ele>299.0</ele><time>2026-05-03T08:52:16Z</time></trkpt><trkpt lat="44.06000639334618" lon="7.912570316411031"><ele>302.6666666666667</ele><time>2026-05-03T08:52:17Z</time></trkpt><trkpt lat="44.06016460417381" lon="7.912511188834182"><ele>306.3333333333333</ele><time>2026-05-03T08:52:18Z</time></trkpt><trkpt lat="44.06031692855266" lon="7.91245861868946"><ele>310.0</ele><time>2026-05-03T08:52:19Z</time></trkpt><trkpt lat="44.06046300882563" lon="7.912403354809389"><ele>310.0</ele><time>2026-05-03T08:52:20Z</time></trkpt><trkpt lat="44.06060864082799" lon="7.9123456459519"><ele>310.0</ele><time>2026-05-03T08:52:21Z</time></trkpt><trkpt lat="44.06075589066195" lon="7.912295352507568"><ele>310.0</ele><time>2026-05-03T08:52:22Z</time></trkpt><trkpt lat="44.06090408635722" lon="7.912245160655899"><ele>309.3333333333333</ele><time>2026-05-03T08:52:23Z</time></trkpt><trkpt lat="44.06105678342993" lon="7.912189767812449"><ele>308.6666666666667</ele><time>2026-05-03T08:52:24Z</time></trkpt><trkpt lat="44.06120704681502" lon="7.9121401608056665"><ele>308.0</ele><time>2026-05-03T08:52:25Z</time></trkpt><trkpt lat="44.06135701026966" lon="7.912096374805447"><ele>308.0</ele><time>2026-05-03T08:52:26Z</time></trkpt><trkpt lat="44.06149772236487" lon="7.912053297834648"><ele>308.0</ele><time>2026-05-03T08:52:27Z</time></trkpt><trkpt lat="44.061630549324335" lon="7.912021013870704"><ele>308.0</ele><time>2026-05-03T08:52:28Z</time></trkpt><trkpt lat="44.06176629890201" lon="7.911987465316182"><ele>308.0</ele><time>2026-05-03T08:52:29Z</time></trkpt><trkpt lat="44.061901145466" lon="7.911924798940836"><ele>309.0</ele><time>2026-05-03T08:52:30Z</time></trkpt><trkpt lat="44.06202599077142" lon="7.9118267959701765"><ele>310.0</ele><time>2026-05-03T08:52:31Z</time></trkpt><trkpt lat="44.06215652773155" lon="7.911761272832115"><ele>311.0</ele><time>2026-05-03T08:52:32Z</time></trkpt><trkpt lat="44.062288307777" lon="7.911727941125269"><ele>312.0</ele><time>2026-05-03T08:52:33Z</time></trkpt><trkpt lat="44.06240896550876" lon="7.91170989986547"><ele>316.0</ele><time>2026-05-03T08:52:34Z</time></trkpt><trkpt lat="44.062528428548845" lon="7.911668300402825"><ele>320.0</ele><time>2026-05-03T08:52:35Z</time></trkpt><trkpt lat="44.06262633151302" lon="7.9115923562208375"><ele>324.0</ele><time>2026-05-03T08:52:36Z</time></trkpt><trkpt lat="44.06270842284468" lon="7.911524428134317"><ele>328.0</ele><time>2026-05-03T08:52:37Z</time></trkpt><trkpt lat="44.06278866179553" lon="7.9114843492962255"><ele>332.0</ele><time>2026-05-03T08:52:38Z</time></trkpt><trkpt lat="44.062872956022225" lon="7.911474480941222"><ele>332.0</ele><time>2026-05-03T08:52:39Z</time></trkpt><trkpt lat="44.06296053267785" lon="7.911419859741036"><ele>332.0</ele><time>2026-05-03T08:52:41Z</time></trkpt><trkpt lat="44.06305982992415" lon="7.911683092175658"><ele>332.0</ele><time>2026-05-03T08:52:42Z</time></trkpt><trkpt lat="44.06313638985646" lon="7.911781218304323"><ele>332.0</ele><time>2026-05-03T08:52:43Z</time></trkpt><trkpt lat="44.06323615088115" lon="7.911864328855823"><ele>331.25</ele><time>2026-05-03T08:52:44Z</time></trkpt><trkpt lat="44.06334183799889" lon="7.911955549599995"><ele>330.5</ele><time>2026-05-03T08:52:45Z</time></trkpt><trkpt lat="44.06344303548793" lon="7.912056756956119"><ele>329.75</ele><time>2026-05-03T08:52:46Z</time></trkpt><trkpt lat="44.0635481594504" lon="7.912158093780888"><ele>329.0</ele><time>2026-05-03T08:52:47Z</time></trkpt><trkpt lat="44.063640418522596" lon="7.912291443743446"><ele>329.0</ele><time>2026-05-03T08:52:48Z</time></trkpt><trkpt lat="44.06371666797207" lon="7.912425551666779"><ele>329.0</ele><time>2026-05-03T08:52:49Z</time></trkpt><trkpt lat="44.06379426909769" lon="7.912527949790574"><ele>329.0</ele><time>2026-05-03T08:52:50Z</time></trkpt><trkpt lat="44.063887833481935" lon="7.912596864724338"><ele>329.0</ele><time>2026-05-03T08:52:51Z</time></trkpt><trkpt lat="44.06400046359152" lon="7.91261656880765"><ele>329.0</ele><time>2026-05-03T08:52:52Z</time></trkpt><trkpt lat="44.064116651973535" lon="7.912613551126311"><ele>332.75</ele><time>2026-05-03T08:52:53Z</time></trkpt><trkpt lat="44.064232234100444" lon="7.912583147551992"><ele>336.5</ele><time>2026-05-03T08:52:54Z</time></trkpt><trkpt lat="44.06434692483127" lon="7.912524623085212"><ele>340.25</ele><time>2026-05-03T08:52:55Z</time></trkpt><trkpt lat="44.06446586304036" lon="7.912483947083489"><ele>344.0</ele><time>2026-05-03T08:52:56Z</time></trkpt><trkpt lat="44.06458974928613" lon="7.912489688295113"><ele>344.0</ele><time>2026-05-03T08:52:57Z</time></trkpt><trkpt lat="44.0647205055119" lon="7.912492157604055"><ele>344.0</ele><time>2026-05-03T08:52:58Z</time></trkpt><trkpt lat="44.06485760719024" lon="7.912446643348262"><ele>344.0</ele><time>2026-05-03T08:52:59Z</time></trkpt><trkpt lat="44.064994638062515" lon="7.912392873935814"><ele>344.0</ele><time>2026-05-03T08:53:00Z</time></trkpt><trkpt lat="44.06513433182542" lon="7.912363054516738"><ele>347.0</ele><time>2026-05-03T08:53:01Z</time></trkpt><trkpt lat="44.06527327070146" lon="7.912338736806223"><ele>350.0</ele><time>2026-05-03T08:53:02Z</time></trkpt><trkpt lat="44.06541634712514" lon="7.912307898133235"><ele>353.0</ele><time>2026-05-03T08:53:03Z</time></trkpt><trkpt lat="44.065550686041625" lon="7.91227978560361"><ele>356.0</ele><time>2026-05-03T08:53:04Z</time></trkpt><trkpt lat="44.06567403409143" lon="7.9122642748406165"><ele>356.0</ele><time>2026-05-03T08:53:05Z</time></trkpt><trkpt lat="44.06579064992357" lon="7.9122735558691915"><ele>356.0</ele><time>2026-05-03T08:53:06Z</time></trkpt><trkpt lat="44.06591729652621" lon="7.9123538285176505"><ele>356.0</ele><time>2026-05-03T08:53:07Z</time></trkpt><trkpt lat="44.066044546531764" lon="7.912436532148469"><ele>356.0</ele><time>2026-05-03T08:53:08Z</time></trkpt><trkpt lat="44.06617864749446" lon="7.912493975062701"><ele>356.0</ele><time>2026-05-03T08:53:09Z</time></trkpt><trkpt lat="44.066322895811375" lon="7.912508537637698"><ele>356.0</ele><time>2026-05-03T08:53:10Z</time></trkpt><trkpt lat="44.06647913021604" lon="7.912480892566191"><ele>356.0</ele><time>2026-05-03T08:53:11Z</time></trkpt><trkpt lat="44.066618616751036" lon="7.912434391174625"><ele>356.0</ele><time>2026-05-03T08:53:12Z</time></trkpt><trkpt lat="44.06675989261753" lon="7.912367455792923"><ele>358.5</ele><time>2026-05-03T08:53:13Z</time></trkpt><trkpt lat="44.0668896971536" lon="7.912360217577602"><ele>361.0</ele><time>2026-05-03T08:53:14Z</time></trkpt><trkpt lat="44.066999826150784" lon="7.912386982830193"><ele>363.5</ele><time>2026-05-03T08:53:15Z</time></trkpt><trkpt lat="44.06709227104203" lon="7.912435334103461"><ele>366.0</ele><time>2026-05-03T08:53:16Z</time></trkpt><trkpt lat="44.06717920522291" lon="7.912539874119527"><ele>365.25</ele><time>2026-05-03T08:53:17Z</time></trkpt><trkpt lat="44.0672680956845" lon="7.91266966126002"><ele>364.5</ele><time>2026-05-03T08:53:18Z</time></trkpt><trkpt lat="44.067343894415934" lon="7.912788121113443"><ele>363.75</ele><time>2026-05-03T08:53:19Z</time></trkpt><trkpt lat="44.06742460469491" lon="7.912874637457709"><ele>363.0</ele><time>2026-05-03T08:53:20Z</time></trkpt><trkpt lat="44.067541290860405" lon="7.912909887543841"><ele>363.0</ele><time>2026-05-03T08:53:21Z</time></trkpt><trkpt lat="44.06767912739751" lon="7.9128943223531865"><ele>363.0</ele><time>2026-05-03T08:53:22Z</time></trkpt><trkpt lat="44.06782234944792" lon="7.912854614806417"><ele>363.0</ele><time>2026-05-03T08:53:23Z</time></trkpt><trkpt lat="44.067966220515466" lon="7.912817401892128"><ele>363.0</ele><time>2026-05-03T08:53:24Z</time></trkpt><trkpt lat="44.06810243380396" lon="7.912799002467482"><ele>363.0</ele><time>2026-05-03T08:53:25Z</time></trkpt><trkpt lat="44.06824756792201" lon="7.912828869104806"><ele>363.0</ele><time>2026-05-03T08:53:26Z</time></trkpt><trkpt lat="44.06839475484681" lon="7.912839482807142"><ele>363.0</ele><time>2026-05-03T08:53:27Z</time></trkpt><trkpt lat="44.0685324068318" lon="7.912843184545199"><ele>363.0</ele><time>2026-05-03T08:53:28Z</time></trkpt><trkpt lat="44.068667262525956" lon="7.912829207884851"><ele>364.25</ele><time>2026-05-03T08:53:29Z</time></trkpt><trkpt lat="44.068808490191074" lon="7.912787619724095"><ele>365.5</ele><time>2026-05-03T08:53:30Z</time></trkpt><trkpt lat="44.06895033500403" lon="7.912720051318393"><ele>366.75</ele><time>2026-05-03T08:53:31Z</time></trkpt><trkpt lat="44.069088475356274" lon="7.912674299549783"><ele>368.0</ele><time>2026-05-03T08:53:32Z</time></trkpt><trkpt lat="44.06922000113232" lon="7.912681663897947"><ele>368.5</ele><time>2026-05-03T08:53:33Z</time></trkpt><trkpt lat="44.06933901328949" lon="7.912682606832428"><ele>369.0</ele><time>2026-05-03T08:53:34Z</time></trkpt><trkpt lat="44.06944635672034" lon="7.91270540380238"><ele>369.5</ele><time>2026-05-03T08:53:35Z</time></trkpt><trkpt lat="44.06956134600878" lon="7.912752372853906"><ele>370.0</ele><time>2026-05-03T08:53:36Z</time></trkpt><trkpt lat="44.069675362133914" lon="7.91283352302352"><ele>370.0</ele><time>2026-05-03T08:53:37Z</time></trkpt><trkpt lat="44.06978369625931" lon="7.912939002226952"><ele>370.0</ele><time>2026-05-03T08:53:38Z</time></trkpt><trkpt lat="44.06988502611723" lon="7.913043935837462"><ele>370.0</ele><time>2026-05-03T08:53:39Z</time></trkpt><trkpt lat="44.06997401368017" lon="7.913154468714663"><ele>370.0</ele><time>2026-05-03T08:53:40Z</time></trkpt><trkpt lat="44.07004158743445" lon="7.913294162234533"><ele>371.75</ele><time>2026-05-03T08:53:41Z</time></trkpt><trkpt lat="44.07011060396343" lon="7.913421681576729"><ele>373.5</ele><time>2026-05-03T08:53:42Z</time></trkpt><trkpt lat="44.07021270000784" lon="7.913519705440844"><ele>375.25</ele><time>2026-05-03T08:53:43Z</time></trkpt><trkpt lat="44.07033758301057" lon="7.913597514981105"><ele>377.0</ele><time>2026-05-03T08:53:44Z</time></trkpt><trkpt lat="44.070455544083345" lon="7.913671932292664"><ele>377.0</ele><time>2026-05-03T08:53:45Z</time></trkpt><trkpt lat="44.07058085816233" lon="7.913720189762404"><ele>377.0</ele><time>2026-05-03T08:53:46Z</time></trkpt><trkpt lat="44.07071757068539" lon="7.913735305915515"><ele>377.0</ele><time>2026-05-03T08:53:47Z</time></trkpt><trkpt lat="44.070854523206194" lon="7.9137618810831984"><ele>377.0</ele><time>2026-05-03T08:53:48Z</time></trkpt><trkpt lat="44.07098958872681" lon="7.9138212793828115"><ele>380.5</ele><time>2026-05-03T08:53:49Z</time></trkpt><trkpt lat="44.07113486153358" lon="7.913882047434899"><ele>384.0</ele><time>2026-05-03T08:53:50Z</time></trkpt><trkpt lat="44.071281782098204" lon="7.913928545839124"><ele>387.5</ele><time>2026-05-03T08:53:51Z</time></trkpt><trkpt lat="44.07142671710369" lon="7.913957574644165"><ele>391.0</ele><time>2026-05-03T08:53:52Z</time></trkpt><trkpt lat="44.071568478298325" lon="7.9139903485432095"><ele>393.25</ele><time>2026-05-03T08:53:53Z</time></trkpt><trkpt lat="44.07169507746417" lon="7.914037755295568"><ele>395.5</ele><time>2026-05-03T08:53:54Z</time></trkpt><trkpt lat="44.071806806175886" lon="7.9140897118963665"><ele>397.75</ele><time>2026-05-03T08:53:55Z</time></trkpt><trkpt lat="44.07192041080952" lon="7.914117741340351"><ele>400.0</ele><time>2026-05-03T08:53:56Z</time></trkpt><trkpt lat="44.07205119409637" lon="7.914092842725962"><ele>400.0</ele><time>2026-05-03T08:53:57Z</time></trkpt><trkpt lat="44.07218889926194" lon="7.914039493238696"><ele>400.0</ele><time>2026-05-03T08:53:58Z</time></trkpt><trkpt lat="44.072332823052065" lon="7.914002483080008"><ele>400.0</ele><time>2026-05-03T08:53:59Z</time></trkpt><trkpt lat="44.072483555055705" lon="7.913975610923289"><ele>400.0</ele><time>2026-05-03T08:54:00Z</time></trkpt><trkpt lat="44.072630827087174" lon="7.913969699314047"><ele>402.75</ele><time>2026-05-03T08:54:01Z</time></trkpt><trkpt lat="44.07277191098853" lon="7.913984137735451"><ele>405.5</ele><time>2026-05-03T08:54:02Z</time></trkpt><trkpt lat="44.07291390915982" lon="7.914018703186867"><ele>408.25</ele><time>2026-05-03T08:54:03Z</time></trkpt><trkpt lat="44.073047679750935" lon="7.914075492488091"><ele>411.0</ele><time>2026-05-03T08:54:04Z</time></trkpt><trkpt lat="44.07317442793558" lon="7.914118484298819"><ele>410.5</ele><time>2026-05-03T08:54:05Z</time></trkpt><trkpt lat="44.07328397961009" lon="7.91416226971854"><ele>410.0</ele><time>2026-05-03T08:54:06Z</time></trkpt><trkpt lat="44.07338263705344" lon="7.91424181680815"><ele>409.5</ele><time>2026-05-03T08:54:07Z</time></trkpt><trkpt lat="44.07345581734809" lon="7.914362683464191"><ele>409.0</ele><time>2026-05-03T08:54:08Z</time></trkpt><trkpt lat="44.07349625472356" lon="7.914529364610431"><ele>409.0</ele><time>2026-05-03T08:54:09Z</time></trkpt><trkpt lat="44.07350397597783" lon="7.914708770282823"><ele>409.0</ele><time>2026-05-03T08:54:10Z</time></trkpt><trkpt lat="44.07354563080293" lon="7.914868204909307"><ele>409.0</ele><time>2026-05-03T08:54:11Z</time></trkpt><trkpt lat="44.07360219405111" lon="7.914975539748155"><ele>409.0</ele><time>2026-05-03T08:54:12Z</time></trkpt><trkpt lat="44.07369173640676" lon="7.915024928640556"><ele>409.0</ele><time>2026-05-03T08:54:13Z</time></trkpt><trkpt lat="44.07380908534231" lon="7.915045330793964"><ele>407.25</ele><time>2026-05-03T08:54:14Z</time></trkpt><trkpt lat="44.07393557995517" lon="7.915076099421949"><ele>405.5</ele><time>2026-05-03T08:54:15Z</time></trkpt><trkpt lat="44.074062262838794" lon="7.9151320615034235"><ele>403.75</ele><time>2026-05-03T08:54:16Z</time></trkpt><trkpt lat="44.0741766517816" lon="7.915199010351826"><ele>402.0</ele><time>2026-05-03T08:54:17Z</time></trkpt><trkpt lat="44.07428204964718" lon="7.915227901939871"><ele>401.5</ele><time>2026-05-03T08:54:18Z</time></trkpt><trkpt lat="44.07439080402127" lon="7.915192992810955"><ele>401.0</ele><time>2026-05-03T08:54:19Z</time></trkpt><trkpt lat="44.07450206319261" lon="7.915099371535397"><ele>400.5</ele><time>2026-05-03T08:54:20Z</time></trkpt><trkpt lat="44.07460899703716" lon="7.914972489725296"><ele>400.0</ele><time>2026-05-03T08:54:21Z</time></trkpt><trkpt lat="44.07470256600467" lon="7.914822786692464"><ele>404.6</ele><time>2026-05-03T08:54:22Z</time></trkpt><trkpt lat="44.07479084527365" lon="7.9147069742706915"><ele>409.2</ele><time>2026-05-03T08:54:23Z</time></trkpt><trkpt lat="44.07487749063842" lon="7.914604647097014"><ele>413.79999999999995</ele><time>2026-05-03T08:54:24Z</time></trkpt><trkpt lat="44.07496308993516" lon="7.9145211608306685"><ele>418.4</ele><time>2026-05-03T08:54:25Z</time></trkpt><trkpt lat="44.07505844422267" lon="7.914464250889313"><ele>423.0</ele><time>2026-05-03T08:54:26Z</time></trkpt><trkpt lat="44.07517562769731" lon="7.914454014522451"><ele>423.0</ele><time>2026-05-03T08:54:27Z</time></trkpt><trkpt lat="44.07529468396324" lon="7.914440150207542"><ele>423.0</ele><time>2026-05-03T08:54:28Z</time></trkpt><trkpt lat="44.075427655700004" lon="7.914340998649519"><ele>423.0</ele><time>2026-05-03T08:54:29Z</time></trkpt><trkpt lat="44.075550144110565" lon="7.914201675679272"><ele>423.0</ele><time>2026-05-03T08:54:30Z</time></trkpt><trkpt lat="44.07567562538655" lon="7.9140866737095354"><ele>429.66666666666663</ele><time>2026-05-03T08:54:31Z</time></trkpt><trkpt lat="44.07582582479452" lon="7.914010840139299"><ele>436.3333333333333</ele><time>2026-05-03T08:54:32Z</time></trkpt><trkpt lat="44.075976669588165" lon="7.913992763131475"><ele>443.0</ele><time>2026-05-03T08:54:33Z</time></trkpt><trkpt lat="44.07612900501627" lon="7.914007695330372"><ele>443.0</ele><time>2026-05-03T08:54:34Z</time></trkpt><trkpt lat="44.076270662414444" lon="7.913997215256413"><ele>443.0</ele><time>2026-05-03T08:54:35Z</time></trkpt><trkpt lat="44.07641169012491" lon="7.913970234701114"><ele>443.0</ele><time>2026-05-03T08:54:36Z</time></trkpt><trkpt lat="44.07654820756056" lon="7.913927039881773"><ele>443.0</ele><time>2026-05-03T08:54:37Z</time></trkpt><trkpt lat="44.076681282501376" lon="7.913882281014594"><ele>442.79999999999995</ele><time>2026-05-03T08:54:38Z</time></trkpt><trkpt lat="44.07680118059797" lon="7.913864334430177"><ele>442.59999999999997</ele><time>2026-05-03T08:54:39Z</time></trkpt><trkpt lat="44.07690677151938" lon="7.913862312037294"><ele>442.40000000000003</ele><time>2026-05-03T08:54:40Z</time></trkpt><trkpt lat="44.07699979976516" lon="7.913836731312933"><ele>442.20000000000005</ele><time>2026-05-03T08:54:41Z</time></trkpt><trkpt lat="44.077086116212136" lon="7.913756580017892"><ele>442.0</ele><time>2026-05-03T08:54:42Z</time></trkpt><trkpt lat="44.077166993922994" lon="7.913623343734878"><ele>442.0</ele><time>2026-05-03T08:54:43Z</time></trkpt><trkpt lat="44.07725053932062" lon="7.913474001832496"><ele>442.0</ele><time>2026-05-03T08:54:44Z</time></trkpt><trkpt lat="44.07732727131322" lon="7.913329657475704"><ele>442.0</ele><time>2026-05-03T08:54:45Z</time></trkpt><trkpt lat="44.07739893155435" lon="7.913182553438518"><ele>442.0</ele><time>2026-05-03T08:54:46Z</time></trkpt><trkpt lat="44.077463951021265" lon="7.913031465509754"><ele>445.0</ele><time>2026-05-03T08:54:47Z</time></trkpt><trkpt lat="44.07754929547836" lon="7.912915743881943"><ele>448.00000000000006</ele><time>2026-05-03T08:54:48Z</time></trkpt><trkpt lat="44.0776285996978" lon="7.912830654917957"><ele>451.00000000000006</ele><time>2026-05-03T08:54:49Z</time></trkpt><trkpt lat="44.077715749641975" lon="7.912779259349013"><ele>454.0</ele><time>2026-05-03T08:54:50Z</time></trkpt><trkpt lat="44.077796783709935" lon="7.91275467907452"><ele>457.0</ele><time>2026-05-03T08:54:51Z</time></trkpt><trkpt lat="44.07787899952124" lon="7.912762996054446"><ele>457.00000000000006</ele><time>2026-05-03T08:54:52Z</time></trkpt><trkpt lat="44.07798231379767" lon="7.912790700474976"><ele>457.0</ele><time>2026-05-03T08:54:53Z</time></trkpt><trkpt lat="44.07807851430171" lon="7.912808031369002"><ele>457.0</ele><time>2026-05-03T08:54:54Z</time></trkpt><trkpt lat="44.078156296878156" lon="7.912805574236403"><ele>457.0</ele><time>2026-05-03T08:54:55Z</time></trkpt><trkpt lat="44.078219249095376" lon="7.912826511859505"><ele>457.00000000000006</ele><time>2026-05-03T08:54:56Z</time></trkpt><trkpt lat="44.0782515936179" lon="7.912936351974009"><ele>457.0</ele><time>2026-05-03T08:54:57Z</time></trkpt><trkpt lat="44.078227870586396" lon="7.913073546951925"><ele>457.0</ele><time>2026-05-03T08:54:58Z</time></trkpt><trkpt lat="44.07820377184765" lon="7.913223057549503"><ele>457.00000000000006</ele><time>2026-05-03T08:54:59Z</time></trkpt><trkpt lat="44.07817690661957" lon="7.913381050614565"><ele>457.00000000000006</ele><time>2026-05-03T08:55:00Z</time></trkpt><trkpt lat="44.07814193229601" lon="7.913531811774281"><ele>457.0</ele><time>2026-05-03T08:55:01Z</time></trkpt><trkpt lat="44.07812332385077" lon="7.913681000479442"><ele>457.0</ele><time>2026-05-03T08:55:02Z</time></trkpt><trkpt lat="44.07814522942864" lon="7.913822265226188"><ele>458.5</ele><time>2026-05-03T08:55:03Z</time></trkpt><trkpt lat="44.0782202145045" lon="7.913954680271196"><ele>460.0</ele><time>2026-05-03T08:55:04Z</time></trkpt><trkpt lat="44.078322219856524" lon="7.914043564041775"><ele>461.5</ele><time>2026-05-03T08:55:05Z</time></trkpt><trkpt lat="44.078443173647095" lon="7.914110012134615"><ele>463.0</ele><time>2026-05-03T08:55:06Z</time></trkpt><trkpt lat="44.07856802656027" lon="7.914152250503709"><ele>463.0</ele><time>2026-05-03T08:55:07Z</time></trkpt><trkpt lat="44.07867315922035" lon="7.914184805103449"><ele>463.0</ele><time>2026-05-03T08:55:08Z</time></trkpt><trkpt lat="44.07877754786055" lon="7.914203499557572"><ele>463.0</ele><time>2026-05-03T08:55:09Z</time></trkpt><trkpt lat="44.07890354419704" lon="7.914189889523871"><ele>463.0</ele><time>2026-05-03T08:55:10Z</time></trkpt><trkpt lat="44.07904285054438" lon="7.914167827830722"><ele>466.5</ele><time>2026-05-03T08:55:11Z</time></trkpt><trkpt lat="44.079188836909566" lon="7.914137026930669"><ele>470.0</ele><time>2026-05-03T08:55:12Z</time></trkpt><trkpt lat="44.07933719535938" lon="7.914118687974307"><ele>473.5</ele><time>2026-05-03T08:55:13Z</time></trkpt><trkpt lat="44.07947635552633" lon="7.914078179131467"><ele>477.0</ele><time>2026-05-03T08:55:14Z</time></trkpt><trkpt lat="44.07959451874515" lon="7.914042239698931"><ele>477.0</ele><time>2026-05-03T08:55:15Z</time></trkpt><trkpt lat="44.07969805606743" lon="7.914022810221462"><ele>477.00000000000006</ele><time>2026-05-03T08:55:16Z</time></trkpt><trkpt lat="44.079787076923935" lon="7.913998095743994"><ele>477.00000000000006</ele><time>2026-05-03T08:55:17Z</time></trkpt><trkpt lat="44.079866249952204" lon="7.913960681598653"><ele>477.0</ele><time>2026-05-03T08:55:18Z</time></trkpt><trkpt lat="44.07994841140124" lon="7.913897271696928"><ele>477.0</ele><time>2026-05-03T08:55:19Z</time></trkpt><trkpt lat="44.08001895884934" lon="7.9138194380663025"><ele>477.0</ele><time>2026-05-03T08:55:20Z</time></trkpt><trkpt lat="44.08007306682828" lon="7.913756442089901"><ele>477.0</ele><time>2026-05-03T08:55:21Z</time></trkpt><trkpt lat="44.08015944841693" lon="7.913664628477945"><ele>477.0</ele><time>2026-05-03T08:55:23Z</time></trkpt><trkpt lat="44.08020950363086" lon="7.9136103097914345"><ele>477.0</ele><time>2026-05-03T08:55:25Z</time></trkpt><trkpt lat="44.08011759032916" lon="7.913494738444685"><ele>477.0</ele><time>2026-05-03T08:55:26Z</time></trkpt><trkpt lat="44.08004179429957" lon="7.913496981367297"><ele>477.0</ele><time>2026-05-03T08:55:27Z</time></trkpt><trkpt lat="44.079974438396235" lon="7.913600716700937"><ele>477.0</ele><time>2026-05-03T08:55:28Z</time></trkpt><trkpt lat="44.07990436603434" lon="7.913673215371487"><ele>477.00000000000006</ele><time>2026-05-03T08:55:29Z</time></trkpt><trkpt lat="44.079800116730425" lon="7.91372181747542"><ele>477.00000000000006</ele><time>2026-05-03T08:55:31Z</time></trkpt><trkpt lat="44.07973503921012" lon="7.913709305115599"><ele>477.0</ele><time>2026-05-03T08:55:32Z</time></trkpt><trkpt lat="44.07964843033352" lon="7.913662671367715"><ele>477.0</ele><time>2026-05-03T08:55:33Z</time></trkpt><trkpt lat="44.0795383028059" lon="7.913637905341555"><ele>477.0</ele><time>2026-05-03T08:55:34Z</time></trkpt><trkpt lat="44.07942558384455" lon="7.913645264710862"><ele>477.0</ele><time>2026-05-03T08:55:35Z</time></trkpt><trkpt lat="44.07930458022595" lon="7.9136640957614315"><ele>477.0</ele><time>2026-05-03T08:55:36Z</time></trkpt><trkpt lat="44.07918710217369" lon="7.91368780571872"><ele>477.0</ele><time>2026-05-03T08:55:37Z</time></trkpt><trkpt lat="44.07907509519159" lon="7.91370825365036"><ele>477.0</ele><time>2026-05-03T08:55:38Z</time></trkpt><trkpt lat="44.07901142770156" lon="7.913711584019572"><ele>477.0</ele><time>2026-05-03T08:55:39Z</time></trkpt><trkpt lat="44.07895385602758" lon="7.913600997175251"><ele>477.0</ele><time>2026-05-03T08:55:41Z</time></trkpt><trkpt lat="44.079000253643656" lon="7.9135209125260575"><ele>477.0</ele><time>2026-05-03T08:55:42Z</time></trkpt><trkpt lat="44.079064724489065" lon="7.9134843257110745"><ele>477.0</ele><time>2026-05-03T08:55:43Z</time></trkpt><trkpt lat="44.07915388410277" lon="7.913495506343716"><ele>477.0</ele><time>2026-05-03T08:55:44Z</time></trkpt><trkpt lat="44.079262503424815" lon="7.9134661630154985"><ele>477.0</ele><time>2026-05-03T08:55:45Z</time></trkpt><trkpt lat="44.079378816551184" lon="7.91341580822746"><ele>477.00000000000006</ele><time>2026-05-03T08:55:46Z</time></trkpt><trkpt lat="44.07948169823632" lon="7.9133471636663115"><ele>477.00000000000006</ele><time>2026-05-03T08:55:47Z</time></trkpt><trkpt lat="44.079570726577934" lon="7.913281667591913"><ele>477.0</ele><time>2026-05-03T08:55:48Z</time></trkpt><trkpt lat="44.07964239185493" lon="7.913231397645748"><ele>477.0</ele><time>2026-05-03T08:55:49Z</time></trkpt><trkpt lat="44.07968881484719" lon="7.913158440832943"><ele>480.5</ele><time>2026-05-03T08:55:50Z</time></trkpt><trkpt lat="44.07970193321332" lon="7.913071649982953"><ele>484.0</ele><time>2026-05-03T08:55:51Z</time></trkpt><trkpt lat="44.07963859064724" lon="7.913005562970332"><ele>487.5</ele><time>2026-05-03T08:55:52Z</time></trkpt><trkpt lat="44.07957022083379" lon="7.912978125124237"><ele>491.0</ele><time>2026-05-03T08:55:53Z</time></trkpt><trkpt lat="44.07950483378768" lon="7.913019358823755"><ele>494.5</ele><time>2026-05-03T08:55:54Z</time></trkpt><trkpt lat="44.079415771338155" lon="7.9131262342333715"><ele>498.0</ele><time>2026-05-03T08:55:56Z</time></trkpt><trkpt lat="44.07932129047933" lon="7.913176539539728"><ele>498.0</ele><time>2026-05-03T08:55:57Z</time></trkpt><trkpt lat="44.0792203284438" lon="7.913161010879322"><ele>497.99999999999994</ele><time>2026-05-03T08:55:58Z</time></trkpt><trkpt lat="44.07911722825741" lon="7.913095518721221"><ele>497.99999999999994</ele><time>2026-05-03T08:55:59Z</time></trkpt><trkpt lat="44.079021770091984" lon="7.913001912070556"><ele>498.0</ele><time>2026-05-03T08:56:00Z</time></trkpt><trkpt lat="44.0790130768612" lon="7.912858979553224"><ele>498.0</ele><time>2026-05-03T08:56:01Z</time></trkpt><trkpt lat="44.07897943906587" lon="7.912724550969068"><ele>495.0</ele><time>2026-05-03T08:56:02Z</time></trkpt><trkpt lat="44.07896830642088" lon="7.9125746960481385"><ele>491.99999999999994</ele><time>2026-05-03T08:56:03Z</time></trkpt><trkpt lat="44.07893621449206" lon="7.912453440241791"><ele>488.99999999999994</ele><time>2026-05-03T08:56:04Z</time></trkpt><trkpt lat="44.078905586201536" lon="7.912329537575656"><ele>486.0</ele><time>2026-05-03T08:56:05Z</time></trkpt><trkpt lat="44.07887509978967" lon="7.912184155685954"><ele>483.0</ele><time>2026-05-03T08:56:06Z</time></trkpt><trkpt lat="44.078840204296505" lon="7.9120237032420775"><ele>483.0</ele><time>2026-05-03T08:56:07Z</time></trkpt><trkpt lat="44.07881303547216" lon="7.911874897289045"><ele>482.99999999999994</ele><time>2026-05-03T08:56:08Z</time></trkpt><trkpt lat="44.07880205939533" lon="7.911726303748422"><ele>482.99999999999994</ele><time>2026-05-03T08:56:09Z</time></trkpt><trkpt lat="44.07881483421603" lon="7.9115853723006255"><ele>483.0</ele><time>2026-05-03T08:56:10Z</time></trkpt><trkpt lat="44.0788568604673" lon="7.911460885877545"><ele>483.0</ele><time>2026-05-03T08:56:11Z</time></trkpt><trkpt lat="44.07888330593705" lon="7.911355054104488"><ele>486.59999999999997</ele><time>2026-05-03T08:56:12Z</time></trkpt><trkpt lat="44.078861805976004" lon="7.9112483774385876"><ele>490.19999999999993</ele><time>2026-05-03T08:56:13Z</time></trkpt><trkpt lat="44.07879407473758" lon="7.911152280061371"><ele>493.8</ele><time>2026-05-03T08:56:14Z</time></trkpt><trkpt lat="44.0786886867215" lon="7.911093024617545"><ele>497.4</ele><time>2026-05-03T08:56:15Z</time></trkpt><trkpt lat="44.07858670726023" lon="7.911068421726872"><ele>501.0</ele><time>2026-05-03T08:56:16Z</time></trkpt><trkpt lat="44.07847050736531" lon="7.911101525193954"><ele>501.0</ele><time>2026-05-03T08:56:17Z</time></trkpt><trkpt lat="44.078368888505565" lon="7.911142793864445"><ele>501.0</ele><time>2026-05-03T08:56:18Z</time></trkpt><trkpt lat="44.078281945379736" lon="7.911155958479195"><ele>501.0</ele><time>2026-05-03T08:56:19Z</time></trkpt><trkpt lat="44.07819068738198" lon="7.911200570018313"><ele>501.0</ele><time>2026-05-03T08:56:20Z</time></trkpt><trkpt lat="44.078090664591805" lon="7.911253406463901"><ele>501.0</ele><time>2026-05-03T08:56:21Z</time></trkpt><trkpt lat="44.07797047800419" lon="7.911273639801074"><ele>501.25</ele><time>2026-05-03T08:56:22Z</time></trkpt><trkpt lat="44.07783987653997" lon="7.911304096749611"><ele>501.5</ele><time>2026-05-03T08:56:23Z</time></trkpt><trkpt lat="44.077705939026636" lon="7.911307374852282"><ele>501.75</ele><time>2026-05-03T08:56:24Z</time></trkpt><trkpt lat="44.077564193701576" lon="7.911296406764704"><ele>502.0</ele><time>2026-05-03T08:56:25Z</time></trkpt><trkpt lat="44.07740104054099" lon="7.911278416434094"><ele>504.5</ele><time>2026-05-03T08:56:26Z</time></trkpt><trkpt lat="44.077253273199354" lon="7.911255441971649"><ele>507.0</ele><time>2026-05-03T08:56:27Z</time></trkpt><trkpt lat="44.07712569526435" lon="7.911217831587585"><ele>509.5</ele><time>2026-05-03T08:56:28Z</time></trkpt><trkpt lat="44.07700862204587" lon="7.911158729491347"><ele>512.0</ele><time>2026-05-03T08:56:29Z</time></trkpt><trkpt lat="44.076898255676774" lon="7.911106852690102"><ele>512.0</ele><time>2026-05-03T08:56:30Z</time></trkpt><trkpt lat="44.076799055791426" lon="7.911113130009456"><ele>512.0</ele><time>2026-05-03T08:56:31Z</time></trkpt><trkpt lat="44.076715975923356" lon="7.91120606301415"><ele>512.0</ele><time>2026-05-03T08:56:32Z</time></trkpt><trkpt lat="44.07662105832578" lon="7.911302200194039"><ele>512.0</ele><time>2026-05-03T08:56:33Z</time></trkpt><trkpt lat="44.07650412510417" lon="7.911335825378292"><ele>512.0</ele><time>2026-05-03T08:56:34Z</time></trkpt><trkpt lat="44.076384085342916" lon="7.911389856597113"><ele>515.1666666666666</ele><time>2026-05-03T08:56:35Z</time></trkpt><trkpt lat="44.07629745331037" lon="7.911423046907894"><ele>518.3333333333333</ele><time>2026-05-03T08:56:36Z</time></trkpt><trkpt lat="44.076193350521685" lon="7.911412319286388"><ele>521.5</ele><time>2026-05-03T08:56:38Z</time></trkpt><trkpt lat="44.07615777233443" lon="7.911339356337187"><ele>524.6666666666666</ele><time>2026-05-03T08:56:39Z</time></trkpt><trkpt lat="44.07614321822891" lon="7.9112421239502355"><ele>527.8333333333334</ele><time>2026-05-03T08:56:40Z</time></trkpt><trkpt lat="44.07616599708359" lon="7.911141982742083"><ele>531.0</ele><time>2026-05-03T08:56:41Z</time></trkpt><trkpt lat="44.07621887118693" lon="7.911058056761765"><ele>531.0</ele><time>2026-05-03T08:56:42Z</time></trkpt><trkpt lat="44.07633316321635" lon="7.911034102304179"><ele>531.0</ele><time>2026-05-03T08:56:43Z</time></trkpt><trkpt lat="44.07645444914438" lon="7.910942038990932"><ele>531.0</ele><time>2026-05-03T08:56:44Z</time></trkpt><trkpt lat="44.0765690476493" lon="7.910844393424309"><ele>531.0</ele><time>2026-05-03T08:56:45Z</time></trkpt><trkpt lat="44.07666271475047" lon="7.910704143238156"><ele>532.0</ele><time>2026-05-03T08:56:46Z</time></trkpt><trkpt lat="44.076736064911515" lon="7.91058669697232"><ele>533.0</ele><time>2026-05-03T08:56:47Z</time></trkpt><trkpt lat="44.07680134926441" lon="7.910520396928417"><ele>534.0</ele><time>2026-05-03T08:56:48Z</time></trkpt><trkpt lat="44.076915702184785" lon="7.910554699825146"><ele>535.0</ele><time>2026-05-03T08:56:49Z</time></trkpt><trkpt lat="44.07703836694311" lon="7.910559292437871"><ele>536.0</ele><time>2026-05-03T08:56:50Z</time></trkpt><trkpt lat="44.07715387419121" lon="7.9105580450315705"><ele>536.0</ele><time>2026-05-03T08:56:51Z</time></trkpt><trkpt lat="44.077290406824886" lon="7.910561255185083"><ele>536.0</ele><time>2026-05-03T08:56:52Z</time></trkpt><trkpt lat="44.07741916965303" lon="7.910565593387949"><ele>536.0</ele><time>2026-05-03T08:56:53Z</time></trkpt><trkpt lat="44.07754182365189" lon="7.910560862753616"><ele>536.0</ele><time>2026-05-03T08:56:54Z</time></trkpt><trkpt lat="44.077650534292694" lon="7.910570427598224"><ele>535.4</ele><time>2026-05-03T08:56:55Z</time></trkpt><trkpt lat="44.077758327921096" lon="7.910567814467673"><ele>534.8</ele><time>2026-05-03T08:56:56Z</time></trkpt><trkpt lat="44.07786984833435" lon="7.910574988364916"><ele>534.1999999999999</ele><time>2026-05-03T08:56:57Z</time></trkpt><trkpt lat="44.07797764349376" lon="7.910549463925028"><ele>533.6</ele><time>2026-05-03T08:56:58Z</time></trkpt><trkpt lat="44.07808722786066" lon="7.910512291549458"><ele>533.0</ele><time>2026-05-03T08:56:59Z</time></trkpt><trkpt lat="44.07819704691313" lon="7.910462407731421"><ele>532.8</ele><time>2026-05-03T08:57:00Z</time></trkpt><trkpt lat="44.07829684748908" lon="7.910433928654272"><ele>532.5999999999999</ele><time>2026-05-03T08:57:01Z</time></trkpt><trkpt lat="44.07840052476585" lon="7.9103894885787"><ele>532.4000000000001</ele><time>2026-05-03T08:57:02Z</time></trkpt><trkpt lat="44.07849301226355" lon="7.910354197923189"><ele>532.2</ele><time>2026-05-03T08:57:03Z</time></trkpt><trkpt lat="44.078568758856704" lon="7.910312020217241"><ele>532.0</ele><time>2026-05-03T08:57:04Z</time></trkpt><trkpt lat="44.07862281208599" lon="7.9102253356578"><ele>532.0</ele><time>2026-05-03T08:57:05Z</time></trkpt><trkpt lat="44.07865057597902" lon="7.910088747719519"><ele>532.0</ele><time>2026-05-03T08:57:06Z</time></trkpt><trkpt lat="44.07865351654866" lon="7.909928583935611"><ele>532.0</ele><time>2026-05-03T08:57:07Z</time></trkpt><trkpt lat="44.078658829946995" lon="7.909779216738579"><ele>532.0</ele><time>2026-05-03T08:57:08Z</time></trkpt><trkpt lat="44.078705133524245" lon="7.909645330224612"><ele>532.0</ele><time>2026-05-03T08:57:09Z</time></trkpt><trkpt lat="44.07878706168455" lon="7.90954901381336"><ele>538.4</ele><time>2026-05-03T08:57:10Z</time></trkpt><trkpt lat="44.078879673557935" lon="7.909435459380268"><ele>544.8000000000001</ele><time>2026-05-03T08:57:11Z</time></trkpt><trkpt lat="44.078975715214206" lon="7.9093325797634995"><ele>551.2</ele><time>2026-05-03T08:57:12Z</time></trkpt><trkpt lat="44.0790505064786" lon="7.909216658999181"><ele>557.6</ele><time>2026-05-03T08:57:13Z</time></trkpt><trkpt lat="44.07910242400093" lon="7.909116720826108"><ele>564.0</ele><time>2026-05-03T08:57:14Z</time></trkpt><trkpt lat="44.07915786559841" lon="7.90904028546961"><ele>564.1666666666666</ele><time>2026-05-03T08:57:15Z</time></trkpt><trkpt lat="44.07922465092277" lon="7.9089938948508705"><ele>564.3333333333334</ele><time>2026-05-03T08:57:16Z</time></trkpt><trkpt lat="44.07929614007127" lon="7.908994477059415"><ele>564.5</ele><time>2026-05-03T08:57:17Z</time></trkpt><trkpt lat="44.07936218651201" lon="7.9090526104411145"><ele>564.6666666666667</ele><time>2026-05-03T08:57:18Z</time></trkpt><trkpt lat="44.07939965726266" lon="7.909177713323622"><ele>564.8333333333334</ele><time>2026-05-03T08:57:19Z</time></trkpt><trkpt lat="44.07939289836727" lon="7.909311000626688"><ele>565.0</ele><time>2026-05-03T08:57:20Z</time></trkpt><trkpt lat="44.07936940878036" lon="7.909436263478795"><ele>561.5</ele><time>2026-05-03T08:57:21Z</time></trkpt><trkpt lat="44.07942753412182" lon="7.909606454764797"><ele>558.0</ele><time>2026-05-03T08:57:23Z</time></trkpt><trkpt lat="44.07953546404712" lon="7.9096722603215435"><ele>554.5</ele><time>2026-05-03T08:57:24Z</time></trkpt><trkpt lat="44.07963348097084" lon="7.9097195401374965"><ele>551.0</ele><time>2026-05-03T08:57:25Z</time></trkpt><trkpt lat="44.079729972765556" lon="7.909772129150237"><ele>551.0</ele><time>2026-05-03T08:57:26Z</time></trkpt><trkpt lat="44.079832133470596" lon="7.909802269450892"><ele>551.0</ele><time>2026-05-03T08:57:27Z</time></trkpt><trkpt lat="44.07993045021026" lon="7.909794641205198"><ele>551.0</ele><time>2026-05-03T08:57:28Z</time></trkpt><trkpt lat="44.080030943650726" lon="7.909706002165265"><ele>551.0</ele><time>2026-05-03T08:57:29Z</time></trkpt><trkpt lat="44.08012037632779" lon="7.90958060109416"><ele>551.0</ele><time>2026-05-03T08:57:30Z</time></trkpt><trkpt lat="44.08021531859994" lon="7.90947285285848"><ele>552.2</ele><time>2026-05-03T08:57:31Z</time></trkpt><trkpt lat="44.08031418957545" lon="7.909382002597408"><ele>553.4000000000001</ele><time>2026-05-03T08:57:32Z</time></trkpt><trkpt lat="44.08040797615519" lon="7.909296579867879"><ele>554.6</ele><time>2026-05-03T08:57:33Z</time></trkpt><trkpt lat="44.080496491574465" lon="7.909205714929259"><ele>555.8000000000001</ele><time>2026-05-03T08:57:34Z</time></trkpt><trkpt lat="44.08058216898275" lon="7.909125966731074"><ele>557.0</ele><time>2026-05-03T08:57:35Z</time></trkpt><trkpt lat="44.080660708959726" lon="7.909075360215202"><ele>559.0</ele><time>2026-05-03T08:57:36Z</time></trkpt><trkpt lat="44.08073683734719" lon="7.909057997696895"><ele>561.0</ele><time>2026-05-03T08:57:37Z</time></trkpt><trkpt lat="44.08082821515149" lon="7.909070031920833"><ele>563.0</ele><time>2026-05-03T08:57:38Z</time></trkpt><trkpt lat="44.08090979191511" lon="7.909095601959823"><ele>565.0</ele><time>2026-05-03T08:57:39Z</time></trkpt><trkpt lat="44.08100436808075" lon="7.908999587694718"><ele>567.0</ele><time>2026-05-03T08:57:41Z</time></trkpt><trkpt lat="44.081008700827596" lon="7.908901834069778"><ele>569.0</ele><time>2026-05-03T08:57:42Z</time></trkpt><trkpt lat="44.0808922340132" lon="7.908779783833757"><ele>569.0</ele><time>2026-05-03T08:57:44Z</time></trkpt><trkpt lat="44.08079226293268" lon="7.908757877097627"><ele>569.0</ele><time>2026-05-03T08:57:45Z</time></trkpt><trkpt lat="44.08068553400961" lon="7.9086998140540965"><ele>569.0</ele><time>2026-05-03T08:57:46Z</time></trkpt><trkpt lat="44.080576691803245" lon="7.90865296572109"><ele>569.0</ele><time>2026-05-03T08:57:47Z</time></trkpt><trkpt lat="44.08046614392871" lon="7.908609012304681"><ele>569.0</ele><time>2026-05-03T08:57:48Z</time></trkpt><trkpt lat="44.08035728266374" lon="7.908568333154313"><ele>569.0</ele><time>2026-05-03T08:57:49Z</time></trkpt><trkpt lat="44.08023837091643" lon="7.908525769652362"><ele>569.0</ele><time>2026-05-03T08:57:50Z</time></trkpt><trkpt lat="44.080112898406874" lon="7.908485472031729"><ele>569.0</ele><time>2026-05-03T08:57:51Z</time></trkpt><trkpt lat="44.08000672228732" lon="7.90848586497153"><ele>569.0</ele><time>2026-05-03T08:57:52Z</time></trkpt><trkpt lat="44.07992373139478" lon="7.908448241843871"><ele>569.0</ele><time>2026-05-03T08:57:53Z</time></trkpt><trkpt lat="44.07984837594166" lon="7.908409369932104"><ele>574.5</ele><time>2026-05-03T08:57:54Z</time></trkpt><trkpt lat="44.07984423467437" lon="7.908240198287715"><ele>580.0</ele><time>2026-05-03T08:57:56Z</time></trkpt><trkpt lat="44.07992145339764" lon="7.908173818239094"><ele>585.5</ele><time>2026-05-03T08:57:58Z</time></trkpt><trkpt lat="44.080072828001484" lon="7.908224764341274"><ele>591.0</ele><time>2026-05-03T08:58:00Z</time></trkpt><trkpt lat="44.080206131289714" lon="7.908205439080358"><ele>591.0</ele><time>2026-05-03T08:58:01Z</time></trkpt><trkpt lat="44.08035359093196" lon="7.908188078229281"><ele>591.0</ele><time>2026-05-03T08:58:02Z</time></trkpt><trkpt lat="44.08049395642885" lon="7.908144480583269"><ele>591.0</ele><time>2026-05-03T08:58:03Z</time></trkpt><trkpt lat="44.0806379336663" lon="7.90809742622251"><ele>591.0</ele><time>2026-05-03T08:58:04Z</time></trkpt><trkpt lat="44.08075450313868" lon="7.908037708339736"><ele>592.5</ele><time>2026-05-03T08:58:05Z</time></trkpt><trkpt lat="44.08085279108855" lon="7.907972772579548"><ele>594.0</ele><time>2026-05-03T08:58:06Z</time></trkpt><trkpt lat="44.08095860086163" lon="7.907940613373744"><ele>595.5</ele><time>2026-05-03T08:58:07Z</time></trkpt><trkpt lat="44.08108049998052" lon="7.907953261041487"><ele>597.0</ele><time>2026-05-03T08:58:08Z</time></trkpt><trkpt lat="44.08121346099886" lon="7.90798904396201"><ele>597.0</ele><time>2026-05-03T08:58:09Z</time></trkpt><trkpt lat="44.081340675622734" lon="7.90802869005649"><ele>597.0</ele><time>2026-05-03T08:58:10Z</time></trkpt><trkpt lat="44.081445310087254" lon="7.908050833493169"><ele>597.0</ele><time>2026-05-03T08:58:11Z</time></trkpt><trkpt lat="44.08153425292588" lon="7.908068565556107"><ele>597.0</ele><time>2026-05-03T08:58:12Z</time></trkpt><trkpt lat="44.081610971720806" lon="7.908068017137701"><ele>597.0</ele><time>2026-05-03T08:58:13Z</time></trkpt><trkpt lat="44.08167783383904" lon="7.908227675589069"><ele>597.0</ele><time>2026-05-03T08:58:15Z</time></trkpt><trkpt lat="44.08175848795166" lon="7.908106827583033"><ele>597.0</ele><time>2026-05-03T08:58:18Z</time></trkpt><trkpt lat="44.08167197559164" lon="7.908023339788571"><ele>597.0</ele><time>2026-05-03T08:58:20Z</time></trkpt><trkpt lat="44.08161513130389" lon="7.907985600653998"><ele>597.0</ele><time>2026-05-03T08:58:21Z</time></trkpt><trkpt lat="44.08149195743442" lon="7.907893941990328"><ele>597.0</ele><time>2026-05-03T08:58:22Z</time></trkpt><trkpt lat="44.081426719899845" lon="7.907839055388837"><ele>597.0</ele><time>2026-05-03T08:58:23Z</time></trkpt><trkpt lat="44.081368468725" lon="7.907782373664873"><ele>597.0</ele><time>2026-05-03T08:58:24Z</time></trkpt><trkpt lat="44.08129282434361" lon="7.907714927425856"><ele>597.0</ele><time>2026-05-03T08:58:25Z</time></trkpt><trkpt lat="44.081209940240726" lon="7.907653693383582"><ele>597.0</ele><time>2026-05-03T08:58:26Z</time></trkpt><trkpt lat="44.081126180426615" lon="7.907601933421812"><ele>597.0</ele><time>2026-05-03T08:58:27Z</time></trkpt><trkpt lat="44.081043759458545" lon="7.907563810190549"><ele>597.0</ele><time>2026-05-03T08:58:28Z</time></trkpt><trkpt lat="44.08094720045838" lon="7.907543648772476"><ele>600.8000000000001</ele><time>2026-05-03T08:58:29Z</time></trkpt><trkpt lat="44.0808628632182" lon="7.907528739903303"><ele>604.6</ele><time>2026-05-03T08:58:30Z</time></trkpt><trkpt lat="44.08074314487256" lon="7.907545549195356"><ele>608.4000000000001</ele><time>2026-05-03T08:58:31Z</time></trkpt><trkpt lat="44.08065285672949" lon="7.907562648435295"><ele>612.2</ele><time>2026-05-03T08:58:32Z</time></trkpt><trkpt lat="44.080559947197294" lon="7.907567433148237"><ele>616.0</ele><time>2026-05-03T08:58:33Z</time></trkpt><trkpt lat="44.08048243049503" lon="7.907571425114528"><ele>616.0</ele><time>2026-05-03T08:58:34Z</time></trkpt><trkpt lat="44.080397601964584" lon="7.907541649313342"><ele>616.0</ele><time>2026-05-03T08:58:36Z</time></trkpt><trkpt lat="44.08041954073848" lon="7.907435179815897"><ele>616.0</ele><time>2026-05-03T08:58:40Z</time></trkpt><trkpt lat="44.080556222951465" lon="7.907429788573632"><ele>616.0</ele><time>2026-05-03T08:58:42Z</time></trkpt><trkpt lat="44.080636258674886" lon="7.907412976570057"><ele>616.0</ele><time>2026-05-03T08:58:43Z</time></trkpt><trkpt lat="44.08071648693591" lon="7.907369363120889"><ele>616.6</ele><time>2026-05-03T08:58:44Z</time></trkpt><trkpt lat="44.08079795580541" lon="7.9073191571994315"><ele>617.2</ele><time>2026-05-03T08:58:45Z</time></trkpt><trkpt lat="44.08088892729933" lon="7.907263176482455"><ele>617.8</ele><time>2026-05-03T08:58:46Z</time></trkpt><trkpt lat="44.080979918818166" lon="7.907214354851537"><ele>618.4</ele><time>2026-05-03T08:58:47Z</time></trkpt><trkpt lat="44.08106710039687" lon="7.907174008239908"><ele>619.0</ele><time>2026-05-03T08:58:48Z</time></trkpt><trkpt lat="44.08116334433846" lon="7.907137651484119"><ele>619.0</ele><time>2026-05-03T08:58:49Z</time></trkpt><trkpt lat="44.08125581638699" lon="7.907102139563527"><ele>619.0</ele><time>2026-05-03T08:58:50Z</time></trkpt><trkpt lat="44.08134089955721" lon="7.9070736908899075"><ele>619.0</ele><time>2026-05-03T08:58:51Z</time></trkpt><trkpt lat="44.08142269513002" lon="7.90704646378349"><ele>619.0</ele><time>2026-05-03T08:58:52Z</time></trkpt><trkpt lat="44.08150857445445" lon="7.9070305198882425"><ele>619.0</ele><time>2026-05-03T08:58:53Z</time></trkpt><trkpt lat="44.08158609618965" lon="7.907029222293514"><ele>619.0</ele><time>2026-05-03T08:58:54Z</time></trkpt><trkpt lat="44.08166511636282" lon="7.907090352252994"><ele>620.3333333333334</ele><time>2026-05-03T08:58:55Z</time></trkpt><trkpt lat="44.08173246813879" lon="7.907095527781197"><ele>621.6666666666667</ele><time>2026-05-03T08:58:56Z</time></trkpt><trkpt lat="44.08180283954531" lon="7.907156754759702"><ele>623.0</ele><time>2026-05-03T08:58:57Z</time></trkpt><trkpt lat="44.0818828703085" lon="7.907206584505493"><ele>624.3333333333334</ele><time>2026-05-03T08:58:58Z</time></trkpt><trkpt lat="44.081971887323824" lon="7.90724588333581"><ele>625.6666666666666</ele><time>2026-05-03T08:58:59Z</time></trkpt><trkpt lat="44.08206049751986" lon="7.907276983332532"><ele>627.0</ele><time>2026-05-03T08:59:00Z</time></trkpt><trkpt lat="44.08215736770847" lon="7.907294407109532"><ele>627.0</ele><time>2026-05-03T08:59:01Z</time></trkpt><trkpt lat="44.08224924505722" lon="7.90733118940226"><ele>627.0</ele><time>2026-05-03T08:59:02Z</time></trkpt><trkpt lat="44.08234193311911" lon="7.907341087166944"><ele>627.0</ele><time>2026-05-03T08:59:03Z</time></trkpt><trkpt lat="44.0824363119546" lon="7.90731981028825"><ele>627.0</ele><time>2026-05-03T08:59:04Z</time></trkpt><trkpt lat="44.08252036571232" lon="7.9073236249700445"><ele>627.0</ele><time>2026-05-03T08:59:05Z</time></trkpt><trkpt lat="44.08258733728768" lon="7.907347551117181"><ele>627.0</ele><time>2026-05-03T08:59:06Z</time></trkpt><trkpt lat="44.08266682183817" lon="7.907411561587628"><ele>627.8000000000001</ele><time>2026-05-03T08:59:08Z</time></trkpt><trkpt lat="44.082691193010646" lon="7.907570901266222"><ele>628.6</ele><time>2026-05-03T08:59:10Z</time></trkpt><trkpt lat="44.08268770200547" lon="7.907702616985701"><ele>629.4000000000001</ele><time>2026-05-03T08:59:11Z</time></trkpt><trkpt lat="44.08270138306728" lon="7.907825392384303"><ele>630.2</ele><time>2026-05-03T08:59:12Z</time></trkpt><trkpt lat="44.08275102159047" lon="7.907920721559197"><ele>631.0</ele><time>2026-05-03T08:59:13Z</time></trkpt><trkpt lat="44.08281873906853" lon="7.908019160861839"><ele>631.0</ele><time>2026-05-03T08:59:14Z</time></trkpt><trkpt lat="44.08288235906285" lon="7.908081655277231"><ele>631.0</ele><time>2026-05-03T08:59:15Z</time></trkpt><trkpt lat="44.082954458714234" lon="7.908108232130226"><ele>631.0</ele><time>2026-05-03T08:59:16Z</time></trkpt><trkpt lat="44.083054832415414" lon="7.908100075198563"><ele>631.0</ele><time>2026-05-03T08:59:17Z</time></trkpt><trkpt lat="44.0831430378273" lon="7.90814113360194"><ele>631.0</ele><time>2026-05-03T08:59:18Z</time></trkpt><trkpt lat="44.08321696144351" lon="7.908191073923124"><ele>631.0</ele><time>2026-05-03T08:59:19Z</time></trkpt><trkpt lat="44.08327533205892" lon="7.908246280940692"><ele>631.3333333333334</ele><time>2026-05-03T08:59:20Z</time></trkpt><trkpt lat="44.08333170018892" lon="7.908329193544727"><ele>631.6666666666667</ele><time>2026-05-03T08:59:21Z</time></trkpt><trkpt lat="44.08339013994329" lon="7.908408660286239"><ele>632.0</ele><time>2026-05-03T08:59:22Z</time></trkpt><trkpt lat="44.083431998392605" lon="7.908509216010906"><ele>632.3333333333334</ele><time>2026-05-03T08:59:23Z</time></trkpt><trkpt lat="44.083481470339876" lon="7.908579232970115"><ele>632.6666666666666</ele><time>2026-05-03T08:59:24Z</time></trkpt><trkpt lat="44.08354919100291" lon="7.908605128511636"><ele>633.0</ele><time>2026-05-03T08:59:25Z</time></trkpt><trkpt lat="44.08361430724701" lon="7.908587354214543"><ele>633.0</ele><time>2026-05-03T08:59:26Z</time></trkpt><trkpt lat="44.083670112793484" lon="7.908529271195977"><ele>633.0</ele><time>2026-05-03T08:59:27Z</time></trkpt><trkpt lat="44.08372441589529" lon="7.908444023507689"><ele>633.0</ele><time>2026-05-03T08:59:28Z</time></trkpt><trkpt lat="44.083770712075435" lon="7.908327870427867"><ele>633.0</ele><time>2026-05-03T08:59:29Z</time></trkpt><trkpt lat="44.083809037347756" lon="7.908200690634241"><ele>633.0</ele><time>2026-05-03T08:59:30Z</time></trkpt><trkpt lat="44.083852690645465" lon="7.908079749470029"><ele>633.0</ele><time>2026-05-03T08:59:31Z</time></trkpt><trkpt lat="44.0839262015345" lon="7.907996573697583"><ele>638.0</ele><time>2026-05-03T08:59:32Z</time></trkpt><trkpt lat="44.08400369060387" lon="7.907941835706903"><ele>643.0</ele><time>2026-05-03T08:59:33Z</time></trkpt><trkpt lat="44.08409182999877" lon="7.907868703679585"><ele>648.0</ele><time>2026-05-03T08:59:34Z</time></trkpt><trkpt lat="44.08417894091708" lon="7.907762406701991"><ele>653.0</ele><time>2026-05-03T08:59:35Z</time></trkpt><trkpt lat="44.08424416817599" lon="7.907642402034217"><ele>658.0</ele><time>2026-05-03T08:59:36Z</time></trkpt><trkpt lat="44.0843056745775" lon="7.907557997968123"><ele>662.4</ele><time>2026-05-03T08:59:37Z</time></trkpt><trkpt lat="44.084374723669875" lon="7.907501975313937"><ele>666.8</ele><time>2026-05-03T08:59:38Z</time></trkpt><trkpt lat="44.08443666803663" lon="7.907485359867499"><ele>671.2</ele><time>2026-05-03T08:59:39Z</time></trkpt><trkpt lat="44.08451052574359" lon="7.907366460389203"><ele>675.6</ele><time>2026-05-03T08:59:41Z</time></trkpt><trkpt lat="44.084443547306634" lon="7.907216715194119"><ele>680.0</ele><time>2026-05-03T08:59:43Z</time></trkpt><trkpt lat="44.08433748654202" lon="7.9071974420642395"><ele>680.0</ele><time>2026-05-03T08:59:45Z</time></trkpt><trkpt lat="44.084262058077265" lon="7.907248136118404"><ele>680.0</ele><time>2026-05-03T08:59:46Z</time></trkpt><trkpt lat="44.08418811731571" lon="7.907328892657209"><ele>680.0</ele><time>2026-05-03T08:59:47Z</time></trkpt><trkpt lat="44.08410711409218" lon="7.907404385924375"><ele>680.0</ele><time>2026-05-03T08:59:48Z</time></trkpt><trkpt lat="44.08403789290566" lon="7.907469978199872"><ele>680.0</ele><time>2026-05-03T08:59:49Z</time></trkpt><trkpt lat="44.083922549078935" lon="7.9075173509417995"><ele>678.6666666666666</ele><time>2026-05-03T08:59:51Z</time></trkpt><trkpt lat="44.083782597889666" lon="7.907529934437813"><ele>677.3333333333333</ele><time>2026-05-03T08:59:53Z</time></trkpt><trkpt lat="44.083718217625" lon="7.907562262357828"><ele>676.0</ele><time>2026-05-03T08:59:54Z</time></trkpt><trkpt lat="44.083653962326416" lon="7.907519325428193"><ele>674.6666666666666</ele><time>2026-05-03T08:59:56Z</time></trkpt><trkpt lat="44.08369797849057" lon="7.907400146390059"><ele>673.3333333333334</ele><time>2026-05-03T08:59:58Z</time></trkpt><trkpt lat="44.083762708384185" lon="7.907364091059762"><ele>672.0</ele><time>2026-05-03T08:59:59Z</time></trkpt><trkpt lat="44.08384282731173" lon="7.907326446979049"><ele>672.0</ele><time>2026-05-03T09:00:00Z</time></trkpt><trkpt lat="44.08391844202835" lon="7.907274417011735"><ele>672.0</ele><time>2026-05-03T09:00:01Z</time></trkpt><trkpt lat="44.08397414141486" lon="7.907214610475197"><ele>672.0</ele><time>2026-05-03T09:00:02Z</time></trkpt><trkpt lat="44.08403255584718" lon="7.907122605337447"><ele>672.0</ele><time>2026-05-03T09:00:04Z</time></trkpt><trkpt lat="44.084056732526534" lon="7.907021343191208"><ele>672.0</ele><time>2026-05-03T09:00:14Z</time></trkpt><trkpt lat="44.08408397864486" lon="7.90690469478511"><ele>672.0</ele><time>2026-05-03T09:00:16Z</time></trkpt><trkpt lat="44.08409551590872" lon="7.906788183215253"><ele>675.3333333333334</ele><time>2026-05-03T09:00:18Z</time></trkpt><trkpt lat="44.08411165382171" lon="7.906652643284447"><ele>678.6666666666666</ele><time>2026-05-03T09:00:20Z</time></trkpt><trkpt lat="44.08412635312543" lon="7.906477221611699"><ele>682.0</ele><time>2026-05-03T09:00:22Z</time></trkpt><trkpt lat="44.08414248699674" lon="7.906385809814609"><ele>685.3333333333333</ele><time>2026-05-03T09:00:23Z</time></trkpt><trkpt lat="44.08416005064068" lon="7.906289661073915"><ele>688.6666666666666</ele><time>2026-05-03T09:00:24Z</time></trkpt><trkpt lat="44.08419147805258" lon="7.90619690213379"><ele>692.0</ele><time>2026-05-03T09:00:25Z</time></trkpt><trkpt lat="44.08423981626586" lon="7.90610003188155"><ele>692.0</ele><time>2026-05-03T09:00:26Z</time></trkpt><trkpt lat="44.084311383414665" lon="7.906015596108769"><ele>692.0</ele><time>2026-05-03T09:00:27Z</time></trkpt><trkpt lat="44.084373917406886" lon="7.905935736073417"><ele>692.0</ele><time>2026-05-03T09:00:28Z</time></trkpt><trkpt lat="44.08443117244695" lon="7.905857813441346"><ele>692.0</ele><time>2026-05-03T09:00:29Z</time></trkpt><trkpt lat="44.08446714967043" lon="7.905736501965187"><ele>692.0</ele><time>2026-05-03T09:00:30Z</time></trkpt><trkpt lat="44.08447722704974" lon="7.9055881978322535"><ele>694.0</ele><time>2026-05-03T09:00:31Z</time></trkpt><trkpt lat="44.084486271408224" lon="7.905462306644685"><ele>696.0</ele><time>2026-05-03T09:00:32Z</time></trkpt><trkpt lat="44.08454112394621" lon="7.90536538681515"><ele>698.0</ele><time>2026-05-03T09:00:34Z</time></trkpt><trkpt lat="44.08460284207869" lon="7.905385923665567"><ele>700.0</ele><time>2026-05-03T09:00:35Z</time></trkpt><trkpt lat="44.08466926632688" lon="7.905431703521801"><ele>702.0</ele><time>2026-05-03T09:00:36Z</time></trkpt><trkpt lat="44.08473929778489" lon="7.905491740036022"><ele>704.0</ele><time>2026-05-03T09:00:37Z</time></trkpt><trkpt lat="44.08481296948328" lon="7.905576716151095"><ele>704.0</ele><time>2026-05-03T09:00:38Z</time></trkpt><trkpt lat="44.084902698884974" lon="7.9056774500859355"><ele>704.0</ele><time>2026-05-03T09:00:39Z</time></trkpt><trkpt lat="44.08495963523587" lon="7.905784390017895"><ele>704.0</ele><time>2026-05-03T09:00:40Z</time></trkpt><trkpt lat="44.08501015992374" lon="7.9058517251268725"><ele>704.0</ele><time>2026-05-03T09:00:41Z</time></trkpt><trkpt lat="44.08509501511462" lon="7.905948516804741"><ele>704.0</ele><time>2026-05-03T09:00:43Z</time></trkpt><trkpt lat="44.08516202464527" lon="7.905945786504974"><ele>705.25</ele><time>2026-05-03T09:00:45Z</time></trkpt><trkpt lat="44.085196099349595" lon="7.905851961099881"><ele>706.5</ele><time>2026-05-03T09:00:46Z</time></trkpt><trkpt lat="44.08524149057119" lon="7.905664740686515"><ele>707.75</ele><time>2026-05-03T09:00:47Z</time></trkpt><trkpt lat="44.085282252533204" lon="7.905471527818418"><ele>709.0</ele><time>2026-05-03T09:00:48Z</time></trkpt><trkpt lat="44.08531292348045" lon="7.905314215878661"><ele>709.0</ele><time>2026-05-03T09:00:49Z</time></trkpt><trkpt lat="44.08535137441019" lon="7.905171326143094"><ele>709.0</ele><time>2026-05-03T09:00:50Z</time></trkpt><trkpt lat="44.08537147378356" lon="7.905016635571747"><ele>709.0</ele><time>2026-05-03T09:00:51Z</time></trkpt><trkpt lat="44.08538700445418" lon="7.904880388271635"><ele>709.0</ele><time>2026-05-03T09:00:52Z</time></trkpt><trkpt lat="44.08539444294729" lon="7.904726222481541"><ele>709.0</ele><time>2026-05-03T09:00:53Z</time></trkpt><trkpt lat="44.0854103138506" lon="7.90458341424772"><ele>711.6666666666667</ele><time>2026-05-03T09:00:54Z</time></trkpt><trkpt lat="44.08542947766408" lon="7.90447080988789"><ele>714.3333333333334</ele><time>2026-05-03T09:00:55Z</time></trkpt><trkpt lat="44.085466985867136" lon="7.90437397036953"><ele>717.0</ele><time>2026-05-03T09:00:56Z</time></trkpt><trkpt lat="44.08550672200726" lon="7.904267163343445"><ele>719.6666666666666</ele><time>2026-05-03T09:00:57Z</time></trkpt><trkpt lat="44.08553723129534" lon="7.90414904909559"><ele>722.3333333333333</ele><time>2026-05-03T09:00:58Z</time></trkpt><trkpt lat="44.08556767761685" lon="7.904041295956102"><ele>725.0</ele><time>2026-05-03T09:00:59Z</time></trkpt><trkpt lat="44.08560262545744" lon="7.903943220697173"><ele>724.6</ele><time>2026-05-03T09:01:00Z</time></trkpt><trkpt lat="44.08564009051805" lon="7.903840232216212"><ele>724.2</ele><time>2026-05-03T09:01:01Z</time></trkpt><trkpt lat="44.08568037284925" lon="7.903736738043692"><ele>723.8</ele><time>2026-05-03T09:01:02Z</time></trkpt><trkpt lat="44.08573422767971" lon="7.903653915573722"><ele>723.4</ele><time>2026-05-03T09:01:03Z</time></trkpt><trkpt lat="44.08580086704736" lon="7.903575394416889"><ele>723.0</ele><time>2026-05-03T09:01:04Z</time></trkpt><trkpt lat="44.08590079171332" lon="7.903488998343103"><ele>723.0</ele><time>2026-05-03T09:01:05Z</time></trkpt><trkpt lat="44.08597895832007" lon="7.903418573201906"><ele>723.0</ele><time>2026-05-03T09:01:06Z</time></trkpt><trkpt lat="44.086049545774856" lon="7.903337452089228"><ele>723.0</ele><time>2026-05-03T09:01:07Z</time></trkpt><trkpt lat="44.08611869092904" lon="7.903270966053697"><ele>723.0</ele><time>2026-05-03T09:01:08Z</time></trkpt><trkpt lat="44.0861953488031" lon="7.903234875943917"><ele>723.0</ele><time>2026-05-03T09:01:09Z</time></trkpt><trkpt lat="44.08629012263592" lon="7.903213535748732"><ele>723.0</ele><time>2026-05-03T09:01:10Z</time></trkpt><trkpt lat="44.086381517226464" lon="7.9031951851625255"><ele>723.5999999999999</ele><time>2026-05-03T09:01:11Z</time></trkpt><trkpt lat="44.08645240427048" lon="7.903134139192832"><ele>724.1999999999999</ele><time>2026-05-03T09:01:12Z</time></trkpt><trkpt lat="44.08652230677103" lon="7.9030303201985985"><ele>724.8</ele><time>2026-05-03T09:01:13Z</time></trkpt><trkpt lat="44.08659569062546" lon="7.90290888555446"><ele>725.4</ele><time>2026-05-03T09:01:14Z</time></trkpt><trkpt lat="44.08666717100234" lon="7.902790718896349"><ele>726.0</ele><time>2026-05-03T09:01:15Z</time></trkpt><trkpt lat="44.08673960413261" lon="7.902665386132748"><ele>730.5999999999999</ele><time>2026-05-03T09:01:16Z</time></trkpt><trkpt lat="44.08680833369742" lon="7.9025438871410945"><ele>735.2</ele><time>2026-05-03T09:01:17Z</time></trkpt><trkpt lat="44.08686192426699" lon="7.902420219710448"><ele>739.8</ele><time>2026-05-03T09:01:18Z</time></trkpt><trkpt lat="44.086912443899074" lon="7.902307211440096"><ele>744.4000000000001</ele><time>2026-05-03T09:01:19Z</time></trkpt><trkpt lat="44.086954843269616" lon="7.902216771198959"><ele>749.0</ele><time>2026-05-03T09:01:20Z</time></trkpt><trkpt lat="44.086981018711036" lon="7.902101960484533"><ele>749.0</ele><time>2026-05-03T09:01:21Z</time></trkpt><trkpt lat="44.086978001276584" lon="7.901956598601587"><ele>749.0</ele><time>2026-05-03T09:01:22Z</time></trkpt><trkpt lat="44.086963282499326" lon="7.90180048793957"><ele>749.0</ele><time>2026-05-03T09:01:23Z</time></trkpt><trkpt lat="44.08694146500514" lon="7.901655437956742"><ele>749.0</ele><time>2026-05-03T09:01:24Z</time></trkpt><trkpt lat="44.086943582836696" lon="7.901486265944588"><ele>749.0</ele><time>2026-05-03T09:01:25Z</time></trkpt><trkpt lat="44.08694853270934" lon="7.90133430364657"><ele>752.1666666666666</ele><time>2026-05-03T09:01:26Z</time></trkpt><trkpt lat="44.086954830031765" lon="7.901216553326105"><ele>755.3333333333333</ele><time>2026-05-03T09:01:27Z</time></trkpt><trkpt lat="44.086997979164295" lon="7.901093888002972"><ele>758.5</ele><time>2026-05-03T09:01:29Z</time></trkpt><trkpt lat="44.087054209990036" lon="7.901049592080716"><ele>761.6666666666666</ele><time>2026-05-03T09:01:30Z</time></trkpt><trkpt lat="44.08712213206906" lon="7.901026006818402"><ele>764.8333333333334</ele><time>2026-05-03T09:01:31Z</time></trkpt><trkpt lat="44.087186367167014" lon="7.900881765126728"><ele>768.0</ele><time>2026-05-03T09:01:33Z</time></trkpt><trkpt lat="44.087163902569905" lon="7.9007805713818895"><ele>770.6666666666666</ele><time>2026-05-03T09:01:34Z</time></trkpt><trkpt lat="44.08710750694821" lon="7.900698319685042"><ele>773.3333333333333</ele><time>2026-05-03T09:01:35Z</time></trkpt><trkpt lat="44.08703775283315" lon="7.900622845096605"><ele>776.0</ele><time>2026-05-03T09:01:36Z</time></trkpt><trkpt lat="44.08698414527836" lon="7.9005292396014655"><ele>778.6666666666666</ele><time>2026-05-03T09:01:37Z</time></trkpt><trkpt lat="44.08694344042134" lon="7.900426242628376"><ele>781.3333333333333</ele><time>2026-05-03T09:01:38Z</time></trkpt><trkpt lat="44.08689976824295" lon="7.90032933186701"><ele>784.0</ele><time>2026-05-03T09:01:39Z</time></trkpt><trkpt lat="44.08685420505753" lon="7.900256423821849"><ele>783.9999999999999</ele><time>2026-05-03T09:01:40Z</time></trkpt><trkpt lat="44.08682099674603" lon="7.900175689230484"><ele>784.0</ele><time>2026-05-03T09:01:41Z</time></trkpt><trkpt lat="44.08678667644568" lon="7.900101351583481"><ele>784.0</ele><time>2026-05-03T09:01:42Z</time></trkpt><trkpt lat="44.086817071820924" lon="7.899943144631388"><ele>784.0</ele><time>2026-05-03T09:01:44Z</time></trkpt><trkpt lat="44.086864961270535" lon="7.899857590568271"><ele>783.9999999999999</ele><time>2026-05-03T09:01:45Z</time></trkpt><trkpt lat="44.08691403542809" lon="7.899786115848507"><ele>784.0</ele><time>2026-05-03T09:01:46Z</time></trkpt><trkpt lat="44.08698276302118" lon="7.899742988529382"><ele>785.8000000000001</ele><time>2026-05-03T09:01:47Z</time></trkpt><trkpt lat="44.08708001836802" lon="7.899729226327448"><ele>787.6</ele><time>2026-05-03T09:01:48Z</time></trkpt><trkpt lat="44.087160806981885" lon="7.899712180723314"><ele>789.4</ele><time>2026-05-03T09:01:49Z</time></trkpt><trkpt lat="44.08721862614021" lon="7.8996402959172505"><ele>791.2</ele><time>2026-05-03T09:01:50Z</time></trkpt><trkpt lat="44.08727340859627" lon="7.899545082960537"><ele>793.0</ele><time>2026-05-03T09:01:51Z</time></trkpt><trkpt lat="44.08732525489233" lon="7.899414898356362"><ele>792.9999999999999</ele><time>2026-05-03T09:01:52Z</time></trkpt><trkpt lat="44.08735607901717" lon="7.899294655024711"><ele>793.0</ele><time>2026-05-03T09:01:53Z</time></trkpt><trkpt lat="44.08739041078967" lon="7.899197186731514"><ele>793.0</ele><time>2026-05-03T09:01:54Z</time></trkpt><trkpt lat="44.08744429414454" lon="7.899117033859426"><ele>793.0</ele><time>2026-05-03T09:01:55Z</time></trkpt><trkpt lat="44.08752471558128" lon="7.899057843097527"><ele>792.9999999999999</ele><time>2026-05-03T09:01:56Z</time></trkpt><trkpt lat="44.08758589739228" lon="7.8989966135143765"><ele>793.0</ele><time>2026-05-03T09:01:57Z</time></trkpt><trkpt lat="44.087610748472606" lon="7.8989106571588374"><ele>792.8333333333333</ele><time>2026-05-03T09:01:58Z</time></trkpt><trkpt lat="44.08759973178085" lon="7.8987922381853926"><ele>792.6666666666666</ele><time>2026-05-03T09:01:59Z</time></trkpt><trkpt lat="44.08756986837865" lon="7.898653231321101"><ele>792.5</ele><time>2026-05-03T09:02:00Z</time></trkpt><trkpt lat="44.08755606007169" lon="7.898528273280596"><ele>792.3333333333333</ele><time>2026-05-03T09:02:01Z</time></trkpt><trkpt lat="44.087558444084245" lon="7.898409984262167"><ele>792.1666666666666</ele><time>2026-05-03T09:02:02Z</time></trkpt><trkpt lat="44.08757388248361" lon="7.898300710136491"><ele>792.0</ele><time>2026-05-03T09:02:03Z</time></trkpt><trkpt lat="44.087600810424384" lon="7.898205137240672"><ele>792.0</ele><time>2026-05-03T09:02:04Z</time></trkpt><trkpt lat="44.087658929070365" lon="7.898125739178554"><ele>792.0</ele><time>2026-05-03T09:02:05Z</time></trkpt><trkpt lat="44.08774222992552" lon="7.898064047364632"><ele>792.0</ele><time>2026-05-03T09:02:06Z</time></trkpt><trkpt lat="44.08781285730501" lon="7.898017040946331"><ele>792.0</ele><time>2026-05-03T09:02:07Z</time></trkpt><trkpt lat="44.08786500280864" lon="7.89794521482913"><ele>792.0</ele><time>2026-05-03T09:02:08Z</time></trkpt><trkpt lat="44.08788383028496" lon="7.897835109601437"><ele>792.0</ele><time>2026-05-03T09:02:09Z</time></trkpt><trkpt lat="44.087892397635024" lon="7.8976969574608855"><ele>796.2</ele><time>2026-05-03T09:02:10Z</time></trkpt><trkpt lat="44.0879096600587" lon="7.897566074211057"><ele>800.4000000000001</ele><time>2026-05-03T09:02:11Z</time></trkpt><trkpt lat="44.08789689245906" lon="7.897444814137437"><ele>804.5999999999999</ele><time>2026-05-03T09:02:12Z</time></trkpt><trkpt lat="44.08785618407983" lon="7.897326148894882"><ele>808.8</ele><time>2026-05-03T09:02:13Z</time></trkpt><trkpt lat="44.0878248843597" lon="7.897227762334939"><ele>813.0</ele><time>2026-05-03T09:02:14Z</time></trkpt><trkpt lat="44.08785182230797" lon="7.897101080513177"><ele>813.0</ele><time>2026-05-03T09:02:16Z</time></trkpt><trkpt lat="44.087907352779645" lon="7.89703019619174"><ele>813.0</ele><time>2026-05-03T09:02:17Z</time></trkpt><trkpt lat="44.08793832038213" lon="7.89693288069587"><ele>813.0</ele><time>2026-05-03T09:02:18Z</time></trkpt><trkpt lat="44.08794886646641" lon="7.896812781415955"><ele>813.0</ele><time>2026-05-03T09:02:19Z</time></trkpt><trkpt lat="44.08798420230092" lon="7.896731275889756"><ele>813.0</ele><time>2026-05-03T09:02:20Z</time></trkpt><trkpt lat="44.08807636426227" lon="7.896680396052777"><ele>813.0</ele><time>2026-05-03T09:02:22Z</time></trkpt><trkpt lat="44.08817466869316" lon="7.896675002001058"><ele>818.0</ele><time>2026-05-03T09:02:23Z</time></trkpt><trkpt lat="44.08825800132586" lon="7.896691789768049"><ele>823.0</ele><time>2026-05-03T09:02:24Z</time></trkpt><trkpt lat="44.08834220675052" lon="7.8966529835122214"><ele>828.0</ele><time>2026-05-03T09:02:25Z</time></trkpt><trkpt lat="44.0884093596622" lon="7.896572609074319"><ele>833.0</ele><time>2026-05-03T09:02:26Z</time></trkpt><trkpt lat="44.08847076223239" lon="7.896465348060388"><ele>838.0</ele><time>2026-05-03T09:02:27Z</time></trkpt><trkpt lat="44.088529698859" lon="7.896353325776947"><ele>833.8</ele><time>2026-05-03T09:02:28Z</time></trkpt><trkpt lat="44.08859943116581" lon="7.896246170879397"><ele>829.5999999999999</ele><time>2026-05-03T09:02:29Z</time></trkpt><trkpt lat="44.08866330658174" lon="7.896141490486523"><ele>825.4000000000001</ele><time>2026-05-03T09:02:30Z</time></trkpt><trkpt lat="44.088703034484936" lon="7.896039777618871"><ele>821.2</ele><time>2026-05-03T09:02:31Z</time></trkpt><trkpt lat="44.08871813734944" lon="7.89591500049522"><ele>817.0</ele><time>2026-05-03T09:02:32Z</time></trkpt><trkpt lat="44.08871834177025" lon="7.895791326424343"><ele>816.9999999999999</ele><time>2026-05-03T09:02:33Z</time></trkpt><trkpt lat="44.08868858720617" lon="7.895692448757727"><ele>817.0</ele><time>2026-05-03T09:02:34Z</time></trkpt><trkpt lat="44.08867116283827" lon="7.895593703561938"><ele>817.0</ele><time>2026-05-03T09:02:35Z</time></trkpt><trkpt lat="44.088647070071445" lon="7.895438517302671"><ele>817.0</ele><time>2026-05-03T09:02:37Z</time></trkpt><trkpt lat="44.088684192669724" lon="7.895339642427442"><ele>816.9999999999999</ele><time>2026-05-03T09:02:38Z</time></trkpt><trkpt lat="44.088712399590534" lon="7.895258115168826"><ele>817.0</ele><time>2026-05-03T09:02:39Z</time></trkpt><trkpt lat="44.088790877092094" lon="7.895209893852965"><ele>817.0</ele><time>2026-05-03T09:02:40Z</time></trkpt><trkpt lat="44.088894324037014" lon="7.895165223032821"><ele>817.0</ele><time>2026-05-03T09:02:41Z</time></trkpt><trkpt lat="44.08899354686117" lon="7.895114527343733"><ele>817.0</ele><time>2026-05-03T09:02:42Z</time></trkpt><trkpt lat="44.08907481647067" lon="7.895053901730979"><ele>817.0</ele><time>2026-05-03T09:02:43Z</time></trkpt><trkpt lat="44.089143226881404" lon="7.894965394770641"><ele>817.0</ele><time>2026-05-03T09:02:44Z</time></trkpt><trkpt lat="44.0892028470013" lon="7.894858555912"><ele>813.0</ele><time>2026-05-03T09:02:45Z</time></trkpt><trkpt lat="44.089258742760464" lon="7.894759965714614"><ele>809.0</ele><time>2026-05-03T09:02:46Z</time></trkpt><trkpt lat="44.08931551016346" lon="7.894665958657857"><ele>805.0</ele><time>2026-05-03T09:02:47Z</time></trkpt><trkpt lat="44.089360961645255" lon="7.894544766240159"><ele>801.0</ele><time>2026-05-03T09:02:48Z</time></trkpt><trkpt lat="44.08938505110636" lon="7.894403560992397"><ele>797.0</ele><time>2026-05-03T09:02:49Z</time></trkpt><trkpt lat="44.08940099951449" lon="7.894276437156516"><ele>804.8</ele><time>2026-05-03T09:02:50Z</time></trkpt><trkpt lat="44.089445286712035" lon="7.894170310176388"><ele>812.6</ele><time>2026-05-03T09:02:51Z</time></trkpt><trkpt lat="44.08952010458482" lon="7.894081562306374"><ele>820.4</ele><time>2026-05-03T09:02:52Z</time></trkpt><trkpt lat="44.089597828317885" lon="7.894004006554013"><ele>828.1999999999999</ele><time>2026-05-03T09:02:53Z</time></trkpt><trkpt lat="44.089677257321526" lon="7.893926869394476"><ele>836.0</ele><time>2026-05-03T09:02:54Z</time></trkpt><trkpt lat="44.089731013711955" lon="7.89382552986375"><ele>836.0</ele><time>2026-05-03T09:02:55Z</time></trkpt><trkpt lat="44.08977678343819" lon="7.893691952133352"><ele>836.0</ele><time>2026-05-03T09:02:56Z</time></trkpt><trkpt lat="44.08981730397126" lon="7.893548587837831"><ele>836.0</ele><time>2026-05-03T09:02:57Z</time></trkpt><trkpt lat="44.089851405678395" lon="7.893425754114051"><ele>836.0</ele><time>2026-05-03T09:02:58Z</time></trkpt><trkpt lat="44.08986249347124" lon="7.893324969115095"><ele>836.0</ele><time>2026-05-03T09:02:59Z</time></trkpt><trkpt lat="44.08984337821121" lon="7.893223938312241"><ele>841.0000000000001</ele><time>2026-05-03T09:03:00Z</time></trkpt><trkpt lat="44.08979555564848" lon="7.893109088114214"><ele>846.0</ele><time>2026-05-03T09:03:01Z</time></trkpt><trkpt lat="44.08974649753642" lon="7.893014179344306"><ele>851.0</ele><time>2026-05-03T09:03:02Z</time></trkpt><trkpt lat="44.08971257966662" lon="7.892935024916618"><ele>856.0</ele><time>2026-05-03T09:03:03Z</time></trkpt><trkpt lat="44.08974634049672" lon="7.892799348924589"><ele>861.0000000000001</ele><time>2026-05-03T09:03:05Z</time></trkpt><trkpt lat="44.08980636289538" lon="7.892748959455185"><ele>866.0</ele><time>2026-05-03T09:03:06Z</time></trkpt><trkpt lat="44.08990622884058" lon="7.8927320943119135"><ele>857.0000000000001</ele><time>2026-05-03T09:03:07Z</time></trkpt><trkpt lat="44.089998055204155" lon="7.892734844029324"><ele>848.0</ele><time>2026-05-03T09:03:08Z</time></trkpt><trkpt lat="44.090060983539814" lon="7.892752355764587"><ele>839.0</ele><time>2026-05-03T09:03:09Z</time></trkpt><trkpt lat="44.09015821077434" lon="7.892710473319182"><ele>830.0</ele><time>2026-05-03T09:03:10Z</time></trkpt><trkpt lat="44.09024712072795" lon="7.892677572796723"><ele>821.0000000000001</ele><time>2026-05-03T09:03:11Z</time></trkpt><trkpt lat="44.09030588520375" lon="7.8926451823939665"><ele>812.0</ele><time>2026-05-03T09:03:12Z</time></trkpt><trkpt lat="44.09040281710008" lon="7.89260488997769"><ele>812.0000000000001</ele><time>2026-05-03T09:03:14Z</time></trkpt><trkpt lat="44.09051500061567" lon="7.892667771058404"><ele>812.0</ele><time>2026-05-03T09:03:16Z</time></trkpt><trkpt lat="44.09054502670196" lon="7.892745282995488"><ele>812.0</ele><time>2026-05-03T09:03:17Z</time></trkpt><trkpt lat="44.09062718594725" lon="7.8928469059640225"><ele>812.0</ele><time>2026-05-03T09:03:19Z</time></trkpt><trkpt lat="44.09067911160211" lon="7.892923693327482"><ele>812.0000000000001</ele><time>2026-05-03T09:03:20Z</time></trkpt><trkpt lat="44.09072526859405" lon="7.893013134719287"><ele>812.0</ele><time>2026-05-03T09:03:21Z</time></trkpt><trkpt lat="44.09074597066831" lon="7.893108580740302"><ele>812.0</ele><time>2026-05-03T09:03:22Z</time></trkpt><trkpt lat="44.09077461966247" lon="7.8932388444233945"><ele>812.0</ele><time>2026-05-03T09:03:23Z</time></trkpt><trkpt lat="44.09079193762747" lon="7.893379513458177"><ele>812.0</ele><time>2026-05-03T09:03:24Z</time></trkpt><trkpt lat="44.0908228875435" lon="7.89350007453256"><ele>812.0</ele><time>2026-05-03T09:03:25Z</time></trkpt><trkpt lat="44.09086216676001" lon="7.893622847707008"><ele>812.0</ele><time>2026-05-03T09:03:26Z</time></trkpt><trkpt lat="44.09092901436843" lon="7.893665965290653"><ele>812.0</ele><time>2026-05-03T09:03:27Z</time></trkpt><trkpt lat="44.09094832522477" lon="7.893792043611641"><ele>812.0</ele><time>2026-05-03T09:03:28Z</time></trkpt><trkpt lat="44.09097295055822" lon="7.893914629199974"><ele>812.0</ele><time>2026-05-03T09:03:29Z</time></trkpt><trkpt lat="44.090987317678675" lon="7.894039362554969"><ele>812.0</ele><time>2026-05-03T09:03:30Z</time></trkpt><trkpt lat="44.09102652949646" lon="7.894146023412336"><ele>812.0</ele><time>2026-05-03T09:03:31Z</time></trkpt><trkpt lat="44.0910898411186" lon="7.894243883548552"><ele>812.0000000000001</ele><time>2026-05-03T09:03:32Z</time></trkpt><trkpt lat="44.09115367514571" lon="7.894267186244216"><ele>812.0</ele><time>2026-05-03T09:03:33Z</time></trkpt><trkpt lat="44.09122495607114" lon="7.894270835739752"><ele>812.0</ele><time>2026-05-03T09:03:35Z</time></trkpt><trkpt lat="44.091289266492694" lon="7.894226568169761"><ele>812.0</ele><time>2026-05-03T09:03:38Z</time></trkpt><trkpt lat="44.09138048876688" lon="7.894186869315173"><ele>812.0000000000001</ele><time>2026-05-03T09:03:40Z</time></trkpt><trkpt lat="44.09144744646941" lon="7.89415067859987"><ele>812.0</ele><time>2026-05-03T09:03:41Z</time></trkpt><trkpt lat="44.09151678697511" lon="7.894105394072791"><ele>812.0</ele><time>2026-05-03T09:03:42Z</time></trkpt><trkpt lat="44.09157703252983" lon="7.894061128242925"><ele>812.0</ele><time>2026-05-03T09:03:43Z</time></trkpt><trkpt lat="44.09167783663514" lon="7.894065032914706"><ele>812.0</ele><time>2026-05-03T09:03:45Z</time></trkpt><trkpt lat="44.091766764211826" lon="7.894198036073466"><ele>812.0</ele><time>2026-05-03T09:03:47Z</time></trkpt><trkpt lat="44.09179721034476" lon="7.894305285165082"><ele>812.0</ele><time>2026-05-03T09:03:48Z</time></trkpt><trkpt lat="44.091827295330425" lon="7.894428671411767"><ele>814.2</ele><time>2026-05-03T09:03:49Z</time></trkpt><trkpt lat="44.09185865878624" lon="7.89454805799447"><ele>816.4000000000001</ele><time>2026-05-03T09:03:50Z</time></trkpt><trkpt lat="44.09188913245886" lon="7.894648396132553"><ele>818.5999999999999</ele><time>2026-05-03T09:03:51Z</time></trkpt><trkpt lat="44.091942981012224" lon="7.89473577754414"><ele>820.8</ele><time>2026-05-03T09:03:53Z</time></trkpt><trkpt lat="44.09203972897178" lon="7.894864722534174"><ele>823.0</ele><time>2026-05-03T09:04:46Z</time></trkpt><trkpt lat="44.0921135621886" lon="7.894910268485096"><ele>823.0</ele><time>2026-05-03T09:04:47Z</time></trkpt><trkpt lat="44.09217590822788" lon="7.894940908047045"><ele>823.0</ele><time>2026-05-03T09:04:48Z</time></trkpt><trkpt lat="44.09224218319375" lon="7.8949706054930635"><ele>823.0</ele><time>2026-05-03T09:04:49Z</time></trkpt><trkpt lat="44.092305583611584" lon="7.895014506996897"><ele>823.0</ele><time>2026-05-03T09:04:50Z</time></trkpt><trkpt lat="44.092361123776506" lon="7.895060133429592"><ele>823.0</ele><time>2026-05-03T09:04:51Z</time></trkpt><trkpt lat="44.092429531279244" lon="7.895105104498538"><ele>823.0</ele><time>2026-05-03T09:04:52Z</time></trkpt><trkpt lat="44.09248633336168" lon="7.895203666766067"><ele>823.0</ele><time>2026-05-03T09:04:53Z</time></trkpt><trkpt lat="44.092529076620146" lon="7.895323930884476"><ele>823.3333333333333</ele><time>2026-05-03T09:04:54Z</time></trkpt><trkpt lat="44.092565508516266" lon="7.895420890079422"><ele>823.6666666666666</ele><time>2026-05-03T09:04:55Z</time></trkpt><trkpt lat="44.09261185219439" lon="7.895511746680739"><ele>824.0</ele><time>2026-05-03T09:04:56Z</time></trkpt><trkpt lat="44.09268088147148" lon="7.895593591165888"><ele>824.3333333333333</ele><time>2026-05-03T09:04:57Z</time></trkpt><trkpt lat="44.09276250225873" lon="7.895668757369887"><ele>824.6666666666666</ele><time>2026-05-03T09:04:58Z</time></trkpt><trkpt lat="44.092850074161824" lon="7.8957370580134825"><ele>825.0</ele><time>2026-05-03T09:04:59Z</time></trkpt><trkpt lat="44.09294109840618" lon="7.89577579751298"><ele>825.0</ele><time>2026-05-03T09:05:00Z</time></trkpt><trkpt lat="44.09301487076499" lon="7.895806329962621"><ele>825.0</ele><time>2026-05-03T09:05:01Z</time></trkpt><trkpt lat="44.09311820351309" lon="7.89581162341357"><ele>825.0</ele><time>2026-05-03T09:05:02Z</time></trkpt><trkpt lat="44.093205325953356" lon="7.89577977080317"><ele>825.0</ele><time>2026-05-03T09:05:03Z</time></trkpt><trkpt lat="44.093277304027175" lon="7.895768672348194"><ele>825.0</ele><time>2026-05-03T09:05:04Z</time></trkpt><trkpt lat="44.09334759825933" lon="7.895737908678628"><ele>825.0</ele><time>2026-05-03T09:05:05Z</time></trkpt><trkpt lat="44.093433948404545" lon="7.895683655394015"><ele>828.0</ele><time>2026-05-03T09:05:06Z</time></trkpt><trkpt lat="44.09350202131309" lon="7.895606161594577"><ele>831.0</ele><time>2026-05-03T09:05:07Z</time></trkpt><trkpt lat="44.09355968649152" lon="7.895514494713986"><ele>834.0</ele><time>2026-05-03T09:05:08Z</time></trkpt><trkpt lat="44.0935936993287" lon="7.895400074316866"><ele>837.0</ele><time>2026-05-03T09:05:09Z</time></trkpt><trkpt lat="44.09359777833368" lon="7.895285710745624"><ele>840.0</ele><time>2026-05-03T09:05:10Z</time></trkpt><trkpt lat="44.09356594287636" lon="7.895188477851514"><ele>843.0</ele><time>2026-05-03T09:05:11Z</time></trkpt><trkpt lat="44.09350306005824" lon="7.895117275236839"><ele>843.5</ele><time>2026-05-03T09:05:12Z</time></trkpt><trkpt lat="44.093430614036244" lon="7.895067128769643"><ele>844.0</ele><time>2026-05-03T09:05:13Z</time></trkpt><trkpt lat="44.093355383014995" lon="7.895014161138548"><ele>844.5</ele><time>2026-05-03T09:05:14Z</time></trkpt><trkpt lat="44.0932579362064" lon="7.894980668877721"><ele>845.0</ele><time>2026-05-03T09:05:15Z</time></trkpt><trkpt lat="44.09319682935811" lon="7.894900573914668"><ele>845.5</ele><time>2026-05-03T09:05:16Z</time></trkpt><trkpt lat="44.0931534941194" lon="7.89480023170424"><ele>846.0</ele><time>2026-05-03T09:05:17Z</time></trkpt><trkpt lat="44.09313165073224" lon="7.8946915660014545"><ele>846.0</ele><time>2026-05-03T09:05:18Z</time></trkpt><trkpt lat="44.09311383877662" lon="7.894574872469451"><ele>846.0</ele><time>2026-05-03T09:05:19Z</time></trkpt><trkpt lat="44.09311898665477" lon="7.894452172538735"><ele>846.0</ele><time>2026-05-03T09:05:20Z</time></trkpt><trkpt lat="44.093144011295614" lon="7.894331883495291"><ele>846.0</ele><time>2026-05-03T09:05:21Z</time></trkpt><trkpt lat="44.09316860229074" lon="7.894210825513325"><ele>846.0</ele><time>2026-05-03T09:05:22Z</time></trkpt><trkpt lat="44.09317730238233" lon="7.8940749164048505"><ele>848.8</ele><time>2026-05-03T09:05:23Z</time></trkpt><trkpt lat="44.093168476228094" lon="7.893937145341941"><ele>851.5999999999999</ele><time>2026-05-03T09:05:24Z</time></trkpt><trkpt lat="44.0931539289648" lon="7.893808316464665"><ele>854.4</ele><time>2026-05-03T09:05:25Z</time></trkpt><trkpt lat="44.09315109596668" lon="7.893682772592959"><ele>857.2</ele><time>2026-05-03T09:05:26Z</time></trkpt><trkpt lat="44.09315179551943" lon="7.893553159168247"><ele>860.0</ele><time>2026-05-03T09:05:27Z</time></trkpt><trkpt lat="44.09316188644722" lon="7.893428773203882"><ele>861.6666666666667</ele><time>2026-05-03T09:05:28Z</time></trkpt><trkpt lat="44.09316952201077" lon="7.893312310187175"><ele>863.3333333333334</ele><time>2026-05-03T09:05:29Z</time></trkpt><trkpt lat="44.093144809226544" lon="7.893204063709856"><ele>865.0</ele><time>2026-05-03T09:05:30Z</time></trkpt><trkpt lat="44.093098482185404" lon="7.893108374344544"><ele>866.6666666666667</ele><time>2026-05-03T09:05:30.999Z</time></trkpt><trkpt lat="44.093040154985545" lon="7.893031588499578"><ele>868.3333333333334</ele><time>2026-05-03T09:05:31.999Z</time></trkpt><trkpt lat="44.0929928991635" lon="7.892949612135278"><ele>870.0</ele><time>2026-05-03T09:05:32.999Z</time></trkpt><trkpt lat="44.09296405984126" lon="7.892847445010062"><ele>870.0</ele><time>2026-05-03T09:05:33.999Z</time></trkpt><trkpt lat="44.09296547029143" lon="7.892739833881889"><ele>870.0</ele><time>2026-05-03T09:05:34.999Z</time></trkpt><trkpt lat="44.093003672131594" lon="7.892604611832868"><ele>870.0</ele><time>2026-05-03T09:05:35.999Z</time></trkpt><trkpt lat="44.093049035822155" lon="7.892482777381794"><ele>870.0</ele><time>2026-05-03T09:05:36.999Z</time></trkpt><trkpt lat="44.09309709803859" lon="7.892386002122654"><ele>870.0</ele><time>2026-05-03T09:05:37.999Z</time></trkpt><trkpt lat="44.093145028809325" lon="7.892299107966245"><ele>870.0</ele><time>2026-05-03T09:05:38.999Z</time></trkpt><trkpt lat="44.09320746073467" lon="7.892224478220907"><ele>871.0</ele><time>2026-05-03T09:05:39.999Z</time></trkpt><trkpt lat="44.09324972961111" lon="7.892145661183283"><ele>872.0</ele><time>2026-05-03T09:05:40.999Z</time></trkpt><trkpt lat="44.09332830911155" lon="7.892003784852306"><ele>873.0</ele><time>2026-05-03T09:05:42.999Z</time></trkpt><trkpt lat="44.09339885700374" lon="7.89188312026363"><ele>874.0</ele><time>2026-05-03T09:05:43.999Z</time></trkpt><trkpt lat="44.09346287368552" lon="7.891723727529755"><ele>875.0</ele><time>2026-05-03T09:05:44.999Z</time></trkpt><trkpt lat="44.093492361120255" lon="7.891596381678151"><ele>878.6</ele><time>2026-05-03T09:05:45.999Z</time></trkpt><trkpt lat="44.09354600352142" lon="7.891464068342038"><ele>882.2</ele><time>2026-05-03T09:05:46.999Z</time></trkpt><trkpt lat="44.093601586887665" lon="7.891357391558934"><ele>885.8</ele><time>2026-05-03T09:05:47.999Z</time></trkpt><trkpt lat="44.093652792562104" lon="7.891258043415631"><ele>889.4</ele><time>2026-05-03T09:05:48.999Z</time></trkpt><trkpt lat="44.09369526895616" lon="7.891178450948553"><ele>893.0</ele><time>2026-05-03T09:05:49.999Z</time></trkpt><trkpt lat="44.093688213728655" lon="7.89103841463758"><ele>893.0</ele><time>2026-05-03T09:05:51.999Z</time></trkpt><trkpt lat="44.09359253025317" lon="7.891006854087081"><ele>893.0</ele><time>2026-05-03T09:05:53.999Z</time></trkpt><trkpt lat="44.09352580397515" lon="7.891065131960028"><ele>893.0</ele><time>2026-05-03T09:05:55.999Z</time></trkpt><trkpt lat="44.093398702606294" lon="7.89112919702512"><ele>893.0</ele><time>2026-05-03T09:05:57.999Z</time></trkpt><trkpt lat="44.09330713686892" lon="7.891183243395797"><ele>893.0</ele><time>2026-05-03T09:05:58.999Z</time></trkpt><trkpt lat="44.09322243317124" lon="7.891232339654634"><ele>892.1666666666667</ele><time>2026-05-03T09:05:59.999Z</time></trkpt><trkpt lat="44.09315890262828" lon="7.891280810379776"><ele>891.3333333333334</ele><time>2026-05-03T09:06:00.999Z</time></trkpt><trkpt lat="44.09306256016571" lon="7.891342609890631"><ele>890.5</ele><time>2026-05-03T09:06:01.999Z</time></trkpt><trkpt lat="44.092976702851914" lon="7.891366860658394"><ele>889.6666666666667</ele><time>2026-05-03T09:06:02.999Z</time></trkpt><trkpt lat="44.092896680391966" lon="7.891367275262696"><ele>888.8333333333334</ele><time>2026-05-03T09:06:03.999Z</time></trkpt><trkpt lat="44.092813776808875" lon="7.891307980543822"><ele>888.0</ele><time>2026-05-03T09:06:05.999Z</time></trkpt><trkpt lat="44.092803453193426" lon="7.891210189698584"><ele>888.0</ele><time>2026-05-03T09:06:07.999Z</time></trkpt><trkpt lat="44.09285684488535" lon="7.891131772039187"><ele>888.0</ele><time>2026-05-03T09:06:49.999Z</time></trkpt><trkpt lat="44.09288336088779" lon="7.891045756693499"><ele>888.0</ele><time>2026-05-03T09:06:51.999Z</time></trkpt><trkpt lat="44.09290351831946" lon="7.890901884689391"><ele>888.0</ele><time>2026-05-03T09:06:53.999Z</time></trkpt><trkpt lat="44.092941435444224" lon="7.890800852885253"><ele>888.0</ele><time>2026-05-03T09:06:54.999Z</time></trkpt><trkpt lat="44.09296826212659" lon="7.890680562864048"><ele>888.0</ele><time>2026-05-03T09:06:55.999Z</time></trkpt><trkpt lat="44.09300147959732" lon="7.890604414630998"><ele>889.3333333333334</ele><time>2026-05-03T09:06:56.999Z</time></trkpt><trkpt lat="44.093013751879106" lon="7.890513891508345"><ele>890.6666666666667</ele><time>2026-05-03T09:06:57.999Z</time></trkpt><trkpt lat="44.09304132992217" lon="7.8904027369580385"><ele>892.0</ele><time>2026-05-03T09:06:58.999Z</time></trkpt><trkpt lat="44.09307213788168" lon="7.890306324200409"><ele>893.3333333333334</ele><time>2026-05-03T09:06:59.999Z</time></trkpt><trkpt lat="44.0931038837" lon="7.890214114941588"><ele>894.6666666666667</ele><time>2026-05-03T09:07:00.999Z</time></trkpt><trkpt lat="44.093130378566386" lon="7.890110973689018"><ele>896.0</ele><time>2026-05-03T09:07:01.999Z</time></trkpt><trkpt lat="44.09316596650178" lon="7.890004354377098"><ele>898.3333333333334</ele><time>2026-05-03T09:07:02.999Z</time></trkpt><trkpt lat="44.093203106186515" lon="7.889908633214177"><ele>900.6666666666667</ele><time>2026-05-03T09:07:03.999Z</time></trkpt><trkpt lat="44.09324285914638" lon="7.889820169297091"><ele>903.0</ele><time>2026-05-03T09:07:04.999Z</time></trkpt><trkpt lat="44.09326263347914" lon="7.889726727233453"><ele>905.3333333333333</ele><time>2026-05-03T09:07:05.999Z</time></trkpt><trkpt lat="44.09326545132874" lon="7.889582126289935"><ele>907.6666666666666</ele><time>2026-05-03T09:07:07.999Z</time></trkpt><trkpt lat="44.09321637390098" lon="7.889517008735799"><ele>910.0</ele><time>2026-05-03T09:07:08.999Z</time></trkpt><trkpt lat="44.09315394203031" lon="7.8894831796132765"><ele>909.9999999999999</ele><time>2026-05-03T09:07:09.999Z</time></trkpt><trkpt lat="44.093081199586884" lon="7.889493587019028"><ele>910.0</ele><time>2026-05-03T09:07:10.999Z</time></trkpt><trkpt lat="44.09299815450665" lon="7.889525612640145"><ele>910.0</ele><time>2026-05-03T09:07:11.999Z</time></trkpt><trkpt lat="44.09290608337492" lon="7.889546088939424"><ele>910.0</ele><time>2026-05-03T09:07:12.999Z</time></trkpt><trkpt lat="44.092811366921254" lon="7.8895720872902695"><ele>909.9999999999999</ele><time>2026-05-03T09:07:13.999Z</time></trkpt><trkpt lat="44.09271954126287" lon="7.889592978241947"><ele>910.0</ele><time>2026-05-03T09:07:14.999Z</time></trkpt><trkpt lat="44.09264835296654" lon="7.889651071409149"><ele>910.0</ele><time>2026-05-03T09:07:15.999Z</time></trkpt><trkpt lat="44.092571868016144" lon="7.889721386633488"><ele>910.0</ele><time>2026-05-03T09:07:16.999Z</time></trkpt><trkpt lat="44.09249366584321" lon="7.88979366083222"><ele>910.0</ele><time>2026-05-03T09:07:17.999Z</time></trkpt><trkpt lat="44.09240570378121" lon="7.889853760552331"><ele>910.0</ele><time>2026-05-03T09:07:18.999Z</time></trkpt><trkpt lat="44.09232424454214" lon="7.889947772017924"><ele>910.0</ele><time>2026-05-03T09:07:19.999Z</time></trkpt><trkpt lat="44.09225293614902" lon="7.890030172708402"><ele>910.3333333333333</ele><time>2026-05-03T09:07:20.999Z</time></trkpt><trkpt lat="44.09217964086225" lon="7.8900873087255095"><ele>910.6666666666666</ele><time>2026-05-03T09:07:21.999Z</time></trkpt><trkpt lat="44.09211822479884" lon="7.890154733898881"><ele>911.0</ele><time>2026-05-03T09:07:22.999Z</time></trkpt><trkpt lat="44.092003881148365" lon="7.89019076919822"><ele>911.3333333333333</ele><time>2026-05-03T09:07:24.999Z</time></trkpt><trkpt lat="44.091941114547204" lon="7.890092175069481"><ele>911.6666666666666</ele><time>2026-05-03T09:07:26.999Z</time></trkpt><trkpt lat="44.09194866244102" lon="7.88999821268305"><ele>912.0</ele><time>2026-05-03T09:07:27.999Z</time></trkpt><trkpt lat="44.09202524421399" lon="7.88986531852753"><ele>912.0</ele><time>2026-05-03T09:07:30Z</time></trkpt><trkpt lat="44.092100172637636" lon="7.8898206911137425"><ele>912.0</ele><time>2026-05-03T09:07:31Z</time></trkpt><trkpt lat="44.092170518058744" lon="7.889737469619598"><ele>912.0</ele><time>2026-05-03T09:07:32Z</time></trkpt><trkpt lat="44.09223219036008" lon="7.889659508750043"><ele>912.0</ele><time>2026-05-03T09:07:33Z</time></trkpt><trkpt lat="44.09229134904753" lon="7.889575214851252"><ele>912.0</ele><time>2026-05-03T09:07:34Z</time></trkpt><trkpt lat="44.09233992409192" lon="7.889471440406075"><ele>912.0</ele><time>2026-05-03T09:07:35Z</time></trkpt><trkpt lat="44.09238387093353" lon="7.889365252767414"><ele>911.6666666666666</ele><time>2026-05-03T09:07:36Z</time></trkpt><trkpt lat="44.09243112562227" lon="7.88926985711083"><ele>911.3333333333333</ele><time>2026-05-03T09:07:37Z</time></trkpt><trkpt lat="44.092479525589965" lon="7.8891807822864015"><ele>911.0</ele><time>2026-05-03T09:07:38Z</time></trkpt><trkpt lat="44.09253469670208" lon="7.889096661054011"><ele>910.6666666666666</ele><time>2026-05-03T09:07:39Z</time></trkpt><trkpt lat="44.09259182733553" lon="7.889019496029921"><ele>910.3333333333333</ele><time>2026-05-03T09:07:40Z</time></trkpt><trkpt lat="44.09266247923764" lon="7.888952708821622"><ele>910.0</ele><time>2026-05-03T09:07:41Z</time></trkpt><trkpt lat="44.09274030341994" lon="7.888891253144071"><ele>915.2</ele><time>2026-05-03T09:07:42Z</time></trkpt><trkpt lat="44.092810788410475" lon="7.888802864213287"><ele>920.4</ele><time>2026-05-03T09:07:43Z</time></trkpt><trkpt lat="44.092876196567445" lon="7.888704062435009"><ele>925.5999999999999</ele><time>2026-05-03T09:07:44Z</time></trkpt><trkpt lat="44.09294100587737" lon="7.888610677202298"><ele>930.8</ele><time>2026-05-03T09:07:45Z</time></trkpt><trkpt lat="44.09300373061558" lon="7.888529511104285"><ele>936.0</ele><time>2026-05-03T09:07:46Z</time></trkpt><trkpt lat="44.0930948136366" lon="7.888467048049122"><ele>939.0</ele><time>2026-05-03T09:07:47Z</time></trkpt><trkpt lat="44.09316914694226" lon="7.888419325610873"><ele>941.9999999999999</ele><time>2026-05-03T09:07:48Z</time></trkpt><trkpt lat="44.093250583666475" lon="7.888368453567453"><ele>944.9999999999999</ele><time>2026-05-03T09:07:49Z</time></trkpt><trkpt lat="44.09335565283663" lon="7.888331528105062"><ele>948.0</ele><time>2026-05-03T09:07:50Z</time></trkpt><trkpt lat="44.093451994111525" lon="7.888280899022869"><ele>951.0</ele><time>2026-05-03T09:07:51Z</time></trkpt><trkpt lat="44.09354154199231" lon="7.888223260308842"><ele>951.0</ele><time>2026-05-03T09:07:52Z</time></trkpt><trkpt lat="44.09363668293757" lon="7.8881933422390595"><ele>951.0</ele><time>2026-05-03T09:07:53Z</time></trkpt><trkpt lat="44.09370712550073" lon="7.88815494764379"><ele>951.0</ele><time>2026-05-03T09:07:54Z</time></trkpt><trkpt lat="44.09377227893592" lon="7.888142463725367"><ele>951.0</ele><time>2026-05-03T09:07:55Z</time></trkpt><trkpt lat="44.093842360333305" lon="7.888181261379191"><ele>951.0</ele><time>2026-05-03T09:07:56Z</time></trkpt><trkpt lat="44.09390104038905" lon="7.888248179920685"><ele>951.0</ele><time>2026-05-03T09:07:57Z</time></trkpt><trkpt lat="44.093960284292315" lon="7.888330757230974"><ele>950.0</ele><time>2026-05-03T09:07:58Z</time></trkpt><trkpt lat="44.09402185904443" lon="7.888428560401448"><ele>949.0</ele><time>2026-05-03T09:07:59Z</time></trkpt><trkpt lat="44.09407610954024" lon="7.888519136207318"><ele>948.0</ele><time>2026-05-03T09:08:00Z</time></trkpt><trkpt lat="44.09412588736612" lon="7.888612785580622"><ele>947.0</ele><time>2026-05-03T09:08:01Z</time></trkpt><trkpt lat="44.094174545396505" lon="7.88872506120371"><ele>946.0</ele><time>2026-05-03T09:08:02Z</time></trkpt><trkpt lat="44.0942238614864" lon="7.8888349145732715"><ele>945.0</ele><time>2026-05-03T09:08:03Z</time></trkpt><trkpt lat="44.09428746811444" lon="7.888922502999954"><ele>945.0</ele><time>2026-05-03T09:08:04Z</time></trkpt><trkpt lat="44.094351633588055" lon="7.8889839290443575"><ele>945.0</ele><time>2026-05-03T09:08:05Z</time></trkpt><trkpt lat="44.0944279877971" lon="7.889038919374448"><ele>945.0</ele><time>2026-05-03T09:08:06Z</time></trkpt><trkpt lat="44.09450751338256" lon="7.889045138825822"><ele>945.0</ele><time>2026-05-03T09:08:07Z</time></trkpt><trkpt lat="44.094585361968974" lon="7.889059680054405"><ele>945.0</ele><time>2026-05-03T09:08:08Z</time></trkpt><trkpt lat="44.094667052468346" lon="7.889025697765251"><ele>945.0</ele><time>2026-05-03T09:08:09Z</time></trkpt><trkpt lat="44.094729778264266" lon="7.888881251641158"><ele>945.0</ele><time>2026-05-03T09:08:10Z</time></trkpt><trkpt lat="44.094772037735375" lon="7.888732540537124"><ele>945.0</ele><time>2026-05-03T09:08:11Z</time></trkpt><trkpt lat="44.09480753206606" lon="7.888590398289985"><ele>945.0</ele><time>2026-05-03T09:08:12Z</time></trkpt><trkpt lat="44.09484036646941" lon="7.888443530383685"><ele>945.0</ele><time>2026-05-03T09:08:13Z</time></trkpt><trkpt lat="44.09488440280934" lon="7.888311027174749"><ele>945.0</ele><time>2026-05-03T09:08:14Z</time></trkpt><trkpt lat="44.094923992304665" lon="7.888182712904842"><ele>948.6666666666666</ele><time>2026-05-03T09:08:15Z</time></trkpt><trkpt lat="44.094959417889044" lon="7.888069004282769"><ele>952.3333333333333</ele><time>2026-05-03T09:08:16Z</time></trkpt><trkpt lat="44.09498579642598" lon="7.887951132670747"><ele>956.0</ele><time>2026-05-03T09:08:17Z</time></trkpt><trkpt lat="44.09500288738701" lon="7.887836625246106"><ele>959.6666666666666</ele><time>2026-05-03T09:08:18Z</time></trkpt><trkpt lat="44.09502141432809" lon="7.887748421667143"><ele>963.3333333333333</ele><time>2026-05-03T09:08:19Z</time></trkpt><trkpt lat="44.09506411454791" lon="7.887666539936327"><ele>967.0</ele><time>2026-05-03T09:08:20Z</time></trkpt><trkpt lat="44.09512964150472" lon="7.887609224625352"><ele>966.9999999999999</ele><time>2026-05-03T09:08:21Z</time></trkpt><trkpt lat="44.09521125560423" lon="7.8875840836098785"><ele>967.0</ele><time>2026-05-03T09:08:22Z</time></trkpt><trkpt lat="44.095309611118005" lon="7.887576277981725"><ele>967.0</ele><time>2026-05-03T09:08:23Z</time></trkpt><trkpt lat="44.09539034866221" lon="7.887554638537341"><ele>967.0</ele><time>2026-05-03T09:08:24Z</time></trkpt><trkpt lat="44.0954686757291" lon="7.887571382522937"><ele>966.9999999999999</ele><time>2026-05-03T09:08:25Z</time></trkpt><trkpt lat="44.09554732752828" lon="7.887616471419274"><ele>967.0</ele><time>2026-05-03T09:08:26Z</time></trkpt><trkpt lat="44.095622655825004" lon="7.887637937702786"><ele>966.9999999999999</ele><time>2026-05-03T09:08:27Z</time></trkpt><trkpt lat="44.09569834307479" lon="7.887626539957193"><ele>967.0</ele><time>2026-05-03T09:08:28Z</time></trkpt><trkpt lat="44.09577139622015" lon="7.887589455738983"><ele>967.0</ele><time>2026-05-03T09:08:29Z</time></trkpt><trkpt lat="44.09585690433362" lon="7.8875325608416915"><ele>967.0</ele><time>2026-05-03T09:08:30Z</time></trkpt><trkpt lat="44.09592506936983" lon="7.887460026434231"><ele>966.9999999999999</ele><time>2026-05-03T09:08:31Z</time></trkpt><trkpt lat="44.095993437322896" lon="7.887373911279765"><ele>967.0</ele><time>2026-05-03T09:08:32Z</time></trkpt><trkpt lat="44.09605976779825" lon="7.887294940631981"><ele>970.6</ele><time>2026-05-03T09:08:33Z</time></trkpt><trkpt lat="44.09610835334537" lon="7.887181162955853"><ele>974.2</ele><time>2026-05-03T09:08:34Z</time></trkpt><trkpt lat="44.096164928762086" lon="7.887069341886507"><ele>977.8</ele><time>2026-05-03T09:08:35Z</time></trkpt><trkpt lat="44.096217698824915" lon="7.886952301159681"><ele>981.4</ele><time>2026-05-03T09:08:36Z</time></trkpt><trkpt lat="44.09626254701153" lon="7.886852478041432"><ele>985.0</ele><time>2026-05-03T09:08:37Z</time></trkpt><trkpt lat="44.09630291953075" lon="7.886768141451834"><ele>986.3333333333333</ele><time>2026-05-03T09:08:38Z</time></trkpt><trkpt lat="44.09636052056271" lon="7.886696358774978"><ele>987.6666666666666</ele><time>2026-05-03T09:08:39Z</time></trkpt><trkpt lat="44.09644432775194" lon="7.886668218080194"><ele>989.0</ele><time>2026-05-03T09:08:40Z</time></trkpt><trkpt lat="44.09652391238459" lon="7.886659522088031"><ele>990.3333333333333</ele><time>2026-05-03T09:08:41Z</time></trkpt><trkpt lat="44.09660568541245" lon="7.886665760377546"><ele>991.6666666666666</ele><time>2026-05-03T09:08:42Z</time></trkpt><trkpt lat="44.09668063478847" lon="7.886706230214878"><ele>993.0</ele><time>2026-05-03T09:08:43Z</time></trkpt><trkpt lat="44.09672672224101" lon="7.886787399819813"><ele>993.0</ele><time>2026-05-03T09:08:44Z</time></trkpt><trkpt lat="44.096751807475925" lon="7.886889103006777"><ele>993.0</ele><time>2026-05-03T09:08:45Z</time></trkpt><trkpt lat="44.096753194288674" lon="7.887001940819238"><ele>993.0</ele><time>2026-05-03T09:08:46Z</time></trkpt><trkpt lat="44.096792644373345" lon="7.887182790112796"><ele>993.0</ele><time>2026-05-03T09:08:48Z</time></trkpt><trkpt lat="44.09685145377063" lon="7.887279100920796"><ele>993.0</ele><time>2026-05-03T09:08:49Z</time></trkpt><trkpt lat="44.096935657380314" lon="7.887324217152909"><ele>993.0</ele><time>2026-05-03T09:08:50Z</time></trkpt><trkpt lat="44.09703559083766" lon="7.887338270877447"><ele>993.0</ele><time>2026-05-03T09:08:51Z</time></trkpt><trkpt lat="44.09712955860458" lon="7.887337170827198"><ele>993.0</ele><time>2026-05-03T09:08:52Z</time></trkpt><trkpt lat="44.09720870087869" lon="7.887299217818842"><ele>993.0</ele><time>2026-05-03T09:08:53Z</time></trkpt><trkpt lat="44.09727788688909" lon="7.887222088432622"><ele>993.0</ele><time>2026-05-03T09:08:54Z</time></trkpt><trkpt lat="44.09734503157784" lon="7.8871346291940165"><ele>993.0</ele><time>2026-05-03T09:08:55Z</time></trkpt><trkpt lat="44.09740940955172" lon="7.887017412688823"><ele>993.0</ele><time>2026-05-03T09:08:56Z</time></trkpt><trkpt lat="44.09745621296587" lon="7.886899187083974"><ele>993.0</ele><time>2026-05-03T09:08:57Z</time></trkpt><trkpt lat="44.097503234703616" lon="7.886804500846742"><ele>993.0</ele><time>2026-05-03T09:08:58Z</time></trkpt><trkpt lat="44.0975614669711" lon="7.8867567593094625"><ele>993.0</ele><time>2026-05-03T09:08:59Z</time></trkpt><trkpt lat="44.097689022170755" lon="7.886762359866418"><ele>994.8</ele><time>2026-05-03T09:09:01Z</time></trkpt><trkpt lat="44.09775221290472" lon="7.886821304252461"><ele>996.5999999999999</ele><time>2026-05-03T09:09:02Z</time></trkpt><trkpt lat="44.097810872325255" lon="7.886914320804768"><ele>998.4000000000001</ele><time>2026-05-03T09:09:03Z</time></trkpt><trkpt lat="44.097870559338965" lon="7.887014687292224"><ele>1000.2</ele><time>2026-05-03T09:09:04Z</time></trkpt><trkpt lat="44.09794408538925" lon="7.887110541587154"><ele>1002.0</ele><time>2026-05-03T09:09:05Z</time></trkpt><trkpt lat="44.098027321022755" lon="7.887188590612541"><ele>1002.0</ele><time>2026-05-03T09:09:06Z</time></trkpt><trkpt lat="44.098114515865014" lon="7.887260067292105"><ele>1002.0</ele><time>2026-05-03T09:09:07Z</time></trkpt><trkpt lat="44.09821541043426" lon="7.887310946919773"><ele>1002.0</ele><time>2026-05-03T09:09:08Z</time></trkpt><trkpt lat="44.09832136534162" lon="7.887350038250266"><ele>1002.0</ele><time>2026-05-03T09:09:09Z</time></trkpt><trkpt lat="44.09841341145372" lon="7.8874106843480485"><ele>1002.0</ele><time>2026-05-03T09:09:10Z</time></trkpt><trkpt lat="44.09850415335651" lon="7.887495082517234"><ele>1003.2</ele><time>2026-05-03T09:09:11Z</time></trkpt><trkpt lat="44.09858194577226" lon="7.887608863243352"><ele>1004.4000000000001</ele><time>2026-05-03T09:09:12Z</time></trkpt><trkpt lat="44.09864793834995" lon="7.8877102648199715"><ele>1005.5999999999999</ele><time>2026-05-03T09:09:13Z</time></trkpt><trkpt lat="44.098704399256775" lon="7.887798592780391"><ele>1006.8</ele><time>2026-05-03T09:09:14Z</time></trkpt><trkpt lat="44.098771676611335" lon="7.887893059050782"><ele>1008.0</ele><time>2026-05-03T09:09:15Z</time></trkpt><trkpt lat="44.098862211874376" lon="7.887975088684506"><ele>1008.0</ele><time>2026-05-03T09:09:16Z</time></trkpt><trkpt lat="44.09895843682728" lon="7.888033477435332"><ele>1008.0</ele><time>2026-05-03T09:09:17Z</time></trkpt><trkpt lat="44.09906436608706" lon="7.888040747186047"><ele>1008.0</ele><time>2026-05-03T09:09:18Z</time></trkpt><trkpt lat="44.09917139115839" lon="7.888014529943621"><ele>1008.0</ele><time>2026-05-03T09:09:19Z</time></trkpt><trkpt lat="44.099295745230854" lon="7.888015734161541"><ele>1008.0</ele><time>2026-05-03T09:09:20Z</time></trkpt><trkpt lat="44.09942084163957" lon="7.887966928131416"><ele>1010.0</ele><time>2026-05-03T09:09:21Z</time></trkpt><trkpt lat="44.09953396701618" lon="7.887885667221585"><ele>1012.0</ele><time>2026-05-03T09:09:22Z</time></trkpt><trkpt lat="44.09964418275122" lon="7.887800025125245"><ele>1014.0</ele><time>2026-05-03T09:09:23Z</time></trkpt><trkpt lat="44.09974523104087" lon="7.88771564782543"><ele>1016.0</ele><time>2026-05-03T09:09:24Z</time></trkpt><trkpt lat="44.09983965582113" lon="7.887663428022204"><ele>1016.0000000000001</ele><time>2026-05-03T09:09:25Z</time></trkpt><trkpt lat="44.09991260578562" lon="7.887626984960935"><ele>1016.0</ele><time>2026-05-03T09:09:26Z</time></trkpt><trkpt lat="44.0999954204272" lon="7.887625441558746"><ele>1016.0</ele><time>2026-05-03T09:09:27Z</time></trkpt><trkpt lat="44.10008356998114" lon="7.887648604356935"><ele>1016.0</ele><time>2026-05-03T09:09:28Z</time></trkpt><trkpt lat="44.100161687833705" lon="7.887703458509722"><ele>1016.0000000000001</ele><time>2026-05-03T09:09:29Z</time></trkpt><trkpt lat="44.10023267268839" lon="7.887774191179933"><ele>1016.0</ele><time>2026-05-03T09:09:30Z</time></trkpt><trkpt lat="44.10028072202973" lon="7.887860542486636"><ele>1017.5000000000001</ele><time>2026-05-03T09:09:31Z</time></trkpt><trkpt lat="44.100308772853516" lon="7.8879656737722"><ele>1019.0</ele><time>2026-05-03T09:09:32Z</time></trkpt><trkpt lat="44.10031590929036" lon="7.888083181738505"><ele>1020.5</ele><time>2026-05-03T09:09:33Z</time></trkpt><trkpt lat="44.10030064512469" lon="7.888223765438904"><ele>1022.0</ele><time>2026-05-03T09:09:34Z</time></trkpt><trkpt lat="44.100278015129255" lon="7.888333426287619"><ele>1023.5000000000001</ele><time>2026-05-03T09:09:35Z</time></trkpt><trkpt lat="44.100289809601975" lon="7.888466322460774"><ele>1025.0</ele><time>2026-05-03T09:09:36Z</time></trkpt><trkpt lat="44.10031684197907" lon="7.888606674406239"><ele>1025.0</ele><time>2026-05-03T09:09:37Z</time></trkpt><trkpt lat="44.10034543978806" lon="7.888751576833075"><ele>1025.0</ele><time>2026-05-03T09:09:38Z</time></trkpt><trkpt lat="44.10037095881662" lon="7.888860069403638"><ele>1025.0</ele><time>2026-05-03T09:09:39Z</time></trkpt><trkpt lat="44.10042049288819" lon="7.888929950140597"><ele>1025.0</ele><time>2026-05-03T09:09:40Z</time></trkpt><trkpt lat="44.100487550458205" lon="7.888963199652994"><ele>1025.0</ele><time>2026-05-03T09:09:41Z</time></trkpt><trkpt lat="44.1005582512129" lon="7.888941223799821"><ele>1025.0</ele><time>2026-05-03T09:09:42Z</time></trkpt><trkpt lat="44.100613510571264" lon="7.888869463368377"><ele>1025.0</ele><time>2026-05-03T09:09:43Z</time></trkpt><trkpt lat="44.10067704032978" lon="7.888688657260655"><ele>1025.0</ele><time>2026-05-03T09:09:45Z</time></trkpt><trkpt lat="44.10064240285048" lon="7.8885738718047556"><ele>1025.0</ele><time>2026-05-03T09:09:46Z</time></trkpt><trkpt lat="44.100626478896" lon="7.88844720841813"><ele>1025.0</ele><time>2026-05-03T09:09:47Z</time></trkpt><trkpt lat="44.10063310431948" lon="7.888300919965046"><ele>1025.0</ele><time>2026-05-03T09:09:48Z</time></trkpt><trkpt lat="44.100643333185864" lon="7.8881728211475055"><ele>1026.0</ele><time>2026-05-03T09:09:49Z</time></trkpt><trkpt lat="44.1006693568653" lon="7.888050730431507"><ele>1027.0</ele><time>2026-05-03T09:09:50Z</time></trkpt><trkpt lat="44.10066097269001" lon="7.887912780781922"><ele>1028.0</ele><time>2026-05-03T09:09:51Z</time></trkpt><trkpt lat="44.10064947256582" lon="7.887805001670648"><ele>1029.0</ele><time>2026-05-03T09:09:52Z</time></trkpt><trkpt lat="44.10060305641164" lon="7.887678989340055"><ele>1030.0</ele><time>2026-05-03T09:09:53Z</time></trkpt><trkpt lat="44.100543959899994" lon="7.88756102079461"><ele>1032.6</ele><time>2026-05-03T09:09:54Z</time></trkpt><trkpt lat="44.100497613387745" lon="7.887417987753711"><ele>1035.2</ele><time>2026-05-03T09:09:55Z</time></trkpt><trkpt lat="44.10045626346898" lon="7.887282978936158"><ele>1037.8</ele><time>2026-05-03T09:09:56Z</time></trkpt><trkpt lat="44.10041909503948" lon="7.887160808547412"><ele>1040.4</ele><time>2026-05-03T09:09:57Z</time></trkpt><trkpt lat="44.10037478660716" lon="7.887058703657291"><ele>1043.0</ele><time>2026-05-03T09:09:58Z</time></trkpt><trkpt lat="44.1003081432938" lon="7.886974626309624"><ele>1043.0</ele><time>2026-05-03T09:09:59Z</time></trkpt><trkpt lat="44.100236487413675" lon="7.886929057457967"><ele>1043.0</ele><time>2026-05-03T09:10:00Z</time></trkpt><trkpt lat="44.100175412144615" lon="7.886904631218005"><ele>1043.0</ele><time>2026-05-03T09:10:01Z</time></trkpt><trkpt lat="44.10007817993133" lon="7.886893958035941"><ele>1043.0</ele><time>2026-05-03T09:10:03Z</time></trkpt><trkpt lat="44.09994498210648" lon="7.88687358459392"><ele>1043.0</ele><time>2026-05-03T09:10:05Z</time></trkpt><trkpt lat="44.099865183392" lon="7.886827182737637"><ele>1043.6666666666667</ele><time>2026-05-03T09:10:06Z</time></trkpt><trkpt lat="44.09977362790747" lon="7.886789506996641"><ele>1044.3333333333335</ele><time>2026-05-03T09:10:07Z</time></trkpt><trkpt lat="44.09969575431164" lon="7.886754384722595"><ele>1045.0</ele><time>2026-05-03T09:10:08Z</time></trkpt><trkpt lat="44.09961552140294" lon="7.8867097326241815"><ele>1045.6666666666667</ele><time>2026-05-03T09:10:09Z</time></trkpt><trkpt lat="44.09953657927323" lon="7.886656341321318"><ele>1046.3333333333333</ele><time>2026-05-03T09:10:10Z</time></trkpt><trkpt lat="44.09945444273673" lon="7.8865938001639"><ele>1047.0</ele><time>2026-05-03T09:10:11Z</time></trkpt><trkpt lat="44.09935670486971" lon="7.886528547393622"><ele>1047.0</ele><time>2026-05-03T09:10:12Z</time></trkpt><trkpt lat="44.09928458335482" lon="7.886461011777247"><ele>1047.0</ele><time>2026-05-03T09:10:13Z</time></trkpt><trkpt lat="44.099225990201354" lon="7.886392835204427"><ele>1047.0</ele><time>2026-05-03T09:10:14Z</time></trkpt><trkpt lat="44.09916039557163" lon="7.886333917977252"><ele>1047.0</ele><time>2026-05-03T09:10:15Z</time></trkpt><trkpt lat="44.09909304199651" lon="7.886260984361976"><ele>1047.0</ele><time>2026-05-03T09:10:16Z</time></trkpt><trkpt lat="44.09902081547406" lon="7.886196748413076"><ele>1047.0</ele><time>2026-05-03T09:10:17Z</time></trkpt><trkpt lat="44.09895222538983" lon="7.886128832565573"><ele>1047.0</ele><time>2026-05-03T09:10:18Z</time></trkpt><trkpt lat="44.09887843271806" lon="7.88605470095214"><ele>1047.0</ele><time>2026-05-03T09:10:19Z</time></trkpt><trkpt lat="44.09881604312282" lon="7.885984714777071"><ele>1047.0</ele><time>2026-05-03T09:10:20Z</time></trkpt><trkpt lat="44.098749040240556" lon="7.885884894274598"><ele>1047.0</ele><time>2026-05-03T09:10:21Z</time></trkpt><trkpt lat="44.098717748436044" lon="7.885783911195797"><ele>1047.0</ele><time>2026-05-03T09:10:22Z</time></trkpt><trkpt lat="44.098674709171405" lon="7.885691541632793"><ele>1047.0</ele><time>2026-05-03T09:10:23Z</time></trkpt><trkpt lat="44.0986324463987" lon="7.885596618411666"><ele>1047.0</ele><time>2026-05-03T09:10:24Z</time></trkpt><trkpt lat="44.09859111441413" lon="7.885503785752295"><ele>1047.0</ele><time>2026-05-03T09:10:25Z</time></trkpt><trkpt lat="44.098545193271306" lon="7.885390978709823"><ele>1047.0</ele><time>2026-05-03T09:10:26Z</time></trkpt><trkpt lat="44.09849979141566" lon="7.885275335159511"><ele>1047.0</ele><time>2026-05-03T09:10:27Z</time></trkpt><trkpt lat="44.098472267812866" lon="7.885193240057109"><ele>1047.0</ele><time>2026-05-03T09:10:28Z</time></trkpt><trkpt lat="44.09840229614899" lon="7.885082501848857"><ele>1047.0</ele><time>2026-05-03T09:10:29Z</time></trkpt><trkpt lat="44.098314885734446" lon="7.885018026248454"><ele>1047.0</ele><time>2026-05-03T09:10:30Z</time></trkpt><trkpt lat="44.09823296456711" lon="7.8849498388563575"><ele>1047.0</ele><time>2026-05-03T09:10:32Z</time></trkpt><trkpt lat="44.0981584469949" lon="7.884901233845773"><ele>1047.0</ele><time>2026-05-03T09:10:35Z</time></trkpt><trkpt lat="44.098146015923305" lon="7.885011820035718"><ele>1047.0</ele><time>2026-05-03T09:10:42Z</time></trkpt><trkpt lat="44.09823159150499" lon="7.885029446368468"><ele>1047.0</ele><time>2026-05-03T09:13:04Z</time></trkpt><trkpt lat="44.09830587507017" lon="7.885055197564089"><ele>1047.0</ele><time>2026-05-03T09:13:06Z</time></trkpt><trkpt lat="44.098415670764915" lon="7.885152813843105"><ele>1047.0</ele><time>2026-05-03T09:13:08Z</time></trkpt><trkpt lat="44.09847347839564" lon="7.885218708251997"><ele>1047.0</ele><time>2026-05-03T09:13:09Z</time></trkpt><trkpt lat="44.098476372475396" lon="7.885349003312768"><ele>1047.0</ele><time>2026-05-03T09:13:10Z</time></trkpt><trkpt lat="44.09852659822863" lon="7.885456177062669"><ele>1047.0</ele><time>2026-05-03T09:13:11Z</time></trkpt><trkpt lat="44.09859099916955" lon="7.885555671330577"><ele>1047.0</ele><time>2026-05-03T09:13:12Z</time></trkpt><trkpt lat="44.09861901578699" lon="7.885691220223718"><ele>1047.0</ele><time>2026-05-03T09:13:13Z</time></trkpt><trkpt lat="44.0986542182637" lon="7.8857994555398685"><ele>1047.0</ele><time>2026-05-03T09:13:14Z</time></trkpt><trkpt lat="44.098727343334815" lon="7.885910822008283"><ele>1047.0</ele><time>2026-05-03T09:13:15Z</time></trkpt><trkpt lat="44.098811455515765" lon="7.8860112841219"><ele>1047.0</ele><time>2026-05-03T09:13:16Z</time></trkpt><trkpt lat="44.09889697667652" lon="7.886112278751408"><ele>1047.0</ele><time>2026-05-03T09:13:17Z</time></trkpt><trkpt lat="44.09899072036374" lon="7.886216560243712"><ele>1047.0</ele><time>2026-05-03T09:13:18Z</time></trkpt><trkpt lat="44.0990820293806" lon="7.886307453242183"><ele>1047.0</ele><time>2026-05-03T09:13:19Z</time></trkpt><trkpt lat="44.099168304292846" lon="7.886389938940838"><ele>1047.0</ele><time>2026-05-03T09:13:20Z</time></trkpt><trkpt lat="44.09924669281549" lon="7.886471191333604"><ele>1047.0</ele><time>2026-05-03T09:13:21Z</time></trkpt><trkpt lat="44.09931694899255" lon="7.886542593776833"><ele>1047.0</ele><time>2026-05-03T09:13:22Z</time></trkpt><trkpt lat="44.09937875076155" lon="7.886606181111117"><ele>1047.0</ele><time>2026-05-03T09:13:23Z</time></trkpt><trkpt lat="44.09943793139912" lon="7.886660347787187"><ele>1047.0</ele><time>2026-05-03T09:13:24Z</time></trkpt><trkpt lat="44.09951322666072" lon="7.886695573060293"><ele>1047.0</ele><time>2026-05-03T09:13:25Z</time></trkpt><trkpt lat="44.09959244022889" lon="7.88674602863342"><ele>1047.0</ele><time>2026-05-03T09:13:26Z</time></trkpt><trkpt lat="44.099686735557555" lon="7.88679889021691"><ele>1047.0</ele><time>2026-05-03T09:13:27Z</time></trkpt><trkpt lat="44.09978060724728" lon="7.886840708443082"><ele>1047.0</ele><time>2026-05-03T09:13:28Z</time></trkpt><trkpt lat="44.099863979691136" lon="7.886874876875244"><ele>1046.2</ele><time>2026-05-03T09:13:29Z</time></trkpt><trkpt lat="44.099952944676005" lon="7.886909708131682"><ele>1045.4</ele><time>2026-05-03T09:13:30Z</time></trkpt><trkpt lat="44.10003837297497" lon="7.886933930432309"><ele>1044.6</ele><time>2026-05-03T09:13:31Z</time></trkpt><trkpt lat="44.10014086787292" lon="7.8868494951451344"><ele>1043.8</ele><time>2026-05-03T09:13:32Z</time></trkpt><trkpt lat="44.100232171393934" lon="7.8868537557501295"><ele>1043.0</ele><time>2026-05-03T09:13:33Z</time></trkpt><trkpt lat="44.100315546844065" lon="7.886849444837023"><ele>1043.0</ele><time>2026-05-03T09:13:34Z</time></trkpt><trkpt lat="44.10037938979485" lon="7.886861524523528"><ele>1043.0</ele><time>2026-05-03T09:13:35Z</time></trkpt><trkpt lat="44.100475389533436" lon="7.886923074479538"><ele>1043.0</ele><time>2026-05-03T09:13:37Z</time></trkpt><trkpt lat="44.10049215792781" lon="7.887015293405564"><ele>1043.0</ele><time>2026-05-03T09:13:38Z</time></trkpt><trkpt lat="44.100571858614565" lon="7.8871612874560695"><ele>1043.0</ele><time>2026-05-03T09:13:40Z</time></trkpt><trkpt lat="44.10062526831483" lon="7.887256649464226"><ele>1043.0</ele><time>2026-05-03T09:13:41Z</time></trkpt><trkpt lat="44.10068000913046" lon="7.8873648979502615"><ele>1043.0</ele><time>2026-05-03T09:13:42Z</time></trkpt><trkpt lat="44.10072703438741" lon="7.887458218416554"><ele>1043.0</ele><time>2026-05-03T09:13:43Z</time></trkpt><trkpt lat="44.10077764612858" lon="7.887539495290827"><ele>1043.0</ele><time>2026-05-03T09:13:44Z</time></trkpt><trkpt lat="44.100837292010354" lon="7.887609553022745"><ele>1043.0</ele><time>2026-05-03T09:13:45Z</time></trkpt><trkpt lat="44.10088926699721" lon="7.887691449139359"><ele>1043.0</ele><time>2026-05-03T09:13:46Z</time></trkpt><trkpt lat="44.10094035738893" lon="7.887760193799806"><ele>1044.6666666666667</ele><time>2026-05-03T09:13:47Z</time></trkpt><trkpt lat="44.10100111651132" lon="7.887824686366219"><ele>1046.3333333333335</ele><time>2026-05-03T09:13:48Z</time></trkpt><trkpt lat="44.10104033879792" lon="7.887941942525293"><ele>1048.0</ele><time>2026-05-03T09:13:49Z</time></trkpt><trkpt lat="44.10110215459448" lon="7.888018710454868"><ele>1049.6666666666667</ele><time>2026-05-03T09:13:50Z</time></trkpt><trkpt lat="44.10115565245261" lon="7.888101010511845"><ele>1051.3333333333333</ele><time>2026-05-03T09:13:51Z</time></trkpt><trkpt lat="44.10120399920461" lon="7.888165647572956"><ele>1053.0</ele><time>2026-05-03T09:13:52Z</time></trkpt><trkpt lat="44.10126490469013" lon="7.888218734084252"><ele>1053.0</ele><time>2026-05-03T09:13:53Z</time></trkpt><trkpt lat="44.10133881972712" lon="7.888278405715966"><ele>1053.0</ele><time>2026-05-03T09:13:54Z</time></trkpt><trkpt lat="44.10141531528758" lon="7.888332688376853"><ele>1053.0</ele><time>2026-05-03T09:13:55Z</time></trkpt><trkpt lat="44.10149139194576" lon="7.888362112866656"><ele>1053.0</ele><time>2026-05-03T09:13:56Z</time></trkpt><trkpt lat="44.10154715274829" lon="7.888422560987279"><ele>1053.0</ele><time>2026-05-03T09:13:57Z</time></trkpt><trkpt lat="44.10161530274595" lon="7.888410333879798"><ele>1053.0</ele><time>2026-05-03T09:13:58Z</time></trkpt><trkpt lat="44.10168574698798" lon="7.888363393181721"><ele>1055.8333333333333</ele><time>2026-05-03T09:13:59Z</time></trkpt><trkpt lat="44.101734330503106" lon="7.888451668148993"><ele>1058.6666666666667</ele><time>2026-05-03T09:14:02Z</time></trkpt><trkpt lat="44.1017187800214" lon="7.888548905501207"><ele>1061.5</ele><time>2026-05-03T09:14:03Z</time></trkpt><trkpt lat="44.10174475441781" lon="7.888678241562061"><ele>1064.3333333333335</ele><time>2026-05-03T09:14:05Z</time></trkpt><trkpt lat="44.101808604830666" lon="7.88880241816124"><ele>1067.1666666666667</ele><time>2026-05-03T09:14:07Z</time></trkpt><trkpt lat="44.101825464743676" lon="7.888888133947032"><ele>1070.0</ele><time>2026-05-03T09:14:08Z</time></trkpt><trkpt lat="44.10189519886452" lon="7.8889288397761925"><ele>1070.0</ele><time>2026-05-03T09:14:09Z</time></trkpt><trkpt lat="44.10196465465779" lon="7.8889651914506596"><ele>1070.0</ele><time>2026-05-03T09:14:10Z</time></trkpt><trkpt lat="44.10207782491075" lon="7.889088631513986"><ele>1070.0</ele><time>2026-05-03T09:14:12Z</time></trkpt><trkpt lat="44.10213626277144" lon="7.889150323810421"><ele>1070.0</ele><time>2026-05-03T09:14:13Z</time></trkpt><trkpt lat="44.10218548354759" lon="7.889287316496275"><ele>1070.0</ele><time>2026-05-03T09:14:15Z</time></trkpt><trkpt lat="44.102215456578826" lon="7.889401573417773"><ele>1069.8</ele><time>2026-05-03T09:14:16Z</time></trkpt><trkpt lat="44.102245019515976" lon="7.889511488709628"><ele>1069.6</ele><time>2026-05-03T09:14:17Z</time></trkpt><trkpt lat="44.10229787229" lon="7.8896180640807545"><ele>1069.4</ele><time>2026-05-03T09:14:18Z</time></trkpt><trkpt lat="44.10237169450059" lon="7.889677898489621"><ele>1069.2</ele><time>2026-05-03T09:14:19Z</time></trkpt><trkpt lat="44.10244224079579" lon="7.889760949896887"><ele>1069.0</ele><time>2026-05-03T09:14:20Z</time></trkpt><trkpt lat="44.10252222177348" lon="7.889833470048583"><ele>1071.0</ele><time>2026-05-03T09:14:21Z</time></trkpt><trkpt lat="44.102610648560116" lon="7.889894191842826"><ele>1073.0</ele><time>2026-05-03T09:14:22Z</time></trkpt><trkpt lat="44.10271460272335" lon="7.889883184002467"><ele>1075.0</ele><time>2026-05-03T09:14:23Z</time></trkpt><trkpt lat="44.102791582056376" lon="7.8899167998011785"><ele>1077.0</ele><time>2026-05-03T09:14:24Z</time></trkpt><trkpt lat="44.10284719042252" lon="7.8900516201962905"><ele>1079.0</ele><time>2026-05-03T09:14:26Z</time></trkpt><trkpt lat="44.10283690834407" lon="7.890152591681926"><ele>1079.0</ele><time>2026-05-03T09:14:27Z</time></trkpt><trkpt lat="44.10282849647054" lon="7.890261348894828"><ele>1079.0</ele><time>2026-05-03T09:14:28Z</time></trkpt><trkpt lat="44.102865373949996" lon="7.890337320767848"><ele>1079.0</ele><time>2026-05-03T09:14:29Z</time></trkpt><trkpt lat="44.10285883322467" lon="7.890486276106931"><ele>1079.0</ele><time>2026-05-03T09:14:30Z</time></trkpt><trkpt lat="44.10290888978243" lon="7.890591195299213"><ele>1079.0</ele><time>2026-05-03T09:14:31Z</time></trkpt><trkpt lat="44.102953829688005" lon="7.890681811879216"><ele>1079.0</ele><time>2026-05-03T09:14:32Z</time></trkpt><trkpt lat="44.103002368645065" lon="7.890779685565819"><ele>1079.0</ele><time>2026-05-03T09:14:33Z</time></trkpt><trkpt lat="44.103052119399635" lon="7.890880002727293"><ele>1079.0</ele><time>2026-05-03T09:14:34Z</time></trkpt><trkpt lat="44.103235905723054" lon="7.890835767219379"><ele>1079.0</ele><time>2026-05-03T09:14:35Z</time></trkpt><trkpt lat="44.10330272606952" lon="7.890899974152566"><ele>1079.0</ele><time>2026-05-03T09:14:36Z</time></trkpt><trkpt lat="44.10337578157193" lon="7.890929670107226"><ele>1079.0</ele><time>2026-05-03T09:14:37Z</time></trkpt><trkpt lat="44.1034610484818" lon="7.890942248583673"><ele>1079.4285714285716</ele><time>2026-05-03T09:14:38Z</time></trkpt><trkpt lat="44.10352472540258" lon="7.890997335202431"><ele>1079.857142857143</ele><time>2026-05-03T09:14:39Z</time></trkpt><trkpt lat="44.10359175634051" lon="7.8910350605030875"><ele>1080.2857142857142</ele><time>2026-05-03T09:14:40Z</time></trkpt><trkpt lat="44.103637261693216" lon="7.891102705973024"><ele>1080.7142857142858</ele><time>2026-05-03T09:14:41Z</time></trkpt><trkpt lat="44.103663406573524" lon="7.891193402837836"><ele>1081.142857142857</ele><time>2026-05-03T09:14:42Z</time></trkpt><trkpt lat="44.103668221111995" lon="7.8913110440616885"><ele>1081.5714285714287</ele><time>2026-05-03T09:14:43Z</time></trkpt><trkpt lat="44.10369416495772" lon="7.8913946053738595"><ele>1082.0</ele><time>2026-05-03T09:14:44Z</time></trkpt><trkpt lat="44.1037617966165" lon="7.891498089202061"><ele>1082.0</ele><time>2026-05-03T09:14:46Z</time></trkpt><trkpt lat="44.10371518763359" lon="7.8916891521929315"><ele>1082.0</ele><time>2026-05-03T09:14:48Z</time></trkpt><trkpt lat="44.10369273722042" lon="7.891814382703627"><ele>1082.0</ele><time>2026-05-03T09:14:49Z</time></trkpt><trkpt lat="44.103684555864284" lon="7.8919253073508635"><ele>1082.0</ele><time>2026-05-03T09:14:50Z</time></trkpt><trkpt lat="44.10369474626606" lon="7.892028508410242"><ele>1082.0</ele><time>2026-05-03T09:14:51Z</time></trkpt><trkpt lat="44.103710692859124" lon="7.892160304736978"><ele>1079.4</ele><time>2026-05-03T09:14:52Z</time></trkpt><trkpt lat="44.103723138638045" lon="7.8922916228119835"><ele>1076.8000000000002</ele><time>2026-05-03T09:14:53Z</time></trkpt><trkpt lat="44.10374788371923" lon="7.892421180081536"><ele>1074.2</ele><time>2026-05-03T09:14:54Z</time></trkpt><trkpt lat="44.10377986856592" lon="7.892543923744997"><ele>1071.6000000000001</ele><time>2026-05-03T09:14:55Z</time></trkpt><trkpt lat="44.103826974133696" lon="7.8926755633128955"><ele>1069.0</ele><time>2026-05-03T09:14:56Z</time></trkpt><trkpt lat="44.103884446174554" lon="7.8927986224615365"><ele>1067.5</ele><time>2026-05-03T09:14:57Z</time></trkpt><trkpt lat="44.10392689641161" lon="7.892928064902409"><ele>1066.0</ele><time>2026-05-03T09:14:58Z</time></trkpt><trkpt lat="44.10395690287515" lon="7.893040705539791"><ele>1064.5</ele><time>2026-05-03T09:14:59Z</time></trkpt><trkpt lat="44.10398564214266" lon="7.893135293064455"><ele>1063.0</ele><time>2026-05-03T09:15:00Z</time></trkpt><trkpt lat="44.103995802404214" lon="7.893230004374431"><ele>1061.5</ele><time>2026-05-03T09:15:01Z</time></trkpt><trkpt lat="44.10397586963361" lon="7.893318374907088"><ele>1060.0</ele><time>2026-05-03T09:15:02Z</time></trkpt><trkpt lat="44.10393102986902" lon="7.893414302368177"><ele>1060.4</ele><time>2026-05-03T09:15:03Z</time></trkpt><trkpt lat="44.103884818785396" lon="7.893538455100168"><ele>1060.8</ele><time>2026-05-03T09:15:04Z</time></trkpt><trkpt lat="44.10385390825744" lon="7.893656631942537"><ele>1061.2</ele><time>2026-05-03T09:15:05Z</time></trkpt><trkpt lat="44.10384014902151" lon="7.893777267933482"><ele>1061.6</ele><time>2026-05-03T09:15:06Z</time></trkpt><trkpt lat="44.10383711488068" lon="7.893928192758555"><ele>1062.0</ele><time>2026-05-03T09:15:07Z</time></trkpt><trkpt lat="44.103830443057454" lon="7.894089767817566"><ele>1062.0</ele><time>2026-05-03T09:15:08Z</time></trkpt><trkpt lat="44.103832505614065" lon="7.894236716925459"><ele>1062.0</ele><time>2026-05-03T09:15:09Z</time></trkpt><trkpt lat="44.10383904327667" lon="7.894364409326975"><ele>1062.0</ele><time>2026-05-03T09:15:10Z</time></trkpt><trkpt lat="44.1038494751659" lon="7.894500951930509"><ele>1062.0</ele><time>2026-05-03T09:15:11Z</time></trkpt><trkpt lat="44.103868354831505" lon="7.894626439287539"><ele>1062.0</ele><time>2026-05-03T09:15:12Z</time></trkpt><trkpt lat="44.103889549161494" lon="7.894760717200707"><ele>1061.8</ele><time>2026-05-03T09:15:13Z</time></trkpt><trkpt lat="44.10391425203642" lon="7.894905915087491"><ele>1061.6</ele><time>2026-05-03T09:15:14Z</time></trkpt><trkpt lat="44.10394862517803" lon="7.895051533924526"><ele>1061.3999999999999</ele><time>2026-05-03T09:15:15Z</time></trkpt><trkpt lat="44.10397798631469" lon="7.8951740330177875"><ele>1061.2</ele><time>2026-05-03T09:15:16Z</time></trkpt><trkpt lat="44.10400511954403" lon="7.89527863140973"><ele>1061.0</ele><time>2026-05-03T09:15:17Z</time></trkpt><trkpt lat="44.1040387363415" lon="7.895391586963578"><ele>1061.0</ele><time>2026-05-03T09:15:18Z</time></trkpt><trkpt lat="44.10406994939803" lon="7.895508770943494"><ele>1061.0</ele><time>2026-05-03T09:15:19Z</time></trkpt><trkpt lat="44.10409742778353" lon="7.89561945990755"><ele>1061.0</ele><time>2026-05-03T09:15:20Z</time></trkpt><trkpt lat="44.10412020212967" lon="7.895744235494849"><ele>1061.0</ele><time>2026-05-03T09:15:21Z</time></trkpt><trkpt lat="44.10413127059577" lon="7.895898919384415"><ele>1061.0</ele><time>2026-05-03T09:15:22Z</time></trkpt><trkpt lat="44.10414358628408" lon="7.896043157949915"><ele>1065.8</ele><time>2026-05-03T09:15:23Z</time></trkpt><trkpt lat="44.104163890736785" lon="7.896172603857157"><ele>1070.6</ele><time>2026-05-03T09:15:24Z</time></trkpt><trkpt lat="44.10418716797415" lon="7.896323609737205"><ele>1075.4</ele><time>2026-05-03T09:15:25Z</time></trkpt><trkpt lat="44.10421837076751" lon="7.896481741907833"><ele>1080.2</ele><time>2026-05-03T09:15:26Z</time></trkpt><trkpt lat="44.10424417541329" lon="7.896626521585739"><ele>1085.0</ele><time>2026-05-03T09:15:27Z</time></trkpt><trkpt lat="44.10427330627411" lon="7.8967588651261185"><ele>1085.0</ele><time>2026-05-03T09:15:28Z</time></trkpt><trkpt lat="44.10430340890874" lon="7.896894071527512"><ele>1085.0</ele><time>2026-05-03T09:15:29Z</time></trkpt><trkpt lat="44.10433327280305" lon="7.897024387611209"><ele>1085.0</ele><time>2026-05-03T09:15:30Z</time></trkpt><trkpt lat="44.10435722102568" lon="7.897134773502111"><ele>1085.0</ele><time>2026-05-03T09:15:31Z</time></trkpt><trkpt lat="44.104386514238506" lon="7.897235467699157"><ele>1085.0</ele><time>2026-05-03T09:15:32Z</time></trkpt><trkpt lat="44.104417920266066" lon="7.897334862697541"><ele>1085.0</ele><time>2026-05-03T09:15:33Z</time></trkpt><trkpt lat="44.104420773930904" lon="7.8974383085178514"><ele>1085.0</ele><time>2026-05-03T09:15:34Z</time></trkpt><trkpt lat="44.10441189982431" lon="7.897553515027288"><ele>1085.0</ele><time>2026-05-03T09:15:35Z</time></trkpt><trkpt lat="44.104434273253446" lon="7.89766252174388"><ele>1085.0</ele><time>2026-05-03T09:15:36Z</time></trkpt><trkpt lat="44.10446881444334" lon="7.897759779026606"><ele>1085.0</ele><time>2026-05-03T09:15:37Z</time></trkpt><trkpt lat="44.10451096263297" lon="7.897851300915322"><ele>1085.0</ele><time>2026-05-03T09:15:38Z</time></trkpt><trkpt lat="44.1045576669485" lon="7.897936436088163"><ele>1085.0</ele><time>2026-05-03T09:15:39Z</time></trkpt><trkpt lat="44.1046032840822" lon="7.898005984827945"><ele>1085.6666666666667</ele><time>2026-05-03T09:15:40Z</time></trkpt><trkpt lat="44.10466308306271" lon="7.898060746681865"><ele>1086.3333333333335</ele><time>2026-05-03T09:15:41Z</time></trkpt><trkpt lat="44.10473799935436" lon="7.898092398274094"><ele>1087.0</ele><time>2026-05-03T09:15:42Z</time></trkpt><trkpt lat="44.10481920054373" lon="7.898117179850703"><ele>1087.6666666666667</ele><time>2026-05-03T09:15:43Z</time></trkpt><trkpt lat="44.104905618251266" lon="7.898133496786223"><ele>1088.3333333333333</ele><time>2026-05-03T09:15:44Z</time></trkpt><trkpt lat="44.10499045917676" lon="7.898134033179651"><ele>1089.0</ele><time>2026-05-03T09:15:45Z</time></trkpt><trkpt lat="44.10507981490894" lon="7.898142027063211"><ele>1089.0</ele><time>2026-05-03T09:15:46Z</time></trkpt><trkpt lat="44.10515678155403" lon="7.898155441715521"><ele>1089.0</ele><time>2026-05-03T09:15:47Z</time></trkpt><trkpt lat="44.10522988576412" lon="7.898192455670943"><ele>1089.0</ele><time>2026-05-03T09:15:48Z</time></trkpt><trkpt lat="44.10529407569786" lon="7.898272105176635"><ele>1089.0</ele><time>2026-05-03T09:15:49Z</time></trkpt><trkpt lat="44.10536936918558" lon="7.8983745039719775"><ele>1089.0</ele><time>2026-05-03T09:15:50Z</time></trkpt><trkpt lat="44.105436344801596" lon="7.898472284815365"><ele>1089.0</ele><time>2026-05-03T09:15:51Z</time></trkpt><trkpt lat="44.10549229201191" lon="7.898543358980903"><ele>1085.6000000000001</ele><time>2026-05-03T09:15:52Z</time></trkpt><trkpt lat="44.105546663677636" lon="7.898588272002196"><ele>1082.2</ele><time>2026-05-03T09:15:53Z</time></trkpt><trkpt lat="44.10563761614339" lon="7.898703349226464"><ele>1078.8000000000002</ele><time>2026-05-03T09:15:55Z</time></trkpt><trkpt lat="44.1056688416336" lon="7.898798908489539"><ele>1075.4</ele><time>2026-05-03T09:15:56Z</time></trkpt><trkpt lat="44.10569335385847" lon="7.898927324283627"><ele>1072.0</ele><time>2026-05-03T09:15:57Z</time></trkpt><trkpt lat="44.10572031374528" lon="7.899070503878743"><ele>1077.6</ele><time>2026-05-03T09:15:58Z</time></trkpt><trkpt lat="44.1057471677123" lon="7.899214485967164"><ele>1083.2</ele><time>2026-05-03T09:15:59Z</time></trkpt><trkpt lat="44.105782123023936" lon="7.899354979804323"><ele>1088.8</ele><time>2026-05-03T09:16:00Z</time></trkpt><trkpt lat="44.10581886725804" lon="7.899484421753608"><ele>1094.4</ele><time>2026-05-03T09:16:01Z</time></trkpt><trkpt lat="44.105852680904626" lon="7.899598754231387"><ele>1100.0</ele><time>2026-05-03T09:16:02Z</time></trkpt><trkpt lat="44.10587494600974" lon="7.899713892259426"><ele>1100.6</ele><time>2026-05-03T09:16:03Z</time></trkpt><trkpt lat="44.10588016128712" lon="7.899838852734626"><ele>1101.2</ele><time>2026-05-03T09:16:04Z</time></trkpt><trkpt lat="44.10587242062502" lon="7.89998290177374"><ele>1101.8</ele><time>2026-05-03T09:16:05Z</time></trkpt><trkpt lat="44.10586136779916" lon="7.900124016301695"><ele>1102.4</ele><time>2026-05-03T09:16:06Z</time></trkpt><trkpt lat="44.10586442893425" lon="7.900262341823504"><ele>1103.0</ele><time>2026-05-03T09:16:07Z</time></trkpt><trkpt lat="44.105874728916504" lon="7.900389512424881"><ele>1103.0</ele><time>2026-05-03T09:16:08Z</time></trkpt><trkpt lat="44.10588627226251" lon="7.900489741517961"><ele>1103.0</ele><time>2026-05-03T09:16:09Z</time></trkpt><trkpt lat="44.10590861347798" lon="7.900585094056585"><ele>1103.0</ele><time>2026-05-03T09:16:10Z</time></trkpt><trkpt lat="44.105930034745064" lon="7.900702669253298"><ele>1103.0</ele><time>2026-05-03T09:16:11Z</time></trkpt><trkpt lat="44.105943739264106" lon="7.900821532105706"><ele>1103.0</ele><time>2026-05-03T09:16:12Z</time></trkpt><trkpt lat="44.105949423558485" lon="7.900947095315844"><ele>1103.0</ele><time>2026-05-03T09:16:13Z</time></trkpt><trkpt lat="44.10594833107442" lon="7.901087800327125"><ele>1102.8333333333335</ele><time>2026-05-03T09:16:14Z</time></trkpt><trkpt lat="44.10595744523869" lon="7.901227652566857"><ele>1102.6666666666667</ele><time>2026-05-03T09:16:15Z</time></trkpt><trkpt lat="44.105972064508315" lon="7.901349963270906"><ele>1102.5</ele><time>2026-05-03T09:16:16Z</time></trkpt><trkpt lat="44.10599140995006" lon="7.901456475143796"><ele>1102.3333333333333</ele><time>2026-05-03T09:16:17Z</time></trkpt><trkpt lat="44.10602594360178" lon="7.901556478562476"><ele>1102.1666666666665</ele><time>2026-05-03T09:16:18Z</time></trkpt><trkpt lat="44.10607049250322" lon="7.901646694756509"><ele>1102.0</ele><time>2026-05-03T09:16:19Z</time></trkpt><trkpt lat="44.106110204886136" lon="7.901744797303007"><ele>1099.0</ele><time>2026-05-03T09:16:20Z</time></trkpt><trkpt lat="44.106156646505525" lon="7.901854536141118"><ele>1096.0</ele><time>2026-05-03T09:16:21Z</time></trkpt><trkpt lat="44.10620690905887" lon="7.9019668159488505"><ele>1093.0</ele><time>2026-05-03T09:16:22Z</time></trkpt><trkpt lat="44.106257080901216" lon="7.902087800222062"><ele>1090.0</ele><time>2026-05-03T09:16:23Z</time></trkpt><trkpt lat="44.10631351929942" lon="7.902220871895187"><ele>1087.0</ele><time>2026-05-03T09:16:24Z</time></trkpt><trkpt lat="44.1063702400908" lon="7.902351633183523"><ele>1087.0</ele><time>2026-05-03T09:16:25Z</time></trkpt><trkpt lat="44.10641714100507" lon="7.902460378942424"><ele>1087.0</ele><time>2026-05-03T09:16:26Z</time></trkpt><trkpt lat="44.106464367352" lon="7.902570028045462"><ele>1087.0</ele><time>2026-05-03T09:16:27Z</time></trkpt><trkpt lat="44.10650987465381" lon="7.902699047527863"><ele>1087.0</ele><time>2026-05-03T09:16:28Z</time></trkpt><trkpt lat="44.10655080479937" lon="7.902836844991782"><ele>1087.0</ele><time>2026-05-03T09:16:29Z</time></trkpt><trkpt lat="44.10657790986821" lon="7.90297294191127"><ele>1095.6</ele><time>2026-05-03T09:16:30Z</time></trkpt><trkpt lat="44.10659695975103" lon="7.903096719697577"><ele>1104.2</ele><time>2026-05-03T09:16:31Z</time></trkpt><trkpt lat="44.10660659119151" lon="7.903218483737312"><ele>1112.8</ele><time>2026-05-03T09:16:32Z</time></trkpt><trkpt lat="44.10660414939445" lon="7.90334166154968"><ele>1121.4</ele><time>2026-05-03T09:16:33Z</time></trkpt><trkpt lat="44.106603558193534" lon="7.903472078336972"><ele>1130.0</ele><time>2026-05-03T09:16:34Z</time></trkpt><trkpt lat="44.1066051773878" lon="7.903611269117686"><ele>1130.2</ele><time>2026-05-03T09:16:35Z</time></trkpt><trkpt lat="44.106603511225316" lon="7.903740931964687"><ele>1130.4</ele><time>2026-05-03T09:16:36Z</time></trkpt><trkpt lat="44.10658959950736" lon="7.903872367712162"><ele>1130.6</ele><time>2026-05-03T09:16:37Z</time></trkpt><trkpt lat="44.106567560629784" lon="7.90398661706062"><ele>1130.8</ele><time>2026-05-03T09:16:38Z</time></trkpt><trkpt lat="44.10655758206079" lon="7.9040890436720765"><ele>1131.0</ele><time>2026-05-03T09:16:39Z</time></trkpt><trkpt lat="44.1065870998272" lon="7.904240330157018"><ele>1128.2</ele><time>2026-05-03T09:16:41Z</time></trkpt><trkpt lat="44.10667779283812" lon="7.904366100129283"><ele>1125.3999999999999</ele><time>2026-05-03T09:16:43Z</time></trkpt><trkpt lat="44.10675272660506" lon="7.9044353440019846"><ele>1122.6</ele><time>2026-05-03T09:16:44Z</time></trkpt><trkpt lat="44.10683467125547" lon="7.904498983347902"><ele>1119.8</ele><time>2026-05-03T09:16:45Z</time></trkpt><trkpt lat="44.10691360258612" lon="7.904548765987077"><ele>1117.0</ele><time>2026-05-03T09:16:46Z</time></trkpt><trkpt lat="44.106981968298335" lon="7.9046092062948965"><ele>1117.0</ele><time>2026-05-03T09:16:47Z</time></trkpt><trkpt lat="44.10704738563154" lon="7.9046847038832615"><ele>1117.0</ele><time>2026-05-03T09:16:48Z</time></trkpt><trkpt lat="44.10710944042284" lon="7.904794290757234"><ele>1117.0</ele><time>2026-05-03T09:16:49Z</time></trkpt><trkpt lat="44.10716246094366" lon="7.904898256989924"><ele>1117.0</ele><time>2026-05-03T09:16:50Z</time></trkpt><trkpt lat="44.10722705714346" lon="7.904986698224221"><ele>1117.0</ele><time>2026-05-03T09:16:51Z</time></trkpt><trkpt lat="44.10729718724709" lon="7.905056479629712"><ele>1119.5</ele><time>2026-05-03T09:16:52Z</time></trkpt><trkpt lat="44.10736705947959" lon="7.905126226732832"><ele>1122.0</ele><time>2026-05-03T09:16:53Z</time></trkpt><trkpt lat="44.10742557562064" lon="7.905215411207936"><ele>1124.5</ele><time>2026-05-03T09:16:54Z</time></trkpt><trkpt lat="44.10748304330682" lon="7.905322851695772"><ele>1127.0</ele><time>2026-05-03T09:16:55Z</time></trkpt><trkpt lat="44.10754821592965" lon="7.90541827675504"><ele>1129.5</ele><time>2026-05-03T09:16:56Z</time></trkpt><trkpt lat="44.10761095280972" lon="7.905488927350612"><ele>1132.0</ele><time>2026-05-03T09:16:57Z</time></trkpt><trkpt lat="44.10767341585833" lon="7.905541119289095"><ele>1132.0</ele><time>2026-05-03T09:16:58Z</time></trkpt><trkpt lat="44.10772303017059" lon="7.905626342531093"><ele>1132.0</ele><time>2026-05-03T09:16:59Z</time></trkpt><trkpt lat="44.10776579280331" lon="7.905742631063516"><ele>1132.0</ele><time>2026-05-03T09:17:00Z</time></trkpt><trkpt lat="44.107806610150966" lon="7.9058453524219905"><ele>1132.0</ele><time>2026-05-03T09:17:01Z</time></trkpt><trkpt lat="44.10783792370625" lon="7.905945246193501"><ele>1132.0</ele><time>2026-05-03T09:17:02Z</time></trkpt><trkpt lat="44.10786997411187" lon="7.9060527459720475"><ele>1132.0</ele><time>2026-05-03T09:17:03Z</time></trkpt><trkpt lat="44.10788708491939" lon="7.906156689778595"><ele>1133.6666666666665</ele><time>2026-05-03T09:17:04Z</time></trkpt><trkpt lat="44.107880708834784" lon="7.906247293846107"><ele>1135.3333333333333</ele><time>2026-05-03T09:17:05Z</time></trkpt><trkpt lat="44.10784898641766" lon="7.9063519576064225"><ele>1137.0</ele><time>2026-05-03T09:17:07Z</time></trkpt><trkpt lat="44.10774887606689" lon="7.906440434804772"><ele>1138.6666666666667</ele><time>2026-05-03T09:17:09Z</time></trkpt><trkpt lat="44.107667119584086" lon="7.906514587326471"><ele>1140.3333333333335</ele><time>2026-05-03T09:17:10Z</time></trkpt><trkpt lat="44.107599401685846" lon="7.906578023168542"><ele>1142.0</ele><time>2026-05-03T09:17:11Z</time></trkpt><trkpt lat="44.107540199293624" lon="7.90666981133711"><ele>1141.2</ele><time>2026-05-03T09:17:12Z</time></trkpt><trkpt lat="44.10747681870466" lon="7.906759459027362"><ele>1140.4</ele><time>2026-05-03T09:17:13Z</time></trkpt><trkpt lat="44.107417297913905" lon="7.906837721994318"><ele>1139.6</ele><time>2026-05-03T09:17:14Z</time></trkpt><trkpt lat="44.107350725119915" lon="7.906930318836163"><ele>1138.8</ele><time>2026-05-03T09:17:15Z</time></trkpt><trkpt lat="44.10728079451105" lon="7.907014338952993"><ele>1138.0</ele><time>2026-05-03T09:17:16Z</time></trkpt><trkpt lat="44.107209666129386" lon="7.907106156609996"><ele>1138.0</ele><time>2026-05-03T09:17:17Z</time></trkpt><trkpt lat="44.10713578085385" lon="7.907194238001516"><ele>1138.0</ele><time>2026-05-03T09:17:18Z</time></trkpt><trkpt lat="44.10707082322" lon="7.907275370045449"><ele>1138.0</ele><time>2026-05-03T09:17:19Z</time></trkpt><trkpt lat="44.107009908177446" lon="7.907376035800183"><ele>1138.0</ele><time>2026-05-03T09:17:20Z</time></trkpt><trkpt lat="44.106944720032516" lon="7.907480293706472"><ele>1138.0</ele><time>2026-05-03T09:17:21Z</time></trkpt><trkpt lat="44.10687896218002" lon="7.907598702736094"><ele>1140.4</ele><time>2026-05-03T09:17:22Z</time></trkpt><trkpt lat="44.10682763007694" lon="7.907710092800402"><ele>1142.8</ele><time>2026-05-03T09:17:23Z</time></trkpt><trkpt lat="44.10678589547684" lon="7.907823064553705"><ele>1145.2</ele><time>2026-05-03T09:17:24Z</time></trkpt><trkpt lat="44.10676082891291" lon="7.907950421977647"><ele>1147.6</ele><time>2026-05-03T09:17:25Z</time></trkpt><trkpt lat="44.106761290131885" lon="7.908094142124367"><ele>1150.0</ele><time>2026-05-03T09:17:26Z</time></trkpt><trkpt lat="44.106763868744224" lon="7.908237009661542"><ele>1150.0</ele><time>2026-05-03T09:17:27Z</time></trkpt><trkpt lat="44.10677357400656" lon="7.9083713783951595"><ele>1150.0</ele><time>2026-05-03T09:17:28Z</time></trkpt><trkpt lat="44.10678456487921" lon="7.908519044446945"><ele>1150.0</ele><time>2026-05-03T09:17:29Z</time></trkpt><trkpt lat="44.106788591470405" lon="7.908662594284698"><ele>1150.0</ele><time>2026-05-03T09:17:30Z</time></trkpt><trkpt lat="44.106783800931225" lon="7.908786822122911"><ele>1150.0</ele><time>2026-05-03T09:17:31Z</time></trkpt><trkpt lat="44.10678952673252" lon="7.908915722725513"><ele>1151.2</ele><time>2026-05-03T09:17:32Z</time></trkpt><trkpt lat="44.10680827844299" lon="7.9090260313636325"><ele>1152.4</ele><time>2026-05-03T09:17:33Z</time></trkpt><trkpt lat="44.10684749060754" lon="7.909126833956075"><ele>1153.6</ele><time>2026-05-03T09:17:34Z</time></trkpt><trkpt lat="44.10690138488993" lon="7.9092316991578295"><ele>1154.8</ele><time>2026-05-03T09:17:35Z</time></trkpt><trkpt lat="44.106964882211" lon="7.909330101685229"><ele>1156.0</ele><time>2026-05-03T09:17:36Z</time></trkpt><trkpt lat="44.10704376803024" lon="7.90943592529953"><ele>1153.6</ele><time>2026-05-03T09:17:37Z</time></trkpt><trkpt lat="44.107126805356145" lon="7.909544389394062"><ele>1151.1999999999998</ele><time>2026-05-03T09:17:38Z</time></trkpt><trkpt lat="44.10720182099376" lon="7.909657173500337"><ele>1148.8000000000002</ele><time>2026-05-03T09:17:39Z</time></trkpt><trkpt lat="44.10726921698059" lon="7.909764316792834"><ele>1146.4</ele><time>2026-05-03T09:17:40Z</time></trkpt><trkpt lat="44.10733300838602" lon="7.909869679946352"><ele>1144.0</ele><time>2026-05-03T09:17:41Z</time></trkpt><trkpt lat="44.10739776817067" lon="7.90998085847376"><ele>1149.0</ele><time>2026-05-03T09:17:42Z</time></trkpt><trkpt lat="44.107460871422184" lon="7.910104324067725"><ele>1154.0</ele><time>2026-05-03T09:17:43Z</time></trkpt><trkpt lat="44.10751609487619" lon="7.910220904498595"><ele>1159.0</ele><time>2026-05-03T09:17:44Z</time></trkpt><trkpt lat="44.10756377441853" lon="7.910326192423991"><ele>1164.0</ele><time>2026-05-03T09:17:45Z</time></trkpt><trkpt lat="44.10760616888782" lon="7.910428243817122"><ele>1169.0</ele><time>2026-05-03T09:17:46Z</time></trkpt><trkpt lat="44.10764665654658" lon="7.910533449340224"><ele>1169.0</ele><time>2026-05-03T09:17:47Z</time></trkpt><trkpt lat="44.10767836226157" lon="7.910655800616163"><ele>1169.0</ele><time>2026-05-03T09:17:48Z</time></trkpt><trkpt lat="44.10771428267392" lon="7.910779536890358"><ele>1169.0</ele><time>2026-05-03T09:17:49Z</time></trkpt><trkpt lat="44.1077397655164" lon="7.910903529180093"><ele>1169.0</ele><time>2026-05-03T09:17:50Z</time></trkpt><trkpt lat="44.10775851405777" lon="7.911029610596843"><ele>1169.0</ele><time>2026-05-03T09:17:51Z</time></trkpt><trkpt lat="44.10778273675637" lon="7.911153299329757"><ele>1168.4</ele><time>2026-05-03T09:17:52Z</time></trkpt><trkpt lat="44.10781985740029" lon="7.911268556996756"><ele>1167.8000000000002</ele><time>2026-05-03T09:17:53Z</time></trkpt><trkpt lat="44.10787554782521" lon="7.911403546554859"><ele>1167.1999999999998</ele><time>2026-05-03T09:17:54Z</time></trkpt><trkpt lat="44.10791776678457" lon="7.911535683179943"><ele>1166.6</ele><time>2026-05-03T09:17:55Z</time></trkpt><trkpt lat="44.107956327999354" lon="7.911660027816194"><ele>1166.0</ele><time>2026-05-03T09:17:56Z</time></trkpt><trkpt lat="44.10799270755216" lon="7.911785173223734"><ele>1165.3999999999999</ele><time>2026-05-03T09:17:57Z</time></trkpt><trkpt lat="44.10802717965225" lon="7.9119163634453615"><ele>1164.8</ele><time>2026-05-03T09:17:58Z</time></trkpt><trkpt lat="44.108062245302925" lon="7.9120569253928865"><ele>1164.1999999999998</ele><time>2026-05-03T09:17:59Z</time></trkpt><trkpt lat="44.10810114740994" lon="7.91220838440655"><ele>1163.6</ele><time>2026-05-03T09:18:00Z</time></trkpt><trkpt lat="44.108128476365664" lon="7.912347148117152"><ele>1163.0</ele><time>2026-05-03T09:18:01Z</time></trkpt><trkpt lat="44.10815839326206" lon="7.9124792977893605"><ele>1163.2</ele><time>2026-05-03T09:18:02Z</time></trkpt><trkpt lat="44.10819509601858" lon="7.912619933922362"><ele>1163.4</ele><time>2026-05-03T09:18:03Z</time></trkpt><trkpt lat="44.10822709003677" lon="7.912777459248918"><ele>1163.6000000000001</ele><time>2026-05-03T09:18:04Z</time></trkpt><trkpt lat="44.108255107779776" lon="7.912924021325211"><ele>1163.8</ele><time>2026-05-03T09:18:05Z</time></trkpt><trkpt lat="44.10827246203642" lon="7.913066961572076"><ele>1164.0</ele><time>2026-05-03T09:18:06Z</time></trkpt><trkpt lat="44.10828696139197" lon="7.913217569762042"><ele>1171.6000000000001</ele><time>2026-05-03T09:18:07Z</time></trkpt><trkpt lat="44.10830694748317" lon="7.9133590037192345"><ele>1179.2</ele><time>2026-05-03T09:18:08Z</time></trkpt><trkpt lat="44.10833180929432" lon="7.91348517566963"><ele>1186.8000000000002</ele><time>2026-05-03T09:18:09Z</time></trkpt><trkpt lat="44.108354789167535" lon="7.913634355441977"><ele>1194.4</ele><time>2026-05-03T09:18:10Z</time></trkpt><trkpt lat="44.10837795208959" lon="7.913801113380625"><ele>1202.0</ele><time>2026-05-03T09:18:11Z</time></trkpt><trkpt lat="44.10840783808035" lon="7.913949172132243"><ele>1202.1666666666667</ele><time>2026-05-03T09:18:12Z</time></trkpt><trkpt lat="44.10844374393346" lon="7.9140644073737025"><ele>1202.3333333333335</ele><time>2026-05-03T09:18:13Z</time></trkpt><trkpt lat="44.1084883406562" lon="7.9141786037584"><ele>1202.5</ele><time>2026-05-03T09:18:14Z</time></trkpt><trkpt lat="44.1085381580931" lon="7.91427462260877"><ele>1202.6666666666667</ele><time>2026-05-03T09:18:15Z</time></trkpt><trkpt lat="44.10859727333764" lon="7.9143388931166285"><ele>1202.8333333333333</ele><time>2026-05-03T09:18:16Z</time></trkpt><trkpt lat="44.1086532836375" lon="7.91441380692997"><ele>1203.0</ele><time>2026-05-03T09:18:17Z</time></trkpt><trkpt lat="44.10875038304389" lon="7.914503971868799"><ele>1203.0</ele><time>2026-05-03T09:18:19Z</time></trkpt><trkpt lat="44.108775216447945" lon="7.9145908340627855"><ele>1203.0</ele><time>2026-05-03T09:18:20Z</time></trkpt><trkpt lat="44.10876246190331" lon="7.914770421435419"><ele>1203.0</ele><time>2026-05-03T09:18:22Z</time></trkpt><trkpt lat="44.10874163372949" lon="7.9148840974130605"><ele>1203.0</ele><time>2026-05-03T09:18:23Z</time></trkpt><trkpt lat="44.108731163272374" lon="7.914997779222527"><ele>1203.0</ele><time>2026-05-03T09:18:24Z</time></trkpt><trkpt lat="44.1087265727554" lon="7.915116345746935"><ele>1203.0</ele><time>2026-05-03T09:18:25Z</time></trkpt><trkpt lat="44.10873099115456" lon="7.915235080316989"><ele>1203.4</ele><time>2026-05-03T09:18:26Z</time></trkpt><trkpt lat="44.1087321283901" lon="7.915380257618624"><ele>1203.8</ele><time>2026-05-03T09:18:27Z</time></trkpt><trkpt lat="44.10872805546153" lon="7.915542566042574"><ele>1204.2</ele><time>2026-05-03T09:18:28Z</time></trkpt><trkpt lat="44.108722550929876" lon="7.915683082714131"><ele>1204.6</ele><time>2026-05-03T09:18:29Z</time></trkpt><trkpt lat="44.10871623785202" lon="7.915804457601811"><ele>1205.0</ele><time>2026-05-03T09:18:30Z</time></trkpt><trkpt lat="44.10872002091504" lon="7.915932902499771"><ele>1206.8</ele><time>2026-05-03T09:18:31Z</time></trkpt><trkpt lat="44.108712743417705" lon="7.916069925646472"><ele>1208.6</ele><time>2026-05-03T09:18:32Z</time></trkpt><trkpt lat="44.10869502966578" lon="7.916211430254619"><ele>1210.4</ele><time>2026-05-03T09:18:33Z</time></trkpt><trkpt lat="44.10868297545801" lon="7.916345017772069"><ele>1212.2</ele><time>2026-05-03T09:18:34Z</time></trkpt><trkpt lat="44.108678060967854" lon="7.91648326051495"><ele>1214.0</ele><time>2026-05-03T09:18:35Z</time></trkpt><trkpt lat="44.10866502604208" lon="7.916609798102747"><ele>1215.8</ele><time>2026-05-03T09:18:36Z</time></trkpt><trkpt lat="44.10864929806532" lon="7.916746709615637"><ele>1217.6000000000001</ele><time>2026-05-03T09:18:37Z</time></trkpt><trkpt lat="44.10863441997388" lon="7.916895732474227"><ele>1219.4</ele><time>2026-05-03T09:18:38Z</time></trkpt><trkpt lat="44.10862358997286" lon="7.917035636144657"><ele>1221.2</ele><time>2026-05-03T09:18:39Z</time></trkpt><trkpt lat="44.10861976448387" lon="7.917177874636407"><ele>1223.0</ele><time>2026-05-03T09:18:40Z</time></trkpt><trkpt lat="44.10862204890771" lon="7.917318073351442"><ele>1223.0</ele><time>2026-05-03T09:18:41Z</time></trkpt><trkpt lat="44.108626214481916" lon="7.917477429483169"><ele>1223.0</ele><time>2026-05-03T09:18:42Z</time></trkpt><trkpt lat="44.108630585549314" lon="7.91763888260836"><ele>1223.0</ele><time>2026-05-03T09:18:43Z</time></trkpt><trkpt lat="44.108628046432685" lon="7.917801098629307"><ele>1223.0</ele><time>2026-05-03T09:18:44Z</time></trkpt><trkpt lat="44.10862334703179" lon="7.917965982558646"><ele>1226.25</ele><time>2026-05-03T09:18:45Z</time></trkpt><trkpt lat="44.10861766883178" lon="7.918133475389052"><ele>1229.5</ele><time>2026-05-03T09:18:46Z</time></trkpt><trkpt lat="44.108616016489165" lon="7.918297291137044"><ele>1232.75</ele><time>2026-05-03T09:18:47Z</time></trkpt><trkpt lat="44.108611260541196" lon="7.91845446681504"><ele>1236.0</ele><time>2026-05-03T09:18:48Z</time></trkpt><trkpt lat="44.10859870564683" lon="7.918613824501421"><ele>1238.0</ele><time>2026-05-03T09:18:49Z</time></trkpt><trkpt lat="44.10858194314869" lon="7.918780548860504"><ele>1240.0</ele><time>2026-05-03T09:18:50Z</time></trkpt><trkpt lat="44.108565576686395" lon="7.918941378746191"><ele>1242.0</ele><time>2026-05-03T09:18:51Z</time></trkpt><trkpt lat="44.10855637997359" lon="7.9190894436050545"><ele>1244.0</ele><time>2026-05-03T09:18:52Z</time></trkpt><trkpt lat="44.10854772380674" lon="7.919224695086973"><ele>1246.0</ele><time>2026-05-03T09:18:53Z</time></trkpt><trkpt lat="44.108544095187646" lon="7.919369964813275"><ele>1247.0</ele><time>2026-05-03T09:18:54Z</time></trkpt><trkpt lat="44.108536312756605" lon="7.919501614294169"><ele>1248.0</ele><time>2026-05-03T09:18:55Z</time></trkpt><trkpt lat="44.10852076840642" lon="7.919617030115454"><ele>1249.0</ele><time>2026-05-03T09:18:56Z</time></trkpt><trkpt lat="44.10851313998307" lon="7.919708849020905"><ele>1250.0</ele><time>2026-05-03T09:18:57Z</time></trkpt><trkpt lat="44.10853609224484" lon="7.919863160360907"><ele>1251.0</ele><time>2026-05-03T09:18:59Z</time></trkpt><trkpt lat="44.10857526365126" lon="7.9199365283512595"><ele>1252.0</ele><time>2026-05-03T09:19:00Z</time></trkpt><trkpt lat="44.10861338555777" lon="7.920012999964431"><ele>1254.0</ele><time>2026-05-03T09:19:01Z</time></trkpt><trkpt lat="44.108642493212336" lon="7.920091378699092"><ele>1256.0</ele><time>2026-05-03T09:19:02Z</time></trkpt><trkpt lat="44.10866763746248" lon="7.920269567761252"><ele>1258.0</ele><time>2026-05-03T09:19:04Z</time></trkpt><trkpt lat="44.10866096582121" lon="7.920360518886322"><ele>1260.0</ele><time>2026-05-03T09:19:05Z</time></trkpt><trkpt lat="44.108640774328535" lon="7.920452199755656"><ele>1262.0</ele><time>2026-05-03T09:19:06Z</time></trkpt><trkpt lat="44.10861158621556" lon="7.9205428721640745"><ele>1264.0</ele><time>2026-05-03T09:19:07Z</time></trkpt><trkpt lat="44.108571452397996" lon="7.920622140074233"><ele>1264.0</ele><time>2026-05-03T09:19:08Z</time></trkpt><trkpt lat="44.10852622494788" lon="7.920711649691496"><ele>1264.0</ele><time>2026-05-03T09:19:09Z</time></trkpt><trkpt lat="44.1084752214261" lon="7.920800365732454"><ele>1264.0</ele><time>2026-05-03T09:19:10Z</time></trkpt><trkpt lat="44.10842418634856" lon="7.920885443117899"><ele>1264.0</ele><time>2026-05-03T09:19:11Z</time></trkpt><trkpt lat="44.10838019448297" lon="7.9209658758542"><ele>1264.0</ele><time>2026-05-03T09:19:12Z</time></trkpt><trkpt lat="44.108325692974276" lon="7.921064713775763"><ele>1264.0</ele><time>2026-05-03T09:19:13Z</time></trkpt><trkpt lat="44.108266006021914" lon="7.921170653385238"><ele>1263.6666666666665</ele><time>2026-05-03T09:19:14Z</time></trkpt><trkpt lat="44.10821573568751" lon="7.921272391775347"><ele>1263.3333333333333</ele><time>2026-05-03T09:19:15Z</time></trkpt><trkpt lat="44.1081707223815" lon="7.921377859522672"><ele>1263.0</ele><time>2026-05-03T09:19:16Z</time></trkpt><trkpt lat="44.10813711832751" lon="7.921454506645109"><ele>1262.6666666666667</ele><time>2026-05-03T09:19:17Z</time></trkpt><trkpt lat="44.10811172751354" lon="7.921548162836518"><ele>1262.3333333333335</ele><time>2026-05-03T09:19:19Z</time></trkpt><trkpt lat="44.10811330312713" lon="7.921671299439169"><ele>1262.0</ele><time>2026-05-03T09:33:13.999Z</time></trkpt><trkpt lat="44.108117383462094" lon="7.921803361309203"><ele>1265.0</ele><time>2026-05-03T09:33:16.999Z</time></trkpt><trkpt lat="44.10807129135904" lon="7.921950721386964"><ele>1268.0</ele><time>2026-05-03T09:33:18.999Z</time></trkpt><trkpt lat="44.108023814684586" lon="7.9220801005493975"><ele>1271.0</ele><time>2026-05-03T09:33:20.999Z</time></trkpt><trkpt lat="44.10797950361923" lon="7.9222089143638845"><ele>1274.0</ele><time>2026-05-03T09:33:21.999Z</time></trkpt><trkpt lat="44.107912037919895" lon="7.922315672534035"><ele>1277.0</ele><time>2026-05-03T09:33:22.999Z</time></trkpt><trkpt lat="44.1078733760317" lon="7.922445444143672"><ele>1279.25</ele><time>2026-05-03T09:33:23.999Z</time></trkpt><trkpt lat="44.10780425997983" lon="7.9226014237211855"><ele>1281.5</ele><time>2026-05-03T09:33:24.999Z</time></trkpt><trkpt lat="44.10771627977432" lon="7.9227117301608905"><ele>1283.75</ele><time>2026-05-03T09:33:25.999Z</time></trkpt><trkpt lat="44.10762685259559" lon="7.922845206857124"><ele>1286.0</ele><time>2026-05-03T09:33:26.999Z</time></trkpt><trkpt lat="44.107542176579436" lon="7.922960011870132"><ele>1286.0</ele><time>2026-05-03T09:33:27.999Z</time></trkpt><trkpt lat="44.10747784735767" lon="7.9230828374563025"><ele>1286.0</ele><time>2026-05-03T09:33:28.999Z</time></trkpt><trkpt lat="44.107442085299475" lon="7.923195193641947"><ele>1286.0</ele><time>2026-05-03T09:33:29.999Z</time></trkpt><trkpt lat="44.10746943229677" lon="7.923300106467869"><ele>1286.0</ele><time>2026-05-03T09:33:30.999Z</time></trkpt><trkpt lat="44.10753655566408" lon="7.923345143074541"><ele>1286.0</ele><time>2026-05-03T09:33:31.999Z</time></trkpt><trkpt lat="44.107606959337346" lon="7.9233457929294175"><ele>1286.0</ele><time>2026-05-03T09:33:32.999Z</time></trkpt><trkpt lat="44.10772072479087" lon="7.9231645054992725"><ele>1286.0</ele><time>2026-05-03T09:33:34.999Z</time></trkpt><trkpt lat="44.107802517514465" lon="7.922990594650849"><ele>1286.0</ele><time>2026-05-03T09:33:35.999Z</time></trkpt><trkpt lat="44.10797369721506" lon="7.922906042672666"><ele>1286.0</ele><time>2026-05-03T09:33:36.999Z</time></trkpt><trkpt lat="44.10781091056661" lon="7.922985870704655"><ele>1286.0</ele><time>2026-05-03T09:33:37.999Z</time></trkpt><trkpt lat="44.10794586681622" lon="7.922916464888277"><ele>1286.0</ele><time>2026-05-03T09:33:38.999Z</time></trkpt><trkpt lat="44.108110625887186" lon="7.922867351835716"><ele>1286.0</ele><time>2026-05-03T09:33:39.999Z</time></trkpt><trkpt lat="44.10826912501097" lon="7.922818827773775"><ele>1289.0</ele><time>2026-05-03T09:33:40.999Z</time></trkpt><trkpt lat="44.108399588357095" lon="7.922732144382164"><ele>1292.0</ele><time>2026-05-03T09:33:41.999Z</time></trkpt><trkpt lat="44.108527239759944" lon="7.922637131049242"><ele>1295.0</ele><time>2026-05-03T09:33:42.999Z</time></trkpt><trkpt lat="44.10866150317888" lon="7.922538070270831"><ele>1298.0</ele><time>2026-05-03T09:33:43.999Z</time></trkpt><trkpt lat="44.10881667228239" lon="7.922464465515722"><ele>1298.0</ele><time>2026-05-03T09:33:44.999Z</time></trkpt><trkpt lat="44.108954879589845" lon="7.922409695867142"><ele>1298.0</ele><time>2026-05-03T09:33:45.999Z</time></trkpt><trkpt lat="44.10911575843927" lon="7.922418886681274"><ele>1298.0</ele><time>2026-05-03T09:33:46.999Z</time></trkpt><trkpt lat="44.10926700002808" lon="7.922451018429142"><ele>1300.6000000000001</ele><time>2026-05-03T09:33:47.999Z</time></trkpt><trkpt lat="44.10938954037254" lon="7.922499293425972"><ele>1303.2</ele><time>2026-05-03T09:33:48.999Z</time></trkpt><trkpt lat="44.10948219959879" lon="7.922586527520093"><ele>1305.8</ele><time>2026-05-03T09:33:49.999Z</time></trkpt><trkpt lat="44.10954149596832" lon="7.922685076107334"><ele>1308.4</ele><time>2026-05-03T09:33:50.999Z</time></trkpt><trkpt lat="44.109525288447585" lon="7.9227763332435615"><ele>1311.0</ele><time>2026-05-03T09:33:51.999Z</time></trkpt><trkpt lat="44.10922475301597" lon="7.9226818213967425"><ele>1311.6666666666667</ele><time>2026-05-03T09:33:57.999Z</time></trkpt><trkpt lat="44.10910719172504" lon="7.9226277788281525"><ele>1312.3333333333335</ele><time>2026-05-03T09:33:58.999Z</time></trkpt><trkpt lat="44.10892663810688" lon="7.9226701143628215"><ele>1313.0</ele><time>2026-05-03T09:33:59.999Z</time></trkpt><trkpt lat="44.10876136521744" lon="7.922815958010152"><ele>1313.0</ele><time>2026-05-03T09:34:00.999Z</time></trkpt><trkpt lat="44.10863288318815" lon="7.922948751643086"><ele>1313.0</ele><time>2026-05-03T09:34:01.999Z</time></trkpt><trkpt lat="44.10853350238571" lon="7.923100943406661"><ele>1313.0</ele><time>2026-05-03T09:34:02.999Z</time></trkpt><trkpt lat="44.10847809864328" lon="7.923227543699356"><ele>1313.0</ele><time>2026-05-03T09:34:03.999Z</time></trkpt><trkpt lat="44.108448537918825" lon="7.923375532569417"><ele>1315.25</ele><time>2026-05-03T09:34:04.999Z</time></trkpt><trkpt lat="44.10843032122904" lon="7.923512789792086"><ele>1317.5</ele><time>2026-05-03T09:34:05.999Z</time></trkpt><trkpt lat="44.108392570916415" lon="7.9237346274056"><ele>1319.75</ele><time>2026-05-03T09:34:06.999Z</time></trkpt><trkpt lat="44.10835919437877" lon="7.923946850789719"><ele>1322.0</ele><time>2026-05-03T09:34:07.999Z</time></trkpt><trkpt lat="44.10832150472014" lon="7.924168068732502"><ele>1321.75</ele><time>2026-05-03T09:34:08.998Z</time></trkpt><trkpt lat="44.10828711396584" lon="7.924372410811095"><ele>1321.5</ele><time>2026-05-03T09:34:09.998Z</time></trkpt><trkpt lat="44.10826752571733" lon="7.924557652468591"><ele>1321.25</ele><time>2026-05-03T09:34:10.998Z</time></trkpt><trkpt lat="44.108275179314454" lon="7.9246946469589705"><ele>1321.0</ele><time>2026-05-03T09:34:11.998Z</time></trkpt><trkpt lat="44.10832289076708" lon="7.924832017853258"><ele>1321.0</ele><time>2026-05-03T09:34:12.998Z</time></trkpt><trkpt lat="44.108400995957865" lon="7.924936730872798"><ele>1321.0</ele><time>2026-05-03T09:34:13.998Z</time></trkpt><trkpt lat="44.10849413071841" lon="7.924981607063575"><ele>1321.0</ele><time>2026-05-03T09:34:14.998Z</time></trkpt><trkpt lat="44.108591916362556" lon="7.925014683835211"><ele>1321.0</ele><time>2026-05-03T09:34:15.998Z</time></trkpt><trkpt lat="44.10880599290941" lon="7.925059946554652"><ele>1321.0</ele><time>2026-05-03T09:34:16.998Z</time></trkpt><trkpt lat="44.10893187730728" lon="7.925062020685315"><ele>1321.0</ele><time>2026-05-03T09:34:17.999Z</time></trkpt><trkpt lat="44.10905752038842" lon="7.925098431278006"><ele>1321.0</ele><time>2026-05-03T09:34:18.999Z</time></trkpt><trkpt lat="44.109143147015494" lon="7.925183543856234"><ele>1321.0</ele><time>2026-05-03T09:34:19.999Z</time></trkpt><trkpt lat="44.109123444442396" lon="7.925343123715494"><ele>1326.25</ele><time>2026-05-03T09:34:20.999Z</time></trkpt><trkpt lat="44.10911751998061" lon="7.925465011819521"><ele>1331.5</ele><time>2026-05-03T09:34:21.999Z</time></trkpt><trkpt lat="44.10912605437223" lon="7.925632359297382"><ele>1336.75</ele><time>2026-05-03T09:34:22.999Z</time></trkpt><trkpt lat="44.10916804796657" lon="7.925821531676597"><ele>1342.0</ele><time>2026-05-03T09:34:23.999Z</time></trkpt><trkpt lat="44.10922301961391" lon="7.925980381369794"><ele>1342.75</ele><time>2026-05-03T09:34:24.999Z</time></trkpt><trkpt lat="44.10928099724415" lon="7.9261346567104125"><ele>1343.5</ele><time>2026-05-03T09:34:25.999Z</time></trkpt><trkpt lat="44.10933852340455" lon="7.926286308093253"><ele>1344.25</ele><time>2026-05-03T09:34:26.999Z</time></trkpt><trkpt lat="44.109379983144734" lon="7.9264402705402555"><ele>1345.0</ele><time>2026-05-03T09:34:27.999Z</time></trkpt><trkpt lat="44.109400278889325" lon="7.92660548229122"><ele>1349.5</ele><time>2026-05-03T09:34:28.999Z</time></trkpt><trkpt lat="44.109394968156856" lon="7.92676005230821"><ele>1354.0</ele><time>2026-05-03T09:34:29.999Z</time></trkpt><trkpt lat="44.109363383999685" lon="7.926932392181865"><ele>1358.5</ele><time>2026-05-03T09:34:30.999Z</time></trkpt><trkpt lat="44.10930958311559" lon="7.927095734553228"><ele>1363.0</ele><time>2026-05-03T09:34:31.999Z</time></trkpt><trkpt lat="44.10924157339781" lon="7.92722709768559"><ele>1363.0</ele><time>2026-05-03T09:34:32.999Z</time></trkpt><trkpt lat="44.10915860960396" lon="7.927353115322377"><ele>1363.0</ele><time>2026-05-03T09:34:33.999Z</time></trkpt><trkpt lat="44.10905191159251" lon="7.92746573532975"><ele>1363.0</ele><time>2026-05-03T09:34:34.999Z</time></trkpt><trkpt lat="44.10892599279485" lon="7.927586581223311"><ele>1363.0</ele><time>2026-05-03T09:34:35.999Z</time></trkpt><trkpt lat="44.108806935464756" lon="7.927701997196013"><ele>1361.75</ele><time>2026-05-03T09:34:36.999Z</time></trkpt><trkpt lat="44.108690330634914" lon="7.927854710732809"><ele>1360.5</ele><time>2026-05-03T09:34:37.999Z</time></trkpt><trkpt lat="44.10860416496884" lon="7.927989472147875"><ele>1359.25</ele><time>2026-05-03T09:34:38.999Z</time></trkpt><trkpt lat="44.108531741581444" lon="7.928108297297058"><ele>1358.0</ele><time>2026-05-03T09:34:39.999Z</time></trkpt><trkpt lat="44.1084496687035" lon="7.928249940003163"><ele>1358.0</ele><time>2026-05-03T09:34:40.999Z</time></trkpt><trkpt lat="44.10838030864365" lon="7.928389199058967"><ele>1358.0</ele><time>2026-05-03T09:34:41.999Z</time></trkpt><trkpt lat="44.10831597138808" lon="7.928547706359712"><ele>1358.0</ele><time>2026-05-03T09:34:42.999Z</time></trkpt><trkpt lat="44.108275597207346" lon="7.928712197684141"><ele>1358.0</ele><time>2026-05-03T09:34:43.999Z</time></trkpt><trkpt lat="44.10823489422348" lon="7.928866679135717"><ele>1360.0</ele><time>2026-05-03T09:34:44.999Z</time></trkpt><trkpt lat="44.108204108116965" lon="7.929008578373366"><ele>1362.0</ele><time>2026-05-03T09:34:45.999Z</time></trkpt><trkpt lat="44.1081817462124" lon="7.929140850928665"><ele>1364.0</ele><time>2026-05-03T09:34:46.999Z</time></trkpt><trkpt lat="44.10814939073258" lon="7.929281013502189"><ele>1366.0</ele><time>2026-05-03T09:34:47.999Z</time></trkpt><trkpt lat="44.10811633802471" lon="7.9294087888321245"><ele>1368.0</ele><time>2026-05-03T09:34:48.999Z</time></trkpt><trkpt lat="44.10809129866045" lon="7.9295188807361425"><ele>1368.0</ele><time>2026-05-03T09:34:49.999Z</time></trkpt><trkpt lat="44.108075115251054" lon="7.929630268051043"><ele>1368.0</ele><time>2026-05-03T09:34:50.999Z</time></trkpt><trkpt lat="44.1080880535375" lon="7.929753743814926"><ele>1368.0</ele><time>2026-05-03T09:34:51.999Z</time></trkpt><trkpt lat="44.10818649833114" lon="7.929840982249105"><ele>1368.0</ele><time>2026-05-03T09:34:52.999Z</time></trkpt><trkpt lat="44.1082671395928" lon="7.929907173010608"><ele>1368.0</ele><time>2026-05-03T09:34:53.999Z</time></trkpt><trkpt lat="44.10834891541849" lon="7.929920719086316"><ele>1369.5</ele><time>2026-05-03T09:34:54.999Z</time></trkpt><trkpt lat="44.10842307353993" lon="7.929904240846479"><ele>1371.0</ele><time>2026-05-03T09:34:55.999Z</time></trkpt><trkpt lat="44.10852125714939" lon="7.929825884240609"><ele>1372.5</ele><time>2026-05-03T09:34:56.999Z</time></trkpt><trkpt lat="44.10863164172085" lon="7.929705585330172"><ele>1374.0</ele><time>2026-05-03T09:34:57.999Z</time></trkpt><trkpt lat="44.10876105154693" lon="7.929593363233605"><ele>1374.0</ele><time>2026-05-03T09:34:58.999Z</time></trkpt><trkpt lat="44.10884896260782" lon="7.929465681565101"><ele>1374.0</ele><time>2026-05-03T09:34:59.999Z</time></trkpt><trkpt lat="44.10895806813297" lon="7.929338264011688"><ele>1374.0</ele><time>2026-05-03T09:35:00.999Z</time></trkpt><trkpt lat="44.109085662032506" lon="7.929239577919257"><ele>1374.0</ele><time>2026-05-03T09:35:01.999Z</time></trkpt><trkpt lat="44.10921787479769" lon="7.929146262924029"><ele>1374.5</ele><time>2026-05-03T09:35:02.999Z</time></trkpt><trkpt lat="44.10936514546406" lon="7.929094109742382"><ele>1375.0</ele><time>2026-05-03T09:35:03.999Z</time></trkpt><trkpt lat="44.10951582008075" lon="7.929064184652182"><ele>1375.5</ele><time>2026-05-03T09:35:04.999Z</time></trkpt><trkpt lat="44.10964181608178" lon="7.929007351493894"><ele>1376.0</ele><time>2026-05-03T09:35:05.999Z</time></trkpt><trkpt lat="44.10979625644384" lon="7.928899517669913"><ele>1376.0</ele><time>2026-05-03T09:35:06.999Z</time></trkpt><trkpt lat="44.109906031342874" lon="7.928735920744815"><ele>1376.0</ele><time>2026-05-03T09:35:07.999Z</time></trkpt><trkpt lat="44.110032134527195" lon="7.928589432666262"><ele>1376.0</ele><time>2026-05-03T09:35:08.999Z</time></trkpt><trkpt lat="44.1101425176688" lon="7.928488293386347"><ele>1376.0</ele><time>2026-05-03T09:35:09.999Z</time></trkpt><trkpt lat="44.11024968235559" lon="7.928384922321065"><ele>1376.0</ele><time>2026-05-03T09:35:10.999Z</time></trkpt><trkpt lat="44.11037138251196" lon="7.928307904910052"><ele>1376.0</ele><time>2026-05-03T09:35:11.999Z</time></trkpt><trkpt lat="44.110500549747115" lon="7.9282145430365105"><ele>1376.0</ele><time>2026-05-03T09:35:12.999Z</time></trkpt><trkpt lat="44.110626562504486" lon="7.928118906709862"><ele>1376.0</ele><time>2026-05-03T09:35:13.999Z</time></trkpt><trkpt lat="44.110740110963626" lon="7.928030395959912"><ele>1376.0</ele><time>2026-05-03T09:35:14.999Z</time></trkpt><trkpt lat="44.11085824958652" lon="7.927945143708429"><ele>1376.0</ele><time>2026-05-03T09:35:15.999Z</time></trkpt><trkpt lat="44.11098307412882" lon="7.92793031377714"><ele>1376.0</ele><time>2026-05-03T09:35:16.999Z</time></trkpt><trkpt lat="44.111095713416866" lon="7.927970568939088"><ele>1369.5</ele><time>2026-05-03T09:35:17.999Z</time></trkpt><trkpt lat="44.11121468692884" lon="7.928011683776811"><ele>1363.0</ele><time>2026-05-03T09:35:18.999Z</time></trkpt><trkpt lat="44.11129482461726" lon="7.928098579687501"><ele>1356.5</ele><time>2026-05-03T09:35:19.999Z</time></trkpt><trkpt lat="44.11141518214349" lon="7.928214846136182"><ele>1350.0</ele><time>2026-05-03T09:35:20.999Z</time></trkpt><trkpt lat="44.111524901934786" lon="7.928322146787682"><ele>1342.75</ele><time>2026-05-03T09:35:21.999Z</time></trkpt><trkpt lat="44.11165571233719" lon="7.9284452450598835"><ele>1335.5</ele><time>2026-05-03T09:35:22.999Z</time></trkpt><trkpt lat="44.11176686357974" lon="7.9285295693114275"><ele>1328.25</ele><time>2026-05-03T09:35:23.999Z</time></trkpt><trkpt lat="44.11190763345962" lon="7.928582904211543"><ele>1321.0</ele><time>2026-05-03T09:35:24.999Z</time></trkpt><trkpt lat="44.112014579310085" lon="7.928530727723147"><ele>1321.0</ele><time>2026-05-03T09:35:25.999Z</time></trkpt><trkpt lat="44.11209083812717" lon="7.92848572605666"><ele>1321.0</ele><time>2026-05-03T09:35:26.999Z</time></trkpt><trkpt lat="44.11218577113234" lon="7.928382498089326"><ele>1321.0</ele><time>2026-05-03T09:35:27.999Z</time></trkpt><trkpt lat="44.11226815762996" lon="7.928296957168825"><ele>1321.0</ele><time>2026-05-03T09:35:28.999Z</time></trkpt><trkpt lat="44.112391478662666" lon="7.928194011139224"><ele>1327.0</ele><time>2026-05-03T09:35:29.999Z</time></trkpt><trkpt lat="44.11251044231389" lon="7.928051028989738"><ele>1333.0</ele><time>2026-05-03T09:35:30.999Z</time></trkpt><trkpt lat="44.11262254932099" lon="7.927927191540492"><ele>1339.0</ele><time>2026-05-03T09:35:31.999Z</time></trkpt><trkpt lat="44.11270824878019" lon="7.927853673905101"><ele>1345.0</ele><time>2026-05-03T09:35:32.999Z</time></trkpt><trkpt lat="44.1128040978011" lon="7.92782248241881"><ele>1345.0</ele><time>2026-05-03T09:35:33.999Z</time></trkpt><trkpt lat="44.11292209593549" lon="7.92781170275842"><ele>1345.0</ele><time>2026-05-03T09:35:34.999Z</time></trkpt><trkpt lat="44.113018965745596" lon="7.927852114704107"><ele>1345.0</ele><time>2026-05-03T09:35:35.999Z</time></trkpt><trkpt lat="44.11313289937798" lon="7.927926969330313"><ele>1345.0</ele><time>2026-05-03T09:35:36.999Z</time></trkpt><trkpt lat="44.11313923582981" lon="7.928035594244831"><ele>1345.0</ele><time>2026-05-03T09:35:37.999Z</time></trkpt><trkpt lat="44.11318315814404" lon="7.928140072109814"><ele>1343.75</ele><time>2026-05-03T09:35:38.999Z</time></trkpt><trkpt lat="44.11326766791873" lon="7.9282881547197315"><ele>1342.5</ele><time>2026-05-03T09:35:39.999Z</time></trkpt><trkpt lat="44.11333827996452" lon="7.928411884995378"><ele>1341.25</ele><time>2026-05-03T09:35:40.999Z</time></trkpt><trkpt lat="44.11339951111915" lon="7.9285080154680525"><ele>1340.0</ele><time>2026-05-03T09:35:41.999Z</time></trkpt><trkpt lat="44.11362243829084" lon="7.928406206168386"><ele>1334.0</ele><time>2026-05-03T09:35:42.999Z</time></trkpt><trkpt lat="44.11372051588923" lon="7.9284613475358"><ele>1328.0</ele><time>2026-05-03T09:35:43.999Z</time></trkpt><trkpt lat="44.11383992805845" lon="7.928558109222157"><ele>1322.0</ele><time>2026-05-03T09:35:44.999Z</time></trkpt><trkpt lat="44.1139340990808" lon="7.928655468031189"><ele>1316.0</ele><time>2026-05-03T09:35:45.999Z</time></trkpt><trkpt lat="44.11403840757842" lon="7.928792906105667"><ele>1316.75</ele><time>2026-05-03T09:35:46.999Z</time></trkpt><trkpt lat="44.1141102387633" lon="7.92891895515866"><ele>1317.5</ele><time>2026-05-03T09:35:47.999Z</time></trkpt><trkpt lat="44.11418655002594" lon="7.929092908224716"><ele>1318.25</ele><time>2026-05-03T09:35:48.999Z</time></trkpt><trkpt lat="44.11421515375676" lon="7.929276109347385"><ele>1319.0</ele><time>2026-05-03T09:35:49.999Z</time></trkpt><trkpt lat="44.11421818324283" lon="7.929452997465557"><ele>1319.0</ele><time>2026-05-03T09:35:50.999Z</time></trkpt><trkpt lat="44.11422726587132" lon="7.92963797898704"><ele>1319.0</ele><time>2026-05-03T09:35:51.999Z</time></trkpt><trkpt lat="44.114202610520536" lon="7.9298267383603225"><ele>1319.0</ele><time>2026-05-03T09:35:52.999Z</time></trkpt><trkpt lat="44.11422708687932" lon="7.929997368651305"><ele>1319.0</ele><time>2026-05-03T09:35:53.999Z</time></trkpt><trkpt lat="44.114261667618365" lon="7.930159929783236"><ele>1314.25</ele><time>2026-05-03T09:35:54.999Z</time></trkpt><trkpt lat="44.11430257652936" lon="7.930339022605506"><ele>1309.5</ele><time>2026-05-03T09:35:55.999Z</time></trkpt><trkpt lat="44.11434122152933" lon="7.930508204387075"><ele>1304.75</ele><time>2026-05-03T09:35:56.999Z</time></trkpt><trkpt lat="44.11437477774559" lon="7.930647536852301"><ele>1300.0</ele><time>2026-05-03T09:35:57.999Z</time></trkpt><trkpt lat="44.11441283474141" lon="7.930806097641941"><ele>1295.75</ele><time>2026-05-03T09:35:58.999Z</time></trkpt><trkpt lat="44.114455479260606" lon="7.930974500035827"><ele>1291.5</ele><time>2026-05-03T09:35:59.999Z</time></trkpt><trkpt lat="44.114506162389056" lon="7.931127502245126"><ele>1287.25</ele><time>2026-05-03T09:36:00.999Z</time></trkpt><trkpt lat="44.11453626473964" lon="7.9312830271406485"><ele>1283.0</ele><time>2026-05-03T09:36:01.999Z</time></trkpt><trkpt lat="44.11459880478748" lon="7.9314172739846205"><ele>1283.0</ele><time>2026-05-03T09:36:02.999Z</time></trkpt><trkpt lat="44.11468526520603" lon="7.931548042317736"><ele>1283.0</ele><time>2026-05-03T09:36:03.999Z</time></trkpt><trkpt lat="44.11477888969022" lon="7.9316550719551"><ele>1283.0</ele><time>2026-05-03T09:36:04.999Z</time></trkpt><trkpt lat="44.114877623397255" lon="7.931752607069764"><ele>1283.0</ele><time>2026-05-03T09:36:05.999Z</time></trkpt><trkpt lat="44.114978856746774" lon="7.931854196881393"><ele>1284.25</ele><time>2026-05-03T09:36:06.999Z</time></trkpt><trkpt lat="44.115068943023154" lon="7.931956771381062"><ele>1285.5</ele><time>2026-05-03T09:36:07.999Z</time></trkpt><trkpt lat="44.11514555238076" lon="7.932083913465866"><ele>1286.75</ele><time>2026-05-03T09:36:08.999Z</time></trkpt><trkpt lat="44.115221212527835" lon="7.932214249603158"><ele>1288.0</ele><time>2026-05-03T09:36:10Z</time></trkpt><trkpt lat="44.11530535151912" lon="7.932326742530402"><ele>1288.0</ele><time>2026-05-03T09:36:11Z</time></trkpt><trkpt lat="44.1153792733344" lon="7.932440489268269"><ele>1288.0</ele><time>2026-05-03T09:36:12Z</time></trkpt><trkpt lat="44.11546489205245" lon="7.932551131652068"><ele>1288.0</ele><time>2026-05-03T09:36:13Z</time></trkpt><trkpt lat="44.11556686884537" lon="7.932643178661293"><ele>1288.0</ele><time>2026-05-03T09:36:14Z</time></trkpt><trkpt lat="44.1156779319122" lon="7.932709865380224"><ele>1287.8000000000002</ele><time>2026-05-03T09:36:14.999Z</time></trkpt><trkpt lat="44.11578678812418" lon="7.932786915771637"><ele>1287.6</ele><time>2026-05-03T09:36:15.999Z</time></trkpt><trkpt lat="44.11588105518736" lon="7.932865095464979"><ele>1287.4</ele><time>2026-05-03T09:36:16.999Z</time></trkpt><trkpt lat="44.115955593540335" lon="7.932934756265799"><ele>1287.1999999999998</ele><time>2026-05-03T09:36:17.999Z</time></trkpt><trkpt lat="44.115969438426404" lon="7.933081435538604"><ele>1287.0</ele><time>2026-05-03T09:36:18.999Z</time></trkpt><trkpt lat="44.11601737899147" lon="7.933238331088662"><ele>1287.0</ele><time>2026-05-03T09:36:19.999Z</time></trkpt><trkpt lat="44.11604834653698" lon="7.933380876208221"><ele>1287.0</ele><time>2026-05-03T09:36:20.999Z</time></trkpt><trkpt lat="44.11606169300243" lon="7.933542893542716"><ele>1287.0</ele><time>2026-05-03T09:36:21.999Z</time></trkpt><trkpt lat="44.11606517288731" lon="7.933721714754035"><ele>1287.0</ele><time>2026-05-03T09:36:22.999Z</time></trkpt><trkpt lat="44.116052282114204" lon="7.933845995892819"><ele>1287.0</ele><time>2026-05-03T09:36:23.999Z</time></trkpt><trkpt lat="44.11598224764504" lon="7.933969830915959"><ele>1284.75</ele><time>2026-05-03T09:36:24.999Z</time></trkpt><trkpt lat="44.11592392394656" lon="7.93408021388286"><ele>1282.5</ele><time>2026-05-03T09:36:25.999Z</time></trkpt><trkpt lat="44.115845668340064" lon="7.93420631409619"><ele>1280.25</ele><time>2026-05-03T09:36:26.999Z</time></trkpt><trkpt lat="44.11579973510304" lon="7.934364085592516"><ele>1278.0</ele><time>2026-05-03T09:36:27.999Z</time></trkpt><trkpt lat="44.11580294463559" lon="7.934613331220367"><ele>1276.4</ele><time>2026-05-03T09:36:28.999Z</time></trkpt><trkpt lat="44.11584191528857" lon="7.934790337965024"><ele>1274.8</ele><time>2026-05-03T09:36:29.999Z</time></trkpt><trkpt lat="44.115866262040235" lon="7.934919148058313"><ele>1273.2</ele><time>2026-05-03T09:36:30.999Z</time></trkpt><trkpt lat="44.11591541888402" lon="7.935000154656899"><ele>1271.6</ele><time>2026-05-03T09:36:31.999Z</time></trkpt><trkpt lat="44.11596947727895" lon="7.935154314611775"><ele>1270.0</ele><time>2026-05-03T09:36:32.999Z</time></trkpt><trkpt lat="44.11603509553054" lon="7.935357013465187"><ele>1266.25</ele><time>2026-05-03T09:36:33.999Z</time></trkpt><trkpt lat="44.116085298619" lon="7.935521138320458"><ele>1262.5</ele><time>2026-05-03T09:36:34.999Z</time></trkpt><trkpt lat="44.11613758523637" lon="7.9356995836799795"><ele>1258.75</ele><time>2026-05-03T09:36:35.999Z</time></trkpt><trkpt lat="44.11618447562743" lon="7.935869283722329"><ele>1255.0</ele><time>2026-05-03T09:36:36.999Z</time></trkpt><trkpt lat="44.11622962365421" lon="7.93604539650279"><ele>1251.25</ele><time>2026-05-03T09:36:37.999Z</time></trkpt><trkpt lat="44.11626412711964" lon="7.936191372728849"><ele>1247.5</ele><time>2026-05-03T09:36:38.999Z</time></trkpt><trkpt lat="44.116310325714856" lon="7.936352856340279"><ele>1243.75</ele><time>2026-05-03T09:36:39.999Z</time></trkpt><trkpt lat="44.11637075777194" lon="7.93650754484521"><ele>1240.0</ele><time>2026-05-03T09:36:40.999Z</time></trkpt><trkpt lat="44.11643722456573" lon="7.936629350551086"><ele>1241.8</ele><time>2026-05-03T09:36:41.999Z</time></trkpt><trkpt lat="44.116508656326474" lon="7.936725466487114"><ele>1243.6</ele><time>2026-05-03T09:36:42.999Z</time></trkpt><trkpt lat="44.11658216202426" lon="7.936825253290272"><ele>1245.4</ele><time>2026-05-03T09:36:43.999Z</time></trkpt><trkpt lat="44.11664283485591" lon="7.93690706665578"><ele>1247.2</ele><time>2026-05-03T09:36:44.999Z</time></trkpt><trkpt lat="44.116722123511686" lon="7.9370374247190965"><ele>1249.0</ele><time>2026-05-03T09:36:47Z</time></trkpt><trkpt lat="44.116770515804205" lon="7.937162306244263"><ele>1249.0</ele><time>2026-05-03T09:36:49Z</time></trkpt><trkpt lat="44.11691149485934" lon="7.937331047092227"><ele>1249.0</ele><time>2026-05-03T09:36:51Z</time></trkpt><trkpt lat="44.116976341046524" lon="7.9374405527906475"><ele>1249.0</ele><time>2026-05-03T09:36:52Z</time></trkpt><trkpt lat="44.11703170545393" lon="7.937517565745284"><ele>1249.0</ele><time>2026-05-03T09:36:54Z</time></trkpt><trkpt lat="44.117036216381514" lon="7.9376182424115616"><ele>1249.0</ele><time>2026-05-03T09:37:27Z</time></trkpt><trkpt lat="44.11712056172443" lon="7.937742371075354"><ele>1246.5</ele><time>2026-05-03T09:37:30Z</time></trkpt><trkpt lat="44.11716127741008" lon="7.9378098108379165"><ele>1244.0</ele><time>2026-05-03T09:37:31Z</time></trkpt><trkpt lat="44.11717662016096" lon="7.937948657762025"><ele>1241.5</ele><time>2026-05-03T09:37:32Z</time></trkpt><trkpt lat="44.117232395659805" lon="7.938036920209498"><ele>1239.0</ele><time>2026-05-03T09:37:33Z</time></trkpt><trkpt lat="44.11728087413565" lon="7.938114980970583"><ele>1236.5</ele><time>2026-05-03T09:37:34Z</time></trkpt><trkpt lat="44.11733476513951" lon="7.938223048962688"><ele>1234.0</ele><time>2026-05-03T09:37:35Z</time></trkpt><trkpt lat="44.11738212710018" lon="7.938339823965763"><ele>1239.2</ele><time>2026-05-03T09:37:36Z</time></trkpt><trkpt lat="44.1174331874989" lon="7.9384559830362615"><ele>1244.4</ele><time>2026-05-03T09:37:37Z</time></trkpt><trkpt lat="44.117469737784134" lon="7.9385666180982755"><ele>1249.6</ele><time>2026-05-03T09:37:38Z</time></trkpt><trkpt lat="44.11746539554927" lon="7.938694753157106"><ele>1254.8</ele><time>2026-05-03T09:37:39Z</time></trkpt><trkpt lat="44.117468652594944" lon="7.938838363943399"><ele>1260.0</ele><time>2026-05-03T09:37:40Z</time></trkpt><trkpt lat="44.11746195900902" lon="7.9389994393984855"><ele>1260.0</ele><time>2026-05-03T09:37:41Z</time></trkpt><trkpt lat="44.11745738232932" lon="7.939163149748488"><ele>1260.0</ele><time>2026-05-03T09:37:42Z</time></trkpt><trkpt lat="44.11745380399244" lon="7.939299980994626"><ele>1260.0</ele><time>2026-05-03T09:37:43Z</time></trkpt><trkpt lat="44.11745743971644" lon="7.939430082985429"><ele>1260.0</ele><time>2026-05-03T09:37:44Z</time></trkpt><trkpt lat="44.11746740591088" lon="7.939532542888254"><ele>1260.0</ele><time>2026-05-03T09:37:45Z</time></trkpt><trkpt lat="44.117500434288864" lon="7.939626951604358"><ele>1257.3333333333333</ele><time>2026-05-03T09:37:46Z</time></trkpt><trkpt lat="44.11759796712479" lon="7.939651274398752"><ele>1254.6666666666667</ele><time>2026-05-03T09:37:47Z</time></trkpt><trkpt lat="44.11766550158413" lon="7.939667688105006"><ele>1252.0</ele><time>2026-05-03T09:37:48Z</time></trkpt><trkpt lat="44.11773861003141" lon="7.939649683859006"><ele>1249.3333333333335</ele><time>2026-05-03T09:37:49Z</time></trkpt><trkpt lat="44.117819199590706" lon="7.939664872029692"><ele>1246.6666666666667</ele><time>2026-05-03T09:37:50Z</time></trkpt><trkpt lat="44.11791847967882" lon="7.939654681239514"><ele>1244.0</ele><time>2026-05-03T09:37:51Z</time></trkpt><trkpt lat="44.11802616263924" lon="7.939637694469074"><ele>1244.0</ele><time>2026-05-03T09:37:52Z</time></trkpt><trkpt lat="44.11812960306416" lon="7.939624340647167"><ele>1244.0</ele><time>2026-05-03T09:37:53Z</time></trkpt><trkpt lat="44.11822172259156" lon="7.9396295526090865"><ele>1244.0</ele><time>2026-05-03T09:37:54Z</time></trkpt><trkpt lat="44.11830328080782" lon="7.939620645751312"><ele>1244.0</ele><time>2026-05-03T09:37:55Z</time></trkpt><trkpt lat="44.11837311194243" lon="7.939635386016528"><ele>1244.0</ele><time>2026-05-03T09:37:56Z</time></trkpt><trkpt lat="44.118447667135094" lon="7.939658582301142"><ele>1244.0</ele><time>2026-05-03T09:37:57Z</time></trkpt><trkpt lat="44.118510143710175" lon="7.939750720885142"><ele>1242.8</ele><time>2026-05-03T09:37:58Z</time></trkpt><trkpt lat="44.11858807724668" lon="7.939838453132673"><ele>1241.6000000000001</ele><time>2026-05-03T09:37:59Z</time></trkpt><trkpt lat="44.118652497645705" lon="7.939934181111"><ele>1240.4</ele><time>2026-05-03T09:38:00Z</time></trkpt><trkpt lat="44.11872783727977" lon="7.9400248026900595"><ele>1239.2</ele><time>2026-05-03T09:38:01Z</time></trkpt><trkpt lat="44.11881488330993" lon="7.940109359783531"><ele>1238.0</ele><time>2026-05-03T09:38:02Z</time></trkpt><trkpt lat="44.11890715662352" lon="7.940167103193016"><ele>1238.0</ele><time>2026-05-03T09:38:03Z</time></trkpt><trkpt lat="44.11900634969236" lon="7.940209204216159"><ele>1238.0</ele><time>2026-05-03T09:38:04Z</time></trkpt><trkpt lat="44.11911538975212" lon="7.94024654180811"><ele>1238.0</ele><time>2026-05-03T09:38:05Z</time></trkpt><trkpt lat="44.11922745550652" lon="7.940286624539527"><ele>1238.0</ele><time>2026-05-03T09:38:06Z</time></trkpt><trkpt lat="44.11931756428331" lon="7.940332622229241"><ele>1238.0</ele><time>2026-05-03T09:38:07Z</time></trkpt><trkpt lat="44.11941586245336" lon="7.9403956933992115"><ele>1242.0</ele><time>2026-05-03T09:38:08Z</time></trkpt><trkpt lat="44.11950826667418" lon="7.940436419401854"><ele>1246.0</ele><time>2026-05-03T09:38:09Z</time></trkpt><trkpt lat="44.11960223761027" lon="7.9404483331248255"><ele>1250.0</ele><time>2026-05-03T09:38:10Z</time></trkpt><trkpt lat="44.11967633972229" lon="7.940458932304781"><ele>1254.0</ele><time>2026-05-03T09:38:11Z</time></trkpt><trkpt lat="44.119734998306804" lon="7.940493172448476"><ele>1258.0</ele><time>2026-05-03T09:38:12Z</time></trkpt><trkpt lat="44.11985327380255" lon="7.94052997578334"><ele>1258.0</ele><time>2026-05-03T09:38:14Z</time></trkpt><trkpt lat="44.11985653056075" lon="7.940672366560159"><ele>1258.0</ele><time>2026-05-03T09:38:15Z</time></trkpt><trkpt lat="44.11990187909395" lon="7.940777805127189"><ele>1258.0</ele><time>2026-05-03T09:38:16Z</time></trkpt><trkpt lat="44.119932905935165" lon="7.940871690393693"><ele>1258.0</ele><time>2026-05-03T09:38:17Z</time></trkpt><trkpt lat="44.11995160790624" lon="7.9409582181053855"><ele>1258.0</ele><time>2026-05-03T09:38:18Z</time></trkpt><trkpt lat="44.11994384330879" lon="7.941135246771962"><ele>1260.8</ele><time>2026-05-03T09:38:20Z</time></trkpt><trkpt lat="44.119938839155374" lon="7.941287298945987"><ele>1263.6</ele><time>2026-05-03T09:38:21Z</time></trkpt><trkpt lat="44.119949472522286" lon="7.941419081572768"><ele>1266.4</ele><time>2026-05-03T09:38:22Z</time></trkpt><trkpt lat="44.11998293452826" lon="7.941532690485373"><ele>1269.2</ele><time>2026-05-03T09:38:23Z</time></trkpt><trkpt lat="44.120018370209735" lon="7.941636414922418"><ele>1272.0</ele><time>2026-05-03T09:38:24Z</time></trkpt><trkpt lat="44.12005068773494" lon="7.941750165971649"><ele>1272.0</ele><time>2026-05-03T09:38:25Z</time></trkpt><trkpt lat="44.120073886838895" lon="7.941853206061416"><ele>1272.0</ele><time>2026-05-03T09:38:26Z</time></trkpt><trkpt lat="44.120096366428655" lon="7.9419987639701635"><ele>1272.0</ele><time>2026-05-03T09:38:27Z</time></trkpt><trkpt lat="44.120109799011466" lon="7.942146727807399"><ele>1272.0</ele><time>2026-05-03T09:38:28Z</time></trkpt><trkpt lat="44.120119051390326" lon="7.9422940895489305"><ele>1272.0</ele><time>2026-05-03T09:38:29Z</time></trkpt><trkpt lat="44.12012830964113" lon="7.942438002949249"><ele>1270.4</ele><time>2026-05-03T09:38:30Z</time></trkpt><trkpt lat="44.12013732296761" lon="7.942578109100095"><ele>1268.8000000000002</ele><time>2026-05-03T09:38:31Z</time></trkpt><trkpt lat="44.120147388412576" lon="7.9427125629791515"><ele>1267.2</ele><time>2026-05-03T09:38:32Z</time></trkpt><trkpt lat="44.12016134968286" lon="7.942855931880562"><ele>1265.6000000000001</ele><time>2026-05-03T09:38:33Z</time></trkpt><trkpt lat="44.12019726123842" lon="7.942968847046688"><ele>1264.0</ele><time>2026-05-03T09:38:34Z</time></trkpt><trkpt lat="44.120231904510575" lon="7.9430794323413965"><ele>1264.0</ele><time>2026-05-03T09:38:35Z</time></trkpt><trkpt lat="44.12027130578784" lon="7.9432037335886685"><ele>1264.0</ele><time>2026-05-03T09:38:36Z</time></trkpt><trkpt lat="44.120325449373645" lon="7.943340985820602"><ele>1264.0</ele><time>2026-05-03T09:38:37Z</time></trkpt><trkpt lat="44.12035132530711" lon="7.943458126014995"><ele>1264.0</ele><time>2026-05-03T09:38:38Z</time></trkpt><trkpt lat="44.12037203563988" lon="7.943572710075298"><ele>1264.0</ele><time>2026-05-03T09:38:39Z</time></trkpt><trkpt lat="44.120388265502385" lon="7.943716954983534"><ele>1262.6000000000001</ele><time>2026-05-03T09:38:40Z</time></trkpt><trkpt lat="44.120420694331905" lon="7.94385969922743"><ele>1261.2</ele><time>2026-05-03T09:38:41Z</time></trkpt><trkpt lat="44.1204736181687" lon="7.943979415379929"><ele>1259.8000000000002</ele><time>2026-05-03T09:38:42Z</time></trkpt><trkpt lat="44.12052452468946" lon="7.944098933462406"><ele>1258.4</ele><time>2026-05-03T09:38:43Z</time></trkpt><trkpt lat="44.120585005708136" lon="7.944229572122693"><ele>1257.0</ele><time>2026-05-03T09:38:44Z</time></trkpt><trkpt lat="44.120651002324536" lon="7.944358569569172"><ele>1255.4</ele><time>2026-05-03T09:38:45Z</time></trkpt><trkpt lat="44.120724173938534" lon="7.944485043893712"><ele>1253.8000000000002</ele><time>2026-05-03T09:38:46Z</time></trkpt><trkpt lat="44.120775025969316" lon="7.944608510532794"><ele>1252.2</ele><time>2026-05-03T09:38:47Z</time></trkpt><trkpt lat="44.12083189552593" lon="7.944700146354582"><ele>1250.6000000000001</ele><time>2026-05-03T09:38:48Z</time></trkpt><trkpt lat="44.12084952471377" lon="7.944819379335223"><ele>1249.0</ele><time>2026-05-03T09:38:49Z</time></trkpt><trkpt lat="44.120879504055345" lon="7.944943896030742"><ele>1252.6000000000001</ele><time>2026-05-03T09:38:50Z</time></trkpt><trkpt lat="44.12092487455748" lon="7.945066181062066"><ele>1256.2</ele><time>2026-05-03T09:38:51Z</time></trkpt><trkpt lat="44.12096449630226" lon="7.945192288762589"><ele>1259.8000000000002</ele><time>2026-05-03T09:38:52Z</time></trkpt><trkpt lat="44.12099185402218" lon="7.945313736496419"><ele>1263.4</ele><time>2026-05-03T09:38:53Z</time></trkpt><trkpt lat="44.12103195045026" lon="7.945456468946579"><ele>1267.0</ele><time>2026-05-03T09:38:54Z</time></trkpt><trkpt lat="44.1211018576122" lon="7.945590832982305"><ele>1267.0</ele><time>2026-05-03T09:38:55Z</time></trkpt><trkpt lat="44.12114940306706" lon="7.945721082884529"><ele>1267.0</ele><time>2026-05-03T09:38:56Z</time></trkpt><trkpt lat="44.12121200627206" lon="7.94583907393649"><ele>1267.0</ele><time>2026-05-03T09:38:57Z</time></trkpt><trkpt lat="44.12128098321255" lon="7.945962020534497"><ele>1267.0</ele><time>2026-05-03T09:38:58Z</time></trkpt><trkpt lat="44.12135486812484" lon="7.946087238664052"><ele>1267.0</ele><time>2026-05-03T09:38:59Z</time></trkpt><trkpt lat="44.121428215871916" lon="7.946200336406194"><ele>1267.0</ele><time>2026-05-03T09:39:00Z</time></trkpt><trkpt lat="44.121487866940804" lon="7.946314357696131"><ele>1267.0</ele><time>2026-05-03T09:39:01Z</time></trkpt><trkpt lat="44.121566774623304" lon="7.946407120621842"><ele>1267.0</ele><time>2026-05-03T09:39:02Z</time></trkpt><trkpt lat="44.12165691928878" lon="7.946518493688912"><ele>1267.0</ele><time>2026-05-03T09:39:03Z</time></trkpt><trkpt lat="44.12175315772869" lon="7.946627886537315"><ele>1267.0</ele><time>2026-05-03T09:39:04Z</time></trkpt><trkpt lat="44.12184337438237" lon="7.946740368175242"><ele>1267.0</ele><time>2026-05-03T09:39:05Z</time></trkpt><trkpt lat="44.121919184518205" lon="7.946845007713999"><ele>1267.0</ele><time>2026-05-03T09:39:06Z</time></trkpt><trkpt lat="44.121994268234644" lon="7.946957673932152"><ele>1267.0</ele><time>2026-05-03T09:39:07Z</time></trkpt><trkpt lat="44.12207007083845" lon="7.94706613451389"><ele>1267.0</ele><time>2026-05-03T09:39:08Z</time></trkpt><trkpt lat="44.122141436758334" lon="7.947191378113903"><ele>1267.0</ele><time>2026-05-03T09:39:09Z</time></trkpt><trkpt lat="44.12221274312504" lon="7.94730799316622"><ele>1267.0</ele><time>2026-05-03T09:39:10Z</time></trkpt><trkpt lat="44.12227200102601" lon="7.9474421302494225"><ele>1267.0</ele><time>2026-05-03T09:39:11Z</time></trkpt><trkpt lat="44.122327748171564" lon="7.947565733229852"><ele>1267.0</ele><time>2026-05-03T09:39:12Z</time></trkpt><trkpt lat="44.12238733239038" lon="7.9476968520495666"><ele>1267.0</ele><time>2026-05-03T09:39:13Z</time></trkpt><trkpt lat="44.122462310759175" lon="7.947786938378697"><ele>1267.0</ele><time>2026-05-03T09:39:14Z</time></trkpt><trkpt lat="44.12252286007769" lon="7.947869525743521"><ele>1270.2</ele><time>2026-05-03T09:39:15Z</time></trkpt><trkpt lat="44.122592000594985" lon="7.947949790541934"><ele>1273.4</ele><time>2026-05-03T09:39:16Z</time></trkpt><trkpt lat="44.12268705516877" lon="7.947994268983228"><ele>1276.6000000000001</ele><time>2026-05-03T09:39:17Z</time></trkpt><trkpt lat="44.12277634828383" lon="7.9480705750282565"><ele>1279.8000000000002</ele><time>2026-05-03T09:39:18Z</time></trkpt><trkpt lat="44.12286437932894" lon="7.948143156626361"><ele>1283.0</ele><time>2026-05-03T09:39:19Z</time></trkpt><trkpt lat="44.12296140651581" lon="7.948208432686377"><ele>1283.0</ele><time>2026-05-03T09:39:20Z</time></trkpt><trkpt lat="44.12304693616946" lon="7.948265645647742"><ele>1283.0</ele><time>2026-05-03T09:39:21Z</time></trkpt><trkpt lat="44.12312800306381" lon="7.948317234970488"><ele>1283.0</ele><time>2026-05-03T09:39:22Z</time></trkpt><trkpt lat="44.12321675017817" lon="7.948371432907205"><ele>1283.0</ele><time>2026-05-03T09:39:23Z</time></trkpt><trkpt lat="44.12330904406164" lon="7.948417807690878"><ele>1283.0</ele><time>2026-05-03T09:39:24Z</time></trkpt><trkpt lat="44.123396342403225" lon="7.948452594032929"><ele>1281.6000000000001</ele><time>2026-05-03T09:39:25Z</time></trkpt><trkpt lat="44.123482267884484" lon="7.948479002660741"><ele>1280.2</ele><time>2026-05-03T09:39:26Z</time></trkpt><trkpt lat="44.123581112084054" lon="7.948492860865178"><ele>1278.8</ele><time>2026-05-03T09:39:27Z</time></trkpt><trkpt lat="44.12367412937086" lon="7.948503096606562"><ele>1277.4</ele><time>2026-05-03T09:39:28Z</time></trkpt><trkpt lat="44.12377253088562" lon="7.948503012681488"><ele>1276.0</ele><time>2026-05-03T09:39:29Z</time></trkpt><trkpt lat="44.12386245182571" lon="7.948497709279419"><ele>1276.0</ele><time>2026-05-03T09:39:30Z</time></trkpt><trkpt lat="44.12396961282422" lon="7.9484811568447835"><ele>1276.0</ele><time>2026-05-03T09:39:31Z</time></trkpt><trkpt lat="44.12408491423499" lon="7.9484469718974715"><ele>1276.0</ele><time>2026-05-03T09:39:32Z</time></trkpt><trkpt lat="44.12419745148495" lon="7.948418906518908"><ele>1276.0</ele><time>2026-05-03T09:39:33Z</time></trkpt><trkpt lat="44.12430432278972" lon="7.94836463458567"><ele>1284.0</ele><time>2026-05-03T09:39:34Z</time></trkpt><trkpt lat="44.124404797344674" lon="7.948293442344815"><ele>1292.0</ele><time>2026-05-03T09:39:35Z</time></trkpt><trkpt lat="44.12450493376277" lon="7.948227082820041"><ele>1300.0</ele><time>2026-05-03T09:39:36Z</time></trkpt><trkpt lat="44.12461596770603" lon="7.948152695122843"><ele>1308.0</ele><time>2026-05-03T09:39:37Z</time></trkpt><trkpt lat="44.12473109435833" lon="7.948071100229939"><ele>1308.0</ele><time>2026-05-03T09:39:38Z</time></trkpt><trkpt lat="44.12483677704403" lon="7.947993614646418"><ele>1308.0</ele><time>2026-05-03T09:39:39Z</time></trkpt><trkpt lat="44.12493675188851" lon="7.947902629786954"><ele>1308.0</ele><time>2026-05-03T09:39:40Z</time></trkpt><trkpt lat="44.12502280744121" lon="7.947819266056596"><ele>1308.0</ele><time>2026-05-03T09:39:41Z</time></trkpt><trkpt lat="44.12509616982474" lon="7.947706724691598"><ele>1305.0</ele><time>2026-05-03T09:39:42Z</time></trkpt><trkpt lat="44.12519907163491" lon="7.9475958768067185"><ele>1302.0</ele><time>2026-05-03T09:39:43Z</time></trkpt><trkpt lat="44.125269279008705" lon="7.947466273070044"><ele>1299.0</ele><time>2026-05-03T09:39:44Z</time></trkpt><trkpt lat="44.12535219418329" lon="7.947338236967986"><ele>1296.0</ele><time>2026-05-03T09:39:45Z</time></trkpt><trkpt lat="44.12543119632252" lon="7.947210970661076"><ele>1300.1999999999998</ele><time>2026-05-03T09:39:46Z</time></trkpt><trkpt lat="44.125517558779684" lon="7.947105453102354"><ele>1304.3999999999999</ele><time>2026-05-03T09:39:47Z</time></trkpt><trkpt lat="44.12559767035361" lon="7.9470149547440325"><ele>1308.6</ele><time>2026-05-03T09:39:48Z</time></trkpt><trkpt lat="44.125664685523965" lon="7.946926992274723"><ele>1312.8</ele><time>2026-05-03T09:39:49Z</time></trkpt><trkpt lat="44.1256968218152" lon="7.9467988007948795"><ele>1317.0</ele><time>2026-05-03T09:39:50Z</time></trkpt><trkpt lat="44.12575419876456" lon="7.946724829853693"><ele>1317.0</ele><time>2026-05-03T09:39:51Z</time></trkpt><trkpt lat="44.12580833719574" lon="7.946654465938656"><ele>1317.0</ele><time>2026-05-03T09:39:52Z</time></trkpt><trkpt lat="44.12587765261133" lon="7.94661025231417"><ele>1317.0</ele><time>2026-05-03T09:39:53Z</time></trkpt><trkpt lat="44.125944611210485" lon="7.946690846310318"><ele>1317.0</ele><time>2026-05-03T09:39:54Z</time></trkpt><trkpt lat="44.12600637490754" lon="7.94672591323636"><ele>1317.0</ele><time>2026-05-03T09:39:55Z</time></trkpt><trkpt lat="44.12606314244086" lon="7.946785957204856"><ele>1317.0</ele><time>2026-05-03T09:39:56Z</time></trkpt><trkpt lat="44.126065019304214" lon="7.946932847385977"><ele>1317.0</ele><time>2026-05-03T09:39:58Z</time></trkpt><trkpt lat="44.12600856295932" lon="7.947106438285797"><ele>1317.0</ele><time>2026-05-03T09:40:00Z</time></trkpt><trkpt lat="44.125987055943455" lon="7.9472558115104315"><ele>1317.0</ele><time>2026-05-03T09:40:01Z</time></trkpt><trkpt lat="44.125972302646" lon="7.947419932950085"><ele>1317.0</ele><time>2026-05-03T09:40:02Z</time></trkpt><trkpt lat="44.125959005687754" lon="7.9475794415696726"><ele>1317.8</ele><time>2026-05-03T09:40:03Z</time></trkpt><trkpt lat="44.12594921857171" lon="7.947731814943529"><ele>1318.6</ele><time>2026-05-03T09:40:04Z</time></trkpt><trkpt lat="44.12593337701044" lon="7.947870125548739"><ele>1319.3999999999999</ele><time>2026-05-03T09:40:05Z</time></trkpt><trkpt lat="44.12591033198567" lon="7.947993151288804"><ele>1320.1999999999998</ele><time>2026-05-03T09:40:06Z</time></trkpt><trkpt lat="44.125877245009754" lon="7.948147709643194"><ele>1321.0</ele><time>2026-05-03T09:40:07Z</time></trkpt><trkpt lat="44.1258401153177" lon="7.948300782603161"><ele>1322.1999999999998</ele><time>2026-05-03T09:40:08Z</time></trkpt><trkpt lat="44.12581125255592" lon="7.948438402993524"><ele>1323.3999999999999</ele><time>2026-05-03T09:40:09Z</time></trkpt><trkpt lat="44.12579044039616" lon="7.948567825478621"><ele>1324.6</ele><time>2026-05-03T09:40:10Z</time></trkpt><trkpt lat="44.12578270422122" lon="7.948688474413515"><ele>1325.8</ele><time>2026-05-03T09:40:11Z</time></trkpt><trkpt lat="44.125791007783754" lon="7.94880853302297"><ele>1327.0</ele><time>2026-05-03T09:40:12Z</time></trkpt><trkpt lat="44.12577879252597" lon="7.9489486909009965"><ele>1327.0</ele><time>2026-05-03T09:40:13Z</time></trkpt><trkpt lat="44.125767291532" lon="7.949073150892441"><ele>1327.0</ele><time>2026-05-03T09:40:14Z</time></trkpt><trkpt lat="44.12574908828758" lon="7.949183783171909"><ele>1327.0</ele><time>2026-05-03T09:40:15Z</time></trkpt><trkpt lat="44.125735111356974" lon="7.949298095303095"><ele>1327.0</ele><time>2026-05-03T09:40:16Z</time></trkpt><trkpt lat="44.125742428707" lon="7.949418409418996"><ele>1327.0</ele><time>2026-05-03T09:40:17Z</time></trkpt><trkpt lat="44.125744896554856" lon="7.949550992220501"><ele>1327.0</ele><time>2026-05-03T09:40:18Z</time></trkpt><trkpt lat="44.12573176951065" lon="7.949683021362952"><ele>1328.1999999999998</ele><time>2026-05-03T09:40:19Z</time></trkpt><trkpt lat="44.125738711139704" lon="7.949817208371354"><ele>1329.4</ele><time>2026-05-03T09:40:20Z</time></trkpt><trkpt lat="44.12574260026817" lon="7.949949481348235"><ele>1330.6</ele><time>2026-05-03T09:40:21Z</time></trkpt><trkpt lat="44.125751758482764" lon="7.950086900790358"><ele>1331.8000000000002</ele><time>2026-05-03T09:40:22Z</time></trkpt><trkpt lat="44.12577002654678" lon="7.95023265261136"><ele>1333.0</ele><time>2026-05-03T09:40:23Z</time></trkpt><trkpt lat="44.12582124390531" lon="7.950383782612514"><ele>1333.0</ele><time>2026-05-03T09:40:24Z</time></trkpt><trkpt lat="44.12585696101969" lon="7.950537370817026"><ele>1333.0</ele><time>2026-05-03T09:40:25Z</time></trkpt><trkpt lat="44.12587201787464" lon="7.950685354709223"><ele>1333.0</ele><time>2026-05-03T09:40:26Z</time></trkpt><trkpt lat="44.125890403333415" lon="7.950838546503415"><ele>1333.0</ele><time>2026-05-03T09:40:27Z</time></trkpt><trkpt lat="44.125905415009875" lon="7.950989937361853"><ele>1333.0</ele><time>2026-05-03T09:40:28Z</time></trkpt><trkpt lat="44.12592103354141" lon="7.951134155140236"><ele>1332.0</ele><time>2026-05-03T09:40:29Z</time></trkpt><trkpt lat="44.12594328947729" lon="7.951275340403048"><ele>1331.0</ele><time>2026-05-03T09:40:30Z</time></trkpt><trkpt lat="44.12599308073621" lon="7.95138420027172"><ele>1330.0</ele><time>2026-05-03T09:40:31Z</time></trkpt><trkpt lat="44.12603537699039" lon="7.951498070075361"><ele>1329.0</ele><time>2026-05-03T09:40:32Z</time></trkpt><trkpt lat="44.12609980753916" lon="7.95161206466744"><ele>1328.0</ele><time>2026-05-03T09:40:33Z</time></trkpt><trkpt lat="44.126167328463694" lon="7.951734874539735"><ele>1325.0</ele><time>2026-05-03T09:40:34Z</time></trkpt><trkpt lat="44.126211522453495" lon="7.951878618594798"><ele>1322.0</ele><time>2026-05-03T09:40:35Z</time></trkpt><trkpt lat="44.12627367304896" lon="7.95203136893429"><ele>1319.0</ele><time>2026-05-03T09:40:36Z</time></trkpt><trkpt lat="44.126337463985664" lon="7.952189918345657"><ele>1316.0</ele><time>2026-05-03T09:40:37Z</time></trkpt><trkpt lat="44.12640302261061" lon="7.952334345722121"><ele>1316.0</ele><time>2026-05-03T09:40:38Z</time></trkpt><trkpt lat="44.12647922234916" lon="7.952461931850073"><ele>1316.0</ele><time>2026-05-03T09:40:39Z</time></trkpt><trkpt lat="44.12654788585476" lon="7.952592132739652"><ele>1316.0</ele><time>2026-05-03T09:40:40Z</time></trkpt><trkpt lat="44.12661856680449" lon="7.952703071457203"><ele>1316.0</ele><time>2026-05-03T09:40:41Z</time></trkpt><trkpt lat="44.126675174886664" lon="7.952760866104333"><ele>1316.0</ele><time>2026-05-03T09:40:42Z</time></trkpt><trkpt lat="44.126738113939595" lon="7.952810996703669"><ele>1318.5</ele><time>2026-05-03T09:40:43Z</time></trkpt><trkpt lat="44.12681700311518" lon="7.95281002193539"><ele>1321.0</ele><time>2026-05-03T09:40:44Z</time></trkpt><trkpt lat="44.126894468199254" lon="7.952794220390048"><ele>1323.5</ele><time>2026-05-03T09:40:45Z</time></trkpt><trkpt lat="44.12697394095068" lon="7.952769824978114"><ele>1326.0</ele><time>2026-05-03T09:40:46Z</time></trkpt><trkpt lat="44.12706162662089" lon="7.952726316129428"><ele>1328.5</ele><time>2026-05-03T09:40:47Z</time></trkpt><trkpt lat="44.127146385051915" lon="7.952685145495533"><ele>1331.0</ele><time>2026-05-03T09:40:48Z</time></trkpt><trkpt lat="44.12723195144004" lon="7.952653671966904"><ele>1331.0</ele><time>2026-05-03T09:40:49Z</time></trkpt><trkpt lat="44.1273104323104" lon="7.952630147808073"><ele>1331.0</ele><time>2026-05-03T09:40:50Z</time></trkpt><trkpt lat="44.12737499154459" lon="7.952595612264709"><ele>1331.0</ele><time>2026-05-03T09:40:51Z</time></trkpt><trkpt lat="44.127437442045554" lon="7.952556552647942"><ele>1331.0</ele><time>2026-05-03T09:40:52Z</time></trkpt><trkpt lat="44.127526230415356" lon="7.952642569036881"><ele>1331.0</ele><time>2026-05-03T09:40:54Z</time></trkpt><trkpt lat="44.12755579801266" lon="7.952734596417273"><ele>1331.0</ele><time>2026-05-03T09:40:55Z</time></trkpt><trkpt lat="44.12759919164126" lon="7.952816115425753"><ele>1334.1666666666667</ele><time>2026-05-03T09:40:56Z</time></trkpt><trkpt lat="44.127646473903226" lon="7.952900650082066"><ele>1337.3333333333335</ele><time>2026-05-03T09:40:57Z</time></trkpt><trkpt lat="44.12769901022748" lon="7.95298682318504"><ele>1340.5</ele><time>2026-05-03T09:40:58Z</time></trkpt><trkpt lat="44.12775852162104" lon="7.953078650033954"><ele>1343.6666666666667</ele><time>2026-05-03T09:40:59Z</time></trkpt><trkpt lat="44.127816713899826" lon="7.95316343097289"><ele>1346.8333333333333</ele><time>2026-05-03T09:41:00Z</time></trkpt><trkpt lat="44.12789576248414" lon="7.953237392386164"><ele>1350.0</ele><time>2026-05-03T09:41:01Z</time></trkpt><trkpt lat="44.12797496935169" lon="7.953295894442442"><ele>1350.0</ele><time>2026-05-03T09:41:02Z</time></trkpt><trkpt lat="44.128067581388244" lon="7.9533432367880605"><ele>1350.0</ele><time>2026-05-03T09:41:03Z</time></trkpt><trkpt lat="44.12816890589478" lon="7.953386428035903"><ele>1350.0</ele><time>2026-05-03T09:41:04Z</time></trkpt><trkpt lat="44.128263146864164" lon="7.953438193535868"><ele>1350.0</ele><time>2026-05-03T09:41:05Z</time></trkpt><trkpt lat="44.128349846089066" lon="7.953491367036022"><ele>1350.0</ele><time>2026-05-03T09:41:06Z</time></trkpt><trkpt lat="44.12845147263023" lon="7.9535599468459175"><ele>1350.4</ele><time>2026-05-03T09:41:07Z</time></trkpt><trkpt lat="44.12856206926762" lon="7.953609685986134"><ele>1350.8</ele><time>2026-05-03T09:41:08Z</time></trkpt><trkpt lat="44.12866014749085" lon="7.953663227755002"><ele>1351.1999999999998</ele><time>2026-05-03T09:41:09Z</time></trkpt><trkpt lat="44.12874710602237" lon="7.953723472590807"><ele>1351.6</ele><time>2026-05-03T09:41:10Z</time></trkpt><trkpt lat="44.12881795901287" lon="7.953820788411352"><ele>1352.0</ele><time>2026-05-03T09:41:11Z</time></trkpt><trkpt lat="44.12888776406153" lon="7.953921993348675"><ele>1352.0</ele><time>2026-05-03T09:41:12Z</time></trkpt><trkpt lat="44.12895675921659" lon="7.954040678871126"><ele>1352.0</ele><time>2026-05-03T09:41:13Z</time></trkpt><trkpt lat="44.12902929580578" lon="7.954174720276986"><ele>1352.0</ele><time>2026-05-03T09:41:14Z</time></trkpt><trkpt lat="44.12909181167722" lon="7.954293017712116"><ele>1352.0</ele><time>2026-05-03T09:41:15Z</time></trkpt><trkpt lat="44.12916169709971" lon="7.954414677196418"><ele>1352.0</ele><time>2026-05-03T09:41:16Z</time></trkpt><trkpt lat="44.129237683658516" lon="7.954530050851299"><ele>1356.0</ele><time>2026-05-03T09:41:17Z</time></trkpt><trkpt lat="44.12932316154359" lon="7.954637031596929"><ele>1360.0</ele><time>2026-05-03T09:41:18.001Z</time></trkpt><trkpt lat="44.12940613778287" lon="7.9547252414208005"><ele>1364.0</ele><time>2026-05-03T09:41:19.001Z</time></trkpt><trkpt lat="44.12946875229726" lon="7.954816657237992"><ele>1368.0</ele><time>2026-05-03T09:41:20.001Z</time></trkpt><trkpt lat="44.1295134848843" lon="7.954919357361231"><ele>1372.0</ele><time>2026-05-03T09:41:21.001Z</time></trkpt><trkpt lat="44.12956249858616" lon="7.955044764432278"><ele>1373.0</ele><time>2026-05-03T09:41:22.001Z</time></trkpt><trkpt lat="44.12963023587951" lon="7.9551616225355675"><ele>1374.0</ele><time>2026-05-03T09:41:23.001Z</time></trkpt><trkpt lat="44.12972652148686" lon="7.955259662227375"><ele>1375.0</ele><time>2026-05-03T09:41:24.001Z</time></trkpt><trkpt lat="44.12979060720956" lon="7.955337822866017"><ele>1376.0</ele><time>2026-05-03T09:41:25.001Z</time></trkpt><trkpt lat="44.12983910269565" lon="7.9554079261980934"><ele>1377.0</ele><time>2026-05-03T09:41:26.001Z</time></trkpt><trkpt lat="44.1298893785031" lon="7.955559857045153"><ele>1377.0</ele><time>2026-05-03T09:41:28.001Z</time></trkpt><trkpt lat="44.129843902752775" lon="7.955687952760903"><ele>1377.0</ele><time>2026-05-03T09:41:30.001Z</time></trkpt><trkpt lat="44.12976260249982" lon="7.9556829724608225"><ele>1377.0</ele><time>2026-05-03T09:41:31.001Z</time></trkpt><trkpt lat="44.12966680609428" lon="7.955772871999095"><ele>1377.0</ele><time>2026-05-03T09:41:32.001Z</time></trkpt><trkpt lat="44.1295777272441" lon="7.9558803195693475"><ele>1377.0</ele><time>2026-05-03T09:41:33.001Z</time></trkpt><trkpt lat="44.12949482337049" lon="7.9559995006174"><ele>1384.0</ele><time>2026-05-03T09:41:34.001Z</time></trkpt><trkpt lat="44.12940185111576" lon="7.956107353931364"><ele>1391.0</ele><time>2026-05-03T09:41:35.001Z</time></trkpt><trkpt lat="44.12929618260063" lon="7.9562081755588565"><ele>1398.0</ele><time>2026-05-03T09:41:36.001Z</time></trkpt><trkpt lat="44.129186755988684" lon="7.956298333337489"><ele>1405.0</ele><time>2026-05-03T09:41:37.001Z</time></trkpt><trkpt lat="44.12906777072204" lon="7.956390760332366"><ele>1406.5</ele><time>2026-05-03T09:41:38.001Z</time></trkpt><trkpt lat="44.128944296782684" lon="7.956489115740253"><ele>1408.0</ele><time>2026-05-03T09:41:39.001Z</time></trkpt><trkpt lat="44.128829078326156" lon="7.9565928628775895"><ele>1409.5</ele><time>2026-05-03T09:41:40.001Z</time></trkpt><trkpt lat="44.128707509051736" lon="7.9567080353706965"><ele>1411.0</ele><time>2026-05-03T09:41:41.001Z</time></trkpt><trkpt lat="44.1285984163546" lon="7.956829845004474"><ele>1411.0</ele><time>2026-05-03T09:41:42.001Z</time></trkpt><trkpt lat="44.12849482474284" lon="7.9569314474631865"><ele>1411.0</ele><time>2026-05-03T09:41:43.001Z</time></trkpt><trkpt lat="44.12838945226716" lon="7.957015280987307"><ele>1411.0</ele><time>2026-05-03T09:41:44.001Z</time></trkpt><trkpt lat="44.12829741106452" lon="7.957137119174906"><ele>1411.0</ele><time>2026-05-03T09:41:45.001Z</time></trkpt><trkpt lat="44.12821247745058" lon="7.957257510502188"><ele>1410.5</ele><time>2026-05-03T09:41:46.001Z</time></trkpt><trkpt lat="44.12813208506267" lon="7.957369515575025"><ele>1410.0</ele><time>2026-05-03T09:41:47.001Z</time></trkpt><trkpt lat="44.12804741828144" lon="7.957485623111795"><ele>1409.5</ele><time>2026-05-03T09:41:48.001Z</time></trkpt><trkpt lat="44.12795620058071" lon="7.957606190066899"><ele>1409.0</ele><time>2026-05-03T09:41:49.001Z</time></trkpt><trkpt lat="44.127874018614385" lon="7.95771185204429"><ele>1409.0</ele><time>2026-05-03T09:41:50.001Z</time></trkpt><trkpt lat="44.127783891738545" lon="7.9578047091039865"><ele>1409.0</ele><time>2026-05-03T09:41:51.001Z</time></trkpt><trkpt lat="44.1276954697818" lon="7.957916360240568"><ele>1409.0</ele><time>2026-05-03T09:41:52.001Z</time></trkpt><trkpt lat="44.127607801530495" lon="7.958068530908353"><ele>1409.0</ele><time>2026-05-03T09:41:53.001Z</time></trkpt><trkpt lat="44.127514305503375" lon="7.958223711411295"><ele>1409.0</ele><time>2026-05-03T09:41:54.001Z</time></trkpt><trkpt lat="44.127436535890865" lon="7.958352726775885"><ele>1409.0</ele><time>2026-05-03T09:41:55.001Z</time></trkpt><trkpt lat="44.12736749877724" lon="7.958464495909194"><ele>1409.0</ele><time>2026-05-03T09:41:56.001Z</time></trkpt><trkpt lat="44.127302181677344" lon="7.958568561023255"><ele>1409.0</ele><time>2026-05-03T09:41:57.001Z</time></trkpt><trkpt lat="44.12725112815202" lon="7.958692153048995"><ele>1409.0</ele><time>2026-05-03T09:41:58.001Z</time></trkpt><trkpt lat="44.127241336727884" lon="7.958805092975101"><ele>1404.6666666666667</ele><time>2026-05-03T09:41:59.001Z</time></trkpt><trkpt lat="44.12722938671765" lon="7.958906814137165"><ele>1400.3333333333335</ele><time>2026-05-03T09:42:00.001Z</time></trkpt><trkpt lat="44.127219537577" lon="7.959006365042782"><ele>1396.0</ele><time>2026-05-03T09:42:01.001Z</time></trkpt><trkpt lat="44.12723337269697" lon="7.959127196081238"><ele>1391.6666666666667</ele><time>2026-05-03T09:42:02.001Z</time></trkpt><trkpt lat="44.12725901583803" lon="7.959262391600848"><ele>1387.3333333333333</ele><time>2026-05-03T09:42:03.001Z</time></trkpt><trkpt lat="44.127296255495544" lon="7.959378037154598"><ele>1383.0</ele><time>2026-05-03T09:42:04.001Z</time></trkpt><trkpt lat="44.127340917250635" lon="7.959479020655892"><ele>1389.2</ele><time>2026-05-03T09:42:05.001Z</time></trkpt><trkpt lat="44.12739667688585" lon="7.959599441218392"><ele>1395.4</ele><time>2026-05-03T09:42:06.001Z</time></trkpt><trkpt lat="44.12742318019295" lon="7.959703809699194"><ele>1401.6000000000001</ele><time>2026-05-03T09:42:07.001Z</time></trkpt><trkpt lat="44.1274579577186" lon="7.959806988295185"><ele>1407.8000000000002</ele><time>2026-05-03T09:42:08.001Z</time></trkpt><trkpt lat="44.12748053801354" lon="7.959934454327058"><ele>1414.0</ele><time>2026-05-03T09:42:09.001Z</time></trkpt><trkpt lat="44.12753437034845" lon="7.960069577170389"><ele>1414.0</ele><time>2026-05-03T09:42:10.001Z</time></trkpt><trkpt lat="44.127562427623126" lon="7.960219506616888"><ele>1414.0</ele><time>2026-05-03T09:42:11.001Z</time></trkpt><trkpt lat="44.127602638614036" lon="7.960377696093945"><ele>1414.0</ele><time>2026-05-03T09:42:12.001Z</time></trkpt><trkpt lat="44.12764216190302" lon="7.960553506543361"><ele>1414.0</ele><time>2026-05-03T09:42:13.001Z</time></trkpt><trkpt lat="44.127669842012104" lon="7.960738703286671"><ele>1415.5</ele><time>2026-05-03T09:42:14.001Z</time></trkpt><trkpt lat="44.12768938143591" lon="7.960925725280464"><ele>1417.0</ele><time>2026-05-03T09:42:15.001Z</time></trkpt><trkpt lat="44.1277200835663" lon="7.961087496327019"><ele>1418.5</ele><time>2026-05-03T09:42:16.001Z</time></trkpt><trkpt lat="44.12776408891173" lon="7.961262869197769"><ele>1420.0</ele><time>2026-05-03T09:42:17.001Z</time></trkpt><trkpt lat="44.12782716182979" lon="7.961431583975568"><ele>1420.0</ele><time>2026-05-03T09:42:18.001Z</time></trkpt><trkpt lat="44.12789262738066" lon="7.961581234872896"><ele>1420.0</ele><time>2026-05-03T09:42:19.001Z</time></trkpt><trkpt lat="44.1279448035291" lon="7.961726728734729"><ele>1420.0</ele><time>2026-05-03T09:42:20.001Z</time></trkpt><trkpt lat="44.12794556916816" lon="7.961903282333223"><ele>1420.0</ele><time>2026-05-03T09:42:21.001Z</time></trkpt><trkpt lat="44.1279545069157" lon="7.962090294590513"><ele>1423.75</ele><time>2026-05-03T09:42:22.001Z</time></trkpt><trkpt lat="44.12797941200418" lon="7.9622667054260905"><ele>1427.5</ele><time>2026-05-03T09:42:23.001Z</time></trkpt><trkpt lat="44.1280039179456" lon="7.9624386096237405"><ele>1431.25</ele><time>2026-05-03T09:42:24.001Z</time></trkpt><trkpt lat="44.128058580884655" lon="7.962595268407318"><ele>1435.0</ele><time>2026-05-03T09:42:25.001Z</time></trkpt><trkpt lat="44.128132407557" lon="7.962745157465443"><ele>1439.5</ele><time>2026-05-03T09:42:26.001Z</time></trkpt><trkpt lat="44.12817737665666" lon="7.962915910398991"><ele>1444.0</ele><time>2026-05-03T09:42:27.001Z</time></trkpt><trkpt lat="44.12819810288438" lon="7.963068320184035"><ele>1448.5</ele><time>2026-05-03T09:42:28.001Z</time></trkpt><trkpt lat="44.12818337796137" lon="7.963214433127943"><ele>1453.0</ele><time>2026-05-03T09:42:29.001Z</time></trkpt><trkpt lat="44.12817630878073" lon="7.963400729613668"><ele>1453.4</ele><time>2026-05-03T09:42:30.001Z</time></trkpt><trkpt lat="44.128197095671325" lon="7.963592078302082"><ele>1453.8000000000002</ele><time>2026-05-03T09:42:31.001Z</time></trkpt><trkpt lat="44.12823397919571" lon="7.963722264948688"><ele>1454.2</ele><time>2026-05-03T09:42:32.001Z</time></trkpt><trkpt lat="44.12826132464698" lon="7.963842717910247"><ele>1454.6</ele><time>2026-05-03T09:42:33.001Z</time></trkpt><trkpt lat="44.12828063399571" lon="7.963962561160811"><ele>1455.0</ele><time>2026-05-03T09:42:35.001Z</time></trkpt><trkpt lat="44.128168573831935" lon="7.964119307549395"><ele>1455.0</ele><time>2026-05-03T09:42:38.001Z</time></trkpt><trkpt lat="44.1282326454605" lon="7.964173379883076"><ele>1455.0</ele><time>2026-05-03T09:42:41.001Z</time></trkpt><trkpt lat="44.12832192091882" lon="7.964174403472099"><ele>1455.0</ele><time>2026-05-03T09:42:43.001Z</time></trkpt><trkpt lat="44.128475667561034" lon="7.963962912927302"><ele>1455.0</ele><time>2026-05-03T09:42:44.001Z</time></trkpt><trkpt lat="44.1285416401939" lon="7.964011537058398"><ele>1455.0</ele><time>2026-05-03T09:42:45.001Z</time></trkpt><trkpt lat="44.12860962229838" lon="7.964057789237334"><ele>1455.0</ele><time>2026-05-03T09:42:46.001Z</time></trkpt><trkpt lat="44.12868346718607" lon="7.964100441982848"><ele>1455.0</ele><time>2026-05-03T09:42:47.001Z</time></trkpt><trkpt lat="44.12876173536488" lon="7.9641379039150175"><ele>1455.0</ele><time>2026-05-03T09:42:48.001Z</time></trkpt><trkpt lat="44.128844271827944" lon="7.964171917017567"><ele>1455.0</ele><time>2026-05-03T09:42:49.001Z</time></trkpt><trkpt lat="44.12892612301484" lon="7.964195900028521"><ele>1455.0</ele><time>2026-05-03T09:42:50.001Z</time></trkpt><trkpt lat="44.12902055024718" lon="7.964213632010768"><ele>1451.4</ele><time>2026-05-03T09:42:51.001Z</time></trkpt><trkpt lat="44.12912198676003" lon="7.964223808988214"><ele>1447.8</ele><time>2026-05-03T09:42:52.001Z</time></trkpt><trkpt lat="44.12921293537668" lon="7.964241996512183"><ele>1444.1999999999998</ele><time>2026-05-03T09:42:53.001Z</time></trkpt><trkpt lat="44.12930523016309" lon="7.964258804629813"><ele>1440.6</ele><time>2026-05-03T09:42:54.001Z</time></trkpt><trkpt lat="44.12939437626526" lon="7.9642795820439884"><ele>1437.0</ele><time>2026-05-03T09:42:55.001Z</time></trkpt><trkpt lat="44.12947720187132" lon="7.964268176398482"><ele>1437.0</ele><time>2026-05-03T09:42:56.001Z</time></trkpt><trkpt lat="44.1295603124751" lon="7.964268138565368"><ele>1437.0</ele><time>2026-05-03T09:42:57.001Z</time></trkpt><trkpt lat="44.12963771022656" lon="7.96427755832817"><ele>1437.0</ele><time>2026-05-03T09:42:58.001Z</time></trkpt><trkpt lat="44.12972411760368" lon="7.964304143917701"><ele>1437.0</ele><time>2026-05-03T09:42:59.001Z</time></trkpt><trkpt lat="44.12982355755125" lon="7.964340586839982"><ele>1437.0</ele><time>2026-05-03T09:43:00.001Z</time></trkpt><trkpt lat="44.12991113117504" lon="7.964359160460152"><ele>1437.0</ele><time>2026-05-03T09:43:01.001Z</time></trkpt><trkpt lat="44.12998635763692" lon="7.96435439467044"><ele>1437.3999999999999</ele><time>2026-05-03T09:43:02.001Z</time></trkpt><trkpt lat="44.13005949173264" lon="7.964361846292501"><ele>1437.8</ele><time>2026-05-03T09:43:03.001Z</time></trkpt><trkpt lat="44.130156169352226" lon="7.964372585925328"><ele>1438.2</ele><time>2026-05-03T09:43:04.001Z</time></trkpt><trkpt lat="44.13025383617352" lon="7.964391006695011"><ele>1438.6</ele><time>2026-05-03T09:43:05.001Z</time></trkpt><trkpt lat="44.130372163487095" lon="7.964439809468436"><ele>1439.0</ele><time>2026-05-03T09:43:06.001Z</time></trkpt><trkpt lat="44.13048114030568" lon="7.9644676960117495"><ele>1439.0</ele><time>2026-05-03T09:43:07.001Z</time></trkpt><trkpt lat="44.1305911874907" lon="7.964489654183312"><ele>1439.0</ele><time>2026-05-03T09:43:08.001Z</time></trkpt><trkpt lat="44.13069779501011" lon="7.9645135602608335"><ele>1439.0</ele><time>2026-05-03T09:43:09.001Z</time></trkpt><trkpt lat="44.1308147567238" lon="7.964532523190612"><ele>1439.0</ele><time>2026-05-03T09:43:10.001Z</time></trkpt><trkpt lat="44.130940391730825" lon="7.964562888469416"><ele>1439.8000000000002</ele><time>2026-05-03T09:43:11.001Z</time></trkpt><trkpt lat="44.131046839427874" lon="7.964600311040433"><ele>1440.6000000000001</ele><time>2026-05-03T09:43:12.001Z</time></trkpt><trkpt lat="44.13115421740729" lon="7.964633711282044"><ele>1441.4</ele><time>2026-05-03T09:43:13.001Z</time></trkpt><trkpt lat="44.13126334096743" lon="7.964665108665136"><ele>1442.2</ele><time>2026-05-03T09:43:14.001Z</time></trkpt><trkpt lat="44.13136054911143" lon="7.964707372864322"><ele>1443.0</ele><time>2026-05-03T09:43:15.001Z</time></trkpt><trkpt lat="44.13143983327149" lon="7.9647576743993636"><ele>1443.0</ele><time>2026-05-03T09:43:16.001Z</time></trkpt><trkpt lat="44.13151424746103" lon="7.9648162033474295"><ele>1443.0</ele><time>2026-05-03T09:43:17.001Z</time></trkpt><trkpt lat="44.131590164632684" lon="7.964888338777523"><ele>1443.0</ele><time>2026-05-03T09:43:18.001Z</time></trkpt><trkpt lat="44.13163953842449" lon="7.964966467849064"><ele>1443.0</ele><time>2026-05-03T09:43:19.001Z</time></trkpt><trkpt lat="44.131649458861276" lon="7.965072590916491"><ele>1443.0</ele><time>2026-05-03T09:43:20.001Z</time></trkpt><trkpt lat="44.13164012232327" lon="7.965173547335841"><ele>1443.0</ele><time>2026-05-03T09:43:21.001Z</time></trkpt><trkpt lat="44.13165418560488" lon="7.965351870478853"><ele>1442.3333333333333</ele><time>2026-05-03T09:43:23.001Z</time></trkpt><trkpt lat="44.13171399827343" lon="7.9654238911814765"><ele>1441.6666666666667</ele><time>2026-05-03T09:43:24.001Z</time></trkpt><trkpt lat="44.13179031813755" lon="7.965470214603098"><ele>1441.0</ele><time>2026-05-03T09:43:25.001Z</time></trkpt><trkpt lat="44.1318625573799" lon="7.965497318789625"><ele>1440.3333333333335</ele><time>2026-05-03T09:43:26.001Z</time></trkpt><trkpt lat="44.13198795519681" lon="7.965514438750562"><ele>1439.6666666666667</ele><time>2026-05-03T09:43:28.001Z</time></trkpt><trkpt lat="44.13207020800434" lon="7.965519857050311"><ele>1439.0</ele><time>2026-05-03T09:43:29.001Z</time></trkpt><trkpt lat="44.132146051942705" lon="7.965516587692019"><ele>1439.0</ele><time>2026-05-03T09:43:30.001Z</time></trkpt><trkpt lat="44.13222061227094" lon="7.965514317367415"><ele>1439.0</ele><time>2026-05-03T09:43:31.001Z</time></trkpt><trkpt lat="44.132309848794584" lon="7.9654975769109555"><ele>1439.0</ele><time>2026-05-03T09:43:32.001Z</time></trkpt><trkpt lat="44.132411413232795" lon="7.965476480940329"><ele>1439.0</ele><time>2026-05-03T09:43:33.001Z</time></trkpt><trkpt lat="44.13250566843321" lon="7.96546400593937"><ele>1439.0</ele><time>2026-05-03T09:43:34.001Z</time></trkpt><trkpt lat="44.13259238276647" lon="7.965470990302615"><ele>1439.0</ele><time>2026-05-03T09:43:35.001Z</time></trkpt><trkpt lat="44.13266947721772" lon="7.9654740009823195"><ele>1439.6</ele><time>2026-05-03T09:43:36.001Z</time></trkpt><trkpt lat="44.132733230420364" lon="7.965474792104621"><ele>1440.2</ele><time>2026-05-03T09:43:37.001Z</time></trkpt><trkpt lat="44.13282506974993" lon="7.96549657527296"><ele>1440.8</ele><time>2026-05-03T09:43:39.001Z</time></trkpt><trkpt lat="44.13290360828198" lon="7.965571766983772"><ele>1441.3999999999999</ele><time>2026-05-03T09:43:41.001Z</time></trkpt><trkpt lat="44.13299060991802" lon="7.965726372600231"><ele>1442.0</ele><time>2026-05-03T09:43:43.001Z</time></trkpt><trkpt lat="44.13303523357146" lon="7.965823217709778"><ele>1441.5714285714287</ele><time>2026-05-03T09:43:44.001Z</time></trkpt><trkpt lat="44.1330637500165" lon="7.965909845839958"><ele>1441.142857142857</ele><time>2026-05-03T09:43:45.001Z</time></trkpt><trkpt lat="44.13306921952908" lon="7.9660098297075725"><ele>1440.7142857142858</ele><time>2026-05-03T09:43:47.001Z</time></trkpt><trkpt lat="44.13308971749631" lon="7.966147718894065"><ele>1440.2857142857142</ele><time>2026-05-03T09:43:49.001Z</time></trkpt><trkpt lat="44.13314014840932" lon="7.966202471273477"><ele>1439.857142857143</ele><time>2026-05-03T09:43:50.001Z</time></trkpt><trkpt lat="44.13321648330091" lon="7.966225962418009"><ele>1439.4285714285716</ele><time>2026-05-03T09:43:51.001Z</time></trkpt><trkpt lat="44.13328042681452" lon="7.966223185085671"><ele>1439.0</ele><time>2026-05-03T09:43:52.001Z</time></trkpt><trkpt lat="44.13337323357946" lon="7.96629134683175"><ele>1439.0</ele><time>2026-05-03T09:43:54.001Z</time></trkpt><trkpt lat="44.13344857855968" lon="7.966396586475251"><ele>1439.0</ele><time>2026-05-03T09:43:56.001Z</time></trkpt><trkpt lat="44.13345463490884" lon="7.966498600982364"><ele>1439.0</ele><time>2026-05-03T09:43:58.001Z</time></trkpt><trkpt lat="44.13347617158456" lon="7.966592389723863"><ele>1439.0</ele><time>2026-05-03T09:54:36Z</time></trkpt><trkpt lat="44.13351529062059" lon="7.9667121595084005"><ele>1439.0</ele><time>2026-05-03T09:54:39Z</time></trkpt><trkpt lat="44.133517961783916" lon="7.966837909870571"><ele>1439.0</ele><time>2026-05-03T09:54:41Z</time></trkpt><trkpt lat="44.13351957938557" lon="7.9669316746685075"><ele>1438.8333333333335</ele><time>2026-05-03T09:54:42Z</time></trkpt><trkpt lat="44.13353747441901" lon="7.967098878480457"><ele>1438.6666666666667</ele><time>2026-05-03T09:54:44Z</time></trkpt><trkpt lat="44.133515554341" lon="7.967186360260915"><ele>1438.5</ele><time>2026-05-03T09:54:45Z</time></trkpt><trkpt lat="44.13352158925527" lon="7.967276845431319"><ele>1438.3333333333333</ele><time>2026-05-03T09:54:46Z</time></trkpt><trkpt lat="44.13349213881039" lon="7.967434344985822"><ele>1438.1666666666665</ele><time>2026-05-03T09:54:48Z</time></trkpt><trkpt lat="44.133447310571164" lon="7.967508394013087"><ele>1438.0</ele><time>2026-05-03T09:54:49Z</time></trkpt><trkpt lat="44.13340003982878" lon="7.96757819340954"><ele>1439.5</ele><time>2026-05-03T09:54:50Z</time></trkpt><trkpt lat="44.133341265772486" lon="7.967650256152545"><ele>1441.0</ele><time>2026-05-03T09:54:51Z</time></trkpt><trkpt lat="44.1332804008513" lon="7.9677160335238915"><ele>1442.5</ele><time>2026-05-03T09:54:52Z</time></trkpt><trkpt lat="44.133226600702564" lon="7.967791467325111"><ele>1444.0</ele><time>2026-05-03T09:54:53Z</time></trkpt><trkpt lat="44.13317074379387" lon="7.967850662310287"><ele>1445.5</ele><time>2026-05-03T09:54:54Z</time></trkpt><trkpt lat="44.1330866892302" lon="7.967890326292194"><ele>1447.0</ele><time>2026-05-03T09:54:55Z</time></trkpt><trkpt lat="44.133021052884885" lon="7.9679500347204035"><ele>1443.0</ele><time>2026-05-03T09:54:56Z</time></trkpt><trkpt lat="44.132955480227096" lon="7.968039363100011"><ele>1439.0</ele><time>2026-05-03T09:54:57Z</time></trkpt><trkpt lat="44.13286725738526" lon="7.968090976481407"><ele>1435.0</ele><time>2026-05-03T09:54:58Z</time></trkpt><trkpt lat="44.13278177270396" lon="7.968167989112918"><ele>1431.0</ele><time>2026-05-03T09:54:59Z</time></trkpt><trkpt lat="44.132694675504844" lon="7.96825397507057"><ele>1427.0</ele><time>2026-05-03T09:55:00Z</time></trkpt><trkpt lat="44.13262708562093" lon="7.9683241448345115"><ele>1429.0</ele><time>2026-05-03T09:55:01Z</time></trkpt><trkpt lat="44.132557612044394" lon="7.968402933147688"><ele>1431.0</ele><time>2026-05-03T09:55:02Z</time></trkpt><trkpt lat="44.13248064534812" lon="7.968504060668064"><ele>1433.0</ele><time>2026-05-03T09:55:03Z</time></trkpt><trkpt lat="44.1324059955673" lon="7.968615527862269"><ele>1435.0</ele><time>2026-05-03T09:55:04Z</time></trkpt><trkpt lat="44.13234210139645" lon="7.968713982731074"><ele>1437.0</ele><time>2026-05-03T09:55:05Z</time></trkpt><trkpt lat="44.132283772518015" lon="7.968809034808593"><ele>1436.0</ele><time>2026-05-03T09:55:06Z</time></trkpt><trkpt lat="44.132226482632625" lon="7.968903532847879"><ele>1435.0</ele><time>2026-05-03T09:55:07Z</time></trkpt><trkpt lat="44.13217326432596" lon="7.968991314677892"><ele>1434.0</ele><time>2026-05-03T09:55:08Z</time></trkpt><trkpt lat="44.13210451819373" lon="7.969080119723061"><ele>1433.0</ele><time>2026-05-03T09:55:09Z</time></trkpt><trkpt lat="44.13204522552854" lon="7.96918688016168"><ele>1432.0</ele><time>2026-05-03T09:55:10Z</time></trkpt><trkpt lat="44.132006626344946" lon="7.969283970326496"><ele>1431.0</ele><time>2026-05-03T09:55:11Z</time></trkpt><trkpt lat="44.131953726593615" lon="7.969380808119922"><ele>1431.0</ele><time>2026-05-03T09:55:12Z</time></trkpt><trkpt lat="44.13188829576382" lon="7.969473962611188"><ele>1431.0</ele><time>2026-05-03T09:55:13Z</time></trkpt><trkpt lat="44.13181609284743" lon="7.969564034184238"><ele>1431.0</ele><time>2026-05-03T09:55:14Z</time></trkpt><trkpt lat="44.13174570321735" lon="7.969624336141396"><ele>1431.0</ele><time>2026-05-03T09:55:15Z</time></trkpt><trkpt lat="44.13167393684479" lon="7.969649704220902"><ele>1431.0</ele><time>2026-05-03T09:55:16Z</time></trkpt><trkpt lat="44.13159502033957" lon="7.969687880493416"><ele>1431.0</ele><time>2026-05-03T09:55:17Z</time></trkpt><trkpt lat="44.131500965726445" lon="7.969704465072466"><ele>1428.5</ele><time>2026-05-03T09:55:18Z</time></trkpt><trkpt lat="44.13139990655955" lon="7.969736317446881"><ele>1426.0</ele><time>2026-05-03T09:55:19Z</time></trkpt><trkpt lat="44.13131137850615" lon="7.969760674025563"><ele>1423.5</ele><time>2026-05-03T09:55:20Z</time></trkpt><trkpt lat="44.131228194642475" lon="7.969786490197023"><ele>1421.0</ele><time>2026-05-03T09:55:21Z</time></trkpt><trkpt lat="44.13115297095413" lon="7.969824588443357"><ele>1418.5</ele><time>2026-05-03T09:55:22Z</time></trkpt><trkpt lat="44.13108050378319" lon="7.969870708262089"><ele>1416.0</ele><time>2026-05-03T09:55:23Z</time></trkpt><trkpt lat="44.130987637545005" lon="7.969873329141512"><ele>1416.0</ele><time>2026-05-03T09:55:24Z</time></trkpt><trkpt lat="44.13090628295709" lon="7.969871474741547"><ele>1416.0</ele><time>2026-05-03T09:55:25Z</time></trkpt><trkpt lat="44.130819691276166" lon="7.969875682368558"><ele>1416.0</ele><time>2026-05-03T09:55:26Z</time></trkpt><trkpt lat="44.130742520973854" lon="7.969894745116012"><ele>1416.0</ele><time>2026-05-03T09:55:27Z</time></trkpt><trkpt lat="44.13067740988149" lon="7.969958476356032"><ele>1416.0</ele><time>2026-05-03T09:55:28Z</time></trkpt><trkpt lat="44.13060238684737" lon="7.970013217887086"><ele>1416.0</ele><time>2026-05-03T09:55:29Z</time></trkpt><trkpt lat="44.130521541223736" lon="7.9700446423006435"><ele>1413.8333333333333</ele><time>2026-05-03T09:55:30Z</time></trkpt><trkpt lat="44.13044866694275" lon="7.970090552464424"><ele>1411.6666666666667</ele><time>2026-05-03T09:55:31Z</time></trkpt><trkpt lat="44.13038532544114" lon="7.970169422557273"><ele>1409.5</ele><time>2026-05-03T09:55:32Z</time></trkpt><trkpt lat="44.13035040459181" lon="7.97029386658999"><ele>1407.3333333333335</ele><time>2026-05-03T09:55:33Z</time></trkpt><trkpt lat="44.130293427167196" lon="7.9703986455818265"><ele>1405.1666666666667</ele><time>2026-05-03T09:55:34Z</time></trkpt><trkpt lat="44.13021996465278" lon="7.970445746289719"><ele>1403.0</ele><time>2026-05-03T09:55:35Z</time></trkpt><trkpt lat="44.130138851440094" lon="7.970475870810901"><ele>1403.0</ele><time>2026-05-03T09:55:36Z</time></trkpt><trkpt lat="44.13007111364023" lon="7.970533070932735"><ele>1403.0</ele><time>2026-05-03T09:55:37Z</time></trkpt><trkpt lat="44.13000238975072" lon="7.970605798036312"><ele>1403.0</ele><time>2026-05-03T09:55:38Z</time></trkpt><trkpt lat="44.12992700227388" lon="7.9706978907472985"><ele>1403.0</ele><time>2026-05-03T09:55:39Z</time></trkpt><trkpt lat="44.12985721151095" lon="7.970785196275076"><ele>1403.0</ele><time>2026-05-03T09:55:40Z</time></trkpt><trkpt lat="44.129794408444916" lon="7.970860569473658"><ele>1403.0</ele><time>2026-05-03T09:55:41Z</time></trkpt><trkpt lat="44.129736026370495" lon="7.970935174010383"><ele>1400.8333333333335</ele><time>2026-05-03T09:55:42Z</time></trkpt><trkpt lat="44.12969145793844" lon="7.971008384847168"><ele>1398.6666666666667</ele><time>2026-05-03T09:55:43Z</time></trkpt><trkpt lat="44.129676130577415" lon="7.971105289077138"><ele>1396.5</ele><time>2026-05-03T09:55:44Z</time></trkpt><trkpt lat="44.12965308928297" lon="7.971222903746869"><ele>1394.3333333333333</ele><time>2026-05-03T09:55:45Z</time></trkpt><trkpt lat="44.12961541670416" lon="7.971327720629327"><ele>1392.1666666666665</ele><time>2026-05-03T09:55:46Z</time></trkpt><trkpt lat="44.12958587839378" lon="7.971424245650807"><ele>1390.0</ele><time>2026-05-03T09:55:47Z</time></trkpt><trkpt lat="44.129554119055435" lon="7.971525337071589"><ele>1390.0</ele><time>2026-05-03T09:55:48Z</time></trkpt><trkpt lat="44.129514785004766" lon="7.971648222096014"><ele>1390.0</ele><time>2026-05-03T09:55:49Z</time></trkpt><trkpt lat="44.12946889566083" lon="7.971760443092687"><ele>1390.0</ele><time>2026-05-03T09:55:50Z</time></trkpt><trkpt lat="44.129432294050815" lon="7.971840845411237"><ele>1390.0</ele><time>2026-05-03T09:55:51Z</time></trkpt><trkpt lat="44.12936832432667" lon="7.971865719248185"><ele>1390.0</ele><time>2026-05-03T09:55:52Z</time></trkpt><trkpt lat="44.129296601176435" lon="7.971910709612554"><ele>1390.0</ele><time>2026-05-03T09:55:53Z</time></trkpt><trkpt lat="44.129202763145486" lon="7.971985968038852"><ele>1390.6666666666665</ele><time>2026-05-03T09:55:54Z</time></trkpt><trkpt lat="44.12912152707032" lon="7.972061719339058"><ele>1391.3333333333333</ele><time>2026-05-03T09:55:55Z</time></trkpt><trkpt lat="44.12905296814469" lon="7.972132129675843"><ele>1392.0</ele><time>2026-05-03T09:55:56Z</time></trkpt><trkpt lat="44.12898635084725" lon="7.972207554350338"><ele>1392.6666666666667</ele><time>2026-05-03T09:55:57Z</time></trkpt><trkpt lat="44.1289238093644" lon="7.972293513800276"><ele>1393.3333333333335</ele><time>2026-05-03T09:55:58Z</time></trkpt><trkpt lat="44.128874667119376" lon="7.972383144977522"><ele>1394.0</ele><time>2026-05-03T09:55:59Z</time></trkpt><trkpt lat="44.12884094876289" lon="7.97249484266383"><ele>1391.3333333333335</ele><time>2026-05-03T09:56:00Z</time></trkpt><trkpt lat="44.128809732318" lon="7.972609336416041"><ele>1388.6666666666667</ele><time>2026-05-03T09:56:01Z</time></trkpt><trkpt lat="44.12878183394985" lon="7.972715145377312"><ele>1386.0</ele><time>2026-05-03T09:56:02Z</time></trkpt><trkpt lat="44.12875444010483" lon="7.972812009143285"><ele>1383.3333333333333</ele><time>2026-05-03T09:56:03Z</time></trkpt><trkpt lat="44.128719032019866" lon="7.972913497444245"><ele>1380.6666666666665</ele><time>2026-05-03T09:56:04Z</time></trkpt><trkpt lat="44.12867540951673" lon="7.973006456983566"><ele>1378.0</ele><time>2026-05-03T09:56:05Z</time></trkpt><trkpt lat="44.128629349205035" lon="7.9730849606246705"><ele>1378.0</ele><time>2026-05-03T09:56:06Z</time></trkpt><trkpt lat="44.12857786368228" lon="7.973154755250724"><ele>1378.0</ele><time>2026-05-03T09:56:07Z</time></trkpt><trkpt lat="44.128516533335954" lon="7.973222609024745"><ele>1378.0</ele><time>2026-05-03T09:56:08Z</time></trkpt><trkpt lat="44.12845434079598" lon="7.97329884511932"><ele>1378.0</ele><time>2026-05-03T09:56:09Z</time></trkpt><trkpt lat="44.12840134391566" lon="7.973369785649906"><ele>1378.0</ele><time>2026-05-03T09:56:10Z</time></trkpt><trkpt lat="44.128359584434115" lon="7.973441611152948"><ele>1378.0</ele><time>2026-05-03T09:56:11Z</time></trkpt><trkpt lat="44.12835136990678" lon="7.973530444368155"><ele>1378.0</ele><time>2026-05-03T09:56:14Z</time></trkpt><trkpt lat="44.12842520572515" lon="7.973426569881201"><ele>1378.0</ele><time>2026-05-03T09:57:04Z</time></trkpt><trkpt lat="44.12851475764836" lon="7.973342975525176"><ele>1378.0</ele><time>2026-05-03T09:57:06Z</time></trkpt><trkpt lat="44.12857673113546" lon="7.973283745245929"><ele>1378.0</ele><time>2026-05-03T09:57:07Z</time></trkpt><trkpt lat="44.1286222567731" lon="7.973168030502725"><ele>1378.0</ele><time>2026-05-03T09:57:08Z</time></trkpt><trkpt lat="44.12867720285141" lon="7.973102813561801"><ele>1378.0</ele><time>2026-05-03T09:57:09Z</time></trkpt><trkpt lat="44.12873420222079" lon="7.973011109067621"><ele>1378.0</ele><time>2026-05-03T09:57:10Z</time></trkpt><trkpt lat="44.12878447740869" lon="7.972901398181872"><ele>1378.0</ele><time>2026-05-03T09:57:11Z</time></trkpt><trkpt lat="44.12881396003346" lon="7.972794757945684"><ele>1378.0</ele><time>2026-05-03T09:57:12Z</time></trkpt><trkpt lat="44.12884239710153" lon="7.972687303305062"><ele>1378.0</ele><time>2026-05-03T09:57:13Z</time></trkpt><trkpt lat="44.12887849911057" lon="7.972557113635972"><ele>1378.0</ele><time>2026-05-03T09:57:14Z</time></trkpt><trkpt lat="44.12891703876665" lon="7.97247305213051"><ele>1378.0</ele><time>2026-05-03T09:57:15Z</time></trkpt><trkpt lat="44.12894319285062" lon="7.972371979099488"><ele>1378.0</ele><time>2026-05-03T09:57:16Z</time></trkpt><trkpt lat="44.128978572454656" lon="7.972297785043047"><ele>1380.6666666666665</ele><time>2026-05-03T09:57:17Z</time></trkpt><trkpt lat="44.129074659077915" lon="7.972171354202019"><ele>1383.3333333333333</ele><time>2026-05-03T09:57:19Z</time></trkpt><trkpt lat="44.129124726061555" lon="7.972112691524933"><ele>1386.0</ele><time>2026-05-03T09:57:20Z</time></trkpt><trkpt lat="44.12918501498859" lon="7.972059932707975"><ele>1388.6666666666667</ele><time>2026-05-03T09:57:21Z</time></trkpt><trkpt lat="44.129244486147236" lon="7.972008832635845"><ele>1391.3333333333335</ele><time>2026-05-03T09:57:22Z</time></trkpt><trkpt lat="44.129309541255616" lon="7.97195468440388"><ele>1394.0</ele><time>2026-05-03T09:57:23Z</time></trkpt><trkpt lat="44.12938022181294" lon="7.971897467752668"><ele>1394.0</ele><time>2026-05-03T09:57:24Z</time></trkpt><trkpt lat="44.129437200927754" lon="7.971848835822386"><ele>1394.0</ele><time>2026-05-03T09:57:25Z</time></trkpt><trkpt lat="44.12952341299572" lon="7.971738297575625"><ele>1394.0</ele><time>2026-05-03T09:57:27Z</time></trkpt><trkpt lat="44.129554594706825" lon="7.971647500335673"><ele>1394.0</ele><time>2026-05-03T09:57:28Z</time></trkpt><trkpt lat="44.12957561244291" lon="7.971544756921073"><ele>1394.0</ele><time>2026-05-03T09:57:29Z</time></trkpt><trkpt lat="44.1295998465945" lon="7.971438791872095"><ele>1394.0</ele><time>2026-05-03T09:57:30Z</time></trkpt><trkpt lat="44.129630377227585" lon="7.971338601075765"><ele>1393.3333333333335</ele><time>2026-05-03T09:57:31Z</time></trkpt><trkpt lat="44.129664099993256" lon="7.971233698554598"><ele>1392.6666666666667</ele><time>2026-05-03T09:57:32Z</time></trkpt><trkpt lat="44.12968080452108" lon="7.971144855162932"><ele>1392.0</ele><time>2026-05-03T09:57:33Z</time></trkpt><trkpt lat="44.12970040189762" lon="7.971061476963874"><ele>1391.3333333333333</ele><time>2026-05-03T09:57:34Z</time></trkpt><trkpt lat="44.129779153689135" lon="7.97093824815362"><ele>1390.6666666666665</ele><time>2026-05-03T09:57:36Z</time></trkpt><trkpt lat="44.1298281046748" lon="7.970881445086058"><ele>1390.0</ele><time>2026-05-03T09:57:37Z</time></trkpt><trkpt lat="44.12986824870746" lon="7.970807024690835"><ele>1392.1666666666665</ele><time>2026-05-03T09:57:38Z</time></trkpt><trkpt lat="44.12992935347697" lon="7.970752369976961"><ele>1394.3333333333333</ele><time>2026-05-03T09:57:39Z</time></trkpt><trkpt lat="44.12998946004867" lon="7.9706838122090975"><ele>1396.5</ele><time>2026-05-03T09:57:40Z</time></trkpt><trkpt lat="44.130039386420044" lon="7.9706129880524745"><ele>1398.6666666666667</ele><time>2026-05-03T09:57:41Z</time></trkpt><trkpt lat="44.130090670412706" lon="7.970555454717987"><ele>1400.8333333333335</ele><time>2026-05-03T09:57:42Z</time></trkpt><trkpt lat="44.13022348331106" lon="7.970491729581066"><ele>1403.0</ele><time>2026-05-03T09:57:44Z</time></trkpt><trkpt lat="44.13029202512848" lon="7.970428273116481"><ele>1403.0</ele><time>2026-05-03T09:57:45Z</time></trkpt><trkpt lat="44.13034133590888" lon="7.9703284205246385"><ele>1403.0</ele><time>2026-05-03T09:57:46Z</time></trkpt><trkpt lat="44.13038403959673" lon="7.970231634593073"><ele>1403.0</ele><time>2026-05-03T09:57:47Z</time></trkpt><trkpt lat="44.130435510134305" lon="7.970170342135206"><ele>1403.0</ele><time>2026-05-03T09:57:48Z</time></trkpt><trkpt lat="44.13053276754657" lon="7.970083230613821"><ele>1403.0</ele><time>2026-05-03T09:57:50Z</time></trkpt><trkpt lat="44.13060139770101" lon="7.970047375998819"><ele>1403.0</ele><time>2026-05-03T09:57:51Z</time></trkpt><trkpt lat="44.13066494888682" lon="7.970003928623562"><ele>1401.6666666666667</ele><time>2026-05-03T09:57:52Z</time></trkpt><trkpt lat="44.130715447033914" lon="7.969945343165336"><ele>1400.3333333333335</ele><time>2026-05-03T09:57:53Z</time></trkpt><trkpt lat="44.13077647847684" lon="7.9699141674578176"><ele>1399.0</ele><time>2026-05-03T09:57:54Z</time></trkpt><trkpt lat="44.13084055879558" lon="7.96991233565477"><ele>1397.6666666666667</ele><time>2026-05-03T09:57:55Z</time></trkpt><trkpt lat="44.130967134173424" lon="7.969915154236132"><ele>1396.3333333333333</ele><time>2026-05-03T09:57:57Z</time></trkpt><trkpt lat="44.131028227321565" lon="7.9698875398177895"><ele>1395.0</ele><time>2026-05-03T09:57:58Z</time></trkpt><trkpt lat="44.131099930457104" lon="7.969877159188093"><ele>1399.2</ele><time>2026-05-03T09:57:59Z</time></trkpt><trkpt lat="44.131211655535445" lon="7.969813713960459"><ele>1403.4</ele><time>2026-05-03T09:58:01Z</time></trkpt><trkpt lat="44.13132777723886" lon="7.969762576367079"><ele>1407.6</ele><time>2026-05-03T09:58:03Z</time></trkpt><trkpt lat="44.13145326471762" lon="7.969741254151914"><ele>1411.8</ele><time>2026-05-03T09:58:05Z</time></trkpt><trkpt lat="44.13153130194207" lon="7.969724622994028"><ele>1416.0</ele><time>2026-05-03T09:58:06Z</time></trkpt><trkpt lat="44.131612158018044" lon="7.969698501139735"><ele>1418.142857142857</ele><time>2026-05-03T09:58:07Z</time></trkpt><trkpt lat="44.13169195059924" lon="7.969675453284227"><ele>1420.2857142857142</ele><time>2026-05-03T09:58:08Z</time></trkpt><trkpt lat="44.131761129378944" lon="7.969658636235606"><ele>1422.4285714285713</ele><time>2026-05-03T09:58:09Z</time></trkpt><trkpt lat="44.13182225042448" lon="7.969629528928909"><ele>1424.5714285714284</ele><time>2026-05-03T09:58:10Z</time></trkpt><trkpt lat="44.13187468072436" lon="7.969574865837667"><ele>1426.7142857142858</ele><time>2026-05-03T09:58:11Z</time></trkpt><trkpt lat="44.13191385361235" lon="7.969505562148976"><ele>1428.8571428571427</ele><time>2026-05-03T09:58:12Z</time></trkpt><trkpt lat="44.131959128196065" lon="7.969438837970569"><ele>1431.0</ele><time>2026-05-03T09:58:13Z</time></trkpt><trkpt lat="44.132034742862885" lon="7.969305636084707"><ele>1428.0</ele><time>2026-05-03T09:58:15Z</time></trkpt><trkpt lat="44.13209725982154" lon="7.969148059729973"><ele>1425.0</ele><time>2026-05-03T09:58:17Z</time></trkpt><trkpt lat="44.13213648670578" lon="7.969076381929436"><ele>1422.0</ele><time>2026-05-03T09:58:18Z</time></trkpt><trkpt lat="44.132225645458185" lon="7.968961766382271"><ele>1419.0</ele><time>2026-05-03T09:58:20Z</time></trkpt><trkpt lat="44.132270889314896" lon="7.968895245285006"><ele>1416.0</ele><time>2026-05-03T09:58:21Z</time></trkpt><trkpt lat="44.132317218939015" lon="7.968812417425938"><ele>1416.0</ele><time>2026-05-03T09:58:22Z</time></trkpt><trkpt lat="44.13236617892859" lon="7.9687317119717775"><ele>1416.0</ele><time>2026-05-03T09:58:23Z</time></trkpt><trkpt lat="44.13241209277623" lon="7.968652042694714"><ele>1416.0</ele><time>2026-05-03T09:58:24Z</time></trkpt><trkpt lat="44.132457934405934" lon="7.968581799051715"><ele>1416.0</ele><time>2026-05-03T09:58:25Z</time></trkpt><trkpt lat="44.13250916970057" lon="7.968513820606876"><ele>1416.0</ele><time>2026-05-03T09:58:26Z</time></trkpt><trkpt lat="44.13255710474276" lon="7.9684503428149895"><ele>1416.0</ele><time>2026-05-03T09:58:27Z</time></trkpt><trkpt lat="44.13261109526248" lon="7.968388531510769"><ele>1416.0</ele><time>2026-05-03T09:58:28Z</time></trkpt><trkpt lat="44.13266686024716" lon="7.96833118627347"><ele>1417.8333333333333</ele><time>2026-05-03T09:58:29Z</time></trkpt><trkpt lat="44.132727538748775" lon="7.968268014170252"><ele>1419.6666666666667</ele><time>2026-05-03T09:58:30Z</time></trkpt><trkpt lat="44.132787888610544" lon="7.9682048796129035"><ele>1421.5</ele><time>2026-05-03T09:58:31Z</time></trkpt><trkpt lat="44.13284879410036" lon="7.9681446111962115"><ele>1423.3333333333335</ele><time>2026-05-03T09:58:32Z</time></trkpt><trkpt lat="44.13291209092741" lon="7.968088107103677"><ele>1425.1666666666667</ele><time>2026-05-03T09:58:33Z</time></trkpt><trkpt lat="44.13297732006697" lon="7.968023713130077"><ele>1427.0</ele><time>2026-05-03T09:58:34Z</time></trkpt><trkpt lat="44.13304599926513" lon="7.967958733901972"><ele>1427.0</ele><time>2026-05-03T09:58:35Z</time></trkpt><trkpt lat="44.13312023297157" lon="7.967899339571236"><ele>1427.0</ele><time>2026-05-03T09:58:36Z</time></trkpt><trkpt lat="44.13319311673948" lon="7.967838970785086"><ele>1427.0</ele><time>2026-05-03T09:58:37Z</time></trkpt><trkpt lat="44.13326220616548" lon="7.9677723635623385"><ele>1427.0</ele><time>2026-05-03T09:58:38Z</time></trkpt><trkpt lat="44.13332160287585" lon="7.9677013127842935"><ele>1427.0</ele><time>2026-05-03T09:58:39Z</time></trkpt><trkpt lat="44.13338713234836" lon="7.967633645046255"><ele>1427.0</ele><time>2026-05-03T09:58:40Z</time></trkpt><trkpt lat="44.13344808445869" lon="7.967567407507936"><ele>1428.8333333333335</ele><time>2026-05-03T09:58:41Z</time></trkpt><trkpt lat="44.13349531317949" lon="7.9674851534539055"><ele>1430.6666666666667</ele><time>2026-05-03T09:58:42Z</time></trkpt><trkpt lat="44.13352724633611" lon="7.967391266700704"><ele>1432.5</ele><time>2026-05-03T09:58:43Z</time></trkpt><trkpt lat="44.13354568090951" lon="7.967303965928604"><ele>1434.3333333333333</ele><time>2026-05-03T09:58:44Z</time></trkpt><trkpt lat="44.13354806929253" lon="7.967154162665535"><ele>1436.1666666666665</ele><time>2026-05-03T09:58:46Z</time></trkpt><trkpt lat="44.13351983134754" lon="7.9670664443264885"><ele>1438.0</ele><time>2026-05-03T09:58:47Z</time></trkpt><trkpt lat="44.13349839989913" lon="7.966961324856908"><ele>1438.0</ele><time>2026-05-03T09:58:48Z</time></trkpt><trkpt lat="44.13350420749816" lon="7.966831432045347"><ele>1438.0</ele><time>2026-05-03T09:58:50Z</time></trkpt><trkpt lat="44.13350126245701" lon="7.966728848065525"><ele>1438.0</ele><time>2026-05-03T09:58:52Z</time></trkpt><trkpt lat="44.13350158776005" lon="7.966637546656307"><ele>1438.0</ele><time>2026-05-03T10:02:48.999Z</time></trkpt><trkpt lat="44.13346633322198" lon="7.966558080471413"><ele>1438.0</ele><time>2026-05-03T10:03:58.999Z</time></trkpt><trkpt lat="44.133501681085896" lon="7.966466355198971"><ele>1438.0</ele><time>2026-05-03T10:04:03.999Z</time></trkpt><trkpt lat="44.13355024923618" lon="7.966564681711787"><ele>1438.0</ele><time>2026-05-03T10:04:06.999Z</time></trkpt><trkpt lat="44.13352591166739" lon="7.966668356466806"><ele>1438.0</ele><time>2026-05-03T10:04:09.999Z</time></trkpt><trkpt lat="44.13351106007197" lon="7.966758875763094"><ele>1438.0</ele><time>2026-05-03T10:04:11.999Z</time></trkpt><trkpt lat="44.13350773827349" lon="7.966885178964383"><ele>1438.0</ele><time>2026-05-03T10:04:14.999Z</time></trkpt><trkpt lat="44.133516990342095" lon="7.96699687295981"><ele>1438.0</ele><time>2026-05-03T10:04:17.999Z</time></trkpt><trkpt lat="44.13352699502034" lon="7.967130852030504"><ele>1438.0</ele><time>2026-05-03T10:04:20.999Z</time></trkpt><trkpt lat="44.133547537685324" lon="7.967214363797315"><ele>1437.9999999999998</ele><time>2026-05-03T10:04:22.999Z</time></trkpt><trkpt lat="44.13356120703992" lon="7.967307228753042"><ele>1438.0</ele><time>2026-05-03T10:04:25.999Z</time></trkpt><trkpt lat="44.133538714615405" lon="7.96740293842748"><ele>1438.0</ele><time>2026-05-03T10:04:28.999Z</time></trkpt><trkpt lat="44.13350420106772" lon="7.967487268444855"><ele>1438.0</ele><time>2026-05-03T10:04:31.999Z</time></trkpt><trkpt lat="44.1334644643919" lon="7.967562560389182"><ele>1438.0</ele><time>2026-05-03T10:04:34.999Z</time></trkpt><trkpt lat="44.13341506645266" lon="7.967636205333922"><ele>1437.9999999999998</ele><time>2026-05-03T10:04:37.999Z</time></trkpt><trkpt lat="44.13335870027985" lon="7.96769933669652"><ele>1438.0</ele><time>2026-05-03T10:04:40.999Z</time></trkpt><trkpt lat="44.133296927403556" lon="7.967749419976133"><ele>1439.2857142857142</ele><time>2026-05-03T10:04:43.999Z</time></trkpt><trkpt lat="44.133243060357906" lon="7.967811029531378"><ele>1440.5714285714284</ele><time>2026-05-03T10:04:46.999Z</time></trkpt><trkpt lat="44.13317686268699" lon="7.9678625585509595"><ele>1441.8571428571427</ele><time>2026-05-03T10:04:49.999Z</time></trkpt><trkpt lat="44.13311524143065" lon="7.967930093280951"><ele>1443.142857142857</ele><time>2026-05-03T10:04:52.999Z</time></trkpt><trkpt lat="44.13305461579404" lon="7.967986173698325"><ele>1444.4285714285716</ele><time>2026-05-03T10:04:55.999Z</time></trkpt><trkpt lat="44.132997325010066" lon="7.968025731524444"><ele>1445.7142857142856</ele><time>2026-05-03T10:04:58.999Z</time></trkpt><trkpt lat="44.13293777481452" lon="7.9680850030715025"><ele>1447.0</ele><time>2026-05-03T10:05:01.999Z</time></trkpt><trkpt lat="44.1328800492951" lon="7.96814628814309"><ele>1445.5714285714284</ele><time>2026-05-03T10:05:04.999Z</time></trkpt><trkpt lat="44.132821714113824" lon="7.968199314183913"><ele>1444.1428571428573</ele><time>2026-05-03T10:05:07.999Z</time></trkpt><trkpt lat="44.13276976725942" lon="7.968254933398254"><ele>1442.7142857142858</ele><time>2026-05-03T10:05:10.999Z</time></trkpt><trkpt lat="44.13270455355549" lon="7.9682947865557665"><ele>1441.2857142857142</ele><time>2026-05-03T10:05:14.999Z</time></trkpt><trkpt lat="44.132656885771794" lon="7.968373733850961"><ele>1439.8571428571427</ele><time>2026-05-03T10:05:19.999Z</time></trkpt><trkpt lat="44.13259698552779" lon="7.96843075048889"><ele>1438.4285714285716</ele><time>2026-05-03T10:07:43Z</time></trkpt><trkpt lat="44.13253844811269" lon="7.968509879169897"><ele>1437.0</ele><time>2026-05-03T10:07:48Z</time></trkpt><trkpt lat="44.132484997665955" lon="7.96857757581543"><ele>1437.0</ele><time>2026-05-03T10:07:52Z</time></trkpt><trkpt lat="44.132436538123294" lon="7.968641699083243"><ele>1437.0</ele><time>2026-05-03T10:07:58Z</time></trkpt><trkpt lat="44.13238826176679" lon="7.968717005935563"><ele>1437.0</ele><time>2026-05-03T10:08:03Z</time></trkpt><trkpt lat="44.132332772284165" lon="7.968783123546906"><ele>1437.0</ele><time>2026-05-03T10:08:06Z</time></trkpt><trkpt lat="44.132296287972316" lon="7.9688755799180955"><ele>1437.0</ele><time>2026-05-03T10:08:10Z</time></trkpt><trkpt lat="44.13225393909231" lon="7.968940822717794"><ele>1437.0</ele><time>2026-05-03T10:08:13Z</time></trkpt><trkpt lat="44.132206651505676" lon="7.96901160044849"><ele>1437.0</ele><time>2026-05-03T10:08:17Z</time></trkpt><trkpt lat="44.132147733158185" lon="7.969078478058544"><ele>1436.142857142857</ele><time>2026-05-03T10:08:22Z</time></trkpt><trkpt lat="44.13210371893364" lon="7.9691415599067135"><ele>1435.2857142857142</ele><time>2026-05-03T10:08:25Z</time></trkpt><trkpt lat="44.13205451111303" lon="7.969212956051578"><ele>1434.4285714285713</ele><time>2026-05-03T10:08:29Z</time></trkpt><trkpt lat="44.13203641392287" lon="7.969320001670124"><ele>1433.5714285714284</ele><time>2026-05-03T10:08:33Z</time></trkpt><trkpt lat="44.13199658196837" lon="7.969403933098889"><ele>1432.7142857142858</ele><time>2026-05-03T10:08:37Z</time></trkpt><trkpt lat="44.13193108459745" lon="7.969464739336312"><ele>1431.8571428571427</ele><time>2026-05-03T10:08:41Z</time></trkpt><trkpt lat="44.13188449673953" lon="7.969536749545143"><ele>1431.0</ele><time>2026-05-03T10:08:45Z</time></trkpt><trkpt lat="44.131830908408475" lon="7.969606664323866"><ele>1430.9999999999998</ele><time>2026-05-03T10:08:49Z</time></trkpt><trkpt lat="44.13175928815927" lon="7.969665377326598"><ele>1431.0</ele><time>2026-05-03T10:08:53Z</time></trkpt><trkpt lat="44.13169221880536" lon="7.969692759432853"><ele>1431.0</ele><time>2026-05-03T10:08:56Z</time></trkpt><trkpt lat="44.13162082890536" lon="7.969703741396095"><ele>1431.0</ele><time>2026-05-03T10:08:59Z</time></trkpt><trkpt lat="44.131547074247884" lon="7.96972319950575"><ele>1431.0</ele><time>2026-05-03T10:09:02Z</time></trkpt><trkpt lat="44.131484572634385" lon="7.969747949252666"><ele>1430.9999999999998</ele><time>2026-05-03T10:09:05Z</time></trkpt><trkpt lat="44.13142055938517" lon="7.969767479829982"><ele>1431.0</ele><time>2026-05-03T10:09:08Z</time></trkpt><trkpt lat="44.13134282476077" lon="7.969774712144748"><ele>1428.8571428571427</ele><time>2026-05-03T10:09:12Z</time></trkpt><trkpt lat="44.131283740256" lon="7.969814231206569"><ele>1426.7142857142858</ele><time>2026-05-03T10:09:17Z</time></trkpt><trkpt lat="44.1312033822658" lon="7.969829601161159"><ele>1424.5714285714284</ele><time>2026-05-03T10:09:21Z</time></trkpt><trkpt lat="44.1311352743675" lon="7.969870945121163"><ele>1422.4285714285713</ele><time>2026-05-03T10:09:25Z</time></trkpt><trkpt lat="44.13106009555194" lon="7.96989252802955"><ele>1420.2857142857142</ele><time>2026-05-03T10:09:29Z</time></trkpt><trkpt lat="44.130991101280074" lon="7.96991475461465"><ele>1418.142857142857</ele><time>2026-05-03T10:09:33Z</time></trkpt><trkpt lat="44.13092058802829" lon="7.9699080036203815"><ele>1416.0</ele><time>2026-05-03T10:09:36Z</time></trkpt><trkpt lat="44.13084641541031" lon="7.969910225309394"><ele>1416.0</ele><time>2026-05-03T10:09:40Z</time></trkpt><trkpt lat="44.13077813271552" lon="7.969927591973994"><ele>1416.0</ele><time>2026-05-03T10:09:44Z</time></trkpt><trkpt lat="44.13071253197503" lon="7.9699475878614265"><ele>1416.0</ele><time>2026-05-03T10:09:49Z</time></trkpt><trkpt lat="44.13065957425424" lon="7.970021121588365"><ele>1416.0</ele><time>2026-05-03T10:09:55Z</time></trkpt><trkpt lat="44.13060200308559" lon="7.970061310635581"><ele>1416.0</ele><time>2026-05-03T10:10:00Z</time></trkpt><trkpt lat="44.130668851066375" lon="7.97002106319244"><ele>1416.0</ele><time>2026-05-03T10:12:46.001Z</time></trkpt><trkpt lat="44.130717722678455" lon="7.969964864837584"><ele>1416.0</ele><time>2026-05-03T10:12:52.001Z</time></trkpt><trkpt lat="44.130760544431354" lon="7.969899442473468"><ele>1416.0</ele><time>2026-05-03T10:13:10Z</time></trkpt><trkpt lat="44.130810723734854" lon="7.969835977676427"><ele>1416.0</ele><time>2026-05-03T10:13:23Z</time></trkpt><trkpt lat="44.13074565174219" lon="7.969835928246756"><ele>1416.0</ele><time>2026-05-03T10:13:32Z</time></trkpt><trkpt lat="44.13079775467522" lon="7.969783547944315"><ele>1416.0</ele><time>2026-05-03T10:14:22.001Z</time></trkpt><trkpt lat="44.13086645089606" lon="7.969773206407907"><ele>1416.0</ele><time>2026-05-03T10:14:54Z</time></trkpt><trkpt lat="44.13093813036056" lon="7.969779770083982"><ele>1416.0</ele><time>2026-05-03T10:15:04Z</time></trkpt><trkpt lat="44.13102640519535" lon="7.9698002637977305"><ele>1416.0</ele><time>2026-05-03T10:15:30Z</time></trkpt><trkpt lat="44.131080618780395" lon="7.96974216883814"><ele>1416.0</ele><time>2026-05-03T10:15:39Z</time></trkpt><trkpt lat="44.13113571619638" lon="7.96968828391638"><ele>1416.0</ele><time>2026-05-03T10:15:49Z</time></trkpt><trkpt lat="44.131201293324075" lon="7.96963932591184"><ele>1416.0</ele><time>2026-05-03T10:16:00Z</time></trkpt><trkpt lat="44.13126270741438" lon="7.969607320005258"><ele>1416.0</ele><time>2026-05-03T10:16:11.001Z</time></trkpt><trkpt lat="44.1313392229949" lon="7.969651575811703"><ele>1416.0</ele><time>2026-05-03T10:16:37Z</time></trkpt><trkpt lat="44.13139879478651" lon="7.969701407516546"><ele>1416.0</ele><time>2026-05-03T10:17:25Z</time></trkpt><trkpt lat="44.13146197655042" lon="7.969698118225551"><ele>1416.0</ele><time>2026-05-03T10:17:42Z</time></trkpt><trkpt lat="44.131519803162085" lon="7.96966310926699"><ele>1418.142857142857</ele><time>2026-05-03T10:17:49Z</time></trkpt><trkpt lat="44.13158166010474" lon="7.969639979721265"><ele>1420.2857142857142</ele><time>2026-05-03T10:17:57Z</time></trkpt><trkpt lat="44.13165146858576" lon="7.969625212578864"><ele>1422.4285714285713</ele><time>2026-05-03T10:18:05Z</time></trkpt><trkpt lat="44.13171491837317" lon="7.969598557634602"><ele>1424.5714285714284</ele><time>2026-05-03T10:18:14Z</time></trkpt><trkpt lat="44.131769093800166" lon="7.969541096199184"><ele>1426.7142857142858</ele><time>2026-05-03T10:18:24Z</time></trkpt><trkpt lat="44.13183206843364" lon="7.9694992070465345"><ele>1428.8571428571427</ele><time>2026-05-03T10:18:35Z</time></trkpt><trkpt lat="44.131874884994126" lon="7.9694343120200255"><ele>1431.0</ele><time>2026-05-03T10:18:45Z</time></trkpt><trkpt lat="44.13192925449996" lon="7.969376205864264"><ele>1430.9999999999998</ele><time>2026-05-03T10:18:57Z</time></trkpt><trkpt lat="44.13199238260951" lon="7.969359635510099"><ele>1431.0</ele><time>2026-05-03T10:19:31Z</time></trkpt><trkpt lat="44.13204707711405" lon="7.969297068313828"><ele>1431.0</ele><time>2026-05-03T10:19:44Z</time></trkpt><trkpt lat="44.132064021063606" lon="7.969207350443273"><ele>1431.0</ele><time>2026-05-03T10:19:52Z</time></trkpt><trkpt lat="44.132105522449024" lon="7.969129995299388"><ele>1431.0</ele><time>2026-05-03T10:20:08Z</time></trkpt><trkpt lat="44.13216214886297" lon="7.969074056785647"><ele>1430.9999999999998</ele><time>2026-05-03T10:20:20Z</time></trkpt><trkpt lat="44.13221090205948" lon="7.969016525842991"><ele>1431.0</ele><time>2026-05-03T10:20:26Z</time></trkpt><trkpt lat="44.132242816859396" lon="7.968938617591988"><ele>1431.8571428571427</ele><time>2026-05-03T10:20:35Z</time></trkpt><trkpt lat="44.1322973924016" lon="7.968893366031419"><ele>1432.7142857142858</ele><time>2026-05-03T10:21:49Z</time></trkpt><trkpt lat="44.13232828843303" lon="7.968810657755474"><ele>1433.5714285714284</ele><time>2026-05-03T10:22:00Z</time></trkpt><trkpt lat="44.13236823071572" lon="7.968716862885461"><ele>1434.4285714285713</ele><time>2026-05-03T10:22:11Z</time></trkpt><trkpt lat="44.132426761884325" lon="7.968661203994253"><ele>1435.2857142857142</ele><time>2026-05-03T10:22:33Z</time></trkpt><trkpt lat="44.132465938524284" lon="7.968584863107098"><ele>1436.142857142857</ele><time>2026-05-03T10:22:43Z</time></trkpt><trkpt lat="44.132513082741106" lon="7.968518725376098"><ele>1437.0</ele><time>2026-05-03T10:23:01Z</time></trkpt><trkpt lat="44.132574857602044" lon="7.9685432969749215"><ele>1437.0</ele><time>2026-05-03T10:23:28Z</time></trkpt><trkpt lat="44.132613370710054" lon="7.968465846947703"><ele>1437.0</ele><time>2026-05-03T10:24:21Z</time></trkpt><trkpt lat="44.13267809746571" lon="7.968411797004174"><ele>1437.0</ele><time>2026-05-03T10:24:33Z</time></trkpt><trkpt lat="44.13273388514661" lon="7.968365282367469"><ele>1437.0</ele><time>2026-05-03T10:24:49Z</time></trkpt><trkpt lat="44.13278464864334" lon="7.968301275064025"><ele>1437.0</ele><time>2026-05-03T10:25:01Z</time></trkpt><trkpt lat="44.132845808417606" lon="7.968260951876483"><ele>1437.0</ele><time>2026-05-03T10:25:21Z</time></trkpt><trkpt lat="44.1328969891185" lon="7.96819845057394"><ele>1437.0</ele><time>2026-05-03T10:25:43Z</time></trkpt><trkpt lat="44.13295817043578" lon="7.968157015780168"><ele>1435.5714285714287</ele><time>2026-05-03T10:26:25Z</time></trkpt><trkpt lat="44.13302603042442" lon="7.9681097697555705"><ele>1434.142857142857</ele><time>2026-05-03T10:26:39Z</time></trkpt><trkpt lat="44.133087741349776" lon="7.968047392438643"><ele>1432.7142857142858</ele><time>2026-05-03T10:27:01Z</time></trkpt><trkpt lat="44.13314176402101" lon="7.967985343782552"><ele>1431.2857142857142</ele><time>2026-05-03T10:28:22Z</time></trkpt><trkpt lat="44.133189478113806" lon="7.967917812422649"><ele>1429.857142857143</ele><time>2026-05-03T10:28:57Z</time></trkpt><trkpt lat="44.13325057875205" lon="7.967885264260542"><ele>1428.4285714285713</ele><time>2026-05-03T10:29:38Z</time></trkpt><trkpt lat="44.13331353261326" lon="7.9678478546419695"><ele>1427.0</ele><time>2026-05-03T10:29:51Z</time></trkpt><trkpt lat="44.13336139465917" lon="7.967787473445056"><ele>1428.5714285714284</ele><time>2026-05-03T10:30:07Z</time></trkpt><trkpt lat="44.133413699784754" lon="7.967733272764725"><ele>1430.142857142857</ele><time>2026-05-03T10:30:25Z</time></trkpt><trkpt lat="44.13344830154935" lon="7.967645863283336"><ele>1431.7142857142858</ele><time>2026-05-03T10:30:49Z</time></trkpt><trkpt lat="44.133511667499036" lon="7.967613655306305"><ele>1433.2857142857142</ele><time>2026-05-03T10:31:16Z</time></trkpt><trkpt lat="44.13355263646461" lon="7.967537568298264"><ele>1434.857142857143</ele><time>2026-05-03T10:31:34Z</time></trkpt><trkpt lat="44.13359044413913" lon="7.9674472230753715"><ele>1436.4285714285713</ele><time>2026-05-03T10:32:04Z</time></trkpt><trkpt lat="44.133655403502765" lon="7.967402893760368"><ele>1438.0</ele><time>2026-05-03T10:32:24Z</time></trkpt><trkpt lat="44.13368046852819" lon="7.967319079446909"><ele>1437.9999999999998</ele><time>2026-05-03T10:32:39Z</time></trkpt><trkpt lat="44.133651986205024" lon="7.967237773508443"><ele>1438.0</ele><time>2026-05-03T10:33:09Z</time></trkpt><trkpt lat="44.13361127724359" lon="7.9671636742966445"><ele>1438.0</ele><time>2026-05-03T10:33:19Z</time></trkpt><trkpt lat="44.13359725517858" lon="7.967069620657729"><ele>1438.0</ele><time>2026-05-03T10:33:52Z</time></trkpt><trkpt lat="44.13357646040846" lon="7.96697700947442"><ele>1438.0</ele><time>2026-05-03T10:34:03Z</time></trkpt><trkpt lat="44.13357533076811" lon="7.966887714286482"><ele>1437.9999999999998</ele><time>2026-05-03T10:34:10Z</time></trkpt><trkpt lat="44.133572822606745" lon="7.96679671696587"><ele>1438.0</ele><time>2026-05-03T10:34:19Z</time></trkpt><trkpt lat="44.133571079126305" lon="7.966701987948307"><ele>1437.9999999999998</ele><time>2026-05-03T10:34:27Z</time></trkpt><trkpt lat="44.133569286879386" lon="7.966613592870346"><ele>1438.0</ele><time>2026-05-03T10:34:34Z</time></trkpt><trkpt lat="44.1335266734784" lon="7.966536864264953"><ele>1438.0</ele><time>2026-05-03T10:34:43Z</time></trkpt><trkpt lat="44.13346476348505" lon="7.966515505041115"><ele>1438.0</ele><time>2026-05-03T10:34:51Z</time></trkpt><trkpt lat="44.13346451704769" lon="7.966610173315054"><ele>1438.0</ele><time>2026-05-03T10:35:19Z</time></trkpt><trkpt lat="44.13347206871658" lon="7.966707346049401"><ele>1437.9999999999998</ele><time>2026-05-03T10:36:07Z</time></trkpt><trkpt lat="44.13348641530319" lon="7.966813589835619"><ele>1438.0</ele><time>2026-05-03T10:36:14Z</time></trkpt><trkpt lat="44.13348853630038" lon="7.966907529101533"><ele>1437.9999999999998</ele><time>2026-05-03T10:36:20Z</time></trkpt><trkpt lat="44.133499681460954" lon="7.966996667007705"><ele>1438.0</ele><time>2026-05-03T10:36:25Z</time></trkpt><trkpt lat="44.13350777884628" lon="7.967086958229994"><ele>1438.0</ele><time>2026-05-03T10:36:31Z</time></trkpt><trkpt lat="44.13352164229597" lon="7.967184025156777"><ele>1438.0</ele><time>2026-05-03T10:36:37Z</time></trkpt><trkpt lat="44.13352949099278" lon="7.967272424260115"><ele>1438.0</ele><time>2026-05-03T10:36:44Z</time></trkpt><trkpt lat="44.1335034697261" lon="7.967361041280774"><ele>1437.9999999999998</ele><time>2026-05-03T10:36:51Z</time></trkpt><trkpt lat="44.133489193858196" lon="7.967459460231293"><ele>1438.0</ele><time>2026-05-03T10:36:59Z</time></trkpt><trkpt lat="44.133448553954715" lon="7.967531726672534"><ele>1439.2857142857142</ele><time>2026-05-03T10:37:05Z</time></trkpt><trkpt lat="44.133405809534864" lon="7.9676033251206055"><ele>1440.5714285714284</ele><time>2026-05-03T10:37:14Z</time></trkpt><trkpt lat="44.13334786868572" lon="7.9676692185252564"><ele>1441.8571428571427</ele><time>2026-05-03T10:37:22Z</time></trkpt><trkpt lat="44.1332900002387" lon="7.967731834541619"><ele>1443.142857142857</ele><time>2026-05-03T10:37:29Z</time></trkpt><trkpt lat="44.1332297725003" lon="7.967770775737927"><ele>1444.4285714285716</ele><time>2026-05-03T10:37:37Z</time></trkpt><trkpt lat="44.13317911776367" lon="7.9678274406626555"><ele>1445.7142857142856</ele><time>2026-05-03T10:37:55Z</time></trkpt><trkpt lat="44.133123058395455" lon="7.967888537412363"><ele>1447.0</ele><time>2026-05-03T10:38:03Z</time></trkpt><trkpt lat="44.133064034677915" lon="7.967926071625727"><ele>1444.142857142857</ele><time>2026-05-03T10:38:10Z</time></trkpt><trkpt lat="44.13300270289072" lon="7.967977612716113"><ele>1441.2857142857144</ele><time>2026-05-03T10:38:17Z</time></trkpt><trkpt lat="44.132946770107026" lon="7.968032584283008"><ele>1438.4285714285716</ele><time>2026-05-03T10:38:24Z</time></trkpt><trkpt lat="44.13288387033158" lon="7.968097030305444"><ele>1435.5714285714284</ele><time>2026-05-03T10:38:33Z</time></trkpt><trkpt lat="44.13280918333322" lon="7.968140784464259"><ele>1432.7142857142858</ele><time>2026-05-03T10:38:40Z</time></trkpt><trkpt lat="44.13276459140947" lon="7.968203702272252"><ele>1429.857142857143</ele><time>2026-05-03T10:38:47Z</time></trkpt><trkpt lat="44.13270653121887" lon="7.968265900238218"><ele>1427.0</ele><time>2026-05-03T10:38:54Z</time></trkpt><trkpt lat="44.13265312950411" lon="7.968315992330503"><ele>1428.4285714285713</ele><time>2026-05-03T10:39:07Z</time></trkpt><trkpt lat="44.13259790958389" lon="7.968383649781686"><ele>1429.857142857143</ele><time>2026-05-03T10:39:13Z</time></trkpt><trkpt lat="44.132543241834576" lon="7.9684346012748275"><ele>1431.2857142857142</ele><time>2026-05-03T10:39:24Z</time></trkpt><trkpt lat="44.13250262518952" lon="7.968512608907325"><ele>1432.7142857142858</ele><time>2026-05-03T10:39:32Z</time></trkpt><trkpt lat="44.13245025167462" lon="7.968563392174556"><ele>1434.142857142857</ele><time>2026-05-03T10:39:39Z</time></trkpt><trkpt lat="44.13240776044104" lon="7.968633970566488"><ele>1435.5714285714287</ele><time>2026-05-03T10:39:45Z</time></trkpt><trkpt lat="44.13235906575403" lon="7.968712410259931"><ele>1437.0</ele><time>2026-05-03T10:39:53Z</time></trkpt><trkpt lat="44.13231374966385" lon="7.968788231715356"><ele>1436.142857142857</ele><time>2026-05-03T10:39:59Z</time></trkpt><trkpt lat="44.13226244550579" lon="7.968857021976746"><ele>1435.2857142857142</ele><time>2026-05-03T10:40:06Z</time></trkpt><trkpt lat="44.132223321572525" lon="7.96893039799364"><ele>1434.4285714285713</ele><time>2026-05-03T10:40:12Z</time></trkpt><trkpt lat="44.132165762220566" lon="7.969011063767585"><ele>1433.5714285714284</ele><time>2026-05-03T10:41:09Z</time></trkpt><trkpt lat="44.13212194113326" lon="7.9690810209424745"><ele>1432.7142857142858</ele><time>2026-05-03T10:58:52.001Z</time></trkpt><trkpt lat="44.132073077036225" lon="7.969145291389943"><ele>1431.8571428571427</ele><time>2026-05-03T10:58:57.001Z</time></trkpt><trkpt lat="44.132032228738446" lon="7.96923467057773"><ele>1431.0</ele><time>2026-05-03T10:59:02.001Z</time></trkpt><trkpt lat="44.13198664731761" lon="7.969323335993388"><ele>1431.0</ele><time>2026-05-03T10:59:08.001Z</time></trkpt><trkpt lat="44.13185835574305" lon="7.9695111897722155"><ele>1431.0</ele><time>2026-05-03T10:59:27.001Z</time></trkpt><trkpt lat="44.13177344345241" lon="7.9696078037168165"><ele>1431.0</ele><time>2026-05-03T10:59:29.001Z</time></trkpt><trkpt lat="44.13168255957578" lon="7.969663933349567"><ele>1431.0</ele><time>2026-05-03T10:59:31.001Z</time></trkpt><trkpt lat="44.131575961173674" lon="7.969679944639162"><ele>1428.0</ele><time>2026-05-03T10:59:33.001Z</time></trkpt><trkpt lat="44.13146768008093" lon="7.969711185435761"><ele>1425.0</ele><time>2026-05-03T10:59:35.001Z</time></trkpt><trkpt lat="44.13136616403385" lon="7.9697495642484215"><ele>1422.0</ele><time>2026-05-03T10:59:37.001Z</time></trkpt><trkpt lat="44.13127877616442" lon="7.969775097274382"><ele>1419.0</ele><time>2026-05-03T10:59:39.001Z</time></trkpt><trkpt lat="44.131188155659466" lon="7.969808285018432"><ele>1416.0</ele><time>2026-05-03T10:59:41.001Z</time></trkpt><trkpt lat="44.13110235786979" lon="7.969857324704625"><ele>1416.0</ele><time>2026-05-03T10:59:43.001Z</time></trkpt><trkpt lat="44.13101452863268" lon="7.969888626275548"><ele>1416.0</ele><time>2026-05-03T10:59:45.001Z</time></trkpt><trkpt lat="44.130924730074675" lon="7.9698888801866685"><ele>1416.0</ele><time>2026-05-03T10:59:47.001Z</time></trkpt><trkpt lat="44.13083037219272" lon="7.9698871346385785"><ele>1416.0</ele><time>2026-05-03T10:59:49.001Z</time></trkpt><trkpt lat="44.13073963897792" lon="7.969909222256468"><ele>1416.0</ele><time>2026-05-03T10:59:51.001Z</time></trkpt><trkpt lat="44.130658750872506" lon="7.969971637108559"><ele>1413.8333333333333</ele><time>2026-05-03T10:59:53.001Z</time></trkpt><trkpt lat="44.13059005723978" lon="7.97002001991487"><ele>1411.6666666666667</ele><time>2026-05-03T10:59:55.001Z</time></trkpt><trkpt lat="44.13054532764596" lon="7.970093197937372"><ele>1409.5</ele><time>2026-05-03T11:00:26.001Z</time></trkpt><trkpt lat="44.13046608329069" lon="7.970099541723239"><ele>1407.3333333333335</ele><time>2026-05-03T11:00:38.001Z</time></trkpt><trkpt lat="44.130396846743174" lon="7.970166969573383"><ele>1405.1666666666667</ele><time>2026-05-03T11:00:41.001Z</time></trkpt><trkpt lat="44.13036364182417" lon="7.970250791321728"><ele>1403.0</ele><time>2026-05-03T11:00:43.001Z</time></trkpt><trkpt lat="44.13032067642557" lon="7.970340134702934"><ele>1403.0</ele><time>2026-05-03T11:00:45.001Z</time></trkpt><trkpt lat="44.13022635208153" lon="7.9704712232572215"><ele>1403.0</ele><time>2026-05-03T11:00:47.001Z</time></trkpt><trkpt lat="44.13015239497553" lon="7.970519573740119"><ele>1403.0</ele><time>2026-05-03T11:00:48.001Z</time></trkpt><trkpt lat="44.13006904793221" lon="7.970534815365695"><ele>1403.0</ele><time>2026-05-03T11:00:49.001Z</time></trkpt><trkpt lat="44.1300181034619" lon="7.970617991663321"><ele>1403.0</ele><time>2026-05-03T11:00:50.001Z</time></trkpt><trkpt lat="44.12992976385305" lon="7.970694436124772"><ele>1400.8333333333335</ele><time>2026-05-03T11:00:52.001Z</time></trkpt><trkpt lat="44.12988611419118" lon="7.970777990621142"><ele>1398.6666666666667</ele><time>2026-05-03T11:00:53.001Z</time></trkpt><trkpt lat="44.12982971971648" lon="7.970836146256425"><ele>1396.5</ele><time>2026-05-03T11:00:54.001Z</time></trkpt><trkpt lat="44.129744476471885" lon="7.97094293949682"><ele>1394.3333333333333</ele><time>2026-05-03T11:00:56.001Z</time></trkpt><trkpt lat="44.12967784765509" lon="7.971077684602645"><ele>1392.1666666666665</ele><time>2026-05-03T11:00:58.001Z</time></trkpt><trkpt lat="44.12965678491126" lon="7.971173394857166"><ele>1390.0</ele><time>2026-05-03T11:00:59.001Z</time></trkpt><trkpt lat="44.12964173065585" lon="7.971289405702448"><ele>1390.0</ele><time>2026-05-03T11:01:00.001Z</time></trkpt><trkpt lat="44.12961433815322" lon="7.971400264575896"><ele>1390.0</ele><time>2026-05-03T11:01:01.001Z</time></trkpt><trkpt lat="44.129573390118374" lon="7.97150264455576"><ele>1390.0</ele><time>2026-05-03T11:01:02.001Z</time></trkpt><trkpt lat="44.12953862563156" lon="7.97160034173728"><ele>1390.0</ele><time>2026-05-03T11:01:03.001Z</time></trkpt><trkpt lat="44.12950861248575" lon="7.971685237857206"><ele>1390.0</ele><time>2026-05-03T11:01:04.001Z</time></trkpt><trkpt lat="44.129471503864295" lon="7.971774558647134"><ele>1390.0</ele><time>2026-05-03T11:01:05.001Z</time></trkpt><trkpt lat="44.12942661253735" lon="7.9718391333589445"><ele>1390.6666666666665</ele><time>2026-05-03T11:01:06.001Z</time></trkpt><trkpt lat="44.129358413578636" lon="7.971886029510767"><ele>1391.3333333333333</ele><time>2026-05-03T11:01:07.001Z</time></trkpt><trkpt lat="44.12927218820785" lon="7.971942796679532"><ele>1392.0</ele><time>2026-05-03T11:01:08.001Z</time></trkpt><trkpt lat="44.12917574660845" lon="7.972013942570859"><ele>1392.6666666666667</ele><time>2026-05-03T11:01:09.001Z</time></trkpt><trkpt lat="44.129097461392554" lon="7.972083227644883"><ele>1393.3333333333335</ele><time>2026-05-03T11:01:10.001Z</time></trkpt><trkpt lat="44.129038175435085" lon="7.9721466773889"><ele>1394.0</ele><time>2026-05-03T11:01:11.001Z</time></trkpt><trkpt lat="44.12898267242114" lon="7.97221386675313"><ele>1391.3333333333335</ele><time>2026-05-03T11:01:12.001Z</time></trkpt><trkpt lat="44.1289329718535" lon="7.972277090161392"><ele>1388.6666666666667</ele><time>2026-05-03T11:01:13.001Z</time></trkpt><trkpt lat="44.128882467429946" lon="7.972350965993787"><ele>1386.0</ele><time>2026-05-03T11:01:14.001Z</time></trkpt><trkpt lat="44.12884254355296" lon="7.972450014518589"><ele>1383.3333333333333</ele><time>2026-05-03T11:01:15.001Z</time></trkpt><trkpt lat="44.12881139998295" lon="7.972556337219217"><ele>1380.6666666666665</ele><time>2026-05-03T11:01:16.001Z</time></trkpt><trkpt lat="44.12878543922402" lon="7.972664687966927"><ele>1378.0</ele><time>2026-05-03T11:01:17.001Z</time></trkpt><trkpt lat="44.128760890778686" lon="7.97277722296634"><ele>1378.0</ele><time>2026-05-03T11:01:18.001Z</time></trkpt><trkpt lat="44.1287230069788" lon="7.972886794038358"><ele>1378.0</ele><time>2026-05-03T11:01:19.001Z</time></trkpt><trkpt lat="44.128678169300066" lon="7.972973890074166"><ele>1378.0</ele><time>2026-05-03T11:01:20.001Z</time></trkpt><trkpt lat="44.12862780636637" lon="7.9730519314295325"><ele>1378.0</ele><time>2026-05-03T11:01:21.001Z</time></trkpt><trkpt lat="44.12858353150767" lon="7.973125798711411"><ele>1378.0</ele><time>2026-05-03T11:01:22.001Z</time></trkpt><trkpt lat="44.128507892830214" lon="7.973204271020329"><ele>1378.0</ele><time>2026-05-03T11:01:23.001Z</time></trkpt><trkpt lat="44.128434901449076" lon="7.973276080653089"><ele>1378.0</ele><time>2026-05-03T11:01:24.001Z</time></trkpt><trkpt lat="44.128385278775426" lon="7.973349215011478"><ele>1378.0</ele><time>2026-05-03T11:01:25.001Z</time></trkpt><trkpt lat="44.12833661013434" lon="7.973434913094749"><ele>1378.0</ele><time>2026-05-03T11:01:26.001Z</time></trkpt><trkpt lat="44.128289326151" lon="7.973545186601431"><ele>1378.0</ele><time>2026-05-03T11:01:27.001Z</time></trkpt><trkpt lat="44.128232749499126" lon="7.973640796302973"><ele>1378.0</ele><time>2026-05-03T11:01:28.001Z</time></trkpt><trkpt lat="44.12817634321834" lon="7.973733037617107"><ele>1378.0</ele><time>2026-05-03T11:01:29.001Z</time></trkpt><trkpt lat="44.12811112453506" lon="7.973826474361139"><ele>1375.5</ele><time>2026-05-03T11:01:30.001Z</time></trkpt><trkpt lat="44.128055738385875" lon="7.973913384032162"><ele>1373.0</ele><time>2026-05-03T11:01:31.001Z</time></trkpt><trkpt lat="44.12799185225326" lon="7.973986409201468"><ele>1370.5</ele><time>2026-05-03T11:01:32.001Z</time></trkpt><trkpt lat="44.12794345760819" lon="7.974057191730126"><ele>1368.0</ele><time>2026-05-03T11:01:33.001Z</time></trkpt><trkpt lat="44.12790631202027" lon="7.974146549531405"><ele>1365.5</ele><time>2026-05-03T11:01:34.001Z</time></trkpt><trkpt lat="44.12788576749451" lon="7.974253417063174"><ele>1363.0</ele><time>2026-05-03T11:01:35.001Z</time></trkpt><trkpt lat="44.12785990210909" lon="7.974365199933284"><ele>1363.0</ele><time>2026-05-03T11:01:36.001Z</time></trkpt><trkpt lat="44.127837727070826" lon="7.974509690654605"><ele>1363.0</ele><time>2026-05-03T11:01:38.001Z</time></trkpt><trkpt lat="44.12776149595737" lon="7.974501736351801"><ele>1363.0</ele><time>2026-05-03T11:01:41.001Z</time></trkpt><trkpt lat="44.12778195268313" lon="7.974388083215854"><ele>1363.0</ele><time>2026-05-03T11:01:44.001Z</time></trkpt><trkpt lat="44.12780260630243" lon="7.974297765719909"><ele>1363.0</ele><time>2026-05-03T11:01:45.001Z</time></trkpt><trkpt lat="44.12780433817327" lon="7.974137591041749"><ele>1362.2</ele><time>2026-05-03T11:01:47.001Z</time></trkpt><trkpt lat="44.12780307331633" lon="7.973991770603212"><ele>1361.4</ele><time>2026-05-03T11:01:49.001Z</time></trkpt><trkpt lat="44.127818940214844" lon="7.973788603821091"><ele>1360.6000000000001</ele><time>2026-05-03T11:01:51.001Z</time></trkpt><trkpt lat="44.12780403514487" lon="7.973677205673767"><ele>1359.8000000000002</ele><time>2026-05-03T11:01:52.001Z</time></trkpt><trkpt lat="44.12779812792345" lon="7.973561624570838"><ele>1359.0</ele><time>2026-05-03T11:01:53.001Z</time></trkpt><trkpt lat="44.127793329229966" lon="7.973450258582714"><ele>1358.8333333333333</ele><time>2026-05-03T11:01:54.001Z</time></trkpt><trkpt lat="44.127781013692335" lon="7.973354508236528"><ele>1358.6666666666667</ele><time>2026-05-03T11:01:55.001Z</time></trkpt><trkpt lat="44.12775174462235" lon="7.973249709199508"><ele>1358.5</ele><time>2026-05-03T11:01:56.001Z</time></trkpt><trkpt lat="44.127734342973135" lon="7.973129741460806"><ele>1358.3333333333335</ele><time>2026-05-03T11:01:57.001Z</time></trkpt><trkpt lat="44.127731686005156" lon="7.973014501398215"><ele>1358.1666666666667</ele><time>2026-05-03T11:01:58.001Z</time></trkpt><trkpt lat="44.127733023884105" lon="7.9729143988492615"><ele>1358.0</ele><time>2026-05-03T11:01:59.001Z</time></trkpt><trkpt lat="44.12774397295901" lon="7.972786849633532"><ele>1358.0</ele><time>2026-05-03T11:02:00.001Z</time></trkpt><trkpt lat="44.127755280480955" lon="7.972636366116417"><ele>1358.0</ele><time>2026-05-03T11:02:01.001Z</time></trkpt><trkpt lat="44.12775829592489" lon="7.972516480873655"><ele>1358.0</ele><time>2026-05-03T11:02:02.001Z</time></trkpt><trkpt lat="44.12774844626093" lon="7.972417929046202"><ele>1358.0</ele><time>2026-05-03T11:02:03.001Z</time></trkpt><trkpt lat="44.12772844196683" lon="7.972290442948092"><ele>1358.0</ele><time>2026-05-03T11:02:05.001Z</time></trkpt><trkpt lat="44.12772737967127" lon="7.972176523695482"><ele>1358.0</ele><time>2026-05-03T11:02:46.001Z</time></trkpt><trkpt lat="44.127687863385844" lon="7.972055434415437"><ele>1358.0</ele><time>2026-05-03T11:02:48.001Z</time></trkpt><trkpt lat="44.12765123983315" lon="7.97188922084941"><ele>1358.0</ele><time>2026-05-03T11:02:50.001Z</time></trkpt><trkpt lat="44.127632913162245" lon="7.971797527481159"><ele>1358.0</ele><time>2026-05-03T11:02:51.001Z</time></trkpt><trkpt lat="44.12761751122894" lon="7.971711779643305"><ele>1358.0</ele><time>2026-05-03T11:02:52.001Z</time></trkpt><trkpt lat="44.127603563625534" lon="7.971625274542467"><ele>1358.0</ele><time>2026-05-03T11:02:53.001Z</time></trkpt><trkpt lat="44.12758038355901" lon="7.971487407654958"><ele>1358.0</ele><time>2026-05-03T11:02:55.001Z</time></trkpt><trkpt lat="44.127492460273054" lon="7.971430773485058"><ele>1356.6666666666667</ele><time>2026-05-03T11:02:57.001Z</time></trkpt><trkpt lat="44.127363099329685" lon="7.971426549421301"><ele>1355.3333333333335</ele><time>2026-05-03T11:02:59.001Z</time></trkpt><trkpt lat="44.12729027415855" lon="7.971482991683722"><ele>1354.0</ele><time>2026-05-03T11:03:00.001Z</time></trkpt><trkpt lat="44.12722327964622" lon="7.971491271713353"><ele>1352.6666666666667</ele><time>2026-05-03T11:03:01.001Z</time></trkpt><trkpt lat="44.12712518398122" lon="7.971492636974843"><ele>1351.3333333333333</ele><time>2026-05-03T11:03:02.001Z</time></trkpt><trkpt lat="44.12708975251616" lon="7.971565425481372"><ele>1350.0</ele><time>2026-05-03T11:03:03.001Z</time></trkpt><trkpt lat="44.12699868260213" lon="7.971653313070704"><ele>1350.5</ele><time>2026-05-03T11:03:05.001Z</time></trkpt><trkpt lat="44.126949596966604" lon="7.97172952104248"><ele>1351.0</ele><time>2026-05-03T11:03:06.001Z</time></trkpt><trkpt lat="44.12687257090811" lon="7.971828816063714"><ele>1351.5</ele><time>2026-05-03T11:03:08.001Z</time></trkpt><trkpt lat="44.12680966795352" lon="7.971866932816647"><ele>1352.0</ele><time>2026-05-03T11:03:09.001Z</time></trkpt><trkpt lat="44.126706100677424" lon="7.971888051491463"><ele>1352.5</ele><time>2026-05-03T11:03:11.001Z</time></trkpt><trkpt lat="44.12663142032087" lon="7.971869964451959"><ele>1353.0</ele><time>2026-05-03T11:03:12.001Z</time></trkpt><trkpt lat="44.12655742289594" lon="7.971842674330352"><ele>1351.8333333333333</ele><time>2026-05-03T11:03:13.001Z</time></trkpt><trkpt lat="44.126479832713706" lon="7.971785386622323"><ele>1350.6666666666667</ele><time>2026-05-03T11:03:14.001Z</time></trkpt><trkpt lat="44.12640432865053" lon="7.971743540745573"><ele>1349.5</ele><time>2026-05-03T11:03:15.001Z</time></trkpt><trkpt lat="44.126327617640555" lon="7.9716978519525155"><ele>1348.3333333333335</ele><time>2026-05-03T11:03:16.001Z</time></trkpt><trkpt lat="44.12624541039126" lon="7.971663041234447"><ele>1347.1666666666667</ele><time>2026-05-03T11:03:17.001Z</time></trkpt><trkpt lat="44.12617604812475" lon="7.9716256965236365"><ele>1346.0</ele><time>2026-05-03T11:03:18.001Z</time></trkpt><trkpt lat="44.12611435870249" lon="7.971607583059683"><ele>1346.0</ele><time>2026-05-03T11:03:19.001Z</time></trkpt><trkpt lat="44.12600816509481" lon="7.971612801902065"><ele>1346.0</ele><time>2026-05-03T11:03:21.001Z</time></trkpt><trkpt lat="44.12594955088081" lon="7.971649881787442"><ele>1346.0</ele><time>2026-05-03T11:03:22.001Z</time></trkpt><trkpt lat="44.1258699557608" lon="7.971683753444586"><ele>1346.0</ele><time>2026-05-03T11:03:23.001Z</time></trkpt><trkpt lat="44.125805357192924" lon="7.971723082254686"><ele>1346.0</ele><time>2026-05-03T11:03:24.001Z</time></trkpt><trkpt lat="44.12574443693421" lon="7.971751244407374"><ele>1346.0</ele><time>2026-05-03T11:03:25.001Z</time></trkpt><trkpt lat="44.12562585316858" lon="7.971731371681186"><ele>1343.8333333333335</ele><time>2026-05-03T11:03:27.001Z</time></trkpt><trkpt lat="44.12556008371742" lon="7.971693629252962"><ele>1341.6666666666667</ele><time>2026-05-03T11:03:28.001Z</time></trkpt><trkpt lat="44.125433512911734" lon="7.971719406911463"><ele>1339.5</ele><time>2026-05-03T11:03:30.001Z</time></trkpt><trkpt lat="44.12536065252229" lon="7.971755320644651"><ele>1337.3333333333333</ele><time>2026-05-03T11:03:31.001Z</time></trkpt><trkpt lat="44.12531000363647" lon="7.971824872498153"><ele>1335.1666666666665</ele><time>2026-05-03T11:03:32.001Z</time></trkpt><trkpt lat="44.12527411252821" lon="7.971897986671992"><ele>1333.0</ele><time>2026-05-03T11:03:33.001Z</time></trkpt><trkpt lat="44.12524676492018" lon="7.971980879614412"><ele>1333.0</ele><time>2026-05-03T11:03:34.001Z</time></trkpt><trkpt lat="44.125236704669256" lon="7.9720695717900405"><ele>1333.0</ele><time>2026-05-03T11:03:35.001Z</time></trkpt><trkpt lat="44.125249334806284" lon="7.9722641741355424"><ele>1333.0</ele><time>2026-05-03T11:03:37.001Z</time></trkpt><trkpt lat="44.1252584997305" lon="7.972364042733997"><ele>1333.0</ele><time>2026-05-03T11:03:38.001Z</time></trkpt><trkpt lat="44.1252770116597" lon="7.972533260614918"><ele>1333.0</ele><time>2026-05-03T11:03:40.001Z</time></trkpt><trkpt lat="44.12534318860485" lon="7.972647096662558"><ele>1331.0</ele><time>2026-05-03T11:03:42.001Z</time></trkpt><trkpt lat="44.12543932014515" lon="7.972684220345835"><ele>1329.0</ele><time>2026-05-03T11:03:44.001Z</time></trkpt><trkpt lat="44.12546006504828" lon="7.972808091066193"><ele>1327.0</ele><time>2026-05-03T11:03:47.001Z</time></trkpt><trkpt lat="44.12537854116947" lon="7.972865087605427"><ele>1325.0</ele><time>2026-05-03T11:03:49.001Z</time></trkpt><trkpt lat="44.1253112052735" lon="7.972858115063757"><ele>1323.0</ele><time>2026-05-03T11:03:50.001Z</time></trkpt><trkpt lat="44.12517480503242" lon="7.972904969733265"><ele>1323.0</ele><time>2026-05-03T11:03:52.001Z</time></trkpt><trkpt lat="44.12509423995954" lon="7.972852267161533"><ele>1323.0</ele><time>2026-05-03T11:03:54.001Z</time></trkpt><trkpt lat="44.124992800542785" lon="7.9727191243692594"><ele>1323.0</ele><time>2026-05-03T11:03:56.001Z</time></trkpt><trkpt lat="44.12494059510356" lon="7.972619077554157"><ele>1323.0</ele><time>2026-05-03T11:03:57.001Z</time></trkpt><trkpt lat="44.12488834572724" lon="7.972516178647585"><ele>1323.0</ele><time>2026-05-03T11:03:58.001Z</time></trkpt><trkpt lat="44.12482740720302" lon="7.972433269816766"><ele>1322.1666666666667</ele><time>2026-05-03T11:03:59.001Z</time></trkpt><trkpt lat="44.12475195981687" lon="7.972342919363987"><ele>1321.3333333333333</ele><time>2026-05-03T11:04:00.001Z</time></trkpt><trkpt lat="44.124700245999904" lon="7.972236619464106"><ele>1320.5</ele><time>2026-05-03T11:04:01.001Z</time></trkpt><trkpt lat="44.12464058716168" lon="7.9721677174239165"><ele>1319.6666666666665</ele><time>2026-05-03T11:04:02.001Z</time></trkpt><trkpt lat="44.12458522790484" lon="7.9721203609862235"><ele>1318.8333333333333</ele><time>2026-05-03T11:04:03.001Z</time></trkpt><trkpt lat="44.12453144550359" lon="7.972067411163275"><ele>1318.0</ele><time>2026-05-03T11:04:04.001Z</time></trkpt><trkpt lat="44.12439459691777" lon="7.9720390760223845"><ele>1318.0</ele><time>2026-05-03T11:04:05.001Z</time></trkpt><trkpt lat="44.124325453659765" lon="7.972037886236142"><ele>1318.0</ele><time>2026-05-03T11:04:06.001Z</time></trkpt><trkpt lat="44.12421360337912" lon="7.972168408113362"><ele>1318.0</ele><time>2026-05-03T11:04:08.001Z</time></trkpt><trkpt lat="44.12415025156331" lon="7.972247430133653"><ele>1318.0</ele><time>2026-05-03T11:04:09.001Z</time></trkpt><trkpt lat="44.12409414798856" lon="7.972296315104646"><ele>1318.0</ele><time>2026-05-03T11:04:10.001Z</time></trkpt><trkpt lat="44.124001005917826" lon="7.9724432850894855"><ele>1311.4</ele><time>2026-05-03T11:04:12.001Z</time></trkpt><trkpt lat="44.123944308531776" lon="7.972559859575748"><ele>1304.8000000000002</ele><time>2026-05-03T11:04:13.001Z</time></trkpt><trkpt lat="44.12391109225682" lon="7.97268354845574"><ele>1298.2</ele><time>2026-05-03T11:04:14.001Z</time></trkpt><trkpt lat="44.12388155305391" lon="7.972821663324906"><ele>1291.6</ele><time>2026-05-03T11:04:15.001Z</time></trkpt><trkpt lat="44.12385098128499" lon="7.972948670697883"><ele>1285.0</ele><time>2026-05-03T11:04:16.001Z</time></trkpt><trkpt lat="44.12382834452206" lon="7.973052239682639"><ele>1285.0</ele><time>2026-05-03T11:04:17.001Z</time></trkpt><trkpt lat="44.12378669815424" lon="7.973170481509477"><ele>1285.0</ele><time>2026-05-03T11:04:19.001Z</time></trkpt><trkpt lat="44.123846878708854" lon="7.973260964939957"><ele>1285.0</ele><time>2026-05-03T11:04:21.001Z</time></trkpt><trkpt lat="44.123956812925535" lon="7.973263036980227"><ele>1285.0</ele><time>2026-05-03T11:04:23.001Z</time></trkpt><trkpt lat="44.124057485784256" lon="7.97318422244285"><ele>1285.0</ele><time>2026-05-03T11:04:25.001Z</time></trkpt><trkpt lat="44.124121156428366" lon="7.973174311908773"><ele>1287.5</ele><time>2026-05-03T11:04:26.001Z</time></trkpt><trkpt lat="44.12419744821891" lon="7.9732058727925"><ele>1290.0</ele><time>2026-05-03T11:04:27.001Z</time></trkpt><trkpt lat="44.12427889790221" lon="7.9732742692752545"><ele>1292.5</ele><time>2026-05-03T11:04:28.001Z</time></trkpt><trkpt lat="44.12433667254761" lon="7.973324753097421"><ele>1295.0</ele><time>2026-05-03T11:04:29.001Z</time></trkpt><trkpt lat="44.12441855726127" lon="7.973358148094925"><ele>1297.5</ele><time>2026-05-03T11:04:30.001Z</time></trkpt><trkpt lat="44.1244892630717" lon="7.973392193357328"><ele>1300.0</ele><time>2026-05-03T11:04:31.001Z</time></trkpt><trkpt lat="44.124553573267896" lon="7.973433814219282"><ele>1300.0</ele><time>2026-05-03T11:04:32.001Z</time></trkpt><trkpt lat="44.12460612429188" lon="7.973493366304305"><ele>1300.0</ele><time>2026-05-03T11:04:33.001Z</time></trkpt><trkpt lat="44.12467386631283" lon="7.973619201144557"><ele>1300.0</ele><time>2026-05-03T11:04:35.001Z</time></trkpt><trkpt lat="44.12469602502406" lon="7.973711677339895"><ele>1300.0</ele><time>2026-05-03T11:04:37.001Z</time></trkpt><trkpt lat="44.124669800481634" lon="7.973841603141007"><ele>1300.0</ele><time>2026-05-03T11:04:39.001Z</time></trkpt><trkpt lat="44.12456408957401" lon="7.973935769235255"><ele>1300.0</ele><time>2026-05-03T11:04:41.001Z</time></trkpt><trkpt lat="44.12448941704089" lon="7.9739759173798"><ele>1300.0</ele><time>2026-05-03T11:04:42.001Z</time></trkpt><trkpt lat="44.12441332073663" lon="7.973991589891183"><ele>1300.0</ele><time>2026-05-03T11:04:43.001Z</time></trkpt><trkpt lat="44.12433904374929" lon="7.974004563237725"><ele>1300.0</ele><time>2026-05-03T11:04:44.001Z</time></trkpt><trkpt lat="44.12427506774738" lon="7.974029085935122"><ele>1300.0</ele><time>2026-05-03T11:04:45.001Z</time></trkpt><trkpt lat="44.12420768763685" lon="7.974034236800921"><ele>1300.0</ele><time>2026-05-03T11:04:46.001Z</time></trkpt><trkpt lat="44.124091544354755" lon="7.974008958246572"><ele>1297.3333333333333</ele><time>2026-05-03T11:04:48Z</time></trkpt><trkpt lat="44.12399770332981" lon="7.973933588305678"><ele>1294.6666666666665</ele><time>2026-05-03T11:04:50Z</time></trkpt><trkpt lat="44.123980232470316" lon="7.97406244812127"><ele>1292.0</ele><time>2026-05-03T11:04:51Z</time></trkpt><trkpt lat="44.12402774529244" lon="7.974165034304684"><ele>1289.3333333333333</ele><time>2026-05-03T11:04:53Z</time></trkpt><trkpt lat="44.12408897845867" lon="7.9741909543474305"><ele>1286.6666666666667</ele><time>2026-05-03T11:04:54Z</time></trkpt><trkpt lat="44.1241645532435" lon="7.974229763764839"><ele>1284.0</ele><time>2026-05-03T11:04:55Z</time></trkpt><trkpt lat="44.12422779654044" lon="7.974290961375618"><ele>1284.0</ele><time>2026-05-03T11:04:56Z</time></trkpt><trkpt lat="44.12428896833563" lon="7.97433376428259"><ele>1284.0</ele><time>2026-05-03T11:04:57Z</time></trkpt><trkpt lat="44.12438380414798" lon="7.974411300901427"><ele>1284.0</ele><time>2026-05-03T11:04:59Z</time></trkpt><trkpt lat="44.124482806119296" lon="7.974511916468421"><ele>1284.0</ele><time>2026-05-03T11:05:01Z</time></trkpt><trkpt lat="44.124571091165" lon="7.974570672504878"><ele>1284.0</ele><time>2026-05-03T11:05:03Z</time></trkpt><trkpt lat="44.12466380452839" lon="7.974632134599903"><ele>1284.0</ele><time>2026-05-03T11:05:05Z</time></trkpt><trkpt lat="44.12474790732444" lon="7.9746790326757715"><ele>1284.0</ele><time>2026-05-03T11:05:07Z</time></trkpt><trkpt lat="44.124804499089315" lon="7.974747394224812"><ele>1284.0</ele><time>2026-05-03T11:05:09Z</time></trkpt><trkpt lat="44.1247211446688" lon="7.974827990650356"><ele>1284.0</ele><time>2026-05-03T11:05:11Z</time></trkpt><trkpt lat="44.124641577046255" lon="7.974964847774685"><ele>1284.0</ele><time>2026-05-03T11:05:13Z</time></trkpt><trkpt lat="44.124593924942346" lon="7.975055415957634"><ele>1284.0</ele><time>2026-05-03T11:05:14Z</time></trkpt><trkpt lat="44.12454481424446" lon="7.975128332606333"><ele>1284.0</ele><time>2026-05-03T11:05:15Z</time></trkpt><trkpt lat="44.124528678410506" lon="7.975297290700743"><ele>1284.0</ele><time>2026-05-03T11:05:17Z</time></trkpt><trkpt lat="44.124419543761" lon="7.9753165299605895"><ele>1284.0</ele><time>2026-05-03T11:05:18Z</time></trkpt><trkpt lat="44.1243760742252" lon="7.975412276184497"><ele>1284.0</ele><time>2026-05-03T11:05:19Z</time></trkpt><trkpt lat="44.12432552523928" lon="7.9755076130176725"><ele>1284.0</ele><time>2026-05-03T11:05:20Z</time></trkpt><trkpt lat="44.12427780105374" lon="7.975593899455109"><ele>1284.0</ele><time>2026-05-03T11:05:21Z</time></trkpt><trkpt lat="44.12423196525547" lon="7.975672307868776"><ele>1284.0</ele><time>2026-05-03T11:05:22Z</time></trkpt><trkpt lat="44.12418576663558" lon="7.97576932666096"><ele>1284.0</ele><time>2026-05-03T11:05:23Z</time></trkpt><trkpt lat="44.12411739632014" lon="7.975906543547158"><ele>1284.0</ele><time>2026-05-03T11:05:24Z</time></trkpt><trkpt lat="44.124062673845465" lon="7.9760148346659685"><ele>1284.0</ele><time>2026-05-03T11:05:25Z</time></trkpt><trkpt lat="44.12401177082381" lon="7.97612195231202"><ele>1282.4</ele><time>2026-05-03T11:05:26Z</time></trkpt><trkpt lat="44.12396998721447" lon="7.976240079714081"><ele>1280.8000000000002</ele><time>2026-05-03T11:05:27Z</time></trkpt><trkpt lat="44.12391955687238" lon="7.97639455251921"><ele>1279.1999999999998</ele><time>2026-05-03T11:05:28Z</time></trkpt><trkpt lat="44.12385468381662" lon="7.976532788187347"><ele>1277.6</ele><time>2026-05-03T11:05:29Z</time></trkpt><trkpt lat="44.123804834637625" lon="7.976655188420466"><ele>1276.0</ele><time>2026-05-03T11:05:30Z</time></trkpt><trkpt lat="44.123757072917336" lon="7.976753149581416"><ele>1276.0</ele><time>2026-05-03T11:05:31Z</time></trkpt><trkpt lat="44.12391449338587" lon="7.976879913480979"><ele>1276.0</ele><time>2026-05-03T11:05:32Z</time></trkpt><trkpt lat="44.12385235311765" lon="7.976950552994325"><ele>1276.0</ele><time>2026-05-03T11:05:33Z</time></trkpt><trkpt lat="44.12376781138491" lon="7.976989568612288"><ele>1276.0</ele><time>2026-05-03T11:05:34Z</time></trkpt><trkpt lat="44.12369419981572" lon="7.976994388142362"><ele>1276.0</ele><time>2026-05-03T11:05:35Z</time></trkpt><trkpt lat="44.12355758964992" lon="7.977003503268975"><ele>1276.0</ele><time>2026-05-03T11:05:36Z</time></trkpt><trkpt lat="44.123466455001314" lon="7.977008763845041"><ele>1276.0</ele><time>2026-05-03T11:05:37Z</time></trkpt><trkpt lat="44.12338622938379" lon="7.977038435713386"><ele>1276.0</ele><time>2026-05-03T11:05:38Z</time></trkpt><trkpt lat="44.123294122354" lon="7.977080907894188"><ele>1276.0</ele><time>2026-05-03T11:05:39Z</time></trkpt><trkpt lat="44.12318920925672" lon="7.9771145273621125"><ele>1276.0</ele><time>2026-05-03T11:05:40Z</time></trkpt><trkpt lat="44.123099707595614" lon="7.977161595246575"><ele>1272.8333333333333</ele><time>2026-05-03T11:05:41Z</time></trkpt><trkpt lat="44.12302437338878" lon="7.977199008168822"><ele>1269.6666666666665</ele><time>2026-05-03T11:05:42Z</time></trkpt><trkpt lat="44.12293514197496" lon="7.977224933385628"><ele>1266.5</ele><time>2026-05-03T11:05:43Z</time></trkpt><trkpt lat="44.12284278522572" lon="7.9772399659151825"><ele>1263.3333333333333</ele><time>2026-05-03T11:05:44Z</time></trkpt><trkpt lat="44.12275196265066" lon="7.9772599319332995"><ele>1260.1666666666667</ele><time>2026-05-03T11:05:45Z</time></trkpt><trkpt lat="44.12267074703046" lon="7.977260239773073"><ele>1257.0</ele><time>2026-05-03T11:05:46Z</time></trkpt><trkpt lat="44.12258964758811" lon="7.977268362272772"><ele>1257.0</ele><time>2026-05-03T11:05:47Z</time></trkpt><trkpt lat="44.122501786982205" lon="7.977298439797486"><ele>1257.0</ele><time>2026-05-03T11:05:48Z</time></trkpt><trkpt lat="44.122420929744884" lon="7.977321280505407"><ele>1257.0</ele><time>2026-05-03T11:05:49Z</time></trkpt><trkpt lat="44.122329532751735" lon="7.977346186374926"><ele>1257.0</ele><time>2026-05-03T11:05:50Z</time></trkpt><trkpt lat="44.12224536115808" lon="7.977382106675889"><ele>1257.0</ele><time>2026-05-03T11:05:51Z</time></trkpt><trkpt lat="44.12216836341653" lon="7.977419242906817"><ele>1257.0</ele><time>2026-05-03T11:05:52Z</time></trkpt><trkpt lat="44.122095558379776" lon="7.977454932728328"><ele>1254.3333333333333</ele><time>2026-05-03T11:05:53Z</time></trkpt><trkpt lat="44.12202703869757" lon="7.977503242299256"><ele>1251.6666666666667</ele><time>2026-05-03T11:05:54Z</time></trkpt><trkpt lat="44.121970081767905" lon="7.977558301882019"><ele>1249.0</ele><time>2026-05-03T11:05:55Z</time></trkpt><trkpt lat="44.12192164701097" lon="7.977626885491329"><ele>1246.3333333333335</ele><time>2026-05-03T11:05:56Z</time></trkpt><trkpt lat="44.1218717048959" lon="7.977701967228556"><ele>1243.6666666666667</ele><time>2026-05-03T11:05:57Z</time></trkpt><trkpt lat="44.121820921705655" lon="7.977765159731312"><ele>1241.0</ele><time>2026-05-03T11:05:58Z</time></trkpt><trkpt lat="44.12174804242625" lon="7.9779058105953355"><ele>1241.0</ele><time>2026-05-03T11:06:00Z</time></trkpt><trkpt lat="44.12171857108665" lon="7.977984220784665"><ele>1241.0</ele><time>2026-05-03T11:06:01Z</time></trkpt><trkpt lat="44.121703038896975" lon="7.978080473873076"><ele>1241.0</ele><time>2026-05-03T11:06:02Z</time></trkpt><trkpt lat="44.12165932349187" lon="7.978177102741508"><ele>1241.0</ele><time>2026-05-03T11:06:03Z</time></trkpt><trkpt lat="44.12164215117831" lon="7.978274124799256"><ele>1241.0</ele><time>2026-05-03T11:06:04Z</time></trkpt><trkpt lat="44.12162434283562" lon="7.978374740370571"><ele>1241.0</ele><time>2026-05-03T11:06:05Z</time></trkpt><trkpt lat="44.1216092713789" lon="7.978460610842399"><ele>1241.0</ele><time>2026-05-03T11:06:06Z</time></trkpt><trkpt lat="44.12159129250841" lon="7.9785640197809204"><ele>1240.7142857142858</ele><time>2026-05-03T11:06:07Z</time></trkpt><trkpt lat="44.12157369137706" lon="7.9786652560537865"><ele>1240.4285714285713</ele><time>2026-05-03T11:06:08Z</time></trkpt><trkpt lat="44.12157190640979" lon="7.978766120327073"><ele>1240.142857142857</ele><time>2026-05-03T11:06:09Z</time></trkpt><trkpt lat="44.1215579937583" lon="7.9788592594222285"><ele>1239.857142857143</ele><time>2026-05-03T11:06:10Z</time></trkpt><trkpt lat="44.12155027552118" lon="7.978952511285263"><ele>1239.5714285714284</ele><time>2026-05-03T11:06:11Z</time></trkpt><trkpt lat="44.12151423498581" lon="7.9790426515950745"><ele>1239.2857142857142</ele><time>2026-05-03T11:06:12Z</time></trkpt><trkpt lat="44.12149829440274" lon="7.979153470303831"><ele>1239.0</ele><time>2026-05-03T11:06:13Z</time></trkpt><trkpt lat="44.1214611427168" lon="7.979238340194017"><ele>1231.8333333333333</ele><time>2026-05-03T11:06:14Z</time></trkpt><trkpt lat="44.121414675784976" lon="7.979316438815428"><ele>1224.6666666666667</ele><time>2026-05-03T11:06:15Z</time></trkpt><trkpt lat="44.121372334399275" lon="7.979451173873641"><ele>1217.5</ele><time>2026-05-03T11:06:17Z</time></trkpt><trkpt lat="44.12140948481429" lon="7.979602173824136"><ele>1210.3333333333335</ele><time>2026-05-03T11:06:19Z</time></trkpt><trkpt lat="44.12145694880207" lon="7.97967226304216"><ele>1203.1666666666667</ele><time>2026-05-03T11:06:20Z</time></trkpt><trkpt lat="44.12151021979892" lon="7.97974656630109"><ele>1196.0</ele><time>2026-05-03T11:06:21Z</time></trkpt><trkpt lat="44.12156068153231" lon="7.979819992820347"><ele>1201.5</ele><time>2026-05-03T11:06:22Z</time></trkpt><trkpt lat="44.12160060708879" lon="7.979901853319865"><ele>1207.0</ele><time>2026-05-03T11:06:23Z</time></trkpt><trkpt lat="44.12162794381317" lon="7.97998546914582"><ele>1212.5</ele><time>2026-05-03T11:06:24Z</time></trkpt><trkpt lat="44.12164949203817" lon="7.980104916030502"><ele>1218.0</ele><time>2026-05-03T11:06:26Z</time></trkpt><trkpt lat="44.12168812429212" lon="7.980199134359286"><ele>1223.5</ele><time>2026-05-03T11:06:30Z</time></trkpt><trkpt lat="44.12170160338762" lon="7.980340394235605"><ele>1229.0</ele><time>2026-05-03T11:06:32.001Z</time></trkpt><trkpt lat="44.12168012142892" lon="7.98044325156771"><ele>1229.0</ele><time>2026-05-03T11:06:33.001Z</time></trkpt><trkpt lat="44.121646895723885" lon="7.980531832920463"><ele>1229.0</ele><time>2026-05-03T11:06:34.001Z</time></trkpt><trkpt lat="44.12160669950366" lon="7.9806449227373975"><ele>1229.0</ele><time>2026-05-03T11:06:35.001Z</time></trkpt><trkpt lat="44.121578402027986" lon="7.980785138590219"><ele>1229.0</ele><time>2026-05-03T11:06:36Z</time></trkpt><trkpt lat="44.121551294618534" lon="7.9809079857378595"><ele>1229.0</ele><time>2026-05-03T11:06:37Z</time></trkpt><trkpt lat="44.12151769684981" lon="7.981015468330734"><ele>1229.0</ele><time>2026-05-03T11:06:38Z</time></trkpt><trkpt lat="44.121489750793046" lon="7.981120976796124"><ele>1223.1666666666667</ele><time>2026-05-03T11:06:39Z</time></trkpt><trkpt lat="44.1214637609059" lon="7.981222786574412"><ele>1217.3333333333335</ele><time>2026-05-03T11:06:40Z</time></trkpt><trkpt lat="44.12143538940958" lon="7.981320834330491"><ele>1211.5</ele><time>2026-05-03T11:06:41Z</time></trkpt><trkpt lat="44.121407455192816" lon="7.98141806499626"><ele>1205.6666666666667</ele><time>2026-05-03T11:06:42Z</time></trkpt><trkpt lat="44.12137916773708" lon="7.981515588381995"><ele>1199.8333333333333</ele><time>2026-05-03T11:06:43Z</time></trkpt><trkpt lat="44.121358612766265" lon="7.9816053159246865"><ele>1194.0</ele><time>2026-05-03T11:06:44Z</time></trkpt><trkpt lat="44.12135765973174" lon="7.981760980337"><ele>1193.8</ele><time>2026-05-03T11:06:46Z</time></trkpt><trkpt lat="44.12139899749322" lon="7.981831171162074"><ele>1193.6000000000001</ele><time>2026-05-03T11:06:48Z</time></trkpt><trkpt lat="44.12137625791807" lon="7.981921797429182"><ele>1193.4</ele><time>2026-05-03T11:06:50Z</time></trkpt><trkpt lat="44.121267819052484" lon="7.981981060825858"><ele>1193.2</ele><time>2026-05-03T11:06:52Z</time></trkpt><trkpt lat="44.12114091553526" lon="7.981801446172553"><ele>1193.0</ele><time>2026-05-03T11:06:54Z</time></trkpt><trkpt lat="44.121105617475884" lon="7.9817091519552665"><ele>1193.1666666666667</ele><time>2026-05-03T11:06:55Z</time></trkpt><trkpt lat="44.12106519026044" lon="7.981599395607443"><ele>1193.3333333333335</ele><time>2026-05-03T11:06:56Z</time></trkpt><trkpt lat="44.1210342491063" lon="7.981488756171513"><ele>1193.5</ele><time>2026-05-03T11:06:57Z</time></trkpt><trkpt lat="44.12100699238879" lon="7.981401945918156"><ele>1193.6666666666667</ele><time>2026-05-03T11:06:58Z</time></trkpt><trkpt lat="44.12098149209583" lon="7.9813145455536585"><ele>1193.8333333333333</ele><time>2026-05-03T11:06:59Z</time></trkpt><trkpt lat="44.120958943446865" lon="7.9812318088166645"><ele>1194.0</ele><time>2026-05-03T11:07:00Z</time></trkpt><trkpt lat="44.120930921711555" lon="7.981089276121335"><ele>1194.0</ele><time>2026-05-03T11:07:02Z</time></trkpt><trkpt lat="44.121024940514566" lon="7.981030063036645"><ele>1194.0</ele><time>2026-05-03T11:07:03Z</time></trkpt><trkpt lat="44.12105686689319" lon="7.9809180704125025"><ele>1194.0</ele><time>2026-05-03T11:07:05Z</time></trkpt><trkpt lat="44.121102298826244" lon="7.98080813002005"><ele>1194.0</ele><time>2026-05-03T11:07:07Z</time></trkpt><trkpt lat="44.121008337051784" lon="7.980687299676068"><ele>1194.0</ele><time>2026-05-03T11:07:09Z</time></trkpt><trkpt lat="44.12093419552252" lon="7.98076042995788"><ele>1194.0</ele><time>2026-05-03T11:07:10Z</time></trkpt><trkpt lat="44.120932550305604" lon="7.980886948614903"><ele>1194.0</ele><time>2026-05-03T11:07:11Z</time></trkpt><trkpt lat="44.12090055734025" lon="7.980972488555688"><ele>1194.0</ele><time>2026-05-03T11:07:12Z</time></trkpt><trkpt lat="44.120806498543935" lon="7.981084061289338"><ele>1194.0</ele><time>2026-05-03T11:07:14Z</time></trkpt><trkpt lat="44.120772995493176" lon="7.981264334071402"><ele>1194.0</ele><time>2026-05-03T11:07:16Z</time></trkpt><trkpt lat="44.12075227441952" lon="7.9813520052452525"><ele>1186.6000000000001</ele><time>2026-05-03T11:07:17Z</time></trkpt><trkpt lat="44.12072463873401" lon="7.981434685985086"><ele>1179.2</ele><time>2026-05-03T11:07:18Z</time></trkpt><trkpt lat="44.12069950351185" lon="7.981517727154288"><ele>1171.8000000000002</ele><time>2026-05-03T11:07:19Z</time></trkpt><trkpt lat="44.12068356898226" lon="7.981690578566029"><ele>1164.4</ele><time>2026-05-03T11:07:21Z</time></trkpt><trkpt lat="44.120717002092356" lon="7.981877623796173"><ele>1157.0</ele><time>2026-05-03T11:07:23Z</time></trkpt><trkpt lat="44.12072842286799" lon="7.981991906981564"><ele>1156.3333333333335</ele><time>2026-05-03T11:07:24Z</time></trkpt><trkpt lat="44.120747379910995" lon="7.9820872531741065"><ele>1155.6666666666667</ele><time>2026-05-03T11:07:25Z</time></trkpt><trkpt lat="44.12074022254359" lon="7.982179462324328"><ele>1155.0</ele><time>2026-05-03T11:07:26Z</time></trkpt><trkpt lat="44.12071288292148" lon="7.9823491386673435"><ele>1154.3333333333333</ele><time>2026-05-03T11:07:28Z</time></trkpt><trkpt lat="44.12068173305035" lon="7.982449711757239"><ele>1153.6666666666665</ele><time>2026-05-03T11:07:29Z</time></trkpt><trkpt lat="44.120657013913736" lon="7.9825449665382475"><ele>1153.0</ele><time>2026-05-03T11:07:30Z</time></trkpt><trkpt lat="44.120638275103715" lon="7.982640120464521"><ele>1153.0</ele><time>2026-05-03T11:07:31Z</time></trkpt><trkpt lat="44.12062356591568" lon="7.982736207126496"><ele>1153.0</ele><time>2026-05-03T11:07:32Z</time></trkpt><trkpt lat="44.120595534553004" lon="7.9828222714977795"><ele>1153.0</ele><time>2026-05-03T11:07:33Z</time></trkpt><trkpt lat="44.12057917725077" lon="7.9829173504599735"><ele>1153.0</ele><time>2026-05-03T11:07:34Z</time></trkpt><trkpt lat="44.120583128430994" lon="7.983013815432499"><ele>1153.0</ele><time>2026-05-03T11:07:35Z</time></trkpt><trkpt lat="44.12059364983739" lon="7.983110350146767"><ele>1153.0</ele><time>2026-05-03T11:07:36Z</time></trkpt><trkpt lat="44.12061009121305" lon="7.983202319519893"><ele>1153.0</ele><time>2026-05-03T11:07:37Z</time></trkpt><trkpt lat="44.12064033803297" lon="7.983286836722972"><ele>1152.1666666666665</ele><time>2026-05-03T11:07:38Z</time></trkpt><trkpt lat="44.120668179689716" lon="7.9833763244221005"><ele>1151.3333333333333</ele><time>2026-05-03T11:07:39Z</time></trkpt><trkpt lat="44.120672498866284" lon="7.983470000383883"><ele>1150.5</ele><time>2026-05-03T11:07:40Z</time></trkpt><trkpt lat="44.120609441581" lon="7.983592550497749"><ele>1149.6666666666667</ele><time>2026-05-03T11:07:42Z</time></trkpt><trkpt lat="44.12057205902256" lon="7.983674988629709"><ele>1148.8333333333335</ele><time>2026-05-03T11:07:43Z</time></trkpt><trkpt lat="44.12055522649235" lon="7.983774689287999"><ele>1148.0</ele><time>2026-05-03T11:07:44Z</time></trkpt><trkpt lat="44.12050158166657" lon="7.983849475188896"><ele>1148.0</ele><time>2026-05-03T11:07:45Z</time></trkpt><trkpt lat="44.12045756019979" lon="7.983937559810731"><ele>1148.0</ele><time>2026-05-03T11:07:46Z</time></trkpt><trkpt lat="44.12043063003213" lon="7.984032256272969"><ele>1148.0</ele><time>2026-05-03T11:07:47Z</time></trkpt><trkpt lat="44.120394755030034" lon="7.984114316085863"><ele>1148.0</ele><time>2026-05-03T11:07:48Z</time></trkpt><trkpt lat="44.120360601442265" lon="7.984221515731965"><ele>1148.0</ele><time>2026-05-03T11:07:49Z</time></trkpt><trkpt lat="44.120334068625816" lon="7.984321704182539"><ele>1148.0</ele><time>2026-05-03T11:07:50Z</time></trkpt><trkpt lat="44.12030667462784" lon="7.984424987239569"><ele>1148.8</ele><time>2026-05-03T11:07:51Z</time></trkpt><trkpt lat="44.1202686704716" lon="7.984546085079107"><ele>1149.6</ele><time>2026-05-03T11:07:52Z</time></trkpt><trkpt lat="44.1202272610451" lon="7.98466249951083"><ele>1150.4</ele><time>2026-05-03T11:07:53Z</time></trkpt><trkpt lat="44.12018891656243" lon="7.984782407158661"><ele>1151.2</ele><time>2026-05-03T11:07:54Z</time></trkpt><trkpt lat="44.120155271317856" lon="7.984909126009136"><ele>1152.0</ele><time>2026-05-03T11:07:55Z</time></trkpt><trkpt lat="44.12013765365181" lon="7.985029546209435"><ele>1152.6666666666667</ele><time>2026-05-03T11:07:56Z</time></trkpt><trkpt lat="44.12012103084286" lon="7.985140839899133"><ele>1153.3333333333333</ele><time>2026-05-03T11:07:57Z</time></trkpt><trkpt lat="44.12009784442972" lon="7.985242043962286"><ele>1154.0</ele><time>2026-05-03T11:07:58Z</time></trkpt><trkpt lat="44.120059538640966" lon="7.985357060281678"><ele>1154.6666666666665</ele><time>2026-05-03T11:07:59Z</time></trkpt><trkpt lat="44.12001734852131" lon="7.985472492172298"><ele>1155.3333333333333</ele><time>2026-05-03T11:08:00Z</time></trkpt><trkpt lat="44.11998029992766" lon="7.985597118412542"><ele>1156.0</ele><time>2026-05-03T11:08:01Z</time></trkpt><trkpt lat="44.11994932651522" lon="7.985715968724173"><ele>1156.0</ele><time>2026-05-03T11:08:02Z</time></trkpt><trkpt lat="44.119915360895526" lon="7.985824297930806"><ele>1156.0</ele><time>2026-05-03T11:08:03Z</time></trkpt><trkpt lat="44.119870962619636" lon="7.985925623692205"><ele>1156.0</ele><time>2026-05-03T11:08:04Z</time></trkpt><trkpt lat="44.119832806023176" lon="7.986034946291777"><ele>1156.0</ele><time>2026-05-03T11:08:05Z</time></trkpt><trkpt lat="44.11979143064397" lon="7.986144793715846"><ele>1156.0</ele><time>2026-05-03T11:08:06Z</time></trkpt><trkpt lat="44.11974994037501" lon="7.986259085968876"><ele>1156.0</ele><time>2026-05-03T11:08:07Z</time></trkpt><trkpt lat="44.11971653030318" lon="7.986364142659041"><ele>1148.6666666666665</ele><time>2026-05-03T11:08:08Z</time></trkpt><trkpt lat="44.11969068603214" lon="7.986467418463498"><ele>1141.3333333333333</ele><time>2026-05-03T11:08:09Z</time></trkpt><trkpt lat="44.119668674953886" lon="7.986568607687892"><ele>1134.0</ele><time>2026-05-03T11:08:10Z</time></trkpt><trkpt lat="44.119660246076066" lon="7.986671839421787"><ele>1126.6666666666667</ele><time>2026-05-03T11:08:11Z</time></trkpt><trkpt lat="44.119654566704746" lon="7.986773726207016"><ele>1119.3333333333335</ele><time>2026-05-03T11:08:12Z</time></trkpt><trkpt lat="44.11964931240454" lon="7.9868811736080145"><ele>1112.0</ele><time>2026-05-03T11:08:13Z</time></trkpt><trkpt lat="44.11964812502035" lon="7.986994492547865"><ele>1112.0</ele><time>2026-05-03T11:08:14Z</time></trkpt><trkpt lat="44.11964758088922" lon="7.987108686594163"><ele>1112.0</ele><time>2026-05-03T11:08:15Z</time></trkpt><trkpt lat="44.11964966763334" lon="7.98721856861515"><ele>1112.0</ele><time>2026-05-03T11:08:16Z</time></trkpt><trkpt lat="44.119654214369035" lon="7.987334602268697"><ele>1112.0</ele><time>2026-05-03T11:08:17Z</time></trkpt><trkpt lat="44.11966442172719" lon="7.987469667414758"><ele>1112.0</ele><time>2026-05-03T11:08:18Z</time></trkpt><trkpt lat="44.11967915611482" lon="7.98759676956964"><ele>1112.0</ele><time>2026-05-03T11:08:19Z</time></trkpt><trkpt lat="44.11970224881515" lon="7.987723010904252"><ele>1110.2</ele><time>2026-05-03T11:08:20Z</time></trkpt><trkpt lat="44.119719774391434" lon="7.987861816258495"><ele>1108.4</ele><time>2026-05-03T11:08:21Z</time></trkpt><trkpt lat="44.11972620134802" lon="7.987994088368987"><ele>1106.6</ele><time>2026-05-03T11:08:22Z</time></trkpt><trkpt lat="44.11973866675374" lon="7.988125980528848"><ele>1104.8</ele><time>2026-05-03T11:08:23Z</time></trkpt><trkpt lat="44.119756371627105" lon="7.988263300579854"><ele>1103.0</ele><time>2026-05-03T11:08:24Z</time></trkpt><trkpt lat="44.119785221268806" lon="7.9883793628899875"><ele>1101.7142857142858</ele><time>2026-05-03T11:08:25Z</time></trkpt><trkpt lat="44.11981205710504" lon="7.988496260911748"><ele>1100.4285714285716</ele><time>2026-05-03T11:08:26Z</time></trkpt><trkpt lat="44.1198300366184" lon="7.988608006420557"><ele>1099.142857142857</ele><time>2026-05-03T11:08:27Z</time></trkpt><trkpt lat="44.11984976422984" lon="7.9886924808959"><ele>1097.857142857143</ele><time>2026-05-03T11:08:28Z</time></trkpt><trkpt lat="44.11987389952559" lon="7.9887778037224"><ele>1096.5714285714284</ele><time>2026-05-03T11:08:29Z</time></trkpt><trkpt lat="44.11990509316055" lon="7.9888552745547114"><ele>1095.2857142857142</ele><time>2026-05-03T11:08:30Z</time></trkpt><trkpt lat="44.11996524167081" lon="7.988937566656678"><ele>1094.0</ele><time>2026-05-03T11:08:31Z</time></trkpt><trkpt lat="44.12003348429798" lon="7.9890229087770965"><ele>1094.8333333333335</ele><time>2026-05-03T11:08:32Z</time></trkpt><trkpt lat="44.120101524046795" lon="7.989102487075659"><ele>1095.6666666666667</ele><time>2026-05-03T11:08:33Z</time></trkpt><trkpt lat="44.12016454060999" lon="7.989173095302138"><ele>1096.5</ele><time>2026-05-03T11:08:34Z</time></trkpt><trkpt lat="44.12022873817738" lon="7.989250006336003"><ele>1097.3333333333333</ele><time>2026-05-03T11:08:35Z</time></trkpt><trkpt lat="44.120284055196" lon="7.989322965748631"><ele>1098.1666666666665</ele><time>2026-05-03T11:08:36Z</time></trkpt><trkpt lat="44.12032982059892" lon="7.9894105683057655"><ele>1099.0</ele><time>2026-05-03T11:08:37Z</time></trkpt><trkpt lat="44.12037848020901" lon="7.989508928938966"><ele>1099.0</ele><time>2026-05-03T11:08:38Z</time></trkpt><trkpt lat="44.12041669497625" lon="7.9896067304725085"><ele>1099.0</ele><time>2026-05-03T11:08:39Z</time></trkpt><trkpt lat="44.12044377197931" lon="7.989709010617588"><ele>1099.0</ele><time>2026-05-03T11:08:40Z</time></trkpt><trkpt lat="44.12046984746272" lon="7.989818407554219"><ele>1099.0</ele><time>2026-05-03T11:08:41Z</time></trkpt><trkpt lat="44.12048880223709" lon="7.989923184991494"><ele>1099.0</ele><time>2026-05-03T11:08:42Z</time></trkpt><trkpt lat="44.120489854596194" lon="7.9900362899851824"><ele>1099.0</ele><time>2026-05-03T11:08:43Z</time></trkpt><trkpt lat="44.120491706057244" lon="7.990155052282807"><ele>1095.6000000000001</ele><time>2026-05-03T11:08:44Z</time></trkpt><trkpt lat="44.12049621742131" lon="7.990281476567531"><ele>1092.2</ele><time>2026-05-03T11:08:45Z</time></trkpt><trkpt lat="44.12051012383514" lon="7.990408709503011"><ele>1088.8000000000002</ele><time>2026-05-03T11:08:46Z</time></trkpt><trkpt lat="44.120533269889215" lon="7.99053983549451"><ele>1085.4</ele><time>2026-05-03T11:08:47Z</time></trkpt><trkpt lat="44.12055756695453" lon="7.990677686671134"><ele>1082.0</ele><time>2026-05-03T11:08:48Z</time></trkpt><trkpt lat="44.1205865022986" lon="7.990820939927694"><ele>1080.1666666666667</ele><time>2026-05-03T11:08:49Z</time></trkpt><trkpt lat="44.120618429051056" lon="7.990956460319751"><ele>1078.3333333333335</ele><time>2026-05-03T11:08:50Z</time></trkpt><trkpt lat="44.120645764580765" lon="7.99107757043021"><ele>1076.5</ele><time>2026-05-03T11:08:51Z</time></trkpt><trkpt lat="44.12065908647625" lon="7.991191610037405"><ele>1074.6666666666667</ele><time>2026-05-03T11:08:52Z</time></trkpt><trkpt lat="44.12067493462089" lon="7.991299578888574"><ele>1072.8333333333333</ele><time>2026-05-03T11:08:53Z</time></trkpt><trkpt lat="44.12069078865835" lon="7.991403551793277"><ele>1071.0</ele><time>2026-05-03T11:08:54Z</time></trkpt><trkpt lat="44.12069222270197" lon="7.991515317195321"><ele>1071.0</ele><time>2026-05-03T11:08:55Z</time></trkpt><trkpt lat="44.12067798117972" lon="7.99162603747602"><ele>1071.0</ele><time>2026-05-03T11:08:56Z</time></trkpt><trkpt lat="44.12065500379246" lon="7.991735432953899"><ele>1071.0</ele><time>2026-05-03T11:08:57Z</time></trkpt><trkpt lat="44.12063432149312" lon="7.991855389317778"><ele>1071.0</ele><time>2026-05-03T11:08:58Z</time></trkpt><trkpt lat="44.120619139058626" lon="7.9919840331833285"><ele>1071.0</ele><time>2026-05-03T11:08:59Z</time></trkpt><trkpt lat="44.120595545690925" lon="7.992114305852293"><ele>1071.0</ele><time>2026-05-03T11:09:00Z</time></trkpt><trkpt lat="44.12057376032925" lon="7.992243635764867"><ele>1070.0</ele><time>2026-05-03T11:09:01Z</time></trkpt><trkpt lat="44.12056922622234" lon="7.992360413500355"><ele>1069.0</ele><time>2026-05-03T11:09:02Z</time></trkpt><trkpt lat="44.120574010966536" lon="7.992478633193303"><ele>1068.0</ele><time>2026-05-03T11:09:03Z</time></trkpt><trkpt lat="44.12057630523219" lon="7.992587172811432"><ele>1067.0</ele><time>2026-05-03T11:09:04Z</time></trkpt><trkpt lat="44.120569696395485" lon="7.992683796103955"><ele>1066.0</ele><time>2026-05-03T11:09:05Z</time></trkpt><trkpt lat="44.120520539026984" lon="7.99284475567714"><ele>1065.0</ele><time>2026-05-03T11:09:07Z</time></trkpt><trkpt lat="44.12047829665028" lon="7.99293135472126"><ele>1065.0</ele><time>2026-05-03T11:09:08Z</time></trkpt><trkpt lat="44.12042610416012" lon="7.993026003291203"><ele>1065.0</ele><time>2026-05-03T11:09:09Z</time></trkpt><trkpt lat="44.12039714960474" lon="7.993128216386984"><ele>1065.0</ele><time>2026-05-03T11:09:10Z</time></trkpt><trkpt lat="44.12039131598335" lon="7.99325254666425"><ele>1065.0</ele><time>2026-05-03T11:09:11Z</time></trkpt><trkpt lat="44.12038818361841" lon="7.9933844483446475"><ele>1065.0</ele><time>2026-05-03T11:09:12Z</time></trkpt><trkpt lat="44.12038368369479" lon="7.99349086429597"><ele>1065.0</ele><time>2026-05-03T11:09:13Z</time></trkpt><trkpt lat="44.12038726018351" lon="7.993588259984882"><ele>1063.8333333333333</ele><time>2026-05-03T11:09:14Z</time></trkpt><trkpt lat="44.12040413947563" lon="7.993741381282629"><ele>1062.6666666666667</ele><time>2026-05-03T11:09:16Z</time></trkpt><trkpt lat="44.12041356403537" lon="7.993864205680433"><ele>1061.5</ele><time>2026-05-03T11:09:18Z</time></trkpt><trkpt lat="44.12041459891335" lon="7.993962482037547"><ele>1060.3333333333335</ele><time>2026-05-03T11:09:20Z</time></trkpt><trkpt lat="44.12044362181273" lon="7.994056798674522"><ele>1059.1666666666667</ele><time>2026-05-03T11:09:24Z</time></trkpt><trkpt lat="44.120439519888635" lon="7.994194594056936"><ele>1058.0</ele><time>2026-05-03T11:09:42Z</time></trkpt><trkpt lat="44.12042872869372" lon="7.994350637497062"><ele>1057.0</ele><time>2026-05-03T11:09:44Z</time></trkpt><trkpt lat="44.120429860426455" lon="7.994441793948993"><ele>1056.0</ele><time>2026-05-03T11:09:45Z</time></trkpt><trkpt lat="44.120434726650316" lon="7.994544324843452"><ele>1055.0</ele><time>2026-05-03T11:09:46Z</time></trkpt><trkpt lat="44.12045580072712" lon="7.994645786870198"><ele>1054.0</ele><time>2026-05-03T11:09:47Z</time></trkpt><trkpt lat="44.120491403356546" lon="7.994743226660937"><ele>1053.0</ele><time>2026-05-03T11:09:48Z</time></trkpt><trkpt lat="44.12051557674645" lon="7.994849934403228"><ele>1052.0</ele><time>2026-05-03T11:09:49Z</time></trkpt><trkpt lat="44.12051938719532" lon="7.994957516343284"><ele>1048.4</ele><time>2026-05-03T11:09:50Z</time></trkpt><trkpt lat="44.120515884573464" lon="7.995078894426846"><ele>1044.8000000000002</ele><time>2026-05-03T11:09:51Z</time></trkpt><trkpt lat="44.120534743094176" lon="7.995193027931632"><ele>1041.2</ele><time>2026-05-03T11:09:52Z</time></trkpt><trkpt lat="44.12060098465231" lon="7.995294460621202"><ele>1037.6000000000001</ele><time>2026-05-03T11:09:53Z</time></trkpt><trkpt lat="44.12066005389386" lon="7.995405387291618"><ele>1034.0</ele><time>2026-05-03T11:09:54Z</time></trkpt><trkpt lat="44.12068654797563" lon="7.995517632314168"><ele>1034.0</ele><time>2026-05-03T11:09:55Z</time></trkpt><trkpt lat="44.1207179337285" lon="7.995615081107424"><ele>1034.0</ele><time>2026-05-03T11:09:56Z</time></trkpt><trkpt lat="44.120762097232486" lon="7.995711366083942"><ele>1034.0</ele><time>2026-05-03T11:09:57Z</time></trkpt><trkpt lat="44.12080680753027" lon="7.995790435035855"><ele>1034.0</ele><time>2026-05-03T11:09:58Z</time></trkpt><trkpt lat="44.12086164623968" lon="7.99591049337711"><ele>1034.0</ele><time>2026-05-03T11:10:00Z</time></trkpt><trkpt lat="44.12077518417519" lon="7.995963855334886"><ele>1034.0</ele><time>2026-05-03T11:10:03Z</time></trkpt><trkpt lat="44.12067140766989" lon="7.9958171173563475"><ele>1034.0</ele><time>2026-05-03T11:10:05Z</time></trkpt><trkpt lat="44.12060110269376" lon="7.995757017436007"><ele>1034.0</ele><time>2026-05-03T11:10:06Z</time></trkpt><trkpt lat="44.12051836056866" lon="7.9956844058419545"><ele>1034.0</ele><time>2026-05-03T11:10:07Z</time></trkpt><trkpt lat="44.1204462455832" lon="7.995582743004803"><ele>1034.0</ele><time>2026-05-03T11:10:08Z</time></trkpt><trkpt lat="44.1203841421086" lon="7.995477678190263"><ele>1034.0</ele><time>2026-05-03T11:10:09Z</time></trkpt><trkpt lat="44.120310594084565" lon="7.99535700318988"><ele>1034.0</ele><time>2026-05-03T11:10:10Z</time></trkpt><trkpt lat="44.12022259681603" lon="7.99525983980799"><ele>1034.0</ele><time>2026-05-03T11:10:11Z</time></trkpt><trkpt lat="44.120145913351784" lon="7.995175756689165"><ele>1034.0</ele><time>2026-05-03T11:10:12Z</time></trkpt><trkpt lat="44.12006512877978" lon="7.9950849816929415"><ele>1034.0</ele><time>2026-05-03T11:10:13Z</time></trkpt><trkpt lat="44.11998746667093" lon="7.9949872496267185"><ele>1034.0</ele><time>2026-05-03T11:10:14Z</time></trkpt><trkpt lat="44.11990859043674" lon="7.994896573130396"><ele>1030.4</ele><time>2026-05-03T11:10:15Z</time></trkpt><trkpt lat="44.11983156581627" lon="7.99479784073488"><ele>1026.8000000000002</ele><time>2026-05-03T11:10:16Z</time></trkpt><trkpt lat="44.11976796733461" lon="7.994689098895795"><ele>1023.1999999999999</ele><time>2026-05-03T11:10:17Z</time></trkpt><trkpt lat="44.11970086960271" lon="7.994566635968757"><ele>1019.5999999999999</ele><time>2026-05-03T11:10:18Z</time></trkpt><trkpt lat="44.11963718333885" lon="7.994453026359327"><ele>1016.0</ele><time>2026-05-03T11:10:19Z</time></trkpt><trkpt lat="44.11956991758812" lon="7.994346225275166"><ele>1016.0</ele><time>2026-05-03T11:10:20Z</time></trkpt><trkpt lat="44.11950859379694" lon="7.994253451402598"><ele>1015.9999999999999</ele><time>2026-05-03T11:10:21Z</time></trkpt><trkpt lat="44.119444858931026" lon="7.994158615429255"><ele>1015.9999999999999</ele><time>2026-05-03T11:10:22Z</time></trkpt><trkpt lat="44.11938299358417" lon="7.994067624907198"><ele>1016.0</ele><time>2026-05-03T11:10:23Z</time></trkpt><trkpt lat="44.11932671224083" lon="7.993970661906823"><ele>1016.0</ele><time>2026-05-03T11:10:24Z</time></trkpt><trkpt lat="44.11925314242032" lon="7.993863811811124"><ele>1018.0</ele><time>2026-05-03T11:10:25Z</time></trkpt><trkpt lat="44.11918247357543" lon="7.99376963466417"><ele>1019.9999999999999</ele><time>2026-05-03T11:10:26Z</time></trkpt><trkpt lat="44.11910159011138" lon="7.993681515273529"><ele>1021.9999999999999</ele><time>2026-05-03T11:10:27Z</time></trkpt><trkpt lat="44.11902042878595" lon="7.993608051342281"><ele>1024.0</ele><time>2026-05-03T11:10:28Z</time></trkpt><trkpt lat="44.11894245848252" lon="7.99354354260111"><ele>1026.0</ele><time>2026-05-03T11:10:29Z</time></trkpt><trkpt lat="44.11887870213961" lon="7.993504363092181"><ele>1022.5714285714287</ele><time>2026-05-03T11:10:30Z</time></trkpt><trkpt lat="44.118805515237376" lon="7.993446942771981"><ele>1019.1428571428571</ele><time>2026-05-03T11:10:32Z</time></trkpt><trkpt lat="44.11874557959634" lon="7.993364268846059"><ele>1015.7142857142858</ele><time>2026-05-03T11:11:55Z</time></trkpt><trkpt lat="44.11868516559652" lon="7.993323713063194"><ele>1012.2857142857143</ele><time>2026-05-03T11:12:01Z</time></trkpt><trkpt lat="44.11863964803156" lon="7.993259870765623"><ele>1008.8571428571429</ele><time>2026-05-03T11:12:07Z</time></trkpt><trkpt lat="44.11857837276106" lon="7.993211112428275"><ele>1005.4285714285714</ele><time>2026-05-03T11:12:51Z</time></trkpt><trkpt lat="44.11850749510007" lon="7.993193219217233"><ele>1002.0</ele><time>2026-05-03T11:14:41.999Z</time></trkpt><trkpt lat="44.11857501790065" lon="7.993125751417596"><ele>1002.0</ele><time>2026-05-03T11:15:04Z</time></trkpt><trkpt lat="44.118531457945096" lon="7.993190965212735"><ele>1002.0</ele><time>2026-05-03T11:20:38Z</time></trkpt><trkpt lat="44.118597052002805" lon="7.993158150163752"><ele>1002.0</ele><time>2026-05-03T11:21:37Z</time></trkpt><trkpt lat="44.11866308181492" lon="7.993131368449225"><ele>1002.0</ele><time>2026-05-03T11:22:19Z</time></trkpt><trkpt lat="44.118573351935815" lon="7.993165208944083"><ele>1002.0</ele><time>2026-05-03T11:24:24.999Z</time></trkpt><trkpt lat="44.11852547520156" lon="7.99326530275138"><ele>1002.0</ele><time>2026-05-03T11:29:10Z</time></trkpt><trkpt lat="44.11852704025176" lon="7.993149586707493"><ele>1002.0</ele><time>2026-05-03T11:29:54Z</time></trkpt><trkpt lat="44.11859145935228" lon="7.993185349493705"><ele>1002.0</ele><time>2026-05-03T11:30:04Z</time></trkpt><trkpt lat="44.11852473102501" lon="7.993173591748032"><ele>1002.0</ele><time>2026-05-03T11:30:09Z</time></trkpt><trkpt lat="44.11855307364805" lon="7.993090685390178"><ele>1002.0</ele><time>2026-05-03T11:30:45.001Z</time></trkpt><trkpt lat="44.1186225510041" lon="7.993089362384789"><ele>1002.0</ele><time>2026-05-03T11:30:49.001Z</time></trkpt><trkpt lat="44.11869312087274" lon="7.993040650433966"><ele>1002.0</ele><time>2026-05-03T11:30:56.001Z</time></trkpt><trkpt lat="44.11875094874418" lon="7.992924685565884"><ele>1002.0</ele><time>2026-05-03T11:30:58.001Z</time></trkpt><trkpt lat="44.11880615333521" lon="7.992837403641504"><ele>1002.0</ele><time>2026-05-03T11:30:59.001Z</time></trkpt><trkpt lat="44.11886221674783" lon="7.99275100276539"><ele>1002.0</ele><time>2026-05-03T11:31:01.001Z</time></trkpt><trkpt lat="44.118922346686944" lon="7.99267707885618"><ele>1002.0</ele><time>2026-05-03T11:31:03.001Z</time></trkpt><trkpt lat="44.118987526405256" lon="7.992610909770299"><ele>1002.0</ele><time>2026-05-03T11:31:05.045Z</time></trkpt><trkpt lat="44.11891013352417" lon="7.9929489490292935"><ele>1002.0</ele><time>2026-05-03T11:31:39.438Z</time></trkpt><trkpt lat="44.118720943692374" lon="7.99324737348708"><ele>1002.0</ele><time>2026-05-03T11:32:27.018Z</time></trkpt><trkpt lat="44.118692196580966" lon="7.993128311726778"><ele>1002.0</ele><time>2026-05-03T11:33:12.014Z</time></trkpt><trkpt lat="44.11858912816657" lon="7.993137078662075"><ele>1002.0</ele><time>2026-05-03T11:33:21.015Z</time></trkpt><trkpt lat="44.11852769753079" lon="7.993174272841796"><ele>1002.0</ele><time>2026-05-03T11:33:30.014Z</time></trkpt><trkpt lat="44.118455810696275" lon="7.993171946388113"><ele>1002.0</ele><time>2026-05-03T11:33:34.016Z</time></trkpt><trkpt lat="44.118520000794426" lon="7.993208215576609"><ele>1002.0</ele><time>2026-05-03T11:33:41.002Z</time></trkpt><trkpt lat="44.118601165642154" lon="7.99322997636161"><ele>1002.0</ele><time>2026-05-03T11:33:44.002Z</time></trkpt><trkpt lat="44.11857618726543" lon="7.99312777115541"><ele>1002.0</ele><time>2026-05-03T11:33:51.001Z</time></trkpt><trkpt lat="44.118564247211516" lon="7.9930415434870525"><ele>1002.0</ele><time>2026-05-03T11:33:55.001Z</time></trkpt><trkpt lat="44.11865118527405" lon="7.9930721699145435"><ele>1002.0</ele><time>2026-05-03T11:34:46.407Z</time></trkpt><trkpt lat="44.1186628283162" lon="7.993218012280036"><ele>1002.0</ele><time>2026-05-03T11:35:11.011Z</time></trkpt><trkpt lat="44.11859522746679" lon="7.993246276427185"><ele>1002.0</ele><time>2026-05-03T11:38:58.012Z</time></trkpt><trkpt lat="44.11875059318938" lon="7.993259414502243"><ele>1002.0</ele><time>2026-05-03T11:41:30.417Z</time></trkpt><trkpt lat="44.11861947142007" lon="7.993250426344065"><ele>1000.75</ele><time>2026-05-03T11:42:46.014Z</time></trkpt><trkpt lat="44.118619984728454" lon="7.993430474335558"><ele>999.5</ele><time>2026-05-03T11:43:08.003Z</time></trkpt><trkpt lat="44.11855136994157" lon="7.993343666563705"><ele>998.25</ele><time>2026-05-03T11:44:05Z</time></trkpt><trkpt lat="44.118655152048404" lon="7.9934596456219955"><ele>997.0</ele><time>2026-05-03T11:45:23Z</time></trkpt><trkpt lat="44.118552646589855" lon="7.9934017003489535"><ele>998.0</ele><time>2026-05-03T11:45:41Z</time></trkpt><trkpt lat="44.118674187999176" lon="7.993316637766918"><ele>999.0</ele><time>2026-05-03T11:47:02.54Z</time></trkpt><trkpt lat="44.11863341452237" lon="7.993235798315542"><ele>1000.0</ele><time>2026-05-03T11:50:33.011Z</time></trkpt><trkpt lat="44.11860717298046" lon="7.993121115776634"><ele>1001.0</ele><time>2026-05-03T11:50:40Z</time></trkpt><trkpt lat="44.118669259065975" lon="7.993014392875821"><ele>1002.0</ele><time>2026-05-03T12:24:31Z</time></trkpt><trkpt lat="44.118538148879445" lon="7.9931278435928474"><ele>1002.0</ele><time>2026-05-03T12:29:57Z</time></trkpt><trkpt lat="44.11860365224177" lon="7.99310964070412"><ele>1002.0</ele><time>2026-05-03T12:31:35Z</time></trkpt><trkpt lat="44.11854214311805" lon="7.993148573828665"><ele>1002.0</ele><time>2026-05-03T12:31:44Z</time></trkpt><trkpt lat="44.11861865220039" lon="7.993010695653448"><ele>1002.0</ele><time>2026-05-03T12:32:00.072Z</time></trkpt><trkpt lat="44.11867672838244" lon="7.9929762528023955"><ele>1002.0</ele><time>2026-05-03T12:32:01Z</time></trkpt><trkpt lat="44.118648711553774" lon="7.993058207809103"><ele>1002.0</ele><time>2026-05-03T12:32:06Z</time></trkpt><trkpt lat="44.11858655701965" lon="7.993031925430617"><ele>1002.0</ele><time>2026-05-03T12:32:21.999Z</time></trkpt><trkpt lat="44.118532399237914" lon="7.992985632780507"><ele>1002.0</ele><time>2026-05-03T12:32:26.999Z</time></trkpt><trkpt lat="44.118477734028026" lon="7.992929817521216"><ele>1002.0</ele><time>2026-05-03T12:32:31.999Z</time></trkpt><trkpt lat="44.118528743284" lon="7.992983250264894"><ele>1002.0</ele><time>2026-05-03T12:32:32.999Z</time></trkpt><trkpt lat="44.11859609628742" lon="7.992994468646654"><ele>1002.0</ele><time>2026-05-03T12:32:59.03Z</time></trkpt><trkpt lat="44.118621103219176" lon="7.9931111128432475"><ele>1002.0</ele><time>2026-05-03T12:33:06.017Z</time></trkpt><trkpt lat="44.11860054817883" lon="7.993199814033264"><ele>1002.0</ele><time>2026-05-03T12:35:45.999Z</time></trkpt><trkpt lat="44.11866346573664" lon="7.993195234883437"><ele>1002.0</ele><time>2026-05-03T12:36:28Z</time></trkpt><trkpt lat="44.11872626706243" lon="7.993166573809021"><ele>1002.0</ele><time>2026-05-03T12:39:04.999Z</time></trkpt><trkpt lat="44.118771346230815" lon="7.993068376042111"><ele>1002.0</ele><time>2026-05-03T12:42:50.999Z</time></trkpt><trkpt lat="44.118715872981184" lon="7.993133257911496"><ele>1002.0</ele><time>2026-05-03T12:45:58.999Z</time></trkpt><trkpt lat="44.11865542319693" lon="7.993203968410613"><ele>1002.0</ele><time>2026-05-03T12:46:05.999Z</time></trkpt><trkpt lat="44.11864794176644" lon="7.9932933828013395"><ele>1002.0</ele><time>2026-05-03T12:47:03Z</time></trkpt><trkpt lat="44.11871117615201" lon="7.993355800077891"><ele>1002.0</ele><time>2026-05-03T12:47:11Z</time></trkpt><trkpt lat="44.11878682914072" lon="7.993370953971377"><ele>1002.0</ele><time>2026-05-03T12:47:56Z</time></trkpt><trkpt lat="44.118727383404035" lon="7.993331133014811"><ele>1002.0</ele><time>2026-05-03T12:49:53.001Z</time></trkpt><trkpt lat="44.11867890181289" lon="7.9934008316810665"><ele>1002.0</ele><time>2026-05-03T12:50:08.001Z</time></trkpt><trkpt lat="44.11865523382781" lon="7.993518823603462"><ele>1002.0</ele><time>2026-05-03T12:50:12.001Z</time></trkpt><trkpt lat="44.11867356708199" lon="7.993622121211238"><ele>1002.0</ele><time>2026-05-03T12:50:14.001Z</time></trkpt><trkpt lat="44.1187358782342" lon="7.993732815392811"><ele>1002.0</ele><time>2026-05-03T12:50:16.001Z</time></trkpt><trkpt lat="44.1187963015538" lon="7.993800785676731"><ele>1001.1666666666666</ele><time>2026-05-03T12:50:18.001Z</time></trkpt><trkpt lat="44.118758270309996" lon="7.993886334828919"><ele>1000.3333333333333</ele><time>2026-05-03T12:50:20.001Z</time></trkpt><trkpt lat="44.118689862487614" lon="7.993869235298204"><ele>999.5</ele><time>2026-05-03T12:50:23.001Z</time></trkpt><trkpt lat="44.11864084023529" lon="7.993796871997742"><ele>998.6666666666666</ele><time>2026-05-03T12:50:24.001Z</time></trkpt><trkpt lat="44.11854033404333" lon="7.993746179879319"><ele>997.8333333333333</ele><time>2026-05-03T12:50:26.001Z</time></trkpt><trkpt lat="44.118538894151754" lon="7.993874134612053"><ele>997.0</ele><time>2026-05-03T12:50:28.001Z</time></trkpt><trkpt lat="44.11861846059371" lon="7.993968455543348"><ele>997.0</ele><time>2026-05-03T12:50:31.001Z</time></trkpt><trkpt lat="44.11868759940077" lon="7.994090915384888"><ele>997.0</ele><time>2026-05-03T12:50:33.001Z</time></trkpt><trkpt lat="44.118712135282486" lon="7.994186627257278"><ele>997.0</ele><time>2026-05-03T12:50:34.001Z</time></trkpt><trkpt lat="44.11873421162422" lon="7.994323076845344"><ele>997.0</ele><time>2026-05-03T12:50:35.001Z</time></trkpt><trkpt lat="44.118759720663455" lon="7.994442537684712"><ele>997.0</ele><time>2026-05-03T12:50:36.001Z</time></trkpt><trkpt lat="44.118784167351095" lon="7.994591810138437"><ele>994.8</ele><time>2026-05-03T12:50:37.001Z</time></trkpt><trkpt lat="44.11881532600414" lon="7.994740315991811"><ele>992.6</ele><time>2026-05-03T12:50:38.001Z</time></trkpt><trkpt lat="44.11883993203425" lon="7.994873775725179"><ele>990.3999999999999</ele><time>2026-05-03T12:50:39.001Z</time></trkpt><trkpt lat="44.11886626611993" lon="7.99502859218872"><ele>988.1999999999999</ele><time>2026-05-03T12:50:40.001Z</time></trkpt><trkpt lat="44.118930653783934" lon="7.9951094987375795"><ele>986.0</ele><time>2026-05-03T12:50:41.001Z</time></trkpt><trkpt lat="44.11897388119137" lon="7.995212191466752"><ele>988.0</ele><time>2026-05-03T12:50:42.001Z</time></trkpt><trkpt lat="44.11902069981747" lon="7.995302278025836"><ele>989.9999999999999</ele><time>2026-05-03T12:50:43.001Z</time></trkpt><trkpt lat="44.11906136172892" lon="7.99537664740945"><ele>991.9999999999999</ele><time>2026-05-03T12:50:44.001Z</time></trkpt><trkpt lat="44.119081805265736" lon="7.9955337173847845"><ele>994.0</ele><time>2026-05-03T12:50:46.001Z</time></trkpt><trkpt lat="44.11895927372641" lon="7.995639696096282"><ele>996.0</ele><time>2026-05-03T12:50:48.001Z</time></trkpt><trkpt lat="44.118894077426845" lon="7.995624554245784"><ele>991.8</ele><time>2026-05-03T12:50:49.001Z</time></trkpt><trkpt lat="44.11887454477697" lon="7.995536155575415"><ele>987.5999999999999</ele><time>2026-05-03T12:50:50.001Z</time></trkpt><trkpt lat="44.118834693108425" lon="7.995615538579722"><ele>983.4</ele><time>2026-05-03T12:50:51.001Z</time></trkpt><trkpt lat="44.11874275534692" lon="7.995468901190419"><ele>979.2</ele><time>2026-05-03T12:50:52.001Z</time></trkpt><trkpt lat="44.118627934065174" lon="7.995349907953355"><ele>975.0</ele><time>2026-05-03T12:50:54.001Z</time></trkpt><trkpt lat="44.118600835974625" lon="7.995237816873634"><ele>975.0</ele><time>2026-05-03T12:50:55.001Z</time></trkpt><trkpt lat="44.11856353815334" lon="7.995156406866188"><ele>975.0</ele><time>2026-05-03T12:50:56.001Z</time></trkpt><trkpt lat="44.11846013143948" lon="7.9950736761639805"><ele>975.0</ele><time>2026-05-03T12:50:58.001Z</time></trkpt><trkpt lat="44.11838376573282" lon="7.995138262967949"><ele>975.0</ele><time>2026-05-03T12:51:00.001Z</time></trkpt><trkpt lat="44.11840155521603" lon="7.995272079911774"><ele>975.0</ele><time>2026-05-03T12:51:02.001Z</time></trkpt><trkpt lat="44.118465246704076" lon="7.995391496884627"><ele>975.0</ele><time>2026-05-03T12:51:03.001Z</time></trkpt><trkpt lat="44.118474055139984" lon="7.995543457331362"><ele>975.0</ele><time>2026-05-03T12:51:04.001Z</time></trkpt><trkpt lat="44.11853128411398" lon="7.995665838603696"><ele>975.0</ele><time>2026-05-03T12:51:05.001Z</time></trkpt><trkpt lat="44.11856123748234" lon="7.995744152029175"><ele>975.0</ele><time>2026-05-03T12:51:06.001Z</time></trkpt><trkpt lat="44.11863497996739" lon="7.995897728932975"><ele>975.0</ele><time>2026-05-03T12:51:08.001Z</time></trkpt><trkpt lat="44.118670533601644" lon="7.99597238281207"><ele>972.2</ele><time>2026-05-03T12:51:09.001Z</time></trkpt><trkpt lat="44.11870517919705" lon="7.996081848693634"><ele>969.4</ele><time>2026-05-03T12:51:11.001Z</time></trkpt><trkpt lat="44.118786580973335" lon="7.996151615098905"><ele>966.5999999999999</ele><time>2026-05-03T12:51:13.001Z</time></trkpt><trkpt lat="44.118813334229515" lon="7.996273824779353"><ele>963.8</ele><time>2026-05-03T12:51:15.001Z</time></trkpt><trkpt lat="44.11878755345678" lon="7.99640494683069"><ele>961.0</ele><time>2026-05-03T12:51:17.001Z</time></trkpt><trkpt lat="44.11869226653554" lon="7.996379231477336"><ele>960.9999999999999</ele><time>2026-05-03T12:51:19.001Z</time></trkpt><trkpt lat="44.118632948818934" lon="7.9963363249224635"><ele>961.0</ele><time>2026-05-03T12:51:21.001Z</time></trkpt><trkpt lat="44.11858305330813" lon="7.996225252264151"><ele>961.0</ele><time>2026-05-03T12:51:24.001Z</time></trkpt><trkpt lat="44.118518335985165" lon="7.996182457363708"><ele>961.0</ele><time>2026-05-03T12:51:27.001Z</time></trkpt><trkpt lat="44.118496048863555" lon="7.9960993328567085"><ele>960.9999999999999</ele><time>2026-05-03T12:51:42.001Z</time></trkpt><trkpt lat="44.118431793580186" lon="7.996043160556068"><ele>961.0</ele><time>2026-05-03T12:51:54.001Z</time></trkpt><trkpt lat="44.11833439418737" lon="7.995965233572084"><ele>961.0</ele><time>2026-05-03T12:51:57.001Z</time></trkpt><trkpt lat="44.11825468446149" lon="7.995882997774683"><ele>961.0</ele><time>2026-05-03T12:51:58.001Z</time></trkpt><trkpt lat="44.11816694343691" lon="7.995768225012016"><ele>961.0</ele><time>2026-05-03T12:51:59.001Z</time></trkpt><trkpt lat="44.11808416325836" lon="7.995656938505088"><ele>961.0</ele><time>2026-05-03T12:52:00.001Z</time></trkpt><trkpt lat="44.118000774413495" lon="7.995538199483978"><ele>960.1999999999999</ele><time>2026-05-03T12:52:01.001Z</time></trkpt><trkpt lat="44.11794909215922" lon="7.995409049393363"><ele>959.3999999999999</ele><time>2026-05-03T12:52:02.001Z</time></trkpt><trkpt lat="44.117895336690815" lon="7.995285646239645"><ele>958.6</ele><time>2026-05-03T12:52:03.001Z</time></trkpt><trkpt lat="44.11786077147067" lon="7.995120452153939"><ele>957.8</ele><time>2026-05-03T12:52:04.001Z</time></trkpt><trkpt lat="44.117831015785" lon="7.99497723976858"><ele>957.0</ele><time>2026-05-03T12:52:05.001Z</time></trkpt><trkpt lat="44.11778961929064" lon="7.994826425153063"><ele>957.0</ele><time>2026-05-03T12:52:06.001Z</time></trkpt><trkpt lat="44.11772897591689" lon="7.994631992658207"><ele>957.0</ele><time>2026-05-03T12:52:07.001Z</time></trkpt><trkpt lat="44.11767086548492" lon="7.994482760766685"><ele>957.0</ele><time>2026-05-03T12:52:08.001Z</time></trkpt><trkpt lat="44.11761075590847" lon="7.994334900394281"><ele>957.0</ele><time>2026-05-03T12:52:09.001Z</time></trkpt><trkpt lat="44.117579454753006" lon="7.994202490864018"><ele>958.75</ele><time>2026-05-03T12:52:10.001Z</time></trkpt><trkpt lat="44.11752936776635" lon="7.994077052314348"><ele>960.5</ele><time>2026-05-03T12:52:11.001Z</time></trkpt><trkpt lat="44.11745423773456" lon="7.993938138915731"><ele>962.25</ele><time>2026-05-03T12:52:12.001Z</time></trkpt><trkpt lat="44.1174107513364" lon="7.993788384582731"><ele>964.0</ele><time>2026-05-03T12:52:13.001Z</time></trkpt><trkpt lat="44.1173662244221" lon="7.993647822535716"><ele>957.2</ele><time>2026-05-03T12:52:14.001Z</time></trkpt><trkpt lat="44.117320998339856" lon="7.993533134159256"><ele>950.4000000000001</ele><time>2026-05-03T12:52:15.001Z</time></trkpt><trkpt lat="44.117284603069066" lon="7.993395430179521"><ele>943.6</ele><time>2026-05-03T12:52:16.001Z</time></trkpt><trkpt lat="44.11725132733322" lon="7.993255988803843"><ele>936.8</ele><time>2026-05-03T12:52:17.001Z</time></trkpt><trkpt lat="44.11722196512795" lon="7.993125015710217"><ele>930.0</ele><time>2026-05-03T12:52:18.001Z</time></trkpt><trkpt lat="44.11720049246147" lon="7.992982081196138"><ele>930.0</ele><time>2026-05-03T12:52:19.001Z</time></trkpt><trkpt lat="44.11716373976904" lon="7.9928264133502696"><ele>930.0</ele><time>2026-05-03T12:52:20.001Z</time></trkpt><trkpt lat="44.11714178236847" lon="7.992682490679697"><ele>930.0</ele><time>2026-05-03T12:52:21.001Z</time></trkpt><trkpt lat="44.117121088204165" lon="7.992549162764243"><ele>930.0</ele><time>2026-05-03T12:52:22.001Z</time></trkpt><trkpt lat="44.11710245114095" lon="7.992396451872899"><ele>930.0</ele><time>2026-05-03T12:52:23.001Z</time></trkpt><trkpt lat="44.117085653729944" lon="7.992240283257691"><ele>930.6</ele><time>2026-05-03T12:52:24.001Z</time></trkpt><trkpt lat="44.117064051712035" lon="7.992094938962267"><ele>931.2</ele><time>2026-05-03T12:52:25.001Z</time></trkpt><trkpt lat="44.117049335832924" lon="7.991947285475759"><ele>931.8</ele><time>2026-05-03T12:52:26.001Z</time></trkpt><trkpt lat="44.11703143681925" lon="7.991804198924486"><ele>932.4</ele><time>2026-05-03T12:52:27.001Z</time></trkpt><trkpt lat="44.11701977230326" lon="7.991671012737366"><ele>933.0</ele><time>2026-05-03T12:52:28.001Z</time></trkpt><trkpt lat="44.11699595213161" lon="7.991531399162106"><ele>933.25</ele><time>2026-05-03T12:52:29.001Z</time></trkpt><trkpt lat="44.11695277161362" lon="7.991397997159026"><ele>933.5</ele><time>2026-05-03T12:52:30.001Z</time></trkpt><trkpt lat="44.11688917255146" lon="7.9912630055044405"><ele>933.75</ele><time>2026-05-03T12:52:31.001Z</time></trkpt><trkpt lat="44.11681931072147" lon="7.991133064652025"><ele>934.0</ele><time>2026-05-03T12:52:32.001Z</time></trkpt><trkpt lat="44.11674226518739" lon="7.991000453102317"><ele>934.0</ele><time>2026-05-03T12:52:33.001Z</time></trkpt><trkpt lat="44.11663344200069" lon="7.990872495846755"><ele>934.0</ele><time>2026-05-03T12:52:34.001Z</time></trkpt><trkpt lat="44.116532904370864" lon="7.99072848822218"><ele>934.0</ele><time>2026-05-03T12:52:35.001Z</time></trkpt><trkpt lat="44.116443913056074" lon="7.990620947272154"><ele>934.0</ele><time>2026-05-03T12:52:36.001Z</time></trkpt><trkpt lat="44.116355345868214" lon="7.990535754729077"><ele>932.0</ele><time>2026-05-03T12:52:37.001Z</time></trkpt><trkpt lat="44.11628770104974" lon="7.990431881444844"><ele>930.0000000000001</ele><time>2026-05-03T12:52:38.001Z</time></trkpt><trkpt lat="44.116223647969306" lon="7.990341633752547"><ele>928.0000000000001</ele><time>2026-05-03T12:52:39.001Z</time></trkpt><trkpt lat="44.1161555713049" lon="7.990228130365023"><ele>926.0</ele><time>2026-05-03T12:52:40.001Z</time></trkpt><trkpt lat="44.11607780686153" lon="7.990098749358756"><ele>924.0</ele><time>2026-05-03T12:52:41.001Z</time></trkpt><trkpt lat="44.11600308104146" lon="7.9899604344071715"><ele>924.0</ele><time>2026-05-03T12:52:42.001Z</time></trkpt><trkpt lat="44.115965594661716" lon="7.989808419034358"><ele>924.0</ele><time>2026-05-03T12:52:43.001Z</time></trkpt><trkpt lat="44.11593246942964" lon="7.989667347970856"><ele>924.0</ele><time>2026-05-03T12:52:44.001Z</time></trkpt><trkpt lat="44.11590466571251" lon="7.98951399451751"><ele>924.0</ele><time>2026-05-03T12:52:45.001Z</time></trkpt><trkpt lat="44.11593215588704" lon="7.989339131862302"><ele>923.75</ele><time>2026-05-03T12:52:46.001Z</time></trkpt><trkpt lat="44.11594581210808" lon="7.989150544013722"><ele>923.5</ele><time>2026-05-03T12:52:47.001Z</time></trkpt><trkpt lat="44.11597099405838" lon="7.988976681979413"><ele>923.25</ele><time>2026-05-03T12:52:48.001Z</time></trkpt><trkpt lat="44.11599070962293" lon="7.9888131321320515"><ele>923.0</ele><time>2026-05-03T12:52:49.001Z</time></trkpt><trkpt lat="44.11601231447805" lon="7.9886616188506965"><ele>923.0</ele><time>2026-05-03T12:52:50.001Z</time></trkpt><trkpt lat="44.11603751432069" lon="7.988538949807525"><ele>923.0</ele><time>2026-05-03T12:52:51.001Z</time></trkpt><trkpt lat="44.11603727599013" lon="7.988374867170154"><ele>923.0</ele><time>2026-05-03T12:52:53.001Z</time></trkpt><trkpt lat="44.115971048165406" lon="7.98833857185008"><ele>923.0</ele><time>2026-05-03T12:52:54.001Z</time></trkpt><trkpt lat="44.1158996715755" lon="7.988380502836443"><ele>923.0</ele><time>2026-05-03T12:52:55.001Z</time></trkpt><trkpt lat="44.115860710404334" lon="7.988533488592492"><ele>923.0</ele><time>2026-05-03T12:52:56.001Z</time></trkpt><trkpt lat="44.1158166652518" lon="7.988670388589024"><ele>923.0</ele><time>2026-05-03T12:52:57.001Z</time></trkpt><trkpt lat="44.11575627067368" lon="7.988781725039341"><ele>923.0</ele><time>2026-05-03T12:52:58.001Z</time></trkpt><trkpt lat="44.115695858848625" lon="7.988890401807991"><ele>923.0</ele><time>2026-05-03T12:52:59.001Z</time></trkpt><trkpt lat="44.11564169130134" lon="7.9890161197586975"><ele>923.0</ele><time>2026-05-03T12:53:00.001Z</time></trkpt><trkpt lat="44.11557560281749" lon="7.989132725937042"><ele>917.5999999999999</ele><time>2026-05-03T12:53:01.001Z</time></trkpt><trkpt lat="44.115518985478545" lon="7.9892451532597155"><ele>912.1999999999999</ele><time>2026-05-03T12:53:02.001Z</time></trkpt><trkpt lat="44.115458370005264" lon="7.989349712890149"><ele>906.8</ele><time>2026-05-03T12:53:03.001Z</time></trkpt><trkpt lat="44.11539031518818" lon="7.989450754764677"><ele>901.4</ele><time>2026-05-03T12:53:04.001Z</time></trkpt><trkpt lat="44.11535650092974" lon="7.989580270036839"><ele>896.0</ele><time>2026-05-03T12:53:05.001Z</time></trkpt><trkpt lat="44.1153254900656" lon="7.989704884285255"><ele>896.0</ele><time>2026-05-03T12:53:06.001Z</time></trkpt><trkpt lat="44.11530627672586" lon="7.9898499082564"><ele>895.9999999999999</ele><time>2026-05-03T12:53:07.001Z</time></trkpt><trkpt lat="44.1153012353765" lon="7.989991893096339"><ele>895.9999999999999</ele><time>2026-05-03T12:53:08.001Z</time></trkpt><trkpt lat="44.11530945202998" lon="7.990128608375624"><ele>896.0</ele><time>2026-05-03T12:53:09.001Z</time></trkpt><trkpt lat="44.11532100454606" lon="7.990259394667391"><ele>896.0</ele><time>2026-05-03T12:53:10.001Z</time></trkpt><trkpt lat="44.115346828288544" lon="7.990404793161626"><ele>894.5999999999999</ele><time>2026-05-03T12:53:11.001Z</time></trkpt><trkpt lat="44.11538577013289" lon="7.990534264607219"><ele>893.1999999999999</ele><time>2026-05-03T12:53:12.001Z</time></trkpt><trkpt lat="44.11542515350935" lon="7.99065838320493"><ele>891.8000000000001</ele><time>2026-05-03T12:53:13.001Z</time></trkpt><trkpt lat="44.115463903173676" lon="7.990787579648427"><ele>890.4000000000001</ele><time>2026-05-03T12:53:14.001Z</time></trkpt><trkpt lat="44.115504079770524" lon="7.990927843207977"><ele>889.0</ele><time>2026-05-03T12:53:15.001Z</time></trkpt><trkpt lat="44.11554279322613" lon="7.99106226243267"><ele>886.4000000000001</ele><time>2026-05-03T12:53:16.001Z</time></trkpt><trkpt lat="44.11557649063701" lon="7.991191864001863"><ele>883.8000000000001</ele><time>2026-05-03T12:53:17.001Z</time></trkpt><trkpt lat="44.11560185155821" lon="7.991322888039203"><ele>881.1999999999999</ele><time>2026-05-03T12:53:18.001Z</time></trkpt><trkpt lat="44.1156215460021" lon="7.991458214634935"><ele>878.5999999999999</ele><time>2026-05-03T12:53:19.001Z</time></trkpt><trkpt lat="44.1156404043103" lon="7.991594895578792"><ele>876.0</ele><time>2026-05-03T12:53:20.001Z</time></trkpt><trkpt lat="44.115659955509905" lon="7.991740446467074"><ele>875.75</ele><time>2026-05-03T12:53:21.001Z</time></trkpt><trkpt lat="44.11568122915428" lon="7.991901930165727"><ele>875.5</ele><time>2026-05-03T12:53:22.001Z</time></trkpt><trkpt lat="44.11566795284754" lon="7.992064631711842"><ele>875.25</ele><time>2026-05-03T12:53:23.001Z</time></trkpt><trkpt lat="44.11567505768066" lon="7.9922226418434645"><ele>875.0</ele><time>2026-05-03T12:53:24.001Z</time></trkpt><trkpt lat="44.11564763903788" lon="7.992390984748013"><ele>873.8</ele><time>2026-05-03T12:53:25.001Z</time></trkpt><trkpt lat="44.11562024196582" lon="7.992548251707006"><ele>872.6</ele><time>2026-05-03T12:53:26.001Z</time></trkpt><trkpt lat="44.11559770402893" lon="7.992703342818574"><ele>871.4000000000001</ele><time>2026-05-03T12:53:27.001Z</time></trkpt><trkpt lat="44.11558291234037" lon="7.992845647572283"><ele>870.2</ele><time>2026-05-03T12:53:28.001Z</time></trkpt><trkpt lat="44.115568122547536" lon="7.992987788428467"><ele>869.0</ele><time>2026-05-03T12:53:29.001Z</time></trkpt><trkpt lat="44.11555946604226" lon="7.993122636978164"><ele>869.0</ele><time>2026-05-03T12:53:30.001Z</time></trkpt><trkpt lat="44.11556101160233" lon="7.993253525018839"><ele>869.0000000000001</ele><time>2026-05-03T12:53:31.001Z</time></trkpt><trkpt lat="44.11557852341822" lon="7.993390420563009"><ele>869.0000000000001</ele><time>2026-05-03T12:53:32.001Z</time></trkpt><trkpt lat="44.11558244906712" lon="7.99352841745102"><ele>869.0</ele><time>2026-05-03T12:53:33.001Z</time></trkpt><trkpt lat="44.11561122271744" lon="7.993657923721344"><ele>869.0</ele><time>2026-05-03T12:53:34.001Z</time></trkpt><trkpt lat="44.11561883616157" lon="7.993801022480122"><ele>868.0</ele><time>2026-05-03T12:53:35.001Z</time></trkpt><trkpt lat="44.115623447958015" lon="7.993936441490023"><ele>867.0000000000001</ele><time>2026-05-03T12:53:36.001Z</time></trkpt><trkpt lat="44.1156213558512" lon="7.994070075199954"><ele>866.0000000000001</ele><time>2026-05-03T12:53:37.001Z</time></trkpt><trkpt lat="44.11561850160018" lon="7.994224520160965"><ele>865.0</ele><time>2026-05-03T12:53:38.001Z</time></trkpt><trkpt lat="44.11559947537288" lon="7.994365349533541"><ele>864.0</ele><time>2026-05-03T12:53:39.001Z</time></trkpt><trkpt lat="44.115593208377625" lon="7.994508125856901"><ele>863.2</ele><time>2026-05-03T12:53:40.001Z</time></trkpt><trkpt lat="44.11558545622957" lon="7.994642733657941"><ele>862.4000000000001</ele><time>2026-05-03T12:53:41.001Z</time></trkpt><trkpt lat="44.11557310423283" lon="7.994770023732422"><ele>861.6</ele><time>2026-05-03T12:53:42.001Z</time></trkpt><trkpt lat="44.115553322861096" lon="7.9948868235054995"><ele>860.8</ele><time>2026-05-03T12:53:43.001Z</time></trkpt><trkpt lat="44.11551706428792" lon="7.994995948107313"><ele>860.0</ele><time>2026-05-03T12:53:44.001Z</time></trkpt><trkpt lat="44.11546229004271" lon="7.995117417160659"><ele>859.4</ele><time>2026-05-03T12:53:45.001Z</time></trkpt><trkpt lat="44.115407746770735" lon="7.995230092075324"><ele>858.8</ele><time>2026-05-03T12:53:46.001Z</time></trkpt><trkpt lat="44.11535840947373" lon="7.995340400243491"><ele>858.2</ele><time>2026-05-03T12:53:47.001Z</time></trkpt><trkpt lat="44.11531260978206" lon="7.995451806938911"><ele>857.6</ele><time>2026-05-03T12:53:48.001Z</time></trkpt><trkpt lat="44.115276042948686" lon="7.995567803817526"><ele>857.0</ele><time>2026-05-03T12:53:49.001Z</time></trkpt><trkpt lat="44.11525149640483" lon="7.9956898830284056"><ele>855.4000000000001</ele><time>2026-05-03T12:53:50.001Z</time></trkpt><trkpt lat="44.11526212910789" lon="7.995841908992866"><ele>853.8000000000001</ele><time>2026-05-03T12:53:51.001Z</time></trkpt><trkpt lat="44.11526488904008" lon="7.995996324019003"><ele>852.2</ele><time>2026-05-03T12:53:52.001Z</time></trkpt><trkpt lat="44.11527894293878" lon="7.996150098970792"><ele>850.6</ele><time>2026-05-03T12:53:53.001Z</time></trkpt><trkpt lat="44.115295532123476" lon="7.996308308172585"><ele>849.0</ele><time>2026-05-03T12:53:54.001Z</time></trkpt><trkpt lat="44.11530971083468" lon="7.996457166203334"><ele>849.0</ele><time>2026-05-03T12:53:55.001Z</time></trkpt><trkpt lat="44.115323497916016" lon="7.996611116079444"><ele>849.0</ele><time>2026-05-03T12:53:56.001Z</time></trkpt><trkpt lat="44.115339698039655" lon="7.9967631489383635"><ele>849.0</ele><time>2026-05-03T12:53:57.001Z</time></trkpt><trkpt lat="44.11536865378967" lon="7.996911370265459"><ele>849.0</ele><time>2026-05-03T12:53:58.001Z</time></trkpt><trkpt lat="44.11541508609655" lon="7.997060495337001"><ele>849.0</ele><time>2026-05-03T12:53:59.001Z</time></trkpt><trkpt lat="44.11546697778659" lon="7.9971931217165135"><ele>847.6</ele><time>2026-05-03T12:54:00.001Z</time></trkpt><trkpt lat="44.115518479959114" lon="7.997319643709396"><ele>846.2</ele><time>2026-05-03T12:54:01.001Z</time></trkpt><trkpt lat="44.11556156340414" lon="7.99744795222849"><ele>844.8000000000001</ele><time>2026-05-03T12:54:02.001Z</time></trkpt><trkpt lat="44.115589589833874" lon="7.997576881663369"><ele>843.4000000000001</ele><time>2026-05-03T12:54:03.001Z</time></trkpt><trkpt lat="44.11558342088679" lon="7.997703869346459"><ele>842.0</ele><time>2026-05-03T12:54:04.001Z</time></trkpt><trkpt lat="44.115550908472215" lon="7.997828139883935"><ele>841.5000000000001</ele><time>2026-05-03T12:54:05.001Z</time></trkpt><trkpt lat="44.11551816701469" lon="7.997943991140795"><ele>841.0</ele><time>2026-05-03T12:54:06.001Z</time></trkpt><trkpt lat="44.11549116919925" lon="7.998059906005587"><ele>840.5</ele><time>2026-05-03T12:54:07.001Z</time></trkpt><trkpt lat="44.11545058955887" lon="7.998172955347449"><ele>840.0</ele><time>2026-05-03T12:54:08.001Z</time></trkpt><trkpt lat="44.11543272276991" lon="7.998276366024693"><ele>839.5000000000001</ele><time>2026-05-03T12:54:09.001Z</time></trkpt><trkpt lat="44.115427252724835" lon="7.998399450124631"><ele>839.0</ele><time>2026-05-03T12:54:10.001Z</time></trkpt><trkpt lat="44.115466131899524" lon="7.998539444915193"><ele>837.8000000000001</ele><time>2026-05-03T12:54:11.001Z</time></trkpt><trkpt lat="44.11552736552415" lon="7.998678751858358"><ele>836.6</ele><time>2026-05-03T12:54:12.001Z</time></trkpt><trkpt lat="44.11558679223002" lon="7.998789120198467"><ele>835.4</ele><time>2026-05-03T12:54:13.001Z</time></trkpt><trkpt lat="44.115640812943504" lon="7.998891197316244"><ele>834.2</ele><time>2026-05-03T12:54:14.001Z</time></trkpt><trkpt lat="44.115686999492056" lon="7.999011837691383"><ele>833.0</ele><time>2026-05-03T12:54:15.001Z</time></trkpt><trkpt lat="44.1157170274061" lon="7.999153121448695"><ele>833.8333333333334</ele><time>2026-05-03T12:54:16.001Z</time></trkpt><trkpt lat="44.115737724336334" lon="7.999286330041801"><ele>834.6666666666667</ele><time>2026-05-03T12:54:17.001Z</time></trkpt><trkpt lat="44.1157734782771" lon="7.999420609075307"><ele>835.5</ele><time>2026-05-03T12:54:18.001Z</time></trkpt><trkpt lat="44.11577437753792" lon="7.999521696338173"><ele>836.3333333333333</ele><time>2026-05-03T12:54:19.001Z</time></trkpt><trkpt lat="44.11574342618485" lon="7.999603979521995"><ele>837.1666666666666</ele><time>2026-05-03T12:54:20.001Z</time></trkpt><trkpt lat="44.11568100281877" lon="7.9996604821198245"><ele>838.0</ele><time>2026-05-03T12:54:21.001Z</time></trkpt><trkpt lat="44.11560151644361" lon="7.999667357449487"><ele>834.5999999999999</ele><time>2026-05-03T12:54:22.001Z</time></trkpt><trkpt lat="44.115529339639906" lon="7.999623397125628"><ele>831.1999999999999</ele><time>2026-05-03T12:54:23.001Z</time></trkpt><trkpt lat="44.11546801014967" lon="7.999533867135773"><ele>827.8</ele><time>2026-05-03T12:54:24.001Z</time></trkpt><trkpt lat="44.11540074730859" lon="7.999427602912189"><ele>824.4</ele><time>2026-05-03T12:54:25.001Z</time></trkpt><trkpt lat="44.11531826364093" lon="7.999290987545377"><ele>821.0</ele><time>2026-05-03T12:54:26.001Z</time></trkpt><trkpt lat="44.115220982039624" lon="7.999181602889986"><ele>820.0</ele><time>2026-05-03T12:54:27.001Z</time></trkpt><trkpt lat="44.11513558479845" lon="7.9990867255045295"><ele>819.0</ele><time>2026-05-03T12:54:28.001Z</time></trkpt><trkpt lat="44.115054732164644" lon="7.999014107010271"><ele>818.0</ele><time>2026-05-03T12:54:29.001Z</time></trkpt><trkpt lat="44.11499926175878" lon="7.998937629765607"><ele>817.0</ele><time>2026-05-03T12:54:30.001Z</time></trkpt><trkpt lat="44.11492314965866" lon="7.9988694733568115"><ele>816.0</ele><time>2026-05-03T12:54:31.001Z</time></trkpt><trkpt lat="44.114857583585724" lon="7.998775974802655"><ele>816.0</ele><time>2026-05-03T12:54:32.001Z</time></trkpt><trkpt lat="44.114808867086104" lon="7.998675515288402"><ele>816.0</ele><time>2026-05-03T12:54:33.001Z</time></trkpt><trkpt lat="44.114733694019044" lon="7.998584668836664"><ele>816.0</ele><time>2026-05-03T12:54:34.001Z</time></trkpt><trkpt lat="44.114680635623095" lon="7.998499662860998"><ele>816.0</ele><time>2026-05-03T12:54:35.001Z</time></trkpt><trkpt lat="44.114605287013276" lon="7.998397489727201"><ele>816.0</ele><time>2026-05-03T12:54:37.001Z</time></trkpt><trkpt lat="44.11457727559078" lon="7.998318220836202"><ele>816.0</ele><time>2026-05-03T12:54:41.001Z</time></trkpt><trkpt lat="44.11460388517009" lon="7.998405523760807"><ele>816.0</ele><time>2026-05-03T12:54:57.001Z</time></trkpt><trkpt lat="44.11465278381597" lon="7.998473978534535"><ele>816.0</ele><time>2026-05-03T12:54:58.001Z</time></trkpt><trkpt lat="44.11470134764021" lon="7.998538409112806"><ele>816.0</ele><time>2026-05-03T12:54:59.001Z</time></trkpt><trkpt lat="44.114771193126806" lon="7.998636782669934"><ele>816.0</ele><time>2026-05-03T12:55:00.001Z</time></trkpt><trkpt lat="44.114889870755604" lon="7.998800489750295"><ele>816.0</ele><time>2026-05-03T12:55:01.001Z</time></trkpt><trkpt lat="44.114964885364415" lon="7.99889504676137"><ele>817.0</ele><time>2026-05-03T12:55:02.001Z</time></trkpt><trkpt lat="44.1150320213467" lon="7.99898141710225"><ele>818.0</ele><time>2026-05-03T12:55:03.001Z</time></trkpt><trkpt lat="44.11510958472384" lon="7.999071010498687"><ele>819.0</ele><time>2026-05-03T12:55:04.001Z</time></trkpt><trkpt lat="44.11517716428999" lon="7.999148391148894"><ele>820.0</ele><time>2026-05-03T12:55:05.001Z</time></trkpt><trkpt lat="44.11523931973656" lon="7.999223311765548"><ele>821.0</ele><time>2026-05-03T12:55:06.001Z</time></trkpt><trkpt lat="44.11531148907516" lon="7.99930995678127"><ele>821.0</ele><time>2026-05-03T12:55:07.001Z</time></trkpt><trkpt lat="44.115395255802284" lon="7.999420103048105"><ele>821.0</ele><time>2026-05-03T12:55:08.001Z</time></trkpt><trkpt lat="44.11546146229366" lon="7.999532018847073"><ele>821.0</ele><time>2026-05-03T12:55:09.001Z</time></trkpt><trkpt lat="44.115510607122545" lon="7.999624326664044"><ele>821.0</ele><time>2026-05-03T12:55:10.001Z</time></trkpt><trkpt lat="44.11558105395976" lon="7.99968299923348"><ele>821.0</ele><time>2026-05-03T12:55:11.001Z</time></trkpt><trkpt lat="44.11565522651188" lon="7.999697680264527"><ele>824.4</ele><time>2026-05-03T12:55:12.001Z</time></trkpt><trkpt lat="44.11575621363378" lon="7.999649515589617"><ele>827.8</ele><time>2026-05-03T12:55:14.001Z</time></trkpt><trkpt lat="44.115796486599294" lon="7.999547543597756"><ele>831.1999999999999</ele><time>2026-05-03T12:55:16.001Z</time></trkpt><trkpt lat="44.115790492684184" lon="7.999374267030185"><ele>834.5999999999999</ele><time>2026-05-03T12:55:19.001Z</time></trkpt><trkpt lat="44.1157811185387" lon="7.9992749088992445"><ele>838.0</ele><time>2026-05-03T12:55:20.001Z</time></trkpt><trkpt lat="44.11575311399783" lon="7.999168017577988"><ele>837.1666666666666</ele><time>2026-05-03T12:55:21.001Z</time></trkpt><trkpt lat="44.11573448455193" lon="7.999064632261045"><ele>836.3333333333333</ele><time>2026-05-03T12:55:22.001Z</time></trkpt><trkpt lat="44.11571351513041" lon="7.998962504522898"><ele>835.5</ele><time>2026-05-03T12:55:23.001Z</time></trkpt><trkpt lat="44.11567999605576" lon="7.9988657627541215"><ele>834.6666666666667</ele><time>2026-05-03T12:55:24.001Z</time></trkpt><trkpt lat="44.11562783800648" lon="7.998775003221616"><ele>833.8333333333334</ele><time>2026-05-03T12:55:25.001Z</time></trkpt><trkpt lat="44.11557023817837" lon="7.998700493188717"><ele>833.0</ele><time>2026-05-03T12:55:26.001Z</time></trkpt><trkpt lat="44.11551246546303" lon="7.998572599570209"><ele>833.0</ele><time>2026-05-03T12:55:28.001Z</time></trkpt><trkpt lat="44.115469785392555" lon="7.99839399184956"><ele>833.0</ele><time>2026-05-03T12:55:30.001Z</time></trkpt><trkpt lat="44.115482620516666" lon="7.998268573352867"><ele>833.0</ele><time>2026-05-03T12:55:32.001Z</time></trkpt><trkpt lat="44.11548215677951" lon="7.998170163372531"><ele>833.0</ele><time>2026-05-03T12:55:56.001Z</time></trkpt><trkpt lat="44.115439188553076" lon="7.998270075982076"><ele>833.0</ele><time>2026-05-03T12:56:15.001Z</time></trkpt><trkpt lat="44.11545278762731" lon="7.998451311966899"><ele>833.0000000000001</ele><time>2026-05-03T12:56:17.001Z</time></trkpt><trkpt lat="44.115493063929804" lon="7.998525320464207"><ele>833.0</ele><time>2026-05-03T12:56:19.001Z</time></trkpt><trkpt lat="44.115548806399104" lon="7.998618741889387"><ele>833.0</ele><time>2026-05-03T12:56:22.001Z</time></trkpt><trkpt lat="44.11559747739437" lon="7.9987036027671214"><ele>833.0</ele><time>2026-05-03T12:56:23.001Z</time></trkpt><trkpt lat="44.11565268070729" lon="7.998762763224307"><ele>833.0000000000001</ele><time>2026-05-03T12:56:24.001Z</time></trkpt><trkpt lat="44.11570349317043" lon="7.998895770066004"><ele>833.0</ele><time>2026-05-03T12:56:26.001Z</time></trkpt><trkpt lat="44.11573620521687" lon="7.998980171413915"><ele>833.8333333333334</ele><time>2026-05-03T12:56:27.001Z</time></trkpt><trkpt lat="44.115750575361204" lon="7.999099186860106"><ele>834.6666666666667</ele><time>2026-05-03T12:56:28.001Z</time></trkpt><trkpt lat="44.115766999839266" lon="7.999223992380262"><ele>835.5</ele><time>2026-05-03T12:56:29.001Z</time></trkpt><trkpt lat="44.11577958679136" lon="7.9993402009446015"><ele>836.3333333333333</ele><time>2026-05-03T12:56:30.001Z</time></trkpt><trkpt lat="44.115784636305364" lon="7.999444579889527"><ele>837.1666666666666</ele><time>2026-05-03T12:56:31.001Z</time></trkpt><trkpt lat="44.11576941804735" lon="7.999541307036064"><ele>838.0</ele><time>2026-05-03T12:56:32.001Z</time></trkpt><trkpt lat="44.1157248117018" lon="7.999614851811686"><ele>834.5999999999999</ele><time>2026-05-03T12:56:33.001Z</time></trkpt><trkpt lat="44.11564199763564" lon="7.999647990131089"><ele>831.1999999999999</ele><time>2026-05-03T12:56:34.001Z</time></trkpt><trkpt lat="44.11555059694527" lon="7.999622928705672"><ele>827.8</ele><time>2026-05-03T12:56:35.001Z</time></trkpt><trkpt lat="44.11547573983692" lon="7.999541491365419"><ele>824.4</ele><time>2026-05-03T12:56:36.001Z</time></trkpt><trkpt lat="44.11540680251435" lon="7.999414603281831"><ele>821.0</ele><time>2026-05-03T12:56:37.001Z</time></trkpt><trkpt lat="44.115335681454624" lon="7.999295220817964"><ele>821.0</ele><time>2026-05-03T12:56:38.001Z</time></trkpt><trkpt lat="44.11524861374033" lon="7.999210306261736"><ele>821.0</ele><time>2026-05-03T12:56:39.001Z</time></trkpt><trkpt lat="44.11517358171405" lon="7.999119052053485"><ele>821.0</ele><time>2026-05-03T12:56:40.001Z</time></trkpt><trkpt lat="44.11508741939858" lon="7.99902946913411"><ele>821.0</ele><time>2026-05-03T12:56:41.001Z</time></trkpt><trkpt lat="44.114998166960355" lon="7.998933054255652"><ele>821.0</ele><time>2026-05-03T12:56:42.001Z</time></trkpt><trkpt lat="44.114913318221994" lon="7.998839317969141"><ele>821.0</ele><time>2026-05-03T12:56:43.001Z</time></trkpt><trkpt lat="44.11483814179454" lon="7.998732724147458"><ele>821.0</ele><time>2026-05-03T12:56:44.001Z</time></trkpt><trkpt lat="44.114768416355105" lon="7.998629065725695"><ele>821.0</ele><time>2026-05-03T12:56:45.001Z</time></trkpt><trkpt lat="44.1147010908935" lon="7.998527851814656"><ele>821.0</ele><time>2026-05-03T12:56:46.001Z</time></trkpt><trkpt lat="44.114636981629566" lon="7.998426550588883"><ele>821.0</ele><time>2026-05-03T12:56:47.001Z</time></trkpt><trkpt lat="44.11456899157173" lon="7.99828841741189"><ele>821.0</ele><time>2026-05-03T12:56:48.001Z</time></trkpt><trkpt lat="44.11453142325006" lon="7.998168730210824"><ele>821.0</ele><time>2026-05-03T12:56:49.001Z</time></trkpt><trkpt lat="44.11449963123289" lon="7.998021948377605"><ele>821.0</ele><time>2026-05-03T12:56:50.001Z</time></trkpt><trkpt lat="44.11445976622058" lon="7.997836436432009"><ele>821.0</ele><time>2026-05-03T12:56:51Z</time></trkpt><trkpt lat="44.11441491692352" lon="7.997642935060065"><ele>821.0</ele><time>2026-05-03T12:56:52Z</time></trkpt><trkpt lat="44.11435630605189" lon="7.997434058701362"><ele>821.0</ele><time>2026-05-03T12:56:53Z</time></trkpt><trkpt lat="44.11431116757534" lon="7.997226503523969"><ele>821.0</ele><time>2026-05-03T12:56:54Z</time></trkpt><trkpt lat="44.11427643599542" lon="7.997051931925536"><ele>821.0</ele><time>2026-05-03T12:56:55Z</time></trkpt><trkpt lat="44.11423780166753" lon="7.996877604144121"><ele>821.0</ele><time>2026-05-03T12:56:56Z</time></trkpt><trkpt lat="44.11418810252201" lon="7.9966964833704655"><ele>821.0</ele><time>2026-05-03T12:56:57Z</time></trkpt><trkpt lat="44.11412645987253" lon="7.99651407368625"><ele>821.0</ele><time>2026-05-03T12:56:58Z</time></trkpt><trkpt lat="44.11406142211986" lon="7.996349226979961"><ele>821.0</ele><time>2026-05-03T12:56:59Z</time></trkpt><trkpt lat="44.11399770136084" lon="7.996198160957464"><ele>817.4</ele><time>2026-05-03T12:57:00Z</time></trkpt><trkpt lat="44.113939690448326" lon="7.99605576763009"><ele>813.8</ele><time>2026-05-03T12:57:01Z</time></trkpt><trkpt lat="44.11388309270337" lon="7.995929573641056"><ele>810.1999999999999</ele><time>2026-05-03T12:57:02Z</time></trkpt><trkpt lat="44.113843154543964" lon="7.995819025448513"><ele>806.5999999999999</ele><time>2026-05-03T12:57:03Z</time></trkpt><trkpt lat="44.11382683351729" lon="7.995698239182948"><ele>803.0</ele><time>2026-05-03T12:57:04Z</time></trkpt><trkpt lat="44.11388120107499" lon="7.995576806279043"><ele>803.0</ele><time>2026-05-03T12:57:05Z</time></trkpt><trkpt lat="44.11388848442747" lon="7.9954542245588"><ele>803.0</ele><time>2026-05-03T12:57:06Z</time></trkpt><trkpt lat="44.11388234560855" lon="7.995340932396765"><ele>803.0</ele><time>2026-05-03T12:57:07Z</time></trkpt><trkpt lat="44.113821774248024" lon="7.995244665221192"><ele>803.0</ele><time>2026-05-03T12:57:08Z</time></trkpt><trkpt lat="44.11374257752129" lon="7.995163808586312"><ele>803.0</ele><time>2026-05-03T12:57:09Z</time></trkpt><trkpt lat="44.11365785277729" lon="7.995106744598691"><ele>803.0</ele><time>2026-05-03T12:57:10Z</time></trkpt><trkpt lat="44.113566249280794" lon="7.99507233583245"><ele>803.0</ele><time>2026-05-03T12:57:11Z</time></trkpt><trkpt lat="44.11349787284758" lon="7.995054372166653"><ele>803.0</ele><time>2026-05-03T12:57:12Z</time></trkpt><trkpt lat="44.113423448926376" lon="7.995065223320155"><ele>803.0</ele><time>2026-05-03T12:57:18.001Z</time></trkpt><trkpt lat="44.113400579163134" lon="7.994901299032337"><ele>803.0</ele><time>2026-05-03T12:57:19.001Z</time></trkpt><trkpt lat="44.11336504188604" lon="7.994746645775359"><ele>801.5999999999999</ele><time>2026-05-03T12:57:20.001Z</time></trkpt><trkpt lat="44.113344761005166" lon="7.994617039577308"><ele>800.1999999999999</ele><time>2026-05-03T12:57:21.001Z</time></trkpt><trkpt lat="44.11332343430199" lon="7.994496144604892"><ele>798.8</ele><time>2026-05-03T12:57:22.001Z</time></trkpt><trkpt lat="44.11329761763581" lon="7.994344953458539"><ele>797.4</ele><time>2026-05-03T12:57:23.001Z</time></trkpt><trkpt lat="44.11326300572897" lon="7.994175581483694"><ele>796.0</ele><time>2026-05-03T12:57:24.001Z</time></trkpt><trkpt lat="44.113228880704796" lon="7.993995615661831"><ele>796.0</ele><time>2026-05-03T12:57:25.001Z</time></trkpt><trkpt lat="44.113204813369045" lon="7.993805292018859"><ele>796.0</ele><time>2026-05-03T12:57:26.001Z</time></trkpt><trkpt lat="44.11320405500952" lon="7.993598066221886"><ele>796.0</ele><time>2026-05-03T12:57:27.001Z</time></trkpt><trkpt lat="44.11322384506875" lon="7.993385953323422"><ele>796.0</ele><time>2026-05-03T12:57:28.001Z</time></trkpt><trkpt lat="44.11326774608484" lon="7.9931630541725385"><ele>804.3333333333333</ele><time>2026-05-03T12:57:29.001Z</time></trkpt><trkpt lat="44.11333280237704" lon="7.992936692580865"><ele>812.6666666666667</ele><time>2026-05-03T12:57:30.001Z</time></trkpt><trkpt lat="44.113425990465245" lon="7.992700640013132"><ele>821.0</ele><time>2026-05-03T12:57:31.001Z</time></trkpt><trkpt lat="44.113493853000826" lon="7.992472137669062"><ele>821.0</ele><time>2026-05-03T12:57:32.001Z</time></trkpt><trkpt lat="44.113559933838644" lon="7.992258372503834"><ele>821.0</ele><time>2026-05-03T12:57:33.001Z</time></trkpt><trkpt lat="44.113614121875266" lon="7.992068582125776"><ele>821.0</ele><time>2026-05-03T12:57:34.001Z</time></trkpt><trkpt lat="44.11366271602371" lon="7.991897614559161"><ele>821.0</ele><time>2026-05-03T12:57:35.001Z</time></trkpt><trkpt lat="44.11370128843648" lon="7.9917450525658085"><ele>821.25</ele><time>2026-05-03T12:57:36.001Z</time></trkpt><trkpt lat="44.11371834971769" lon="7.991596623747201"><ele>821.5</ele><time>2026-05-03T12:57:37.001Z</time></trkpt><trkpt lat="44.113699313822046" lon="7.99144083402605"><ele>821.75</ele><time>2026-05-03T12:57:38.001Z</time></trkpt><trkpt lat="44.11362911694186" lon="7.991289776196588"><ele>822.0</ele><time>2026-05-03T12:57:39.001Z</time></trkpt><trkpt lat="44.113516756534914" lon="7.991167302618104"><ele>822.0</ele><time>2026-05-03T12:57:40.001Z</time></trkpt><trkpt lat="44.11341872827166" lon="7.991029447093929"><ele>822.0</ele><time>2026-05-03T12:57:41.001Z</time></trkpt><trkpt lat="44.113307872081265" lon="7.990894520853735"><ele>822.0</ele><time>2026-05-03T12:57:42.001Z</time></trkpt><trkpt lat="44.11319027515447" lon="7.9907661691097776"><ele>822.0</ele><time>2026-05-03T12:57:43.001Z</time></trkpt><trkpt lat="44.113094181093544" lon="7.990643351000519"><ele>823.25</ele><time>2026-05-03T12:57:44.001Z</time></trkpt><trkpt lat="44.11303356046234" lon="7.990510270806192"><ele>824.5</ele><time>2026-05-03T12:57:45.001Z</time></trkpt><trkpt lat="44.11299971532001" lon="7.990352390610666"><ele>825.75</ele><time>2026-05-03T12:57:46.001Z</time></trkpt><trkpt lat="44.11300766083894" lon="7.990161848490552"><ele>827.0</ele><time>2026-05-03T12:57:47.001Z</time></trkpt><trkpt lat="44.11308096654447" lon="7.989961984100806"><ele>829.5</ele><time>2026-05-03T12:57:48.001Z</time></trkpt><trkpt lat="44.113134710891956" lon="7.989748428076343"><ele>832.0</ele><time>2026-05-03T12:57:49.001Z</time></trkpt><trkpt lat="44.113192818718936" lon="7.9895688762039185"><ele>834.5</ele><time>2026-05-03T12:57:50.001Z</time></trkpt><trkpt lat="44.11318619848421" lon="7.989375525146855"><ele>837.0</ele><time>2026-05-03T12:57:51.001Z</time></trkpt><trkpt lat="44.11313901733833" lon="7.989181903531849"><ele>836.0</ele><time>2026-05-03T12:57:52Z</time></trkpt><trkpt lat="44.11304179353839" lon="7.988991822061663"><ele>835.0</ele><time>2026-05-03T12:57:53Z</time></trkpt><trkpt lat="44.11292027092434" lon="7.988800492736342"><ele>834.0</ele><time>2026-05-03T12:57:54Z</time></trkpt><trkpt lat="44.11278704541212" lon="7.988623775642808"><ele>834.0</ele><time>2026-05-03T12:57:55Z</time></trkpt><trkpt lat="44.112690621460104" lon="7.988439584937077"><ele>834.0</ele><time>2026-05-03T12:57:56Z</time></trkpt><trkpt lat="44.11258054871843" lon="7.9882975472488456"><ele>834.0</ele><time>2026-05-03T12:57:57Z</time></trkpt><trkpt lat="44.112499044192866" lon="7.988141623944393"><ele>836.25</ele><time>2026-05-03T12:57:58Z</time></trkpt><trkpt lat="44.11247511795114" lon="7.987969825204023"><ele>838.5</ele><time>2026-05-03T12:57:59Z</time></trkpt><trkpt lat="44.11247407699201" lon="7.987794666477757"><ele>840.75</ele><time>2026-05-03T12:58:00Z</time></trkpt><trkpt lat="44.11248010155745" lon="7.9875776447703695"><ele>843.0</ele><time>2026-05-03T12:58:01Z</time></trkpt><trkpt lat="44.11248249782325" lon="7.98733648912189"><ele>845.6666666666667</ele><time>2026-05-03T12:58:02Z</time></trkpt><trkpt lat="44.1124920599126" lon="7.987091915328178"><ele>848.3333333333334</ele><time>2026-05-03T12:58:03Z</time></trkpt><trkpt lat="44.11249840648196" lon="7.986834135492179"><ele>851.0</ele><time>2026-05-03T12:58:04Z</time></trkpt><trkpt lat="44.11250102758254" lon="7.986564512913258"><ele>853.0</ele><time>2026-05-03T12:58:05Z</time></trkpt><trkpt lat="44.112494641037074" lon="7.986317735458946"><ele>855.0</ele><time>2026-05-03T12:58:06Z</time></trkpt><trkpt lat="44.112458772306795" lon="7.986092629954118"><ele>857.0</ele><time>2026-05-03T12:58:07Z</time></trkpt><trkpt lat="44.11238132325806" lon="7.985879568320503"><ele>851.0</ele><time>2026-05-03T12:58:08Z</time></trkpt><trkpt lat="44.11226575275117" lon="7.985670966034574"><ele>845.0</ele><time>2026-05-03T12:58:09Z</time></trkpt><trkpt lat="44.11213995833724" lon="7.98546009669609"><ele>839.0</ele><time>2026-05-03T12:58:10Z</time></trkpt><trkpt lat="44.11202997581204" lon="7.985257340788794"><ele>839.0</ele><time>2026-05-03T12:58:11Z</time></trkpt><trkpt lat="44.11196043075904" lon="7.985122542969529"><ele>839.0</ele><time>2026-05-03T12:58:12Z</time></trkpt><trkpt lat="44.11191497472903" lon="7.984988369115788"><ele>839.0</ele><time>2026-05-03T12:58:13Z</time></trkpt><trkpt lat="44.11189900550158" lon="7.984868936148973"><ele>839.0</ele><time>2026-05-03T12:58:14Z</time></trkpt><trkpt lat="44.111956777254825" lon="7.984767366365825"><ele>839.0</ele><time>2026-05-03T12:58:15Z</time></trkpt><trkpt lat="44.112050528080275" lon="7.984712272461483"><ele>843.5</ele><time>2026-05-03T12:58:16Z</time></trkpt><trkpt lat="44.11218650705472" lon="7.984734224969828"><ele>848.0</ele><time>2026-05-03T12:58:17Z</time></trkpt><trkpt lat="44.11232678356214" lon="7.98470297267735"><ele>852.5</ele><time>2026-05-03T12:58:18Z</time></trkpt><trkpt lat="44.11248071085016" lon="7.984663561070888"><ele>857.0</ele><time>2026-05-03T12:58:19Z</time></trkpt><trkpt lat="44.11260459019023" lon="7.984590396224068"><ele>856.75</ele><time>2026-05-03T12:58:20Z</time></trkpt><trkpt lat="44.11273946115409" lon="7.984486639059132"><ele>856.5</ele><time>2026-05-03T12:58:21Z</time></trkpt><trkpt lat="44.112844929855925" lon="7.98438279421727"><ele>856.25</ele><time>2026-05-03T12:58:22Z</time></trkpt><trkpt lat="44.11294595168257" lon="7.98427725706633"><ele>856.0</ele><time>2026-05-03T12:58:23Z</time></trkpt><trkpt lat="44.11303936455858" lon="7.9841798354187645"><ele>856.0</ele><time>2026-05-03T12:58:24Z</time></trkpt><trkpt lat="44.11312248038519" lon="7.984058905308538"><ele>856.0</ele><time>2026-05-03T12:58:25Z</time></trkpt><trkpt lat="44.113187869464056" lon="7.983941366761525"><ele>856.0</ele><time>2026-05-03T12:58:26Z</time></trkpt><trkpt lat="44.11325375210121" lon="7.983794668789454"><ele>856.0</ele><time>2026-05-03T12:58:27Z</time></trkpt><trkpt lat="44.113250396597486" lon="7.983611219305835"><ele>856.0</ele><time>2026-05-03T12:58:28Z</time></trkpt><trkpt lat="44.1132132534994" lon="7.98341168612858"><ele>856.0</ele><time>2026-05-03T12:58:29Z</time></trkpt><trkpt lat="44.113190283925434" lon="7.9832407228989775"><ele>856.0</ele><time>2026-05-03T12:58:30Z</time></trkpt><trkpt lat="44.11318629448644" lon="7.983103433060592"><ele>856.0</ele><time>2026-05-03T12:58:31Z</time></trkpt><trkpt lat="44.11323028499548" lon="7.982928206477623"><ele>859.25</ele><time>2026-05-03T12:58:32Z</time></trkpt><trkpt lat="44.11330030652553" lon="7.982749896370604"><ele>862.5</ele><time>2026-05-03T12:58:33Z</time></trkpt><trkpt lat="44.11339949839203" lon="7.982607763321047"><ele>865.75</ele><time>2026-05-03T12:58:34Z</time></trkpt><trkpt lat="44.11349620839106" lon="7.982488760674875"><ele>869.0</ele><time>2026-05-03T12:58:35Z</time></trkpt><trkpt lat="44.113582097314335" lon="7.982330055426674"><ele>869.0</ele><time>2026-05-03T12:58:36Z</time></trkpt><trkpt lat="44.113668372655134" lon="7.9821394424063925"><ele>869.0</ele><time>2026-05-03T12:58:37Z</time></trkpt><trkpt lat="44.11373589131907" lon="7.98191253911054"><ele>869.0</ele><time>2026-05-03T12:58:38Z</time></trkpt><trkpt lat="44.11379815447894" lon="7.981693877389975"><ele>864.3333333333334</ele><time>2026-05-03T12:58:39Z</time></trkpt><trkpt lat="44.11385252146249" lon="7.981488001036973"><ele>859.6666666666667</ele><time>2026-05-03T12:58:40Z</time></trkpt><trkpt lat="44.11389743402705" lon="7.981286474354811"><ele>855.0</ele><time>2026-05-03T12:58:41Z</time></trkpt><trkpt lat="44.11395095475788" lon="7.981076501827513"><ele>855.0</ele><time>2026-05-03T12:58:42Z</time></trkpt><trkpt lat="44.11400938760655" lon="7.980872963800246"><ele>855.0</ele><time>2026-05-03T12:58:43Z</time></trkpt><trkpt lat="44.11406547389468" lon="7.980668940117452"><ele>855.0</ele><time>2026-05-03T12:58:44Z</time></trkpt><trkpt lat="44.114117717298214" lon="7.980483345254301"><ele>860.0</ele><time>2026-05-03T12:58:45Z</time></trkpt><trkpt lat="44.114165777490534" lon="7.98032097652736"><ele>865.0</ele><time>2026-05-03T12:58:46Z</time></trkpt><trkpt lat="44.114208456225114" lon="7.980166690982026"><ele>870.0</ele><time>2026-05-03T12:58:47Z</time></trkpt><trkpt lat="44.11425242660518" lon="7.980002470411318"><ele>875.0</ele><time>2026-05-03T12:58:48Z</time></trkpt><trkpt lat="44.11430386616621" lon="7.979819885007914"><ele>875.0</ele><time>2026-05-03T12:58:49Z</time></trkpt><trkpt lat="44.114349565467116" lon="7.979624711512421"><ele>875.0</ele><time>2026-05-03T12:58:50Z</time></trkpt><trkpt lat="44.11437406653649" lon="7.9794298324707205"><ele>875.0</ele><time>2026-05-03T12:58:51Z</time></trkpt><trkpt lat="44.114377130625115" lon="7.979214909647363"><ele>875.0</ele><time>2026-05-03T12:58:52Z</time></trkpt><trkpt lat="44.11435848701817" lon="7.979032804434497"><ele>874.5</ele><time>2026-05-03T12:58:53Z</time></trkpt><trkpt lat="44.114349560521866" lon="7.97884926157076"><ele>874.0</ele><time>2026-05-03T12:58:54Z</time></trkpt><trkpt lat="44.11437866490561" lon="7.9786551667049705"><ele>873.5</ele><time>2026-05-03T12:58:55Z</time></trkpt><trkpt lat="44.11440449060277" lon="7.978469665583885"><ele>873.0</ele><time>2026-05-03T12:58:56Z</time></trkpt><trkpt lat="44.1144164747414" lon="7.978296510663744"><ele>871.25</ele><time>2026-05-03T12:58:57Z</time></trkpt><trkpt lat="44.114444682827724" lon="7.978138768254125"><ele>869.5</ele><time>2026-05-03T12:58:58Z</time></trkpt><trkpt lat="44.11449703879942" lon="7.977982116863325"><ele>867.75</ele><time>2026-05-03T12:58:59Z</time></trkpt><trkpt lat="44.114567412880916" lon="7.977829045024616"><ele>866.0</ele><time>2026-05-03T12:59:00Z</time></trkpt><trkpt lat="44.114666603925635" lon="7.97771577190429"><ele>866.0</ele><time>2026-05-03T12:59:01Z</time></trkpt><trkpt lat="44.11477847555016" lon="7.977633021418257"><ele>866.0</ele><time>2026-05-03T12:59:02Z</time></trkpt><trkpt lat="44.114911306796664" lon="7.977591381083694"><ele>866.0</ele><time>2026-05-03T12:59:03Z</time></trkpt><trkpt lat="44.115047701589084" lon="7.977563976115743"><ele>866.0</ele><time>2026-05-03T12:59:04Z</time></trkpt><trkpt lat="44.11517380909829" lon="7.977529176011292"><ele>871.75</ele><time>2026-05-03T12:59:05Z</time></trkpt><trkpt lat="44.11530568827494" lon="7.977464274206066"><ele>877.5</ele><time>2026-05-03T12:59:06Z</time></trkpt><trkpt lat="44.11543706688949" lon="7.97738076855056"><ele>883.25</ele><time>2026-05-03T12:59:07Z</time></trkpt><trkpt lat="44.11555545526942" lon="7.9772954709838055"><ele>889.0</ele><time>2026-05-03T12:59:08Z</time></trkpt><trkpt lat="44.11565797000386" lon="7.977212605221623"><ele>888.8000000000001</ele><time>2026-05-03T12:59:09Z</time></trkpt><trkpt lat="44.11575543459758" lon="7.977134614887122"><ele>888.6000000000001</ele><time>2026-05-03T12:59:10Z</time></trkpt><trkpt lat="44.11583166605431" lon="7.977037301083758"><ele>888.4</ele><time>2026-05-03T12:59:11Z</time></trkpt><trkpt lat="44.115879558045116" lon="7.976905007868706"><ele>888.2</ele><time>2026-05-03T12:59:12Z</time></trkpt><trkpt lat="44.115900392533526" lon="7.976732822847455"><ele>888.0</ele><time>2026-05-03T12:59:13Z</time></trkpt><trkpt lat="44.11592246741122" lon="7.976541432651632"><ele>888.0</ele><time>2026-05-03T12:59:14Z</time></trkpt><trkpt lat="44.1159499747109" lon="7.976357084709807"><ele>888.0</ele><time>2026-05-03T12:59:15Z</time></trkpt><trkpt lat="44.11597910554015" lon="7.976191860526047"><ele>888.0</ele><time>2026-05-03T12:59:16Z</time></trkpt><trkpt lat="44.115999777982566" lon="7.976022738857"><ele>888.0</ele><time>2026-05-03T12:59:17Z</time></trkpt><trkpt lat="44.11599917864746" lon="7.975826908288953"><ele>886.6666666666667</ele><time>2026-05-03T12:59:18Z</time></trkpt><trkpt lat="44.11595673565503" lon="7.9756144356360945"><ele>885.3333333333334</ele><time>2026-05-03T12:59:19Z</time></trkpt><trkpt lat="44.11588911860657" lon="7.975397250394616"><ele>884.0</ele><time>2026-05-03T12:59:20Z</time></trkpt><trkpt lat="44.11581907704" lon="7.975187565575404"><ele>887.0</ele><time>2026-05-03T12:59:21Z</time></trkpt><trkpt lat="44.115764598240695" lon="7.9749957574517545"><ele>890.0</ele><time>2026-05-03T12:59:22Z</time></trkpt><trkpt lat="44.11572059680527" lon="7.9748184089003535"><ele>893.0</ele><time>2026-05-03T12:59:23Z</time></trkpt><trkpt lat="44.11567345100336" lon="7.974626730832112"><ele>896.0</ele><time>2026-05-03T12:59:24Z</time></trkpt><trkpt lat="44.11563031960662" lon="7.974406709797173"><ele>886.75</ele><time>2026-05-03T12:59:25Z</time></trkpt><trkpt lat="44.115613300261046" lon="7.974177852701708"><ele>877.5</ele><time>2026-05-03T12:59:26Z</time></trkpt><trkpt lat="44.115618377703306" lon="7.973976450631695"><ele>868.25</ele><time>2026-05-03T12:59:27Z</time></trkpt><trkpt lat="44.11561151591294" lon="7.973788078298836"><ele>859.0</ele><time>2026-05-03T12:59:28Z</time></trkpt><trkpt lat="44.11560304096583" lon="7.973606535076914"><ele>859.0</ele><time>2026-05-03T12:59:29Z</time></trkpt><trkpt lat="44.11559227737641" lon="7.973415390317043"><ele>859.0</ele><time>2026-05-03T12:59:30Z</time></trkpt><trkpt lat="44.11558354495544" lon="7.97321738559348"><ele>859.0</ele><time>2026-05-03T12:59:31Z</time></trkpt><trkpt lat="44.115580120772734" lon="7.973035409190965"><ele>859.0</ele><time>2026-05-03T12:59:32Z</time></trkpt><trkpt lat="44.115583191601935" lon="7.972859556901066"><ele>858.0</ele><time>2026-05-03T12:59:33Z</time></trkpt><trkpt lat="44.115602781334" lon="7.972687549378196"><ele>857.0</ele><time>2026-05-03T12:59:34Z</time></trkpt><trkpt lat="44.115653104925535" lon="7.97252276951519"><ele>856.0</ele><time>2026-05-03T12:59:35Z</time></trkpt><trkpt lat="44.11572685296931" lon="7.972378679600729"><ele>855.0</ele><time>2026-05-03T12:59:36Z</time></trkpt><trkpt lat="44.11582574663472" lon="7.972283094967025"><ele>865.75</ele><time>2026-05-03T12:59:37Z</time></trkpt><trkpt lat="44.11594992263568" lon="7.97221955302266"><ele>876.5</ele><time>2026-05-03T12:59:38Z</time></trkpt><trkpt lat="44.11609860930329" lon="7.972181852011632"><ele>887.25</ele><time>2026-05-03T12:59:39Z</time></trkpt><trkpt lat="44.116249688195886" lon="7.972132186887083"><ele>898.0</ele><time>2026-05-03T12:59:40Z</time></trkpt><trkpt lat="44.11639127476002" lon="7.972082881890141"><ele>898.0</ele><time>2026-05-03T12:59:41Z</time></trkpt><trkpt lat="44.116524233303466" lon="7.972029309140203"><ele>898.0</ele><time>2026-05-03T12:59:42Z</time></trkpt><trkpt lat="44.11665355800957" lon="7.971977675867114"><ele>898.0</ele><time>2026-05-03T12:59:43Z</time></trkpt><trkpt lat="44.116781304925894" lon="7.9719262843973295"><ele>898.0</ele><time>2026-05-03T12:59:44Z</time></trkpt><trkpt lat="44.1169129189511" lon="7.971865944838702"><ele>897.25</ele><time>2026-05-03T12:59:45Z</time></trkpt><trkpt lat="44.11704790951897" lon="7.971752737046879"><ele>896.5</ele><time>2026-05-03T12:59:46.068Z</time></trkpt><trkpt lat="44.117151955470504" lon="7.971633698794989"><ele>895.75</ele><time>2026-05-03T12:59:47Z</time></trkpt><trkpt lat="44.11726333788494" lon="7.971521161250489"><ele>895.0</ele><time>2026-05-03T12:59:48Z</time></trkpt><trkpt lat="44.11737183008496" lon="7.971358068667676"><ele>901.5</ele><time>2026-05-03T12:59:49Z</time></trkpt><trkpt lat="44.11744000010829" lon="7.971232348326643"><ele>908.0</ele><time>2026-05-03T12:59:50Z</time></trkpt><trkpt lat="44.11753509797884" lon="7.971121886439408"><ele>914.5</ele><time>2026-05-03T12:59:51Z</time></trkpt><trkpt lat="44.11763588686384" lon="7.971020865400535"><ele>921.0</ele><time>2026-05-03T12:59:52Z</time></trkpt><trkpt lat="44.11776298992197" lon="7.970938639742111"><ele>921.0</ele><time>2026-05-03T12:59:53Z</time></trkpt><trkpt lat="44.1178937576262" lon="7.970880936967158"><ele>921.0</ele><time>2026-05-03T12:59:54Z</time></trkpt><trkpt lat="44.11801356441019" lon="7.970861857159203"><ele>921.0</ele><time>2026-05-03T12:59:55Z</time></trkpt><trkpt lat="44.118128332078136" lon="7.97083110833999"><ele>921.0</ele><time>2026-05-03T12:59:56Z</time></trkpt><trkpt lat="44.11823728356772" lon="7.970759934817252"><ele>919.25</ele><time>2026-05-03T12:59:57Z</time></trkpt><trkpt lat="44.11831639663451" lon="7.97063414020694"><ele>917.5</ele><time>2026-05-03T12:59:58Z</time></trkpt><trkpt lat="44.118361658222796" lon="7.970471573966425"><ele>915.75</ele><time>2026-05-03T12:59:59Z</time></trkpt><trkpt lat="44.118362032159666" lon="7.970292511439683"><ele>914.0</ele><time>2026-05-03T13:00:00Z</time></trkpt><trkpt lat="44.118326014251096" lon="7.970097092883374"><ele>910.5</ele><time>2026-05-03T13:00:01Z</time></trkpt><trkpt lat="44.11827743045515" lon="7.969902869359244"><ele>907.0</ele><time>2026-05-03T13:00:02Z</time></trkpt><trkpt lat="44.11823651801827" lon="7.969728096940655"><ele>903.5</ele><time>2026-05-03T13:00:03Z</time></trkpt><trkpt lat="44.11818107184319" lon="7.969571955136664"><ele>900.0</ele><time>2026-05-03T13:00:04Z</time></trkpt><trkpt lat="44.1180851701519" lon="7.969425492585322"><ele>893.0</ele><time>2026-05-03T13:00:05Z</time></trkpt><trkpt lat="44.11796362994989" lon="7.969306484649299"><ele>886.0</ele><time>2026-05-03T13:00:06Z</time></trkpt><trkpt lat="44.11786061262608" lon="7.969189184389184"><ele>879.0</ele><time>2026-05-03T13:00:07Z</time></trkpt><trkpt lat="44.117776622977296" lon="7.969048917366002"><ele>872.0</ele><time>2026-05-03T13:00:08Z</time></trkpt><trkpt lat="44.117707818016434" lon="7.9688768697038705"><ele>872.0</ele><time>2026-05-03T13:00:09Z</time></trkpt><trkpt lat="44.11766926810519" lon="7.9686947799937915"><ele>872.0</ele><time>2026-05-03T13:00:10Z</time></trkpt><trkpt lat="44.11765034788996" lon="7.968511746346171"><ele>872.0</ele><time>2026-05-03T13:00:11Z</time></trkpt><trkpt lat="44.117654473671784" lon="7.96830580714778"><ele>872.0</ele><time>2026-05-03T13:00:12Z</time></trkpt><trkpt lat="44.117683548799846" lon="7.968112604601787"><ele>870.5</ele><time>2026-05-03T13:00:13Z</time></trkpt><trkpt lat="44.117736177264" lon="7.967938387151384"><ele>869.0</ele><time>2026-05-03T13:00:14Z</time></trkpt><trkpt lat="44.117810578874" lon="7.967777032607169"><ele>867.5</ele><time>2026-05-03T13:00:15Z</time></trkpt><trkpt lat="44.11789513872532" lon="7.9676388341938535"><ele>866.0</ele><time>2026-05-03T13:00:16Z</time></trkpt><trkpt lat="44.117992006370926" lon="7.9675141319733065"><ele>866.0</ele><time>2026-05-03T13:00:17Z</time></trkpt><trkpt lat="44.11810130519013" lon="7.967424379476439"><ele>866.0</ele><time>2026-05-03T13:00:18Z</time></trkpt><trkpt lat="44.11821067608648" lon="7.967349938973876"><ele>866.0</ele><time>2026-05-03T13:00:19Z</time></trkpt><trkpt lat="44.11830920407847" lon="7.967268316022595"><ele>866.0</ele><time>2026-05-03T13:00:20Z</time></trkpt><trkpt lat="44.11839901767672" lon="7.967176720834322"><ele>871.5999999999999</ele><time>2026-05-03T13:00:21Z</time></trkpt><trkpt lat="44.118474211811495" lon="7.967072196945765"><ele>877.1999999999999</ele><time>2026-05-03T13:00:22Z</time></trkpt><trkpt lat="44.118507058434844" lon="7.966932798153446"><ele>882.8000000000001</ele><time>2026-05-03T13:00:23Z</time></trkpt><trkpt lat="44.118499247936114" lon="7.966779958771801"><ele>888.4000000000001</ele><time>2026-05-03T13:00:24Z</time></trkpt><trkpt lat="44.118441954610695" lon="7.966622998625549"><ele>894.0</ele><time>2026-05-03T13:00:25Z</time></trkpt><trkpt lat="44.11834486671928" lon="7.96646634938028"><ele>894.0</ele><time>2026-05-03T13:00:26Z</time></trkpt><trkpt lat="44.11825090625811" lon="7.966333731598509"><ele>894.0</ele><time>2026-05-03T13:00:27Z</time></trkpt><trkpt lat="44.11817092433456" lon="7.966211787442465"><ele>894.0</ele><time>2026-05-03T13:00:28Z</time></trkpt><trkpt lat="44.11808622895989" lon="7.966075623105665"><ele>894.0</ele><time>2026-05-03T13:00:29Z</time></trkpt><trkpt lat="44.117988486784284" lon="7.96592504409657"><ele>892.5</ele><time>2026-05-03T13:00:30Z</time></trkpt><trkpt lat="44.117893102597165" lon="7.965784604142986"><ele>891.0</ele><time>2026-05-03T13:00:31Z</time></trkpt><trkpt lat="44.11779027669249" lon="7.96565947883213"><ele>889.5</ele><time>2026-05-03T13:00:32Z</time></trkpt><trkpt lat="44.11766539452662" lon="7.96557291292325"><ele>888.0</ele><time>2026-05-03T13:00:33Z</time></trkpt><trkpt lat="44.11752660124827" lon="7.965533831426833"><ele>888.0</ele><time>2026-05-03T13:00:34Z</time></trkpt><trkpt lat="44.11742116816636" lon="7.965515288745111"><ele>888.0</ele><time>2026-05-03T13:00:35Z</time></trkpt><trkpt lat="44.11735309055426" lon="7.965504278776051"><ele>888.0</ele><time>2026-05-03T13:00:36Z</time></trkpt><trkpt lat="44.11726872312329" lon="7.965462428989651"><ele>888.0</ele><time>2026-05-03T13:00:38Z</time></trkpt><trkpt lat="44.11716825205774" lon="7.9655856949981665"><ele>888.0</ele><time>2026-05-03T13:00:40Z</time></trkpt><trkpt lat="44.11702646789336" lon="7.965553528920925"><ele>883.0</ele><time>2026-05-03T13:00:42Z</time></trkpt><trkpt lat="44.116951841401104" lon="7.965463295391706"><ele>878.0</ele><time>2026-05-03T13:00:43Z</time></trkpt><trkpt lat="44.116879879364355" lon="7.965343497392129"><ele>873.0</ele><time>2026-05-03T13:00:44Z</time></trkpt><trkpt lat="44.11680960150736" lon="7.965258009721432"><ele>868.0</ele><time>2026-05-03T13:00:45Z</time></trkpt><trkpt lat="44.11671602384952" lon="7.96517205828612"><ele>863.0</ele><time>2026-05-03T13:00:46Z</time></trkpt><trkpt lat="44.11659477995579" lon="7.965112257236383"><ele>861.2</ele><time>2026-05-03T13:00:47Z</time></trkpt><trkpt lat="44.11649914583313" lon="7.965073732205704"><ele>859.4</ele><time>2026-05-03T13:00:48Z</time></trkpt><trkpt lat="44.11644224610863" lon="7.964973161292058"><ele>857.6000000000001</ele><time>2026-05-03T13:00:49Z</time></trkpt><trkpt lat="44.11641493400151" lon="7.964833255074121"><ele>855.8000000000001</ele><time>2026-05-03T13:00:50Z</time></trkpt><trkpt lat="44.11640507332733" lon="7.964710221881735"><ele>854.0</ele><time>2026-05-03T13:00:51Z</time></trkpt><trkpt lat="44.11639380412828" lon="7.964593487824253"><ele>854.0</ele><time>2026-05-03T13:00:52Z</time></trkpt><trkpt lat="44.116333790861454" lon="7.964483290101807"><ele>854.0</ele><time>2026-05-03T13:00:53Z</time></trkpt><trkpt lat="44.116263490863446" lon="7.964339298414853"><ele>854.0</ele><time>2026-05-03T13:00:54Z</time></trkpt><trkpt lat="44.116211260216964" lon="7.9641762630607005"><ele>854.0</ele><time>2026-05-03T13:00:55Z</time></trkpt><trkpt lat="44.11614233533175" lon="7.9640445704367036"><ele>857.4000000000001</ele><time>2026-05-03T13:00:56Z</time></trkpt><trkpt lat="44.11610027751705" lon="7.963920634892143"><ele>860.8000000000001</ele><time>2026-05-03T13:00:57Z</time></trkpt><trkpt lat="44.11603188408566" lon="7.963814822680847"><ele>864.1999999999999</ele><time>2026-05-03T13:00:58Z</time></trkpt><trkpt lat="44.115930213494636" lon="7.9636973601614764"><ele>867.5999999999999</ele><time>2026-05-03T13:00:59Z</time></trkpt><trkpt lat="44.1158517517369" lon="7.963627217695116"><ele>871.0</ele><time>2026-05-03T13:01:00Z</time></trkpt><trkpt lat="44.115774687781204" lon="7.9635548957498346"><ele>865.1999999999999</ele><time>2026-05-03T13:01:01Z</time></trkpt><trkpt lat="44.115719608838255" lon="7.9634482479685245"><ele>859.3999999999999</ele><time>2026-05-03T13:01:02Z</time></trkpt><trkpt lat="44.11569669161808" lon="7.963335960902536"><ele>853.6</ele><time>2026-05-03T13:01:03Z</time></trkpt><trkpt lat="44.11568837727703" lon="7.9632043634774385"><ele>847.8</ele><time>2026-05-03T13:01:04Z</time></trkpt><trkpt lat="44.11569066258413" lon="7.963073052459611"><ele>842.0</ele><time>2026-05-03T13:01:05Z</time></trkpt><trkpt lat="44.11569026410588" lon="7.962935161544983"><ele>842.0</ele><time>2026-05-03T13:01:06Z</time></trkpt><trkpt lat="44.115679078678085" lon="7.962807387465555"><ele>842.0</ele><time>2026-05-03T13:01:07Z</time></trkpt><trkpt lat="44.11566819379562" lon="7.962662782033795"><ele>842.0</ele><time>2026-05-03T13:01:08Z</time></trkpt><trkpt lat="44.11565690466765" lon="7.962506175997501"><ele>842.0</ele><time>2026-05-03T13:01:09Z</time></trkpt><trkpt lat="44.11565167506276" lon="7.962352643068249"><ele>842.0</ele><time>2026-05-03T13:01:10Z</time></trkpt><trkpt lat="44.115651960012016" lon="7.962182090633533"><ele>841.25</ele><time>2026-05-03T13:01:11Z</time></trkpt><trkpt lat="44.11566386239763" lon="7.962014871884129"><ele>840.5</ele><time>2026-05-03T13:01:12Z</time></trkpt><trkpt lat="44.11567476011875" lon="7.961850418464176"><ele>839.75</ele><time>2026-05-03T13:01:13Z</time></trkpt><trkpt lat="44.115675197518335" lon="7.961683226683692"><ele>839.0</ele><time>2026-05-03T13:01:14Z</time></trkpt><trkpt lat="44.11567237598011" lon="7.961521802720911"><ele>839.0</ele><time>2026-05-03T13:01:15Z</time></trkpt><trkpt lat="44.115692419082364" lon="7.961375770771419"><ele>839.0</ele><time>2026-05-03T13:01:16Z</time></trkpt><trkpt lat="44.11570763933032" lon="7.9612296132260605"><ele>839.0</ele><time>2026-05-03T13:01:17Z</time></trkpt><trkpt lat="44.115714662778856" lon="7.9610774204041155"><ele>839.0</ele><time>2026-05-03T13:01:18Z</time></trkpt><trkpt lat="44.11575300422446" lon="7.960935342198964"><ele>839.0</ele><time>2026-05-03T13:01:19Z</time></trkpt><trkpt lat="44.11580031788779" lon="7.960781226100639"><ele>843.2</ele><time>2026-05-03T13:01:20Z</time></trkpt><trkpt lat="44.1158542749983" lon="7.960642967655474"><ele>847.4000000000001</ele><time>2026-05-03T13:01:21Z</time></trkpt><trkpt lat="44.11591778915113" lon="7.960515763443927"><ele>851.6</ele><time>2026-05-03T13:01:22Z</time></trkpt><trkpt lat="44.11598405873253" lon="7.960384365387316"><ele>855.8</ele><time>2026-05-03T13:01:23Z</time></trkpt><trkpt lat="44.116041414257886" lon="7.960255996716004"><ele>860.0</ele><time>2026-05-03T13:01:24Z</time></trkpt><trkpt lat="44.11609712872938" lon="7.96012368589275"><ele>857.2</ele><time>2026-05-03T13:01:25Z</time></trkpt><trkpt lat="44.116169998038856" lon="7.9600191121322466"><ele>854.4</ele><time>2026-05-03T13:01:26Z</time></trkpt><trkpt lat="44.11623202382307" lon="7.959929058048368"><ele>851.5999999999999</ele><time>2026-05-03T13:01:27Z</time></trkpt><trkpt lat="44.11630452881737" lon="7.959829629865334"><ele>848.8</ele><time>2026-05-03T13:01:28Z</time></trkpt><trkpt lat="44.11638688300665" lon="7.959696795478788"><ele>846.0</ele><time>2026-05-03T13:01:29Z</time></trkpt><trkpt lat="44.11648294416406" lon="7.959598639406397"><ele>849.0</ele><time>2026-05-03T13:01:30Z</time></trkpt><trkpt lat="44.1165707980381" lon="7.959493108857561"><ele>852.0</ele><time>2026-05-03T13:01:31Z</time></trkpt><trkpt lat="44.116654229270566" lon="7.959415037147562"><ele>855.0</ele><time>2026-05-03T13:01:32Z</time></trkpt><trkpt lat="44.11673863965067" lon="7.959367775078414"><ele>858.0</ele><time>2026-05-03T13:01:33Z</time></trkpt><trkpt lat="44.11676165657728" lon="7.959275158072636"><ele>861.0</ele><time>2026-05-03T13:01:34Z</time></trkpt><trkpt lat="44.11679889507413" lon="7.959195178322399"><ele>864.0</ele><time>2026-05-03T13:01:35Z</time></trkpt><trkpt lat="44.11678340927666" lon="7.959025433470792"><ele>864.0</ele><time>2026-05-03T13:01:37Z</time></trkpt><trkpt lat="44.11669112137327" lon="7.958961168087732"><ele>864.0000000000001</ele><time>2026-05-03T13:01:38Z</time></trkpt><trkpt lat="44.11658726841123" lon="7.958917922121414"><ele>864.0000000000001</ele><time>2026-05-03T13:01:39Z</time></trkpt><trkpt lat="44.11647356828647" lon="7.958897001247366"><ele>864.0</ele><time>2026-05-03T13:01:40Z</time></trkpt><trkpt lat="44.11637083991854" lon="7.958933868398302"><ele>864.0</ele><time>2026-05-03T13:01:41Z</time></trkpt><trkpt lat="44.116267668932956" lon="7.958974454569245"><ele>862.75</ele><time>2026-05-03T13:01:42Z</time></trkpt><trkpt lat="44.116142056843366" lon="7.959025461124601"><ele>861.5</ele><time>2026-05-03T13:01:43Z</time></trkpt><trkpt lat="44.116010521997886" lon="7.95906105662801"><ele>860.25</ele><time>2026-05-03T13:01:44Z</time></trkpt><trkpt lat="44.1158939988104" lon="7.9590721831695745"><ele>859.0</ele><time>2026-05-03T13:01:45Z</time></trkpt><trkpt lat="44.115762570977004" lon="7.959082287218722"><ele>856.5</ele><time>2026-05-03T13:01:46Z</time></trkpt><trkpt lat="44.115637984636166" lon="7.959106731572135"><ele>854.0</ele><time>2026-05-03T13:01:47Z</time></trkpt><trkpt lat="44.115533899951025" lon="7.959213653863161"><ele>851.5</ele><time>2026-05-03T13:01:48Z</time></trkpt><trkpt lat="44.1154293834792" lon="7.9592472744365725"><ele>849.0</ele><time>2026-05-03T13:01:49Z</time></trkpt><trkpt lat="44.115331174342145" lon="7.9592677951235435"><ele>849.0</ele><time>2026-05-03T13:01:50Z</time></trkpt><trkpt lat="44.11524377731929" lon="7.959265227689846"><ele>849.0</ele><time>2026-05-03T13:01:51Z</time></trkpt><trkpt lat="44.115169301580615" lon="7.9592313692346375"><ele>849.0</ele><time>2026-05-03T13:01:52Z</time></trkpt><trkpt lat="44.11510001708349" lon="7.95924370142723"><ele>849.0</ele><time>2026-05-03T13:01:53Z</time></trkpt><trkpt lat="44.115028905650036" lon="7.959245684045646"><ele>849.0</ele><time>2026-05-03T13:01:54Z</time></trkpt><trkpt lat="44.11497752656585" lon="7.959146454046329"><ele>849.0</ele><time>2026-05-03T13:01:55Z</time></trkpt><trkpt lat="44.114908708309414" lon="7.9590910363517375"><ele>843.6</ele><time>2026-05-03T13:01:56Z</time></trkpt><trkpt lat="44.114850711909" lon="7.9590191563516575"><ele>838.2</ele><time>2026-05-03T13:01:57Z</time></trkpt><trkpt lat="44.114777650578205" lon="7.95892299936164"><ele>832.8000000000001</ele><time>2026-05-03T13:01:58Z</time></trkpt><trkpt lat="44.114703420736085" lon="7.958773858444516"><ele>827.4000000000001</ele><time>2026-05-03T13:01:59Z</time></trkpt><trkpt lat="44.114652007530275" lon="7.958630388021467"><ele>822.0</ele><time>2026-05-03T13:02:00Z</time></trkpt><trkpt lat="44.11460817190928" lon="7.958491008856421"><ele>824.4000000000001</ele><time>2026-05-03T13:02:01Z</time></trkpt><trkpt lat="44.11457131662434" lon="7.95835740479246"><ele>826.8000000000001</ele><time>2026-05-03T13:02:02Z</time></trkpt><trkpt lat="44.11454496570794" lon="7.958230838425282"><ele>829.2</ele><time>2026-05-03T13:02:03Z</time></trkpt><trkpt lat="44.114518366223855" lon="7.958116967400717"><ele>831.6</ele><time>2026-05-03T13:02:04Z</time></trkpt><trkpt lat="44.114481707747416" lon="7.958001016114741"><ele>834.0</ele><time>2026-05-03T13:02:05Z</time></trkpt><trkpt lat="44.114441326007864" lon="7.957890654313658"><ele>834.0</ele><time>2026-05-03T13:02:06Z</time></trkpt><trkpt lat="44.11439177056618" lon="7.957795301563174"><ele>834.0</ele><time>2026-05-03T13:02:07Z</time></trkpt><trkpt lat="44.11432817347313" lon="7.957694418078419"><ele>834.0</ele><time>2026-05-03T13:02:08Z</time></trkpt><trkpt lat="44.114226703670774" lon="7.957644957207302"><ele>834.0</ele><time>2026-05-03T13:02:09Z</time></trkpt><trkpt lat="44.114119104038686" lon="7.957624381983317"><ele>834.0</ele><time>2026-05-03T13:02:10Z</time></trkpt><trkpt lat="44.114011852056954" lon="7.957641869918656"><ele>831.1666666666666</ele><time>2026-05-03T13:02:11Z</time></trkpt><trkpt lat="44.113916383048554" lon="7.957636646909567"><ele>828.3333333333333</ele><time>2026-05-03T13:02:12Z</time></trkpt><trkpt lat="44.11383289876907" lon="7.957628749532589"><ele>825.5</ele><time>2026-05-03T13:02:13Z</time></trkpt><trkpt lat="44.113764165485414" lon="7.9576049224307654"><ele>822.6666666666666</ele><time>2026-05-03T13:02:14Z</time></trkpt><trkpt lat="44.11365137034481" lon="7.957637238378228"><ele>819.8333333333333</ele><time>2026-05-03T13:02:16Z</time></trkpt><trkpt lat="44.11365220921402" lon="7.957739643951522"><ele>817.0</ele><time>2026-05-03T13:02:17Z</time></trkpt><trkpt lat="44.11372384462997" lon="7.957799997974617"><ele>817.0</ele><time>2026-05-03T13:02:18Z</time></trkpt><trkpt lat="44.113821569271174" lon="7.957828647642954"><ele>817.0</ele><time>2026-05-03T13:02:19Z</time></trkpt><trkpt lat="44.113913776054005" lon="7.957908884176059"><ele>817.0</ele><time>2026-05-03T13:02:20Z</time></trkpt><trkpt lat="44.11399840006122" lon="7.9579707936198645"><ele>817.0</ele><time>2026-05-03T13:02:21Z</time></trkpt><trkpt lat="44.114063474096106" lon="7.958038195151499"><ele>817.0</ele><time>2026-05-03T13:02:22Z</time></trkpt><trkpt lat="44.11411292017126" lon="7.958104683199174"><ele>818.25</ele><time>2026-05-03T13:02:23Z</time></trkpt><trkpt lat="44.11413632194733" lon="7.958225206458102"><ele>819.5</ele><time>2026-05-03T13:02:24Z</time></trkpt><trkpt lat="44.11414937654249" lon="7.958392626829694"><ele>820.75</ele><time>2026-05-03T13:02:25Z</time></trkpt><trkpt lat="44.11417314613126" lon="7.958561714559542"><ele>822.0</ele><time>2026-05-03T13:02:26Z</time></trkpt><trkpt lat="44.114180116932395" lon="7.958730953300693"><ele>822.0</ele><time>2026-05-03T13:02:27Z</time></trkpt><trkpt lat="44.11418369965077" lon="7.95887773040152"><ele>822.0</ele><time>2026-05-03T13:02:28Z</time></trkpt><trkpt lat="44.11421435932611" lon="7.959119673632643"><ele>822.0</ele><time>2026-05-03T13:02:29Z</time></trkpt><trkpt lat="44.11422639020583" lon="7.95932530927996"><ele>822.0</ele><time>2026-05-03T13:02:30Z</time></trkpt><trkpt lat="44.11422784192651" lon="7.959506836913889"><ele>820.2</ele><time>2026-05-03T13:02:31Z</time></trkpt><trkpt lat="44.11423485952598" lon="7.959686828411634"><ele>818.4000000000001</ele><time>2026-05-03T13:02:32Z</time></trkpt><trkpt lat="44.11426743955965" lon="7.959841443064554"><ele>816.5999999999999</ele><time>2026-05-03T13:02:33Z</time></trkpt><trkpt lat="44.11434655394878" lon="7.959967252214681"><ele>814.8</ele><time>2026-05-03T13:02:34Z</time></trkpt><trkpt lat="44.11438659713088" lon="7.960068946963007"><ele>813.0</ele><time>2026-05-03T13:02:35Z</time></trkpt><trkpt lat="44.11436438347048" lon="7.960196436466555"><ele>813.0</ele><time>2026-05-03T13:02:37Z</time></trkpt><trkpt lat="44.11423698412167" lon="7.9601580831461405"><ele>813.0</ele><time>2026-05-03T13:02:39Z</time></trkpt><trkpt lat="44.114184634240814" lon="7.960086875233384"><ele>813.0</ele><time>2026-05-03T13:02:40Z</time></trkpt><trkpt lat="44.114188809922304" lon="7.959930058788266"><ele>813.0</ele><time>2026-05-03T13:02:41Z</time></trkpt><trkpt lat="44.1141106426881" lon="7.959731815352972"><ele>813.6666666666667</ele><time>2026-05-03T13:02:42Z</time></trkpt><trkpt lat="44.11402139711597" lon="7.959488984175001"><ele>814.3333333333334</ele><time>2026-05-03T13:02:43Z</time></trkpt><trkpt lat="44.11395957848163" lon="7.959305240168224"><ele>815.0</ele><time>2026-05-03T13:02:44Z</time></trkpt><trkpt lat="44.11389303421101" lon="7.959131366293176"><ele>815.0</ele><time>2026-05-03T13:02:45Z</time></trkpt><trkpt lat="44.11380868281013" lon="7.958978455899369"><ele>815.0</ele><time>2026-05-03T13:02:46Z</time></trkpt><trkpt lat="44.113734266045384" lon="7.958857007565693"><ele>815.0</ele><time>2026-05-03T13:02:47Z</time></trkpt><trkpt lat="44.11364781299859" lon="7.958729220019726"><ele>815.0</ele><time>2026-05-03T13:02:48Z</time></trkpt><trkpt lat="44.113546540339826" lon="7.958626018725761"><ele>815.0</ele><time>2026-05-03T13:02:49Z</time></trkpt><trkpt lat="44.1134444401171" lon="7.958538694563152"><ele>815.0</ele><time>2026-05-03T13:02:50Z</time></trkpt><trkpt lat="44.113357903348664" lon="7.9584632512039954"><ele>815.0</ele><time>2026-05-03T13:02:51Z</time></trkpt><trkpt lat="44.11328122265323" lon="7.958395917000419"><ele>815.0</ele><time>2026-05-03T13:02:52Z</time></trkpt><trkpt lat="44.11321511201986" lon="7.9583573692625915"><ele>815.0</ele><time>2026-05-03T13:02:53Z</time></trkpt><trkpt lat="44.11314039116172" lon="7.95835979150706"><ele>822.2</ele><time>2026-05-03T13:02:54Z</time></trkpt><trkpt lat="44.11308388945038" lon="7.958481849822927"><ele>829.4</ele><time>2026-05-03T13:02:55Z</time></trkpt><trkpt lat="44.11306535717927" lon="7.958596192842626"><ele>836.5999999999999</ele><time>2026-05-03T13:02:56Z</time></trkpt><trkpt lat="44.11307967633745" lon="7.958712018359078"><ele>843.8</ele><time>2026-05-03T13:02:57Z</time></trkpt><trkpt lat="44.11313961560118" lon="7.958852013774302"><ele>851.0</ele><time>2026-05-03T13:02:58Z</time></trkpt><trkpt lat="44.11320747133714" lon="7.959004013312072"><ele>842.25</ele><time>2026-05-03T13:02:59Z</time></trkpt><trkpt lat="44.113265409171774" lon="7.959164896349531"><ele>833.5</ele><time>2026-05-03T13:03:00Z</time></trkpt><trkpt lat="44.11332110718309" lon="7.959354206968003"><ele>824.75</ele><time>2026-05-03T13:03:01Z</time></trkpt><trkpt lat="44.11336015052684" lon="7.959516970442078"><ele>816.0</ele><time>2026-05-03T13:03:02Z</time></trkpt><trkpt lat="44.11339098284713" lon="7.959677204812941"><ele>816.0</ele><time>2026-05-03T13:03:03Z</time></trkpt><trkpt lat="44.1134069723783" lon="7.959842159278446"><ele>816.0</ele><time>2026-05-03T13:03:04Z</time></trkpt><trkpt lat="44.11341440995044" lon="7.959983256179843"><ele>816.0</ele><time>2026-05-03T13:03:05Z</time></trkpt><trkpt lat="44.113366076671895" lon="7.960145121324803"><ele>816.0</ele><time>2026-05-03T13:03:06Z</time></trkpt><trkpt lat="44.1133212634565" lon="7.960308915877653"><ele>814.75</ele><time>2026-05-03T13:03:07Z</time></trkpt><trkpt lat="44.113271350618426" lon="7.960480748864575"><ele>813.5</ele><time>2026-05-03T13:03:08Z</time></trkpt><trkpt lat="44.11322874636842" lon="7.960665769215727"><ele>812.25</ele><time>2026-05-03T13:03:09Z</time></trkpt><trkpt lat="44.11321253916813" lon="7.960825500681995"><ele>811.0</ele><time>2026-05-03T13:03:10Z</time></trkpt><trkpt lat="44.11315904312135" lon="7.960967969283191"><ele>820.5</ele><time>2026-05-03T13:03:11Z</time></trkpt><trkpt lat="44.11308938614033" lon="7.961112182882816"><ele>830.0</ele><time>2026-05-03T13:03:12Z</time></trkpt><trkpt lat="44.113012503992344" lon="7.961278518823691"><ele>839.5</ele><time>2026-05-03T13:03:13Z</time></trkpt><trkpt lat="44.112914511382556" lon="7.961430933415412"><ele>849.0</ele><time>2026-05-03T13:03:14Z</time></trkpt><trkpt lat="44.11283155535322" lon="7.961567635792766"><ele>847.75</ele><time>2026-05-03T13:03:15Z</time></trkpt><trkpt lat="44.11276564796267" lon="7.961699857044708"><ele>846.5</ele><time>2026-05-03T13:03:16Z</time></trkpt><trkpt lat="44.112726106261675" lon="7.961848800757702"><ele>845.25</ele><time>2026-05-03T13:03:17Z</time></trkpt><trkpt lat="44.11271205248502" lon="7.962012371571659"><ele>844.0</ele><time>2026-05-03T13:03:18Z</time></trkpt><trkpt lat="44.112734578415" lon="7.962201173379275"><ele>844.0</ele><time>2026-05-03T13:03:19Z</time></trkpt><trkpt lat="44.11277844058675" lon="7.962400780347897"><ele>844.0</ele><time>2026-05-03T13:03:20Z</time></trkpt><trkpt lat="44.11281556737701" lon="7.96260257952051"><ele>844.0</ele><time>2026-05-03T13:03:21Z</time></trkpt><trkpt lat="44.112858834403006" lon="7.962792281406637"><ele>844.0</ele><time>2026-05-03T13:03:22Z</time></trkpt><trkpt lat="44.11290880923021" lon="7.962970629656904"><ele>847.5</ele><time>2026-05-03T13:03:23Z</time></trkpt><trkpt lat="44.112959379993676" lon="7.963146564997251"><ele>851.0</ele><time>2026-05-03T13:03:24Z</time></trkpt><trkpt lat="44.11301581864172" lon="7.963313963199495"><ele>854.5</ele><time>2026-05-03T13:03:25Z</time></trkpt><trkpt lat="44.113086259565144" lon="7.963457863994182"><ele>858.0</ele><time>2026-05-03T13:03:26Z</time></trkpt><trkpt lat="44.113166847080365" lon="7.963585696748401"><ele>848.5999999999999</ele><time>2026-05-03T13:03:27Z</time></trkpt><trkpt lat="44.11324482632774" lon="7.963698971369203"><ele>839.1999999999999</ele><time>2026-05-03T13:03:28Z</time></trkpt><trkpt lat="44.11330491078086" lon="7.96378830307295"><ele>829.8</ele><time>2026-05-03T13:03:29Z</time></trkpt><trkpt lat="44.11334086715375" lon="7.9638970073727195"><ele>820.4</ele><time>2026-05-03T13:03:30Z</time></trkpt><trkpt lat="44.11330961726403" lon="7.964011586111437"><ele>811.0</ele><time>2026-05-03T13:03:31Z</time></trkpt><trkpt lat="44.11324213992971" lon="7.964122479150751"><ele>823.4</ele><time>2026-05-03T13:03:32Z</time></trkpt><trkpt lat="44.11317431614865" lon="7.964235656829783"><ele>835.8</ele><time>2026-05-03T13:03:33Z</time></trkpt><trkpt lat="44.11310604441498" lon="7.964329236057499"><ele>848.1999999999999</ele><time>2026-05-03T13:03:34Z</time></trkpt><trkpt lat="44.113050531908435" lon="7.964422064323463"><ele>860.5999999999999</ele><time>2026-05-03T13:03:35Z</time></trkpt><trkpt lat="44.113027106881596" lon="7.964542281225543"><ele>873.0</ele><time>2026-05-03T13:03:36Z</time></trkpt><trkpt lat="44.113073901015866" lon="7.964676662708021"><ele>873.0</ele><time>2026-05-03T13:03:37Z</time></trkpt><trkpt lat="44.113136985234135" lon="7.96478223435626"><ele>873.0</ele><time>2026-05-03T13:03:38Z</time></trkpt><trkpt lat="44.113203352775955" lon="7.964905705469133"><ele>873.0</ele><time>2026-05-03T13:03:39Z</time></trkpt><trkpt lat="44.11325865768819" lon="7.965044269708609"><ele>873.0</ele><time>2026-05-03T13:03:40Z</time></trkpt><trkpt lat="44.11332664151248" lon="7.965193875449758"><ele>865.25</ele><time>2026-05-03T13:03:41Z</time></trkpt><trkpt lat="44.113382849439844" lon="7.965345266118708"><ele>857.5</ele><time>2026-05-03T13:03:42Z</time></trkpt><trkpt lat="44.11345964748474" lon="7.965488167282421"><ele>849.75</ele><time>2026-05-03T13:03:43Z</time></trkpt><trkpt lat="44.11355080692458" lon="7.965630172484887"><ele>842.0</ele><time>2026-05-03T13:03:44Z</time></trkpt><trkpt lat="44.11363042170878" lon="7.965782763846914"><ele>842.4000000000001</ele><time>2026-05-03T13:03:45Z</time></trkpt><trkpt lat="44.113695544836126" lon="7.965902323523419"><ele>842.8000000000001</ele><time>2026-05-03T13:03:46Z</time></trkpt><trkpt lat="44.113745376978436" lon="7.966011344819836"><ele>843.2</ele><time>2026-05-03T13:03:47Z</time></trkpt><trkpt lat="44.11377791199476" lon="7.966131753897696"><ele>843.6</ele><time>2026-05-03T13:03:48Z</time></trkpt><trkpt lat="44.113786522674914" lon="7.966250011887869"><ele>844.0</ele><time>2026-05-03T13:03:49Z</time></trkpt><trkpt lat="44.11373375547246" lon="7.96634703846838"><ele>844.0</ele><time>2026-05-03T13:03:50Z</time></trkpt><trkpt lat="44.113642262373844" lon="7.966443074074148"><ele>844.0</ele><time>2026-05-03T13:03:51Z</time></trkpt><trkpt lat="44.11355515507375" lon="7.966580770731965"><ele>844.0</ele><time>2026-05-03T13:03:52Z</time></trkpt><trkpt lat="44.11349426372542" lon="7.966730730386969"><ele>844.0</ele><time>2026-05-03T13:03:53Z</time></trkpt><trkpt lat="44.11344310380474" lon="7.966882439813529"><ele>840.6666666666666</ele><time>2026-05-03T13:03:54Z</time></trkpt><trkpt lat="44.11348018710776" lon="7.96710012029284"><ele>837.3333333333333</ele><time>2026-05-03T13:03:55Z</time></trkpt><trkpt lat="44.113511012597726" lon="7.967322183862654"><ele>834.0</ele><time>2026-05-03T13:03:56Z</time></trkpt><trkpt lat="44.113550579238456" lon="7.967535676260359"><ele>830.6</ele><time>2026-05-03T13:03:57Z</time></trkpt><trkpt lat="44.113574459461375" lon="7.967703738548401"><ele>827.2</ele><time>2026-05-03T13:03:58Z</time></trkpt><trkpt lat="44.11358615429847" lon="7.967823919727802"><ele>823.8000000000001</ele><time>2026-05-03T13:03:59Z</time></trkpt><trkpt lat="44.113587973833276" lon="7.9679135614935745"><ele>820.4000000000001</ele><time>2026-05-03T13:04:00Z</time></trkpt><trkpt lat="44.113470737045944" lon="7.967938477728285"><ele>817.0</ele><time>2026-05-03T13:04:02Z</time></trkpt><trkpt lat="44.113390173210696" lon="7.967820648739599"><ele>817.0</ele><time>2026-05-03T13:04:04Z</time></trkpt><trkpt lat="44.11329669379933" lon="7.96772693418629"><ele>817.0</ele><time>2026-05-03T13:04:05Z</time></trkpt><trkpt lat="44.11317614139804" lon="7.967631213578595"><ele>817.0</ele><time>2026-05-03T13:04:06Z</time></trkpt><trkpt lat="44.11306431170642" lon="7.9674972743722465"><ele>817.0</ele><time>2026-05-03T13:04:07Z</time></trkpt><trkpt lat="44.11293483060432" lon="7.967378667374269"><ele>821.0</ele><time>2026-05-03T13:04:08Z</time></trkpt><trkpt lat="44.112797586982936" lon="7.967290199864823"><ele>825.0</ele><time>2026-05-03T13:04:09Z</time></trkpt><trkpt lat="44.11269713448535" lon="7.9672005853937895"><ele>829.0</ele><time>2026-05-03T13:04:10Z</time></trkpt><trkpt lat="44.11260585879187" lon="7.967124010846352"><ele>833.0</ele><time>2026-05-03T13:04:11Z</time></trkpt><trkpt lat="44.112511389845686" lon="7.967038858251337"><ele>833.0</ele><time>2026-05-03T13:04:12Z</time></trkpt><trkpt lat="44.1124140684191" lon="7.966999761659103"><ele>833.0</ele><time>2026-05-03T13:04:13Z</time></trkpt><trkpt lat="44.11233682239775" lon="7.966981493557315"><ele>833.0</ele><time>2026-05-03T13:04:14Z</time></trkpt><trkpt lat="44.112256939513394" lon="7.9670666087087145"><ele>833.0</ele><time>2026-05-03T13:04:15Z</time></trkpt><trkpt lat="44.11220617693868" lon="7.967189482580231"><ele>833.0</ele><time>2026-05-03T13:04:16Z</time></trkpt><trkpt lat="44.11215563956959" lon="7.967259338029803"><ele>836.0</ele><time>2026-05-03T13:04:17Z</time></trkpt><trkpt lat="44.11208830686975" lon="7.967292944982788"><ele>839.0</ele><time>2026-05-03T13:04:18Z</time></trkpt><trkpt lat="44.11200141913053" lon="7.967299746047345"><ele>842.0</ele><time>2026-05-03T13:04:19Z</time></trkpt><trkpt lat="44.11185970795816" lon="7.96727188997583"><ele>845.0</ele><time>2026-05-03T13:04:20Z</time></trkpt><trkpt lat="44.111731043810614" lon="7.9672509165157965"><ele>848.0</ele><time>2026-05-03T13:04:21Z</time></trkpt><trkpt lat="44.11163766583821" lon="7.967256051867685"><ele>856.0</ele><time>2026-05-03T13:04:22Z</time></trkpt><trkpt lat="44.1115579484444" lon="7.967223781976097"><ele>864.0</ele><time>2026-05-03T13:04:23Z</time></trkpt><trkpt lat="44.11147546084723" lon="7.96721751002621"><ele>872.0</ele><time>2026-05-03T13:04:24Z</time></trkpt><trkpt lat="44.11140166670425" lon="7.967231088307098"><ele>880.0</ele><time>2026-05-03T13:04:25Z</time></trkpt><trkpt lat="44.11133860042691" lon="7.967281279701606"><ele>888.0</ele><time>2026-05-03T13:04:26Z</time></trkpt><trkpt lat="44.11131296112966" lon="7.967484710747506"><ele>886.0</ele><time>2026-05-03T13:04:27Z</time></trkpt><trkpt lat="44.11134769210818" lon="7.967646025728667"><ele>884.0</ele><time>2026-05-03T13:04:28Z</time></trkpt><trkpt lat="44.11140015298356" lon="7.967814315258434"><ele>882.0</ele><time>2026-05-03T13:04:29Z</time></trkpt><trkpt lat="44.111449105371534" lon="7.967963282970308"><ele>880.0</ele><time>2026-05-03T13:04:30Z</time></trkpt><trkpt lat="44.11149419428611" lon="7.96811621777457"><ele>880.0</ele><time>2026-05-03T13:04:31Z</time></trkpt><trkpt lat="44.11153279232495" lon="7.968258601507761"><ele>880.0</ele><time>2026-05-03T13:04:32Z</time></trkpt><trkpt lat="44.11157350943446" lon="7.968427913665203"><ele>880.0</ele><time>2026-05-03T13:04:33Z</time></trkpt><trkpt lat="44.11159720125895" lon="7.968545250702056"><ele>880.0</ele><time>2026-05-03T13:04:34Z</time></trkpt><trkpt lat="44.111611193555014" lon="7.968650135022878"><ele>880.0</ele><time>2026-05-03T13:04:35Z</time></trkpt><trkpt lat="44.11161050726324" lon="7.9687768951299045"><ele>873.25</ele><time>2026-05-03T13:04:36Z</time></trkpt><trkpt lat="44.111521333555295" lon="7.968907363726278"><ele>866.5</ele><time>2026-05-03T13:04:38Z</time></trkpt><trkpt lat="44.111420798345364" lon="7.968903991894376"><ele>859.75</ele><time>2026-05-03T13:04:39Z</time></trkpt><trkpt lat="44.11127564486909" lon="7.9689268126959005"><ele>853.0</ele><time>2026-05-03T13:04:40Z</time></trkpt><trkpt lat="44.11111936670849" lon="7.968935386111732"><ele>853.0</ele><time>2026-05-03T13:04:41Z</time></trkpt><trkpt lat="44.110990803575326" lon="7.968941418428246"><ele>853.0</ele><time>2026-05-03T13:04:42Z</time></trkpt><trkpt lat="44.11088631654307" lon="7.968945332074922"><ele>853.0</ele><time>2026-05-03T13:04:43Z</time></trkpt><trkpt lat="44.11078775138536" lon="7.968945065978011"><ele>853.0</ele><time>2026-05-03T13:04:44Z</time></trkpt><trkpt lat="44.11069557483252" lon="7.968943693616279"><ele>853.0</ele><time>2026-05-03T13:04:45Z</time></trkpt><trkpt lat="44.110616921115046" lon="7.968942431507699"><ele>860.5999999999999</ele><time>2026-05-03T13:04:46Z</time></trkpt><trkpt lat="44.11052158705522" lon="7.968947584355367"><ele>868.1999999999999</ele><time>2026-05-03T13:04:47Z</time></trkpt><trkpt lat="44.110453344869505" lon="7.96902048307187"><ele>875.8</ele><time>2026-05-03T13:04:48Z</time></trkpt><trkpt lat="44.11041401428083" lon="7.969126461846028"><ele>883.4</ele><time>2026-05-03T13:04:49Z</time></trkpt><trkpt lat="44.110413300747254" lon="7.969258220097153"><ele>891.0</ele><time>2026-05-03T13:04:50Z</time></trkpt><trkpt lat="44.11044999097627" lon="7.969401141187739"><ele>891.5</ele><time>2026-05-03T13:04:51Z</time></trkpt><trkpt lat="44.11048260679324" lon="7.96954853056998"><ele>892.0</ele><time>2026-05-03T13:04:52Z</time></trkpt><trkpt lat="44.110518033107" lon="7.969713116056085"><ele>892.5</ele><time>2026-05-03T13:04:53Z</time></trkpt><trkpt lat="44.11054739645967" lon="7.969919284894664"><ele>893.0</ele><time>2026-05-03T13:04:54Z</time></trkpt><trkpt lat="44.11058474904117" lon="7.970081764172201"><ele>893.3333333333334</ele><time>2026-05-03T13:04:55Z</time></trkpt><trkpt lat="44.11059091460761" lon="7.970233652078541"><ele>893.6666666666667</ele><time>2026-05-03T13:04:56Z</time></trkpt><trkpt lat="44.110575260815594" lon="7.970355939397559"><ele>894.0</ele><time>2026-05-03T13:04:57Z</time></trkpt><trkpt lat="44.110520835934636" lon="7.970449286557295"><ele>894.3333333333333</ele><time>2026-05-03T13:04:58Z</time></trkpt><trkpt lat="44.11049555672393" lon="7.970551600784145"><ele>894.6666666666666</ele><time>2026-05-03T13:04:59Z</time></trkpt><trkpt lat="44.11047340727464" lon="7.970651431120347"><ele>895.0</ele><time>2026-05-03T13:05:00Z</time></trkpt><trkpt lat="44.11045113239178" lon="7.970756040132072"><ele>893.0</ele><time>2026-05-03T13:05:01Z</time></trkpt><trkpt lat="44.11047336195036" lon="7.970872767061241"><ele>891.0</ele><time>2026-05-03T13:05:02Z</time></trkpt><trkpt lat="44.11052857763819" lon="7.9709938920176455"><ele>889.0</ele><time>2026-05-03T13:05:03Z</time></trkpt><trkpt lat="44.11057478234111" lon="7.971107534630991"><ele>887.0</ele><time>2026-05-03T13:05:04Z</time></trkpt><trkpt lat="44.11061963203173" lon="7.9712484504368275"><ele>885.0</ele><time>2026-05-03T13:05:05Z</time></trkpt><trkpt lat="44.11066800621519" lon="7.9714106637652185"><ele>885.0</ele><time>2026-05-03T13:05:06Z</time></trkpt><trkpt lat="44.110718640278776" lon="7.971580219348149"><ele>885.0</ele><time>2026-05-03T13:05:07Z</time></trkpt><trkpt lat="44.11075971843017" lon="7.971716968163524"><ele>885.0</ele><time>2026-05-03T13:05:08Z</time></trkpt><trkpt lat="44.110799491902114" lon="7.971841156581453"><ele>885.0</ele><time>2026-05-03T13:05:09Z</time></trkpt><trkpt lat="44.11083465165564" lon="7.971960869814587"><ele>885.0</ele><time>2026-05-03T13:05:10Z</time></trkpt><trkpt lat="44.11087084712286" lon="7.972088465815895"><ele>880.0</ele><time>2026-05-03T13:05:11Z</time></trkpt><trkpt lat="44.110894031864" lon="7.972229353731908"><ele>875.0</ele><time>2026-05-03T13:05:12Z</time></trkpt><trkpt lat="44.11087386206615" lon="7.97236483197519"><ele>870.0</ele><time>2026-05-03T13:05:13Z</time></trkpt><trkpt lat="44.11083097858271" lon="7.972442757506652"><ele>865.0</ele><time>2026-05-03T13:05:14Z</time></trkpt><trkpt lat="44.11075861941347" lon="7.9724797416745945"><ele>860.0</ele><time>2026-05-03T13:05:15Z</time></trkpt><trkpt lat="44.110680251688905" lon="7.972464489926168"><ele>855.0</ele><time>2026-05-03T13:05:16Z</time></trkpt><trkpt lat="44.110602495537805" lon="7.972387639196929"><ele>855.0</ele><time>2026-05-03T13:05:17Z</time></trkpt><trkpt lat="44.11051899036881" lon="7.97229011880309"><ele>855.0</ele><time>2026-05-03T13:05:18Z</time></trkpt><trkpt lat="44.11042449594732" lon="7.972224950239744"><ele>855.0</ele><time>2026-05-03T13:05:19Z</time></trkpt><trkpt lat="44.110322289516255" lon="7.972221522267083"><ele>855.0</ele><time>2026-05-03T13:05:20Z</time></trkpt><trkpt lat="44.11021129527892" lon="7.9721866793675105"><ele>855.0</ele><time>2026-05-03T13:05:21Z</time></trkpt><trkpt lat="44.110078369502716" lon="7.972173985654632"><ele>855.0</ele><time>2026-05-03T13:05:22Z</time></trkpt><trkpt lat="44.10996938013695" lon="7.972167208824255"><ele>855.0</ele><time>2026-05-03T13:05:23Z</time></trkpt><trkpt lat="44.10986077524914" lon="7.972161891018723"><ele>855.0</ele><time>2026-05-03T13:05:24Z</time></trkpt><trkpt lat="44.10974326436542" lon="7.972159052589036"><ele>855.0</ele><time>2026-05-03T13:05:25Z</time></trkpt><trkpt lat="44.10963111023885" lon="7.972180430580207"><ele>855.0</ele><time>2026-05-03T13:05:26Z</time></trkpt><trkpt lat="44.109498816410856" lon="7.972169343310474"><ele>857.25</ele><time>2026-05-03T13:05:27Z</time></trkpt><trkpt lat="44.10936028191262" lon="7.972213228889135"><ele>859.5</ele><time>2026-05-03T13:05:28Z</time></trkpt><trkpt lat="44.10922154289444" lon="7.972222022907238"><ele>861.75</ele><time>2026-05-03T13:05:29Z</time></trkpt><trkpt lat="44.109099706342626" lon="7.972277745475945"><ele>864.0</ele><time>2026-05-03T13:05:30Z</time></trkpt><trkpt lat="44.10898671474169" lon="7.972310759544709"><ele>862.5</ele><time>2026-05-03T13:05:31Z</time></trkpt><trkpt lat="44.108873856568096" lon="7.972375824901555"><ele>861.0</ele><time>2026-05-03T13:05:32Z</time></trkpt><trkpt lat="44.108769483610466" lon="7.972459897090671"><ele>859.5</ele><time>2026-05-03T13:05:33Z</time></trkpt><trkpt lat="44.108675896637735" lon="7.972570665811982"><ele>858.0</ele><time>2026-05-03T13:05:34Z</time></trkpt><trkpt lat="44.10859710014891" lon="7.972664943081125"><ele>858.0</ele><time>2026-05-03T13:05:35Z</time></trkpt><trkpt lat="44.10854151462333" lon="7.972752819491899"><ele>858.0</ele><time>2026-05-03T13:05:36Z</time></trkpt><trkpt lat="44.1085040534913" lon="7.972853052481418"><ele>858.0</ele><time>2026-05-03T13:05:37Z</time></trkpt><trkpt lat="44.1084848286158" lon="7.972971533903995"><ele>858.0</ele><time>2026-05-03T13:05:38Z</time></trkpt><trkpt lat="44.10845949354275" lon="7.973079441085575"><ele>858.0</ele><time>2026-05-03T13:05:39Z</time></trkpt><trkpt lat="44.10838897575405" lon="7.973141008278843"><ele>858.0</ele><time>2026-05-03T13:05:40Z</time></trkpt><trkpt lat="44.108323866662296" lon="7.973221460981036"><ele>858.0</ele><time>2026-05-03T13:05:41Z</time></trkpt><trkpt lat="44.108265455863645" lon="7.973317547387404"><ele>858.0</ele><time>2026-05-03T13:05:42Z</time></trkpt><trkpt lat="44.1081808532117" lon="7.973358151341509"><ele>858.0</ele><time>2026-05-03T13:05:43Z</time></trkpt><trkpt lat="44.10810923982298" lon="7.973295573188736"><ele>858.0</ele><time>2026-05-03T13:05:44Z</time></trkpt><trkpt lat="44.10799774425993" lon="7.97321647140733"><ele>858.0</ele><time>2026-05-03T13:05:45Z</time></trkpt><trkpt lat="44.10794265839209" lon="7.973118490913524"><ele>856.5999999999999</ele><time>2026-05-03T13:05:46Z</time></trkpt><trkpt lat="44.107854890933375" lon="7.972982876862023"><ele>855.1999999999999</ele><time>2026-05-03T13:05:47Z</time></trkpt><trkpt lat="44.1077913422134" lon="7.97289058985308"><ele>853.8</ele><time>2026-05-03T13:05:48Z</time></trkpt><trkpt lat="44.10771937864577" lon="7.972811378957919"><ele>852.4</ele><time>2026-05-03T13:05:49Z</time></trkpt><trkpt lat="44.10764662671433" lon="7.972732865497112"><ele>851.0</ele><time>2026-05-03T13:05:50Z</time></trkpt><trkpt lat="44.10756543268391" lon="7.972643123410405"><ele>851.0</ele><time>2026-05-03T13:05:51Z</time></trkpt><trkpt lat="44.10742047434541" lon="7.972604234758257"><ele>851.0</ele><time>2026-05-03T13:05:52Z</time></trkpt><trkpt lat="44.10728635384567" lon="7.972583851269735"><ele>851.0</ele><time>2026-05-03T13:05:53Z</time></trkpt><trkpt lat="44.107160137969" lon="7.972551342639946"><ele>851.0</ele><time>2026-05-03T13:05:54Z</time></trkpt><trkpt lat="44.107065720452255" lon="7.972517074282717"><ele>851.8333333333334</ele><time>2026-05-03T13:05:55Z</time></trkpt><trkpt lat="44.106967916599515" lon="7.972477777955094"><ele>852.6666666666667</ele><time>2026-05-03T13:05:56Z</time></trkpt><trkpt lat="44.10687510232003" lon="7.972437299115996"><ele>853.5</ele><time>2026-05-03T13:05:57Z</time></trkpt><trkpt lat="44.10679363479221" lon="7.9723948692229465"><ele>854.3333333333333</ele><time>2026-05-03T13:05:58Z</time></trkpt><trkpt lat="44.10672325667343" lon="7.972344691385"><ele>855.1666666666666</ele><time>2026-05-03T13:05:59Z</time></trkpt><trkpt lat="44.10666765220415" lon="7.972281527994254"><ele>856.0</ele><time>2026-05-03T13:06:00Z</time></trkpt><trkpt lat="44.10664573144338" lon="7.97207538339361"><ele>856.0</ele><time>2026-05-03T13:06:02Z</time></trkpt><trkpt lat="44.10667618408203" lon="7.971920076083316"><ele>856.0</ele><time>2026-05-03T13:06:03Z</time></trkpt><trkpt lat="44.106698130698106" lon="7.971755276261117"><ele>856.0</ele><time>2026-05-03T13:06:04Z</time></trkpt><trkpt lat="44.10671510387508" lon="7.971598628916107"><ele>856.0</ele><time>2026-05-03T13:06:05Z</time></trkpt><trkpt lat="44.10674762980752" lon="7.9714557516991915"><ele>857.1666666666666</ele><time>2026-05-03T13:06:06Z</time></trkpt><trkpt lat="44.10676960755688" lon="7.971319861373681"><ele>858.3333333333333</ele><time>2026-05-03T13:06:07Z</time></trkpt><trkpt lat="44.10679490011132" lon="7.9711993534231"><ele>859.5</ele><time>2026-05-03T13:06:08Z</time></trkpt><trkpt lat="44.10680816453869" lon="7.971082423807898"><ele>860.6666666666667</ele><time>2026-05-03T13:06:09Z</time></trkpt><trkpt lat="44.10678726724393" lon="7.970979107782477"><ele>861.8333333333334</ele><time>2026-05-03T13:06:10Z</time></trkpt><trkpt lat="44.10673790045424" lon="7.97090921221363"><ele>863.0</ele><time>2026-05-03T13:06:11Z</time></trkpt><trkpt lat="44.10665300141261" lon="7.97087147990965"><ele>863.0</ele><time>2026-05-03T13:06:12Z</time></trkpt><trkpt lat="44.10655297592821" lon="7.970847721501911"><ele>863.0</ele><time>2026-05-03T13:06:13Z</time></trkpt><trkpt lat="44.1064531063167" lon="7.97083516632768"><ele>863.0</ele><time>2026-05-03T13:06:14Z</time></trkpt><trkpt lat="44.106355188659734" lon="7.970828429827762"><ele>863.0</ele><time>2026-05-03T13:06:15Z</time></trkpt><trkpt lat="44.10626242062804" lon="7.970823612280899"><ele>863.0</ele><time>2026-05-03T13:06:16Z</time></trkpt><trkpt lat="44.10613815534228" lon="7.9708267824723285"><ele>863.0</ele><time>2026-05-03T13:06:17Z</time></trkpt><trkpt lat="44.106023871228814" lon="7.970837700088538"><ele>863.0</ele><time>2026-05-03T13:06:18Z</time></trkpt><trkpt lat="44.10591726354334" lon="7.97084809243948"><ele>863.0</ele><time>2026-05-03T13:06:19Z</time></trkpt><trkpt lat="44.1058109417316" lon="7.970863306119762"><ele>863.0</ele><time>2026-05-03T13:06:20Z</time></trkpt><trkpt lat="44.10572218705431" lon="7.970873566556475"><ele>863.0</ele><time>2026-05-03T13:06:21Z</time></trkpt><trkpt lat="44.105654099875665" lon="7.970859527646526"><ele>858.2</ele><time>2026-05-03T13:06:22Z</time></trkpt><trkpt lat="44.10561870990954" lon="7.970665173912775"><ele>853.4</ele><time>2026-05-03T13:06:24Z</time></trkpt><trkpt lat="44.105636643644075" lon="7.970514127205595"><ele>848.6</ele><time>2026-05-03T13:06:25Z</time></trkpt><trkpt lat="44.105630414180304" lon="7.970372867907707"><ele>843.8000000000001</ele><time>2026-05-03T13:06:26Z</time></trkpt><trkpt lat="44.10557659189034" lon="7.9702702489023975"><ele>839.0</ele><time>2026-05-03T13:06:27Z</time></trkpt><trkpt lat="44.1055317243034" lon="7.970178187162552"><ele>839.0000000000001</ele><time>2026-05-03T13:06:28Z</time></trkpt><trkpt lat="44.105484466583015" lon="7.970067305840759"><ele>839.0</ele><time>2026-05-03T13:06:29Z</time></trkpt><trkpt lat="44.105429048644346" lon="7.969994022768124"><ele>839.0</ele><time>2026-05-03T13:06:30Z</time></trkpt><trkpt lat="44.105405096226875" lon="7.969907803422853"><ele>839.0</ele><time>2026-05-03T13:06:31Z</time></trkpt><trkpt lat="44.1054087084813" lon="7.969806428391057"><ele>839.0000000000001</ele><time>2026-05-03T13:06:32Z</time></trkpt><trkpt lat="44.10543342821811" lon="7.96967316724658"><ele>839.0</ele><time>2026-05-03T13:06:33Z</time></trkpt><trkpt lat="44.10546146309704" lon="7.96951164630848"><ele>841.3333333333334</ele><time>2026-05-03T13:06:34Z</time></trkpt><trkpt lat="44.105481463394845" lon="7.969389054212833"><ele>843.6666666666667</ele><time>2026-05-03T13:06:35Z</time></trkpt><trkpt lat="44.105502415196426" lon="7.969272868397327"><ele>846.0</ele><time>2026-05-03T13:06:36Z</time></trkpt><trkpt lat="44.1055158714605" lon="7.969157839026561"><ele>848.3333333333333</ele><time>2026-05-03T13:06:37Z</time></trkpt><trkpt lat="44.10549309645409" lon="7.969067006437297"><ele>850.6666666666666</ele><time>2026-05-03T13:06:38Z</time></trkpt><trkpt lat="44.10540920292558" lon="7.9690174750811815"><ele>853.0</ele><time>2026-05-03T13:06:40Z</time></trkpt><trkpt lat="44.10536745723972" lon="7.968926102255965"><ele>853.0</ele><time>2026-05-03T13:06:43Z</time></trkpt><trkpt lat="44.10529872844241" lon="7.969041943749213"><ele>853.0</ele><time>2026-05-03T13:06:55Z</time></trkpt><trkpt lat="44.105198323401964" lon="7.969099577533734"><ele>853.0</ele><time>2026-05-03T13:06:57Z</time></trkpt><trkpt lat="44.10511463592509" lon="7.969146745874728"><ele>853.0</ele><time>2026-05-03T13:06:58Z</time></trkpt><trkpt lat="44.10501411280419" lon="7.969189494780883"><ele>853.0</ele><time>2026-05-03T13:06:59Z</time></trkpt><trkpt lat="44.10492378763317" lon="7.969269130244526"><ele>853.5999999999999</ele><time>2026-05-03T13:07:00Z</time></trkpt><trkpt lat="44.10484498566147" lon="7.969319291863839"><ele>854.1999999999999</ele><time>2026-05-03T13:07:01Z</time></trkpt><trkpt lat="44.10476643952158" lon="7.969392097144513"><ele>854.8</ele><time>2026-05-03T13:07:02Z</time></trkpt><trkpt lat="44.104678900875285" lon="7.9694776570621455"><ele>855.4</ele><time>2026-05-03T13:07:03Z</time></trkpt><trkpt lat="44.10458740538873" lon="7.969570929969306"><ele>856.0</ele><time>2026-05-03T13:07:04Z</time></trkpt><trkpt lat="44.10450686168883" lon="7.969707530581819"><ele>856.0</ele><time>2026-05-03T13:07:05Z</time></trkpt><trkpt lat="44.10443074962287" lon="7.969822678548315"><ele>855.9999999999999</ele><time>2026-05-03T13:07:06Z</time></trkpt><trkpt lat="44.10435801464088" lon="7.9699111727160625"><ele>855.9999999999999</ele><time>2026-05-03T13:07:07Z</time></trkpt><trkpt lat="44.10428979244997" lon="7.9699729169795015"><ele>856.0</ele><time>2026-05-03T13:07:08Z</time></trkpt><trkpt lat="44.10420443072118" lon="7.969919694117358"><ele>856.0</ele><time>2026-05-03T13:07:09Z</time></trkpt><trkpt lat="44.10408876587998" lon="7.969923218899479"><ele>854.25</ele><time>2026-05-03T13:07:10Z</time></trkpt><trkpt lat="44.10395086059791" lon="7.969926569624285"><ele>852.5</ele><time>2026-05-03T13:07:11Z</time></trkpt><trkpt lat="44.10382150557201" lon="7.969924167569859"><ele>850.75</ele><time>2026-05-03T13:07:12Z</time></trkpt><trkpt lat="44.103706813939354" lon="7.9699172452046785"><ele>849.0</ele><time>2026-05-03T13:07:13Z</time></trkpt><trkpt lat="44.10359742137197" lon="7.969906654136138"><ele>849.0</ele><time>2026-05-03T13:07:14Z</time></trkpt><trkpt lat="44.10348890068271" lon="7.969890482445969"><ele>849.0</ele><time>2026-05-03T13:07:15Z</time></trkpt><trkpt lat="44.10337524340454" lon="7.969867054691166"><ele>849.0</ele><time>2026-05-03T13:07:16Z</time></trkpt><trkpt lat="44.10327401562786" lon="7.9698450341563545"><ele>849.0</ele><time>2026-05-03T13:07:17Z</time></trkpt><trkpt lat="44.10317474002599" lon="7.969823438262403"><ele>849.0</ele><time>2026-05-03T13:07:18Z</time></trkpt><trkpt lat="44.10307156541909" lon="7.969794816637253"><ele>845.0</ele><time>2026-05-03T13:07:19Z</time></trkpt><trkpt lat="44.10299022108983" lon="7.969718250158676"><ele>841.0</ele><time>2026-05-03T13:07:20Z</time></trkpt><trkpt lat="44.102933229111464" lon="7.969614755021484"><ele>837.0</ele><time>2026-05-03T13:07:21Z</time></trkpt><trkpt lat="44.10290840513453" lon="7.969490905578337"><ele>833.0</ele><time>2026-05-03T13:07:22Z</time></trkpt><trkpt lat="44.10290868063104" lon="7.9693507039299964"><ele>829.0</ele><time>2026-05-03T13:07:23Z</time></trkpt><trkpt lat="44.10291816134945" lon="7.9692433907194555"><ele>828.9999999999999</ele><time>2026-05-03T13:07:24Z</time></trkpt><trkpt lat="44.10289410805632" lon="7.96915116702958"><ele>829.0</ele><time>2026-05-03T13:07:25Z</time></trkpt><trkpt lat="44.10284396777459" lon="7.969065530585835"><ele>829.0</ele><time>2026-05-03T13:07:26Z</time></trkpt><trkpt lat="44.10276721572288" lon="7.969036505041342"><ele>829.0</ele><time>2026-05-03T13:07:27Z</time></trkpt><trkpt lat="44.10268025530149" lon="7.969108328079799"><ele>828.9999999999999</ele><time>2026-05-03T13:07:28Z</time></trkpt><trkpt lat="44.10261812939821" lon="7.96920459611314"><ele>829.0</ele><time>2026-05-03T13:07:29Z</time></trkpt><trkpt lat="44.10255926011978" lon="7.969306010632413"><ele>829.0</ele><time>2026-05-03T13:07:30Z</time></trkpt><trkpt lat="44.10246283310104" lon="7.969316809317263"><ele>829.0</ele><time>2026-05-03T13:07:32Z</time></trkpt><trkpt lat="44.102352060441504" lon="7.969295348111643"><ele>829.0</ele><time>2026-05-03T13:07:33Z</time></trkpt><trkpt lat="44.102235348390884" lon="7.969202077838661"><ele>829.0</ele><time>2026-05-03T13:07:34Z</time></trkpt><trkpt lat="44.10214017117711" lon="7.969108568473033"><ele>830.25</ele><time>2026-05-03T13:07:35Z</time></trkpt><trkpt lat="44.10203138862527" lon="7.969051400650833"><ele>831.5</ele><time>2026-05-03T13:07:36Z</time></trkpt><trkpt lat="44.10191127954227" lon="7.969010259383776"><ele>832.75</ele><time>2026-05-03T13:07:37Z</time></trkpt><trkpt lat="44.10181343623999" lon="7.968970323592857"><ele>834.0</ele><time>2026-05-03T13:07:38Z</time></trkpt><trkpt lat="44.1016913026002" lon="7.968902033943563"><ele>835.3333333333333</ele><time>2026-05-03T13:07:38.999Z</time></trkpt><trkpt lat="44.10154130196007" lon="7.968808484133488"><ele>836.6666666666666</ele><time>2026-05-03T13:07:39.999Z</time></trkpt><trkpt lat="44.1013909031" lon="7.968684958994087"><ele>838.0</ele><time>2026-05-03T13:07:40.999Z</time></trkpt><trkpt lat="44.10125966956665" lon="7.968550738574798"><ele>838.0</ele><time>2026-05-03T13:07:41.999Z</time></trkpt><trkpt lat="44.10115152025632" lon="7.9684432215562335"><ele>838.0</ele><time>2026-05-03T13:07:42.999Z</time></trkpt><trkpt lat="44.10104331642902" lon="7.9683565892192085"><ele>838.0</ele><time>2026-05-03T13:07:44Z</time></trkpt><trkpt lat="44.10091949951349" lon="7.968305646325943"><ele>838.0</ele><time>2026-05-03T13:07:45Z</time></trkpt><trkpt lat="44.10080715681106" lon="7.968271283083107"><ele>840.25</ele><time>2026-05-03T13:07:46Z</time></trkpt><trkpt lat="44.10067565230102" lon="7.968223010650865"><ele>842.5</ele><time>2026-05-03T13:07:47Z</time></trkpt><trkpt lat="44.10055976216995" lon="7.968176486423797"><ele>844.75</ele><time>2026-05-03T13:07:48Z</time></trkpt><trkpt lat="44.10045608866466" lon="7.968123383844097"><ele>847.0</ele><time>2026-05-03T13:07:49Z</time></trkpt><trkpt lat="44.10036788847482" lon="7.968060588630677"><ele>846.9999999999999</ele><time>2026-05-03T13:07:50Z</time></trkpt><trkpt lat="44.10029545785424" lon="7.96799051872908"><ele>847.0</ele><time>2026-05-03T13:07:51Z</time></trkpt><trkpt lat="44.1002322956514" lon="7.967942547283544"><ele>847.0</ele><time>2026-05-03T13:07:52Z</time></trkpt><trkpt lat="44.10015532335712" lon="7.967974701080888"><ele>847.0</ele><time>2026-05-03T13:07:53Z</time></trkpt><trkpt lat="44.100079851129365" lon="7.968083088980783"><ele>846.9999999999999</ele><time>2026-05-03T13:07:54Z</time></trkpt><trkpt lat="44.10001494330721" lon="7.968179968122232"><ele>847.0</ele><time>2026-05-03T13:07:55Z</time></trkpt><trkpt lat="44.09999354260455" lon="7.9682955196345135"><ele>850.1666666666666</ele><time>2026-05-03T13:07:56Z</time></trkpt><trkpt lat="44.099999559295675" lon="7.968383657195861"><ele>853.3333333333333</ele><time>2026-05-03T13:07:57Z</time></trkpt><trkpt lat="44.10004357477588" lon="7.968456430087656"><ele>856.5</ele><time>2026-05-03T13:07:58Z</time></trkpt><trkpt lat="44.100118327665804" lon="7.968524936459421"><ele>859.6666666666667</ele><time>2026-05-03T13:07:59Z</time></trkpt><trkpt lat="44.1002084637442" lon="7.968578839422571"><ele>862.8333333333334</ele><time>2026-05-03T13:08:00Z</time></trkpt><trkpt lat="44.10029931268045" lon="7.968669370366927"><ele>866.0</ele><time>2026-05-03T13:08:01Z</time></trkpt><trkpt lat="44.1004032337753" lon="7.968758488075456"><ele>866.0</ele><time>2026-05-03T13:08:02Z</time></trkpt><trkpt lat="44.10050959044443" lon="7.9688540995185075"><ele>865.9999999999999</ele><time>2026-05-03T13:08:03Z</time></trkpt><trkpt lat="44.100590051664305" lon="7.96892456282955"><ele>865.9999999999999</ele><time>2026-05-03T13:08:04Z</time></trkpt><trkpt lat="44.10067341837864" lon="7.968998327946034"><ele>866.0</ele><time>2026-05-03T13:08:05Z</time></trkpt><trkpt lat="44.10074236935848" lon="7.969088975975452"><ele>866.0</ele><time>2026-05-03T13:08:06Z</time></trkpt><trkpt lat="44.100826852515894" lon="7.969204990629688"><ele>864.5</ele><time>2026-05-03T13:08:07Z</time></trkpt><trkpt lat="44.10090514177192" lon="7.969338069739241"><ele>863.0</ele><time>2026-05-03T13:08:08Z</time></trkpt><trkpt lat="44.10097557027064" lon="7.969471239432637"><ele>861.5</ele><time>2026-05-03T13:08:09Z</time></trkpt><trkpt lat="44.1010570987024" lon="7.969598211964472"><ele>860.0</ele><time>2026-05-03T13:08:10Z</time></trkpt><trkpt lat="44.10116179742317" lon="7.969730870480734"><ele>860.0</ele><time>2026-05-03T13:08:11Z</time></trkpt><trkpt lat="44.101274292536196" lon="7.969873804632979"><ele>860.0</ele><time>2026-05-03T13:08:12Z</time></trkpt><trkpt lat="44.101381058244385" lon="7.970022520491608"><ele>860.0</ele><time>2026-05-03T13:08:13Z</time></trkpt><trkpt lat="44.10148719177242" lon="7.97018827133446"><ele>856.75</ele><time>2026-05-03T13:08:14Z</time></trkpt><trkpt lat="44.10157311154353" lon="7.970345346953626"><ele>853.5</ele><time>2026-05-03T13:08:15Z</time></trkpt><trkpt lat="44.10165200012361" lon="7.9705021915381895"><ele>850.25</ele><time>2026-05-03T13:08:16Z</time></trkpt><trkpt lat="44.10175071202309" lon="7.970670352376093"><ele>847.0</ele><time>2026-05-03T13:08:17Z</time></trkpt><trkpt lat="44.101818005045374" lon="7.970807767342626"><ele>852.75</ele><time>2026-05-03T13:08:18Z</time></trkpt><trkpt lat="44.10190939208829" lon="7.970942628466025"><ele>858.5</ele><time>2026-05-03T13:08:19Z</time></trkpt><trkpt lat="44.1019917175035" lon="7.971075733122617"><ele>864.25</ele><time>2026-05-03T13:08:20Z</time></trkpt><trkpt lat="44.10208788231101" lon="7.971197593803981"><ele>870.0</ele><time>2026-05-03T13:08:21Z</time></trkpt><trkpt lat="44.10216405428604" lon="7.971286687540862"><ele>870.0</ele><time>2026-05-03T13:08:22Z</time></trkpt><trkpt lat="44.10222477481591" lon="7.971375167823789"><ele>870.0</ele><time>2026-05-03T13:08:23Z</time></trkpt><trkpt lat="44.10225544597257" lon="7.971467717565067"><ele>870.0</ele><time>2026-05-03T13:08:24Z</time></trkpt><trkpt lat="44.102225817607135" lon="7.971550472640698"><ele>870.0</ele><time>2026-05-03T13:08:25Z</time></trkpt><trkpt lat="44.102161447037744" lon="7.9716274671291165"><ele>870.0</ele><time>2026-05-03T13:08:26Z</time></trkpt><trkpt lat="44.10214601225715" lon="7.971783178727676"><ele>870.0</ele><time>2026-05-03T13:08:28Z</time></trkpt><trkpt lat="44.10219978881713" lon="7.971838448562232"><ele>869.0</ele><time>2026-05-03T13:08:29Z</time></trkpt><trkpt lat="44.102299838574574" lon="7.971868118072294"><ele>868.0</ele><time>2026-05-03T13:08:30Z</time></trkpt><trkpt lat="44.10239496509474" lon="7.971874150120886"><ele>867.0</ele><time>2026-05-03T13:08:31Z</time></trkpt><trkpt lat="44.10248801836338" lon="7.9718904635032555"><ele>866.0</ele><time>2026-05-03T13:08:32Z</time></trkpt><trkpt lat="44.10258869880361" lon="7.97193771121081"><ele>865.0</ele><time>2026-05-03T13:08:33Z</time></trkpt><trkpt lat="44.10269318926486" lon="7.971946981483536"><ele>865.0</ele><time>2026-05-03T13:08:34Z</time></trkpt><trkpt lat="44.10277329293684" lon="7.971993689980211"><ele>865.0</ele><time>2026-05-03T13:08:35Z</time></trkpt><trkpt lat="44.10284425489733" lon="7.972048088651534"><ele>865.0</ele><time>2026-05-03T13:08:36Z</time></trkpt><trkpt lat="44.102889727478455" lon="7.972175077292176"><ele>865.0</ele><time>2026-05-03T13:08:37Z</time></trkpt><trkpt lat="44.102976299710214" lon="7.9723164913396385"><ele>865.0</ele><time>2026-05-03T13:08:38Z</time></trkpt><trkpt lat="44.10305118816705" lon="7.9724452813586915"><ele>869.2</ele><time>2026-05-03T13:08:39Z</time></trkpt><trkpt lat="44.103113011382206" lon="7.972571637862481"><ele>873.4</ele><time>2026-05-03T13:08:40Z</time></trkpt><trkpt lat="44.1031699913093" lon="7.972686809034795"><ele>877.5999999999999</ele><time>2026-05-03T13:08:41Z</time></trkpt><trkpt lat="44.10320592768937" lon="7.9728164644880595"><ele>881.8</ele><time>2026-05-03T13:08:42Z</time></trkpt><trkpt lat="44.10322340564848" lon="7.972979179650489"><ele>886.0</ele><time>2026-05-03T13:08:43Z</time></trkpt><trkpt lat="44.103213292828066" lon="7.973156671835951"><ele>886.0</ele><time>2026-05-03T13:08:44Z</time></trkpt><trkpt lat="44.10319856673298" lon="7.973305423693304"><ele>886.0</ele><time>2026-05-03T13:08:45Z</time></trkpt><trkpt lat="44.103170963232124" lon="7.973435564201438"><ele>886.0</ele><time>2026-05-03T13:08:46Z</time></trkpt><trkpt lat="44.10309921528656" lon="7.973583567553995"><ele>886.0</ele><time>2026-05-03T13:08:47Z</time></trkpt><trkpt lat="44.103057547211684" lon="7.973752514824892"><ele>883.75</ele><time>2026-05-03T13:08:48Z</time></trkpt><trkpt lat="44.103025887503165" lon="7.973907364480615"><ele>881.5</ele><time>2026-05-03T13:08:49Z</time></trkpt><trkpt lat="44.10296992452013" lon="7.974058446673172"><ele>879.25</ele><time>2026-05-03T13:08:50Z</time></trkpt><trkpt lat="44.10289723005796" lon="7.974193376711669"><ele>877.0</ele><time>2026-05-03T13:08:51Z</time></trkpt><trkpt lat="44.102827034133675" lon="7.9743048451605265"><ele>876.6666666666666</ele><time>2026-05-03T13:08:52Z</time></trkpt><trkpt lat="44.10277795418858" lon="7.974409312715711"><ele>876.3333333333333</ele><time>2026-05-03T13:08:53Z</time></trkpt><trkpt lat="44.10277310655334" lon="7.974501975629069"><ele>876.0</ele><time>2026-05-03T13:08:54Z</time></trkpt><trkpt lat="44.102815066658685" lon="7.9745759537883725"><ele>875.6666666666667</ele><time>2026-05-03T13:08:55Z</time></trkpt><trkpt lat="44.10289094147611" lon="7.974632613866375"><ele>875.3333333333334</ele><time>2026-05-03T13:08:56Z</time></trkpt><trkpt lat="44.10297720246563" lon="7.974658332706201"><ele>875.0</ele><time>2026-05-03T13:08:57Z</time></trkpt><trkpt lat="44.10307168288459" lon="7.9747067489226175"><ele>875.0000000000001</ele><time>2026-05-03T13:08:59Z</time></trkpt><trkpt lat="44.103053332684595" lon="7.974835411900913"><ele>875.0</ele><time>2026-05-03T13:09:01Z</time></trkpt><trkpt lat="44.10299819399173" lon="7.974898830699542"><ele>875.0</ele><time>2026-05-03T13:09:02Z</time></trkpt><trkpt lat="44.102938691809584" lon="7.974948541654152"><ele>875.0</ele><time>2026-05-03T13:09:03Z</time></trkpt><trkpt lat="44.10287151872683" lon="7.9749878187263725"><ele>875.0000000000001</ele><time>2026-05-03T13:09:04Z</time></trkpt><trkpt lat="44.1028386752623" lon="7.975156426422072"><ele>875.0</ele><time>2026-05-03T13:09:06Z</time></trkpt><trkpt lat="44.102878743294625" lon="7.975237252249304"><ele>872.8</ele><time>2026-05-03T13:09:07Z</time></trkpt><trkpt lat="44.10295674164046" lon="7.975291685727455"><ele>870.6</ele><time>2026-05-03T13:09:08Z</time></trkpt><trkpt lat="44.103058378393264" lon="7.975310931261376"><ele>868.4000000000001</ele><time>2026-05-03T13:09:09Z</time></trkpt><trkpt lat="44.10315660866477" lon="7.975311489506874"><ele>866.2</ele><time>2026-05-03T13:09:10Z</time></trkpt><trkpt lat="44.10324718845421" lon="7.975307657373783"><ele>864.0</ele><time>2026-05-03T13:09:11Z</time></trkpt><trkpt lat="44.10332312951982" lon="7.975308769802212"><ele>864.0</ele><time>2026-05-03T13:09:12Z</time></trkpt><trkpt lat="44.10339171785705" lon="7.975314879257998"><ele>864.0</ele><time>2026-05-03T13:09:13Z</time></trkpt><trkpt lat="44.10345667934969" lon="7.97532634089577"><ele>864.0</ele><time>2026-05-03T13:09:14Z</time></trkpt><trkpt lat="44.103533694911" lon="7.975421479027729"><ele>864.0</ele><time>2026-05-03T13:09:16Z</time></trkpt><trkpt lat="44.10353737812957" lon="7.975512250400473"><ele>864.0</ele><time>2026-05-03T13:09:17Z</time></trkpt><trkpt lat="44.10352746806087" lon="7.975628113935078"><ele>864.0</ele><time>2026-05-03T13:09:17.999Z</time></trkpt><trkpt lat="44.10350022091341" lon="7.975767179249203"><ele>866.4000000000001</ele><time>2026-05-03T13:09:18.999Z</time></trkpt><trkpt lat="44.103476119268294" lon="7.975901547133073"><ele>868.8000000000001</ele><time>2026-05-03T13:09:19.999Z</time></trkpt><trkpt lat="44.10346952619903" lon="7.976040343040372"><ele>871.1999999999999</ele><time>2026-05-03T13:09:20.999Z</time></trkpt><trkpt lat="44.10349728947816" lon="7.976184116223174"><ele>873.5999999999999</ele><time>2026-05-03T13:09:21.999Z</time></trkpt><trkpt lat="44.10354918813557" lon="7.976346120009761"><ele>876.0</ele><time>2026-05-03T13:09:22.999Z</time></trkpt><trkpt lat="44.10359214803759" lon="7.976507784453188"><ele>876.0</ele><time>2026-05-03T13:09:23.999Z</time></trkpt><trkpt lat="44.103620463613744" lon="7.97667881730922"><ele>875.9999999999999</ele><time>2026-05-03T13:09:24.999Z</time></trkpt><trkpt lat="44.10365221890721" lon="7.976832948637591"><ele>875.9999999999999</ele><time>2026-05-03T13:09:25.999Z</time></trkpt><trkpt lat="44.10368236790959" lon="7.97697258294411"><ele>876.0</ele><time>2026-05-03T13:09:26.999Z</time></trkpt><trkpt lat="44.10370152948746" lon="7.977096557873218"><ele>876.0</ele><time>2026-05-03T13:09:27.999Z</time></trkpt><trkpt lat="44.10370596982494" lon="7.977200927080456"><ele>877.5</ele><time>2026-05-03T13:09:28.999Z</time></trkpt><trkpt lat="44.10380710811898" lon="7.977294349590305"><ele>879.0</ele><time>2026-05-03T13:09:30.999Z</time></trkpt><trkpt lat="44.10390547730054" lon="7.977246909541407"><ele>880.5</ele><time>2026-05-03T13:09:31.999Z</time></trkpt><trkpt lat="44.10400351793242" lon="7.977153627501"><ele>882.0</ele><time>2026-05-03T13:09:32.999Z</time></trkpt><trkpt lat="44.10409667382599" lon="7.977047164651702"><ele>882.0</ele><time>2026-05-03T13:09:33.999Z</time></trkpt><trkpt lat="44.1041553727156" lon="7.976907790035982"><ele>882.0</ele><time>2026-05-03T13:09:34.999Z</time></trkpt><trkpt lat="44.10422527905762" lon="7.976785022546337"><ele>882.0</ele><time>2026-05-03T13:09:35.999Z</time></trkpt><trkpt lat="44.104275143505035" lon="7.976669786233367"><ele>882.0</ele><time>2026-05-03T13:09:36.999Z</time></trkpt><trkpt lat="44.10433429505796" lon="7.976570210843457"><ele>882.0</ele><time>2026-05-03T13:09:37.999Z</time></trkpt><trkpt lat="44.10440664738545" lon="7.976498135566173"><ele>878.0</ele><time>2026-05-03T13:09:38.999Z</time></trkpt><trkpt lat="44.10447554476968" lon="7.976435540646481"><ele>874.0</ele><time>2026-05-03T13:09:39.999Z</time></trkpt><trkpt lat="44.10455388991283" lon="7.976420129902383"><ele>870.0</ele><time>2026-05-03T13:09:40.999Z</time></trkpt><trkpt lat="44.10464507869095" lon="7.976404261499837"><ele>866.0</ele><time>2026-05-03T13:09:41.999Z</time></trkpt><trkpt lat="44.10472788033938" lon="7.976409366049266"><ele>862.0</ele><time>2026-05-03T13:09:42.999Z</time></trkpt><trkpt lat="44.104822799660965" lon="7.976423765329641"><ele>858.0</ele><time>2026-05-03T13:09:43.999Z</time></trkpt><trkpt lat="44.10491916077426" lon="7.976466387550491"><ele>857.5</ele><time>2026-05-03T13:09:44.999Z</time></trkpt><trkpt lat="44.10500905047912" lon="7.9765490803693275"><ele>857.0</ele><time>2026-05-03T13:09:45.999Z</time></trkpt><trkpt lat="44.105082511901394" lon="7.976680800209611"><ele>856.5</ele><time>2026-05-03T13:09:46.999Z</time></trkpt><trkpt lat="44.10514883415616" lon="7.976845840505865"><ele>856.0</ele><time>2026-05-03T13:09:47.999Z</time></trkpt><trkpt lat="44.10521955811465" lon="7.977033878962618"><ele>860.0</ele><time>2026-05-03T13:09:48.999Z</time></trkpt><trkpt lat="44.1052964143473" lon="7.977200115715354"><ele>863.9999999999999</ele><time>2026-05-03T13:09:50Z</time></trkpt><trkpt lat="44.10535339486606" lon="7.977335963241191"><ele>867.9999999999999</ele><time>2026-05-03T13:09:51Z</time></trkpt><trkpt lat="44.10540195015702" lon="7.977424718736143"><ele>872.0</ele><time>2026-05-03T13:09:52Z</time></trkpt><trkpt lat="44.10546262475812" lon="7.9775472275363475"><ele>876.0</ele><time>2026-05-03T13:09:53Z</time></trkpt><trkpt lat="44.105479181778875" lon="7.977666523293975"><ele>877.8</ele><time>2026-05-03T13:09:54Z</time></trkpt><trkpt lat="44.10548256860273" lon="7.977814777085342"><ele>879.5999999999999</ele><time>2026-05-03T13:09:55Z</time></trkpt><trkpt lat="44.105430735729634" lon="7.977940642780887"><ele>881.4</ele><time>2026-05-03T13:09:56Z</time></trkpt><trkpt lat="44.105370974932896" lon="7.978064861133002"><ele>883.2</ele><time>2026-05-03T13:09:57Z</time></trkpt><trkpt lat="44.10531654167761" lon="7.9781928635993875"><ele>885.0</ele><time>2026-05-03T13:09:58Z</time></trkpt><trkpt lat="44.10526446125784" lon="7.978327998455764"><ele>887.3333333333334</ele><time>2026-05-03T13:09:59Z</time></trkpt><trkpt lat="44.10521483756672" lon="7.978431929652058"><ele>889.6666666666667</ele><time>2026-05-03T13:10:00Z</time></trkpt><trkpt lat="44.10518916230282" lon="7.978535836599577"><ele>892.0</ele><time>2026-05-03T13:10:01Z</time></trkpt><trkpt lat="44.105210509822996" lon="7.9786457662121055"><ele>894.3333333333334</ele><time>2026-05-03T13:10:02Z</time></trkpt><trkpt lat="44.10528884284318" lon="7.97873576146887"><ele>896.6666666666667</ele><time>2026-05-03T13:10:03Z</time></trkpt><trkpt lat="44.10537905405143" lon="7.978787807816922"><ele>899.0</ele><time>2026-05-03T13:10:04Z</time></trkpt><trkpt lat="44.105483283936884" lon="7.978844012640682"><ele>899.0</ele><time>2026-05-03T13:10:05Z</time></trkpt><trkpt lat="44.10556574526532" lon="7.97891813923715"><ele>899.0000000000001</ele><time>2026-05-03T13:10:06Z</time></trkpt><trkpt lat="44.10566479062172" lon="7.978948144785862"><ele>899.0000000000001</ele><time>2026-05-03T13:10:07Z</time></trkpt><trkpt lat="44.10573279144895" lon="7.978988192438544"><ele>899.0</ele><time>2026-05-03T13:10:08Z</time></trkpt><trkpt lat="44.10576397285204" lon="7.979088604391316"><ele>899.0</ele><time>2026-05-03T13:10:09Z</time></trkpt><trkpt lat="44.105828212053495" lon="7.979198259152302"><ele>897.0</ele><time>2026-05-03T13:10:10Z</time></trkpt><trkpt lat="44.1058827669433" lon="7.979289294442691"><ele>895.0</ele><time>2026-05-03T13:10:11Z</time></trkpt><trkpt lat="44.10608780596148" lon="7.97936911768839"><ele>893.0</ele><time>2026-05-03T13:10:12Z</time></trkpt><trkpt lat="44.10612558710154" lon="7.979493480190353"><ele>891.0</ele><time>2026-05-03T13:10:13Z</time></trkpt><trkpt lat="44.106160969686755" lon="7.979622992752452"><ele>891.0</ele><time>2026-05-03T13:10:14Z</time></trkpt><trkpt lat="44.10620108564501" lon="7.97974752295435"><ele>890.9999999999999</ele><time>2026-05-03T13:10:15Z</time></trkpt><trkpt lat="44.106256025231104" lon="7.979834710556242"><ele>890.9999999999999</ele><time>2026-05-03T13:10:16Z</time></trkpt><trkpt lat="44.106348360615115" lon="7.979835173110091"><ele>891.0</ele><time>2026-05-03T13:10:17Z</time></trkpt><trkpt lat="44.10645844247557" lon="7.979763102838796"><ele>891.0</ele><time>2026-05-03T13:10:18Z</time></trkpt><trkpt lat="44.10656585363079" lon="7.979667452775054"><ele>888.5</ele><time>2026-05-03T13:10:19Z</time></trkpt><trkpt lat="44.106676750674076" lon="7.97956332268801"><ele>886.0</ele><time>2026-05-03T13:10:20Z</time></trkpt><trkpt lat="44.10679121050536" lon="7.979478536026078"><ele>883.5</ele><time>2026-05-03T13:10:21Z</time></trkpt><trkpt lat="44.10689526581001" lon="7.979395678773496"><ele>881.0</ele><time>2026-05-03T13:10:22Z</time></trkpt><trkpt lat="44.10699363401123" lon="7.979290641753987"><ele>876.4</ele><time>2026-05-03T13:10:23Z</time></trkpt><trkpt lat="44.107080809743636" lon="7.979172729345608"><ele>871.8</ele><time>2026-05-03T13:10:24Z</time></trkpt><trkpt lat="44.10715679452698" lon="7.979053939609306"><ele>867.1999999999999</ele><time>2026-05-03T13:10:25Z</time></trkpt><trkpt lat="44.10721248160602" lon="7.978956162808358"><ele>862.5999999999999</ele><time>2026-05-03T13:10:26Z</time></trkpt><trkpt lat="44.10726433685167" lon="7.978876998672325"><ele>858.0</ele><time>2026-05-03T13:10:27Z</time></trkpt><trkpt lat="44.10732996205121" lon="7.978821842192831"><ele>859.3333333333334</ele><time>2026-05-03T13:10:28Z</time></trkpt><trkpt lat="44.10742075516893" lon="7.978822443202784"><ele>860.6666666666667</ele><time>2026-05-03T13:10:29Z</time></trkpt><trkpt lat="44.1075103816037" lon="7.978876935100427"><ele>862.0</ele><time>2026-05-03T13:10:30Z</time></trkpt><trkpt lat="44.10756610361755" lon="7.978975347951683"><ele>863.3333333333334</ele><time>2026-05-03T13:10:31Z</time></trkpt><trkpt lat="44.10756698969008" lon="7.979089513716179"><ele>864.6666666666667</ele><time>2026-05-03T13:10:32Z</time></trkpt><trkpt lat="44.107572906780625" lon="7.97919373093194"><ele>866.0</ele><time>2026-05-03T13:10:33Z</time></trkpt><trkpt lat="44.10755298661084" lon="7.979330942328668"><ele>870.1999999999999</ele><time>2026-05-03T13:10:34Z</time></trkpt><trkpt lat="44.10762600741505" lon="7.979422469437317"><ele>874.3999999999999</ele><time>2026-05-03T13:10:35Z</time></trkpt><trkpt lat="44.10772036833352" lon="7.979475783602833"><ele>878.6</ele><time>2026-05-03T13:10:36Z</time></trkpt><trkpt lat="44.10782949832994" lon="7.979481533675217"><ele>882.8</ele><time>2026-05-03T13:10:37Z</time></trkpt><trkpt lat="44.107932465001305" lon="7.979488642616209"><ele>887.0</ele><time>2026-05-03T13:10:38Z</time></trkpt><trkpt lat="44.10804537307833" lon="7.979552714088698"><ele>887.0</ele><time>2026-05-03T13:10:39Z</time></trkpt><trkpt lat="44.10815269827656" lon="7.979627487728097"><ele>887.0</ele><time>2026-05-03T13:10:40Z</time></trkpt><trkpt lat="44.108224373472154" lon="7.979739534381971"><ele>887.0</ele><time>2026-05-03T13:10:41Z</time></trkpt><trkpt lat="44.10829991013226" lon="7.9798109845328025"><ele>887.0</ele><time>2026-05-03T13:10:42Z</time></trkpt><trkpt lat="44.10837094228304" lon="7.979882164487595"><ele>887.0</ele><time>2026-05-03T13:10:43Z</time></trkpt><trkpt lat="44.10841654853789" lon="7.9799560531191345"><ele>879.0</ele><time>2026-05-03T13:10:44Z</time></trkpt><trkpt lat="44.10843059887207" lon="7.9800549351384005"><ele>871.0</ele><time>2026-05-03T13:10:45Z</time></trkpt><trkpt lat="44.1084230829793" lon="7.9802121883833665"><ele>863.0</ele><time>2026-05-03T13:10:46Z</time></trkpt><trkpt lat="44.10837379276951" lon="7.980391705128555"><ele>855.0</ele><time>2026-05-03T13:10:47Z</time></trkpt><trkpt lat="44.108326256957646" lon="7.9805720506503155"><ele>855.0</ele><time>2026-05-03T13:10:48Z</time></trkpt><trkpt lat="44.10828242552564" lon="7.9807491536345125"><ele>855.0</ele><time>2026-05-03T13:10:49Z</time></trkpt><trkpt lat="44.108227390265675" lon="7.980937806302791"><ele>855.0</ele><time>2026-05-03T13:10:50Z</time></trkpt><trkpt lat="44.108161555883946" lon="7.981095803317946"><ele>855.0</ele><time>2026-05-03T13:10:51Z</time></trkpt><trkpt lat="44.108089077602195" lon="7.981242839905603"><ele>854.0</ele><time>2026-05-03T13:10:52Z</time></trkpt><trkpt lat="44.108035136332596" lon="7.981411376792198"><ele>853.0</ele><time>2026-05-03T13:10:53Z</time></trkpt><trkpt lat="44.10799893164869" lon="7.981592389055708"><ele>852.0</ele><time>2026-05-03T13:10:54Z</time></trkpt><trkpt lat="44.10792880593982" lon="7.981735840888786"><ele>851.0</ele><time>2026-05-03T13:10:55Z</time></trkpt><trkpt lat="44.10787853888746" lon="7.981890070247789"><ele>851.0</ele><time>2026-05-03T13:10:56Z</time></trkpt><trkpt lat="44.10781753892839" lon="7.98202586294013"><ele>851.0</ele><time>2026-05-03T13:10:57Z</time></trkpt><trkpt lat="44.10773916538816" lon="7.982127606281438"><ele>851.0</ele><time>2026-05-03T13:10:58Z</time></trkpt><trkpt lat="44.10765636667805" lon="7.982198725157059"><ele>851.0</ele><time>2026-05-03T13:10:59Z</time></trkpt><trkpt lat="44.1075694567289" lon="7.98221053914073"><ele>851.0</ele><time>2026-05-03T13:11:00Z</time></trkpt><trkpt lat="44.10749585747486" lon="7.982255565015059"><ele>851.0000000000001</ele><time>2026-05-03T13:11:01Z</time></trkpt><trkpt lat="44.107407294555024" lon="7.982234026472576"><ele>851.0</ele><time>2026-05-03T13:11:02.999Z</time></trkpt><trkpt lat="44.10733479042044" lon="7.98224810714782"><ele>851.0</ele><time>2026-05-03T13:11:08.999Z</time></trkpt><trkpt lat="44.10735133456301" lon="7.982156309753423"><ele>851.0</ele><time>2026-05-03T13:11:12.999Z</time></trkpt><trkpt lat="44.10743110390945" lon="7.982115652610446"><ele>851.0000000000001</ele><time>2026-05-03T13:11:14.999Z</time></trkpt><trkpt lat="44.10752363997192" lon="7.98212109918752"><ele>851.0</ele><time>2026-05-03T13:11:17.999Z</time></trkpt><trkpt lat="44.107602753451786" lon="7.982115209143306"><ele>851.0000000000001</ele><time>2026-05-03T13:11:19.999Z</time></trkpt><trkpt lat="44.10765844648947" lon="7.98206349685328"><ele>851.0</ele><time>2026-05-03T13:11:21.999Z</time></trkpt><trkpt lat="44.10768541223033" lon="7.981974864343884"><ele>851.0</ele><time>2026-05-03T13:11:40.999Z</time></trkpt><trkpt lat="44.10769431624436" lon="7.98188390450974"><ele>851.0</ele><time>2026-05-03T13:11:43.999Z</time></trkpt><trkpt lat="44.107696587089514" lon="7.9817571885154"><ele>851.0000000000001</ele><time>2026-05-03T13:11:46.999Z</time></trkpt><trkpt lat="44.107703618539" lon="7.981622384326303"><ele>851.0</ele><time>2026-05-03T13:11:48.999Z</time></trkpt><trkpt lat="44.10769464990085" lon="7.981480465638259"><ele>854.4285714285714</ele><time>2026-05-03T13:11:50.999Z</time></trkpt><trkpt lat="44.10767126375037" lon="7.981384412306095"><ele>857.8571428571429</ele><time>2026-05-03T13:11:52.999Z</time></trkpt><trkpt lat="44.107678962047125" lon="7.981296550259107"><ele>861.2857142857142</ele><time>2026-05-03T13:11:53.999Z</time></trkpt><trkpt lat="44.10769091336927" lon="7.981204989701725"><ele>864.7142857142858</ele><time>2026-05-03T13:11:54.999Z</time></trkpt><trkpt lat="44.10769323001309" lon="7.981111287950302"><ele>868.1428571428571</ele><time>2026-05-03T13:11:56Z</time></trkpt><trkpt lat="44.107711361594454" lon="7.981011888687862"><ele>871.5714285714286</ele><time>2026-05-03T13:11:57Z</time></trkpt><trkpt lat="44.10771841941957" lon="7.980904206820562"><ele>875.0</ele><time>2026-05-03T13:11:58Z</time></trkpt><trkpt lat="44.107736368813775" lon="7.980802831810337"><ele>877.0000000000001</ele><time>2026-05-03T13:11:59Z</time></trkpt><trkpt lat="44.107743782228916" lon="7.980715730383346"><ele>879.0</ele><time>2026-05-03T13:12:00Z</time></trkpt><trkpt lat="44.10773859007621" lon="7.980627851680494"><ele>881.0</ele><time>2026-05-03T13:12:01Z</time></trkpt><trkpt lat="44.10769094327758" lon="7.980543144557821"><ele>883.0</ele><time>2026-05-03T13:12:03Z</time></trkpt><trkpt lat="44.10759232010443" lon="7.980514957674486"><ele>885.0000000000001</ele><time>2026-05-03T13:12:05Z</time></trkpt><trkpt lat="44.107521048822775" lon="7.980538409162351"><ele>887.0</ele><time>2026-05-03T13:12:06Z</time></trkpt><trkpt lat="44.107449760914655" lon="7.980575993312612"><ele>888.1666666666667</ele><time>2026-05-03T13:12:07Z</time></trkpt><trkpt lat="44.10739164478104" lon="7.9806243088788715"><ele>889.3333333333334</ele><time>2026-05-03T13:12:08Z</time></trkpt><trkpt lat="44.10733036276714" lon="7.980678456077887"><ele>890.5</ele><time>2026-05-03T13:12:09Z</time></trkpt><trkpt lat="44.1072777806491" lon="7.980741400835368"><ele>891.6666666666667</ele><time>2026-05-03T13:12:10Z</time></trkpt><trkpt lat="44.107171130072054" lon="7.980816729115739"><ele>892.8333333333334</ele><time>2026-05-03T13:12:12Z</time></trkpt><trkpt lat="44.10708297890314" lon="7.980844837718332"><ele>894.0</ele><time>2026-05-03T13:12:13Z</time></trkpt><trkpt lat="44.10700266776357" lon="7.980865845506137"><ele>894.0</ele><time>2026-05-03T13:12:14Z</time></trkpt><trkpt lat="44.10691681488262" lon="7.98088433901245"><ele>894.0000000000001</ele><time>2026-05-03T13:12:15Z</time></trkpt><trkpt lat="44.10682398482356" lon="7.980926201779817"><ele>894.0000000000001</ele><time>2026-05-03T13:12:16Z</time></trkpt><trkpt lat="44.106743666014694" lon="7.980978620505223"><ele>894.0</ele><time>2026-05-03T13:12:17Z</time></trkpt><trkpt lat="44.1066463137663" lon="7.981035582948773"><ele>894.0</ele><time>2026-05-03T13:12:18Z</time></trkpt><trkpt lat="44.10654760122375" lon="7.981093493651363"><ele>897.8333333333334</ele><time>2026-05-03T13:12:19Z</time></trkpt><trkpt lat="44.106460099019316" lon="7.981158821429781"><ele>901.6666666666667</ele><time>2026-05-03T13:12:20Z</time></trkpt><trkpt lat="44.10638127891434" lon="7.981224476108055"><ele>905.5</ele><time>2026-05-03T13:12:21Z</time></trkpt><trkpt lat="44.106305449314114" lon="7.981290104601448"><ele>909.3333333333334</ele><time>2026-05-03T13:12:22Z</time></trkpt><trkpt lat="44.10623791626712" lon="7.981339604231265"><ele>913.1666666666667</ele><time>2026-05-03T13:12:23Z</time></trkpt><trkpt lat="44.10616074588603" lon="7.981376432383152"><ele>917.0</ele><time>2026-05-03T13:12:24Z</time></trkpt><trkpt lat="44.10607738793288" lon="7.981421749076881"><ele>917.0000000000001</ele><time>2026-05-03T13:12:25Z</time></trkpt><trkpt lat="44.105986382143385" lon="7.981464407795251"><ele>917.0</ele><time>2026-05-03T13:12:26Z</time></trkpt><trkpt lat="44.105910253453935" lon="7.981519296159096"><ele>917.0</ele><time>2026-05-03T13:12:27Z</time></trkpt><trkpt lat="44.10583508913789" lon="7.981570496070604"><ele>917.0</ele><time>2026-05-03T13:12:28Z</time></trkpt><trkpt lat="44.10577196467803" lon="7.981619168686319"><ele>917.0000000000001</ele><time>2026-05-03T13:12:29Z</time></trkpt><trkpt lat="44.10566651987739" lon="7.981661293518106"><ele>917.0</ele><time>2026-05-03T13:12:31Z</time></trkpt><trkpt lat="44.1055882388395" lon="7.981624396904968"><ele>920.0</ele><time>2026-05-03T13:12:33Z</time></trkpt><trkpt lat="44.10546824878345" lon="7.981540717328232"><ele>923.0</ele><time>2026-05-03T13:12:35Z</time></trkpt><trkpt lat="44.105395747196134" lon="7.981496695739124"><ele>926.0</ele><time>2026-05-03T13:12:36Z</time></trkpt><trkpt lat="44.1053076222782" lon="7.981462778307899"><ele>929.0</ele><time>2026-05-03T13:12:37Z</time></trkpt><trkpt lat="44.10522543759612" lon="7.981431790315241"><ele>932.0</ele><time>2026-05-03T13:12:38Z</time></trkpt><trkpt lat="44.105134714120304" lon="7.9813816243013544"><ele>932.0000000000001</ele><time>2026-05-03T13:12:39Z</time></trkpt><trkpt lat="44.10505756400837" lon="7.981329595436429"><ele>932.0</ele><time>2026-05-03T13:12:40Z</time></trkpt><trkpt lat="44.10498849943292" lon="7.981276258106841"><ele>932.0</ele><time>2026-05-03T13:12:41Z</time></trkpt><trkpt lat="44.10492972597433" lon="7.98121517179428"><ele>932.0</ele><time>2026-05-03T13:12:42Z</time></trkpt><trkpt lat="44.10488696506119" lon="7.981143992865867"><ele>932.0000000000001</ele><time>2026-05-03T13:12:43Z</time></trkpt><trkpt lat="44.104803897404736" lon="7.981009338244775"><ele>932.0</ele><time>2026-05-03T13:12:45Z</time></trkpt><trkpt lat="44.10475256032507" lon="7.980918866118038"><ele>935.5000000000001</ele><time>2026-05-03T13:12:47Z</time></trkpt><trkpt lat="44.10469168498607" lon="7.980960298973227"><ele>939.0</ele><time>2026-05-03T13:12:48.999Z</time></trkpt><trkpt lat="44.10469127544449" lon="7.981116138467827"><ele>942.5</ele><time>2026-05-03T13:12:50.999Z</time></trkpt><trkpt lat="44.104674440970285" lon="7.981234709820591"><ele>946.0</ele><time>2026-05-03T13:12:52.999Z</time></trkpt><trkpt lat="44.10460575528445" lon="7.981317141734086"><ele>949.5000000000001</ele><time>2026-05-03T13:12:54.999Z</time></trkpt><trkpt lat="44.10452205359575" lon="7.981338448094289"><ele>953.0</ele><time>2026-05-03T13:12:56.999Z</time></trkpt><trkpt lat="44.10440977649978" lon="7.981269381935304"><ele>953.0</ele><time>2026-05-03T13:12:58.999Z</time></trkpt><trkpt lat="44.10434837258464" lon="7.981221383010756"><ele>953.0</ele><time>2026-05-03T13:12:59.999Z</time></trkpt><trkpt lat="44.10422452515668" lon="7.9811852557516065"><ele>953.0</ele><time>2026-05-03T13:13:01.999Z</time></trkpt><trkpt lat="44.1041543070052" lon="7.981181662911105"><ele>953.0</ele><time>2026-05-03T13:13:02.999Z</time></trkpt><trkpt lat="44.104046912096365" lon="7.98117388753453"><ele>953.0</ele><time>2026-05-03T13:13:04.999Z</time></trkpt><trkpt lat="44.103925919033145" lon="7.981187761239975"><ele>958.2</ele><time>2026-05-03T13:13:06.999Z</time></trkpt><trkpt lat="44.10379148760454" lon="7.981201781710903"><ele>963.4</ele><time>2026-05-03T13:13:08.999Z</time></trkpt><trkpt lat="44.10372265352236" lon="7.98121508530867"><ele>968.6000000000001</ele><time>2026-05-03T13:13:09.999Z</time></trkpt><trkpt lat="44.10363798928516" lon="7.981216830496281"><ele>973.8000000000001</ele><time>2026-05-03T13:13:10.999Z</time></trkpt><trkpt lat="44.10355137054349" lon="7.981238592766177"><ele>979.0</ele><time>2026-05-03T13:13:11.999Z</time></trkpt><trkpt lat="44.10347333979504" lon="7.981258167140209"><ele>978.9999999999999</ele><time>2026-05-03T13:13:12.999Z</time></trkpt><trkpt lat="44.10338317395809" lon="7.981289628864165"><ele>979.0</ele><time>2026-05-03T13:13:13.999Z</time></trkpt><trkpt lat="44.10329844956152" lon="7.981327446080134"><ele>979.0</ele><time>2026-05-03T13:13:14.999Z</time></trkpt><trkpt lat="44.103212287961796" lon="7.981340136228784"><ele>979.0</ele><time>2026-05-03T13:13:15.999Z</time></trkpt><trkpt lat="44.10313299270553" lon="7.981361887473164"><ele>978.9999999999999</ele><time>2026-05-03T13:13:16.999Z</time></trkpt><trkpt lat="44.103059124858945" lon="7.98138955293285"><ele>979.0</ele><time>2026-05-03T13:13:17.999Z</time></trkpt><trkpt lat="44.10299568972262" lon="7.981385300934934"><ele>980.4999999999999</ele><time>2026-05-03T13:13:18.999Z</time></trkpt><trkpt lat="44.102919899549036" lon="7.981381279426585"><ele>982.0</ele><time>2026-05-03T13:13:19.999Z</time></trkpt><trkpt lat="44.102840135682435" lon="7.9813573451458995"><ele>983.5</ele><time>2026-05-03T13:13:20.999Z</time></trkpt><trkpt lat="44.10276214684362" lon="7.981319606117613"><ele>985.0</ele><time>2026-05-03T13:13:21.999Z</time></trkpt><trkpt lat="44.10270013396643" lon="7.9812939376599585"><ele>986.4999999999999</ele><time>2026-05-03T13:13:22.999Z</time></trkpt><trkpt lat="44.10265455297229" lon="7.9811703445168005"><ele>988.0</ele><time>2026-05-03T13:13:24.999Z</time></trkpt><trkpt lat="44.10264003038775" lon="7.9810785721881645"><ele>988.0</ele><time>2026-05-03T13:13:25.999Z</time></trkpt><trkpt lat="44.10256640669785" lon="7.9809900447961795"><ele>988.0</ele><time>2026-05-03T13:13:27.999Z</time></trkpt><trkpt lat="44.102500065266085" lon="7.980966660634176"><ele>988.0</ele><time>2026-05-03T13:13:28.999Z</time></trkpt><trkpt lat="44.102424080624324" lon="7.980942116834723"><ele>988.0</ele><time>2026-05-03T13:13:29.999Z</time></trkpt><trkpt lat="44.10236335574188" lon="7.980907918326832"><ele>988.0</ele><time>2026-05-03T13:13:30.999Z</time></trkpt><trkpt lat="44.10230880689159" lon="7.980855672281349"><ele>988.0</ele><time>2026-05-03T13:13:31.999Z</time></trkpt><trkpt lat="44.102247865589646" lon="7.980818888179843"><ele>988.0</ele><time>2026-05-03T13:13:32.999Z</time></trkpt><trkpt lat="44.102182267857636" lon="7.980778919513508"><ele>991.7142857142858</ele><time>2026-05-03T13:13:33.999Z</time></trkpt><trkpt lat="44.10212214098524" lon="7.980727277842096"><ele>995.4285714285713</ele><time>2026-05-03T13:13:34.999Z</time></trkpt><trkpt lat="44.102072245126266" lon="7.980659794015599"><ele>999.1428571428571</ele><time>2026-05-03T13:13:35.999Z</time></trkpt><trkpt lat="44.102017594880095" lon="7.9805995850527385"><ele>1002.8571428571429</ele><time>2026-05-03T13:13:36.999Z</time></trkpt><trkpt lat="44.101956964737596" lon="7.980569215200297"><ele>1006.5714285714287</ele><time>2026-05-03T13:13:37.999Z</time></trkpt><trkpt lat="44.1018805061997" lon="7.9805469343667"><ele>1010.2857142857142</ele><time>2026-05-03T13:13:38.999Z</time></trkpt><trkpt lat="44.101808619468194" lon="7.980526454742036"><ele>1014.0</ele><time>2026-05-03T13:13:39.999Z</time></trkpt><trkpt lat="44.10174019906633" lon="7.980518477215902"><ele>1014.0</ele><time>2026-05-03T13:13:40.999Z</time></trkpt><trkpt lat="44.10167335124759" lon="7.980528712914572"><ele>1014.0</ele><time>2026-05-03T13:13:41.999Z</time></trkpt><trkpt lat="44.10159944680414" lon="7.980527981241074"><ele>1014.0</ele><time>2026-05-03T13:13:42.999Z</time></trkpt><trkpt lat="44.101508507744136" lon="7.980530179123343"><ele>1014.0</ele><time>2026-05-03T13:13:43.999Z</time></trkpt><trkpt lat="44.10143306242511" lon="7.98053478181879"><ele>1014.0</ele><time>2026-05-03T13:13:44.999Z</time></trkpt><trkpt lat="44.10135247289272" lon="7.980471900316061"><ele>1014.0</ele><time>2026-05-03T13:13:47.999Z</time></trkpt><trkpt lat="44.10130402181623" lon="7.980409596268676"><ele>1020.2</ele><time>2026-05-03T13:13:49.999Z</time></trkpt><trkpt lat="44.101184434539284" lon="7.980274903253938"><ele>1026.4</ele><time>2026-05-03T13:13:50.999Z</time></trkpt><trkpt lat="44.10112465788969" lon="7.980225538875"><ele>1032.6</ele><time>2026-05-03T13:13:51.999Z</time></trkpt><trkpt lat="44.101062960758505" lon="7.980144390698394"><ele>1038.8</ele><time>2026-05-03T13:13:53.999Z</time></trkpt><trkpt lat="44.101024286429976" lon="7.980074591602332"><ele>1045.0</ele><time>2026-05-03T13:13:55.999Z</time></trkpt><trkpt lat="44.100925066182626" lon="7.979937090409677"><ele>1045.8333333333333</ele><time>2026-05-03T13:13:57.999Z</time></trkpt><trkpt lat="44.10088015984273" lon="7.979850003575034"><ele>1046.6666666666665</ele><time>2026-05-03T13:13:58.999Z</time></trkpt><trkpt lat="44.10085561815635" lon="7.979756735277593"><ele>1047.5</ele><time>2026-05-03T13:13:59.999Z</time></trkpt><trkpt lat="44.100826920263096" lon="7.9796542734198015"><ele>1048.3333333333333</ele><time>2026-05-03T13:14:00.999Z</time></trkpt><trkpt lat="44.10078332706981" lon="7.979553849479588"><ele>1049.1666666666667</ele><time>2026-05-03T13:14:02Z</time></trkpt><trkpt lat="44.10072083905985" lon="7.979458485355857"><ele>1050.0</ele><time>2026-05-03T13:14:03Z</time></trkpt><trkpt lat="44.10066427351469" lon="7.979373730248216"><ele>1056.1666666666667</ele><time>2026-05-03T13:14:04Z</time></trkpt><trkpt lat="44.10062420640837" lon="7.979289637714251"><ele>1062.3333333333333</ele><time>2026-05-03T13:14:05Z</time></trkpt><trkpt lat="44.100614114480116" lon="7.979202193725597"><ele>1068.5</ele><time>2026-05-03T13:14:06Z</time></trkpt><trkpt lat="44.10063045078003" lon="7.979083413591301"><ele>1074.6666666666665</ele><time>2026-05-03T13:14:07Z</time></trkpt><trkpt lat="44.1006562874938" lon="7.978944942635069"><ele>1080.8333333333333</ele><time>2026-05-03T13:14:08Z</time></trkpt><trkpt lat="44.10065046149737" lon="7.978837331598178"><ele>1087.0</ele><time>2026-05-03T13:14:09Z</time></trkpt><trkpt lat="44.100636934572464" lon="7.978744975794318"><ele>1087.0</ele><time>2026-05-03T13:14:10Z</time></trkpt><trkpt lat="44.1006081400162" lon="7.978666553781641"><ele>1087.0</ele><time>2026-05-03T13:14:11Z</time></trkpt><trkpt lat="44.100550517980416" lon="7.97857510506053"><ele>1087.0</ele><time>2026-05-03T13:14:12Z</time></trkpt><trkpt lat="44.10047277582813" lon="7.978483614176424"><ele>1087.0</ele><time>2026-05-03T13:14:13Z</time></trkpt><trkpt lat="44.100377638531974" lon="7.97838891900095"><ele>1087.0</ele><time>2026-05-03T13:14:14Z</time></trkpt><trkpt lat="44.10030599753364" lon="7.978335836474665"><ele>1089.5</ele><time>2026-05-03T13:14:15Z</time></trkpt><trkpt lat="44.100228501780364" lon="7.978296551247438"><ele>1092.0</ele><time>2026-05-03T13:14:16Z</time></trkpt><trkpt lat="44.10014217437417" lon="7.9782736847560844"><ele>1094.5</ele><time>2026-05-03T13:14:17Z</time></trkpt><trkpt lat="44.10006143799341" lon="7.97825785484629"><ele>1097.0</ele><time>2026-05-03T13:14:18Z</time></trkpt><trkpt lat="44.09998599420169" lon="7.978235441103393"><ele>1099.5</ele><time>2026-05-03T13:14:19Z</time></trkpt><trkpt lat="44.09991120924532" lon="7.978181993719126"><ele>1102.0</ele><time>2026-05-03T13:14:20Z</time></trkpt><trkpt lat="44.09983196409798" lon="7.978116849090205"><ele>1102.0</ele><time>2026-05-03T13:14:21Z</time></trkpt><trkpt lat="44.09976601245466" lon="7.978029827215201"><ele>1102.0</ele><time>2026-05-03T13:14:22Z</time></trkpt><trkpt lat="44.09967576806056" lon="7.97790759715042"><ele>1102.0</ele><time>2026-05-03T13:14:24Z</time></trkpt><trkpt lat="44.099628684326994" lon="7.9778345323095"><ele>1102.0</ele><time>2026-05-03T13:14:25Z</time></trkpt><trkpt lat="44.09959090321197" lon="7.9777249958434755"><ele>1102.0</ele><time>2026-05-03T13:14:26Z</time></trkpt><trkpt lat="44.099562283994594" lon="7.97759852104681"><ele>1099.0</ele><time>2026-05-03T13:14:27Z</time></trkpt><trkpt lat="44.09953879475245" lon="7.9774564777261965"><ele>1096.0</ele><time>2026-05-03T13:14:28Z</time></trkpt><trkpt lat="44.09950428149219" lon="7.977333661316315"><ele>1093.0</ele><time>2026-05-03T13:14:29Z</time></trkpt><trkpt lat="44.09946506570957" lon="7.977250205035091"><ele>1090.0</ele><time>2026-05-03T13:14:30Z</time></trkpt><trkpt lat="44.099401632193576" lon="7.977210552597417"><ele>1087.0</ele><time>2026-05-03T13:14:32Z</time></trkpt><trkpt lat="44.09936184683473" lon="7.977341188664283"><ele>1084.0</ele><time>2026-05-03T13:14:33.999Z</time></trkpt><trkpt lat="44.09940609154312" lon="7.9774094794503005"><ele>1087.6000000000001</ele><time>2026-05-03T13:14:34.999Z</time></trkpt><trkpt lat="44.099417703067324" lon="7.9775548394432425"><ele>1091.2</ele><time>2026-05-03T13:14:36.999Z</time></trkpt><trkpt lat="44.099409506954984" lon="7.977705300089451"><ele>1094.8000000000002</ele><time>2026-05-03T13:14:38.999Z</time></trkpt><trkpt lat="44.09942349441344" lon="7.977813965800999"><ele>1098.4</ele><time>2026-05-03T13:14:40.999Z</time></trkpt><trkpt lat="44.099435481555204" lon="7.977933299180079"><ele>1102.0</ele><time>2026-05-03T13:14:41.999Z</time></trkpt><trkpt lat="44.099476952311974" lon="7.978045862925874"><ele>1102.0</ele><time>2026-05-03T13:14:42.999Z</time></trkpt><trkpt lat="44.09950888824922" lon="7.9781502682076395"><ele>1102.0</ele><time>2026-05-03T13:14:43.999Z</time></trkpt><trkpt lat="44.09959591924415" lon="7.978330296883721"><ele>1102.0</ele><time>2026-05-03T13:14:45.999Z</time></trkpt><trkpt lat="44.09965260346736" lon="7.978409772260896"><ele>1102.0</ele><time>2026-05-03T13:14:46.999Z</time></trkpt><trkpt lat="44.09970567511914" lon="7.97849606448607"><ele>1102.0</ele><time>2026-05-03T13:14:47.999Z</time></trkpt><trkpt lat="44.09976112682782" lon="7.978590764977213"><ele>1099.5</ele><time>2026-05-03T13:14:48.999Z</time></trkpt><trkpt lat="44.099841736881395" lon="7.978680612424767"><ele>1097.0</ele><time>2026-05-03T13:14:49.999Z</time></trkpt><trkpt lat="44.09991937308518" lon="7.978747376658025"><ele>1094.5</ele><time>2026-05-03T13:14:50.999Z</time></trkpt><trkpt lat="44.0999862364186" lon="7.978798029790327"><ele>1092.0</ele><time>2026-05-03T13:14:51.999Z</time></trkpt><trkpt lat="44.10003997443778" lon="7.978844250187071"><ele>1089.5</ele><time>2026-05-03T13:14:52.999Z</time></trkpt><trkpt lat="44.100093816022614" lon="7.97896819623877"><ele>1087.0</ele><time>2026-05-03T13:14:54.999Z</time></trkpt><trkpt lat="44.10011653393241" lon="7.97910805292914"><ele>1089.0</ele><time>2026-05-03T13:14:56.999Z</time></trkpt><trkpt lat="44.10010623003405" lon="7.979272804295395"><ele>1091.0</ele><time>2026-05-03T13:14:58.999Z</time></trkpt><trkpt lat="44.10006546876305" lon="7.979447644959402"><ele>1093.0</ele><time>2026-05-03T13:15:00.999Z</time></trkpt><trkpt lat="44.10004183228715" lon="7.979565021648918"><ele>1095.0</ele><time>2026-05-03T13:15:01.999Z</time></trkpt><trkpt lat="44.10001289280382" lon="7.979683551285005"><ele>1097.0</ele><time>2026-05-03T13:15:02.999Z</time></trkpt><trkpt lat="44.09997876141286" lon="7.979797180856552"><ele>1097.0</ele><time>2026-05-03T13:15:03.999Z</time></trkpt><trkpt lat="44.099938163023964" lon="7.97993894233527"><ele>1097.0</ele><time>2026-05-03T13:15:04.999Z</time></trkpt><trkpt lat="44.09991845052798" lon="7.980056767558209"><ele>1097.0</ele><time>2026-05-03T13:15:05.999Z</time></trkpt><trkpt lat="44.09991710989731" lon="7.980153862256021"><ele>1097.0</ele><time>2026-05-03T13:15:06.999Z</time></trkpt><trkpt lat="44.099925403877265" lon="7.980258698556131"><ele>1097.0</ele><time>2026-05-03T13:15:07.999Z</time></trkpt><trkpt lat="44.0999495816197" lon="7.980402856057484"><ele>1097.0</ele><time>2026-05-03T13:15:08.999Z</time></trkpt><trkpt lat="44.09996039736245" lon="7.9805207854768"><ele>1095.5</ele><time>2026-05-03T13:15:09.999Z</time></trkpt><trkpt lat="44.09994883851768" lon="7.980609967797427"><ele>1094.0</ele><time>2026-05-03T13:15:11.999Z</time></trkpt><trkpt lat="44.09988910445031" lon="7.9806910328994904"><ele>1092.5</ele><time>2026-05-03T13:15:13.999Z</time></trkpt><trkpt lat="44.099823135436566" lon="7.980748050158086"><ele>1091.0</ele><time>2026-05-03T13:15:14.999Z</time></trkpt><trkpt lat="44.09976083125043" lon="7.980824597585192"><ele>1089.5</ele><time>2026-05-03T13:15:15.999Z</time></trkpt><trkpt lat="44.09968395368597" lon="7.980918877446162"><ele>1088.0</ele><time>2026-05-03T13:15:16.999Z</time></trkpt><trkpt lat="44.099603494942755" lon="7.981011127383846"><ele>1093.0</ele><time>2026-05-03T13:15:17.999Z</time></trkpt><trkpt lat="44.09953503076632" lon="7.981081862384559"><ele>1098.0</ele><time>2026-05-03T13:15:18.999Z</time></trkpt><trkpt lat="44.09945945587221" lon="7.981142174514986"><ele>1103.0</ele><time>2026-05-03T13:15:20.999Z</time></trkpt><trkpt lat="44.099399609671956" lon="7.981186956453908"><ele>1108.0</ele><time>2026-05-03T13:15:21.999Z</time></trkpt><trkpt lat="44.09933858616945" lon="7.981334530484017"><ele>1113.0</ele><time>2026-05-03T13:15:23.999Z</time></trkpt><trkpt lat="44.09930529607753" lon="7.981410381079504"><ele>1118.0</ele><time>2026-05-03T13:15:24.999Z</time></trkpt><trkpt lat="44.09927181122659" lon="7.981513826320768"><ele>1118.0</ele><time>2026-05-03T13:15:26.999Z</time></trkpt><trkpt lat="44.099269263945814" lon="7.981627366137462"><ele>1118.0</ele><time>2026-05-03T13:15:29.999Z</time></trkpt><trkpt lat="44.09927163261803" lon="7.981768057478877"><ele>1118.0</ele><time>2026-05-03T13:16:40Z</time></trkpt><trkpt lat="44.09926021560641" lon="7.981888092248279"><ele>1118.0</ele><time>2026-05-03T13:16:42Z</time></trkpt><trkpt lat="44.09924435307722" lon="7.982032910428213"><ele>1118.0</ele><time>2026-05-03T13:16:44Z</time></trkpt><trkpt lat="44.09920497384396" lon="7.982153277115966"><ele>1114.8333333333335</ele><time>2026-05-03T13:16:46Z</time></trkpt><trkpt lat="44.099139348093544" lon="7.982230201699413"><ele>1111.6666666666667</ele><time>2026-05-03T13:16:48Z</time></trkpt><trkpt lat="44.09903908278865" lon="7.982256878583069"><ele>1108.5</ele><time>2026-05-03T13:16:50Z</time></trkpt><trkpt lat="44.098974847993226" lon="7.982239049700911"><ele>1105.3333333333333</ele><time>2026-05-03T13:16:51Z</time></trkpt><trkpt lat="44.09890489600321" lon="7.982207210628877"><ele>1102.1666666666665</ele><time>2026-05-03T13:16:52Z</time></trkpt><trkpt lat="44.09884436503066" lon="7.982156017042881"><ele>1099.0</ele><time>2026-05-03T13:16:53Z</time></trkpt><trkpt lat="44.098796318024654" lon="7.982092607413921"><ele>1098.0</ele><time>2026-05-03T13:16:54Z</time></trkpt><trkpt lat="44.098751871821875" lon="7.982027823434104"><ele>1097.0</ele><time>2026-05-03T13:16:55Z</time></trkpt><trkpt lat="44.09863060455272" lon="7.98191342981658"><ele>1096.0</ele><time>2026-05-03T13:16:57Z</time></trkpt><trkpt lat="44.098570067810826" lon="7.981846274786615"><ele>1095.0</ele><time>2026-05-03T13:16:58Z</time></trkpt><trkpt lat="44.09852513068935" lon="7.981780183185918"><ele>1094.0</ele><time>2026-05-03T13:16:59Z</time></trkpt><trkpt lat="44.098484430683435" lon="7.9817128202843355"><ele>1093.0</ele><time>2026-05-03T13:17:00Z</time></trkpt><trkpt lat="44.098448396525086" lon="7.981562272797681"><ele>1098.3333333333333</ele><time>2026-05-03T13:17:02Z</time></trkpt><trkpt lat="44.098432681209474" lon="7.981476958709696"><ele>1103.6666666666665</ele><time>2026-05-03T13:17:03Z</time></trkpt><trkpt lat="44.09842780147084" lon="7.981320150512956"><ele>1109.0</ele><time>2026-05-03T13:17:05Z</time></trkpt><trkpt lat="44.09842520884371" lon="7.981229875799947"><ele>1114.3333333333333</ele><time>2026-05-03T13:17:06Z</time></trkpt><trkpt lat="44.09841375987331" lon="7.981134092244723"><ele>1119.6666666666667</ele><time>2026-05-03T13:17:07Z</time></trkpt><trkpt lat="44.09838739198071" lon="7.981048114642161"><ele>1125.0</ele><time>2026-05-03T13:17:08Z</time></trkpt><trkpt lat="44.09835449455757" lon="7.9808870380862"><ele>1123.4</ele><time>2026-05-03T13:17:10Z</time></trkpt><trkpt lat="44.0983244881085" lon="7.980803050531599"><ele>1121.8</ele><time>2026-05-03T13:17:11Z</time></trkpt><trkpt lat="44.098245253624405" lon="7.980672514583998"><ele>1120.2</ele><time>2026-05-03T13:17:13Z</time></trkpt><trkpt lat="44.098210537129795" lon="7.9805981138035715"><ele>1118.6</ele><time>2026-05-03T13:17:14Z</time></trkpt><trkpt lat="44.09818002629071" lon="7.980469537545014"><ele>1117.0</ele><time>2026-05-03T13:17:16Z</time></trkpt><trkpt lat="44.09821055127279" lon="7.9802868072054185"><ele>1117.0</ele><time>2026-05-03T13:17:18Z</time></trkpt><trkpt lat="44.09821767656191" lon="7.980168440497628"><ele>1117.0</ele><time>2026-05-03T13:17:19Z</time></trkpt><trkpt lat="44.09823682197703" lon="7.98005791131216"><ele>1117.0</ele><time>2026-05-03T13:17:20Z</time></trkpt><trkpt lat="44.098272288079976" lon="7.979979757017809"><ele>1117.0</ele><time>2026-05-03T13:17:21Z</time></trkpt><trkpt lat="44.09832477498728" lon="7.979924361580309"><ele>1117.0</ele><time>2026-05-03T13:17:22Z</time></trkpt><trkpt lat="44.098417531008145" lon="7.979793311295109"><ele>1117.0</ele><time>2026-05-03T13:17:24Z</time></trkpt><trkpt lat="44.09845201007619" lon="7.979711530046502"><ele>1123.5</ele><time>2026-05-03T13:17:25Z</time></trkpt><trkpt lat="44.0984962029149" lon="7.979626995415632"><ele>1130.0</ele><time>2026-05-03T13:17:27Z</time></trkpt><trkpt lat="44.09850787632455" lon="7.97952183936609"><ele>1136.5</ele><time>2026-05-03T13:17:29Z</time></trkpt><trkpt lat="44.09858670983987" lon="7.979437672888044"><ele>1143.0</ele><time>2026-05-03T13:17:30Z</time></trkpt><trkpt lat="44.098578712965605" lon="7.979558645142205"><ele>1149.5</ele><time>2026-05-03T13:17:37Z</time></trkpt><trkpt lat="44.09855076872912" lon="7.979679087981553"><ele>1156.0</ele><time>2026-05-03T13:17:39Z</time></trkpt><trkpt lat="44.09853294314582" lon="7.979784540603562"><ele>1156.0</ele><time>2026-05-03T13:17:41Z</time></trkpt><trkpt lat="44.09849804189106" lon="7.9798863321977525"><ele>1156.0</ele><time>2026-05-03T13:17:43Z</time></trkpt><trkpt lat="44.098489254675556" lon="7.980001955091764"><ele>1156.0</ele><time>2026-05-03T13:17:45Z</time></trkpt><trkpt lat="44.09848594179607" lon="7.9800993776430555"><ele>1156.0</ele><time>2026-05-03T13:17:47Z</time></trkpt><trkpt lat="44.09850654209873" lon="7.980225112105356"><ele>1156.0</ele><time>2026-05-03T13:17:51Z</time></trkpt><trkpt lat="44.09856949146227" lon="7.98030827988613"><ele>1156.0</ele><time>2026-05-03T13:17:53Z</time></trkpt><trkpt lat="44.09863533610362" lon="7.980324483218111"><ele>1156.0</ele><time>2026-05-03T13:17:55Z</time></trkpt><trkpt lat="44.09871552463111" lon="7.980371304615264"><ele>1156.0</ele><time>2026-05-03T13:17:57Z</time></trkpt><trkpt lat="44.09879365576903" lon="7.980286983874417"><ele>1156.0</ele><time>2026-05-03T13:17:59Z</time></trkpt><trkpt lat="44.09880343710038" lon="7.980136552766707"><ele>1156.0</ele><time>2026-05-03T13:18:01Z</time></trkpt><trkpt lat="44.09879321061259" lon="7.980015741724291"><ele>1156.0</ele><time>2026-05-03T13:18:03Z</time></trkpt><trkpt lat="44.098773011308495" lon="7.979902081445598"><ele>1156.0</ele><time>2026-05-03T13:18:05Z</time></trkpt><trkpt lat="44.098731873001476" lon="7.979823524757129"><ele>1156.0</ele><time>2026-05-03T13:18:07Z</time></trkpt><trkpt lat="44.09865716864302" lon="7.979745448746298"><ele>1156.0</ele><time>2026-05-03T13:18:10Z</time></trkpt><trkpt lat="44.09859794143516" lon="7.979667065241738"><ele>1156.0</ele><time>2026-05-03T13:18:13Z</time></trkpt><trkpt lat="44.09854543422699" lon="7.979720135962908"><ele>1156.0</ele><time>2026-05-03T13:18:16Z</time></trkpt><trkpt lat="44.0985293376252" lon="7.979815207915981"><ele>1156.0</ele><time>2026-05-03T13:18:19Z</time></trkpt><trkpt lat="44.09856465131264" lon="7.979917243181191"><ele>1156.0</ele><time>2026-05-03T13:18:21Z</time></trkpt><trkpt lat="44.09862573952957" lon="7.979969311220882"><ele>1156.0</ele><time>2026-05-03T13:18:23Z</time></trkpt><trkpt lat="44.09867682256177" lon="7.980079442415954"><ele>1156.0</ele><time>2026-05-03T13:18:26Z</time></trkpt><trkpt lat="44.098610933697316" lon="7.980009243148817"><ele>1156.0</ele><time>2026-05-03T13:20:16Z</time></trkpt><trkpt lat="44.098549335294834" lon="7.979906985060491"><ele>1156.0</ele><time>2026-05-03T13:20:18Z</time></trkpt><trkpt lat="44.098522735428695" lon="7.9798153442721995"><ele>1156.0</ele><time>2026-05-03T13:20:20Z</time></trkpt><trkpt lat="44.098563934967515" lon="7.979702767806252"><ele>1156.0</ele><time>2026-05-03T13:20:42Z</time></trkpt><trkpt lat="44.098575985958995" lon="7.979607975100392"><ele>1156.0</ele><time>2026-05-03T13:20:44Z</time></trkpt><trkpt lat="44.09856795742006" lon="7.979480185928589"><ele>1156.0</ele><time>2026-05-03T13:20:46Z</time></trkpt><trkpt lat="44.09855351434961" lon="7.979371748034447"><ele>1156.0</ele><time>2026-05-03T13:20:48Z</time></trkpt><trkpt lat="44.09852204068513" lon="7.979295353866502"><ele>1156.0</ele><time>2026-05-03T13:20:51Z</time></trkpt><trkpt lat="44.098476973354714" lon="7.979155278065335"><ele>1156.0</ele><time>2026-05-03T13:21:08Z</time></trkpt><trkpt lat="44.098404509787684" lon="7.979067085399691"><ele>1156.0</ele><time>2026-05-03T13:21:10Z</time></trkpt><trkpt lat="44.098307887839205" lon="7.97897385560508"><ele>1156.0</ele><time>2026-05-03T13:21:12Z</time></trkpt><trkpt lat="44.09821978941104" lon="7.978869104917668"><ele>1156.0</ele><time>2026-05-03T13:21:14Z</time></trkpt><trkpt lat="44.098140164396234" lon="7.9787568349639555"><ele>1156.0</ele><time>2026-05-03T13:21:16Z</time></trkpt><trkpt lat="44.09806747414703" lon="7.978633782473656"><ele>1153.0</ele><time>2026-05-03T13:21:18Z</time></trkpt><trkpt lat="44.09802925325084" lon="7.978563720433315"><ele>1150.0</ele><time>2026-05-03T13:21:19Z</time></trkpt><trkpt lat="44.09800330221719" lon="7.978377354379925"><ele>1147.0</ele><time>2026-05-03T13:21:21Z</time></trkpt><trkpt lat="44.09797523742289" lon="7.978292605549556"><ele>1144.0</ele><time>2026-05-03T13:21:22Z</time></trkpt><trkpt lat="44.097941318369344" lon="7.97820987364353"><ele>1141.0</ele><time>2026-05-03T13:21:23Z</time></trkpt><trkpt lat="44.0978863186903" lon="7.978122035681313"><ele>1138.0</ele><time>2026-05-03T13:21:24Z</time></trkpt><trkpt lat="44.097837675859566" lon="7.978059509665045"><ele>1138.0</ele><time>2026-05-03T13:21:25Z</time></trkpt><trkpt lat="44.0977938765045" lon="7.977984186565859"><ele>1138.0</ele><time>2026-05-03T13:21:26Z</time></trkpt><trkpt lat="44.09775715668433" lon="7.977909244830383"><ele>1138.0</ele><time>2026-05-03T13:21:27Z</time></trkpt><trkpt lat="44.097666898423554" lon="7.97778006962351"><ele>1138.0</ele><time>2026-05-03T13:21:29Z</time></trkpt><trkpt lat="44.09764631967966" lon="7.977681462470457"><ele>1138.0</ele><time>2026-05-03T13:21:30Z</time></trkpt><trkpt lat="44.097618824668984" lon="7.977588665912867"><ele>1138.0</ele><time>2026-05-03T13:21:31Z</time></trkpt><trkpt lat="44.09759977641416" lon="7.977480592892989"><ele>1139.3333333333333</ele><time>2026-05-03T13:21:32Z</time></trkpt><trkpt lat="44.0975710515523" lon="7.977384392952904"><ele>1140.6666666666665</ele><time>2026-05-03T13:21:33Z</time></trkpt><trkpt lat="44.09754661477461" lon="7.9772937067660195"><ele>1142.0</ele><time>2026-05-03T13:21:34Z</time></trkpt><trkpt lat="44.09752568981768" lon="7.977185377235055"><ele>1143.3333333333333</ele><time>2026-05-03T13:21:35Z</time></trkpt><trkpt lat="44.097515933740105" lon="7.977082000365937"><ele>1144.6666666666667</ele><time>2026-05-03T13:21:36Z</time></trkpt><trkpt lat="44.09751825891499" lon="7.976968820863783"><ele>1146.0</ele><time>2026-05-03T13:21:37Z</time></trkpt><trkpt lat="44.09752053001743" lon="7.976861010057913"><ele>1146.0</ele><time>2026-05-03T13:21:38Z</time></trkpt><trkpt lat="44.09751847128723" lon="7.976741906808066"><ele>1146.0</ele><time>2026-05-03T13:21:39Z</time></trkpt><trkpt lat="44.09751622893394" lon="7.976603293982509"><ele>1146.0</ele><time>2026-05-03T13:21:40Z</time></trkpt><trkpt lat="44.097509913591026" lon="7.976477877558773"><ele>1146.0</ele><time>2026-05-03T13:21:41Z</time></trkpt><trkpt lat="44.09749829275711" lon="7.976356333564261"><ele>1146.0</ele><time>2026-05-03T13:21:42Z</time></trkpt><trkpt lat="44.097488735993096" lon="7.97621537729504"><ele>1145.5</ele><time>2026-05-03T13:21:43Z</time></trkpt><trkpt lat="44.097483393972276" lon="7.976091448015785"><ele>1145.0</ele><time>2026-05-03T13:21:44Z</time></trkpt><trkpt lat="44.097481064138165" lon="7.975985300317874"><ele>1144.5</ele><time>2026-05-03T13:21:45Z</time></trkpt><trkpt lat="44.09748769055128" lon="7.9758858011196185"><ele>1144.0</ele><time>2026-05-03T13:21:46Z</time></trkpt><trkpt lat="44.09750392476176" lon="7.975737558864276"><ele>1143.5</ele><time>2026-05-03T13:21:48Z</time></trkpt><trkpt lat="44.09753361767846" lon="7.975640493725828"><ele>1143.0</ele><time>2026-05-03T13:21:50Z</time></trkpt><trkpt lat="44.097470384859506" lon="7.975554846463678"><ele>1136.3333333333333</ele><time>2026-05-03T13:21:53Z</time></trkpt><trkpt lat="44.09741413340317" lon="7.975643513454689"><ele>1129.6666666666667</ele><time>2026-05-03T13:21:55Z</time></trkpt><trkpt lat="44.09741478013815" lon="7.975774300379021"><ele>1123.0</ele><time>2026-05-03T13:21:57Z</time></trkpt><trkpt lat="44.097367302172074" lon="7.975923905260394"><ele>1116.3333333333335</ele><time>2026-05-03T13:21:59Z</time></trkpt><trkpt lat="44.09731584302841" lon="7.976006806798266"><ele>1109.6666666666667</ele><time>2026-05-03T13:22:00Z</time></trkpt><trkpt lat="44.09727021481259" lon="7.976084481636742"><ele>1103.0</ele><time>2026-05-03T13:22:01Z</time></trkpt><trkpt lat="44.09723623916688" lon="7.976176447387063"><ele>1103.0</ele><time>2026-05-03T13:22:02Z</time></trkpt><trkpt lat="44.09721396775348" lon="7.9762707334200496"><ele>1103.0</ele><time>2026-05-03T13:22:03Z</time></trkpt><trkpt lat="44.097202804539684" lon="7.976357570284372"><ele>1103.0</ele><time>2026-05-03T13:22:04Z</time></trkpt><trkpt lat="44.097156747549484" lon="7.976518990243268"><ele>1103.0</ele><time>2026-05-03T13:22:06Z</time></trkpt><trkpt lat="44.09712732097925" lon="7.976601783395138"><ele>1103.0</ele><time>2026-05-03T13:22:07Z</time></trkpt><trkpt lat="44.09710213972482" lon="7.97668276883588"><ele>1103.0</ele><time>2026-05-03T13:22:08Z</time></trkpt><trkpt lat="44.097103539138395" lon="7.976809270295721"><ele>1103.0</ele><time>2026-05-03T13:22:10Z</time></trkpt><trkpt lat="44.097023649926854" lon="7.976859201238641"><ele>1103.0</ele><time>2026-05-03T13:22:13Z</time></trkpt><trkpt lat="44.09700467860976" lon="7.976762735462432"><ele>1103.0</ele><time>2026-05-03T13:22:15Z</time></trkpt><trkpt lat="44.09702094792005" lon="7.976675605269172"><ele>1103.0</ele><time>2026-05-03T13:22:16Z</time></trkpt><trkpt lat="44.09702039343119" lon="7.976527351527604"><ele>1103.0</ele><time>2026-05-03T13:22:18Z</time></trkpt><trkpt lat="44.09702502351768" lon="7.976375934098254"><ele>1103.0</ele><time>2026-05-03T13:22:20Z</time></trkpt><trkpt lat="44.09703437989685" lon="7.976225422673457"><ele>1103.0000000000002</ele><time>2026-05-03T13:22:22Z</time></trkpt><trkpt lat="44.09703777824435" lon="7.976117297017233"><ele>1103.0</ele><time>2026-05-03T13:22:23Z</time></trkpt><trkpt lat="44.09703519702741" lon="7.976017756819772"><ele>1103.0</ele><time>2026-05-03T13:22:24Z</time></trkpt><trkpt lat="44.09703463196351" lon="7.975925107024619"><ele>1103.0</ele><time>2026-05-03T13:22:25Z</time></trkpt><trkpt lat="44.097023157271764" lon="7.975818141787707"><ele>1103.0</ele><time>2026-05-03T13:22:26Z</time></trkpt><trkpt lat="44.097001660784024" lon="7.975721857608333"><ele>1103.0000000000002</ele><time>2026-05-03T13:22:27Z</time></trkpt><trkpt lat="44.09698533455875" lon="7.975629217316871"><ele>1103.0</ele><time>2026-05-03T13:22:28Z</time></trkpt><trkpt lat="44.096974956425505" lon="7.975541278257005"><ele>1103.0000000000002</ele><time>2026-05-03T13:22:29Z</time></trkpt><trkpt lat="44.09695671242979" lon="7.975440199961298"><ele>1103.0</ele><time>2026-05-03T13:22:30Z</time></trkpt><trkpt lat="44.096938574309696" lon="7.975332077741315"><ele>1103.0</ele><time>2026-05-03T13:22:31Z</time></trkpt><trkpt lat="44.0969185101247" lon="7.975236235617892"><ele>1103.0</ele><time>2026-05-03T13:22:32Z</time></trkpt><trkpt lat="44.09690056448891" lon="7.9751463384364465"><ele>1103.0</ele><time>2026-05-03T13:22:33Z</time></trkpt><trkpt lat="44.09689055148563" lon="7.975049182781711"><ele>1103.0000000000002</ele><time>2026-05-03T13:22:34Z</time></trkpt><trkpt lat="44.09688348711311" lon="7.974950911942101"><ele>1103.0</ele><time>2026-05-03T13:22:35Z</time></trkpt><trkpt lat="44.09688073777801" lon="7.974855033308059"><ele>1103.0</ele><time>2026-05-03T13:22:36Z</time></trkpt><trkpt lat="44.09688109830735" lon="7.974757255452247"><ele>1103.0</ele><time>2026-05-03T13:22:37Z</time></trkpt><trkpt lat="44.09686978154941" lon="7.9746570759539095"><ele>1103.0</ele><time>2026-05-03T13:22:38Z</time></trkpt><trkpt lat="44.096844547888026" lon="7.974554001119374"><ele>1103.0</ele><time>2026-05-03T13:22:39Z</time></trkpt><trkpt lat="44.09681793274469" lon="7.974450733698681"><ele>1103.0</ele><time>2026-05-03T13:22:40Z</time></trkpt><trkpt lat="44.096801544816486" lon="7.974351714272302"><ele>1103.0</ele><time>2026-05-03T13:22:41Z</time></trkpt><trkpt lat="44.09678869602402" lon="7.974244484716278"><ele>1103.1666666666667</ele><time>2026-05-03T13:22:42Z</time></trkpt><trkpt lat="44.096760675928884" lon="7.974142094274589"><ele>1103.3333333333335</ele><time>2026-05-03T13:22:43Z</time></trkpt><trkpt lat="44.09672640941112" lon="7.9740424589121135"><ele>1103.5</ele><time>2026-05-03T13:22:44Z</time></trkpt><trkpt lat="44.09669030335273" lon="7.973951779857043"><ele>1103.6666666666667</ele><time>2026-05-03T13:22:45Z</time></trkpt><trkpt lat="44.096643911126726" lon="7.973866617948444"><ele>1103.8333333333333</ele><time>2026-05-03T13:22:46Z</time></trkpt><trkpt lat="44.096602070121925" lon="7.973778979130536"><ele>1104.0</ele><time>2026-05-03T13:22:47Z</time></trkpt><trkpt lat="44.09655924070915" lon="7.973697381929739"><ele>1099.1666666666667</ele><time>2026-05-03T13:22:48Z</time></trkpt><trkpt lat="44.096548165326254" lon="7.973603728603738"><ele>1094.3333333333333</ele><time>2026-05-03T13:22:49Z</time></trkpt><trkpt lat="44.09653594534581" lon="7.973492111786174"><ele>1089.5</ele><time>2026-05-03T13:22:50Z</time></trkpt><trkpt lat="44.096569936571925" lon="7.973293207111194"><ele>1084.6666666666665</ele><time>2026-05-03T13:22:52Z</time></trkpt><trkpt lat="44.09654859060613" lon="7.973177110069597"><ele>1079.8333333333333</ele><time>2026-05-03T13:22:54Z</time></trkpt><trkpt lat="44.09653218462528" lon="7.973088806989085"><ele>1075.0</ele><time>2026-05-03T13:22:55Z</time></trkpt><trkpt lat="44.096514896969374" lon="7.972943604448089"><ele>1075.0</ele><time>2026-05-03T13:22:56Z</time></trkpt><trkpt lat="44.09650771504776" lon="7.97279259833442"><ele>1075.0</ele><time>2026-05-03T13:22:57Z</time></trkpt><trkpt lat="44.0964799641627" lon="7.97266051311687"><ele>1075.0</ele><time>2026-05-03T13:22:58Z</time></trkpt><trkpt lat="44.09646494458637" lon="7.972525854547803"><ele>1075.0</ele><time>2026-05-03T13:22:59Z</time></trkpt><trkpt lat="44.096433858672874" lon="7.972409977171945"><ele>1075.0</ele><time>2026-05-03T13:23:00Z</time></trkpt><trkpt lat="44.09641189061407" lon="7.972283719747717"><ele>1076.4</ele><time>2026-05-03T13:23:01Z</time></trkpt><trkpt lat="44.09639929071689" lon="7.972161600575364"><ele>1077.8</ele><time>2026-05-03T13:23:02Z</time></trkpt><trkpt lat="44.09639027420045" lon="7.972036569310326"><ele>1079.2</ele><time>2026-05-03T13:23:03Z</time></trkpt><trkpt lat="44.09639939614259" lon="7.971917569444044"><ele>1080.6</ele><time>2026-05-03T13:23:04Z</time></trkpt><trkpt lat="44.09638152705593" lon="7.971740819324105"><ele>1082.0</ele><time>2026-05-03T13:23:06Z</time></trkpt><trkpt lat="44.096366518940876" lon="7.971639446600686"><ele>1083.1666666666667</ele><time>2026-05-03T13:23:07Z</time></trkpt><trkpt lat="44.09633140807828" lon="7.971546295202135"><ele>1084.3333333333335</ele><time>2026-05-03T13:23:08Z</time></trkpt><trkpt lat="44.096289173720095" lon="7.97145792145291"><ele>1085.5</ele><time>2026-05-03T13:23:09Z</time></trkpt><trkpt lat="44.09624066229315" lon="7.971373540240779"><ele>1086.6666666666667</ele><time>2026-05-03T13:23:10Z</time></trkpt><trkpt lat="44.096174151735134" lon="7.971312479810015"><ele>1087.8333333333333</ele><time>2026-05-03T13:23:11Z</time></trkpt><trkpt lat="44.096098866403594" lon="7.971279276209171"><ele>1089.0</ele><time>2026-05-03T13:23:12Z</time></trkpt><trkpt lat="44.096027750656546" lon="7.971236430374119"><ele>1089.0</ele><time>2026-05-03T13:23:13Z</time></trkpt><trkpt lat="44.09596204620391" lon="7.971208501534556"><ele>1089.0</ele><time>2026-05-03T13:23:14Z</time></trkpt><trkpt lat="44.095896666745986" lon="7.9711659700232556"><ele>1089.0</ele><time>2026-05-03T13:23:15Z</time></trkpt><trkpt lat="44.09583696661896" lon="7.971096910423557"><ele>1089.0</ele><time>2026-05-03T13:23:16Z</time></trkpt><trkpt lat="44.0957951380265" lon="7.970980515597377"><ele>1089.0</ele><time>2026-05-03T13:23:17Z</time></trkpt><trkpt lat="44.095744407953056" lon="7.97086452977487"><ele>1089.0</ele><time>2026-05-03T13:23:18Z</time></trkpt><trkpt lat="44.095705711569806" lon="7.970734620481583"><ele>1086.4</ele><time>2026-05-03T13:23:19Z</time></trkpt><trkpt lat="44.09566400981631" lon="7.970655393074475"><ele>1083.8000000000002</ele><time>2026-05-03T13:23:20Z</time></trkpt><trkpt lat="44.09562770691194" lon="7.970557764438823"><ele>1081.1999999999998</ele><time>2026-05-03T13:23:21Z</time></trkpt><trkpt lat="44.09553934197651" lon="7.970417077652874"><ele>1078.6</ele><time>2026-05-03T13:23:23Z</time></trkpt><trkpt lat="44.09545781311323" lon="7.97038521438152"><ele>1076.0</ele><time>2026-05-03T13:23:24Z</time></trkpt><trkpt lat="44.09538731917336" lon="7.970319786030886"><ele>1076.0</ele><time>2026-05-03T13:23:25Z</time></trkpt><trkpt lat="44.09531787365429" lon="7.9702647436313026"><ele>1076.0</ele><time>2026-05-03T13:23:26Z</time></trkpt><trkpt lat="44.095260432628244" lon="7.970182265545005"><ele>1076.0</ele><time>2026-05-03T13:23:27Z</time></trkpt><trkpt lat="44.095195650850535" lon="7.970066083160717"><ele>1076.0</ele><time>2026-05-03T13:23:28Z</time></trkpt><trkpt lat="44.09511572203502" lon="7.96994265029753"><ele>1076.0</ele><time>2026-05-03T13:23:29Z</time></trkpt><trkpt lat="44.09504321943148" lon="7.9698212683679825"><ele>1075.8</ele><time>2026-05-03T13:23:30Z</time></trkpt><trkpt lat="44.09497159509933" lon="7.969700201140647"><ele>1075.6</ele><time>2026-05-03T13:23:31Z</time></trkpt><trkpt lat="44.09490562873877" lon="7.9695874898133505"><ele>1075.4</ele><time>2026-05-03T13:23:32Z</time></trkpt><trkpt lat="44.094824510858594" lon="7.969490950589244"><ele>1075.2</ele><time>2026-05-03T13:23:33Z</time></trkpt><trkpt lat="44.09473766735363" lon="7.969396318608297"><ele>1075.0</ele><time>2026-05-03T13:23:34Z</time></trkpt><trkpt lat="44.09467113135156" lon="7.969296594322816"><ele>1074.0</ele><time>2026-05-03T13:23:35Z</time></trkpt><trkpt lat="44.09461479522187" lon="7.969195118921134"><ele>1073.0</ele><time>2026-05-03T13:23:36Z</time></trkpt><trkpt lat="44.094561270364345" lon="7.969095619240754"><ele>1072.0</ele><time>2026-05-03T13:23:37Z</time></trkpt><trkpt lat="44.09450536085235" lon="7.969014675555752"><ele>1071.0</ele><time>2026-05-03T13:23:38Z</time></trkpt><trkpt lat="44.094432951622956" lon="7.968960899893938"><ele>1070.0</ele><time>2026-05-03T13:23:39Z</time></trkpt><trkpt lat="44.094348802230485" lon="7.96894423050977"><ele>1069.0</ele><time>2026-05-03T13:23:40Z</time></trkpt><trkpt lat="44.0942728931284" lon="7.968904863555112"><ele>1069.0</ele><time>2026-05-03T13:23:41Z</time></trkpt><trkpt lat="44.09421216669942" lon="7.96882968501229"><ele>1069.0</ele><time>2026-05-03T13:23:42Z</time></trkpt><trkpt lat="44.094142492927084" lon="7.968742764393472"><ele>1069.0</ele><time>2026-05-03T13:23:43Z</time></trkpt><trkpt lat="44.09407312212293" lon="7.968670187912758"><ele>1069.0</ele><time>2026-05-03T13:23:44Z</time></trkpt><trkpt lat="44.09400804454609" lon="7.968609907512043"><ele>1069.0</ele><time>2026-05-03T13:23:45Z</time></trkpt><trkpt lat="44.09395427710913" lon="7.968525894762109"><ele>1069.0</ele><time>2026-05-03T13:23:46Z</time></trkpt><trkpt lat="44.093914437408934" lon="7.9684164256261765"><ele>1067.0</ele><time>2026-05-03T13:23:47Z</time></trkpt><trkpt lat="44.09388175340402" lon="7.968292642575146"><ele>1065.0</ele><time>2026-05-03T13:23:48Z</time></trkpt><trkpt lat="44.09383087991308" lon="7.968187846170342"><ele>1063.0</ele><time>2026-05-03T13:23:49Z</time></trkpt><trkpt lat="44.09375679449976" lon="7.968087422096116"><ele>1061.0</ele><time>2026-05-03T13:23:50Z</time></trkpt><trkpt lat="44.09369317096066" lon="7.967991380391212"><ele>1059.0</ele><time>2026-05-03T13:23:51Z</time></trkpt><trkpt lat="44.09366022054968" lon="7.967883613597931"><ele>1059.0</ele><time>2026-05-03T13:23:52Z</time></trkpt><trkpt lat="44.0936263174434" lon="7.967743910867118"><ele>1059.0</ele><time>2026-05-03T13:23:53Z</time></trkpt><trkpt lat="44.09358460832443" lon="7.967606767984878"><ele>1059.0</ele><time>2026-05-03T13:23:54Z</time></trkpt><trkpt lat="44.09353206626474" lon="7.967464670408838"><ele>1059.0</ele><time>2026-05-03T13:23:55Z</time></trkpt><trkpt lat="44.09346813555024" lon="7.967303188581979"><ele>1057.75</ele><time>2026-05-03T13:23:56Z</time></trkpt><trkpt lat="44.09341255007793" lon="7.967168296859184"><ele>1056.5</ele><time>2026-05-03T13:23:57Z</time></trkpt><trkpt lat="44.0933496168467" lon="7.967038712358101"><ele>1055.25</ele><time>2026-05-03T13:23:58Z</time></trkpt><trkpt lat="44.09326237253492" lon="7.9668924736643865"><ele>1054.0</ele><time>2026-05-03T13:23:59Z</time></trkpt><trkpt lat="44.09316489518719" lon="7.966725625007077"><ele>1056.75</ele><time>2026-05-03T13:24:00Z</time></trkpt><trkpt lat="44.09308385636049" lon="7.966599018788952"><ele>1059.5</ele><time>2026-05-03T13:24:01Z</time></trkpt><trkpt lat="44.09300656262464" lon="7.966467603701586"><ele>1062.25</ele><time>2026-05-03T13:24:02Z</time></trkpt><trkpt lat="44.092915355307" lon="7.966365655689234"><ele>1065.0</ele><time>2026-05-03T13:24:03Z</time></trkpt><trkpt lat="44.09280986504872" lon="7.966237609930745"><ele>1065.0</ele><time>2026-05-03T13:24:04Z</time></trkpt><trkpt lat="44.09272984148884" lon="7.966106944520085"><ele>1065.0</ele><time>2026-05-03T13:24:05Z</time></trkpt><trkpt lat="44.09267097516783" lon="7.965976687784448"><ele>1065.0</ele><time>2026-05-03T13:24:06Z</time></trkpt><trkpt lat="44.09261144509804" lon="7.965839409805826"><ele>1065.0</ele><time>2026-05-03T13:24:07Z</time></trkpt><trkpt lat="44.09254933314473" lon="7.965704952847412"><ele>1065.5</ele><time>2026-05-03T13:24:08Z</time></trkpt><trkpt lat="44.092464611574975" lon="7.965575450306125"><ele>1066.0</ele><time>2026-05-03T13:24:09Z</time></trkpt><trkpt lat="44.092361067451805" lon="7.965448540445647"><ele>1066.5</ele><time>2026-05-03T13:24:10Z</time></trkpt><trkpt lat="44.09227706241404" lon="7.965332403284773"><ele>1067.0</ele><time>2026-05-03T13:24:11Z</time></trkpt><trkpt lat="44.09221790367709" lon="7.965214116944247"><ele>1065.5</ele><time>2026-05-03T13:24:12Z</time></trkpt><trkpt lat="44.092167390499675" lon="7.965083846295573"><ele>1064.0</ele><time>2026-05-03T13:24:13Z</time></trkpt><trkpt lat="44.09212350814101" lon="7.964932864339002"><ele>1062.5</ele><time>2026-05-03T13:24:14Z</time></trkpt><trkpt lat="44.09206128405896" lon="7.964765511021599"><ele>1061.0</ele><time>2026-05-03T13:24:15Z</time></trkpt><trkpt lat="44.092005596965166" lon="7.9645823225383126"><ele>1061.0</ele><time>2026-05-03T13:24:16Z</time></trkpt><trkpt lat="44.091964351706984" lon="7.964451736894627"><ele>1061.0</ele><time>2026-05-03T13:24:17Z</time></trkpt><trkpt lat="44.091936979489084" lon="7.964372248945655"><ele>1061.0</ele><time>2026-05-03T13:24:18Z</time></trkpt><trkpt lat="44.09190285305564" lon="7.964294714808384"><ele>1061.0</ele><time>2026-05-03T13:24:20Z</time></trkpt><trkpt lat="44.091835273144476" lon="7.964200311568719"><ele>1061.0</ele><time>2026-05-03T13:24:27Z</time></trkpt><trkpt lat="44.09179776203494" lon="7.9641229405465035"><ele>1061.0</ele><time>2026-05-03T13:24:28Z</time></trkpt><trkpt lat="44.09172502655347" lon="7.963988302046352"><ele>1061.3333333333335</ele><time>2026-05-03T13:24:30Z</time></trkpt><trkpt lat="44.09167931753014" lon="7.963905906616148"><ele>1061.6666666666667</ele><time>2026-05-03T13:24:31Z</time></trkpt><trkpt lat="44.091621495598986" lon="7.963808565282341"><ele>1062.0</ele><time>2026-05-03T13:24:32Z</time></trkpt><trkpt lat="44.09154749969204" lon="7.963728882973296"><ele>1062.3333333333333</ele><time>2026-05-03T13:24:33Z</time></trkpt><trkpt lat="44.09150104425057" lon="7.963660980086802"><ele>1062.6666666666665</ele><time>2026-05-03T13:24:34Z</time></trkpt><trkpt lat="44.091470101077384" lon="7.963565159916461"><ele>1063.0</ele><time>2026-05-03T13:24:35Z</time></trkpt><trkpt lat="44.091460915579866" lon="7.963451098948246"><ele>1066.8333333333333</ele><time>2026-05-03T13:24:36Z</time></trkpt><trkpt lat="44.09145945221999" lon="7.963347115474679"><ele>1070.6666666666665</ele><time>2026-05-03T13:24:37Z</time></trkpt><trkpt lat="44.091422310702114" lon="7.963182675732426"><ele>1074.5</ele><time>2026-05-03T13:24:39Z</time></trkpt><trkpt lat="44.091373584256374" lon="7.963082551049321"><ele>1078.3333333333333</ele><time>2026-05-03T13:24:40Z</time></trkpt><trkpt lat="44.09134997840774" lon="7.9629664783942635"><ele>1082.1666666666667</ele><time>2026-05-03T13:24:41Z</time></trkpt><trkpt lat="44.091335922512755" lon="7.962871338996845"><ele>1086.0</ele><time>2026-05-03T13:24:42Z</time></trkpt><trkpt lat="44.09131129722399" lon="7.962771103373568"><ele>1086.0</ele><time>2026-05-03T13:24:43Z</time></trkpt><trkpt lat="44.091252806018545" lon="7.962661354770723"><ele>1086.0</ele><time>2026-05-03T13:24:44Z</time></trkpt><trkpt lat="44.09122201143523" lon="7.96255395564984"><ele>1086.0</ele><time>2026-05-03T13:24:45Z</time></trkpt><trkpt lat="44.09116961781691" lon="7.962458493042108"><ele>1086.0</ele><time>2026-05-03T13:24:46Z</time></trkpt><trkpt lat="44.09113504476853" lon="7.962330565041202"><ele>1086.0</ele><time>2026-05-03T13:24:47Z</time></trkpt><trkpt lat="44.09110597677083" lon="7.962206583025092"><ele>1088.2</ele><time>2026-05-03T13:24:48Z</time></trkpt><trkpt lat="44.091072818521276" lon="7.962050548906314"><ele>1090.3999999999999</ele><time>2026-05-03T13:24:49Z</time></trkpt><trkpt lat="44.09104988547453" lon="7.961910173353214"><ele>1092.6</ele><time>2026-05-03T13:24:50Z</time></trkpt><trkpt lat="44.09103387881152" lon="7.96176896195605"><ele>1094.8</ele><time>2026-05-03T13:24:51Z</time></trkpt><trkpt lat="44.091028345501115" lon="7.961628992683689"><ele>1097.0</ele><time>2026-05-03T13:24:52Z</time></trkpt><trkpt lat="44.09102906112054" lon="7.961504678827076"><ele>1099.6</ele><time>2026-05-03T13:24:53Z</time></trkpt><trkpt lat="44.09104423269197" lon="7.961359619974032"><ele>1102.2</ele><time>2026-05-03T13:24:54Z</time></trkpt><trkpt lat="44.09107223886228" lon="7.961227099635843"><ele>1104.8</ele><time>2026-05-03T13:24:55Z</time></trkpt><trkpt lat="44.091103734834874" lon="7.961102656672275"><ele>1107.4</ele><time>2026-05-03T13:24:56Z</time></trkpt><trkpt lat="44.091129604492146" lon="7.960977726585403"><ele>1110.0</ele><time>2026-05-03T13:24:57Z</time></trkpt><trkpt lat="44.09112074506027" lon="7.960871488766877"><ele>1111.8</ele><time>2026-05-03T13:24:58Z</time></trkpt><trkpt lat="44.091089311125806" lon="7.960733304181143"><ele>1113.6</ele><time>2026-05-03T13:24:59Z</time></trkpt><trkpt lat="44.09105343371137" lon="7.960580293633835"><ele>1115.4</ele><time>2026-05-03T13:25:00Z</time></trkpt><trkpt lat="44.091029274857796" lon="7.960425738629029"><ele>1117.2</ele><time>2026-05-03T13:25:01Z</time></trkpt><trkpt lat="44.09102390342517" lon="7.960265456282526"><ele>1119.0</ele><time>2026-05-03T13:25:02Z</time></trkpt><trkpt lat="44.091003663314666" lon="7.960120463251672"><ele>1120.25</ele><time>2026-05-03T13:25:03Z</time></trkpt><trkpt lat="44.090991535296205" lon="7.959966391586502"><ele>1121.5</ele><time>2026-05-03T13:25:04Z</time></trkpt><trkpt lat="44.09097150221945" lon="7.959778827412821"><ele>1122.75</ele><time>2026-05-03T13:25:05Z</time></trkpt><trkpt lat="44.09098097444266" lon="7.959591624468439"><ele>1124.0</ele><time>2026-05-03T13:25:06Z</time></trkpt><trkpt lat="44.09099710185139" lon="7.959441849201697"><ele>1124.0</ele><time>2026-05-03T13:25:07Z</time></trkpt><trkpt lat="44.09100029683414" lon="7.95928000062464"><ele>1124.0</ele><time>2026-05-03T13:25:08Z</time></trkpt><trkpt lat="44.09099419682767" lon="7.959119615354516"><ele>1124.0</ele><time>2026-05-03T13:25:09Z</time></trkpt><trkpt lat="44.09100650227795" lon="7.958960924446128"><ele>1124.0</ele><time>2026-05-03T13:25:10Z</time></trkpt><trkpt lat="44.091005321250115" lon="7.95880294821964"><ele>1124.8</ele><time>2026-05-03T13:25:11Z</time></trkpt><trkpt lat="44.091029883021776" lon="7.958652129269286"><ele>1125.6000000000001</ele><time>2026-05-03T13:25:12Z</time></trkpt><trkpt lat="44.091065817122896" lon="7.958522680507038"><ele>1126.4</ele><time>2026-05-03T13:25:13Z</time></trkpt><trkpt lat="44.09111126573073" lon="7.9584023872232414"><ele>1127.2</ele><time>2026-05-03T13:25:14Z</time></trkpt><trkpt lat="44.0911823258227" lon="7.958299633218274"><ele>1128.0</ele><time>2026-05-03T13:25:15Z</time></trkpt><trkpt lat="44.091255690188035" lon="7.958211674663651"><ele>1130.0</ele><time>2026-05-03T13:25:16Z</time></trkpt><trkpt lat="44.09131910116447" lon="7.958097223234582"><ele>1132.0</ele><time>2026-05-03T13:25:17Z</time></trkpt><trkpt lat="44.09138747674422" lon="7.95798327307541"><ele>1134.0</ele><time>2026-05-03T13:25:18Z</time></trkpt><trkpt lat="44.091474491083524" lon="7.957859049081605"><ele>1136.0</ele><time>2026-05-03T13:25:19Z</time></trkpt><trkpt lat="44.09154383555457" lon="7.957746069745752"><ele>1138.0</ele><time>2026-05-03T13:25:20Z</time></trkpt><trkpt lat="44.09159827149555" lon="7.957607015448218"><ele>1138.4</ele><time>2026-05-03T13:25:21Z</time></trkpt><trkpt lat="44.091668713025854" lon="7.957465115815342"><ele>1138.8</ele><time>2026-05-03T13:25:22Z</time></trkpt><trkpt lat="44.09173303165369" lon="7.957343359416547"><ele>1139.2</ele><time>2026-05-03T13:25:23Z</time></trkpt><trkpt lat="44.09180816119445" lon="7.957253233982226"><ele>1139.6</ele><time>2026-05-03T13:25:24Z</time></trkpt><trkpt lat="44.091891205533436" lon="7.957176657747962"><ele>1140.0</ele><time>2026-05-03T13:25:25Z</time></trkpt><trkpt lat="44.09196297762234" lon="7.9571284960382265"><ele>1140.0</ele><time>2026-05-03T13:25:26Z</time></trkpt><trkpt lat="44.09204829808724" lon="7.957077817805897"><ele>1140.0</ele><time>2026-05-03T13:25:27Z</time></trkpt><trkpt lat="44.09213878705604" lon="7.957009937403148"><ele>1140.0</ele><time>2026-05-03T13:25:28Z</time></trkpt><trkpt lat="44.0922274215871" lon="7.956923578687092"><ele>1140.0</ele><time>2026-05-03T13:25:29Z</time></trkpt><trkpt lat="44.09226928696289" lon="7.956826051411324"><ele>1140.0</ele><time>2026-05-03T13:25:30Z</time></trkpt><trkpt lat="44.092300818366404" lon="7.956727704130108"><ele>1141.6666666666667</ele><time>2026-05-03T13:25:31Z</time></trkpt><trkpt lat="44.092330217568275" lon="7.956630015680171"><ele>1143.3333333333333</ele><time>2026-05-03T13:25:32Z</time></trkpt><trkpt lat="44.09233711544161" lon="7.9565169302582115"><ele>1145.0</ele><time>2026-05-03T13:25:33Z</time></trkpt><trkpt lat="44.09234013107188" lon="7.956386897523105"><ele>1146.6666666666665</ele><time>2026-05-03T13:25:34Z</time></trkpt><trkpt lat="44.09234609613045" lon="7.956266635472228"><ele>1148.3333333333333</ele><time>2026-05-03T13:25:35Z</time></trkpt><trkpt lat="44.09235045294563" lon="7.956146117668988"><ele>1150.0</ele><time>2026-05-03T13:25:36Z</time></trkpt><trkpt lat="44.09235253848725" lon="7.956024309080329"><ele>1150.0</ele><time>2026-05-03T13:25:37Z</time></trkpt><trkpt lat="44.0923362934804" lon="7.955904127773345"><ele>1150.0</ele><time>2026-05-03T13:25:38Z</time></trkpt><trkpt lat="44.09232534071323" lon="7.955783654137216"><ele>1150.0</ele><time>2026-05-03T13:25:39Z</time></trkpt><trkpt lat="44.09230699861391" lon="7.955645150846781"><ele>1150.0</ele><time>2026-05-03T13:25:40Z</time></trkpt><trkpt lat="44.092263372005355" lon="7.955532397138091"><ele>1150.0</ele><time>2026-05-03T13:25:41Z</time></trkpt><trkpt lat="44.09221702551257" lon="7.9554608431256355"><ele>1150.0</ele><time>2026-05-03T13:25:42Z</time></trkpt><trkpt lat="44.09220393611783" lon="7.955368669876673"><ele>1149.6666666666665</ele><time>2026-05-03T13:25:43Z</time></trkpt><trkpt lat="44.09221344519335" lon="7.955267581711133"><ele>1149.3333333333333</ele><time>2026-05-03T13:25:44Z</time></trkpt><trkpt lat="44.09222359993274" lon="7.9551638594362455"><ele>1149.0</ele><time>2026-05-03T13:25:45Z</time></trkpt><trkpt lat="44.09222581118342" lon="7.955006131111716"><ele>1148.6666666666667</ele><time>2026-05-03T13:25:47Z</time></trkpt><trkpt lat="44.0922088632905" lon="7.954910055304908"><ele>1148.3333333333335</ele><time>2026-05-03T13:25:48Z</time></trkpt><trkpt lat="44.09219162178632" lon="7.954782414374317"><ele>1148.0</ele><time>2026-05-03T13:25:50Z</time></trkpt><trkpt lat="44.09217665132939" lon="7.954692408156109"><ele>1148.0</ele><time>2026-05-03T13:25:53Z</time></trkpt><trkpt lat="44.092173276066745" lon="7.954562395579477"><ele>1148.0</ele><time>2026-05-03T13:25:55Z</time></trkpt><trkpt lat="44.09217376878685" lon="7.954387771179203"><ele>1148.0</ele><time>2026-05-03T13:25:57Z</time></trkpt><trkpt lat="44.092189856239806" lon="7.954286729123255"><ele>1148.0</ele><time>2026-05-03T13:25:58Z</time></trkpt><trkpt lat="44.09218793051516" lon="7.954175885338711"><ele>1148.0</ele><time>2026-05-03T13:25:59Z</time></trkpt><trkpt lat="44.0921104664089" lon="7.954042377669021"><ele>1148.0</ele><time>2026-05-03T13:26:01Z</time></trkpt><trkpt lat="44.09203793716503" lon="7.9539693246345635"><ele>1148.0</ele><time>2026-05-03T13:26:02Z</time></trkpt><trkpt lat="44.09194079061763" lon="7.953882399618635"><ele>1148.0</ele><time>2026-05-03T13:26:04Z</time></trkpt><trkpt lat="44.09190096121005" lon="7.953746087893246"><ele>1148.0</ele><time>2026-05-03T13:26:06Z</time></trkpt><trkpt lat="44.091914209945365" lon="7.953570131686214"><ele>1148.0</ele><time>2026-05-03T13:26:08Z</time></trkpt><trkpt lat="44.091965040646635" lon="7.953399215902084"><ele>1149.1666666666667</ele><time>2026-05-03T13:26:10Z</time></trkpt><trkpt lat="44.09199106762389" lon="7.953314584947108"><ele>1150.3333333333335</ele><time>2026-05-03T13:26:11Z</time></trkpt><trkpt lat="44.0920318174457" lon="7.953179802693188"><ele>1151.5</ele><time>2026-05-03T13:26:13Z</time></trkpt><trkpt lat="44.0920520647189" lon="7.953072313234833"><ele>1152.6666666666667</ele><time>2026-05-03T13:26:16Z</time></trkpt><trkpt lat="44.09201714014334" lon="7.953148456405322"><ele>1153.8333333333333</ele><time>2026-05-03T13:28:50Z</time></trkpt><trkpt lat="44.09204839207391" lon="7.953023751774993"><ele>1155.0</ele><time>2026-05-03T13:34:43.999Z</time></trkpt><trkpt lat="44.09202874228149" lon="7.952939241961964"><ele>1155.0</ele><time>2026-05-03T13:34:45.999Z</time></trkpt><trkpt lat="44.09201036938957" lon="7.952812887217075"><ele>1155.0</ele><time>2026-05-03T13:34:48.999Z</time></trkpt><trkpt lat="44.09202578202318" lon="7.952687883812391"><ele>1155.0</ele><time>2026-05-03T13:34:50.999Z</time></trkpt><trkpt lat="44.09205729341563" lon="7.9525345630726445"><ele>1155.0</ele><time>2026-05-03T13:34:52.999Z</time></trkpt><trkpt lat="44.09211457843157" lon="7.952394062377217"><ele>1155.0</ele><time>2026-05-03T13:34:54.999Z</time></trkpt><trkpt lat="44.09215921126509" lon="7.952319205240931"><ele>1155.0</ele><time>2026-05-03T13:34:55.999Z</time></trkpt><trkpt lat="44.0921928884832" lon="7.9522421931760165"><ele>1155.0</ele><time>2026-05-03T13:34:56.999Z</time></trkpt><trkpt lat="44.09223733774628" lon="7.952168885551087"><ele>1155.0</ele><time>2026-05-03T13:34:57.999Z</time></trkpt><trkpt lat="44.092278127699934" lon="7.9520939206881245"><ele>1155.0</ele><time>2026-05-03T13:34:58.999Z</time></trkpt><trkpt lat="44.09232341049965" lon="7.952018298937112"><ele>1155.0</ele><time>2026-05-03T13:34:59.999Z</time></trkpt><trkpt lat="44.09237916601799" lon="7.951941161814121"><ele>1155.0</ele><time>2026-05-03T13:35:00.999Z</time></trkpt><trkpt lat="44.09242773185892" lon="7.951865272767199"><ele>1155.0</ele><time>2026-05-03T13:35:02Z</time></trkpt><trkpt lat="44.09246829128666" lon="7.951789082051541"><ele>1158.0</ele><time>2026-05-03T13:35:03Z</time></trkpt><trkpt lat="44.09248464988116" lon="7.951704075899863"><ele>1161.0</ele><time>2026-05-03T13:35:04Z</time></trkpt><trkpt lat="44.09251980261852" lon="7.95162141180076"><ele>1164.0</ele><time>2026-05-03T13:35:05Z</time></trkpt><trkpt lat="44.092564964134574" lon="7.951527378444938"><ele>1167.0</ele><time>2026-05-03T13:35:06Z</time></trkpt><trkpt lat="44.092612849779684" lon="7.951430989008115"><ele>1170.0</ele><time>2026-05-03T13:35:07Z</time></trkpt><trkpt lat="44.092653857171236" lon="7.951337553382332"><ele>1173.0</ele><time>2026-05-03T13:35:08Z</time></trkpt><trkpt lat="44.092675078772096" lon="7.951243573391881"><ele>1176.0</ele><time>2026-05-03T13:35:09Z</time></trkpt><trkpt lat="44.09270340841819" lon="7.951147873757143"><ele>1176.0</ele><time>2026-05-03T13:35:10Z</time></trkpt><trkpt lat="44.09271543953522" lon="7.951043598577381"><ele>1176.0</ele><time>2026-05-03T13:35:11Z</time></trkpt><trkpt lat="44.09271897941016" lon="7.9509321086795"><ele>1176.0</ele><time>2026-05-03T13:35:12Z</time></trkpt><trkpt lat="44.092725859421066" lon="7.950832598891281"><ele>1176.0</ele><time>2026-05-03T13:35:13Z</time></trkpt><trkpt lat="44.09271443348999" lon="7.9507265569180925"><ele>1176.0</ele><time>2026-05-03T13:35:14Z</time></trkpt><trkpt lat="44.09270536537668" lon="7.950610639108267"><ele>1176.0</ele><time>2026-05-03T13:35:15Z</time></trkpt><trkpt lat="44.09269255971189" lon="7.95051456954054"><ele>1176.2</ele><time>2026-05-03T13:35:16Z</time></trkpt><trkpt lat="44.09268918646987" lon="7.950374182084018"><ele>1176.3999999999999</ele><time>2026-05-03T13:35:18Z</time></trkpt><trkpt lat="44.0927113005389" lon="7.950242091506922"><ele>1176.6</ele><time>2026-05-03T13:35:20Z</time></trkpt><trkpt lat="44.09272142150504" lon="7.950115327424256"><ele>1176.8</ele><time>2026-05-03T13:35:22Z</time></trkpt><trkpt lat="44.09265078303345" lon="7.950052768513758"><ele>1177.0</ele><time>2026-05-03T13:35:24Z</time></trkpt><trkpt lat="44.09255993471874" lon="7.9499735714309905"><ele>1176.1666666666665</ele><time>2026-05-03T13:35:26Z</time></trkpt><trkpt lat="44.09251594316652" lon="7.949883761500438"><ele>1175.3333333333333</ele><time>2026-05-03T13:35:28Z</time></trkpt><trkpt lat="44.09251079540383" lon="7.949744879989541"><ele>1174.5</ele><time>2026-05-03T13:35:30Z</time></trkpt><trkpt lat="44.092525287295786" lon="7.949610305721273"><ele>1173.6666666666667</ele><time>2026-05-03T13:35:32Z</time></trkpt><trkpt lat="44.09248164853767" lon="7.949518253370644"><ele>1172.8333333333335</ele><time>2026-05-03T13:35:34Z</time></trkpt><trkpt lat="44.09239986105119" lon="7.949527744312909"><ele>1172.0</ele><time>2026-05-03T13:35:37Z</time></trkpt><trkpt lat="44.09231420001811" lon="7.949602751399018"><ele>1171.9999999999998</ele><time>2026-05-03T13:35:39Z</time></trkpt><trkpt lat="44.09225758608586" lon="7.949675847556209"><ele>1172.0</ele><time>2026-05-03T13:35:42Z</time></trkpt><trkpt lat="44.09217689056507" lon="7.9496651355740795"><ele>1172.0</ele><time>2026-05-03T13:35:44Z</time></trkpt><trkpt lat="44.092106567584466" lon="7.949641926378315"><ele>1172.0</ele><time>2026-05-03T13:35:46Z</time></trkpt><trkpt lat="44.09203751029721" lon="7.949626104071789"><ele>1172.0</ele><time>2026-05-03T13:35:49Z</time></trkpt><trkpt lat="44.09199318088631" lon="7.949548848235476"><ele>1171.9999999999998</ele><time>2026-05-03T13:35:52Z</time></trkpt><trkpt lat="44.09194750007954" lon="7.949484443358658"><ele>1172.0</ele><time>2026-05-03T13:35:55Z</time></trkpt><trkpt lat="44.09190183430329" lon="7.949555985840207"><ele>1172.0</ele><time>2026-05-03T13:35:59Z</time></trkpt><trkpt lat="44.0919314756017" lon="7.949649236454137"><ele>1172.0</ele><time>2026-05-03T13:36:02Z</time></trkpt><trkpt lat="44.09196574598771" lon="7.949749238153909"><ele>1172.0</ele><time>2026-05-03T13:36:05Z</time></trkpt><trkpt lat="44.091960193006244" lon="7.949854540837521"><ele>1172.0</ele><time>2026-05-03T13:36:10Z</time></trkpt><trkpt lat="44.09188244934593" lon="7.949919906685471"><ele>1172.0</ele><time>2026-05-03T13:36:13Z</time></trkpt><trkpt lat="44.091816437671525" lon="7.949888505934818"><ele>1172.0</ele><time>2026-05-03T13:36:18Z</time></trkpt><trkpt lat="44.09174904487781" lon="7.94984133862356"><ele>1172.0</ele><time>2026-05-03T13:36:20Z</time></trkpt><trkpt lat="44.091693698136766" lon="7.949797594504826"><ele>1172.0</ele><time>2026-05-03T13:36:22Z</time></trkpt><trkpt lat="44.09163597983977" lon="7.949746457989606"><ele>1172.0</ele><time>2026-05-03T13:36:24Z</time></trkpt><trkpt lat="44.09157809349404" lon="7.949667315411602"><ele>1172.0</ele><time>2026-05-03T13:36:27Z</time></trkpt><trkpt lat="44.09152248668511" lon="7.949552977641428"><ele>1172.0</ele><time>2026-05-03T13:36:29Z</time></trkpt><trkpt lat="44.091488124653985" lon="7.949443207993326"><ele>1172.0</ele><time>2026-05-03T13:36:31Z</time></trkpt><trkpt lat="44.091443139806124" lon="7.949356353856591"><ele>1169.5</ele><time>2026-05-03T13:36:33Z</time></trkpt><trkpt lat="44.09139743269495" lon="7.949247730853165"><ele>1167.0</ele><time>2026-05-03T13:36:35Z</time></trkpt><trkpt lat="44.09136787991614" lon="7.949164821699526"><ele>1164.5</ele><time>2026-05-03T13:36:36.999Z</time></trkpt><trkpt lat="44.091319968375984" lon="7.94906328584998"><ele>1162.0</ele><time>2026-05-03T13:36:38.999Z</time></trkpt><trkpt lat="44.091283359607516" lon="7.948940841574407"><ele>1159.5</ele><time>2026-05-03T13:36:41.999Z</time></trkpt><trkpt lat="44.0912507363726" lon="7.9487971631538725"><ele>1157.0</ele><time>2026-05-03T13:36:43.999Z</time></trkpt><trkpt lat="44.09123171061198" lon="7.94870993550775"><ele>1156.6</ele><time>2026-05-03T13:36:44.999Z</time></trkpt><trkpt lat="44.091197970947654" lon="7.948579752579738"><ele>1156.2</ele><time>2026-05-03T13:36:46.999Z</time></trkpt><trkpt lat="44.09112269449373" lon="7.948393545823321"><ele>1155.8</ele><time>2026-05-03T13:36:48.999Z</time></trkpt><trkpt lat="44.09105473679251" lon="7.948283352239688"><ele>1155.4</ele><time>2026-05-03T13:36:50.999Z</time></trkpt><trkpt lat="44.09102364425458" lon="7.948204030398838"><ele>1155.0</ele><time>2026-05-03T13:36:52.999Z</time></trkpt><trkpt lat="44.09097519833627" lon="7.94813650539909"><ele>1155.0</ele><time>2026-05-03T13:36:58.999Z</time></trkpt><trkpt lat="44.09087630972689" lon="7.948138949328716"><ele>1155.0</ele><time>2026-05-03T13:37:11Z</time></trkpt><trkpt lat="44.09081126580501" lon="7.948197387265149"><ele>1155.0</ele><time>2026-05-03T13:37:13Z</time></trkpt><trkpt lat="44.09079145270172" lon="7.94830825239906"><ele>1155.0</ele><time>2026-05-03T13:37:15Z</time></trkpt><trkpt lat="44.090757981056214" lon="7.948439866329067"><ele>1155.0</ele><time>2026-05-03T13:37:17Z</time></trkpt><trkpt lat="44.09072045460971" lon="7.948579137956172"><ele>1149.8</ele><time>2026-05-03T13:37:19Z</time></trkpt><trkpt lat="44.090655093713146" lon="7.9486638028497785"><ele>1144.6</ele><time>2026-05-03T13:37:21Z</time></trkpt><trkpt lat="44.0905959573417" lon="7.9487440525382125"><ele>1139.4</ele><time>2026-05-03T13:37:23Z</time></trkpt><trkpt lat="44.090588531040886" lon="7.948912433600471"><ele>1134.2</ele><time>2026-05-03T13:37:25Z</time></trkpt><trkpt lat="44.09058627103329" lon="7.949058758590037"><ele>1129.0</ele><time>2026-05-03T13:37:27Z</time></trkpt><trkpt lat="44.09058596560761" lon="7.949178108933893"><ele>1128.4</ele><time>2026-05-03T13:37:29Z</time></trkpt><trkpt lat="44.09061190416485" lon="7.94928117918373"><ele>1127.8000000000002</ele><time>2026-05-03T13:37:31Z</time></trkpt><trkpt lat="44.09056490501546" lon="7.949407599981038"><ele>1127.1999999999998</ele><time>2026-05-03T13:37:33Z</time></trkpt><trkpt lat="44.09046776163122" lon="7.949488676029639"><ele>1126.6</ele><time>2026-05-03T13:37:35Z</time></trkpt><trkpt lat="44.09039706253285" lon="7.949609200484367"><ele>1126.0</ele><time>2026-05-03T13:37:37Z</time></trkpt><trkpt lat="44.09035849132723" lon="7.949697158631173"><ele>1126.0</ele><time>2026-05-03T13:37:38Z</time></trkpt><trkpt lat="44.090305315537854" lon="7.9497710111345565"><ele>1126.0</ele><time>2026-05-03T13:37:39Z</time></trkpt><trkpt lat="44.090265826208665" lon="7.949893592970322"><ele>1126.0</ele><time>2026-05-03T13:37:41Z</time></trkpt><trkpt lat="44.09025395006747" lon="7.94998795302445"><ele>1126.0</ele><time>2026-05-03T13:37:42Z</time></trkpt><trkpt lat="44.09022837587565" lon="7.950152488930007"><ele>1126.0</ele><time>2026-05-03T13:37:44Z</time></trkpt><trkpt lat="44.090226707690555" lon="7.950251510681943"><ele>1126.0</ele><time>2026-05-03T13:37:45Z</time></trkpt><trkpt lat="44.09023466512823" lon="7.950417570210152"><ele>1125.2</ele><time>2026-05-03T13:37:47Z</time></trkpt><trkpt lat="44.09022635497804" lon="7.950577555432394"><ele>1124.3999999999999</ele><time>2026-05-03T13:37:49Z</time></trkpt><trkpt lat="44.09020676005569" lon="7.950671138157652"><ele>1123.6</ele><time>2026-05-03T13:37:50Z</time></trkpt><trkpt lat="44.0901987710562" lon="7.950805151088255"><ele>1122.8</ele><time>2026-05-03T13:37:52Z</time></trkpt><trkpt lat="44.090185314228" lon="7.950933660145631"><ele>1122.0</ele><time>2026-05-03T13:37:54Z</time></trkpt><trkpt lat="44.09017835694107" lon="7.95107279812182"><ele>1121.2</ele><time>2026-05-03T13:37:57Z</time></trkpt><trkpt lat="44.09019289282289" lon="7.9512185323501825"><ele>1120.4</ele><time>2026-05-03T13:37:59Z</time></trkpt><trkpt lat="44.09021501335248" lon="7.9513502191303065"><ele>1119.6</ele><time>2026-05-03T13:38:01Z</time></trkpt><trkpt lat="44.090257313094675" lon="7.951421051494138"><ele>1118.8</ele><time>2026-05-03T13:38:03Z</time></trkpt><trkpt lat="44.09030816770674" lon="7.951500750696521"><ele>1118.0</ele><time>2026-05-03T13:38:07Z</time></trkpt><trkpt lat="44.09029645651317" lon="7.9516550258726335"><ele>1116.6666666666667</ele><time>2026-05-03T13:38:10Z</time></trkpt><trkpt lat="44.09034749383207" lon="7.95177482158538"><ele>1115.3333333333335</ele><time>2026-05-03T13:38:12Z</time></trkpt><trkpt lat="44.090399570266236" lon="7.951863638029152"><ele>1114.0</ele><time>2026-05-03T13:38:15Z</time></trkpt><trkpt lat="44.09037647410538" lon="7.951981022627451"><ele>1112.6666666666667</ele><time>2026-05-03T13:38:20Z</time></trkpt><trkpt lat="44.09031630030238" lon="7.952035347135082"><ele>1111.3333333333333</ele><time>2026-05-03T13:38:21.999Z</time></trkpt><trkpt lat="44.090247144699276" lon="7.952035772330984"><ele>1110.0</ele><time>2026-05-03T13:38:23.999Z</time></trkpt><trkpt lat="44.09016951051201" lon="7.95199306895507"><ele>1110.0</ele><time>2026-05-03T13:38:25.999Z</time></trkpt><trkpt lat="44.09009844748459" lon="7.951925152473904"><ele>1110.0</ele><time>2026-05-03T13:38:27.999Z</time></trkpt><trkpt lat="44.090046465759265" lon="7.951853587538477"><ele>1110.0</ele><time>2026-05-03T13:38:30.999Z</time></trkpt><trkpt lat="44.090006365557414" lon="7.951785048917339"><ele>1110.0</ele><time>2026-05-03T13:38:32.999Z</time></trkpt><trkpt lat="44.08995561364034" lon="7.951693066450221"><ele>1110.0</ele><time>2026-05-03T13:38:34.999Z</time></trkpt><trkpt lat="44.089954161979186" lon="7.951573666085274"><ele>1110.0</ele><time>2026-05-03T13:38:36.999Z</time></trkpt><trkpt lat="44.08994130918954" lon="7.951486849527378"><ele>1111.3333333333333</ele><time>2026-05-03T13:38:37.999Z</time></trkpt><trkpt lat="44.08992594617266" lon="7.951381019013992"><ele>1112.6666666666667</ele><time>2026-05-03T13:38:38.999Z</time></trkpt><trkpt lat="44.08989879433187" lon="7.951298970488283"><ele>1114.0</ele><time>2026-05-03T13:38:39.999Z</time></trkpt><trkpt lat="44.08988078292541" lon="7.951210898034147"><ele>1115.3333333333335</ele><time>2026-05-03T13:38:40.999Z</time></trkpt><trkpt lat="44.089861367089576" lon="7.951091286976202"><ele>1116.6666666666667</ele><time>2026-05-03T13:38:42.999Z</time></trkpt><trkpt lat="44.0898408152294" lon="7.95094996586082"><ele>1118.0</ele><time>2026-05-03T13:38:44.999Z</time></trkpt><trkpt lat="44.089788028992594" lon="7.950827666055963"><ele>1113.5</ele><time>2026-05-03T13:38:46.999Z</time></trkpt><trkpt lat="44.08975432785015" lon="7.950719918786499"><ele>1109.0</ele><time>2026-05-03T13:38:48.999Z</time></trkpt><trkpt lat="44.08973635672074" lon="7.950602347336568"><ele>1104.5</ele><time>2026-05-03T13:38:50.999Z</time></trkpt><trkpt lat="44.08973312514711" lon="7.950505960922435"><ele>1100.0</ele><time>2026-05-03T13:38:52.999Z</time></trkpt><trkpt lat="44.08974190064733" lon="7.950370980531927"><ele>1095.5</ele><time>2026-05-03T13:38:54.999Z</time></trkpt><trkpt lat="44.089737737877606" lon="7.950227647893881"><ele>1091.0</ele><time>2026-05-03T13:38:56.999Z</time></trkpt><trkpt lat="44.08972133142846" lon="7.950084322170358"><ele>1091.1666666666667</ele><time>2026-05-03T13:38:58.999Z</time></trkpt><trkpt lat="44.0896955836024" lon="7.949981155277373"><ele>1091.3333333333335</ele><time>2026-05-03T13:39:00.999Z</time></trkpt><trkpt lat="44.08967682699516" lon="7.949845016785833"><ele>1091.5</ele><time>2026-05-03T13:39:02.999Z</time></trkpt><trkpt lat="44.08965717383824" lon="7.949742158712094"><ele>1091.6666666666667</ele><time>2026-05-03T13:39:04.999Z</time></trkpt><trkpt lat="44.089669190655236" lon="7.949648070406598"><ele>1091.8333333333333</ele><time>2026-05-03T13:39:06.999Z</time></trkpt><trkpt lat="44.08963288011734" lon="7.949565116396574"><ele>1092.0</ele><time>2026-05-03T13:39:08.999Z</time></trkpt><trkpt lat="44.08958260174183" lon="7.949480147145875"><ele>1092.0</ele><time>2026-05-03T13:39:10.999Z</time></trkpt><trkpt lat="44.08952126044658" lon="7.949414429035568"><ele>1092.0</ele><time>2026-05-03T13:39:13Z</time></trkpt><trkpt lat="44.08948781910281" lon="7.949286956438157"><ele>1092.0</ele><time>2026-05-03T13:39:15Z</time></trkpt><trkpt lat="44.08941921837516" lon="7.94921039999689"><ele>1092.0</ele><time>2026-05-03T13:39:17Z</time></trkpt><trkpt lat="44.089348327771404" lon="7.949122489382994"><ele>1092.0</ele><time>2026-05-03T13:39:19Z</time></trkpt><trkpt lat="44.08929839355814" lon="7.949028488210928"><ele>1092.0</ele><time>2026-05-03T13:39:21Z</time></trkpt><trkpt lat="44.08923434608607" lon="7.94892894511705"><ele>1093.6666666666667</ele><time>2026-05-03T13:39:23Z</time></trkpt><trkpt lat="44.08916339142815" lon="7.948869555689595"><ele>1095.3333333333333</ele><time>2026-05-03T13:39:25Z</time></trkpt><trkpt lat="44.089096987603035" lon="7.948803679685456"><ele>1097.0</ele><time>2026-05-03T13:39:28Z</time></trkpt><trkpt lat="44.08902719861705" lon="7.948791495817772"><ele>1098.6666666666665</ele><time>2026-05-03T13:39:29Z</time></trkpt><trkpt lat="44.08895569286533" lon="7.94873026344824"><ele>1100.3333333333333</ele><time>2026-05-03T13:39:32Z</time></trkpt><trkpt lat="44.08887438482076" lon="7.948683859458375"><ele>1102.0</ele><time>2026-05-03T13:40:14.999Z</time></trkpt><trkpt lat="44.08883505433341" lon="7.948607371814331"><ele>1098.8571428571427</ele><time>2026-05-03T13:40:18.999Z</time></trkpt><trkpt lat="44.088845114367544" lon="7.948500227565352"><ele>1095.7142857142858</ele><time>2026-05-03T13:40:23.999Z</time></trkpt><trkpt lat="44.08886310372342" lon="7.9484100576835255"><ele>1092.5714285714284</ele><time>2026-05-03T13:40:27.999Z</time></trkpt><trkpt lat="44.08880168164342" lon="7.948357907049574"><ele>1089.4285714285713</ele><time>2026-05-03T13:40:31.999Z</time></trkpt><trkpt lat="44.0887127066682" lon="7.94836506049129"><ele>1086.2857142857142</ele><time>2026-05-03T13:40:34.999Z</time></trkpt><trkpt lat="44.08864404231576" lon="7.948381642186225"><ele>1083.142857142857</ele><time>2026-05-03T13:40:38.999Z</time></trkpt><trkpt lat="44.08859440691304" lon="7.948438621500727"><ele>1080.0</ele><time>2026-05-03T13:40:42.999Z</time></trkpt><trkpt lat="44.08854373435287" lon="7.948491433455438"><ele>1080.0</ele><time>2026-05-03T13:40:47.999Z</time></trkpt><trkpt lat="44.08846925557866" lon="7.948517200290138"><ele>1080.0</ele><time>2026-05-03T13:41:00.999Z</time></trkpt><trkpt lat="44.08844246573822" lon="7.9485983763754895"><ele>1080.0</ele><time>2026-05-03T13:41:17.999Z</time></trkpt><trkpt lat="44.08851339346545" lon="7.948556105864438"><ele>1080.0</ele><time>2026-05-03T13:41:37Z</time></trkpt><trkpt lat="44.088542528451555" lon="7.948446896409954"><ele>1080.0</ele><time>2026-05-03T13:41:40Z</time></trkpt><trkpt lat="44.08859603147527" lon="7.948391341356655"><ele>1080.0</ele><time>2026-05-03T13:41:44Z</time></trkpt><trkpt lat="44.08866202634448" lon="7.948350100483003"><ele>1080.0</ele><time>2026-05-03T13:41:48Z</time></trkpt><trkpt lat="44.088728919350636" lon="7.948351316333236"><ele>1079.8333333333333</ele><time>2026-05-03T13:41:52Z</time></trkpt><trkpt lat="44.08878992892901" lon="7.948432466827107"><ele>1079.6666666666667</ele><time>2026-05-03T13:41:56Z</time></trkpt><trkpt lat="44.08884981758186" lon="7.948471829726141"><ele>1079.5</ele><time>2026-05-03T13:41:58.999Z</time></trkpt><trkpt lat="44.08887563626267" lon="7.9485626612880695"><ele>1079.3333333333335</ele><time>2026-05-03T13:42:01.999Z</time></trkpt><trkpt lat="44.08890850844524" lon="7.948675018134492"><ele>1079.1666666666667</ele><time>2026-05-03T13:43:20.999Z</time></trkpt><trkpt lat="44.08890147520687" lon="7.948581230204314"><ele>1079.0</ele><time>2026-05-03T13:43:50Z</time></trkpt><trkpt lat="44.08886672616631" lon="7.9484685744783015"><ele>1079.0</ele><time>2026-05-03T13:43:52Z</time></trkpt><trkpt lat="44.088846701953436" lon="7.948361914162488"><ele>1079.0</ele><time>2026-05-03T13:43:54.999Z</time></trkpt><trkpt lat="44.08878259960745" lon="7.948358725409866"><ele>1079.0</ele><time>2026-05-03T13:43:57.999Z</time></trkpt><trkpt lat="44.088729947595496" lon="7.948437781448654"><ele>1079.0</ele><time>2026-05-03T13:44:01.999Z</time></trkpt><trkpt lat="44.0887093188255" lon="7.9485266655871385"><ele>1079.0</ele><time>2026-05-03T13:44:03.999Z</time></trkpt><trkpt lat="44.088698675621394" lon="7.948646919136256"><ele>1079.0</ele><time>2026-05-03T13:44:06.999Z</time></trkpt><trkpt lat="44.08869445285971" lon="7.948762166250767"><ele>1079.0</ele><time>2026-05-03T13:44:08.999Z</time></trkpt><trkpt lat="44.0887179688842" lon="7.948879433113395"><ele>1079.0</ele><time>2026-05-03T13:44:10.999Z</time></trkpt><trkpt lat="44.08872145216892" lon="7.9489879029223465"><ele>1079.0</ele><time>2026-05-03T13:44:12.999Z</time></trkpt><trkpt lat="44.08874371232366" lon="7.949084268399609"><ele>1079.0</ele><time>2026-05-03T13:44:14.999Z</time></trkpt><trkpt lat="44.088778932458055" lon="7.949190853682485"><ele>1079.0</ele><time>2026-05-03T13:44:16.999Z</time></trkpt><trkpt lat="44.08883123928468" lon="7.949283770153858"><ele>1079.0</ele><time>2026-05-03T13:44:18.999Z</time></trkpt><trkpt lat="44.08889958386313" lon="7.94940848553755"><ele>1078.0</ele><time>2026-05-03T13:44:20.999Z</time></trkpt><trkpt lat="44.08893281627058" lon="7.949494126520952"><ele>1077.0</ele><time>2026-05-03T13:44:23Z</time></trkpt><trkpt lat="44.088958707373614" lon="7.949590093747797"><ele>1076.0</ele><time>2026-05-03T13:44:28Z</time></trkpt><trkpt lat="44.08891323791461" lon="7.949680142019749"><ele>1075.0</ele><time>2026-05-03T13:44:32Z</time></trkpt><trkpt lat="44.08887067377776" lon="7.94976814576638"><ele>1074.0</ele><time>2026-05-03T13:44:34Z</time></trkpt><trkpt lat="44.08882178549092" lon="7.949856717759584"><ele>1073.0</ele><time>2026-05-03T13:44:36Z</time></trkpt><trkpt lat="44.08877961086082" lon="7.9499419581603075"><ele>1072.2</ele><time>2026-05-03T13:44:38Z</time></trkpt><trkpt lat="44.08876835402081" lon="7.950060715359984"><ele>1071.4</ele><time>2026-05-03T13:44:40Z</time></trkpt><trkpt lat="44.088769282625954" lon="7.950174900833224"><ele>1070.6000000000001</ele><time>2026-05-03T13:44:42Z</time></trkpt><trkpt lat="44.088772711834956" lon="7.950301294164483"><ele>1069.8</ele><time>2026-05-03T13:44:44Z</time></trkpt><trkpt lat="44.088759287166106" lon="7.9504630554763995"><ele>1069.0</ele><time>2026-05-03T13:44:46Z</time></trkpt><trkpt lat="44.0887714330558" lon="7.950635580185644"><ele>1069.0</ele><time>2026-05-03T13:44:48Z</time></trkpt><trkpt lat="44.08876454793484" lon="7.95078895131256"><ele>1069.0</ele><time>2026-05-03T13:44:50Z</time></trkpt><trkpt lat="44.08875717495461" lon="7.950903842287476"><ele>1069.0</ele><time>2026-05-03T13:44:52Z</time></trkpt><trkpt lat="44.08872266590846" lon="7.951054034176868"><ele>1069.0</ele><time>2026-05-03T13:44:54Z</time></trkpt><trkpt lat="44.088670137232825" lon="7.951187613294043"><ele>1069.0</ele><time>2026-05-03T13:44:56Z</time></trkpt><trkpt lat="44.08860857013448" lon="7.9512904129331785"><ele>1068.8333333333333</ele><time>2026-05-03T13:44:58Z</time></trkpt><trkpt lat="44.08853887339069" lon="7.951353357858663"><ele>1068.6666666666665</ele><time>2026-05-03T13:45:00Z</time></trkpt><trkpt lat="44.08846238106283" lon="7.951371566501474"><ele>1068.5</ele><time>2026-05-03T13:45:02Z</time></trkpt><trkpt lat="44.0883968802765" lon="7.951281935556128"><ele>1068.3333333333333</ele><time>2026-05-03T13:45:05Z</time></trkpt><trkpt lat="44.088385512326354" lon="7.9511816077828055"><ele>1068.1666666666667</ele><time>2026-05-03T13:45:07Z</time></trkpt><trkpt lat="44.08835494436685" lon="7.951095459516499"><ele>1068.0</ele><time>2026-05-03T13:45:09Z</time></trkpt><trkpt lat="44.08833055132484" lon="7.9510111371397985"><ele>1068.0</ele><time>2026-05-03T13:45:11Z</time></trkpt><trkpt lat="44.08831380638956" lon="7.950912138629201"><ele>1068.0</ele><time>2026-05-03T13:45:14Z</time></trkpt><trkpt lat="44.088278120718385" lon="7.95083228831461"><ele>1068.0</ele><time>2026-05-03T13:45:19Z</time></trkpt><trkpt lat="44.08820851769854" lon="7.950753856377993"><ele>1068.0</ele><time>2026-05-03T13:45:21Z</time></trkpt><trkpt lat="44.088140485310014" lon="7.950667716943823"><ele>1068.0</ele><time>2026-05-03T13:45:23Z</time></trkpt><trkpt lat="44.088087596665574" lon="7.950570946212709"><ele>1068.0</ele><time>2026-05-03T13:45:25Z</time></trkpt><trkpt lat="44.08801264765325" lon="7.950500254278441"><ele>1064.1666666666667</ele><time>2026-05-03T13:45:28Z</time></trkpt><trkpt lat="44.087945645734884" lon="7.95047664598755"><ele>1060.3333333333333</ele><time>2026-05-03T13:45:30.001Z</time></trkpt><trkpt lat="44.08789258094444" lon="7.950531216689896"><ele>1056.5</ele><time>2026-05-03T13:45:35.001Z</time></trkpt><trkpt lat="44.08788810997352" lon="7.950650094680638"><ele>1052.6666666666665</ele><time>2026-05-03T13:45:37.001Z</time></trkpt><trkpt lat="44.08788804523812" lon="7.950793038228812"><ele>1048.8333333333333</ele><time>2026-05-03T13:45:41Z</time></trkpt><trkpt lat="44.08786816554123" lon="7.9509416080375885"><ele>1045.0</ele><time>2026-05-03T13:45:43Z</time></trkpt><trkpt lat="44.08784270528566" lon="7.951069063802957"><ele>1044.0</ele><time>2026-05-03T13:45:45Z</time></trkpt><trkpt lat="44.087836641663465" lon="7.951191800542865"><ele>1043.0</ele><time>2026-05-03T13:45:47Z</time></trkpt><trkpt lat="44.08783383327195" lon="7.95129818746882"><ele>1042.0</ele><time>2026-05-03T13:45:49Z</time></trkpt><trkpt lat="44.087837730837684" lon="7.951410860007637"><ele>1041.0</ele><time>2026-05-03T13:45:51Z</time></trkpt><trkpt lat="44.087828719686236" lon="7.951547961069241"><ele>1040.0</ele><time>2026-05-03T13:45:53Z</time></trkpt><trkpt lat="44.08785232232636" lon="7.951654012885797"><ele>1039.0</ele><time>2026-05-03T13:45:55Z</time></trkpt><trkpt lat="44.08786481057717" lon="7.951750879368683"><ele>1036.2</ele><time>2026-05-03T13:45:56Z</time></trkpt><trkpt lat="44.08790925260347" lon="7.951908710130826"><ele>1033.4</ele><time>2026-05-03T13:45:58Z</time></trkpt><trkpt lat="44.087947964387446" lon="7.952031145998914"><ele>1030.6</ele><time>2026-05-03T13:46:00Z</time></trkpt><trkpt lat="44.08800103116166" lon="7.9521414600257945"><ele>1027.8</ele><time>2026-05-03T13:46:02Z</time></trkpt><trkpt lat="44.088070209695964" lon="7.952246871071709"><ele>1025.0</ele><time>2026-05-03T13:46:04Z</time></trkpt><trkpt lat="44.0880916474052" lon="7.952375839561818"><ele>1025.0</ele><time>2026-05-03T13:46:06Z</time></trkpt><trkpt lat="44.08806181537693" lon="7.952519667238523"><ele>1025.0</ele><time>2026-05-03T13:46:08Z</time></trkpt><trkpt lat="44.088075484492144" lon="7.952642057567276"><ele>1025.0</ele><time>2026-05-03T13:46:10Z</time></trkpt><trkpt lat="44.088100757842774" lon="7.952734595069898"><ele>1025.0</ele><time>2026-05-03T13:46:12Z</time></trkpt><trkpt lat="44.088180007189564" lon="7.9527996117463235"><ele>1025.0</ele><time>2026-05-03T13:46:14Z</time></trkpt><trkpt lat="44.08829218939083" lon="7.952846597097464"><ele>1029.1666666666667</ele><time>2026-05-03T13:46:16Z</time></trkpt><trkpt lat="44.08838022267754" lon="7.952864623180111"><ele>1033.3333333333335</ele><time>2026-05-03T13:46:18Z</time></trkpt><trkpt lat="44.088440770788594" lon="7.952904394552166"><ele>1037.5</ele><time>2026-05-03T13:46:21Z</time></trkpt><trkpt lat="44.088426330960566" lon="7.953009391686561"><ele>1041.6666666666667</ele><time>2026-05-03T13:46:24Z</time></trkpt><trkpt lat="44.08839501886427" lon="7.9531143925179855"><ele>1045.8333333333333</ele><time>2026-05-03T13:46:26Z</time></trkpt><trkpt lat="44.088334491122104" lon="7.953219393696574"><ele>1050.0</ele><time>2026-05-03T13:46:28Z</time></trkpt><trkpt lat="44.08827417848429" lon="7.95330632215797"><ele>1046.8</ele><time>2026-05-03T13:46:30Z</time></trkpt><trkpt lat="44.08819743191479" lon="7.953386980961089"><ele>1043.6</ele><time>2026-05-03T13:46:32Z</time></trkpt><trkpt lat="44.08809451570918" lon="7.953457144456935"><ele>1040.4</ele><time>2026-05-03T13:46:34Z</time></trkpt><trkpt lat="44.08800006373106" lon="7.953551674987122"><ele>1037.2</ele><time>2026-05-03T13:46:36Z</time></trkpt><trkpt lat="44.08793646012533" lon="7.953651663776256"><ele>1034.0</ele><time>2026-05-03T13:46:38Z</time></trkpt><trkpt lat="44.087852996773904" lon="7.95375232762475"><ele>1034.0</ele><time>2026-05-03T13:46:40Z</time></trkpt><trkpt lat="44.08775382121339" lon="7.953798421413698"><ele>1034.0</ele><time>2026-05-03T13:46:42Z</time></trkpt><trkpt lat="44.08768168414673" lon="7.953822255527937"><ele>1034.0</ele><time>2026-05-03T13:46:43Z</time></trkpt><trkpt lat="44.087615499660465" lon="7.953839941947444"><ele>1034.0</ele><time>2026-05-03T13:46:44Z</time></trkpt><trkpt lat="44.087553897205126" lon="7.95386993014337"><ele>1034.0</ele><time>2026-05-03T13:46:45Z</time></trkpt><trkpt lat="44.08744510338889" lon="7.953916471743521"><ele>1034.0</ele><time>2026-05-03T13:46:47Z</time></trkpt><trkpt lat="44.08733219349364" lon="7.953979874715842"><ele>1028.4</ele><time>2026-05-03T13:46:49Z</time></trkpt><trkpt lat="44.087236295950646" lon="7.954014988678676"><ele>1022.8000000000001</ele><time>2026-05-03T13:46:51Z</time></trkpt><trkpt lat="44.08715600493147" lon="7.9541123885390705"><ele>1017.1999999999999</ele><time>2026-05-03T13:46:53Z</time></trkpt><trkpt lat="44.08711820191813" lon="7.954247973210175"><ele>1011.5999999999999</ele><time>2026-05-03T13:46:55Z</time></trkpt><trkpt lat="44.08706910189808" lon="7.95436629096724"><ele>1006.0</ele><time>2026-05-03T13:46:57Z</time></trkpt><trkpt lat="44.087040185961946" lon="7.95448119099962"><ele>1006.0</ele><time>2026-05-03T13:46:59Z</time></trkpt><trkpt lat="44.087014335571894" lon="7.954563850728477"><ele>1005.9999999999999</ele><time>2026-05-03T13:47:00Z</time></trkpt><trkpt lat="44.086975727386886" lon="7.954723547432457"><ele>1005.9999999999999</ele><time>2026-05-03T13:47:02Z</time></trkpt><trkpt lat="44.08693104657031" lon="7.954866394608"><ele>1006.0</ele><time>2026-05-03T13:47:04Z</time></trkpt><trkpt lat="44.08691762964184" lon="7.954976340924288"><ele>1006.0</ele><time>2026-05-03T13:47:05Z</time></trkpt><trkpt lat="44.08687065812983" lon="7.955140895125477"><ele>1005.6666666666666</ele><time>2026-05-03T13:47:07Z</time></trkpt><trkpt lat="44.08684947858009" lon="7.955230292261214"><ele>1005.3333333333333</ele><time>2026-05-03T13:47:08Z</time></trkpt><trkpt lat="44.08682829054363" lon="7.955328243861794"><ele>1005.0</ele><time>2026-05-03T13:47:09Z</time></trkpt><trkpt lat="44.08681649033071" lon="7.95541645967115"><ele>1004.6666666666667</ele><time>2026-05-03T13:47:10Z</time></trkpt><trkpt lat="44.08683849101375" lon="7.955601282927942"><ele>1004.3333333333334</ele><time>2026-05-03T13:47:12Z</time></trkpt><trkpt lat="44.08686652825132" lon="7.955696825831903"><ele>1004.0</ele><time>2026-05-03T13:47:13Z</time></trkpt><trkpt lat="44.086900958858735" lon="7.955811041127275"><ele>1003.1666666666667</ele><time>2026-05-03T13:47:14Z</time></trkpt><trkpt lat="44.08692149005597" lon="7.955900830689346"><ele>1002.3333333333334</ele><time>2026-05-03T13:47:15Z</time></trkpt><trkpt lat="44.08693438098882" lon="7.956022522285758"><ele>1001.5</ele><time>2026-05-03T13:47:16Z</time></trkpt><trkpt lat="44.08695485723676" lon="7.956112386489234"><ele>1000.6666666666667</ele><time>2026-05-03T13:47:17Z</time></trkpt><trkpt lat="44.08695175651668" lon="7.956210789801788"><ele>999.8333333333334</ele><time>2026-05-03T13:47:18Z</time></trkpt><trkpt lat="44.08693608574443" lon="7.956311949701772"><ele>999.0</ele><time>2026-05-03T13:47:19Z</time></trkpt><trkpt lat="44.08691125998742" lon="7.956491583081524"><ele>999.0</ele><time>2026-05-03T13:47:21Z</time></trkpt><trkpt lat="44.086906228853074" lon="7.956592739632521"><ele>999.0</ele><time>2026-05-03T13:47:22Z</time></trkpt><trkpt lat="44.08688590839652" lon="7.956708360770565"><ele>999.0</ele><time>2026-05-03T13:47:23Z</time></trkpt><trkpt lat="44.08687514717424" lon="7.956811265857748"><ele>999.0</ele><time>2026-05-03T13:47:24Z</time></trkpt><trkpt lat="44.08685790775872" lon="7.956918433059446"><ele>999.0</ele><time>2026-05-03T13:47:25Z</time></trkpt><trkpt lat="44.086831625589475" lon="7.9570193310770545"><ele>999.0</ele><time>2026-05-03T13:47:26Z</time></trkpt><trkpt lat="44.086761421655154" lon="7.957171256467137"><ele>1000.6</ele><time>2026-05-03T13:47:28Z</time></trkpt><trkpt lat="44.08669498639618" lon="7.957240394018396"><ele>1002.2</ele><time>2026-05-03T13:47:29Z</time></trkpt><trkpt lat="44.086598099182055" lon="7.957264642388346"><ele>1003.8000000000001</ele><time>2026-05-03T13:47:30Z</time></trkpt><trkpt lat="44.08652751782623" lon="7.95733273417545"><ele>1005.4000000000001</ele><time>2026-05-03T13:47:31Z</time></trkpt><trkpt lat="44.08648347801882" lon="7.95740983860683"><ele>1007.0</ele><time>2026-05-03T13:47:32Z</time></trkpt><trkpt lat="44.0864290926784" lon="7.957550335402856"><ele>1002.5714285714286</ele><time>2026-05-03T13:47:34Z</time></trkpt><trkpt lat="44.08640538633356" lon="7.957638324514853"><ele>998.1428571428571</ele><time>2026-05-03T13:47:35Z</time></trkpt><trkpt lat="44.08637619009755" lon="7.957733707429168"><ele>993.7142857142857</ele><time>2026-05-03T13:47:36Z</time></trkpt><trkpt lat="44.086356628030025" lon="7.957836699377521"><ele>989.2857142857142</ele><time>2026-05-03T13:47:37Z</time></trkpt><trkpt lat="44.08634202442824" lon="7.957941766946008"><ele>984.8571428571429</ele><time>2026-05-03T13:47:38Z</time></trkpt><trkpt lat="44.08632793235069" lon="7.958030934663197"><ele>980.4285714285713</ele><time>2026-05-03T13:47:39Z</time></trkpt><trkpt lat="44.0863171979317" lon="7.95812180210462"><ele>975.9999999999999</ele><time>2026-05-03T13:47:40Z</time></trkpt><trkpt lat="44.08628486220316" lon="7.958197304087635"><ele>976.0</ele><time>2026-05-03T13:47:41Z</time></trkpt><trkpt lat="44.08622843591281" lon="7.958352701950037"><ele>975.9999999999999</ele><time>2026-05-03T13:47:43Z</time></trkpt><trkpt lat="44.08623004786545" lon="7.95845356975648"><ele>975.9999999999999</ele><time>2026-05-03T13:47:44Z</time></trkpt><trkpt lat="44.0862346943501" lon="7.958557336717659"><ele>976.0</ele><time>2026-05-03T13:47:45Z</time></trkpt><trkpt lat="44.08622154818825" lon="7.958656651782842"><ele>976.0</ele><time>2026-05-03T13:47:46Z</time></trkpt><trkpt lat="44.08617725100049" lon="7.958808207402022"><ele>976.9999999999999</ele><time>2026-05-03T13:47:48Z</time></trkpt><trkpt lat="44.08611974219836" lon="7.958976443630982"><ele>978.0</ele><time>2026-05-03T13:47:50Z</time></trkpt><trkpt lat="44.08610031399804" lon="7.959093098519706"><ele>979.0</ele><time>2026-05-03T13:47:51Z</time></trkpt><trkpt lat="44.086069092574036" lon="7.9591856847702935"><ele>980.0</ele><time>2026-05-03T13:47:52Z</time></trkpt><trkpt lat="44.08605043056383" lon="7.959281825421506"><ele>980.9999999999999</ele><time>2026-05-03T13:47:54Z</time></trkpt><trkpt lat="44.0859948448095" lon="7.959210583983227"><ele>982.0</ele><time>2026-05-03T13:47:57Z</time></trkpt><trkpt lat="44.086028474072805" lon="7.959012015851756"><ele>981.9999999999999</ele><time>2026-05-03T13:47:59Z</time></trkpt><trkpt lat="44.086043383696634" lon="7.958912275568424"><ele>982.0</ele><time>2026-05-03T13:48:00Z</time></trkpt><trkpt lat="44.08606208837938" lon="7.958783647165165"><ele>982.0</ele><time>2026-05-03T13:48:02Z</time></trkpt><trkpt lat="44.08609292632391" lon="7.958635602374385"><ele>982.0</ele><time>2026-05-03T13:48:04Z</time></trkpt><trkpt lat="44.08612320414203" lon="7.9585507058208504"><ele>981.9999999999999</ele><time>2026-05-03T13:48:05Z</time></trkpt><trkpt lat="44.086133249163986" lon="7.9584483068313"><ele>982.0</ele><time>2026-05-03T13:48:06Z</time></trkpt><trkpt lat="44.086125130802934" lon="7.958340000978236"><ele>980.8</ele><time>2026-05-03T13:48:07Z</time></trkpt><trkpt lat="44.086132705961205" lon="7.958216290362341"><ele>979.6</ele><time>2026-05-03T13:48:08Z</time></trkpt><trkpt lat="44.086122242098256" lon="7.958075758433399"><ele>978.3999999999999</ele><time>2026-05-03T13:48:09Z</time></trkpt><trkpt lat="44.086133158021994" lon="7.957930880832158"><ele>977.1999999999999</ele><time>2026-05-03T13:48:10Z</time></trkpt><trkpt lat="44.08613517732539" lon="7.957798657639808"><ele>976.0</ele><time>2026-05-03T13:48:11Z</time></trkpt><trkpt lat="44.08612726789571" lon="7.957641955434492"><ele>975.1999999999999</ele><time>2026-05-03T13:48:12Z</time></trkpt><trkpt lat="44.0861299501503" lon="7.957511278991559"><ele>974.3999999999999</ele><time>2026-05-03T13:48:13Z</time></trkpt><trkpt lat="44.08616083834518" lon="7.957394824513873"><ele>973.6</ele><time>2026-05-03T13:48:14Z</time></trkpt><trkpt lat="44.086213998982245" lon="7.957274894458349"><ele>972.8</ele><time>2026-05-03T13:48:15Z</time></trkpt><trkpt lat="44.08626480456321" lon="7.957161580706789"><ele>972.0</ele><time>2026-05-03T13:48:16Z</time></trkpt><trkpt lat="44.08630375072146" lon="7.957047617031763"><ele>972.0</ele><time>2026-05-03T13:48:17Z</time></trkpt><trkpt lat="44.086309807086074" lon="7.956912542842385"><ele>972.0</ele><time>2026-05-03T13:48:18Z</time></trkpt><trkpt lat="44.08629714727564" lon="7.956767414393444"><ele>972.0</ele><time>2026-05-03T13:48:19Z</time></trkpt><trkpt lat="44.08628978424572" lon="7.956603377343301"><ele>972.0</ele><time>2026-05-03T13:48:20Z</time></trkpt><trkpt lat="44.0862787067501" lon="7.956443145191613"><ele>972.0</ele><time>2026-05-03T13:48:21Z</time></trkpt><trkpt lat="44.08626611640176" lon="7.956267932253444"><ele>971.4000000000001</ele><time>2026-05-03T13:48:22Z</time></trkpt><trkpt lat="44.08626842676544" lon="7.956107272684193"><ele>970.8000000000001</ele><time>2026-05-03T13:48:23Z</time></trkpt><trkpt lat="44.08626190812166" lon="7.955961366638161"><ele>970.2</ele><time>2026-05-03T13:48:24Z</time></trkpt><trkpt lat="44.08621937025143" lon="7.955818382722052"><ele>969.6</ele><time>2026-05-03T13:48:25Z</time></trkpt><trkpt lat="44.086209859351364" lon="7.955690768070689"><ele>969.0</ele><time>2026-05-03T13:48:26Z</time></trkpt><trkpt lat="44.08620621092264" lon="7.9555618994260495"><ele>969.0</ele><time>2026-05-03T13:48:27Z</time></trkpt><trkpt lat="44.086176209632114" lon="7.955442465997493"><ele>969.0</ele><time>2026-05-03T13:48:28Z</time></trkpt><trkpt lat="44.08615300244419" lon="7.955355944706136"><ele>969.0</ele><time>2026-05-03T13:48:29Z</time></trkpt><trkpt lat="44.08611511091823" lon="7.955267751999294"><ele>969.0</ele><time>2026-05-03T13:48:30Z</time></trkpt><trkpt lat="44.086077252898484" lon="7.955174591941143"><ele>969.0</ele><time>2026-05-03T13:48:31Z</time></trkpt><trkpt lat="44.08604615607811" lon="7.955081952999172"><ele>969.0</ele><time>2026-05-03T13:48:32Z</time></trkpt><trkpt lat="44.086026715430684" lon="7.954975077966613"><ele>969.0</ele><time>2026-05-03T13:48:33Z</time></trkpt><trkpt lat="44.08600631894176" lon="7.954878167807615"><ele>969.0</ele><time>2026-05-03T13:48:34Z</time></trkpt><trkpt lat="44.08599063840438" lon="7.954754240216291"><ele>969.0</ele><time>2026-05-03T13:48:35Z</time></trkpt><trkpt lat="44.08599380345974" lon="7.954636930112046"><ele>969.0</ele><time>2026-05-03T13:48:36Z</time></trkpt><trkpt lat="44.0860178932394" lon="7.954501457179901"><ele>969.0</ele><time>2026-05-03T13:48:37Z</time></trkpt><trkpt lat="44.0860428787057" lon="7.954369522701191"><ele>969.0</ele><time>2026-05-03T13:48:38Z</time></trkpt><trkpt lat="44.08601399859266" lon="7.954251557790882"><ele>967.5</ele><time>2026-05-03T13:48:39Z</time></trkpt><trkpt lat="44.08601357762288" lon="7.954088166982947"><ele>966.0</ele><time>2026-05-03T13:48:40Z</time></trkpt><trkpt lat="44.08605250755656" lon="7.95391730741564"><ele>964.5</ele><time>2026-05-03T13:48:41Z</time></trkpt><trkpt lat="44.08606780522329" lon="7.953780978108185"><ele>963.0</ele><time>2026-05-03T13:48:42Z</time></trkpt><trkpt lat="44.08608800627835" lon="7.953605851736077"><ele>963.0</ele><time>2026-05-03T13:48:43Z</time></trkpt><trkpt lat="44.08612680412265" lon="7.953480817192246"><ele>963.0</ele><time>2026-05-03T13:48:44Z</time></trkpt><trkpt lat="44.08616254857684" lon="7.953326619579912"><ele>963.0</ele><time>2026-05-03T13:48:45Z</time></trkpt><trkpt lat="44.08622388153047" lon="7.953203949090498"><ele>963.0</ele><time>2026-05-03T13:48:46Z</time></trkpt><trkpt lat="44.08629257287201" lon="7.9531347593895845"><ele>963.0</ele><time>2026-05-03T13:48:47Z</time></trkpt><trkpt lat="44.08635430802312" lon="7.95307034701689"><ele>964.2</ele><time>2026-05-03T13:48:48Z</time></trkpt><trkpt lat="44.08642567750466" lon="7.953025929481583"><ele>965.4</ele><time>2026-05-03T13:48:49Z</time></trkpt><trkpt lat="44.08650604933871" lon="7.952951168180298"><ele>966.6000000000001</ele><time>2026-05-03T13:48:51Z</time></trkpt><trkpt lat="44.08649625212167" lon="7.952808007738919"><ele>967.8000000000001</ele><time>2026-05-03T13:48:54Z</time></trkpt><trkpt lat="44.08636380881474" lon="7.952751575398972"><ele>969.0</ele><time>2026-05-03T13:48:56Z</time></trkpt><trkpt lat="44.08626367325492" lon="7.952709666166842"><ele>969.0</ele><time>2026-05-03T13:48:57Z</time></trkpt><trkpt lat="44.08615736283063" lon="7.952743282901755"><ele>969.0000000000001</ele><time>2026-05-03T13:48:58Z</time></trkpt><trkpt lat="44.08606044857623" lon="7.952787402260563"><ele>969.0000000000001</ele><time>2026-05-03T13:48:59Z</time></trkpt><trkpt lat="44.08595589728596" lon="7.952784420245302"><ele>969.0</ele><time>2026-05-03T13:49:00Z</time></trkpt><trkpt lat="44.085855424159455" lon="7.952827498417646"><ele>969.0</ele><time>2026-05-03T13:49:01Z</time></trkpt><trkpt lat="44.085766296336224" lon="7.952859384160442"><ele>967.4000000000001</ele><time>2026-05-03T13:49:02Z</time></trkpt><trkpt lat="44.0856902805878" lon="7.952875570451496"><ele>965.8000000000001</ele><time>2026-05-03T13:49:03Z</time></trkpt><trkpt lat="44.08560837593551" lon="7.95289866724242"><ele>964.1999999999999</ele><time>2026-05-03T13:49:04Z</time></trkpt><trkpt lat="44.085524477055294" lon="7.952903892552155"><ele>962.5999999999999</ele><time>2026-05-03T13:49:05Z</time></trkpt><trkpt lat="44.08544806038543" lon="7.952875032698"><ele>961.0</ele><time>2026-05-03T13:49:06Z</time></trkpt><trkpt lat="44.08530702862663" lon="7.952824251521515"><ele>961.0</ele><time>2026-05-03T13:49:08Z</time></trkpt><trkpt lat="44.085280925845964" lon="7.9527420560690585"><ele>960.9999999999999</ele><time>2026-05-03T13:49:09Z</time></trkpt><trkpt lat="44.08523770411502" lon="7.952550493236993"><ele>960.9999999999999</ele><time>2026-05-03T13:49:11Z</time></trkpt><trkpt lat="44.085248983464986" lon="7.952448091762459"><ele>961.0</ele><time>2026-05-03T13:49:13Z</time></trkpt><trkpt lat="44.08529360631992" lon="7.952262260680876"><ele>961.0</ele><time>2026-05-03T13:49:14Z</time></trkpt><trkpt lat="44.08535027691534" lon="7.952101778889089"><ele>960.8</ele><time>2026-05-03T13:49:15Z</time></trkpt><trkpt lat="44.08538391894175" lon="7.951932317833635"><ele>960.5999999999999</ele><time>2026-05-03T13:49:16Z</time></trkpt><trkpt lat="44.08544076146327" lon="7.9517486956753345"><ele>960.4</ele><time>2026-05-03T13:49:17Z</time></trkpt><trkpt lat="44.0854752011449" lon="7.951631385707688"><ele>960.2</ele><time>2026-05-03T13:49:18Z</time></trkpt><trkpt lat="44.08546834666846" lon="7.9515354210989315"><ele>960.0</ele><time>2026-05-03T13:49:19Z</time></trkpt><trkpt lat="44.08547563735553" lon="7.951437566807298"><ele>960.0</ele><time>2026-05-03T13:49:20Z</time></trkpt><trkpt lat="44.0854965177316" lon="7.951325444721996"><ele>960.0</ele><time>2026-05-03T13:49:21Z</time></trkpt><trkpt lat="44.08546118938555" lon="7.951246889467692"><ele>960.0</ele><time>2026-05-03T13:49:22Z</time></trkpt><trkpt lat="44.085441975930756" lon="7.951154414203228"><ele>960.0</ele><time>2026-05-03T13:49:23Z</time></trkpt><trkpt lat="44.08534380153242" lon="7.951128562600753"><ele>960.0</ele><time>2026-05-03T13:49:25Z</time></trkpt><trkpt lat="44.085280753921204" lon="7.951160620638545"><ele>960.0</ele><time>2026-05-03T13:49:26Z</time></trkpt><trkpt lat="44.08522110173649" lon="7.951212766618512"><ele>960.0</ele><time>2026-05-03T13:49:27Z</time></trkpt><trkpt lat="44.08512686134611" lon="7.951206457166295"><ele>960.0</ele><time>2026-05-03T13:49:29Z</time></trkpt><trkpt lat="44.0850267517035" lon="7.951172302287563"><ele>960.0</ele><time>2026-05-03T13:49:32Z</time></trkpt><trkpt lat="44.08499090667525" lon="7.951075287505219"><ele>960.0</ele><time>2026-05-03T13:49:34Z</time></trkpt><trkpt lat="44.08500338984582" lon="7.9509391039628765"><ele>960.0</ele><time>2026-05-03T13:49:36Z</time></trkpt><trkpt lat="44.08500471794453" lon="7.950848853957518"><ele>960.0</ele><time>2026-05-03T13:49:37Z</time></trkpt><trkpt lat="44.08501028164557" lon="7.950758550529263"><ele>962.4</ele><time>2026-05-03T13:49:38Z</time></trkpt><trkpt lat="44.084999937858164" lon="7.9506089066394106"><ele>964.8</ele><time>2026-05-03T13:49:40Z</time></trkpt><trkpt lat="44.084963278258776" lon="7.950499329671585"><ele>967.2</ele><time>2026-05-03T13:49:41Z</time></trkpt><trkpt lat="44.08491048433991" lon="7.950425737671071"><ele>969.6</ele><time>2026-05-03T13:49:42Z</time></trkpt><trkpt lat="44.08484533627493" lon="7.950330465639243"><ele>972.0</ele><time>2026-05-03T13:49:43Z</time></trkpt><trkpt lat="44.08476453240169" lon="7.950283715253825"><ele>968.5</ele><time>2026-05-03T13:49:44Z</time></trkpt><trkpt lat="44.0846644172356" lon="7.950258968166439"><ele>965.0</ele><time>2026-05-03T13:49:45Z</time></trkpt><trkpt lat="44.08459806356436" lon="7.950229170684783"><ele>961.5</ele><time>2026-05-03T13:49:46Z</time></trkpt><trkpt lat="44.084534375883344" lon="7.950126046098846"><ele>958.0</ele><time>2026-05-03T13:49:47Z</time></trkpt><trkpt lat="44.0844908284471" lon="7.950047997816154"><ele>954.5</ele><time>2026-05-03T13:49:48Z</time></trkpt><trkpt lat="44.08445838229969" lon="7.949950453695822"><ele>951.0</ele><time>2026-05-03T13:49:49Z</time></trkpt><trkpt lat="44.08442025017706" lon="7.949862559276667"><ele>951.0</ele><time>2026-05-03T13:49:50Z</time></trkpt><trkpt lat="44.084409270052454" lon="7.949695440381115"><ele>950.9999999999999</ele><time>2026-05-03T13:49:52Z</time></trkpt><trkpt lat="44.08443430667223" lon="7.949576417461911"><ele>950.9999999999999</ele><time>2026-05-03T13:49:53Z</time></trkpt><trkpt lat="44.084473804110814" lon="7.949463565930245"><ele>951.0</ele><time>2026-05-03T13:49:54Z</time></trkpt><trkpt lat="44.08450667855203" lon="7.949386241391543"><ele>951.0</ele><time>2026-05-03T13:49:55Z</time></trkpt><trkpt lat="44.08456903705199" lon="7.949267482633464"><ele>951.1999999999999</ele><time>2026-05-03T13:49:57Z</time></trkpt><trkpt lat="44.08460608670781" lon="7.9491375663556685"><ele>951.3999999999999</ele><time>2026-05-03T13:49:58Z</time></trkpt><trkpt lat="44.08465540129023" lon="7.949017291844756"><ele>951.6</ele><time>2026-05-03T13:49:59Z</time></trkpt><trkpt lat="44.08469630516251" lon="7.948931207349449"><ele>951.8</ele><time>2026-05-03T13:50:00Z</time></trkpt><trkpt lat="44.08474510370048" lon="7.948771008160515"><ele>952.0</ele><time>2026-05-03T13:50:01Z</time></trkpt><trkpt lat="44.08476855448123" lon="7.948641010104741"><ele>951.9999999999999</ele><time>2026-05-03T13:50:02Z</time></trkpt><trkpt lat="44.084791579365046" lon="7.948548948555845"><ele>952.0</ele><time>2026-05-03T13:50:03Z</time></trkpt><trkpt lat="44.08476669082168" lon="7.948465900491263"><ele>952.0</ele><time>2026-05-03T13:50:04Z</time></trkpt><trkpt lat="44.08472646201228" lon="7.948384107278511"><ele>952.0</ele><time>2026-05-03T13:50:05Z</time></trkpt><trkpt lat="44.08465517147799" lon="7.94835402604735"><ele>951.9999999999999</ele><time>2026-05-03T13:50:07Z</time></trkpt><trkpt lat="44.08457861237438" lon="7.948322610629847"><ele>952.0</ele><time>2026-05-03T13:50:09Z</time></trkpt><trkpt lat="44.08446542843267" lon="7.948432742985482"><ele>952.0</ele><time>2026-05-03T13:50:11Z</time></trkpt><trkpt lat="44.084398475443464" lon="7.948545453742628"><ele>952.0</ele><time>2026-05-03T13:50:12Z</time></trkpt><trkpt lat="44.08433709101271" lon="7.948628369582208"><ele>952.0</ele><time>2026-05-03T13:50:13Z</time></trkpt><trkpt lat="44.084267736298244" lon="7.948676713401475"><ele>952.0</ele><time>2026-05-03T13:50:14Z</time></trkpt><trkpt lat="44.08412425541084" lon="7.948683701832774"><ele>952.0</ele><time>2026-05-03T13:50:16Z</time></trkpt><trkpt lat="44.08402720785236" lon="7.9486059114218985"><ele>949.4999999999999</ele><time>2026-05-03T13:50:17Z</time></trkpt><trkpt lat="44.08395153891367" lon="7.948542727347958"><ele>947.0</ele><time>2026-05-03T13:50:18Z</time></trkpt><trkpt lat="44.083875147040025" lon="7.948461170647871"><ele>944.5</ele><time>2026-05-03T13:50:19Z</time></trkpt><trkpt lat="44.08386657740025" lon="7.9483544687994545"><ele>942.0</ele><time>2026-05-03T13:50:20Z</time></trkpt><trkpt lat="44.08385086060855" lon="7.948240543246449"><ele>939.4999999999999</ele><time>2026-05-03T13:50:21Z</time></trkpt><trkpt lat="44.08380341386773" lon="7.94811618758242"><ele>937.0</ele><time>2026-05-03T13:50:22Z</time></trkpt><trkpt lat="44.08374997948013" lon="7.948038970022891"><ele>937.0</ele><time>2026-05-03T13:50:23Z</time></trkpt><trkpt lat="44.08375864046434" lon="7.947912237406919"><ele>937.0</ele><time>2026-05-03T13:50:24Z</time></trkpt><trkpt lat="44.08374127715838" lon="7.947774640594024"><ele>937.0</ele><time>2026-05-03T13:50:26Z</time></trkpt><trkpt lat="44.083653579422894" lon="7.947696329329335"><ele>937.0</ele><time>2026-05-03T13:50:28Z</time></trkpt><trkpt lat="44.083573359893336" lon="7.947673585331893"><ele>937.0</ele><time>2026-05-03T13:50:29Z</time></trkpt><trkpt lat="44.08349897378774" lon="7.947639537067878"><ele>937.0</ele><time>2026-05-03T13:50:30Z</time></trkpt><trkpt lat="44.083415138891574" lon="7.947607650586153"><ele>937.0</ele><time>2026-05-03T13:50:31Z</time></trkpt><trkpt lat="44.0833347826497" lon="7.947602572189008"><ele>937.0</ele><time>2026-05-03T13:50:32Z</time></trkpt><trkpt lat="44.083220522344945" lon="7.947538950022766"><ele>937.0</ele><time>2026-05-03T13:50:34Z</time></trkpt><trkpt lat="44.08313060576139" lon="7.947412292522543"><ele>937.0</ele><time>2026-05-03T13:50:36Z</time></trkpt><trkpt lat="44.08309289349233" lon="7.947270780841434"><ele>936.2</ele><time>2026-05-03T13:50:37Z</time></trkpt><trkpt lat="44.08303632434972" lon="7.947115505823521"><ele>935.4000000000001</ele><time>2026-05-03T13:50:38Z</time></trkpt><trkpt lat="44.082990106340105" lon="7.946971393660788"><ele>934.5999999999999</ele><time>2026-05-03T13:50:39Z</time></trkpt><trkpt lat="44.08294055083325" lon="7.946845152668081"><ele>933.8</ele><time>2026-05-03T13:50:40Z</time></trkpt><trkpt lat="44.08287915296573" lon="7.946726452011084"><ele>933.0</ele><time>2026-05-03T13:50:41Z</time></trkpt><trkpt lat="44.082816813400925" lon="7.9466284577298705"><ele>935.8</ele><time>2026-05-03T13:50:42Z</time></trkpt><trkpt lat="44.08276160535305" lon="7.946521017567964"><ele>938.5999999999999</ele><time>2026-05-03T13:50:43Z</time></trkpt><trkpt lat="44.082692987768226" lon="7.9464193983459985"><ele>941.4000000000001</ele><time>2026-05-03T13:50:44Z</time></trkpt><trkpt lat="44.08261580339835" lon="7.946338671415067"><ele>944.2</ele><time>2026-05-03T13:50:45Z</time></trkpt><trkpt lat="44.08253131240805" lon="7.946261286617122"><ele>947.0</ele><time>2026-05-03T13:50:46Z</time></trkpt><trkpt lat="44.082457085331065" lon="7.946188398380836"><ele>942.2</ele><time>2026-05-03T13:50:47Z</time></trkpt><trkpt lat="44.0823893019325" lon="7.946117078078658"><ele>937.4000000000001</ele><time>2026-05-03T13:50:48Z</time></trkpt><trkpt lat="44.082313923407746" lon="7.946043140070632"><ele>932.5999999999999</ele><time>2026-05-03T13:50:49Z</time></trkpt><trkpt lat="44.08223049202964" lon="7.945979441189877"><ele>927.8</ele><time>2026-05-03T13:50:50Z</time></trkpt><trkpt lat="44.082142100154776" lon="7.945937160959134"><ele>923.0</ele><time>2026-05-03T13:50:51Z</time></trkpt><trkpt lat="44.08205056645078" lon="7.945905890121228"><ele>926.6666666666667</ele><time>2026-05-03T13:50:52Z</time></trkpt><trkpt lat="44.081968752874246" lon="7.945875133001194"><ele>930.3333333333334</ele><time>2026-05-03T13:50:53Z</time></trkpt><trkpt lat="44.08189862032076" lon="7.9458260321520715"><ele>934.0</ele><time>2026-05-03T13:50:54Z</time></trkpt><trkpt lat="44.081833048884825" lon="7.945767384228744"><ele>937.6666666666667</ele><time>2026-05-03T13:50:55Z</time></trkpt><trkpt lat="44.08176069101779" lon="7.9457098587798365"><ele>941.3333333333334</ele><time>2026-05-03T13:50:56Z</time></trkpt><trkpt lat="44.08167828643447" lon="7.945667455969345"><ele>945.0</ele><time>2026-05-03T13:50:57Z</time></trkpt><trkpt lat="44.081617359854725" lon="7.945596816779689"><ele>941.8333333333334</ele><time>2026-05-03T13:50:58Z</time></trkpt><trkpt lat="44.08156675277373" lon="7.945534754422195"><ele>938.6666666666667</ele><time>2026-05-03T13:50:59Z</time></trkpt><trkpt lat="44.081512423381504" lon="7.9454828133173905"><ele>935.5</ele><time>2026-05-03T13:51:00Z</time></trkpt><trkpt lat="44.081440033117936" lon="7.945487434316226"><ele>932.3333333333334</ele><time>2026-05-03T13:51:01Z</time></trkpt><trkpt lat="44.08136401608279" lon="7.945501045464571"><ele>929.1666666666667</ele><time>2026-05-03T13:51:02Z</time></trkpt><trkpt lat="44.08127332519406" lon="7.9455536416830554"><ele>926.0</ele><time>2026-05-03T13:51:03Z</time></trkpt><trkpt lat="44.08117102258099" lon="7.945601702521073"><ele>926.0</ele><time>2026-05-03T13:51:05Z</time></trkpt><trkpt lat="44.08106714210248" lon="7.945581914754882"><ele>926.0</ele><time>2026-05-03T13:51:07Z</time></trkpt><trkpt lat="44.080953136239565" lon="7.945563244536325"><ele>926.0</ele><time>2026-05-03T13:51:09Z</time></trkpt><trkpt lat="44.080860902140785" lon="7.945490926366613"><ele>926.0</ele><time>2026-05-03T13:51:11Z</time></trkpt><trkpt lat="44.080773630717026" lon="7.945337789167887"><ele>923.2857142857142</ele><time>2026-05-03T13:51:13Z</time></trkpt><trkpt lat="44.08070750724078" lon="7.9452934430982065"><ele>920.5714285714284</ele><time>2026-05-03T13:51:14Z</time></trkpt><trkpt lat="44.080633278184145" lon="7.945277579170218"><ele>917.8571428571429</ele><time>2026-05-03T13:51:15Z</time></trkpt><trkpt lat="44.08055745962131" lon="7.9452820393016825"><ele>915.1428571428571</ele><time>2026-05-03T13:51:16Z</time></trkpt><trkpt lat="44.08049345564523" lon="7.945277760374403"><ele>912.4285714285714</ele><time>2026-05-03T13:51:17Z</time></trkpt><trkpt lat="44.08042284366054" lon="7.945276264163634"><ele>909.7142857142858</ele><time>2026-05-03T13:51:18Z</time></trkpt><trkpt lat="44.0803571845782" lon="7.945292607448322"><ele>907.0000000000001</ele><time>2026-05-03T13:51:19Z</time></trkpt><trkpt lat="44.08022369119647" lon="7.945221506489836"><ele>906.9999999999999</ele><time>2026-05-03T13:51:21Z</time></trkpt><trkpt lat="44.08014746975627" lon="7.945147118019064"><ele>907.0</ele><time>2026-05-03T13:51:22Z</time></trkpt><trkpt lat="44.080085282176206" lon="7.945071120158768"><ele>907.0</ele><time>2026-05-03T13:51:23Z</time></trkpt><trkpt lat="44.08001225610937" lon="7.945006674618205"><ele>907.0</ele><time>2026-05-03T13:51:24Z</time></trkpt><trkpt lat="44.07993948788479" lon="7.944942574534592"><ele>906.9999999999999</ele><time>2026-05-03T13:51:25Z</time></trkpt><trkpt lat="44.07987652094986" lon="7.944876412077801"><ele>907.0</ele><time>2026-05-03T13:51:26Z</time></trkpt><trkpt lat="44.079808690952184" lon="7.944808820200646"><ele>908.0</ele><time>2026-05-03T13:51:27Z</time></trkpt><trkpt lat="44.079671745413364" lon="7.944795741236543"><ele>909.0</ele><time>2026-05-03T13:51:29Z</time></trkpt><trkpt lat="44.0796172978981" lon="7.944941058613609"><ele>910.0</ele><time>2026-05-03T13:51:30Z</time></trkpt><trkpt lat="44.07948432976865" lon="7.945000655918601"><ele>911.0</ele><time>2026-05-03T13:51:32Z</time></trkpt><trkpt lat="44.07939035485132" lon="7.9450343943115795"><ele>911.0000000000001</ele><time>2026-05-03T13:51:33Z</time></trkpt><trkpt lat="44.079286660268444" lon="7.945020830991424"><ele>911.0</ele><time>2026-05-03T13:51:34Z</time></trkpt><trkpt lat="44.07920792365976" lon="7.94501714567566"><ele>911.0</ele><time>2026-05-03T13:51:35Z</time></trkpt><trkpt lat="44.079128748670556" lon="7.9450184893766265"><ele>911.0</ele><time>2026-05-03T13:51:36Z</time></trkpt><trkpt lat="44.079046362497365" lon="7.945019506813995"><ele>911.0000000000001</ele><time>2026-05-03T13:51:37Z</time></trkpt><trkpt lat="44.07897490187309" lon="7.945018539667307"><ele>911.0</ele><time>2026-05-03T13:51:38Z</time></trkpt><trkpt lat="44.07888746176597" lon="7.944914478281156"><ele>911.5000000000001</ele><time>2026-05-03T13:51:40Z</time></trkpt><trkpt lat="44.07883702235338" lon="7.944847161176487"><ele>912.0</ele><time>2026-05-03T13:53:24Z</time></trkpt><trkpt lat="44.07879087670484" lon="7.944935012855257"><ele>912.5</ele><time>2026-05-03T13:53:28Z</time></trkpt><trkpt lat="44.07873119035845" lon="7.944992733738549"><ele>913.0</ele><time>2026-05-03T13:53:30Z</time></trkpt><trkpt lat="44.07865285502008" lon="7.944987194382026"><ele>913.5000000000001</ele><time>2026-05-03T13:53:31Z</time></trkpt><trkpt lat="44.078577222720014" lon="7.944985139241981"><ele>914.0</ele><time>2026-05-03T13:53:32Z</time></trkpt><trkpt lat="44.07852033613206" lon="7.944907695921373"><ele>914.0</ele><time>2026-05-03T13:53:33Z</time></trkpt><trkpt lat="44.07841550082874" lon="7.944881565961059"><ele>914.0000000000001</ele><time>2026-05-03T13:53:35Z</time></trkpt><trkpt lat="44.07831221580528" lon="7.944854235197471"><ele>914.0000000000001</ele><time>2026-05-03T13:53:37Z</time></trkpt><trkpt lat="44.078210291433095" lon="7.94502050012159"><ele>914.0</ele><time>2026-05-03T13:53:38Z</time></trkpt><trkpt lat="44.078132996432245" lon="7.945018335166444"><ele>914.0</ele><time>2026-05-03T13:53:39Z</time></trkpt><trkpt lat="44.07806152293269" lon="7.945008865376111"><ele>913.6666666666667</ele><time>2026-05-03T13:53:40Z</time></trkpt><trkpt lat="44.07798755165722" lon="7.945000347393452"><ele>913.3333333333334</ele><time>2026-05-03T13:53:41Z</time></trkpt><trkpt lat="44.07792284155623" lon="7.94499403023932"><ele>913.0</ele><time>2026-05-03T13:53:42Z</time></trkpt><trkpt lat="44.077853917730955" lon="7.944983952809778"><ele>912.6666666666667</ele><time>2026-05-03T13:53:43Z</time></trkpt><trkpt lat="44.07777114752559" lon="7.944979385206038"><ele>912.3333333333334</ele><time>2026-05-03T13:53:44Z</time></trkpt><trkpt lat="44.07767534075663" lon="7.944979672649974"><ele>912.0</ele><time>2026-05-03T13:53:45Z</time></trkpt><trkpt lat="44.07758711231913" lon="7.944973391510542"><ele>912.0</ele><time>2026-05-03T13:53:46Z</time></trkpt><trkpt lat="44.07750883092522" lon="7.944978881712789"><ele>912.0</ele><time>2026-05-03T13:53:47Z</time></trkpt><trkpt lat="44.077424814304955" lon="7.9449859159839455"><ele>912.0</ele><time>2026-05-03T13:53:48Z</time></trkpt><trkpt lat="44.0773353221985" lon="7.944980708582496"><ele>912.0</ele><time>2026-05-03T13:53:49Z</time></trkpt><trkpt lat="44.07723672604361" lon="7.94497032590625"><ele>912.0</ele><time>2026-05-03T13:53:50Z</time></trkpt><trkpt lat="44.077133525385186" lon="7.9449689540973765"><ele>913.1666666666666</ele><time>2026-05-03T13:53:51Z</time></trkpt><trkpt lat="44.077046298968966" lon="7.944985734325368"><ele>914.3333333333333</ele><time>2026-05-03T13:53:52Z</time></trkpt><trkpt lat="44.076956529182866" lon="7.9449927002165905"><ele>915.5</ele><time>2026-05-03T13:53:53Z</time></trkpt><trkpt lat="44.076862449703036" lon="7.944999979509966"><ele>916.6666666666666</ele><time>2026-05-03T13:53:54Z</time></trkpt><trkpt lat="44.07677131400865" lon="7.945014870959214"><ele>917.8333333333333</ele><time>2026-05-03T13:53:55Z</time></trkpt><trkpt lat="44.07668794769616" lon="7.945029864588897"><ele>919.0</ele><time>2026-05-03T13:53:56Z</time></trkpt><trkpt lat="44.07660733048584" lon="7.9450465485162045"><ele>914.0</ele><time>2026-05-03T13:53:57Z</time></trkpt><trkpt lat="44.07652243092173" lon="7.945070507574166"><ele>909.0000000000001</ele><time>2026-05-03T13:53:58Z</time></trkpt><trkpt lat="44.076437164064174" lon="7.945095172864647"><ele>904.0000000000001</ele><time>2026-05-03T13:53:59Z</time></trkpt><trkpt lat="44.076335808211795" lon="7.9451207117014535"><ele>899.0</ele><time>2026-05-03T13:54:00Z</time></trkpt><trkpt lat="44.07623916428372" lon="7.9451611251066625"><ele>894.0</ele><time>2026-05-03T13:54:01Z</time></trkpt><trkpt lat="44.076149775154946" lon="7.945207277279844"><ele>894.0</ele><time>2026-05-03T13:54:02Z</time></trkpt><trkpt lat="44.07606090178688" lon="7.9452491779435155"><ele>894.0000000000001</ele><time>2026-05-03T13:54:03Z</time></trkpt><trkpt lat="44.07598111783572" lon="7.945306842721804"><ele>894.0000000000001</ele><time>2026-05-03T13:54:04Z</time></trkpt><trkpt lat="44.075911909267596" lon="7.945354929319091"><ele>894.0</ele><time>2026-05-03T13:54:05Z</time></trkpt><trkpt lat="44.07583523080416" lon="7.945428808371706"><ele>894.0</ele><time>2026-05-03T13:54:06Z</time></trkpt><trkpt lat="44.07575521711816" lon="7.945505099179146"><ele>897.1666666666666</ele><time>2026-05-03T13:54:07Z</time></trkpt><trkpt lat="44.075688673353085" lon="7.945549818105407"><ele>900.3333333333333</ele><time>2026-05-03T13:54:08Z</time></trkpt><trkpt lat="44.075626700622195" lon="7.945588402123273"><ele>903.5</ele><time>2026-05-03T13:54:09Z</time></trkpt><trkpt lat="44.07552925578086" lon="7.9456884670636185"><ele>906.6666666666666</ele><time>2026-05-03T13:54:11Z</time></trkpt><trkpt lat="44.07546294596759" lon="7.945721509665066"><ele>909.8333333333333</ele><time>2026-05-03T13:54:12Z</time></trkpt><trkpt lat="44.07540366572603" lon="7.9457515147719615"><ele>913.0</ele><time>2026-05-03T13:54:13Z</time></trkpt><trkpt lat="44.07534045601297" lon="7.945793129687198"><ele>912.9999999999999</ele><time>2026-05-03T13:54:14Z</time></trkpt><trkpt lat="44.07528024253122" lon="7.945832035462011"><ele>913.0</ele><time>2026-05-03T13:54:15Z</time></trkpt><trkpt lat="44.0752115316851" lon="7.945860186395244"><ele>912.9999999999999</ele><time>2026-05-03T13:54:16Z</time></trkpt><trkpt lat="44.075135707328336" lon="7.9458874034007145"><ele>912.9999999999999</ele><time>2026-05-03T13:54:17Z</time></trkpt><trkpt lat="44.07506060563887" lon="7.945914989563276"><ele>913.0</ele><time>2026-05-03T13:54:18Z</time></trkpt><trkpt lat="44.07498680072685" lon="7.945931638225585"><ele>912.9999999999999</ele><time>2026-05-03T13:54:19Z</time></trkpt><trkpt lat="44.07491898932785" lon="7.945947047183319"><ele>912.9999999999999</ele><time>2026-05-03T13:54:20Z</time></trkpt><trkpt lat="44.07486076268895" lon="7.945982123196991"><ele>906.0</ele><time>2026-05-03T13:54:21Z</time></trkpt><trkpt lat="44.074769182266074" lon="7.945950463369632"><ele>899.0</ele><time>2026-05-03T13:54:23Z</time></trkpt><trkpt lat="44.074697617884055" lon="7.945917407243912"><ele>892.0</ele><time>2026-05-03T13:54:24Z</time></trkpt><trkpt lat="44.07457872424259" lon="7.945898280094899"><ele>885.0</ele><time>2026-05-03T13:54:26Z</time></trkpt><trkpt lat="44.07446944209561" lon="7.945985038860649"><ele>878.0</ele><time>2026-05-03T13:54:28Z</time></trkpt><trkpt lat="44.07437652745006" lon="7.946048867751861"><ele>878.0000000000001</ele><time>2026-05-03T13:54:30Z</time></trkpt><trkpt lat="44.07428546483388" lon="7.9460572201687"><ele>878.0</ele><time>2026-05-03T13:54:32Z</time></trkpt><trkpt lat="44.07421690405104" lon="7.946052744073229"><ele>878.0</ele><time>2026-05-03T13:54:33Z</time></trkpt><trkpt lat="44.074129623214034" lon="7.946051795140989"><ele>878.0</ele><time>2026-05-03T13:54:34Z</time></trkpt><trkpt lat="44.074044130889895" lon="7.946067328372897"><ele>878.0000000000001</ele><time>2026-05-03T13:54:35Z</time></trkpt><trkpt lat="44.073949327577616" lon="7.946082714523523"><ele>878.0</ele><time>2026-05-03T13:54:36Z</time></trkpt><trkpt lat="44.07387188920829" lon="7.946102167798968"><ele>879.5714285714286</ele><time>2026-05-03T13:54:37Z</time></trkpt><trkpt lat="44.073800978146444" lon="7.946119948478878"><ele>881.1428571428571</ele><time>2026-05-03T13:54:38Z</time></trkpt><trkpt lat="44.07373792037957" lon="7.946156501611405"><ele>882.7142857142858</ele><time>2026-05-03T13:54:39Z</time></trkpt><trkpt lat="44.073680151709155" lon="7.94621569613061"><ele>884.2857142857142</ele><time>2026-05-03T13:54:40Z</time></trkpt><trkpt lat="44.073632917291036" lon="7.946285945385862"><ele>885.8571428571429</ele><time>2026-05-03T13:54:41Z</time></trkpt><trkpt lat="44.073571342118754" lon="7.946340149001632"><ele>887.4285714285714</ele><time>2026-05-03T13:54:42Z</time></trkpt><trkpt lat="44.0735188163349" lon="7.946392556714572"><ele>889.0</ele><time>2026-05-03T13:54:43Z</time></trkpt><trkpt lat="44.07345175818191" lon="7.9464239398009004"><ele>889.0</ele><time>2026-05-03T13:54:44Z</time></trkpt><trkpt lat="44.07337835225573" lon="7.9464417141058865"><ele>889.0000000000001</ele><time>2026-05-03T13:54:45Z</time></trkpt><trkpt lat="44.073300995359915" lon="7.946458010935837"><ele>889.0000000000001</ele><time>2026-05-03T13:54:46Z</time></trkpt><trkpt lat="44.07323675024897" lon="7.946524071119474"><ele>889.0</ele><time>2026-05-03T13:54:47Z</time></trkpt><trkpt lat="44.07317303705861" lon="7.946603153129158"><ele>889.0</ele><time>2026-05-03T13:54:48Z</time></trkpt><trkpt lat="44.073031560482136" lon="7.946666425919877"><ele>885.0</ele><time>2026-05-03T13:54:50Z</time></trkpt><trkpt lat="44.07294142281673" lon="7.946692701861405"><ele>881.0000000000001</ele><time>2026-05-03T13:54:51Z</time></trkpt><trkpt lat="44.07285651229488" lon="7.946748953284372"><ele>877.0000000000001</ele><time>2026-05-03T13:54:52Z</time></trkpt><trkpt lat="44.072756916693024" lon="7.946764714096482"><ele>873.0</ele><time>2026-05-03T13:54:54Z</time></trkpt><trkpt lat="44.07263813612093" lon="7.946707471475364"><ele>869.0</ele><time>2026-05-03T13:54:56Z</time></trkpt><trkpt lat="44.07252945076156" lon="7.946687350186721"><ele>874.6666666666667</ele><time>2026-05-03T13:54:58Z</time></trkpt><trkpt lat="44.07245288824433" lon="7.9467103899263"><ele>880.3333333333334</ele><time>2026-05-03T13:54:59Z</time></trkpt><trkpt lat="44.072376794427896" lon="7.946773388338253"><ele>886.0</ele><time>2026-05-03T13:55:00Z</time></trkpt><trkpt lat="44.07229415486611" lon="7.946832087531741"><ele>891.6666666666667</ele><time>2026-05-03T13:55:01Z</time></trkpt><trkpt lat="44.07222736855325" lon="7.9469052834786575"><ele>897.3333333333334</ele><time>2026-05-03T13:55:02Z</time></trkpt><trkpt lat="44.072185302815726" lon="7.946972058020665"><ele>903.0</ele><time>2026-05-03T13:55:03Z</time></trkpt><trkpt lat="44.07216309612293" lon="7.947061853655518"><ele>903.0</ele><time>2026-05-03T13:55:04Z</time></trkpt><trkpt lat="44.07212041087271" lon="7.947130408850098"><ele>903.0</ele><time>2026-05-03T13:55:05Z</time></trkpt><trkpt lat="44.07203743319767" lon="7.9472516573889775"><ele>903.0</ele><time>2026-05-03T13:55:07Z</time></trkpt><trkpt lat="44.07198127013615" lon="7.94731768009555"><ele>903.0</ele><time>2026-05-03T13:55:08Z</time></trkpt><trkpt lat="44.07191426270618" lon="7.947403585210077"><ele>903.0</ele><time>2026-05-03T13:55:09Z</time></trkpt><trkpt lat="44.071847781780676" lon="7.947498801153674"><ele>903.0</ele><time>2026-05-03T13:55:10Z</time></trkpt><trkpt lat="44.07178927332781" lon="7.947536834209803"><ele>898.1666666666666</ele><time>2026-05-03T13:55:11Z</time></trkpt><trkpt lat="44.07173439843857" lon="7.947580215836552"><ele>893.3333333333333</ele><time>2026-05-03T13:55:12Z</time></trkpt><trkpt lat="44.07169797610866" lon="7.947670239306155"><ele>888.5</ele><time>2026-05-03T13:55:13Z</time></trkpt><trkpt lat="44.07165955483416" lon="7.947804813782107"><ele>883.6666666666666</ele><time>2026-05-03T13:55:15Z</time></trkpt><trkpt lat="44.071600248343245" lon="7.947836557226774"><ele>878.8333333333333</ele><time>2026-05-03T13:55:16Z</time></trkpt><trkpt lat="44.07152396106118" lon="7.947869019536043"><ele>874.0</ele><time>2026-05-03T13:55:17Z</time></trkpt><trkpt lat="44.07145283705711" lon="7.947894558227719"><ele>873.9999999999999</ele><time>2026-05-03T13:55:18Z</time></trkpt><trkpt lat="44.07138255180478" lon="7.94791024125361"><ele>874.0</ele><time>2026-05-03T13:55:19Z</time></trkpt><trkpt lat="44.071296302063885" lon="7.947893819953144"><ele>874.0</ele><time>2026-05-03T13:55:20Z</time></trkpt><trkpt lat="44.07120796808476" lon="7.94789203235019"><ele>874.0</ele><time>2026-05-03T13:55:21Z</time></trkpt><trkpt lat="44.07112561473593" lon="7.947914755631279"><ele>873.9999999999999</ele><time>2026-05-03T13:55:22Z</time></trkpt><trkpt lat="44.07104343227999" lon="7.9479328369200495"><ele>874.0</ele><time>2026-05-03T13:55:23Z</time></trkpt><trkpt lat="44.070960968691445" lon="7.947937888904106"><ele>874.0</ele><time>2026-05-03T13:55:24Z</time></trkpt><trkpt lat="44.07088079818578" lon="7.947951062923066"><ele>874.0</ele><time>2026-05-03T13:55:25Z</time></trkpt><trkpt lat="44.07081389496527" lon="7.947955917363429"><ele>874.0</ele><time>2026-05-03T13:55:26Z</time></trkpt><trkpt lat="44.07074877554423" lon="7.9479390380062425"><ele>874.0</ele><time>2026-05-03T13:55:27Z</time></trkpt><trkpt lat="44.07067094968096" lon="7.947914184643005"><ele>874.0</ele><time>2026-05-03T13:55:28Z</time></trkpt><trkpt lat="44.07059810942825" lon="7.947890390805246"><ele>874.0</ele><time>2026-05-03T13:55:29Z</time></trkpt><trkpt lat="44.07053384012681" lon="7.947858296066287"><ele>874.0</ele><time>2026-05-03T13:55:30Z</time></trkpt><trkpt lat="44.07039192186514" lon="7.947823520126361"><ele>875.6666666666666</ele><time>2026-05-03T13:55:32Z</time></trkpt><trkpt lat="44.07030785201879" lon="7.9477858049216366"><ele>877.3333333333333</ele><time>2026-05-03T13:55:33Z</time></trkpt><trkpt lat="44.07022398240357" lon="7.947734943003535"><ele>879.0</ele><time>2026-05-03T13:55:34Z</time></trkpt><trkpt lat="44.070159861618556" lon="7.947694424757805"><ele>880.6666666666667</ele><time>2026-05-03T13:55:35Z</time></trkpt><trkpt lat="44.070102024403" lon="7.9476436602308045"><ele>882.3333333333334</ele><time>2026-05-03T13:55:36Z</time></trkpt><trkpt lat="44.07001711986969" lon="7.947513220734268"><ele>884.0</ele><time>2026-05-03T13:55:38Z</time></trkpt><trkpt lat="44.069974025983356" lon="7.947405851401342"><ele>877.8000000000001</ele><time>2026-05-03T13:55:39Z</time></trkpt><trkpt lat="44.06992586674055" lon="7.947293538416841"><ele>871.6000000000001</ele><time>2026-05-03T13:55:40Z</time></trkpt><trkpt lat="44.06987359393717" lon="7.94717809898006"><ele>865.4</ele><time>2026-05-03T13:55:41Z</time></trkpt><trkpt lat="44.06983213996937" lon="7.94707332308262"><ele>859.2</ele><time>2026-05-03T13:55:42Z</time></trkpt><trkpt lat="44.06979156965157" lon="7.946992872734345"><ele>853.0</ele><time>2026-05-03T13:55:43Z</time></trkpt><trkpt lat="44.06975250679066" lon="7.946836127640586"><ele>855.5999999999999</ele><time>2026-05-03T13:55:45Z</time></trkpt><trkpt lat="44.06976484981472" lon="7.946680962196135"><ele>858.1999999999999</ele><time>2026-05-03T13:55:47Z</time></trkpt><trkpt lat="44.06979559341145" lon="7.946540108595028"><ele>860.8</ele><time>2026-05-03T13:55:49Z</time></trkpt><trkpt lat="44.06970097807909" lon="7.946428920596788"><ele>863.4</ele><time>2026-05-03T13:55:51Z</time></trkpt><trkpt lat="44.06963079477387" lon="7.946410750687453"><ele>866.0</ele><time>2026-05-03T13:55:52Z</time></trkpt><trkpt lat="44.069570869473196" lon="7.946354712174779"><ele>866.0000000000001</ele><time>2026-05-03T13:55:53Z</time></trkpt><trkpt lat="44.06951640785786" lon="7.946273850712905"><ele>866.0</ele><time>2026-05-03T13:55:54Z</time></trkpt><trkpt lat="44.069465037770705" lon="7.946188536079101"><ele>866.0</ele><time>2026-05-03T13:55:55Z</time></trkpt><trkpt lat="44.06941687407893" lon="7.946121712496281"><ele>866.0</ele><time>2026-05-03T13:55:56Z</time></trkpt><trkpt lat="44.069365822599686" lon="7.945987980224708"><ele>866.0000000000001</ele><time>2026-05-03T13:55:58Z</time></trkpt><trkpt lat="44.069357798469845" lon="7.945896243877023"><ele>866.0</ele><time>2026-05-03T13:55:59Z</time></trkpt><trkpt lat="44.0693511150217" lon="7.945788516547963"><ele>868.1666666666667</ele><time>2026-05-03T13:56:00Z</time></trkpt><trkpt lat="44.069305930842376" lon="7.9457212043521634"><ele>870.3333333333334</ele><time>2026-05-03T13:56:01Z</time></trkpt><trkpt lat="44.06923876520793" lon="7.945674212369615"><ele>872.5</ele><time>2026-05-03T13:56:02Z</time></trkpt><trkpt lat="44.06916753769437" lon="7.945638133385454"><ele>874.6666666666667</ele><time>2026-05-03T13:56:03Z</time></trkpt><trkpt lat="44.06909912108689" lon="7.94561492391629"><ele>876.8333333333334</ele><time>2026-05-03T13:56:04Z</time></trkpt><trkpt lat="44.06902214984211" lon="7.94561865037015"><ele>879.0</ele><time>2026-05-03T13:56:05Z</time></trkpt><trkpt lat="44.0688931035661" lon="7.945608549008054"><ele>876.4000000000001</ele><time>2026-05-03T13:56:07Z</time></trkpt><trkpt lat="44.068832463354425" lon="7.945566300641697"><ele>873.8000000000001</ele><time>2026-05-03T13:56:08Z</time></trkpt><trkpt lat="44.068745746500696" lon="7.9454454505870915"><ele>871.1999999999999</ele><time>2026-05-03T13:56:10Z</time></trkpt><trkpt lat="44.0687188473398" lon="7.945276898197698"><ele>868.5999999999999</ele><time>2026-05-03T13:56:12Z</time></trkpt><trkpt lat="44.06871859577765" lon="7.945181074595424"><ele>866.0</ele><time>2026-05-03T13:56:13Z</time></trkpt><trkpt lat="44.068715481633944" lon="7.945041734086415"><ele>866.0000000000001</ele><time>2026-05-03T13:56:15Z</time></trkpt><trkpt lat="44.068711353177626" lon="7.944932245576215"><ele>866.0</ele><time>2026-05-03T13:56:17Z</time></trkpt><trkpt lat="44.068645086326164" lon="7.944805125163607"><ele>866.0</ele><time>2026-05-03T13:56:19Z</time></trkpt><trkpt lat="44.06859916682552" lon="7.944731267240304"><ele>866.0</ele><time>2026-05-03T13:56:20Z</time></trkpt><trkpt lat="44.068552380999385" lon="7.944665761607301"><ele>866.0000000000001</ele><time>2026-05-03T13:56:21Z</time></trkpt><trkpt lat="44.06849523563623" lon="7.944620276932479"><ele>866.0</ele><time>2026-05-03T13:56:22Z</time></trkpt><trkpt lat="44.06843223004453" lon="7.944580136425812"><ele>866.0000000000001</ele><time>2026-05-03T13:56:23Z</time></trkpt><trkpt lat="44.068359673329375" lon="7.944562411513754"><ele>866.0</ele><time>2026-05-03T13:56:24Z</time></trkpt><trkpt lat="44.06829556533828" lon="7.944568908237352"><ele>866.0</ele><time>2026-05-03T13:56:25Z</time></trkpt><trkpt lat="44.06819039889758" lon="7.944554196355432"><ele>866.0</ele><time>2026-05-03T13:56:27Z</time></trkpt><trkpt lat="44.06810857640252" lon="7.9444944531010755"><ele>866.0000000000001</ele><time>2026-05-03T13:56:29Z</time></trkpt><trkpt lat="44.0680329330853" lon="7.944391185021331"><ele>866.0</ele><time>2026-05-03T13:56:31Z</time></trkpt><trkpt lat="44.06796878649552" lon="7.944405502866157"><ele>863.4</ele><time>2026-05-03T13:56:33Z</time></trkpt><trkpt lat="44.067877319415956" lon="7.944434452195596"><ele>860.8</ele><time>2026-05-03T13:56:36Z</time></trkpt><trkpt lat="44.06779710527641" lon="7.944418568095191"><ele>858.1999999999999</ele><time>2026-05-03T13:56:39Z</time></trkpt><trkpt lat="44.06767857081493" lon="7.944447514241355"><ele>855.5999999999999</ele><time>2026-05-03T13:56:41Z</time></trkpt><trkpt lat="44.06761871588964" lon="7.94447677330502"><ele>853.0</ele><time>2026-05-03T13:56:42Z</time></trkpt><trkpt lat="44.06752016499508" lon="7.944503875565144"><ele>852.9999999999999</ele><time>2026-05-03T13:56:44Z</time></trkpt><trkpt lat="44.067457461116504" lon="7.944525799811244"><ele>853.0</ele><time>2026-05-03T13:56:45Z</time></trkpt><trkpt lat="44.067398092521465" lon="7.944570203134145"><ele>853.0</ele><time>2026-05-03T13:56:46Z</time></trkpt><trkpt lat="44.0673300502292" lon="7.944629402329019"><ele>853.0</ele><time>2026-05-03T13:56:47Z</time></trkpt><trkpt lat="44.067266306055686" lon="7.94467954646942"><ele>852.9999999999999</ele><time>2026-05-03T13:56:48Z</time></trkpt><trkpt lat="44.06720945410391" lon="7.94473813535263"><ele>853.0</ele><time>2026-05-03T13:56:49Z</time></trkpt><trkpt lat="44.067111651280044" lon="7.9447726515564705"><ele>854.6666666666666</ele><time>2026-05-03T13:56:51Z</time></trkpt><trkpt lat="44.06704427179678" lon="7.944793548773066"><ele>856.3333333333333</ele><time>2026-05-03T13:56:52Z</time></trkpt><trkpt lat="44.066975776406274" lon="7.944817287234923"><ele>858.0</ele><time>2026-05-03T13:56:53Z</time></trkpt><trkpt lat="44.06690673102701" lon="7.944834543206534"><ele>859.6666666666667</ele><time>2026-05-03T13:56:54Z</time></trkpt><trkpt lat="44.06679133991178" lon="7.944855294388432"><ele>861.3333333333334</ele><time>2026-05-03T13:56:56Z</time></trkpt><trkpt lat="44.06668304503831" lon="7.944901418875264"><ele>863.0</ele><time>2026-05-03T13:56:58Z</time></trkpt><trkpt lat="44.06657877914955" lon="7.9449424519382745"><ele>865.8</ele><time>2026-05-03T13:57:00Z</time></trkpt><trkpt lat="44.066475988348465" lon="7.945000295058584"><ele>868.5999999999999</ele><time>2026-05-03T13:57:02Z</time></trkpt><trkpt lat="44.06637323017964" lon="7.945071617566768"><ele>871.4000000000001</ele><time>2026-05-03T13:57:04Z</time></trkpt><trkpt lat="44.06628088234013" lon="7.945105802287295"><ele>874.2</ele><time>2026-05-03T13:57:06Z</time></trkpt><trkpt lat="44.06615610262886" lon="7.94508542903136"><ele>877.0</ele><time>2026-05-03T13:57:08Z</time></trkpt><trkpt lat="44.06609276326695" lon="7.945080848147134"><ele>874.5714285714287</ele><time>2026-05-03T13:57:09Z</time></trkpt><trkpt lat="44.06602553492381" lon="7.945101388647205"><ele>872.1428571428571</ele><time>2026-05-03T13:57:10Z</time></trkpt><trkpt lat="44.065959723913295" lon="7.945121342868868"><ele>869.7142857142858</ele><time>2026-05-03T13:57:11Z</time></trkpt><trkpt lat="44.06589758525451" lon="7.945150603549731"><ele>867.2857142857143</ele><time>2026-05-03T13:57:12Z</time></trkpt><trkpt lat="44.06583095296746" lon="7.945187753287009"><ele>864.8571428571429</ele><time>2026-05-03T13:57:13Z</time></trkpt><trkpt lat="44.06576377515251" lon="7.945238775461801"><ele>862.4285714285714</ele><time>2026-05-03T13:57:14Z</time></trkpt><trkpt lat="44.06570527584887" lon="7.9452786389238454"><ele>860.0</ele><time>2026-05-03T13:57:15Z</time></trkpt><trkpt lat="44.065624309087724" lon="7.945358969798039"><ele>860.0</ele><time>2026-05-03T13:57:17Z</time></trkpt><trkpt lat="44.0655592438268" lon="7.9453956897162215"><ele>860.0</ele><time>2026-05-03T13:57:18Z</time></trkpt><trkpt lat="44.06548098085916" lon="7.945436881652368"><ele>860.0</ele><time>2026-05-03T13:57:19Z</time></trkpt><trkpt lat="44.06541439739656" lon="7.945470489830345"><ele>860.0</ele><time>2026-05-03T13:57:20Z</time></trkpt><trkpt lat="44.06535372650871" lon="7.945505334090458"><ele>860.0</ele><time>2026-05-03T13:57:21Z</time></trkpt><trkpt lat="44.06528364855089" lon="7.9455595426557535"><ele>860.0</ele><time>2026-05-03T13:57:22Z</time></trkpt><trkpt lat="44.06522093373105" lon="7.945618181294213"><ele>860.0</ele><time>2026-05-03T13:57:23Z</time></trkpt><trkpt lat="44.06515757940409" lon="7.945682440625113"><ele>860.0000000000001</ele><time>2026-05-03T13:57:24Z</time></trkpt><trkpt lat="44.06509565608075" lon="7.94573668612919"><ele>860.0</ele><time>2026-05-03T13:57:25Z</time></trkpt><trkpt lat="44.06503222306177" lon="7.945799788335888"><ele>860.0</ele><time>2026-05-03T13:57:26Z</time></trkpt><trkpt lat="44.06497974262843" lon="7.945852698807651"><ele>860.0</ele><time>2026-05-03T13:57:27Z</time></trkpt><trkpt lat="44.064877202016234" lon="7.945903933321827"><ele>860.0000000000001</ele><time>2026-05-03T13:57:29Z</time></trkpt><trkpt lat="44.064793646401576" lon="7.945993341492928"><ele>860.0</ele><time>2026-05-03T13:57:31Z</time></trkpt><trkpt lat="44.06473622862232" lon="7.946110540731968"><ele>853.2</ele><time>2026-05-03T13:57:33Z</time></trkpt><trkpt lat="44.06466450652159" lon="7.946148762349834"><ele>846.4</ele><time>2026-05-03T13:57:35Z</time></trkpt><trkpt lat="44.064555374991414" lon="7.9461191581163675"><ele>839.5999999999999</ele><time>2026-05-03T13:57:37Z</time></trkpt><trkpt lat="44.064490441457764" lon="7.9460816996024635"><ele>832.8</ele><time>2026-05-03T13:57:39Z</time></trkpt><trkpt lat="44.06438999429202" lon="7.946047831164046"><ele>826.0</ele><time>2026-05-03T13:57:41Z</time></trkpt><trkpt lat="44.06433204868691" lon="7.945953143314523"><ele>830.5999999999999</ele><time>2026-05-03T13:57:43Z</time></trkpt><trkpt lat="44.06431317517369" lon="7.945868563378022"><ele>835.2</ele><time>2026-05-03T13:57:44Z</time></trkpt><trkpt lat="44.06434011145787" lon="7.945736801531241"><ele>839.8</ele><time>2026-05-03T13:57:46Z</time></trkpt><trkpt lat="44.06432549541397" lon="7.945600582478281"><ele>844.4000000000001</ele><time>2026-05-03T13:57:48Z</time></trkpt><trkpt lat="44.064230799845376" lon="7.945494453334891"><ele>849.0</ele><time>2026-05-03T13:57:50Z</time></trkpt><trkpt lat="44.064168222137795" lon="7.945392858654916"><ele>850.0</ele><time>2026-05-03T13:57:52Z</time></trkpt><trkpt lat="44.06407116521888" lon="7.945153351337352"><ele>851.0</ele><time>2026-05-03T13:57:55Z</time></trkpt><trkpt lat="44.06405015647348" lon="7.945062146329225"><ele>852.0</ele><time>2026-05-03T13:57:56Z</time></trkpt><trkpt lat="44.064076942572356" lon="7.9448949643832485"><ele>853.0</ele><time>2026-05-03T13:57:58Z</time></trkpt><trkpt lat="44.06411756228325" lon="7.944823796945924"><ele>852.9999999999999</ele><time>2026-05-03T13:57:59Z</time></trkpt><trkpt lat="44.064152577011185" lon="7.944748546101269"><ele>853.0</ele><time>2026-05-03T13:58:00Z</time></trkpt><trkpt lat="44.06419102544652" lon="7.944659648549272"><ele>853.0</ele><time>2026-05-03T13:58:01Z</time></trkpt><trkpt lat="44.064195846747026" lon="7.944497289917243"><ele>853.0</ele><time>2026-05-03T13:58:03Z</time></trkpt><trkpt lat="44.064154756955844" lon="7.944414441171841"><ele>852.9999999999999</ele><time>2026-05-03T13:58:04Z</time></trkpt><trkpt lat="44.06409472543215" lon="7.944359804238353"><ele>853.0</ele><time>2026-05-03T13:58:05Z</time></trkpt><trkpt lat="44.06399985319973" lon="7.94421787452506"><ele>848.9999999999999</ele><time>2026-05-03T13:58:07Z</time></trkpt><trkpt lat="44.06394644546348" lon="7.944105574956763"><ele>845.0</ele><time>2026-05-03T13:58:08Z</time></trkpt><trkpt lat="44.0638904883769" lon="7.944003528034553"><ele>841.0</ele><time>2026-05-03T13:58:09Z</time></trkpt><trkpt lat="44.063829313177344" lon="7.943900083404235"><ele>837.0</ele><time>2026-05-03T13:58:10Z</time></trkpt><trkpt lat="44.06377632500064" lon="7.9438156858553155"><ele>832.9999999999999</ele><time>2026-05-03T13:58:11Z</time></trkpt><trkpt lat="44.06371905512411" lon="7.943741577675112"><ele>829.0</ele><time>2026-05-03T13:58:12Z</time></trkpt><trkpt lat="44.0636229064961" lon="7.943622709460573"><ele>829.0</ele><time>2026-05-03T13:58:14Z</time></trkpt><trkpt lat="44.06361626333621" lon="7.943531127942179"><ele>829.0</ele><time>2026-05-03T13:58:15Z</time></trkpt><trkpt lat="44.06359514873179" lon="7.943429247663798"><ele>829.0</ele><time>2026-05-03T13:58:16Z</time></trkpt><trkpt lat="44.06351103907343" lon="7.9432847296639"><ele>829.0</ele><time>2026-05-03T13:58:18Z</time></trkpt><trkpt lat="44.06341612757793" lon="7.943227517451352"><ele>829.0</ele><time>2026-05-03T13:58:19Z</time></trkpt><trkpt lat="44.063328756887884" lon="7.943174655493693"><ele>826.0</ele><time>2026-05-03T13:58:20Z</time></trkpt><trkpt lat="44.06326937959845" lon="7.943127596557715"><ele>823.0</ele><time>2026-05-03T13:58:21Z</time></trkpt><trkpt lat="44.06319707119346" lon="7.943074507300425"><ele>820.0</ele><time>2026-05-03T13:58:22Z</time></trkpt><trkpt lat="44.06314003193132" lon="7.9430086777724025"><ele>817.0</ele><time>2026-05-03T13:58:23Z</time></trkpt><trkpt lat="44.063056348234674" lon="7.942905246979624"><ele>814.0</ele><time>2026-05-03T13:58:25Z</time></trkpt><trkpt lat="44.06299074387745" lon="7.942735410639288"><ele>813.9999999999999</ele><time>2026-05-03T13:58:27Z</time></trkpt><trkpt lat="44.06298300573817" lon="7.942641431071196"><ele>814.0</ele><time>2026-05-03T13:58:28Z</time></trkpt><trkpt lat="44.062951675566225" lon="7.942479788963873"><ele>814.0</ele><time>2026-05-03T13:58:30Z</time></trkpt><trkpt lat="44.06290579873412" lon="7.942380106744095"><ele>814.0</ele><time>2026-05-03T13:58:31Z</time></trkpt><trkpt lat="44.06286948296172" lon="7.942290571112755"><ele>813.9999999999999</ele><time>2026-05-03T13:58:32Z</time></trkpt><trkpt lat="44.06285163745251" lon="7.942182017043382"><ele>814.0</ele><time>2026-05-03T13:58:33Z</time></trkpt><trkpt lat="44.06284496931693" lon="7.941977541854949"><ele>815.8333333333333</ele><time>2026-05-03T13:58:35Z</time></trkpt><trkpt lat="44.06284839285391" lon="7.941870235516049"><ele>817.6666666666666</ele><time>2026-05-03T13:58:36Z</time></trkpt><trkpt lat="44.06286389024436" lon="7.94176362900355"><ele>819.5</ele><time>2026-05-03T13:58:37Z</time></trkpt><trkpt lat="44.06283190086548" lon="7.941600488433232"><ele>821.3333333333333</ele><time>2026-05-03T13:58:39Z</time></trkpt><trkpt lat="44.06278304010036" lon="7.941525630348838"><ele>823.1666666666666</ele><time>2026-05-03T13:58:40Z</time></trkpt><trkpt lat="44.0627175131569" lon="7.941513185352104"><ele>825.0</ele><time>2026-05-03T13:58:42Z</time></trkpt><trkpt lat="44.06266201105624" lon="7.941459008160562"><ele>827.5</ele><time>2026-05-03T13:59:03Z</time></trkpt><trkpt lat="44.06256077480453" lon="7.941464150388573"><ele>830.0</ele><time>2026-05-03T13:59:05Z</time></trkpt><trkpt lat="44.06249967279412" lon="7.941406167367095"><ele>832.5</ele><time>2026-05-03T13:59:07Z</time></trkpt><trkpt lat="44.06245780440269" lon="7.941300149312055"><ele>835.0</ele><time>2026-05-03T13:59:09Z</time></trkpt><trkpt lat="44.06240981669235" lon="7.941212432069869"><ele>837.5</ele><time>2026-05-03T13:59:11Z</time></trkpt><trkpt lat="44.062415908124066" lon="7.941083479887671"><ele>840.0</ele><time>2026-05-03T13:59:13Z</time></trkpt><trkpt lat="44.062422300043366" lon="7.940970316628644"><ele>839.0</ele><time>2026-05-03T13:59:15Z</time></trkpt><trkpt lat="44.06242633304667" lon="7.940856726644517"><ele>838.0</ele><time>2026-05-03T13:59:17Z</time></trkpt><trkpt lat="44.062379707835966" lon="7.940743960857932"><ele>837.0</ele><time>2026-05-03T13:59:19Z</time></trkpt><trkpt lat="44.06229825338343" lon="7.94069060626002"><ele>836.0</ele><time>2026-05-03T13:59:22Z</time></trkpt><trkpt lat="44.06222851564457" lon="7.940749067252595"><ele>835.0</ele><time>2026-05-03T13:59:24Z</time></trkpt><trkpt lat="44.06216697652359" lon="7.940777569382698"><ele>834.0</ele><time>2026-05-03T13:59:25Z</time></trkpt><trkpt lat="44.062076316894576" lon="7.940828146065351"><ele>834.0</ele><time>2026-05-03T13:59:27Z</time></trkpt><trkpt lat="44.061976970948365" lon="7.940873832003553"><ele>834.0</ele><time>2026-05-03T13:59:29Z</time></trkpt><trkpt lat="44.061865708025266" lon="7.940845732259514"><ele>834.0</ele><time>2026-05-03T13:59:31Z</time></trkpt><trkpt lat="44.0617788923727" lon="7.940764030863645"><ele>834.0</ele><time>2026-05-03T13:59:33Z</time></trkpt><trkpt lat="44.061686694136455" lon="7.9406471810693695"><ele>834.0</ele><time>2026-05-03T13:59:35Z</time></trkpt><trkpt lat="44.061631233144034" lon="7.940586684489112"><ele>833.0</ele><time>2026-05-03T13:59:36Z</time></trkpt><trkpt lat="44.061558743379635" lon="7.940451194209594"><ele>832.0</ele><time>2026-05-03T13:59:38Z</time></trkpt><trkpt lat="44.06152185577373" lon="7.940363506317254"><ele>831.0</ele><time>2026-05-03T13:59:39Z</time></trkpt><trkpt lat="44.06148856365946" lon="7.940284101015871"><ele>830.0</ele><time>2026-05-03T13:59:40Z</time></trkpt><trkpt lat="44.06144746300683" lon="7.940192059317121"><ele>829.0</ele><time>2026-05-03T13:59:41Z</time></trkpt><trkpt lat="44.061396970493945" lon="7.940088906066964"><ele>828.0</ele><time>2026-05-03T13:59:42Z</time></trkpt><trkpt lat="44.061351769241156" lon="7.940009419004241"><ele>828.0</ele><time>2026-05-03T13:59:43Z</time></trkpt><trkpt lat="44.06128345395386" lon="7.9398954534625"><ele>828.0</ele><time>2026-05-03T13:59:45Z</time></trkpt><trkpt lat="44.06122294313461" lon="7.939854230618709"><ele>828.0</ele><time>2026-05-03T13:59:46Z</time></trkpt><trkpt lat="44.06114809180313" lon="7.939813862074898"><ele>828.0</ele><time>2026-05-03T13:59:47Z</time></trkpt><trkpt lat="44.0610829830496" lon="7.939792289100405"><ele>828.0</ele><time>2026-05-03T13:59:48Z</time></trkpt><trkpt lat="44.06101638785577" lon="7.939768400389693"><ele>828.0</ele><time>2026-05-03T13:59:49Z</time></trkpt><trkpt lat="44.06094808307811" lon="7.9397491517626815"><ele>828.0000000000001</ele><time>2026-05-03T13:59:50Z</time></trkpt><trkpt lat="44.06088384992356" lon="7.9397267322119145"><ele>828.0</ele><time>2026-05-03T13:59:51Z</time></trkpt><trkpt lat="44.060817143511436" lon="7.939699546887814"><ele>828.0</ele><time>2026-05-03T13:59:52Z</time></trkpt><trkpt lat="44.060754916337864" lon="7.939667921596"><ele>828.0</ele><time>2026-05-03T13:59:53Z</time></trkpt><trkpt lat="44.060695204563864" lon="7.939612754401397"><ele>828.0</ele><time>2026-05-03T13:59:54Z</time></trkpt><trkpt lat="44.060621179641096" lon="7.939568548541595"><ele>828.0000000000001</ele><time>2026-05-03T13:59:55Z</time></trkpt><trkpt lat="44.060559318096026" lon="7.939551966521382"><ele>828.0</ele><time>2026-05-03T13:59:56Z</time></trkpt><trkpt lat="44.060448558793574" lon="7.939491703427021"><ele>823.8333333333334</ele><time>2026-05-03T13:59:58Z</time></trkpt><trkpt lat="44.0603911909515" lon="7.939435719936596"><ele>819.6666666666667</ele><time>2026-05-03T13:59:59Z</time></trkpt><trkpt lat="44.06033561392918" lon="7.939386885297435"><ele>815.5</ele><time>2026-05-03T14:00:00Z</time></trkpt><trkpt lat="44.0602791624066" lon="7.939336791815047"><ele>811.3333333333334</ele><time>2026-05-03T14:00:01Z</time></trkpt><trkpt lat="44.06017166094976" lon="7.939271765348249"><ele>807.1666666666667</ele><time>2026-05-03T14:00:03Z</time></trkpt><trkpt lat="44.06005962290079" lon="7.9392503643553445"><ele>803.0</ele><time>2026-05-03T14:00:05Z</time></trkpt><trkpt lat="44.05998838593437" lon="7.9392441996784875"><ele>803.8</ele><time>2026-05-03T14:00:06Z</time></trkpt><trkpt lat="44.059864961486674" lon="7.939230713738764"><ele>804.5999999999999</ele><time>2026-05-03T14:00:08Z</time></trkpt><trkpt lat="44.059772275208466" lon="7.93915086773135"><ele>805.4000000000001</ele><time>2026-05-03T14:00:10Z</time></trkpt><trkpt lat="44.05972100303522" lon="7.939025459923294"><ele>806.2</ele><time>2026-05-03T14:00:12Z</time></trkpt><trkpt lat="44.05970378680277" lon="7.938938238427343"><ele>807.0</ele><time>2026-05-03T14:00:13Z</time></trkpt><trkpt lat="44.05966818535108" lon="7.938863419693572"><ele>807.0</ele><time>2026-05-03T14:00:14Z</time></trkpt><trkpt lat="44.05960489673678" lon="7.938748460722065"><ele>807.0</ele><time>2026-05-03T14:00:16Z</time></trkpt><trkpt lat="44.05949178996806" lon="7.938664771771212"><ele>807.0</ele><time>2026-05-03T14:00:18Z</time></trkpt><trkpt lat="44.059397294769724" lon="7.938588770913729"><ele>807.0</ele><time>2026-05-03T14:00:20Z</time></trkpt><trkpt lat="44.059292060237084" lon="7.938535149576334"><ele>807.0</ele><time>2026-05-03T14:00:22Z</time></trkpt><trkpt lat="44.05920692329803" lon="7.938501675133249"><ele>807.0</ele><time>2026-05-03T14:00:24Z</time></trkpt><trkpt lat="44.0591504358015" lon="7.938421706485614"><ele>807.0</ele><time>2026-05-03T14:00:26Z</time></trkpt><trkpt lat="44.059097498492235" lon="7.938336929724632"><ele>807.0</ele><time>2026-05-03T14:00:28Z</time></trkpt><trkpt lat="44.05901274312537" lon="7.938323372251025"><ele>807.0</ele><time>2026-05-03T14:00:30Z</time></trkpt><trkpt lat="44.058924634302336" lon="7.938303874825943"><ele>807.0</ele><time>2026-05-03T14:00:33Z</time></trkpt><trkpt lat="44.058730043015146" lon="7.9380215902663736"><ele>806.6666666666666</ele><time>2026-05-03T14:00:37Z</time></trkpt><trkpt lat="44.05861956470102" lon="7.9379419433839615"><ele>806.3333333333333</ele><time>2026-05-03T14:00:39Z</time></trkpt><trkpt lat="44.058541968370626" lon="7.937890391931782"><ele>806.0</ele><time>2026-05-03T14:00:40Z</time></trkpt><trkpt lat="44.05846523988931" lon="7.937841573773323"><ele>805.6666666666666</ele><time>2026-05-03T14:00:41Z</time></trkpt><trkpt lat="44.05839659239442" lon="7.937804553644569"><ele>805.3333333333333</ele><time>2026-05-03T14:00:42Z</time></trkpt><trkpt lat="44.05832393322984" lon="7.937766855081333"><ele>805.0</ele><time>2026-05-03T14:00:43Z</time></trkpt><trkpt lat="44.05825665361869" lon="7.937715611934373"><ele>800.1666666666666</ele><time>2026-05-03T14:00:44Z</time></trkpt><trkpt lat="44.05819593461883" lon="7.937669297579818"><ele>795.3333333333333</ele><time>2026-05-03T14:00:45Z</time></trkpt><trkpt lat="44.0581188008604" lon="7.9376362973198"><ele>790.5</ele><time>2026-05-03T14:00:46Z</time></trkpt><trkpt lat="44.05803659693945" lon="7.937613546094472"><ele>785.6666666666667</ele><time>2026-05-03T14:00:47Z</time></trkpt><trkpt lat="44.0579488494062" lon="7.937616565817509"><ele>780.8333333333334</ele><time>2026-05-03T14:00:48Z</time></trkpt><trkpt lat="44.057868425182946" lon="7.937622074689455"><ele>776.0</ele><time>2026-05-03T14:00:49Z</time></trkpt><trkpt lat="44.05780407129846" lon="7.9376249783961175"><ele>776.0</ele><time>2026-05-03T14:00:50Z</time></trkpt><trkpt lat="44.057701083107204" lon="7.9375980129528"><ele>776.0</ele><time>2026-05-03T14:00:52Z</time></trkpt><trkpt lat="44.05761388822033" lon="7.9375009253497675"><ele>776.0</ele><time>2026-05-03T14:00:54Z</time></trkpt><trkpt lat="44.05761821966434" lon="7.937323725037522"><ele>776.0</ele><time>2026-05-03T14:00:56Z</time></trkpt><trkpt lat="44.057626631015836" lon="7.937207106323812"><ele>776.0</ele><time>2026-05-03T14:00:57Z</time></trkpt><trkpt lat="44.05762804089879" lon="7.937115139739948"><ele>780.1666666666667</ele><time>2026-05-03T14:00:58Z</time></trkpt><trkpt lat="44.05768557658847" lon="7.937024502533683"><ele>784.3333333333334</ele><time>2026-05-03T14:00:59Z</time></trkpt><trkpt lat="44.05773341759385" lon="7.93686479792341"><ele>788.5</ele><time>2026-05-03T14:01:01Z</time></trkpt><trkpt lat="44.057747830269285" lon="7.936778133027788"><ele>792.6666666666667</ele><time>2026-05-03T14:01:02Z</time></trkpt><trkpt lat="44.05770478275296" lon="7.936640508501907"><ele>796.8333333333334</ele><time>2026-05-03T14:01:04Z</time></trkpt><trkpt lat="44.05764910574683" lon="7.936596462839266"><ele>801.0</ele><time>2026-05-03T14:01:05Z</time></trkpt><trkpt lat="44.05757892977107" lon="7.936597468787058"><ele>803.1666666666666</ele><time>2026-05-03T14:01:06Z</time></trkpt><trkpt lat="44.05750375955165" lon="7.9366271190932425"><ele>805.3333333333333</ele><time>2026-05-03T14:01:07Z</time></trkpt><trkpt lat="44.05743403537822" lon="7.936660108376073"><ele>807.5</ele><time>2026-05-03T14:01:08Z</time></trkpt><trkpt lat="44.05733614444494" lon="7.936676329854491"><ele>809.6666666666666</ele><time>2026-05-03T14:01:10Z</time></trkpt><trkpt lat="44.05728290135495" lon="7.936582789462328"><ele>811.8333333333333</ele><time>2026-05-03T14:01:12Z</time></trkpt><trkpt lat="44.05720159782187" lon="7.936473132605156"><ele>814.0</ele><time>2026-05-03T14:01:14Z</time></trkpt><trkpt lat="44.05714454900646" lon="7.9363227779725705"><ele>811.9999999999999</ele><time>2026-05-03T14:01:16Z</time></trkpt><trkpt lat="44.057124976510366" lon="7.936235361025572"><ele>810.0</ele><time>2026-05-03T14:01:17Z</time></trkpt><trkpt lat="44.057113638687845" lon="7.936146306738584"><ele>808.0</ele><time>2026-05-03T14:01:18Z</time></trkpt><trkpt lat="44.05705622089229" lon="7.936005203059522"><ele>806.0</ele><time>2026-05-03T14:01:20Z</time></trkpt><trkpt lat="44.05700235570149" lon="7.935946449578385"><ele>803.9999999999999</ele><time>2026-05-03T14:01:21Z</time></trkpt><trkpt lat="44.056943776296436" lon="7.935896977626876"><ele>802.0</ele><time>2026-05-03T14:01:22Z</time></trkpt><trkpt lat="44.05687947011791" lon="7.935842971361713"><ele>802.0</ele><time>2026-05-03T14:01:23Z</time></trkpt><trkpt lat="44.05681733361583" lon="7.9357958837426885"><ele>802.0</ele><time>2026-05-03T14:01:24Z</time></trkpt><trkpt lat="44.05675369251984" lon="7.935755935656092"><ele>802.0</ele><time>2026-05-03T14:01:25Z</time></trkpt><trkpt lat="44.056678148597825" lon="7.9357129475214165"><ele>802.0</ele><time>2026-05-03T14:01:26Z</time></trkpt><trkpt lat="44.056617960358594" lon="7.9356719828176"><ele>802.0</ele><time>2026-05-03T14:01:27Z</time></trkpt><trkpt lat="44.056550617269245" lon="7.935653326974242"><ele>802.0</ele><time>2026-05-03T14:01:28Z</time></trkpt><trkpt lat="44.05647815237974" lon="7.935645572956205"><ele>802.0</ele><time>2026-05-03T14:01:29Z</time></trkpt><trkpt lat="44.05640434045518" lon="7.93565890748977"><ele>795.6</ele><time>2026-05-03T14:01:30Z</time></trkpt><trkpt lat="44.056312241823555" lon="7.935666525552538"><ele>789.2</ele><time>2026-05-03T14:01:32Z</time></trkpt><trkpt lat="44.05624549768623" lon="7.935559935297499"><ele>782.8</ele><time>2026-05-03T14:01:34Z</time></trkpt><trkpt lat="44.056174252310214" lon="7.935439838262229"><ele>776.4</ele><time>2026-05-03T14:01:36Z</time></trkpt><trkpt lat="44.056129654494704" lon="7.9353320748750615"><ele>770.0</ele><time>2026-05-03T14:01:38Z</time></trkpt><trkpt lat="44.0560520922122" lon="7.935193935162927"><ele>770.0</ele><time>2026-05-03T14:01:40Z</time></trkpt><trkpt lat="44.05601247333225" lon="7.935109257512692"><ele>770.0</ele><time>2026-05-03T14:01:41Z</time></trkpt><trkpt lat="44.05599492927334" lon="7.935016193609838"><ele>770.0</ele><time>2026-05-03T14:01:42Z</time></trkpt><trkpt lat="44.055987333055526" lon="7.934920820092002"><ele>770.0</ele><time>2026-05-03T14:01:43Z</time></trkpt><trkpt lat="44.05596937911485" lon="7.934829890318611"><ele>770.0</ele><time>2026-05-03T14:01:44Z</time></trkpt><trkpt lat="44.055936891420934" lon="7.934753041694158"><ele>770.0</ele><time>2026-05-03T14:01:45Z</time></trkpt><trkpt lat="44.05589551255573" lon="7.9346382775278155"><ele>770.0</ele><time>2026-05-03T14:01:47Z</time></trkpt><trkpt lat="44.05586237747222" lon="7.9345245396925534"><ele>766.4</ele><time>2026-05-03T14:01:49Z</time></trkpt><trkpt lat="44.05575951872177" lon="7.934471846579051"><ele>762.8</ele><time>2026-05-03T14:01:51Z</time></trkpt><trkpt lat="44.055679093584" lon="7.93443289199911"><ele>759.2</ele><time>2026-05-03T14:01:53Z</time></trkpt><trkpt lat="44.05564718180091" lon="7.934323236839676"><ele>755.6</ele><time>2026-05-03T14:01:55Z</time></trkpt><trkpt lat="44.05563433620153" lon="7.934194984287567"><ele>752.0</ele><time>2026-05-03T14:01:57Z</time></trkpt><trkpt lat="44.055646363087114" lon="7.934051229784938"><ele>752.0</ele><time>2026-05-03T14:01:59Z</time></trkpt><trkpt lat="44.05562066114289" lon="7.933925965352995"><ele>752.0</ele><time>2026-05-03T14:02:01Z</time></trkpt><trkpt lat="44.05554774049503" lon="7.933818994019301"><ele>752.0</ele><time>2026-05-03T14:02:03Z</time></trkpt><trkpt lat="44.055505925221546" lon="7.933752394059028"><ele>752.0</ele><time>2026-05-03T14:02:04Z</time></trkpt><trkpt lat="44.055441176168735" lon="7.933647793163571"><ele>752.0</ele><time>2026-05-03T14:02:06Z</time></trkpt><trkpt lat="44.055351514374784" lon="7.933439428305286"><ele>750.4000000000001</ele><time>2026-05-03T14:02:08Z</time></trkpt><trkpt lat="44.0552545879863" lon="7.9333178785597935"><ele>748.8000000000001</ele><time>2026-05-03T14:02:10Z</time></trkpt><trkpt lat="44.05518461037211" lon="7.933253369600871"><ele>747.2</ele><time>2026-05-03T14:02:11Z</time></trkpt><trkpt lat="44.05510830452721" lon="7.933188976461342"><ele>745.6</ele><time>2026-05-03T14:02:12Z</time></trkpt><trkpt lat="44.05503102541828" lon="7.9331281229294754"><ele>744.0</ele><time>2026-05-03T14:02:13Z</time></trkpt><trkpt lat="44.054938809622456" lon="7.933075168054133"><ele>744.0</ele><time>2026-05-03T14:02:14Z</time></trkpt><trkpt lat="44.054867966306546" lon="7.933054519830683"><ele>744.0</ele><time>2026-05-03T14:02:15Z</time></trkpt><trkpt lat="44.05480014754135" lon="7.933017447407184"><ele>744.0</ele><time>2026-05-03T14:02:16Z</time></trkpt><trkpt lat="44.05472469618261" lon="7.932987371194984"><ele>744.0</ele><time>2026-05-03T14:02:17Z</time></trkpt><trkpt lat="44.054611897014" lon="7.932947989626256"><ele>744.0</ele><time>2026-05-03T14:02:19Z</time></trkpt><trkpt lat="44.05448766179313" lon="7.932915964535405"><ele>744.0</ele><time>2026-05-03T14:02:21Z</time></trkpt><trkpt lat="44.054423871788764" lon="7.932909907877691"><ele>744.0</ele><time>2026-05-03T14:02:22Z</time></trkpt><trkpt lat="44.05432233361084" lon="7.932869810789194"><ele>744.0</ele><time>2026-05-03T14:02:24Z</time></trkpt><trkpt lat="44.05425169815786" lon="7.932793470546112"><ele>744.0</ele><time>2026-05-03T14:02:26Z</time></trkpt><trkpt lat="44.05419683926603" lon="7.932730764856721"><ele>744.0</ele><time>2026-05-03T14:02:29Z</time></trkpt><trkpt lat="44.05419974743511" lon="7.932627130144788"><ele>744.0</ele><time>2026-05-03T14:04:14Z</time></trkpt><trkpt lat="44.05428286767518" lon="7.932561449448313"><ele>745.6</ele><time>2026-05-03T14:04:17Z</time></trkpt><trkpt lat="44.05433870495106" lon="7.932493101269721"><ele>747.2</ele><time>2026-05-03T14:04:20Z</time></trkpt><trkpt lat="44.054409785247834" lon="7.93244299269926"><ele>748.8000000000001</ele><time>2026-05-03T14:04:22Z</time></trkpt><trkpt lat="44.05449101409761" lon="7.932378070557333"><ele>750.4000000000001</ele><time>2026-05-03T14:04:24Z</time></trkpt><trkpt lat="44.054581020126726" lon="7.932340330823891"><ele>752.0</ele><time>2026-05-03T14:04:26Z</time></trkpt><trkpt lat="44.05466200052108" lon="7.932220348167927"><ele>752.0</ele><time>2026-05-03T14:04:28Z</time></trkpt><trkpt lat="44.05469804650377" lon="7.932114162129827"><ele>752.0</ele><time>2026-05-03T14:04:30Z</time></trkpt><trkpt lat="44.05473680257783" lon="7.931807585092921"><ele>752.0</ele><time>2026-05-03T14:04:32Z</time></trkpt><trkpt lat="44.05475133258225" lon="7.931707559526148"><ele>752.0</ele><time>2026-05-03T14:04:33Z</time></trkpt><trkpt lat="44.0547616434578" lon="7.931600113020914"><ele>749.0</ele><time>2026-05-03T14:04:34Z</time></trkpt><trkpt lat="44.054769143469905" lon="7.931471175470136"><ele>746.0</ele><time>2026-05-03T14:04:35Z</time></trkpt><trkpt lat="44.0547791143812" lon="7.9313680472731525"><ele>743.0</ele><time>2026-05-03T14:04:36Z</time></trkpt><trkpt lat="44.054782431046476" lon="7.931256528419638"><ele>740.0</ele><time>2026-05-03T14:04:37Z</time></trkpt><trkpt lat="44.0547862880366" lon="7.931167332671329"><ele>737.0</ele><time>2026-05-03T14:04:38Z</time></trkpt><trkpt lat="44.05479503213261" lon="7.931060972105998"><ele>734.0</ele><time>2026-05-03T14:04:40Z</time></trkpt><trkpt lat="44.05483914610088" lon="7.930988726532729"><ele>737.8000000000001</ele><time>2026-05-03T14:04:42Z</time></trkpt><trkpt lat="44.054910174449695" lon="7.930879609520013"><ele>741.6</ele><time>2026-05-03T14:04:44Z</time></trkpt><trkpt lat="44.05494819927676" lon="7.930731359457762"><ele>745.4</ele><time>2026-05-03T14:04:46Z</time></trkpt><trkpt lat="44.05494490555837" lon="7.9306429137369925"><ele>749.2</ele><time>2026-05-03T14:04:47Z</time></trkpt><trkpt lat="44.05493035633261" lon="7.930483272967077"><ele>753.0</ele><time>2026-05-03T14:04:49Z</time></trkpt><trkpt lat="44.05500462419864" lon="7.930436178245868"><ele>753.0</ele><time>2026-05-03T14:04:51Z</time></trkpt><trkpt lat="44.05498602541622" lon="7.930328869391153"><ele>753.0</ele><time>2026-05-03T14:04:54Z</time></trkpt><trkpt lat="44.05492697545762" lon="7.930386508794399"><ele>753.0</ele><time>2026-05-03T14:04:56Z</time></trkpt><trkpt lat="44.05490205034132" lon="7.930495321445684"><ele>753.0</ele><time>2026-05-03T14:04:58Z</time></trkpt><trkpt lat="44.05489163940651" lon="7.930639762337617"><ele>753.0</ele><time>2026-05-03T14:05:00Z</time></trkpt><trkpt lat="44.05487051512391" lon="7.930780921089827"><ele>753.0</ele><time>2026-05-03T14:05:02Z</time></trkpt><trkpt lat="44.05482882286107" lon="7.930897345906013"><ele>749.2</ele><time>2026-05-03T14:05:04Z</time></trkpt><trkpt lat="44.05471610407685" lon="7.930969989985508"><ele>745.4</ele><time>2026-05-03T14:05:06Z</time></trkpt><trkpt lat="44.054654890756034" lon="7.931000654665324"><ele>741.6</ele><time>2026-05-03T14:05:07Z</time></trkpt><trkpt lat="44.054587289305985" lon="7.931100846135155"><ele>737.8000000000001</ele><time>2026-05-03T14:05:09Z</time></trkpt><trkpt lat="44.05450197287238" lon="7.931259028628365"><ele>734.0</ele><time>2026-05-03T14:05:11Z</time></trkpt><trkpt lat="44.054449292209156" lon="7.931361910242486"><ele>734.0</ele><time>2026-05-03T14:05:12Z</time></trkpt><trkpt lat="44.054410467841755" lon="7.931453453445645"><ele>734.0</ele><time>2026-05-03T14:05:13Z</time></trkpt><trkpt lat="44.054383539909274" lon="7.9315344351956965"><ele>734.0</ele><time>2026-05-03T14:05:14Z</time></trkpt><trkpt lat="44.05435774518428" lon="7.931678123889303"><ele>734.0</ele><time>2026-05-03T14:05:16Z</time></trkpt><trkpt lat="44.05433614713149" lon="7.931801803058283"><ele>734.0</ele><time>2026-05-03T14:05:18Z</time></trkpt><trkpt lat="44.0542689470429" lon="7.931818454548966"><ele>734.0</ele><time>2026-05-03T14:05:19Z</time></trkpt><trkpt lat="44.05418888597263" lon="7.931855538001011"><ele>732.7142857142857</ele><time>2026-05-03T14:05:20Z</time></trkpt><trkpt lat="44.0541241274871" lon="7.931915965299758"><ele>731.4285714285714</ele><time>2026-05-03T14:05:21Z</time></trkpt><trkpt lat="44.05406357150695" lon="7.931955512165838"><ele>730.1428571428571</ele><time>2026-05-03T14:05:22Z</time></trkpt><trkpt lat="44.053984834334905" lon="7.931959120536149"><ele>728.8571428571429</ele><time>2026-05-03T14:05:23Z</time></trkpt><trkpt lat="44.05390726821639" lon="7.931979808767136"><ele>727.5714285714287</ele><time>2026-05-03T14:05:24Z</time></trkpt><trkpt lat="44.05383816318939" lon="7.931978768038245"><ele>726.2857142857143</ele><time>2026-05-03T14:05:25Z</time></trkpt><trkpt lat="44.05377341275935" lon="7.932013117475167"><ele>725.0</ele><time>2026-05-03T14:05:26Z</time></trkpt><trkpt lat="44.053686864740655" lon="7.932112702376812"><ele>725.0</ele><time>2026-05-03T14:05:28Z</time></trkpt><trkpt lat="44.05365422206127" lon="7.932194911518567"><ele>725.0</ele><time>2026-05-03T14:05:29Z</time></trkpt><trkpt lat="44.05357278794679" lon="7.932308469689534"><ele>725.0</ele><time>2026-05-03T14:05:31Z</time></trkpt><trkpt lat="44.05349556199037" lon="7.932331669473858"><ele>725.0</ele><time>2026-05-03T14:05:32Z</time></trkpt><trkpt lat="44.053384223882134" lon="7.932360869284584"><ele>725.0</ele><time>2026-05-03T14:05:34Z</time></trkpt><trkpt lat="44.05330578359352" lon="7.932377398567646"><ele>722.0</ele><time>2026-05-03T14:05:35Z</time></trkpt><trkpt lat="44.053229799971156" lon="7.932403621799835"><ele>719.0</ele><time>2026-05-03T14:05:36Z</time></trkpt><trkpt lat="44.05315118898468" lon="7.932427414822113"><ele>716.0</ele><time>2026-05-03T14:05:37Z</time></trkpt><trkpt lat="44.053079445780085" lon="7.932447343579898"><ele>713.0</ele><time>2026-05-03T14:05:38Z</time></trkpt><trkpt lat="44.05301876188252" lon="7.932471633325697"><ele>710.0</ele><time>2026-05-03T14:05:39Z</time></trkpt><trkpt lat="44.05295881831351" lon="7.9325056528604945"><ele>707.0</ele><time>2026-05-03T14:05:40Z</time></trkpt><trkpt lat="44.052899617658" lon="7.932539249147117"><ele>704.0</ele><time>2026-05-03T14:05:41Z</time></trkpt><trkpt lat="44.05278756748625" lon="7.932628586258637"><ele>703.8333333333333</ele><time>2026-05-03T14:05:43Z</time></trkpt><trkpt lat="44.052685665524244" lon="7.932718946178459"><ele>703.6666666666666</ele><time>2026-05-03T14:05:45Z</time></trkpt><trkpt lat="44.05261846595946" lon="7.932745268125796"><ele>703.5</ele><time>2026-05-03T14:05:46Z</time></trkpt><trkpt lat="44.05252854779804" lon="7.932741284010247"><ele>703.3333333333334</ele><time>2026-05-03T14:05:47Z</time></trkpt><trkpt lat="44.05244195344213" lon="7.932757336843323"><ele>703.1666666666667</ele><time>2026-05-03T14:05:48Z</time></trkpt><trkpt lat="44.052366794488876" lon="7.93279187840449"><ele>703.0</ele><time>2026-05-03T14:05:49Z</time></trkpt><trkpt lat="44.052290819873974" lon="7.9328055945895635"><ele>703.0</ele><time>2026-05-03T14:05:50Z</time></trkpt><trkpt lat="44.05221113645602" lon="7.932802307091884"><ele>703.0</ele><time>2026-05-03T14:05:52Z</time></trkpt><trkpt lat="44.05224639147206" lon="7.932897863452257"><ele>703.0</ele><time>2026-05-03T14:06:04Z</time></trkpt><trkpt lat="44.05231172924599" lon="7.93291799353397"><ele>703.0</ele><time>2026-05-03T14:06:06Z</time></trkpt><trkpt lat="44.05238442609058" lon="7.9329795141362025"><ele>703.0</ele><time>2026-05-03T14:06:08Z</time></trkpt><trkpt lat="44.052477731654044" lon="7.93306098566766"><ele>703.0</ele><time>2026-05-03T14:06:10Z</time></trkpt><trkpt lat="44.052538747931195" lon="7.933104840038376"><ele>703.0</ele><time>2026-05-03T14:06:11Z</time></trkpt><trkpt lat="44.05267498022896" lon="7.933167572862601"><ele>703.0</ele><time>2026-05-03T14:06:13Z</time></trkpt><trkpt lat="44.05275262063717" lon="7.933187403719302"><ele>703.0</ele><time>2026-05-03T14:06:14Z</time></trkpt><trkpt lat="44.05282149916242" lon="7.933206624689886"><ele>703.0</ele><time>2026-05-03T14:06:15Z</time></trkpt><trkpt lat="44.05288130464602" lon="7.933241420736505"><ele>703.0</ele><time>2026-05-03T14:06:16Z</time></trkpt><trkpt lat="44.052934710030826" lon="7.9333017463841005"><ele>703.0</ele><time>2026-05-03T14:06:17Z</time></trkpt><trkpt lat="44.05296934373691" lon="7.933402064240695"><ele>702.4</ele><time>2026-05-03T14:06:18Z</time></trkpt><trkpt lat="44.0529947654066" lon="7.933523255474912"><ele>701.8</ele><time>2026-05-03T14:06:19Z</time></trkpt><trkpt lat="44.05307195838084" lon="7.9336495138246175"><ele>701.2</ele><time>2026-05-03T14:06:21Z</time></trkpt><trkpt lat="44.05314007594426" lon="7.933680551791209"><ele>700.6</ele><time>2026-05-03T14:06:22Z</time></trkpt><trkpt lat="44.053223556307266" lon="7.9336887501326485"><ele>700.0</ele><time>2026-05-03T14:06:23Z</time></trkpt><trkpt lat="44.053321534150804" lon="7.93367536009435"><ele>700.0</ele><time>2026-05-03T14:06:24Z</time></trkpt><trkpt lat="44.05340547375678" lon="7.9336780733911745"><ele>700.0</ele><time>2026-05-03T14:06:25Z</time></trkpt><trkpt lat="44.05346860892479" lon="7.9337035741530775"><ele>700.0</ele><time>2026-05-03T14:06:25.999Z</time></trkpt><trkpt lat="44.05354800576195" lon="7.933706201653689"><ele>700.0</ele><time>2026-05-03T14:06:26.999Z</time></trkpt><trkpt lat="44.05361801251695" lon="7.933704909651934"><ele>700.0</ele><time>2026-05-03T14:06:27.999Z</time></trkpt><trkpt lat="44.05369414521021" lon="7.933739958289813"><ele>700.0</ele><time>2026-05-03T14:06:28.999Z</time></trkpt><trkpt lat="44.05377006616119" lon="7.9338017527887095"><ele>700.0</ele><time>2026-05-03T14:06:30Z</time></trkpt><trkpt lat="44.05383940545277" lon="7.933870538317856"><ele>700.0</ele><time>2026-05-03T14:06:31Z</time></trkpt><trkpt lat="44.053891438218905" lon="7.933957890584649"><ele>700.0</ele><time>2026-05-03T14:06:32Z</time></trkpt><trkpt lat="44.05394619826154" lon="7.934024106037664"><ele>700.0</ele><time>2026-05-03T14:06:33Z</time></trkpt><trkpt lat="44.05401336491261" lon="7.9340738297249835"><ele>700.0</ele><time>2026-05-03T14:06:34Z</time></trkpt><trkpt lat="44.054083404466105" lon="7.934129356162645"><ele>700.0</ele><time>2026-05-03T14:06:35Z</time></trkpt><trkpt lat="44.05415510028051" lon="7.934183930161418"><ele>699.0</ele><time>2026-05-03T14:06:36Z</time></trkpt><trkpt lat="44.05422161324018" lon="7.934256415966554"><ele>698.0</ele><time>2026-05-03T14:06:37Z</time></trkpt><trkpt lat="44.05427100699945" lon="7.934349431700033"><ele>697.0</ele><time>2026-05-03T14:06:38Z</time></trkpt><trkpt lat="44.05429206800968" lon="7.934468666946206"><ele>696.0</ele><time>2026-05-03T14:06:39Z</time></trkpt><trkpt lat="44.05430776624808" lon="7.934588883917725"><ele>695.0</ele><time>2026-05-03T14:06:40Z</time></trkpt><trkpt lat="44.05431945077351" lon="7.934709133620213"><ele>694.0</ele><time>2026-05-03T14:06:41Z</time></trkpt><trkpt lat="44.05433036884933" lon="7.934818174995778"><ele>694.0</ele><time>2026-05-03T14:06:42Z</time></trkpt><trkpt lat="44.05434714762564" lon="7.934928285914918"><ele>694.0</ele><time>2026-05-03T14:06:43Z</time></trkpt><trkpt lat="44.05436286723102" lon="7.9350311194370935"><ele>694.0</ele><time>2026-05-03T14:06:44Z</time></trkpt><trkpt lat="44.054351319089086" lon="7.935162888959236"><ele>694.0</ele><time>2026-05-03T14:06:45Z</time></trkpt><trkpt lat="44.054346894220366" lon="7.93531021359078"><ele>694.0</ele><time>2026-05-03T14:06:46Z</time></trkpt><trkpt lat="44.0543506845902" lon="7.935440266854383"><ele>693.1666666666667</ele><time>2026-05-03T14:06:47Z</time></trkpt><trkpt lat="44.05436374096852" lon="7.935559741595421"><ele>692.3333333333334</ele><time>2026-05-03T14:06:48Z</time></trkpt><trkpt lat="44.05437851290617" lon="7.93566854685249"><ele>691.5</ele><time>2026-05-03T14:06:49Z</time></trkpt><trkpt lat="44.05439345872594" lon="7.9357789418425675"><ele>690.6666666666666</ele><time>2026-05-03T14:06:50Z</time></trkpt><trkpt lat="44.05438817976943" lon="7.935883257543879"><ele>689.8333333333333</ele><time>2026-05-03T14:06:51Z</time></trkpt><trkpt lat="44.05438065686615" lon="7.935978520664659"><ele>689.0</ele><time>2026-05-03T14:06:52Z</time></trkpt><trkpt lat="44.054353565779415" lon="7.936121497187238"><ele>689.0</ele><time>2026-05-03T14:06:54Z</time></trkpt><trkpt lat="44.05433948414416" lon="7.936227654157967"><ele>689.0</ele><time>2026-05-03T14:06:56Z</time></trkpt><trkpt lat="44.0542980302958" lon="7.936093519517775"><ele>689.0</ele><time>2026-05-03T14:07:04Z</time></trkpt><trkpt lat="44.054278306371636" lon="7.935917328515137"><ele>689.0</ele><time>2026-05-03T14:07:06Z</time></trkpt><trkpt lat="44.05427023869256" lon="7.935807573600974"><ele>689.0</ele><time>2026-05-03T14:07:07Z</time></trkpt><trkpt lat="44.05425820331984" lon="7.935679745280711"><ele>689.0</ele><time>2026-05-03T14:07:08Z</time></trkpt><trkpt lat="44.054241612885036" lon="7.935546440305261"><ele>689.0</ele><time>2026-05-03T14:07:09Z</time></trkpt><trkpt lat="44.0542261978622" lon="7.935419382776867"><ele>689.0</ele><time>2026-05-03T14:07:10Z</time></trkpt><trkpt lat="44.05420617340638" lon="7.9352845463362245"><ele>689.0</ele><time>2026-05-03T14:07:11Z</time></trkpt><trkpt lat="44.0541875070715" lon="7.935146257184126"><ele>689.0</ele><time>2026-05-03T14:07:12Z</time></trkpt><trkpt lat="44.05417186526824" lon="7.935017733666012"><ele>689.8333333333333</ele><time>2026-05-03T14:07:13Z</time></trkpt><trkpt lat="44.05415296028911" lon="7.934895237434875"><ele>690.6666666666666</ele><time>2026-05-03T14:07:14Z</time></trkpt><trkpt lat="44.05412123804281" lon="7.934785694405795"><ele>691.5</ele><time>2026-05-03T14:07:15Z</time></trkpt><trkpt lat="44.0540628419454" lon="7.934700919632181"><ele>692.3333333333334</ele><time>2026-05-03T14:07:16Z</time></trkpt><trkpt lat="44.05398179310795" lon="7.934653085299263"><ele>693.1666666666667</ele><time>2026-05-03T14:07:17Z</time></trkpt><trkpt lat="44.053891882137364" lon="7.934666036693446"><ele>694.0</ele><time>2026-05-03T14:07:18Z</time></trkpt><trkpt lat="44.0538048821836" lon="7.934715830461081"><ele>690.1666666666667</ele><time>2026-05-03T14:07:19Z</time></trkpt><trkpt lat="44.05371773221006" lon="7.93477515381445"><ele>686.3333333333334</ele><time>2026-05-03T14:07:20Z</time></trkpt><trkpt lat="44.053640227366024" lon="7.934822587654944"><ele>682.5</ele><time>2026-05-03T14:07:21Z</time></trkpt><trkpt lat="44.05357139075968" lon="7.934838863208246"><ele>678.6666666666666</ele><time>2026-05-03T14:07:22Z</time></trkpt><trkpt lat="44.05349615380213" lon="7.93479884206732"><ele>674.8333333333333</ele><time>2026-05-03T14:07:23Z</time></trkpt><trkpt lat="44.05342911408301" lon="7.934745620234726"><ele>671.0</ele><time>2026-05-03T14:07:24Z</time></trkpt><trkpt lat="44.05345537838213" lon="7.934536660916073"><ele>671.0</ele><time>2026-05-03T14:07:25Z</time></trkpt><trkpt lat="44.05339717223143" lon="7.934457969251983"><ele>671.0</ele><time>2026-05-03T14:07:26Z</time></trkpt><trkpt lat="44.05330002278002" lon="7.934452342836084"><ele>671.0</ele><time>2026-05-03T14:07:27Z</time></trkpt><trkpt lat="44.05323226118437" lon="7.934407520420438"><ele>671.0</ele><time>2026-05-03T14:07:28Z</time></trkpt><trkpt lat="44.053161479812005" lon="7.934425783416174"><ele>671.0</ele><time>2026-05-03T14:07:29Z</time></trkpt><trkpt lat="44.05309353117639" lon="7.934474542323493"><ele>671.0</ele><time>2026-05-03T14:07:30Z</time></trkpt><trkpt lat="44.05302369880571" lon="7.934516554760107"><ele>667.1999999999999</ele><time>2026-05-03T14:07:31Z</time></trkpt><trkpt lat="44.05295388702662" lon="7.9346147185926155"><ele>663.4</ele><time>2026-05-03T14:07:32Z</time></trkpt><trkpt lat="44.052882777037276" lon="7.934713647505212"><ele>659.6</ele><time>2026-05-03T14:07:33Z</time></trkpt><trkpt lat="44.052810252328186" lon="7.934792880782186"><ele>655.8</ele><time>2026-05-03T14:07:34Z</time></trkpt><trkpt lat="44.05274042758518" lon="7.934830545384308"><ele>652.0</ele><time>2026-05-03T14:07:35Z</time></trkpt><trkpt lat="44.05265440510516" lon="7.934789758292075"><ele>652.0</ele><time>2026-05-03T14:07:36Z</time></trkpt><trkpt lat="44.05257677976046" lon="7.934707210877925"><ele>652.0</ele><time>2026-05-03T14:07:37Z</time></trkpt><trkpt lat="44.05250279485281" lon="7.934636042971173"><ele>652.0</ele><time>2026-05-03T14:07:38Z</time></trkpt><trkpt lat="44.052424298726926" lon="7.934533682160858"><ele>652.0</ele><time>2026-05-03T14:07:39Z</time></trkpt><trkpt lat="44.05230796979904" lon="7.934396139821184"><ele>652.0</ele><time>2026-05-03T14:07:40Z</time></trkpt><trkpt lat="44.05220412921182" lon="7.93428858266923"><ele>649.8333333333334</ele><time>2026-05-03T14:07:41Z</time></trkpt><trkpt lat="44.05211194033811" lon="7.934228658280905"><ele>647.6666666666667</ele><time>2026-05-03T14:07:42Z</time></trkpt><trkpt lat="44.052038962977136" lon="7.93420208992727"><ele>645.5</ele><time>2026-05-03T14:07:43Z</time></trkpt><trkpt lat="44.05197379466477" lon="7.934209394736891"><ele>643.3333333333334</ele><time>2026-05-03T14:07:44Z</time></trkpt><trkpt lat="44.05192463704355" lon="7.934281359658148"><ele>641.1666666666666</ele><time>2026-05-03T14:07:45Z</time></trkpt><trkpt lat="44.051875242644854" lon="7.9343688923981555"><ele>639.0</ele><time>2026-05-03T14:07:47Z</time></trkpt><trkpt lat="44.05180787452595" lon="7.934416631191534"><ele>639.0</ele><time>2026-05-03T14:07:48Z</time></trkpt><trkpt lat="44.05172099258031" lon="7.934500078489209"><ele>639.0</ele><time>2026-05-03T14:07:49Z</time></trkpt><trkpt lat="44.051616988327154" lon="7.934572404133927"><ele>639.0</ele><time>2026-05-03T14:07:50Z</time></trkpt><trkpt lat="44.051515041257446" lon="7.934624148504449"><ele>639.0</ele><time>2026-05-03T14:07:51Z</time></trkpt><trkpt lat="44.051421308870204" lon="7.93469234151095"><ele>639.0</ele><time>2026-05-03T14:07:51.999Z</time></trkpt><trkpt lat="44.05132671733562" lon="7.934762369165076"><ele>637.6</ele><time>2026-05-03T14:07:52.999Z</time></trkpt><trkpt lat="44.05124722347309" lon="7.9348705360352945"><ele>636.2</ele><time>2026-05-03T14:07:53.999Z</time></trkpt><trkpt lat="44.051161420117054" lon="7.9349394157062"><ele>634.8000000000001</ele><time>2026-05-03T14:07:54.999Z</time></trkpt><trkpt lat="44.051088879421215" lon="7.935040622897316"><ele>633.4</ele><time>2026-05-03T14:07:55.999Z</time></trkpt><trkpt lat="44.05101498095792" lon="7.935149608006729"><ele>632.0</ele><time>2026-05-03T14:07:56.999Z</time></trkpt><trkpt lat="44.05094542363288" lon="7.935256994049586"><ele>632.0</ele><time>2026-05-03T14:07:57.999Z</time></trkpt><trkpt lat="44.050878958120826" lon="7.935362408314779"><ele>632.0</ele><time>2026-05-03T14:07:58.999Z</time></trkpt><trkpt lat="44.05082005572893" lon="7.935457985403396"><ele>632.0</ele><time>2026-05-03T14:07:59.999Z</time></trkpt><trkpt lat="44.05071123341705" lon="7.935624689037412"><ele>632.0</ele><time>2026-05-03T14:08:00.999Z</time></trkpt><trkpt lat="44.05064471157726" lon="7.935761222390009"><ele>630.6</ele><time>2026-05-03T14:08:01.999Z</time></trkpt><trkpt lat="44.05059360143344" lon="7.935896742100331"><ele>629.2</ele><time>2026-05-03T14:08:02.999Z</time></trkpt><trkpt lat="44.05054347804079" lon="7.936023695218555"><ele>627.8</ele><time>2026-05-03T14:08:03.999Z</time></trkpt><trkpt lat="44.05050391544283" lon="7.93616870694079"><ele>626.4</ele><time>2026-05-03T14:08:04.999Z</time></trkpt><trkpt lat="44.05048273320414" lon="7.936272182860829"><ele>625.0</ele><time>2026-05-03T14:08:05.999Z</time></trkpt><trkpt lat="44.05044727998714" lon="7.936377144453236"><ele>625.0</ele><time>2026-05-03T14:08:06.999Z</time></trkpt><trkpt lat="44.050400648939394" lon="7.936466642738399"><ele>625.0</ele><time>2026-05-03T14:08:07.999Z</time></trkpt><trkpt lat="44.050324198509536" lon="7.936484695102919"><ele>625.0</ele><time>2026-05-03T14:08:08.999Z</time></trkpt><trkpt lat="44.05022387549817" lon="7.936495493572255"><ele>625.0</ele><time>2026-05-03T14:08:09.999Z</time></trkpt><trkpt lat="44.05011419806303" lon="7.936572453809986"><ele>625.0</ele><time>2026-05-03T14:08:10.999Z</time></trkpt><trkpt lat="44.050012154157365" lon="7.936664117018952"><ele>620.75</ele><time>2026-05-03T14:08:11.999Z</time></trkpt><trkpt lat="44.049926909525716" lon="7.936772807559348"><ele>616.5</ele><time>2026-05-03T14:08:12.999Z</time></trkpt><trkpt lat="44.04983263700537" lon="7.936866831385865"><ele>612.25</ele><time>2026-05-03T14:08:13.999Z</time></trkpt><trkpt lat="44.049737920108555" lon="7.936990021420573"><ele>608.0</ele><time>2026-05-03T14:08:14.999Z</time></trkpt><trkpt lat="44.049653614900514" lon="7.937116007615051"><ele>608.0</ele><time>2026-05-03T14:08:15.999Z</time></trkpt><trkpt lat="44.04956518787136" lon="7.937202374033251"><ele>608.0</ele><time>2026-05-03T14:08:16.999Z</time></trkpt><trkpt lat="44.049466608347174" lon="7.937277647481327"><ele>608.0</ele><time>2026-05-03T14:08:17.999Z</time></trkpt><trkpt lat="44.04935309365108" lon="7.937353158810558"><ele>608.0</ele><time>2026-05-03T14:08:18.999Z</time></trkpt><trkpt lat="44.049286495937906" lon="7.937384844231311"><ele>608.0</ele><time>2026-05-03T14:08:19.999Z</time></trkpt><trkpt lat="44.04917419635732" lon="7.9374639836018615"><ele>605.75</ele><time>2026-05-03T14:08:20.999Z</time></trkpt><trkpt lat="44.049060021931595" lon="7.937550331183355"><ele>603.5</ele><time>2026-05-03T14:08:21.999Z</time></trkpt><trkpt lat="44.048954929251074" lon="7.937652118649054"><ele>601.25</ele><time>2026-05-03T14:08:22.999Z</time></trkpt><trkpt lat="44.04883907836257" lon="7.937736493296487"><ele>599.0</ele><time>2026-05-03T14:08:23.999Z</time></trkpt><trkpt lat="44.04875514457426" lon="7.937860180918517"><ele>599.0</ele><time>2026-05-03T14:08:24.999Z</time></trkpt><trkpt lat="44.04868289125741" lon="7.938010305957721"><ele>599.0</ele><time>2026-05-03T14:08:25.999Z</time></trkpt><trkpt lat="44.04862260502239" lon="7.938154724080312"><ele>599.0</ele><time>2026-05-03T14:08:26.999Z</time></trkpt><trkpt lat="44.04856725046954" lon="7.938288736001614"><ele>599.0</ele><time>2026-05-03T14:08:27.999Z</time></trkpt><trkpt lat="44.04851290945717" lon="7.938403547265469"><ele>597.75</ele><time>2026-05-03T14:08:28.999Z</time></trkpt><trkpt lat="44.04844933641985" lon="7.938509220630038"><ele>596.5</ele><time>2026-05-03T14:08:29.999Z</time></trkpt><trkpt lat="44.048389209330814" lon="7.938630733405111"><ele>595.25</ele><time>2026-05-03T14:08:30.999Z</time></trkpt><trkpt lat="44.048296114288625" lon="7.938732438187134"><ele>594.0</ele><time>2026-05-03T14:08:31.999Z</time></trkpt><trkpt lat="44.048218090724596" lon="7.938876015553588"><ele>594.0</ele><time>2026-05-03T14:08:32.999Z</time></trkpt><trkpt lat="44.04816286913828" lon="7.939025208278065"><ele>594.0</ele><time>2026-05-03T14:08:33.999Z</time></trkpt><trkpt lat="44.048123727631314" lon="7.939166724043651"><ele>594.0</ele><time>2026-05-03T14:08:35Z</time></trkpt><trkpt lat="44.04808911274942" lon="7.93929815552533"><ele>594.0</ele><time>2026-05-03T14:08:36Z</time></trkpt><trkpt lat="44.04806291548989" lon="7.939427607641215"><ele>594.0</ele><time>2026-05-03T14:08:37Z</time></trkpt><trkpt lat="44.048024405465746" lon="7.939557460737087"><ele>589.8</ele><time>2026-05-03T14:08:38Z</time></trkpt><trkpt lat="44.047992185665876" lon="7.9396794633795205"><ele>585.5999999999999</ele><time>2026-05-03T14:08:39Z</time></trkpt><trkpt lat="44.04791366309977" lon="7.9397490292409865"><ele>581.4</ele><time>2026-05-03T14:08:40Z</time></trkpt><trkpt lat="44.04782446900618" lon="7.939816339903741"><ele>577.1999999999999</ele><time>2026-05-03T14:08:41Z</time></trkpt><trkpt lat="44.047713325198345" lon="7.939848508336218"><ele>573.0</ele><time>2026-05-03T14:08:42Z</time></trkpt><trkpt lat="44.047590605189164" lon="7.939803020071527"><ele>573.0</ele><time>2026-05-03T14:08:43Z</time></trkpt><trkpt lat="44.047498287082874" lon="7.939751257233688"><ele>573.0</ele><time>2026-05-03T14:08:44Z</time></trkpt><trkpt lat="44.047415101693396" lon="7.939697923844451"><ele>573.0</ele><time>2026-05-03T14:08:45Z</time></trkpt><trkpt lat="44.04733305515503" lon="7.939638730637304"><ele>573.0</ele><time>2026-05-03T14:08:46Z</time></trkpt><trkpt lat="44.04724995105094" lon="7.939584124691686"><ele>573.0</ele><time>2026-05-03T14:08:47Z</time></trkpt><trkpt lat="44.04716871636304" lon="7.939533227620518"><ele>570.6</ele><time>2026-05-03T14:08:48Z</time></trkpt><trkpt lat="44.04708526517292" lon="7.939497241773405"><ele>568.1999999999999</ele><time>2026-05-03T14:08:49Z</time></trkpt><trkpt lat="44.046994457993215" lon="7.939490032470831"><ele>565.8</ele><time>2026-05-03T14:08:50Z</time></trkpt><trkpt lat="44.0469077055311" lon="7.939505074082035"><ele>563.4</ele><time>2026-05-03T14:08:51Z</time></trkpt><trkpt lat="44.046816196798744" lon="7.9395296890309055"><ele>561.0</ele><time>2026-05-03T14:08:52Z</time></trkpt><trkpt lat="44.046722749887486" lon="7.939557053348225"><ele>560.4</ele><time>2026-05-03T14:08:53Z</time></trkpt><trkpt lat="44.04662499873601" lon="7.93959437290359"><ele>559.8</ele><time>2026-05-03T14:08:54Z</time></trkpt><trkpt lat="44.046531320397094" lon="7.9396541199603465"><ele>559.1999999999999</ele><time>2026-05-03T14:08:55Z</time></trkpt><trkpt lat="44.04646605135842" lon="7.939750667079981"><ele>558.6</ele><time>2026-05-03T14:08:56Z</time></trkpt><trkpt lat="44.046415895691254" lon="7.939895987622168"><ele>558.0</ele><time>2026-05-03T14:08:57Z</time></trkpt><trkpt lat="44.04632563096575" lon="7.940059938201379"><ele>558.0</ele><time>2026-05-03T14:08:58Z</time></trkpt><trkpt lat="44.04624316431747" lon="7.940253058567581"><ele>558.0</ele><time>2026-05-03T14:08:59Z</time></trkpt><trkpt lat="44.04615529816612" lon="7.940466874497384"><ele>558.0</ele><time>2026-05-03T14:09:00Z</time></trkpt><trkpt lat="44.04607063811683" lon="7.940670681134391"><ele>558.0</ele><time>2026-05-03T14:09:01Z</time></trkpt><trkpt lat="44.04598663537541" lon="7.940847450832297"><ele>558.0</ele><time>2026-05-03T14:09:02Z</time></trkpt><trkpt lat="44.045910098011795" lon="7.941024873389568"><ele>558.0</ele><time>2026-05-03T14:09:03Z</time></trkpt><trkpt lat="44.0458537498077" lon="7.94117485263864"><ele>558.0</ele><time>2026-05-03T14:09:04Z</time></trkpt><trkpt lat="44.04582853781554" lon="7.941301766166277"><ele>552.0</ele><time>2026-05-03T14:09:05Z</time></trkpt><trkpt lat="44.04577623312774" lon="7.941376994986557"><ele>546.0</ele><time>2026-05-03T14:09:06Z</time></trkpt><trkpt lat="44.04572256480644" lon="7.941464702805399"><ele>540.0</ele><time>2026-05-03T14:09:07Z</time></trkpt><trkpt lat="44.045636089111554" lon="7.941520535253555"><ele>534.0</ele><time>2026-05-03T14:09:08Z</time></trkpt><trkpt lat="44.045522541665186" lon="7.941515184717975"><ele>528.0</ele><time>2026-05-03T14:09:09Z</time></trkpt><trkpt lat="44.04541756860685" lon="7.9414074049858225"><ele>528.0</ele><time>2026-05-03T14:09:10Z</time></trkpt><trkpt lat="44.04539327863965" lon="7.941193444559269"><ele>528.0</ele><time>2026-05-03T14:09:11Z</time></trkpt><trkpt lat="44.04543821561094" lon="7.9410591742922065"><ele>528.0</ele><time>2026-05-03T14:09:13Z</time></trkpt><trkpt lat="44.04551196708136" lon="7.940973577488604"><ele>528.0</ele><time>2026-05-03T14:09:14Z</time></trkpt><trkpt lat="44.045600177937104" lon="7.940858222061197"><ele>527.25</ele><time>2026-05-03T14:09:15Z</time></trkpt><trkpt lat="44.04568851991314" lon="7.940739438470744"><ele>526.5</ele><time>2026-05-03T14:09:16Z</time></trkpt><trkpt lat="44.04579126626665" lon="7.940615187903609"><ele>525.75</ele><time>2026-05-03T14:09:17Z</time></trkpt><trkpt lat="44.04588975744723" lon="7.940510664204115"><ele>525.0</ele><time>2026-05-03T14:09:18Z</time></trkpt><trkpt lat="44.045983498540515" lon="7.940391434641108"><ele>527.75</ele><time>2026-05-03T14:09:19Z</time></trkpt><trkpt lat="44.04605407075835" lon="7.940246495321462"><ele>530.5</ele><time>2026-05-03T14:09:20Z</time></trkpt><trkpt lat="44.046082390819734" lon="7.940077654994016"><ele>533.25</ele><time>2026-05-03T14:09:21Z</time></trkpt><trkpt lat="44.046123500014374" lon="7.9399381523827905"><ele>536.0</ele><time>2026-05-03T14:09:22Z</time></trkpt><trkpt lat="44.0461084311661" lon="7.93979844411147"><ele>536.0</ele><time>2026-05-03T14:09:23Z</time></trkpt><trkpt lat="44.04610730669505" lon="7.9396307578786685"><ele>536.0</ele><time>2026-05-03T14:09:24Z</time></trkpt><trkpt lat="44.04610712227384" lon="7.939440252804495"><ele>536.0</ele><time>2026-05-03T14:09:25Z</time></trkpt><trkpt lat="44.04612877631837" lon="7.939252798649156"><ele>536.0</ele><time>2026-05-03T14:09:26Z</time></trkpt><trkpt lat="44.046126255176596" lon="7.939044441431922"><ele>532.5</ele><time>2026-05-03T14:09:27Z</time></trkpt><trkpt lat="44.046125147764286" lon="7.938848916501371"><ele>529.0</ele><time>2026-05-03T14:09:28Z</time></trkpt><trkpt lat="44.04612957627641" lon="7.93867804112591"><ele>525.5</ele><time>2026-05-03T14:09:29Z</time></trkpt><trkpt lat="44.046177362309855" lon="7.938522305235173"><ele>522.0</ele><time>2026-05-03T14:09:30Z</time></trkpt><trkpt lat="44.04624102273447" lon="7.938371883775602"><ele>519.0</ele><time>2026-05-03T14:09:31Z</time></trkpt><trkpt lat="44.0463090694339" lon="7.938230908146951"><ele>516.0</ele><time>2026-05-03T14:09:32Z</time></trkpt><trkpt lat="44.04639618019847" lon="7.9381374899012345"><ele>513.0</ele><time>2026-05-03T14:09:33Z</time></trkpt><trkpt lat="44.04652585696015" lon="7.9379887191500815"><ele>510.0</ele><time>2026-05-03T14:09:35Z</time></trkpt><trkpt lat="44.046611949142985" lon="7.937894150317495"><ele>512.25</ele><time>2026-05-03T14:09:36Z</time></trkpt><trkpt lat="44.046707949105134" lon="7.9378120739719815"><ele>514.5</ele><time>2026-05-03T14:09:37Z</time></trkpt><trkpt lat="44.04682905045659" lon="7.937783974477744"><ele>516.75</ele><time>2026-05-03T14:09:38Z</time></trkpt><trkpt lat="44.04695689386811" lon="7.937682881940961"><ele>519.0</ele><time>2026-05-03T14:09:38.999Z</time></trkpt><trkpt lat="44.047045789420494" lon="7.937536499324538"><ele>519.0</ele><time>2026-05-03T14:09:39.999Z</time></trkpt><trkpt lat="44.04713912776999" lon="7.937442456706108"><ele>519.0</ele><time>2026-05-03T14:09:40.999Z</time></trkpt><trkpt lat="44.04726543397449" lon="7.937388139933741"><ele>519.0</ele><time>2026-05-03T14:09:41.999Z</time></trkpt><trkpt lat="44.04736965527322" lon="7.937316241969204"><ele>519.0</ele><time>2026-05-03T14:09:42.999Z</time></trkpt><trkpt lat="44.0474510929899" lon="7.937226216016565"><ele>519.0</ele><time>2026-05-03T14:09:43.999Z</time></trkpt><trkpt lat="44.04750818576347" lon="7.93710739185535"><ele>519.0</ele><time>2026-05-03T14:09:44.999Z</time></trkpt><trkpt lat="44.04747924894006" lon="7.936971465265087"><ele>519.0</ele><time>2026-05-03T14:09:45.999Z</time></trkpt><trkpt lat="44.04743384317051" lon="7.936785130669538"><ele>519.0</ele><time>2026-05-03T14:09:46.999Z</time></trkpt><trkpt lat="44.04741425970173" lon="7.936645681351304"><ele>519.0</ele><time>2026-05-03T14:09:47.999Z</time></trkpt><trkpt lat="44.047391957858046" lon="7.936498072014864"><ele>513.75</ele><time>2026-05-03T14:09:48.999Z</time></trkpt><trkpt lat="44.047363847537774" lon="7.936358951075973"><ele>508.5</ele><time>2026-05-03T14:09:49.999Z</time></trkpt><trkpt lat="44.04730599362474" lon="7.936243207877886"><ele>503.25</ele><time>2026-05-03T14:09:50.999Z</time></trkpt><trkpt lat="44.04724471773945" lon="7.9360960101376445"><ele>498.0</ele><time>2026-05-03T14:09:51.999Z</time></trkpt><trkpt lat="44.04718380794375" lon="7.935948366455187"><ele>498.0</ele><time>2026-05-03T14:09:52.999Z</time></trkpt><trkpt lat="44.04712888390928" lon="7.93580851216298"><ele>497.99999999999994</ele><time>2026-05-03T14:09:53.999Z</time></trkpt><trkpt lat="44.04707379825838" lon="7.9356658124680335"><ele>497.99999999999994</ele><time>2026-05-03T14:09:54.999Z</time></trkpt><trkpt lat="44.047046176196105" lon="7.935514213620775"><ele>498.0</ele><time>2026-05-03T14:09:55.999Z</time></trkpt><trkpt lat="44.047019403391324" lon="7.935375763141699"><ele>498.0</ele><time>2026-05-03T14:09:56.999Z</time></trkpt><trkpt lat="44.04700270774323" lon="7.935233298897157"><ele>498.0</ele><time>2026-05-03T14:09:57.999Z</time></trkpt><trkpt lat="44.046950151621154" lon="7.935104894622052"><ele>498.0</ele><time>2026-05-03T14:09:58.999Z</time></trkpt><trkpt lat="44.04688164329122" lon="7.934955566715435"><ele>498.0</ele><time>2026-05-03T14:09:59.999Z</time></trkpt><trkpt lat="44.046801050721015" lon="7.934820582233804"><ele>498.0</ele><time>2026-05-03T14:10:00.999Z</time></trkpt><trkpt lat="44.04671331574286" lon="7.934693733332659"><ele>498.59999999999997</ele><time>2026-05-03T14:10:01.999Z</time></trkpt><trkpt lat="44.04662545462445" lon="7.9345640612677135"><ele>499.19999999999993</ele><time>2026-05-03T14:10:02.999Z</time></trkpt><trkpt lat="44.046597044247434" lon="7.934481637696762"><ele>499.8</ele><time>2026-05-03T14:10:03.999Z</time></trkpt><trkpt lat="44.04658501673064" lon="7.934333196330259"><ele>500.4</ele><time>2026-05-03T14:10:04.999Z</time></trkpt><trkpt lat="44.046635991706765" lon="7.934165401434375"><ele>501.0</ele><time>2026-05-03T14:10:05.999Z</time></trkpt><trkpt lat="44.04665786614691" lon="7.933998857144268"><ele>501.0</ele><time>2026-05-03T14:10:06.999Z</time></trkpt><trkpt lat="44.046665071090985" lon="7.933833433630522"><ele>501.0</ele><time>2026-05-03T14:10:07.999Z</time></trkpt><trkpt lat="44.046676086980646" lon="7.933666024705025"><ele>501.0</ele><time>2026-05-03T14:10:08.999Z</time></trkpt><trkpt lat="44.04669170229606" lon="7.933514030909963"><ele>501.0</ele><time>2026-05-03T14:10:09.999Z</time></trkpt><trkpt lat="44.04670364153301" lon="7.9333598338189715"><ele>499.20000000000005</ele><time>2026-05-03T14:10:10.999Z</time></trkpt><trkpt lat="44.04671648576123" lon="7.93320763596533"><ele>497.40000000000003</ele><time>2026-05-03T14:10:11.999Z</time></trkpt><trkpt lat="44.04676025986245" lon="7.933063359971648"><ele>495.6</ele><time>2026-05-03T14:10:12.999Z</time></trkpt><trkpt lat="44.046807422984" lon="7.932919048119767"><ele>493.8</ele><time>2026-05-03T14:10:13.999Z</time></trkpt><trkpt lat="44.04683648298396" lon="7.932782708574539"><ele>492.0</ele><time>2026-05-03T14:10:14.999Z</time></trkpt><trkpt lat="44.04680898958891" lon="7.932638784488374"><ele>491.25</ele><time>2026-05-03T14:10:15.999Z</time></trkpt><trkpt lat="44.0467499287211" lon="7.93251927100573"><ele>490.5</ele><time>2026-05-03T14:10:16.999Z</time></trkpt><trkpt lat="44.046661484312814" lon="7.932399268802885"><ele>489.75</ele><time>2026-05-03T14:10:17.999Z</time></trkpt><trkpt lat="44.04655255712969" lon="7.932293443856242"><ele>489.0</ele><time>2026-05-03T14:10:18.999Z</time></trkpt><trkpt lat="44.046450217256094" lon="7.932172067692628"><ele>485.5</ele><time>2026-05-03T14:10:19.999Z</time></trkpt><trkpt lat="44.046354599552096" lon="7.93204022132416"><ele>482.0</ele><time>2026-05-03T14:10:20.999Z</time></trkpt><trkpt lat="44.04626140565698" lon="7.931925483093213"><ele>478.5</ele><time>2026-05-03T14:10:21.999Z</time></trkpt><trkpt lat="44.04616562510203" lon="7.93182007637721"><ele>475.0</ele><time>2026-05-03T14:10:22.999Z</time></trkpt><trkpt lat="44.04607599405423" lon="7.931708000644014"><ele>475.0</ele><time>2026-05-03T14:10:23.999Z</time></trkpt><trkpt lat="44.045981902570375" lon="7.931598387708183"><ele>475.0</ele><time>2026-05-03T14:10:24.999Z</time></trkpt><trkpt lat="44.045885015667835" lon="7.931500539517239"><ele>475.0</ele><time>2026-05-03T14:10:25.999Z</time></trkpt><trkpt lat="44.045785333205934" lon="7.931415249561856"><ele>475.0</ele><time>2026-05-03T14:10:26.999Z</time></trkpt><trkpt lat="44.045685275110266" lon="7.931344808311425"><ele>470.6</ele><time>2026-05-03T14:10:27.999Z</time></trkpt><trkpt lat="44.04560176822432" lon="7.931252216331873"><ele>466.2</ele><time>2026-05-03T14:10:28.999Z</time></trkpt><trkpt lat="44.04554013396202" lon="7.931124625451668"><ele>461.79999999999995</ele><time>2026-05-03T14:10:29.999Z</time></trkpt><trkpt lat="44.04548147064841" lon="7.930998226098748"><ele>457.4</ele><time>2026-05-03T14:10:30.999Z</time></trkpt><trkpt lat="44.045417635486665" lon="7.930881248393357"><ele>453.0</ele><time>2026-05-03T14:10:31.999Z</time></trkpt><trkpt lat="44.04535651005212" lon="7.930765010793956"><ele>453.0</ele><time>2026-05-03T14:10:32.999Z</time></trkpt><trkpt lat="44.04531434285042" lon="7.930638947290261"><ele>452.99999999999994</ele><time>2026-05-03T14:10:33.999Z</time></trkpt><trkpt lat="44.04531098653967" lon="7.930487001638814"><ele>452.99999999999994</ele><time>2026-05-03T14:10:34.999Z</time></trkpt><trkpt lat="44.045336620619274" lon="7.930319473498822"><ele>453.0</ele><time>2026-05-03T14:10:35.999Z</time></trkpt><trkpt lat="44.04534898138084" lon="7.930176120338631"><ele>453.0</ele><time>2026-05-03T14:10:36.999Z</time></trkpt><trkpt lat="44.045334593069754" lon="7.930020330378717"><ele>452.2</ele><time>2026-05-03T14:10:37.999Z</time></trkpt><trkpt lat="44.04529361091506" lon="7.929854330799351"><ele>451.4</ele><time>2026-05-03T14:10:38.999Z</time></trkpt><trkpt lat="44.04525692516906" lon="7.929713838679464"><ele>450.59999999999997</ele><time>2026-05-03T14:10:39.999Z</time></trkpt><trkpt lat="44.04524031307585" lon="7.9295883989733635"><ele>449.79999999999995</ele><time>2026-05-03T14:10:41Z</time></trkpt><trkpt lat="44.04524216205533" lon="7.929475712704836"><ele>449.0</ele><time>2026-05-03T14:10:42Z</time></trkpt><trkpt lat="44.04529596354627" lon="7.929349820348216"><ele>445.25</ele><time>2026-05-03T14:10:43Z</time></trkpt><trkpt lat="44.04538008185438" lon="7.9292142403932235"><ele>441.5</ele><time>2026-05-03T14:10:44Z</time></trkpt><trkpt lat="44.04547279652963" lon="7.9290816595041385"><ele>437.75</ele><time>2026-05-03T14:10:45Z</time></trkpt><trkpt lat="44.04556823801763" lon="7.928970735198118"><ele>434.0</ele><time>2026-05-03T14:10:46Z</time></trkpt><trkpt lat="44.04565984514398" lon="7.928863530100841"><ele>434.0</ele><time>2026-05-03T14:10:47Z</time></trkpt><trkpt lat="44.0457375145271" lon="7.928753998334547"><ele>434.0</ele><time>2026-05-03T14:10:48Z</time></trkpt><trkpt lat="44.04579444098942" lon="7.928655624908698"><ele>434.0</ele><time>2026-05-03T14:10:49Z</time></trkpt><trkpt lat="44.045828785747034" lon="7.9285381089629805"><ele>434.0</ele><time>2026-05-03T14:10:50Z</time></trkpt><trkpt lat="44.04582114686579" lon="7.928403471147711"><ele>434.0</ele><time>2026-05-03T14:10:51Z</time></trkpt><trkpt lat="44.04575756070377" lon="7.928270275687061"><ele>433.25</ele><time>2026-05-03T14:10:52Z</time></trkpt><trkpt lat="44.04565686928915" lon="7.928160301932233"><ele>432.5</ele><time>2026-05-03T14:10:53Z</time></trkpt><trkpt lat="44.04555845170392" lon="7.9280762354003596"><ele>431.75</ele><time>2026-05-03T14:10:54Z</time></trkpt><trkpt lat="44.045461418387376" lon="7.92800016217503"><ele>431.0</ele><time>2026-05-03T14:10:55Z</time></trkpt><trkpt lat="44.04535572244933" lon="7.927963948961801"><ele>431.0</ele><time>2026-05-03T14:10:56Z</time></trkpt><trkpt lat="44.045243769888756" lon="7.927952355377293"><ele>431.0</ele><time>2026-05-03T14:10:57Z</time></trkpt><trkpt lat="44.04513576573442" lon="7.927941044022761"><ele>431.0</ele><time>2026-05-03T14:10:58Z</time></trkpt><trkpt lat="44.04503377559421" lon="7.927922616928531"><ele>431.0</ele><time>2026-05-03T14:10:59Z</time></trkpt><trkpt lat="44.04494098039294" lon="7.927910173287949"><ele>431.0</ele><time>2026-05-03T14:11:00Z</time></trkpt><trkpt lat="44.04486166067843" lon="7.927831655832089"><ele>427.75</ele><time>2026-05-03T14:11:01Z</time></trkpt><trkpt lat="44.044789691416455" lon="7.9276941239579495"><ele>424.5</ele><time>2026-05-03T14:11:02Z</time></trkpt><trkpt lat="44.04471598174509" lon="7.927554496036985"><ele>421.25</ele><time>2026-05-03T14:11:03Z</time></trkpt><trkpt lat="44.04462043705871" lon="7.927426452208311"><ele>418.0</ele><time>2026-05-03T14:11:04Z</time></trkpt><trkpt lat="44.04451469971244" lon="7.927286215936033"><ele>418.0</ele><time>2026-05-03T14:11:05Z</time></trkpt><trkpt lat="44.04440514762194" lon="7.927167300289266"><ele>418.0</ele><time>2026-05-03T14:11:06Z</time></trkpt><trkpt lat="44.044302879911505" lon="7.927050433671743"><ele>418.0</ele><time>2026-05-03T14:11:07Z</time></trkpt><trkpt lat="44.04420349650669" lon="7.926933288511082"><ele>418.0</ele><time>2026-05-03T14:11:08Z</time></trkpt><trkpt lat="44.044107789884556" lon="7.926817035512203"><ele>418.5</ele><time>2026-05-03T14:11:09Z</time></trkpt><trkpt lat="44.044007070866016" lon="7.926709351302749"><ele>419.0</ele><time>2026-05-03T14:11:10Z</time></trkpt><trkpt lat="44.04388236250107" lon="7.92662329268736"><ele>419.5</ele><time>2026-05-03T14:11:11Z</time></trkpt><trkpt lat="44.04376178477923" lon="7.926555657244734"><ele>420.0</ele><time>2026-05-03T14:11:12Z</time></trkpt><trkpt lat="44.04364604199302" lon="7.926503849949052"><ele>420.0</ele><time>2026-05-03T14:11:13Z</time></trkpt><trkpt lat="44.04354364184698" lon="7.926445794890146"><ele>420.0</ele><time>2026-05-03T14:11:14Z</time></trkpt><trkpt lat="44.04344533864544" lon="7.926400087512591"><ele>420.0</ele><time>2026-05-03T14:11:15Z</time></trkpt><trkpt lat="44.04335037624318" lon="7.926375983163057"><ele>420.0</ele><time>2026-05-03T14:11:16Z</time></trkpt><trkpt lat="44.04325073544788" lon="7.926398376012709"><ele>420.0</ele><time>2026-05-03T14:11:17Z</time></trkpt><trkpt lat="44.04314370143159" lon="7.926468469769259"><ele>418.5</ele><time>2026-05-03T14:11:17.999Z</time></trkpt><trkpt lat="44.043055649555235" lon="7.926538553639012"><ele>417.0</ele><time>2026-05-03T14:11:18.999Z</time></trkpt><trkpt lat="44.043003553483906" lon="7.926614694333153"><ele>415.5</ele><time>2026-05-03T14:11:19.999Z</time></trkpt><trkpt lat="44.04297150304539" lon="7.926703223141999"><ele>414.0</ele><time>2026-05-03T14:11:20.999Z</time></trkpt><trkpt lat="44.04301955868107" lon="7.926827001373164"><ele>412.5</ele><time>2026-05-03T14:11:21.999Z</time></trkpt><trkpt lat="44.04311555710968" lon="7.92686552334146"><ele>411.0</ele><time>2026-05-03T14:11:22.999Z</time></trkpt><trkpt lat="44.04321066199922" lon="7.926849862433277"><ele>412.8</ele><time>2026-05-03T14:11:23.999Z</time></trkpt><trkpt lat="44.04330217871358" lon="7.926791991234098"><ele>414.6</ele><time>2026-05-03T14:11:24.999Z</time></trkpt><trkpt lat="44.043377394359176" lon="7.926754687381734"><ele>416.4</ele><time>2026-05-03T14:11:25.999Z</time></trkpt><trkpt lat="44.043460386248675" lon="7.926734505863416"><ele>418.2</ele><time>2026-05-03T14:11:26.999Z</time></trkpt><trkpt lat="44.04355406060525" lon="7.926722541229147"><ele>420.0</ele><time>2026-05-03T14:11:27.999Z</time></trkpt><trkpt lat="44.04364491007727" lon="7.926764010345506"><ele>415.8</ele><time>2026-05-03T14:11:28.999Z</time></trkpt><trkpt lat="44.04372786790505" lon="7.926813463225193"><ele>411.6</ele><time>2026-05-03T14:11:29.999Z</time></trkpt><trkpt lat="44.04381802995503" lon="7.926902747628353"><ele>407.4</ele><time>2026-05-03T14:11:30.999Z</time></trkpt><trkpt lat="44.04389215574781" lon="7.9270048809167895"><ele>403.2</ele><time>2026-05-03T14:11:31.999Z</time></trkpt><trkpt lat="44.04397057206777" lon="7.927125449066635"><ele>399.0</ele><time>2026-05-03T14:11:32.999Z</time></trkpt><trkpt lat="44.04407342960301" lon="7.927272855922876"><ele>397.75</ele><time>2026-05-03T14:11:33.999Z</time></trkpt><trkpt lat="44.0441762939092" lon="7.927418442830504"><ele>396.5</ele><time>2026-05-03T14:11:34.999Z</time></trkpt><trkpt lat="44.04427534236493" lon="7.927558629070385"><ele>395.25</ele><time>2026-05-03T14:11:35.999Z</time></trkpt><trkpt lat="44.044361045134536" lon="7.927691932032199"><ele>394.0</ele><time>2026-05-03T14:11:36.999Z</time></trkpt><trkpt lat="44.044428993198785" lon="7.927838483527973"><ele>394.0</ele><time>2026-05-03T14:11:37.999Z</time></trkpt><trkpt lat="44.0444834540417" lon="7.928005063713618"><ele>394.0</ele><time>2026-05-03T14:11:38.999Z</time></trkpt><trkpt lat="44.044529311588235" lon="7.928184755588635"><ele>394.0</ele><time>2026-05-03T14:11:39.999Z</time></trkpt><trkpt lat="44.044607897450874" lon="7.928337907706575"><ele>394.0</ele><time>2026-05-03T14:11:40.999Z</time></trkpt><trkpt lat="44.044689567709376" lon="7.928465339113107"><ele>393.2</ele><time>2026-05-03T14:11:41.999Z</time></trkpt><trkpt lat="44.044761598211096" lon="7.928589524409338"><ele>392.4</ele><time>2026-05-03T14:11:42.999Z</time></trkpt><trkpt lat="44.04480169709603" lon="7.928698206522324"><ele>391.6</ele><time>2026-05-03T14:11:43.999Z</time></trkpt><trkpt lat="44.04478945131943" lon="7.928823233635841"><ele>390.8</ele><time>2026-05-03T14:11:44.999Z</time></trkpt><trkpt lat="44.04474630739765" lon="7.928948335448498"><ele>390.0</ele><time>2026-05-03T14:11:45.999Z</time></trkpt><trkpt lat="44.04467076113132" lon="7.929073769233636"><ele>390.0</ele><time>2026-05-03T14:11:46.999Z</time></trkpt><trkpt lat="44.0445885152946" lon="7.929225205459333"><ele>390.0</ele><time>2026-05-03T14:11:47.999Z</time></trkpt><trkpt lat="44.04450815131227" lon="7.9293894727210805"><ele>390.0</ele><time>2026-05-03T14:11:48.999Z</time></trkpt><trkpt lat="44.0444325196277" lon="7.929542565431399"><ele>390.0</ele><time>2026-05-03T14:11:49.999Z</time></trkpt><trkpt lat="44.044367368181945" lon="7.929682024360382"><ele>391.25</ele><time>2026-05-03T14:11:50.999Z</time></trkpt><trkpt lat="44.04429399413155" lon="7.929822639798543"><ele>392.5</ele><time>2026-05-03T14:11:51.999Z</time></trkpt><trkpt lat="44.04428332635044" lon="7.930001098363421"><ele>393.75</ele><time>2026-05-03T14:11:52.999Z</time></trkpt><trkpt lat="44.04427407831666" lon="7.930188515411735"><ele>395.0</ele><time>2026-05-03T14:11:53.999Z</time></trkpt><trkpt lat="44.04425511192285" lon="7.930348754250159"><ele>397.5</ele><time>2026-05-03T14:11:54.999Z</time></trkpt><trkpt lat="44.04420491006296" lon="7.930495975944093"><ele>400.0</ele><time>2026-05-03T14:11:55.999Z</time></trkpt><trkpt lat="44.04413714534288" lon="7.930672456039539"><ele>402.5</ele><time>2026-05-03T14:11:56.999Z</time></trkpt><trkpt lat="44.04406969725334" lon="7.930848072220967"><ele>405.0</ele><time>2026-05-03T14:11:57.999Z</time></trkpt><trkpt lat="44.044005373652666" lon="7.9310111117113475"><ele>393.25</ele><time>2026-05-03T14:11:58.999Z</time></trkpt><trkpt lat="44.043946849421616" lon="7.93116764388743"><ele>381.5</ele><time>2026-05-03T14:11:59.999Z</time></trkpt><trkpt lat="44.043925261646955" lon="7.93133680571998"><ele>369.75</ele><time>2026-05-03T14:12:00.999Z</time></trkpt><trkpt lat="44.04388563127742" lon="7.931484133301332"><ele>358.0</ele><time>2026-05-03T14:12:01.999Z</time></trkpt><trkpt lat="44.04387165992059" lon="7.931623689399028"><ele>357.4</ele><time>2026-05-03T14:12:02.999Z</time></trkpt><trkpt lat="44.043878363842424" lon="7.931757131166585"><ele>356.79999999999995</ele><time>2026-05-03T14:12:03.999Z</time></trkpt><trkpt lat="44.0439050827985" lon="7.931882881516358"><ele>356.2</ele><time>2026-05-03T14:12:04.999Z</time></trkpt><trkpt lat="44.043985003215646" lon="7.931985226651972"><ele>355.6</ele><time>2026-05-03T14:12:05.999Z</time></trkpt><trkpt lat="44.04406137186874" lon="7.932075155055852"><ele>355.0</ele><time>2026-05-03T14:12:06.999Z</time></trkpt><trkpt lat="44.04417734344439" lon="7.932115616615264"><ele>362.0</ele><time>2026-05-03T14:12:07.999Z</time></trkpt><trkpt lat="44.044273779317095" lon="7.932199898375793"><ele>369.0</ele><time>2026-05-03T14:12:08.999Z</time></trkpt><trkpt lat="44.04435326608896" lon="7.932277501861443"><ele>376.0</ele><time>2026-05-03T14:12:09.999Z</time></trkpt><trkpt lat="44.044410385482095" lon="7.932382179436665"><ele>383.0</ele><time>2026-05-03T14:12:10.999Z</time></trkpt><trkpt lat="44.04446721540232" lon="7.932481582611373"><ele>390.0</ele><time>2026-05-03T14:12:11.999Z</time></trkpt><trkpt lat="44.0445010745525" lon="7.932564486607076"><ele>390.8</ele><time>2026-05-03T14:12:12.999Z</time></trkpt><trkpt lat="44.04447043527984" lon="7.932711863155512"><ele>391.6</ele><time>2026-05-03T14:12:14.999Z</time></trkpt><trkpt lat="44.04439707305806" lon="7.932733401432693"><ele>392.4</ele><time>2026-05-03T14:12:15.999Z</time></trkpt><trkpt lat="44.044318760908006" lon="7.932810374044251"><ele>393.2</ele><time>2026-05-03T14:12:16.999Z</time></trkpt><trkpt lat="44.044223108825065" lon="7.93284574378914"><ele>394.0</ele><time>2026-05-03T14:12:17.999Z</time></trkpt><trkpt lat="44.044142976527795" lon="7.932914524250079"><ele>388.79999999999995</ele><time>2026-05-03T14:12:18.999Z</time></trkpt><trkpt lat="44.04406767673561" lon="7.932979654560489"><ele>383.59999999999997</ele><time>2026-05-03T14:12:19.999Z</time></trkpt><trkpt lat="44.043984630532286" lon="7.933057928806124"><ele>378.4</ele><time>2026-05-03T14:12:20.999Z</time></trkpt><trkpt lat="44.04391956459313" lon="7.933181481282539"><ele>373.2</ele><time>2026-05-03T14:12:21.999Z</time></trkpt><trkpt lat="44.043863673366474" lon="7.933307695734876"><ele>368.0</ele><time>2026-05-03T14:12:22.999Z</time></trkpt><trkpt lat="44.04379669004847" lon="7.933421604198954"><ele>368.0</ele><time>2026-05-03T14:12:23.999Z</time></trkpt><trkpt lat="44.04373468824975" lon="7.9335348680753865"><ele>368.0</ele><time>2026-05-03T14:12:24.999Z</time></trkpt><trkpt lat="44.04367690983787" lon="7.933637554767197"><ele>368.0</ele><time>2026-05-03T14:12:25.999Z</time></trkpt><trkpt lat="44.043630691160125" lon="7.933757907954474"><ele>368.0</ele><time>2026-05-03T14:12:26.999Z</time></trkpt><trkpt lat="44.043635615247" lon="7.933899648713044"><ele>368.0</ele><time>2026-05-03T14:12:27.999Z</time></trkpt><trkpt lat="44.043671006862105" lon="7.934022843409014"><ele>368.0</ele><time>2026-05-03T14:12:28.999Z</time></trkpt><trkpt lat="44.043745289916295" lon="7.934137666498571"><ele>368.0</ele><time>2026-05-03T14:12:29.999Z</time></trkpt><trkpt lat="44.04384054668299" lon="7.934238768072844"><ele>368.0</ele><time>2026-05-03T14:12:30.999Z</time></trkpt><trkpt lat="44.04391078805083" lon="7.934329099113345"><ele>368.0</ele><time>2026-05-03T14:12:31.999Z</time></trkpt><trkpt lat="44.04394844355307" lon="7.934436252067968"><ele>368.0</ele><time>2026-05-03T14:12:32.999Z</time></trkpt><trkpt lat="44.04395104175051" lon="7.934554319810972"><ele>365.4</ele><time>2026-05-03T14:12:33.999Z</time></trkpt><trkpt lat="44.04394767814979" lon="7.934706316734296"><ele>362.79999999999995</ele><time>2026-05-03T14:12:34.999Z</time></trkpt><trkpt lat="44.04395047402655" lon="7.934835268669292"><ele>360.2</ele><time>2026-05-03T14:12:35.999Z</time></trkpt><trkpt lat="44.04396383258795" lon="7.934955230763831"><ele>357.6</ele><time>2026-05-03T14:12:36.999Z</time></trkpt><trkpt lat="44.043991298587386" lon="7.935068318446039"><ele>355.0</ele><time>2026-05-03T14:12:37.999Z</time></trkpt><trkpt lat="44.044016136764256" lon="7.935170879914896"><ele>354.3333333333333</ele><time>2026-05-03T14:12:38.999Z</time></trkpt><trkpt lat="44.04404091922113" lon="7.935315801044791"><ele>353.66666666666663</ele><time>2026-05-03T14:12:40.999Z</time></trkpt><trkpt lat="44.04397283664639" lon="7.935364855334654"><ele>353.0</ele><time>2026-05-03T14:12:44.999Z</time></trkpt><trkpt lat="44.0439229328497" lon="7.935469879238752"><ele>352.3333333333333</ele><time>2026-05-03T14:12:48Z</time></trkpt><trkpt lat="44.04390055123226" lon="7.935553149145798"><ele>351.6666666666667</ele><time>2026-05-03T14:12:49Z</time></trkpt><trkpt lat="44.04390458114565" lon="7.935673191009863"><ele>351.0</ele><time>2026-05-03T14:12:51Z</time></trkpt><trkpt lat="44.0439149159997" lon="7.9358277175153455"><ele>353.6</ele><time>2026-05-03T14:12:53Z</time></trkpt><trkpt lat="44.04389179267655" lon="7.935980800005351"><ele>356.20000000000005</ele><time>2026-05-03T14:12:55Z</time></trkpt><trkpt lat="44.04386874113579" lon="7.9361502453078305"><ele>358.79999999999995</ele><time>2026-05-03T14:12:57Z</time></trkpt><trkpt lat="44.04385869575329" lon="7.936294337098218"><ele>361.4</ele><time>2026-05-03T14:12:59Z</time></trkpt><trkpt lat="44.04378711383774" lon="7.936327835502354"><ele>364.0</ele><time>2026-05-03T14:13:00Z</time></trkpt><trkpt lat="44.04368064132802" lon="7.936433562617665"><ele>364.0</ele><time>2026-05-03T14:13:02Z</time></trkpt><trkpt lat="44.043619601510294" lon="7.93648774165342"><ele>364.0</ele><time>2026-05-03T14:13:03Z</time></trkpt><trkpt lat="44.04355980767585" lon="7.936541030402483"><ele>364.0</ele><time>2026-05-03T14:13:04Z</time></trkpt><trkpt lat="44.043500944207395" lon="7.936579843977962"><ele>364.0</ele><time>2026-05-03T14:13:05Z</time></trkpt><trkpt lat="44.04344654977891" lon="7.936638060565799"><ele>364.0</ele><time>2026-05-03T14:13:05.999Z</time></trkpt><trkpt lat="44.04338477777742" lon="7.936686994040359"><ele>364.0</ele><time>2026-05-03T14:13:06.999Z</time></trkpt><trkpt lat="44.043322146486425" lon="7.93673609679991"><ele>364.0</ele><time>2026-05-03T14:13:07.999Z</time></trkpt><trkpt lat="44.04324577645144" lon="7.936765375791745"><ele>356.4</ele><time>2026-05-03T14:13:08.999Z</time></trkpt><trkpt lat="44.043169689092025" lon="7.936777339372219"><ele>348.79999999999995</ele><time>2026-05-03T14:13:09.999Z</time></trkpt><trkpt lat="44.043096335138735" lon="7.936781407538426"><ele>341.20000000000005</ele><time>2026-05-03T14:13:10.999Z</time></trkpt><trkpt lat="44.04298756265024" lon="7.936786886781613"><ele>333.6</ele><time>2026-05-03T14:13:12.999Z</time></trkpt><trkpt lat="44.04295009908818" lon="7.93693529143655"><ele>326.0</ele><time>2026-05-03T14:13:14.999Z</time></trkpt><trkpt lat="44.04296185576445" lon="7.9370488196788775"><ele>326.0</ele><time>2026-05-03T14:13:15.999Z</time></trkpt><trkpt lat="44.04297879069361" lon="7.937152460736099"><ele>326.0</ele><time>2026-05-03T14:13:16.999Z</time></trkpt><trkpt lat="44.04301326268332" lon="7.9372861770707175"><ele>326.0</ele><time>2026-05-03T14:13:17.999Z</time></trkpt><trkpt lat="44.04304752693629" lon="7.937412404839086"><ele>326.0</ele><time>2026-05-03T14:13:18.999Z</time></trkpt><trkpt lat="44.04308139418742" lon="7.937540503497658"><ele>326.0</ele><time>2026-05-03T14:13:19.999Z</time></trkpt><trkpt lat="44.04310924306071" lon="7.937655615242287"><ele>326.1666666666667</ele><time>2026-05-03T14:13:20.999Z</time></trkpt><trkpt lat="44.04312820637092" lon="7.937768343395829"><ele>326.33333333333337</ele><time>2026-05-03T14:13:21.999Z</time></trkpt><trkpt lat="44.043140978919936" lon="7.9378654593053835"><ele>326.5</ele><time>2026-05-03T14:13:22.999Z</time></trkpt><trkpt lat="44.043081524102995" lon="7.937990518297775"><ele>326.6666666666667</ele><time>2026-05-03T14:13:24.999Z</time></trkpt><trkpt lat="44.04301438048815" lon="7.938034935094353"><ele>326.8333333333333</ele><time>2026-05-03T14:13:25.999Z</time></trkpt><trkpt lat="44.04295748844448" lon="7.9380888963851"><ele>327.0</ele><time>2026-05-03T14:13:26.999Z</time></trkpt><trkpt lat="44.04291040672344" lon="7.938174189899302"><ele>327.0</ele><time>2026-05-03T14:13:28Z</time></trkpt><trkpt lat="44.042859084473456" lon="7.9382615704724655"><ele>327.0</ele><time>2026-05-03T14:13:29Z</time></trkpt><trkpt lat="44.04284765989147" lon="7.938358609114458"><ele>327.0</ele><time>2026-05-03T14:13:30Z</time></trkpt><trkpt lat="44.04284044338213" lon="7.938468705262668"><ele>327.0</ele><time>2026-05-03T14:13:31Z</time></trkpt><trkpt lat="44.042844948917555" lon="7.938568681785033"><ele>327.0</ele><time>2026-05-03T14:13:32Z</time></trkpt><trkpt lat="44.0428411114106" lon="7.938675548364395"><ele>327.0</ele><time>2026-05-03T14:13:33Z</time></trkpt><trkpt lat="44.04283240574355" lon="7.938778022911079"><ele>328.1666666666667</ele><time>2026-05-03T14:13:34Z</time></trkpt><trkpt lat="44.04281421618388" lon="7.938877012636016"><ele>329.3333333333333</ele><time>2026-05-03T14:13:35Z</time></trkpt><trkpt lat="44.04278673383768" lon="7.938961793002411"><ele>330.5</ele><time>2026-05-03T14:13:36Z</time></trkpt><trkpt lat="44.04272309605005" lon="7.9390387442636685"><ele>331.66666666666663</ele><time>2026-05-03T14:13:37Z</time></trkpt><trkpt lat="44.04265109639513" lon="7.939122377713866"><ele>332.8333333333333</ele><time>2026-05-03T14:13:38Z</time></trkpt><trkpt lat="44.04258022235974" lon="7.939207616548659"><ele>334.0</ele><time>2026-05-03T14:13:39Z</time></trkpt><trkpt lat="44.042527555710116" lon="7.939290710700775"><ele>336.8333333333333</ele><time>2026-05-03T14:13:40Z</time></trkpt><trkpt lat="44.042474133350446" lon="7.939373696547333"><ele>339.66666666666663</ele><time>2026-05-03T14:13:41Z</time></trkpt><trkpt lat="44.0424136751382" lon="7.939437425555925"><ele>342.5</ele><time>2026-05-03T14:13:42Z</time></trkpt><trkpt lat="44.04233838000633" lon="7.939477756483427"><ele>345.3333333333333</ele><time>2026-05-03T14:13:43Z</time></trkpt><trkpt lat="44.04227180618983" lon="7.939518514151716"><ele>348.1666666666667</ele><time>2026-05-03T14:13:44Z</time></trkpt><trkpt lat="44.04220826719389" lon="7.939650133293553"><ele>351.0</ele><time>2026-05-03T14:13:46Z</time></trkpt><trkpt lat="44.04222698059719" lon="7.939817696771604"><ele>342.8</ele><time>2026-05-03T14:13:48Z</time></trkpt><trkpt lat="44.04227918639911" lon="7.940010864624379"><ele>334.6</ele><time>2026-05-03T14:13:49Z</time></trkpt><trkpt lat="44.04228509699953" lon="7.940112622107477"><ele>326.4</ele><time>2026-05-03T14:13:50Z</time></trkpt><trkpt lat="44.04226119047128" lon="7.9402193687617135"><ele>318.2</ele><time>2026-05-03T14:13:51Z</time></trkpt><trkpt lat="44.042228729637095" lon="7.940392002768501"><ele>310.0</ele><time>2026-05-03T14:13:52Z</time></trkpt><trkpt lat="44.04220170076314" lon="7.940521730617876"><ele>310.0</ele><time>2026-05-03T14:13:53Z</time></trkpt><trkpt lat="44.04218041157553" lon="7.940632180372761"><ele>310.0</ele><time>2026-05-03T14:13:54Z</time></trkpt><trkpt lat="44.042156167488876" lon="7.9407326609059705"><ele>310.0</ele><time>2026-05-03T14:13:55Z</time></trkpt><trkpt lat="44.042123593038916" lon="7.940816940468965"><ele>310.0</ele><time>2026-05-03T14:13:56Z</time></trkpt><trkpt lat="44.042090549685355" lon="7.940905780242427"><ele>310.0</ele><time>2026-05-03T14:13:57Z</time></trkpt><trkpt lat="44.04205751561212" lon="7.940998715696853"><ele>310.0</ele><time>2026-05-03T14:13:58Z</time></trkpt><trkpt lat="44.04202479920818" lon="7.94108095411093"><ele>310.0</ele><time>2026-05-03T14:13:59Z</time></trkpt><trkpt lat="44.041991410232185" lon="7.941164743793813"><ele>311.66666666666663</ele><time>2026-05-03T14:14:00Z</time></trkpt><trkpt lat="44.04190088263627" lon="7.941295849210487"><ele>313.3333333333333</ele><time>2026-05-03T14:14:02Z</time></trkpt><trkpt lat="44.04184781679386" lon="7.9413711286795206"><ele>315.0</ele><time>2026-05-03T14:14:03Z</time></trkpt><trkpt lat="44.04180826539107" lon="7.941446517783311"><ele>316.6666666666667</ele><time>2026-05-03T14:14:04Z</time></trkpt><trkpt lat="44.04177243116412" lon="7.941532725104278"><ele>318.33333333333337</ele><time>2026-05-03T14:14:05Z</time></trkpt><trkpt lat="44.041749527607394" lon="7.9416240520956585"><ele>320.0</ele><time>2026-05-03T14:14:06Z</time></trkpt><trkpt lat="44.0417460492088" lon="7.941719021830492"><ele>320.0</ele><time>2026-05-03T14:14:07Z</time></trkpt><trkpt lat="44.041765714010815" lon="7.9418055822806455"><ele>320.0</ele><time>2026-05-03T14:14:08Z</time></trkpt><trkpt lat="44.041762524861845" lon="7.941893886983774"><ele>320.0</ele><time>2026-05-03T14:14:10Z</time></trkpt><trkpt lat="44.04167290614073" lon="7.941853399923869"><ele>320.0</ele><time>2026-05-03T14:14:12Z</time></trkpt><trkpt lat="44.04164968959484" lon="7.94175720742613"><ele>320.0</ele><time>2026-05-03T14:14:13Z</time></trkpt><trkpt lat="44.04164221901792" lon="7.941653248055891"><ele>320.0</ele><time>2026-05-03T14:14:14Z</time></trkpt><trkpt lat="44.041650992562545" lon="7.941539953270411"><ele>320.0</ele><time>2026-05-03T14:14:15Z</time></trkpt><trkpt lat="44.04166762008866" lon="7.941437588441281"><ele>320.0</ele><time>2026-05-03T14:14:16Z</time></trkpt><trkpt lat="44.04169439930827" lon="7.941319442316478"><ele>320.0</ele><time>2026-05-03T14:14:17Z</time></trkpt><trkpt lat="44.04172055506953" lon="7.941194987183514"><ele>320.0</ele><time>2026-05-03T14:14:18Z</time></trkpt><trkpt lat="44.04175297955443" lon="7.9410718846791255"><ele>320.0</ele><time>2026-05-03T14:14:19Z</time></trkpt><trkpt lat="44.04177283433107" lon="7.94095368911643"><ele>320.0</ele><time>2026-05-03T14:14:20Z</time></trkpt><trkpt lat="44.04178587732243" lon="7.940846665446483"><ele>318.33333333333337</ele><time>2026-05-03T14:14:21Z</time></trkpt><trkpt lat="44.04181170648239" lon="7.940743772017833"><ele>316.6666666666667</ele><time>2026-05-03T14:14:22Z</time></trkpt><trkpt lat="44.04185308925991" lon="7.940636165391546"><ele>315.0</ele><time>2026-05-03T14:14:23Z</time></trkpt><trkpt lat="44.04188941866249" lon="7.9405326500667925"><ele>313.3333333333333</ele><time>2026-05-03T14:14:24Z</time></trkpt><trkpt lat="44.041913551744514" lon="7.940421237314733"><ele>311.66666666666663</ele><time>2026-05-03T14:14:25Z</time></trkpt><trkpt lat="44.04191768942019" lon="7.940312029151608"><ele>310.0</ele><time>2026-05-03T14:14:26Z</time></trkpt><trkpt lat="44.041898543605484" lon="7.940204115596572"><ele>310.0</ele><time>2026-05-03T14:14:27Z</time></trkpt><trkpt lat="44.041892560424735" lon="7.940088061217965"><ele>310.0</ele><time>2026-05-03T14:14:28Z</time></trkpt><trkpt lat="44.041908362127266" lon="7.9399704000855404"><ele>310.0</ele><time>2026-05-03T14:14:29Z</time></trkpt><trkpt lat="44.04192941294627" lon="7.939856993063046"><ele>310.0</ele><time>2026-05-03T14:14:30Z</time></trkpt><trkpt lat="44.04193956787724" lon="7.939745883703812"><ele>310.0</ele><time>2026-05-03T14:14:31Z</time></trkpt><trkpt lat="44.041928687127296" lon="7.939625598240439"><ele>310.0</ele><time>2026-05-03T14:14:32Z</time></trkpt><trkpt lat="44.04191308879774" lon="7.939521764381524"><ele>309.0</ele><time>2026-05-03T14:14:33Z</time></trkpt><trkpt lat="44.0419156319562" lon="7.939367394271001"><ele>308.0</ele><time>2026-05-03T14:14:35Z</time></trkpt><trkpt lat="44.04202124277931" lon="7.939238831040044"><ele>307.0</ele><time>2026-05-03T14:14:37Z</time></trkpt><trkpt lat="44.04208422990778" lon="7.9391722341913775"><ele>306.0</ele><time>2026-05-03T14:14:38Z</time></trkpt><trkpt lat="44.04214429460536" lon="7.939086991297746"><ele>305.0</ele><time>2026-05-03T14:14:39Z</time></trkpt><trkpt lat="44.04219403633082" lon="7.938995422975389"><ele>302.6666666666667</ele><time>2026-05-03T14:14:40Z</time></trkpt><trkpt lat="44.04222729796567" lon="7.938908042798567"><ele>300.33333333333337</ele><time>2026-05-03T14:14:41Z</time></trkpt><trkpt lat="44.04225185508725" lon="7.93881749608878"><ele>298.0</ele><time>2026-05-03T14:14:42Z</time></trkpt><trkpt lat="44.04225831522187" lon="7.938723313460283"><ele>295.6666666666667</ele><time>2026-05-03T14:14:43Z</time></trkpt><trkpt lat="44.04224943955977" lon="7.938619353561417"><ele>293.3333333333333</ele><time>2026-05-03T14:14:44Z</time></trkpt><trkpt lat="44.04223750258107" lon="7.9384830855395165"><ele>291.0</ele><time>2026-05-03T14:14:45Z</time></trkpt><trkpt lat="44.04222074898224" lon="7.9383354437196"><ele>288.8333333333333</ele><time>2026-05-03T14:14:46Z</time></trkpt><trkpt lat="44.04220454574725" lon="7.938212575668901"><ele>286.6666666666667</ele><time>2026-05-03T14:14:47Z</time></trkpt><trkpt lat="44.042189807385284" lon="7.938097932701539"><ele>284.5</ele><time>2026-05-03T14:14:48Z</time></trkpt><trkpt lat="44.04218237349536" lon="7.93800056057708"><ele>282.33333333333337</ele><time>2026-05-03T14:14:49Z</time></trkpt><trkpt lat="44.04219682917356" lon="7.937903289565965"><ele>280.1666666666667</ele><time>2026-05-03T14:14:50Z</time></trkpt><trkpt lat="44.04222747637833" lon="7.937739357752413"><ele>278.0</ele><time>2026-05-03T14:14:52Z</time></trkpt><trkpt lat="44.042144328119115" lon="7.937614430580812"><ele>278.8</ele><time>2026-05-03T14:14:54Z</time></trkpt><trkpt lat="44.04206906031768" lon="7.9375282920312715"><ele>279.6</ele><time>2026-05-03T14:14:56Z</time></trkpt><trkpt lat="44.04203250565786" lon="7.937407147443357"><ele>280.4</ele><time>2026-05-03T14:14:58Z</time></trkpt><trkpt lat="44.04201234202705" lon="7.937321282540917"><ele>281.2</ele><time>2026-05-03T14:14:59Z</time></trkpt><trkpt lat="44.04197169675984" lon="7.937191079650722"><ele>282.0</ele><time>2026-05-03T14:15:00Z</time></trkpt><trkpt lat="44.04193390457346" lon="7.9370692545866595"><ele>282.0</ele><time>2026-05-03T14:15:01Z</time></trkpt><trkpt lat="44.041887034232715" lon="7.936941205501683"><ele>282.0</ele><time>2026-05-03T14:15:02Z</time></trkpt><trkpt lat="44.0418573350873" lon="7.936829064897499"><ele>282.0</ele><time>2026-05-03T14:15:03Z</time></trkpt><trkpt lat="44.04182457183484" lon="7.936725233322453"><ele>282.0</ele><time>2026-05-03T14:15:04Z</time></trkpt><trkpt lat="44.04180202997362" lon="7.936619449240032"><ele>282.0</ele><time>2026-05-03T14:15:05Z</time></trkpt><trkpt lat="44.0417928516603" lon="7.936515399081824"><ele>282.0</ele><time>2026-05-03T14:15:06Z</time></trkpt><trkpt lat="44.04180466167797" lon="7.936393074062713"><ele>284.0</ele><time>2026-05-03T14:15:07Z</time></trkpt><trkpt lat="44.041814376117166" lon="7.936258059367427"><ele>286.0</ele><time>2026-05-03T14:15:08Z</time></trkpt><trkpt lat="44.04181548873808" lon="7.936100351499584"><ele>288.0</ele><time>2026-05-03T14:15:09Z</time></trkpt><trkpt lat="44.04180270888383" lon="7.9359538750997665"><ele>290.0</ele><time>2026-05-03T14:15:10Z</time></trkpt><trkpt lat="44.04179540361248" lon="7.935855364274856"><ele>292.0</ele><time>2026-05-03T14:15:11Z</time></trkpt><trkpt lat="44.04176590200441" lon="7.9357359399921465"><ele>292.0</ele><time>2026-05-03T14:15:13Z</time></trkpt><trkpt lat="44.04168101775975" lon="7.935782504962563"><ele>292.0</ele><time>2026-05-03T14:15:15Z</time></trkpt><trkpt lat="44.041646711961235" lon="7.935886212447366"><ele>292.0</ele><time>2026-05-03T14:15:16Z</time></trkpt><trkpt lat="44.041632527034075" lon="7.9360121102301004"><ele>292.0</ele><time>2026-05-03T14:15:17Z</time></trkpt><trkpt lat="44.04161132916562" lon="7.936150121262354"><ele>292.0</ele><time>2026-05-03T14:15:18Z</time></trkpt><trkpt lat="44.04158412603957" lon="7.936276468907595"><ele>284.5</ele><time>2026-05-03T14:15:19Z</time></trkpt><trkpt lat="44.04155075712393" lon="7.936397714167873"><ele>277.0</ele><time>2026-05-03T14:15:20Z</time></trkpt><trkpt lat="44.04151406880053" lon="7.936512724848692"><ele>269.5</ele><time>2026-05-03T14:15:21Z</time></trkpt><trkpt lat="44.041470515450314" lon="7.936611683659475"><ele>262.0</ele><time>2026-05-03T14:15:22Z</time></trkpt><trkpt lat="44.04144760374312" lon="7.936694183974982"><ele>254.49999999999997</ele><time>2026-05-03T14:15:23Z</time></trkpt><trkpt lat="44.041448356975216" lon="7.93680094159494"><ele>247.0</ele><time>2026-05-03T14:15:24Z</time></trkpt><trkpt lat="44.04147178579961" lon="7.936913648532035"><ele>246.0</ele><time>2026-05-03T14:15:25Z</time></trkpt><trkpt lat="44.041518488204304" lon="7.937046356798203"><ele>245.0</ele><time>2026-05-03T14:15:26Z</time></trkpt><trkpt lat="44.04156307653163" lon="7.937180752482292"><ele>244.0</ele><time>2026-05-03T14:15:27Z</time></trkpt><trkpt lat="44.04160733522378" lon="7.937289951543239"><ele>243.0</ele><time>2026-05-03T14:15:28Z</time></trkpt><trkpt lat="44.04163810251548" lon="7.937403947291079"><ele>242.0</ele><time>2026-05-03T14:15:29Z</time></trkpt><trkpt lat="44.04165498279885" lon="7.9375258267316395"><ele>248.00000000000003</ele><time>2026-05-03T14:15:30Z</time></trkpt><trkpt lat="44.04167232167051" lon="7.937642161167553"><ele>254.0</ele><time>2026-05-03T14:15:31Z</time></trkpt><trkpt lat="44.04169908624562" lon="7.937758579453791"><ele>260.0</ele><time>2026-05-03T14:15:32Z</time></trkpt><trkpt lat="44.04173260573335" lon="7.937845327540858"><ele>266.0</ele><time>2026-05-03T14:15:33Z</time></trkpt><trkpt lat="44.04177434002348" lon="7.93796791079101"><ele>272.0</ele><time>2026-05-03T14:15:35Z</time></trkpt><trkpt lat="44.04172005173711" lon="7.938091423843761"><ele>278.0</ele><time>2026-05-03T14:15:37Z</time></trkpt><trkpt lat="44.04164788570236" lon="7.938146923864477"><ele>272.33333333333337</ele><time>2026-05-03T14:15:38Z</time></trkpt><trkpt lat="44.041604153872704" lon="7.938224585321114"><ele>266.6666666666667</ele><time>2026-05-03T14:15:39Z</time></trkpt><trkpt lat="44.04157863590388" lon="7.938322527439929"><ele>261.0</ele><time>2026-05-03T14:15:40Z</time></trkpt><trkpt lat="44.0415674262099" lon="7.938445454675737"><ele>255.33333333333331</ele><time>2026-05-03T14:15:41Z</time></trkpt><trkpt lat="44.04155972827579" lon="7.93856454041632"><ele>249.66666666666666</ele><time>2026-05-03T14:15:42Z</time></trkpt><trkpt lat="44.04155721710971" lon="7.938654235382252"><ele>244.0</ele><time>2026-05-03T14:15:43Z</time></trkpt><trkpt lat="44.041527059897206" lon="7.938736180668706"><ele>243.99999999999997</ele><time>2026-05-03T14:15:44Z</time></trkpt><trkpt lat="44.041474043397216" lon="7.938806904061294"><ele>244.0</ele><time>2026-05-03T14:15:45Z</time></trkpt><trkpt lat="44.04139234712786" lon="7.938872981380335"><ele>244.0</ele><time>2026-05-03T14:15:46Z</time></trkpt><trkpt lat="44.04132481778577" lon="7.938964345388975"><ele>244.0</ele><time>2026-05-03T14:15:47Z</time></trkpt><trkpt lat="44.041249473563035" lon="7.939056333082152"><ele>243.99999999999997</ele><time>2026-05-03T14:15:48Z</time></trkpt><trkpt lat="44.041180120987256" lon="7.939118760001837"><ele>244.0</ele><time>2026-05-03T14:15:49Z</time></trkpt><trkpt lat="44.04111404542466" lon="7.939180366310691"><ele>246.28571428571425</ele><time>2026-05-03T14:15:50Z</time></trkpt><trkpt lat="44.04106486701628" lon="7.939252596225783"><ele>248.57142857142856</ele><time>2026-05-03T14:15:51Z</time></trkpt><trkpt lat="44.041023801494276" lon="7.939328680333903"><ele>250.85714285714286</ele><time>2026-05-03T14:15:52Z</time></trkpt><trkpt lat="44.04098629117577" lon="7.939404455186852"><ele>253.14285714285714</ele><time>2026-05-03T14:15:53Z</time></trkpt><trkpt lat="44.040961011305924" lon="7.939492942015695"><ele>255.42857142857144</ele><time>2026-05-03T14:15:54Z</time></trkpt><trkpt lat="44.040930959049916" lon="7.939603630168298"><ele>257.7142857142857</ele><time>2026-05-03T14:15:55Z</time></trkpt><trkpt lat="44.04089996052674" lon="7.939700816075064"><ele>260.0</ele><time>2026-05-03T14:15:56Z</time></trkpt><trkpt lat="44.040871980046376" lon="7.939800255967086"><ele>260.0</ele><time>2026-05-03T14:15:57Z</time></trkpt><trkpt lat="44.04086073074303" lon="7.939904144030854"><ele>260.0</ele><time>2026-05-03T14:15:58Z</time></trkpt><trkpt lat="44.04085810739607" lon="7.939993337332216"><ele>260.0</ele><time>2026-05-03T14:15:59Z</time></trkpt><trkpt lat="44.040837529999074" lon="7.940131153834074"><ele>260.0</ele><time>2026-05-03T14:16:01Z</time></trkpt><trkpt lat="44.04076892329218" lon="7.940126056784166"><ele>260.0</ele><time>2026-05-03T14:16:03Z</time></trkpt><trkpt lat="44.04074293306708" lon="7.93996343047596"><ele>260.0</ele><time>2026-05-03T14:16:05Z</time></trkpt><trkpt lat="44.040731075931255" lon="7.939744844744125"><ele>257.33333333333337</ele><time>2026-05-03T14:16:07Z</time></trkpt><trkpt lat="44.04073104548173" lon="7.939614641383328"><ele>254.66666666666669</ele><time>2026-05-03T14:16:08Z</time></trkpt><trkpt lat="44.04073966949158" lon="7.939490901039038"><ele>252.0</ele><time>2026-05-03T14:16:09Z</time></trkpt><trkpt lat="44.040749979526446" lon="7.939374334913879"><ele>249.33333333333331</ele><time>2026-05-03T14:16:10Z</time></trkpt><trkpt lat="44.04077353828178" lon="7.939272751149062"><ele>246.66666666666666</ele><time>2026-05-03T14:16:11Z</time></trkpt><trkpt lat="44.04080779041234" lon="7.939159397704465"><ele>244.0</ele><time>2026-05-03T14:16:12Z</time></trkpt><trkpt lat="44.04084341768104" lon="7.939054349976826"><ele>244.0</ele><time>2026-05-03T14:16:13Z</time></trkpt><trkpt lat="44.04088598916178" lon="7.938954131474978"><ele>243.99999999999997</ele><time>2026-05-03T14:16:14Z</time></trkpt><trkpt lat="44.0409360837859" lon="7.938828751292561"><ele>243.99999999999997</ele><time>2026-05-03T14:16:15Z</time></trkpt><trkpt lat="44.04099118943368" lon="7.938697526755346"><ele>244.0</ele><time>2026-05-03T14:16:16Z</time></trkpt><trkpt lat="44.04103943114508" lon="7.93858164299779"><ele>244.0</ele><time>2026-05-03T14:16:17Z</time></trkpt><trkpt lat="44.04107101616863" lon="7.938465396292975"><ele>242.49999999999997</ele><time>2026-05-03T14:16:18Z</time></trkpt><trkpt lat="44.041079488089075" lon="7.938353957235165"><ele>241.0</ele><time>2026-05-03T14:16:19Z</time></trkpt><trkpt lat="44.04106045934155" lon="7.938242442969612"><ele>239.5</ele><time>2026-05-03T14:16:20Z</time></trkpt><trkpt lat="44.04106635302331" lon="7.938132552452014"><ele>238.0</ele><time>2026-05-03T14:16:21Z</time></trkpt><trkpt lat="44.04108634728032" lon="7.938013398653878"><ele>236.49999999999997</ele><time>2026-05-03T14:16:22Z</time></trkpt><trkpt lat="44.04110270512987" lon="7.937901001085837"><ele>235.0</ele><time>2026-05-03T14:16:23Z</time></trkpt><trkpt lat="44.04108367573508" lon="7.937787314955899"><ele>235.0</ele><time>2026-05-03T14:16:24Z</time></trkpt><trkpt lat="44.04107838209749" lon="7.937674920008085"><ele>235.0</ele><time>2026-05-03T14:16:25Z</time></trkpt><trkpt lat="44.04102663074584" lon="7.937532480087104"><ele>235.0</ele><time>2026-05-03T14:16:26Z</time></trkpt><trkpt lat="44.04097415278553" lon="7.93738783416986"><ele>235.0</ele><time>2026-05-03T14:16:27Z</time></trkpt><trkpt lat="44.04090415471608" lon="7.937299918680296"><ele>235.0</ele><time>2026-05-03T14:16:28Z</time></trkpt><trkpt lat="44.040886828956424" lon="7.937183264758521"><ele>236.4</ele><time>2026-05-03T14:16:29Z</time></trkpt><trkpt lat="44.04086759413643" lon="7.937063135934159"><ele>237.8</ele><time>2026-05-03T14:16:30Z</time></trkpt><trkpt lat="44.04084997509653" lon="7.93692948774262"><ele>239.2</ele><time>2026-05-03T14:16:31Z</time></trkpt><trkpt lat="44.04081692141174" lon="7.936802184395902"><ele>240.6</ele><time>2026-05-03T14:16:32Z</time></trkpt><trkpt lat="44.04078040421977" lon="7.936676470055327"><ele>242.0</ele><time>2026-05-03T14:16:33Z</time></trkpt><trkpt lat="44.040744615295985" lon="7.936549788553661"><ele>237.0</ele><time>2026-05-03T14:16:34Z</time></trkpt><trkpt lat="44.04068728083677" lon="7.93642949512429"><ele>232.0</ele><time>2026-05-03T14:16:35Z</time></trkpt><trkpt lat="44.04064117889298" lon="7.936308515362885"><ele>227.0</ele><time>2026-05-03T14:16:36Z</time></trkpt><trkpt lat="44.04059078277017" lon="7.936196953810961"><ele>222.0</ele><time>2026-05-03T14:16:37Z</time></trkpt><trkpt lat="44.040540935992965" lon="7.936086784197179"><ele>217.0</ele><time>2026-05-03T14:16:38Z</time></trkpt><trkpt lat="44.04049558840297" lon="7.93598463863166"><ele>217.57142857142858</ele><time>2026-05-03T14:16:39Z</time></trkpt><trkpt lat="44.04046447050587" lon="7.935882590424567"><ele>218.14285714285714</ele><time>2026-05-03T14:16:40Z</time></trkpt><trkpt lat="44.040453078343006" lon="7.9357877219614785"><ele>218.71428571428572</ele><time>2026-05-03T14:16:41Z</time></trkpt><trkpt lat="44.040470296015776" lon="7.935695896994111"><ele>219.28571428571428</ele><time>2026-05-03T14:16:42Z</time></trkpt><trkpt lat="44.04048905325446" lon="7.935610616773599"><ele>219.85714285714286</ele><time>2026-05-03T14:16:43Z</time></trkpt><trkpt lat="44.04049817728899" lon="7.935509780939676"><ele>220.42857142857144</ele><time>2026-05-03T14:16:44Z</time></trkpt><trkpt lat="44.04045089307222" lon="7.935397938198272"><ele>221.0</ele><time>2026-05-03T14:16:46Z</time></trkpt><trkpt lat="44.04037873565512" lon="7.9353771611953565"><ele>221.00000000000003</ele><time>2026-05-03T14:16:47Z</time></trkpt><trkpt lat="44.040316055983055" lon="7.935407780766481"><ele>221.0</ele><time>2026-05-03T14:16:48Z</time></trkpt><trkpt lat="44.04023562710149" lon="7.935449371141457"><ele>221.0</ele><time>2026-05-03T14:16:49Z</time></trkpt><trkpt lat="44.04017408340644" lon="7.935511282446325"><ele>221.0</ele><time>2026-05-03T14:16:50Z</time></trkpt><trkpt lat="44.040112432500734" lon="7.935559955073607"><ele>221.0</ele><time>2026-05-03T14:16:51Z</time></trkpt><trkpt lat="44.04005041365371" lon="7.935611810960857"><ele>221.00000000000003</ele><time>2026-05-03T14:16:52Z</time></trkpt><trkpt lat="44.0399901136968" lon="7.935651470154332"><ele>221.0</ele><time>2026-05-03T14:16:53Z</time></trkpt><trkpt lat="44.03993155391894" lon="7.935689166442602"><ele>219.00000000000003</ele><time>2026-05-03T14:16:54Z</time></trkpt><trkpt lat="44.03986565271781" lon="7.935704068616407"><ele>217.0</ele><time>2026-05-03T14:16:55Z</time></trkpt><trkpt lat="44.039802213962716" lon="7.935709020218435"><ele>215.0</ele><time>2026-05-03T14:16:56Z</time></trkpt><trkpt lat="44.039722501055095" lon="7.935695614443539"><ele>213.0</ele><time>2026-05-03T14:16:58Z</time></trkpt><trkpt lat="44.03961500287374" lon="7.935685846528229"><ele>211.00000000000003</ele><time>2026-05-03T14:17:01Z</time></trkpt><trkpt lat="44.03952265118212" lon="7.935733985779073"><ele>209.0</ele><time>2026-05-03T14:17:03Z</time></trkpt><trkpt lat="44.0395398540892" lon="7.935879297314974"><ele>208.6</ele><time>2026-05-03T14:17:05Z</time></trkpt><trkpt lat="44.03957873490554" lon="7.935975069363966"><ele>208.2</ele><time>2026-05-03T14:17:06Z</time></trkpt><trkpt lat="44.03959720147545" lon="7.936070691544643"><ele>207.79999999999998</ele><time>2026-05-03T14:17:07Z</time></trkpt><trkpt lat="44.03962325532199" lon="7.93622317003933"><ele>207.39999999999998</ele><time>2026-05-03T14:17:09Z</time></trkpt><trkpt lat="44.03966992996555" lon="7.936371145242122"><ele>207.0</ele><time>2026-05-03T14:17:11Z</time></trkpt><trkpt lat="44.03968569900059" lon="7.936478869365286"><ele>207.0</ele><time>2026-05-03T14:17:12Z</time></trkpt><trkpt lat="44.039700614941104" lon="7.936586500692603"><ele>207.0</ele><time>2026-05-03T14:17:13Z</time></trkpt><trkpt lat="44.039717247318734" lon="7.936710473677147"><ele>207.0</ele><time>2026-05-03T14:17:14Z</time></trkpt><trkpt lat="44.039740817364766" lon="7.936798127950619"><ele>207.0</ele><time>2026-05-03T14:17:15Z</time></trkpt><trkpt lat="44.03979256529761" lon="7.936881415248858"><ele>207.0</ele><time>2026-05-03T14:17:16Z</time></trkpt><trkpt lat="44.03985162685189" lon="7.936977290232458"><ele>207.0</ele><time>2026-05-03T14:17:17Z</time></trkpt><trkpt lat="44.0398993752952" lon="7.93706276216292"><ele>207.33333333333334</ele><time>2026-05-03T14:17:18Z</time></trkpt><trkpt lat="44.039938699753584" lon="7.937153082264224"><ele>207.66666666666669</ele><time>2026-05-03T14:17:19Z</time></trkpt><trkpt lat="44.03996373567979" lon="7.937257303834461"><ele>208.0</ele><time>2026-05-03T14:17:20Z</time></trkpt><trkpt lat="44.039988923091286" lon="7.937359140335391"><ele>208.33333333333334</ele><time>2026-05-03T14:17:21Z</time></trkpt><trkpt lat="44.04001267106387" lon="7.93747361191707"><ele>208.66666666666669</ele><time>2026-05-03T14:17:22Z</time></trkpt><trkpt lat="44.04001610827968" lon="7.9376058582868785"><ele>209.0</ele><time>2026-05-03T14:17:23Z</time></trkpt><trkpt lat="44.040017401633456" lon="7.937725646763939"><ele>209.00000000000003</ele><time>2026-05-03T14:17:24Z</time></trkpt><trkpt lat="44.04002809559898" lon="7.937843453616816"><ele>209.0</ele><time>2026-05-03T14:17:25Z</time></trkpt><trkpt lat="44.040044854112296" lon="7.9379498637957155"><ele>209.0</ele><time>2026-05-03T14:17:26Z</time></trkpt><trkpt lat="44.04005979926924" lon="7.938040766762552"><ele>209.0</ele><time>2026-05-03T14:17:27Z</time></trkpt><trkpt lat="44.04008111924122" lon="7.938128819878632"><ele>209.00000000000003</ele><time>2026-05-03T14:17:28Z</time></trkpt><trkpt lat="44.04013321153998" lon="7.938215533129422"><ele>209.0</ele><time>2026-05-03T14:17:29Z</time></trkpt><trkpt lat="44.04019901966788" lon="7.938289554509133"><ele>209.79999999999998</ele><time>2026-05-03T14:17:30Z</time></trkpt><trkpt lat="44.040193928240114" lon="7.938412097036658"><ele>210.6</ele><time>2026-05-03T14:17:31Z</time></trkpt><trkpt lat="44.04022321580542" lon="7.938525571543566"><ele>211.4</ele><time>2026-05-03T14:17:33Z</time></trkpt><trkpt lat="44.04024618356822" lon="7.938643850803064"><ele>212.2</ele><time>2026-05-03T14:17:34Z</time></trkpt><trkpt lat="44.04025396330187" lon="7.938820417354978"><ele>213.0</ele><time>2026-05-03T14:17:36Z</time></trkpt><trkpt lat="44.040217855239845" lon="7.938990563654506"><ele>213.0</ele><time>2026-05-03T14:17:38Z</time></trkpt><trkpt lat="44.040191468083734" lon="7.9390787455327505"><ele>213.0</ele><time>2026-05-03T14:17:39Z</time></trkpt><trkpt lat="44.040153708832605" lon="7.939197758726334"><ele>213.0</ele><time>2026-05-03T14:17:41Z</time></trkpt><trkpt lat="44.040077250393" lon="7.939277454541091"><ele>213.0</ele><time>2026-05-03T14:17:43Z</time></trkpt><trkpt lat="44.03997877755654" lon="7.939223458053393"><ele>213.0</ele><time>2026-05-03T14:17:44Z</time></trkpt><trkpt lat="44.03989737508077" lon="7.939178346740278"><ele>211.0</ele><time>2026-05-03T14:17:45Z</time></trkpt><trkpt lat="44.03981978227617" lon="7.9391420180845635"><ele>209.0</ele><time>2026-05-03T14:17:46Z</time></trkpt><trkpt lat="44.03974733428919" lon="7.939143493647711"><ele>207.0</ele><time>2026-05-03T14:17:47Z</time></trkpt><trkpt lat="44.039674311454924" lon="7.9391912247148175"><ele>205.0</ele><time>2026-05-03T14:17:48Z</time></trkpt><trkpt lat="44.03958648790621" lon="7.939215562111048"><ele>203.0</ele><time>2026-05-03T14:17:49Z</time></trkpt><trkpt lat="44.03948335670754" lon="7.939268105891348"><ele>201.0</ele><time>2026-05-03T14:17:50Z</time></trkpt><trkpt lat="44.03936899013675" lon="7.93932613561803"><ele>200.5</ele><time>2026-05-03T14:17:51Z</time></trkpt><trkpt lat="44.03926002761242" lon="7.939412559504053"><ele>200.0</ele><time>2026-05-03T14:17:52Z</time></trkpt><trkpt lat="44.03915889317149" lon="7.939505164348046"><ele>199.5</ele><time>2026-05-03T14:17:53Z</time></trkpt><trkpt lat="44.039040897768864" lon="7.939608956897327"><ele>199.0</ele><time>2026-05-03T14:17:54Z</time></trkpt><trkpt lat="44.038926675151394" lon="7.939692885263413"><ele>200.66666666666666</ele><time>2026-05-03T14:17:55Z</time></trkpt><trkpt lat="44.03883147081746" lon="7.939753788922345"><ele>202.33333333333331</ele><time>2026-05-03T14:17:56Z</time></trkpt><trkpt lat="44.038748328982834" lon="7.939818695008341"><ele>204.0</ele><time>2026-05-03T14:17:57Z</time></trkpt><trkpt lat="44.03868626803484" lon="7.93987534672658"><ele>205.66666666666669</ele><time>2026-05-03T14:17:58Z</time></trkpt><trkpt lat="44.038625818211806" lon="7.939927414082422"><ele>207.33333333333334</ele><time>2026-05-03T14:17:59Z</time></trkpt><trkpt lat="44.03855665915513" lon="7.9399603489124555"><ele>209.0</ele><time>2026-05-03T14:18:00Z</time></trkpt><trkpt lat="44.03846340504958" lon="7.939938696277666"><ele>209.00000000000003</ele><time>2026-05-03T14:18:01Z</time></trkpt><trkpt lat="44.03836322244758" lon="7.939897135034957"><ele>209.0</ele><time>2026-05-03T14:18:02Z</time></trkpt><trkpt lat="44.03829189937206" lon="7.939872307138396"><ele>209.0</ele><time>2026-05-03T14:18:03Z</time></trkpt><trkpt lat="44.038217557127126" lon="7.939859948049932"><ele>209.0</ele><time>2026-05-03T14:18:04Z</time></trkpt><trkpt lat="44.03814292042182" lon="7.939856931474529"><ele>209.00000000000003</ele><time>2026-05-03T14:18:05Z</time></trkpt><trkpt lat="44.038066479531146" lon="7.939865752676921"><ele>209.0</ele><time>2026-05-03T14:18:06Z</time></trkpt><trkpt lat="44.0380022707145" lon="7.939896231934825"><ele>211.79999999999998</ele><time>2026-05-03T14:18:07Z</time></trkpt><trkpt lat="44.03791391823023" lon="7.939948234672714"><ele>214.6</ele><time>2026-05-03T14:18:09Z</time></trkpt><trkpt lat="44.037848392838356" lon="7.93998009607997"><ele>217.4</ele><time>2026-05-03T14:18:12Z</time></trkpt><trkpt lat="44.03776495790437" lon="7.939896264628794"><ele>220.2</ele><time>2026-05-03T14:18:15Z</time></trkpt><trkpt lat="44.037722857938256" lon="7.939757561867971"><ele>223.0</ele><time>2026-05-03T14:18:17Z</time></trkpt><trkpt lat="44.03776594164467" lon="7.939576757806085"><ele>223.0</ele><time>2026-05-03T14:18:19Z</time></trkpt><trkpt lat="44.03779012218073" lon="7.939420471668604"><ele>223.0</ele><time>2026-05-03T14:18:21Z</time></trkpt><trkpt lat="44.03781462635761" lon="7.939268983201596"><ele>223.0</ele><time>2026-05-03T14:18:23Z</time></trkpt><trkpt lat="44.0378327142215" lon="7.939157160717817"><ele>223.0</ele><time>2026-05-03T14:18:25Z</time></trkpt><trkpt lat="44.037844696676466" lon="7.939034567998161"><ele>223.0</ele><time>2026-05-03T14:18:27Z</time></trkpt><trkpt lat="44.03785566490548" lon="7.938922076094051"><ele>222.33333333333331</ele><time>2026-05-03T14:18:29Z</time></trkpt><trkpt lat="44.037847683364554" lon="7.938827387004453"><ele>221.66666666666669</ele><time>2026-05-03T14:18:32Z</time></trkpt><trkpt lat="44.03767474453179" lon="7.939026347556086"><ele>221.0</ele><time>2026-05-03T14:18:33Z</time></trkpt><trkpt lat="44.037872271803955" lon="7.938753865810516"><ele>221.0</ele><time>2026-05-03T14:18:36Z</time></trkpt><trkpt lat="44.037684913864595" lon="7.938723025328839"><ele>221.0</ele><time>2026-05-03T14:19:05Z</time></trkpt></trkseg></trk></gpx>